<?xml version="1.0" encoding="UTF-8"?>
<gpx version="1.1" creator="https://www.youtrack.es" xsi:schemaLocation="http://www.topografix.com/GPX/1/1 http://www.topografix.com/GPX/1/1/gpx.xsd http://www.garmin.com/xmlschemas/GpxExtensions/v3 http://www.garmin.com/xmlschemas/GpxExtensionsv3.xsd http://www.garmin.com/xmlschemas/TrackPointExtension/v1 http://www.garmin.com/xmlschemas/TrackPointExtensionv1.xsd" xmlns:gpxtpx="http://www.garmin.com/xmlschemas/TrackPointExtension/v1" xmlns:gpxx="http://www.garmin.com/xmlschemas/GpxExtensions/v3" xmlns:xsi="http://www.w3.org/2001/XMLSchema-instance">
  <metadata>
    <author>
      <name>angel portilla silva</name>
      <email id="portillasilvaangel" domain="gmail.com"/>
    </author>
    <link href="https://www.youtrack.es">
      <text>YouTrack.es</text>
    </link>
    <time>2026-05-08T22:19:14Z</time>
  </metadata>
  <trk>
    <src>https://www.youtrack.es</src>
    <link href="https://www.youtrack.es/ruta/9383-costa-portuguesa">
      <text>YouTrack.es</text>
    </link>
    <trkseg>
      <trkpt lat="42.224712" lon="-8.708325">
        <ele>67.931</ele>
        <time>2019-08-17T09:00:46Z</time>
      </trkpt>
      <trkpt lat="42.225365" lon="-8.708806">
        <ele>78.961</ele>
        <time>2019-08-17T09:02:57Z</time>
      </trkpt>
      <trkpt lat="42.226090" lon="-8.708658">
        <ele>84.807</ele>
        <time>2019-08-17T09:03:32Z</time>
      </trkpt>
      <trkpt lat="42.226159" lon="-8.708788">
        <ele>84.808</ele>
        <time>2019-08-17T09:03:42Z</time>
      </trkpt>
      <trkpt lat="42.224884" lon="-8.709480">
        <ele>69.187</ele>
        <time>2019-08-17T09:05:28Z</time>
      </trkpt>
      <trkpt lat="42.223576" lon="-8.711292">
        <ele>64.883</ele>
        <time>2019-08-17T09:06:50Z</time>
      </trkpt>
      <trkpt lat="42.222660" lon="-8.712932">
        <ele>55.033</ele>
        <time>2019-08-17T09:08:21Z</time>
      </trkpt>
      <trkpt lat="42.220588" lon="-8.714722">
        <ele>35.492</ele>
        <time>2019-08-17T09:08:45Z</time>
      </trkpt>
      <trkpt lat="42.220005" lon="-8.715775">
        <ele>24.775</ele>
        <time>2019-08-17T09:08:53Z</time>
      </trkpt>
      <trkpt lat="42.219750" lon="-8.716763">
        <ele>25.569</ele>
        <time>2019-08-17T09:09:00Z</time>
      </trkpt>
      <trkpt lat="42.219732" lon="-8.718082">
        <ele>30.986</ele>
        <time>2019-08-17T09:09:11Z</time>
      </trkpt>
      <trkpt lat="42.219902" lon="-8.719035">
        <ele>27.075</ele>
        <time>2019-08-17T09:09:20Z</time>
      </trkpt>
      <trkpt lat="42.220584" lon="-8.720748">
        <ele>20.795</ele>
        <time>2019-08-17T09:09:37Z</time>
      </trkpt>
      <trkpt lat="42.220561" lon="-8.722030">
        <ele>18.749</ele>
        <time>2019-08-17T09:09:48Z</time>
      </trkpt>
      <trkpt lat="42.220176" lon="-8.723161">
        <ele>17.623</ele>
        <time>2019-08-17T09:09:59Z</time>
      </trkpt>
      <trkpt lat="42.219647" lon="-8.724060">
        <ele>17.308</ele>
        <time>2019-08-17T09:10:09Z</time>
      </trkpt>
      <trkpt lat="42.217975" lon="-8.725240">
        <ele>18.743</ele>
        <time>2019-08-17T09:10:32Z</time>
      </trkpt>
      <trkpt lat="42.217619" lon="-8.725722">
        <ele>15.029</ele>
        <time>2019-08-17T09:10:38Z</time>
      </trkpt>
      <trkpt lat="42.217436" lon="-8.726518">
        <ele>16.869</ele>
        <time>2019-08-17T09:10:45Z</time>
      </trkpt>
      <trkpt lat="42.217359" lon="-8.728349">
        <ele>21.468</ele>
        <time>2019-08-17T09:11:01Z</time>
      </trkpt>
      <trkpt lat="42.217023" lon="-8.729525">
        <ele>20.331</ele>
        <time>2019-08-17T09:11:14Z</time>
      </trkpt>
      <trkpt lat="42.216399" lon="-8.730309">
        <ele>11.265</ele>
        <time>2019-08-17T09:11:28Z</time>
      </trkpt>
      <trkpt lat="42.215425" lon="-8.731048">
        <ele>15.192</ele>
        <time>2019-08-17T09:11:45Z</time>
      </trkpt>
      <trkpt lat="42.215159" lon="-8.732438">
        <ele>17.121</ele>
        <time>2019-08-17T09:12:10Z</time>
      </trkpt>
      <trkpt lat="42.214770" lon="-8.732539">
        <ele>16.772</ele>
        <time>2019-08-17T09:12:18Z</time>
      </trkpt>
      <trkpt lat="42.211857" lon="-8.732301">
        <ele>16.813</ele>
        <time>2019-08-17T09:13:09Z</time>
      </trkpt>
      <trkpt lat="42.211282" lon="-8.737367">
        <ele>13.814</ele>
        <time>2019-08-17T09:14:33Z</time>
      </trkpt>
      <trkpt lat="42.211433" lon="-8.737859">
        <ele>11.008</ele>
        <time>2019-08-17T09:15:35Z</time>
      </trkpt>
      <trkpt lat="42.210088" lon="-8.742082">
        <ele>7.391</ele>
        <time>2019-08-17T09:16:47Z</time>
      </trkpt>
      <trkpt lat="42.209227" lon="-8.746610">
        <ele>8.837</ele>
        <time>2019-08-17T09:17:49Z</time>
      </trkpt>
      <trkpt lat="42.208718" lon="-8.747394">
        <ele>6.077</ele>
        <time>2019-08-17T09:18:04Z</time>
      </trkpt>
      <trkpt lat="42.208580" lon="-8.748021">
        <ele>7.876</ele>
        <time>2019-08-17T09:18:14Z</time>
      </trkpt>
      <trkpt lat="42.208045" lon="-8.747896">
        <ele>5.099</ele>
        <time>2019-08-17T09:18:23Z</time>
      </trkpt>
      <trkpt lat="42.207155" lon="-8.748394">
        <ele>9.923</ele>
        <time>2019-08-17T09:18:56Z</time>
      </trkpt>
      <trkpt lat="42.206241" lon="-8.749595">
        <ele>7.030</ele>
        <time>2019-08-17T09:19:24Z</time>
      </trkpt>
      <trkpt lat="42.205878" lon="-8.750962">
        <ele>7.759</ele>
        <time>2019-08-17T09:19:46Z</time>
      </trkpt>
      <trkpt lat="42.205985" lon="-8.751343">
        <ele>8.526</ele>
        <time>2019-08-17T09:19:56Z</time>
      </trkpt>
      <trkpt lat="42.206282" lon="-8.751534">
        <ele>9.047</ele>
        <time>2019-08-17T09:20:10Z</time>
      </trkpt>
      <trkpt lat="42.206242" lon="-8.752928">
        <ele>8.511</ele>
        <time>2019-08-17T09:21:26Z</time>
      </trkpt>
      <trkpt lat="42.204711" lon="-8.755234">
        <ele>7.808</ele>
        <time>2019-08-17T09:22:08Z</time>
      </trkpt>
      <trkpt lat="42.202160" lon="-8.760004">
        <ele>5.866</ele>
        <time>2019-08-17T09:23:25Z</time>
      </trkpt>
      <trkpt lat="42.201641" lon="-8.761218">
        <ele>6.972</ele>
        <time>2019-08-17T09:24:47Z</time>
      </trkpt>
      <trkpt lat="42.201802" lon="-8.766263">
        <ele>5.742</ele>
        <time>2019-08-17T09:26:12Z</time>
      </trkpt>
      <trkpt lat="42.201386" lon="-8.767123">
        <ele>2.441</ele>
        <time>2019-08-17T09:26:28Z</time>
      </trkpt>
      <trkpt lat="42.201309" lon="-8.767902">
        <ele>2.144</ele>
        <time>2019-08-17T09:26:40Z</time>
      </trkpt>
      <trkpt lat="42.201468" lon="-8.769282">
        <ele>4.118</ele>
        <time>2019-08-17T09:27:49Z</time>
      </trkpt>
      <trkpt lat="42.201786" lon="-8.769421">
        <ele>3.035</ele>
        <time>2019-08-17T09:28:00Z</time>
      </trkpt>
      <trkpt lat="42.202016" lon="-8.769834">
        <ele>4.124</ele>
        <time>2019-08-17T09:28:14Z</time>
      </trkpt>
      <trkpt lat="42.201656" lon="-8.771162">
        <ele>4.329</ele>
        <time>2019-08-17T09:28:44Z</time>
      </trkpt>
      <trkpt lat="42.201584" lon="-8.773077">
        <ele>3.300</ele>
        <time>2019-08-17T09:29:15Z</time>
      </trkpt>
      <trkpt lat="42.202016" lon="-8.774942">
        <ele>3.120</ele>
        <time>2019-08-17T09:30:49Z</time>
      </trkpt>
      <trkpt lat="42.201950" lon="-8.776806">
        <ele>6.108</ele>
        <time>2019-08-17T09:31:21Z</time>
      </trkpt>
      <trkpt lat="42.202243" lon="-8.777173">
        <ele>8.066</ele>
        <time>2019-08-17T09:31:32Z</time>
      </trkpt>
      <trkpt lat="42.202568" lon="-8.777123">
        <ele>6.072</ele>
        <time>2019-08-17T09:31:46Z</time>
      </trkpt>
      <trkpt lat="42.202572" lon="-8.778903">
        <ele>6.462</ele>
        <time>2019-08-17T09:32:17Z</time>
      </trkpt>
      <trkpt lat="42.203023" lon="-8.779185">
        <ele>10.361</ele>
        <time>2019-08-17T09:33:04Z</time>
      </trkpt>
      <trkpt lat="42.203206" lon="-8.779640">
        <ele>10.864</ele>
        <time>2019-08-17T09:34:16Z</time>
      </trkpt>
      <trkpt lat="42.203152" lon="-8.779973">
        <ele>11.178</ele>
        <time>2019-08-17T09:34:24Z</time>
      </trkpt>
      <trkpt lat="42.202105" lon="-8.781385">
        <ele>12.335</ele>
        <time>2019-08-17T09:34:53Z</time>
      </trkpt>
      <trkpt lat="42.201574" lon="-8.783105">
        <ele>4.294</ele>
        <time>2019-08-17T09:35:22Z</time>
      </trkpt>
      <trkpt lat="42.200884" lon="-8.784086">
        <ele>13.493</ele>
        <time>2019-08-17T09:38:11Z</time>
      </trkpt>
      <trkpt lat="42.200530" lon="-8.784939">
        <ele>8.365</ele>
        <time>2019-08-17T09:38:23Z</time>
      </trkpt>
      <trkpt lat="42.199876" lon="-8.785429">
        <ele>9.721</ele>
        <time>2019-08-17T09:38:36Z</time>
      </trkpt>
      <trkpt lat="42.199170" lon="-8.786459">
        <ele>10.708</ele>
        <time>2019-08-17T09:38:53Z</time>
      </trkpt>
      <trkpt lat="42.198180" lon="-8.789058">
        <ele>8.653</ele>
        <time>2019-08-17T09:39:33Z</time>
      </trkpt>
      <trkpt lat="42.196848" lon="-8.791281">
        <ele>5.539</ele>
        <time>2019-08-17T09:40:05Z</time>
      </trkpt>
      <trkpt lat="42.196331" lon="-8.794469">
        <ele>6.279</ele>
        <time>2019-08-17T09:40:48Z</time>
      </trkpt>
      <trkpt lat="42.196129" lon="-8.794903">
        <ele>9.618</ele>
        <time>2019-08-17T09:40:56Z</time>
      </trkpt>
      <trkpt lat="42.196703" lon="-8.794734">
        <ele>4.871</ele>
        <time>2019-08-17T09:41:42Z</time>
      </trkpt>
      <trkpt lat="42.196724" lon="-8.795103">
        <ele>5.915</ele>
        <time>2019-08-17T09:42:16Z</time>
      </trkpt>
      <trkpt lat="42.196036" lon="-8.796144">
        <ele>5.942</ele>
        <time>2019-08-17T09:43:39Z</time>
      </trkpt>
      <trkpt lat="42.195310" lon="-8.796315">
        <ele>5.651</ele>
        <time>2019-08-17T09:44:01Z</time>
      </trkpt>
      <trkpt lat="42.194771" lon="-8.796076">
        <ele>5.119</ele>
        <time>2019-08-17T09:44:32Z</time>
      </trkpt>
      <trkpt lat="42.193474" lon="-8.797278">
        <ele>4.509</ele>
        <time>2019-08-17T09:45:08Z</time>
      </trkpt>
      <trkpt lat="42.193110" lon="-8.798213">
        <ele>8.419</ele>
        <time>2019-08-17T09:45:24Z</time>
      </trkpt>
      <trkpt lat="42.193115" lon="-8.799329">
        <ele>10.508</ele>
        <time>2019-08-17T09:45:54Z</time>
      </trkpt>
      <trkpt lat="42.191953" lon="-8.799403">
        <ele>16.865</ele>
        <time>2019-08-17T09:46:44Z</time>
      </trkpt>
      <trkpt lat="42.190697" lon="-8.799722">
        <ele>24.561</ele>
        <time>2019-08-17T09:47:26Z</time>
      </trkpt>
      <trkpt lat="42.190147" lon="-8.800564">
        <ele>24.411</ele>
        <time>2019-08-17T09:47:52Z</time>
      </trkpt>
      <trkpt lat="42.187457" lon="-8.805944">
        <ele>33.030</ele>
        <time>2019-08-17T09:49:46Z</time>
      </trkpt>
      <trkpt lat="42.186964" lon="-8.806234">
        <ele>35.593</ele>
        <time>2019-08-17T09:50:00Z</time>
      </trkpt>
      <trkpt lat="42.184588" lon="-8.806735">
        <ele>37.777</ele>
        <time>2019-08-17T09:50:57Z</time>
      </trkpt>
      <trkpt lat="42.184292" lon="-8.807094">
        <ele>38.364</ele>
        <time>2019-08-17T09:51:06Z</time>
      </trkpt>
      <trkpt lat="42.183441" lon="-8.809168">
        <ele>43.543</ele>
        <time>2019-08-17T09:51:52Z</time>
      </trkpt>
      <trkpt lat="42.182654" lon="-8.809634">
        <ele>48.442</ele>
        <time>2019-08-17T09:52:20Z</time>
      </trkpt>
      <trkpt lat="42.182152" lon="-8.809521">
        <ele>50.122</ele>
        <time>2019-08-17T09:52:36Z</time>
      </trkpt>
      <trkpt lat="42.181762" lon="-8.809160">
        <ele>51.714</ele>
        <time>2019-08-17T09:52:47Z</time>
      </trkpt>
      <trkpt lat="42.180448" lon="-8.806571">
        <ele>50.308</ele>
        <time>2019-08-17T09:53:33Z</time>
      </trkpt>
      <trkpt lat="42.180125" lon="-8.806201">
        <ele>51.368</ele>
        <time>2019-08-17T09:53:42Z</time>
      </trkpt>
      <trkpt lat="42.179504" lon="-8.806125">
        <ele>51.264</ele>
        <time>2019-08-17T09:53:55Z</time>
      </trkpt>
      <trkpt lat="42.177977" lon="-8.806991">
        <ele>56.124</ele>
        <time>2019-08-17T09:55:28Z</time>
      </trkpt>
      <trkpt lat="42.176516" lon="-8.806695">
        <ele>51.983</ele>
        <time>2019-08-17T09:55:55Z</time>
      </trkpt>
      <trkpt lat="42.175993" lon="-8.806779">
        <ele>51.246</ele>
        <time>2019-08-17T09:56:03Z</time>
      </trkpt>
      <trkpt lat="42.175599" lon="-8.807295">
        <ele>48.580</ele>
        <time>2019-08-17T09:56:14Z</time>
      </trkpt>
      <trkpt lat="42.175199" lon="-8.808962">
        <ele>55.647</ele>
        <time>2019-08-17T09:56:40Z</time>
      </trkpt>
      <trkpt lat="42.174889" lon="-8.809654">
        <ele>52.146</ele>
        <time>2019-08-17T09:56:52Z</time>
      </trkpt>
      <trkpt lat="42.173159" lon="-8.811681">
        <ele>51.321</ele>
        <time>2019-08-17T09:57:37Z</time>
      </trkpt>
      <trkpt lat="42.172271" lon="-8.812371">
        <ele>51.441</ele>
        <time>2019-08-17T09:57:58Z</time>
      </trkpt>
      <trkpt lat="42.169697" lon="-8.813376">
        <ele>45.105</ele>
        <time>2019-08-17T09:59:12Z</time>
      </trkpt>
      <trkpt lat="42.167053" lon="-8.813963">
        <ele>44.108</ele>
        <time>2019-08-17T10:00:05Z</time>
      </trkpt>
      <trkpt lat="42.166484" lon="-8.813785">
        <ele>43.626</ele>
        <time>2019-08-17T10:00:16Z</time>
      </trkpt>
      <trkpt lat="42.165389" lon="-8.812755">
        <ele>40.292</ele>
        <time>2019-08-17T10:00:41Z</time>
      </trkpt>
      <trkpt lat="42.164693" lon="-8.812749">
        <ele>44.422</ele>
        <time>2019-08-17T10:00:53Z</time>
      </trkpt>
      <trkpt lat="42.164239" lon="-8.813039">
        <ele>38.341</ele>
        <time>2019-08-17T10:01:02Z</time>
      </trkpt>
      <trkpt lat="42.163010" lon="-8.814339">
        <ele>38.744</ele>
        <time>2019-08-17T10:01:31Z</time>
      </trkpt>
      <trkpt lat="42.160810" lon="-8.814847">
        <ele>40.028</ele>
        <time>2019-08-17T10:03:42Z</time>
      </trkpt>
      <trkpt lat="42.157925" lon="-8.817549">
        <ele>34.655</ele>
        <time>2019-08-17T10:04:52Z</time>
      </trkpt>
      <trkpt lat="42.157077" lon="-8.819114">
        <ele>36.084</ele>
        <time>2019-08-17T10:07:18Z</time>
      </trkpt>
      <trkpt lat="42.155224" lon="-8.820074">
        <ele>35.375</ele>
        <time>2019-08-17T10:07:56Z</time>
      </trkpt>
      <trkpt lat="42.153678" lon="-8.821302">
        <ele>34.828</ele>
        <time>2019-08-17T10:08:27Z</time>
      </trkpt>
      <trkpt lat="42.152764" lon="-8.821577">
        <ele>35.920</ele>
        <time>2019-08-17T10:08:42Z</time>
      </trkpt>
      <trkpt lat="42.152106" lon="-8.821559">
        <ele>33.208</ele>
        <time>2019-08-17T10:08:53Z</time>
      </trkpt>
      <trkpt lat="42.150951" lon="-8.820630">
        <ele>33.371</ele>
        <time>2019-08-17T10:09:16Z</time>
      </trkpt>
      <trkpt lat="42.150443" lon="-8.820498">
        <ele>32.937</ele>
        <time>2019-08-17T10:09:24Z</time>
      </trkpt>
      <trkpt lat="42.149918" lon="-8.820634">
        <ele>34.917</ele>
        <time>2019-08-17T10:09:33Z</time>
      </trkpt>
      <trkpt lat="42.149104" lon="-8.821619">
        <ele>33.416</ele>
        <time>2019-08-17T10:09:53Z</time>
      </trkpt>
      <trkpt lat="42.148614" lon="-8.821886">
        <ele>32.859</ele>
        <time>2019-08-17T10:10:03Z</time>
      </trkpt>
      <trkpt lat="42.147912" lon="-8.821910">
        <ele>33.093</ele>
        <time>2019-08-17T10:10:18Z</time>
      </trkpt>
      <trkpt lat="42.146694" lon="-8.821207">
        <ele>33.440</ele>
        <time>2019-08-17T10:10:53Z</time>
      </trkpt>
      <trkpt lat="42.146646" lon="-8.821574">
        <ele>31.249</ele>
        <time>2019-08-17T10:11:04Z</time>
      </trkpt>
      <trkpt lat="42.146292" lon="-8.821695">
        <ele>27.439</ele>
        <time>2019-08-17T10:11:15Z</time>
      </trkpt>
      <trkpt lat="42.146084" lon="-8.822198">
        <ele>22.301</ele>
        <time>2019-08-17T10:11:32Z</time>
      </trkpt>
      <trkpt lat="42.145470" lon="-8.822466">
        <ele>15.021</ele>
        <time>2019-08-17T10:13:06Z</time>
      </trkpt>
      <trkpt lat="42.145291" lon="-8.822893">
        <ele>12.208</ele>
        <time>2019-08-17T10:13:22Z</time>
      </trkpt>
      <trkpt lat="42.145528" lon="-8.823194">
        <ele>14.757</ele>
        <time>2019-08-17T10:14:01Z</time>
      </trkpt>
      <trkpt lat="42.145465" lon="-8.823405">
        <ele>13.353</ele>
        <time>2019-08-17T10:14:47Z</time>
      </trkpt>
      <trkpt lat="42.145631" lon="-8.823338">
        <ele>15.873</ele>
        <time>2019-08-17T10:15:44Z</time>
      </trkpt>
      <trkpt lat="42.145549" lon="-8.823419">
        <ele>14.372</ele>
        <time>2019-08-17T10:15:45Z</time>
      </trkpt>
      <trkpt lat="42.145634" lon="-8.823289">
        <ele>15.825</ele>
        <time>2019-08-17T10:15:58Z</time>
      </trkpt>
      <trkpt lat="42.145484" lon="-8.823353">
        <ele>13.989</ele>
        <time>2019-08-17T10:20:00Z</time>
      </trkpt>
      <trkpt lat="42.145312" lon="-8.822844">
        <ele>12.556</ele>
        <time>2019-08-17T10:21:51Z</time>
      </trkpt>
      <trkpt lat="42.145450" lon="-8.822239">
        <ele>16.015</ele>
        <time>2019-08-17T10:22:11Z</time>
      </trkpt>
      <trkpt lat="42.145287" lon="-8.821509">
        <ele>20.923</ele>
        <time>2019-08-17T10:22:30Z</time>
      </trkpt>
      <trkpt lat="42.145283" lon="-8.820232">
        <ele>27.383</ele>
        <time>2019-08-17T10:23:03Z</time>
      </trkpt>
      <trkpt lat="42.144543" lon="-8.818953">
        <ele>29.211</ele>
        <time>2019-08-17T10:23:45Z</time>
      </trkpt>
      <trkpt lat="42.144361" lon="-8.817725">
        <ele>36.208</ele>
        <time>2019-08-17T10:24:18Z</time>
      </trkpt>
      <trkpt lat="42.143470" lon="-8.816076">
        <ele>36.616</ele>
        <time>2019-08-17T10:24:50Z</time>
      </trkpt>
      <trkpt lat="42.142825" lon="-8.814462">
        <ele>32.272</ele>
        <time>2019-08-17T10:25:14Z</time>
      </trkpt>
      <trkpt lat="42.142872" lon="-8.813462">
        <ele>30.822</ele>
        <time>2019-08-17T10:25:26Z</time>
      </trkpt>
      <trkpt lat="42.143640" lon="-8.811697">
        <ele>25.641</ele>
        <time>2019-08-17T10:25:48Z</time>
      </trkpt>
      <trkpt lat="42.143583" lon="-8.810651">
        <ele>22.664</ele>
        <time>2019-08-17T10:25:59Z</time>
      </trkpt>
      <trkpt lat="42.143091" lon="-8.809962">
        <ele>27.348</ele>
        <time>2019-08-17T10:26:11Z</time>
      </trkpt>
      <trkpt lat="42.139793" lon="-8.808118">
        <ele>27.825</ele>
        <time>2019-08-17T10:27:16Z</time>
      </trkpt>
      <trkpt lat="42.136458" lon="-8.808307">
        <ele>19.914</ele>
        <time>2019-08-17T10:28:07Z</time>
      </trkpt>
      <trkpt lat="42.134448" lon="-8.811476">
        <ele>7.352</ele>
        <time>2019-08-17T10:28:53Z</time>
      </trkpt>
      <trkpt lat="42.134221" lon="-8.812223">
        <ele>6.253</ele>
        <time>2019-08-17T10:29:03Z</time>
      </trkpt>
      <trkpt lat="42.133770" lon="-8.812506">
        <ele>6.008</ele>
        <time>2019-08-17T10:29:10Z</time>
      </trkpt>
      <trkpt lat="42.131928" lon="-8.815557">
        <ele>9.108</ele>
        <time>2019-08-17T10:29:53Z</time>
      </trkpt>
      <trkpt lat="42.129225" lon="-8.817350">
        <ele>18.539</ele>
        <time>2019-08-17T10:30:43Z</time>
      </trkpt>
      <trkpt lat="42.128889" lon="-8.817431">
        <ele>17.055</ele>
        <time>2019-08-17T10:30:49Z</time>
      </trkpt>
      <trkpt lat="42.126520" lon="-8.819134">
        <ele>9.165</ele>
        <time>2019-08-17T10:31:34Z</time>
      </trkpt>
      <trkpt lat="42.125126" lon="-8.819912">
        <ele>10.474</ele>
        <time>2019-08-17T10:32:01Z</time>
      </trkpt>
      <trkpt lat="42.124537" lon="-8.819901">
        <ele>12.777</ele>
        <time>2019-08-17T10:32:54Z</time>
      </trkpt>
      <trkpt lat="42.123150" lon="-8.819168">
        <ele>9.721</ele>
        <time>2019-08-17T10:33:15Z</time>
      </trkpt>
      <trkpt lat="42.120488" lon="-8.816273">
        <ele>8.648</ele>
        <time>2019-08-17T10:34:05Z</time>
      </trkpt>
      <trkpt lat="42.117970" lon="-8.815120">
        <ele>8.677</ele>
        <time>2019-08-17T10:34:48Z</time>
      </trkpt>
      <trkpt lat="42.116376" lon="-8.812914">
        <ele>5.495</ele>
        <time>2019-08-17T10:35:24Z</time>
      </trkpt>
      <trkpt lat="42.116144" lon="-8.812893">
        <ele>4.249</ele>
        <time>2019-08-17T10:35:28Z</time>
      </trkpt>
      <trkpt lat="42.115302" lon="-8.813390">
        <ele>1.923</ele>
        <time>2019-08-17T10:35:43Z</time>
      </trkpt>
      <trkpt lat="42.115295" lon="-8.814027">
        <ele>1.508</ele>
        <time>2019-08-17T10:35:53Z</time>
      </trkpt>
      <trkpt lat="42.115490" lon="-8.814694">
        <ele>4.763</ele>
        <time>2019-08-17T10:36:02Z</time>
      </trkpt>
      <trkpt lat="42.115079" lon="-8.816168">
        <ele>-0.419</ele>
        <time>2019-08-17T10:36:24Z</time>
      </trkpt>
      <trkpt lat="42.113995" lon="-8.817393">
        <ele>-0.179</ele>
        <time>2019-08-17T10:36:49Z</time>
      </trkpt>
      <trkpt lat="42.113613" lon="-8.818103">
        <ele>-0.278</ele>
        <time>2019-08-17T10:36:59Z</time>
      </trkpt>
      <trkpt lat="42.112581" lon="-8.821377">
        <ele>3.391</ele>
        <time>2019-08-17T10:37:45Z</time>
      </trkpt>
      <trkpt lat="42.112433" lon="-8.822507">
        <ele>1.825</ele>
        <time>2019-08-17T10:38:06Z</time>
      </trkpt>
      <trkpt lat="42.112166" lon="-8.822665">
        <ele>1.772</ele>
        <time>2019-08-17T10:38:45Z</time>
      </trkpt>
      <trkpt lat="42.111894" lon="-8.824880">
        <ele>2.181</ele>
        <time>2019-08-17T10:39:13Z</time>
      </trkpt>
      <trkpt lat="42.111706" lon="-8.825177">
        <ele>1.469</ele>
        <time>2019-08-17T10:39:19Z</time>
      </trkpt>
      <trkpt lat="42.110416" lon="-8.825822">
        <ele>2.504</ele>
        <time>2019-08-17T10:39:45Z</time>
      </trkpt>
      <trkpt lat="42.110180" lon="-8.826488">
        <ele>2.424</ele>
        <time>2019-08-17T10:39:58Z</time>
      </trkpt>
      <trkpt lat="42.110184" lon="-8.828136">
        <ele>3.908</ele>
        <time>2019-08-17T10:40:22Z</time>
      </trkpt>
      <trkpt lat="42.110478" lon="-8.830105">
        <ele>4.250</ele>
        <time>2019-08-17T10:40:51Z</time>
      </trkpt>
      <trkpt lat="42.110845" lon="-8.830280">
        <ele>4.016</ele>
        <time>2019-08-17T10:41:03Z</time>
      </trkpt>
      <trkpt lat="42.111020" lon="-8.830676">
        <ele>4.146</ele>
        <time>2019-08-17T10:41:19Z</time>
      </trkpt>
      <trkpt lat="42.111686" lon="-8.834859">
        <ele>4.915</ele>
        <time>2019-08-17T10:42:26Z</time>
      </trkpt>
      <trkpt lat="42.112644" lon="-8.835802">
        <ele>0.058</ele>
        <time>2019-08-17T10:42:52Z</time>
      </trkpt>
      <trkpt lat="42.112452" lon="-8.836190">
        <ele>2.932</ele>
        <time>2019-08-17T10:45:09Z</time>
      </trkpt>
      <trkpt lat="42.113020" lon="-8.836427">
        <ele>5.749</ele>
        <time>2019-08-17T10:48:55Z</time>
      </trkpt>
      <trkpt lat="42.113456" lon="-8.836895">
        <ele>5.718</ele>
        <time>2019-08-17T10:49:14Z</time>
      </trkpt>
      <trkpt lat="42.114686" lon="-8.840733">
        <ele>1.169</ele>
        <time>2019-08-17T10:50:24Z</time>
      </trkpt>
      <trkpt lat="42.117463" lon="-8.844166">
        <ele>0.004</ele>
        <time>2019-08-17T10:51:40Z</time>
      </trkpt>
      <trkpt lat="42.118751" lon="-8.846639">
        <ele>1.924</ele>
        <time>2019-08-17T10:53:12Z</time>
      </trkpt>
      <trkpt lat="42.119266" lon="-8.847159">
        <ele>0.408</ele>
        <time>2019-08-17T10:58:55Z</time>
      </trkpt>
      <trkpt lat="42.119295" lon="-8.847625">
        <ele>0.830</ele>
        <time>2019-08-17T11:00:24Z</time>
      </trkpt>
      <trkpt lat="42.121053" lon="-8.849715">
        <ele>3.296</ele>
        <time>2019-08-17T11:02:00Z</time>
      </trkpt>
      <trkpt lat="42.121798" lon="-8.849249">
        <ele>2.276</ele>
        <time>2019-08-17T11:03:45Z</time>
      </trkpt>
      <trkpt lat="42.122080" lon="-8.849492">
        <ele>5.065</ele>
        <time>2019-08-17T11:04:03Z</time>
      </trkpt>
      <trkpt lat="42.122822" lon="-8.848684">
        <ele>6.888</ele>
        <time>2019-08-17T11:06:35Z</time>
      </trkpt>
      <trkpt lat="42.124524" lon="-8.848907">
        <ele>19.892</ele>
        <time>2019-08-17T11:07:40Z</time>
      </trkpt>
      <trkpt lat="42.125029" lon="-8.847660">
        <ele>18.039</ele>
        <time>2019-08-17T11:08:20Z</time>
      </trkpt>
      <trkpt lat="42.125517" lon="-8.847353">
        <ele>13.698</ele>
        <time>2019-08-17T11:09:01Z</time>
      </trkpt>
      <trkpt lat="42.125550" lon="-8.847501">
        <ele>17.191</ele>
        <time>2019-08-17T11:15:06Z</time>
      </trkpt>
      <trkpt lat="42.125320" lon="-8.847667">
        <ele>22.481</ele>
        <time>2019-08-17T11:15:26Z</time>
      </trkpt>
      <trkpt lat="42.125396" lon="-8.848722">
        <ele>21.119</ele>
        <time>2019-08-17T11:15:54Z</time>
      </trkpt>
      <trkpt lat="42.125593" lon="-8.849079">
        <ele>21.808</ele>
        <time>2019-08-17T11:16:12Z</time>
      </trkpt>
      <trkpt lat="42.126672" lon="-8.850019">
        <ele>17.783</ele>
        <time>2019-08-17T11:17:02Z</time>
      </trkpt>
      <trkpt lat="42.127261" lon="-8.850853">
        <ele>17.379</ele>
        <time>2019-08-17T11:17:59Z</time>
      </trkpt>
      <trkpt lat="42.126912" lon="-8.851644">
        <ele>24.629</ele>
        <time>2019-08-17T11:29:57Z</time>
      </trkpt>
      <trkpt lat="42.126675" lon="-8.851670">
        <ele>23.918</ele>
        <time>2019-08-17T11:31:06Z</time>
      </trkpt>
      <trkpt lat="42.125632" lon="-8.850596">
        <ele>27.941</ele>
        <time>2019-08-17T11:31:54Z</time>
      </trkpt>
      <trkpt lat="42.125005" lon="-8.850933">
        <ele>25.275</ele>
        <time>2019-08-17T11:32:24Z</time>
      </trkpt>
      <trkpt lat="42.124501" lon="-8.850829">
        <ele>37.432</ele>
        <time>2019-08-17T11:32:47Z</time>
      </trkpt>
      <trkpt lat="42.124130" lon="-8.851032">
        <ele>34.641</ele>
        <time>2019-08-17T11:33:24Z</time>
      </trkpt>
      <trkpt lat="42.123340" lon="-8.850768">
        <ele>28.844</ele>
        <time>2019-08-17T11:35:31Z</time>
      </trkpt>
      <trkpt lat="42.123017" lon="-8.850175">
        <ele>27.805</ele>
        <time>2019-08-17T11:36:37Z</time>
      </trkpt>
      <trkpt lat="42.122830" lon="-8.849412">
        <ele>22.915</ele>
        <time>2019-08-17T11:37:32Z</time>
      </trkpt>
      <trkpt lat="42.123547" lon="-8.849082">
        <ele>22.608</ele>
        <time>2019-08-17T11:38:31Z</time>
      </trkpt>
      <trkpt lat="42.124331" lon="-8.849058">
        <ele>21.288</ele>
        <time>2019-08-17T11:41:04Z</time>
      </trkpt>
      <trkpt lat="42.124735" lon="-8.848379">
        <ele>17.684</ele>
        <time>2019-08-17T11:41:38Z</time>
      </trkpt>
      <trkpt lat="42.124481" lon="-8.848938">
        <ele>19.874</ele>
        <time>2019-08-17T11:42:44Z</time>
      </trkpt>
      <trkpt lat="42.123704" lon="-8.848625">
        <ele>13.243</ele>
        <time>2019-08-17T11:43:11Z</time>
      </trkpt>
      <trkpt lat="42.122862" lon="-8.848605">
        <ele>6.676</ele>
        <time>2019-08-17T11:43:50Z</time>
      </trkpt>
      <trkpt lat="42.121262" lon="-8.850012">
        <ele>5.530</ele>
        <time>2019-08-17T11:45:18Z</time>
      </trkpt>
      <trkpt lat="42.121926" lon="-8.852040">
        <ele>8.417</ele>
        <time>2019-08-17T11:46:15Z</time>
      </trkpt>
      <trkpt lat="42.122238" lon="-8.852293">
        <ele>1.196</ele>
        <time>2019-08-17T11:48:10Z</time>
      </trkpt>
      <trkpt lat="42.121887" lon="-8.852894">
        <ele>8.479</ele>
        <time>2019-08-17T11:48:29Z</time>
      </trkpt>
      <trkpt lat="42.121738" lon="-8.854056">
        <ele>5.905</ele>
        <time>2019-08-17T11:48:52Z</time>
      </trkpt>
      <trkpt lat="42.121471" lon="-8.854378">
        <ele>7.525</ele>
        <time>2019-08-17T11:49:03Z</time>
      </trkpt>
      <trkpt lat="42.122189" lon="-8.858148">
        <ele>4.908</ele>
        <time>2019-08-17T11:50:02Z</time>
      </trkpt>
      <trkpt lat="42.122095" lon="-8.858704">
        <ele>5.611</ele>
        <time>2019-08-17T11:50:11Z</time>
      </trkpt>
      <trkpt lat="42.121057" lon="-8.860650">
        <ele>11.577</ele>
        <time>2019-08-17T11:50:50Z</time>
      </trkpt>
      <trkpt lat="42.120923" lon="-8.861601">
        <ele>6.867</ele>
        <time>2019-08-17T11:51:06Z</time>
      </trkpt>
      <trkpt lat="42.120500" lon="-8.862631">
        <ele>8.216</ele>
        <time>2019-08-17T11:51:25Z</time>
      </trkpt>
      <trkpt lat="42.118786" lon="-8.863366">
        <ele>25.449</ele>
        <time>2019-08-17T11:52:06Z</time>
      </trkpt>
      <trkpt lat="42.118130" lon="-8.863934">
        <ele>18.013</ele>
        <time>2019-08-17T11:52:18Z</time>
      </trkpt>
      <trkpt lat="42.117916" lon="-8.864594">
        <ele>16.070</ele>
        <time>2019-08-17T11:52:26Z</time>
      </trkpt>
      <trkpt lat="42.118155" lon="-8.865752">
        <ele>6.289</ele>
        <time>2019-08-17T11:52:44Z</time>
      </trkpt>
      <trkpt lat="42.118041" lon="-8.866093">
        <ele>5.245</ele>
        <time>2019-08-17T11:53:26Z</time>
      </trkpt>
      <trkpt lat="42.118239" lon="-8.866130">
        <ele>4.147</ele>
        <time>2019-08-17T11:55:53Z</time>
      </trkpt>
      <trkpt lat="42.117171" lon="-8.866177">
        <ele>9.911</ele>
        <time>2019-08-17T11:56:36Z</time>
      </trkpt>
      <trkpt lat="42.115269" lon="-8.867476">
        <ele>10.708</ele>
        <time>2019-08-17T11:57:11Z</time>
      </trkpt>
      <trkpt lat="42.114879" lon="-8.867936">
        <ele>7.518</ele>
        <time>2019-08-17T11:57:19Z</time>
      </trkpt>
      <trkpt lat="42.114565" lon="-8.868822">
        <ele>6.224</ele>
        <time>2019-08-17T11:57:30Z</time>
      </trkpt>
      <trkpt lat="42.114454" lon="-8.871237">
        <ele>7.484</ele>
        <time>2019-08-17T11:58:01Z</time>
      </trkpt>
      <trkpt lat="42.113956" lon="-8.872975">
        <ele>9.483</ele>
        <time>2019-08-17T11:58:23Z</time>
      </trkpt>
      <trkpt lat="42.110917" lon="-8.877450">
        <ele>7.916</ele>
        <time>2019-08-17T11:59:34Z</time>
      </trkpt>
      <trkpt lat="42.110630" lon="-8.878937">
        <ele>9.960</ele>
        <time>2019-08-17T11:59:55Z</time>
      </trkpt>
      <trkpt lat="42.110035" lon="-8.880081">
        <ele>18.817</ele>
        <time>2019-08-17T12:00:14Z</time>
      </trkpt>
      <trkpt lat="42.109968" lon="-8.881181">
        <ele>14.036</ele>
        <time>2019-08-17T12:00:28Z</time>
      </trkpt>
      <trkpt lat="42.111520" lon="-8.882856">
        <ele>7.042</ele>
        <time>2019-08-17T12:00:59Z</time>
      </trkpt>
      <trkpt lat="42.112147" lon="-8.884270">
        <ele>7.322</ele>
        <time>2019-08-17T12:01:17Z</time>
      </trkpt>
      <trkpt lat="42.112278" lon="-8.885217">
        <ele>3.414</ele>
        <time>2019-08-17T12:01:28Z</time>
      </trkpt>
      <trkpt lat="42.112119" lon="-8.888019">
        <ele>6.208</ele>
        <time>2019-08-17T12:02:07Z</time>
      </trkpt>
      <trkpt lat="42.112651" lon="-8.889914">
        <ele>6.198</ele>
        <time>2019-08-17T12:02:40Z</time>
      </trkpt>
      <trkpt lat="42.112464" lon="-8.890538">
        <ele>7.034</ele>
        <time>2019-08-17T12:02:52Z</time>
      </trkpt>
      <trkpt lat="42.111254" lon="-8.892089">
        <ele>14.394</ele>
        <time>2019-08-17T12:03:28Z</time>
      </trkpt>
      <trkpt lat="42.111301" lon="-8.892901">
        <ele>13.723</ele>
        <time>2019-08-17T12:03:40Z</time>
      </trkpt>
      <trkpt lat="42.111780" lon="-8.893585">
        <ele>12.146</ele>
        <time>2019-08-17T12:03:54Z</time>
      </trkpt>
      <trkpt lat="42.112002" lon="-8.894331">
        <ele>12.920</ele>
        <time>2019-08-17T12:04:08Z</time>
      </trkpt>
      <trkpt lat="42.111547" lon="-8.895590">
        <ele>13.927</ele>
        <time>2019-08-17T12:04:32Z</time>
      </trkpt>
      <trkpt lat="42.110593" lon="-8.896576">
        <ele>20.086</ele>
        <time>2019-08-17T12:05:06Z</time>
      </trkpt>
      <trkpt lat="42.110294" lon="-8.897112">
        <ele>18.367</ele>
        <time>2019-08-17T12:05:20Z</time>
      </trkpt>
      <trkpt lat="42.110406" lon="-8.897903">
        <ele>15.881</ele>
        <time>2019-08-17T12:05:42Z</time>
      </trkpt>
      <trkpt lat="42.110193" lon="-8.897048">
        <ele>18.919</ele>
        <time>2019-08-17T12:06:01Z</time>
      </trkpt>
      <trkpt lat="42.108104" lon="-8.896908">
        <ele>19.708</ele>
        <time>2019-08-17T12:06:48Z</time>
      </trkpt>
      <trkpt lat="42.107050" lon="-8.897036">
        <ele>17.770</ele>
        <time>2019-08-17T12:07:08Z</time>
      </trkpt>
      <trkpt lat="42.104290" lon="-8.897995">
        <ele>12.716</ele>
        <time>2019-08-17T12:08:00Z</time>
      </trkpt>
      <trkpt lat="42.103728" lon="-8.898032">
        <ele>10.756</ele>
        <time>2019-08-17T12:08:12Z</time>
      </trkpt>
      <trkpt lat="42.102213" lon="-8.896830">
        <ele>5.615</ele>
        <time>2019-08-17T12:10:06Z</time>
      </trkpt>
      <trkpt lat="42.101380" lon="-8.895774">
        <ele>8.778</ele>
        <time>2019-08-17T12:10:27Z</time>
      </trkpt>
      <trkpt lat="42.100802" lon="-8.894520">
        <ele>8.512</ele>
        <time>2019-08-17T12:10:47Z</time>
      </trkpt>
      <trkpt lat="42.100434" lon="-8.894195">
        <ele>7.919</ele>
        <time>2019-08-17T12:10:54Z</time>
      </trkpt>
      <trkpt lat="42.098394" lon="-8.893772">
        <ele>10.928</ele>
        <time>2019-08-17T12:11:32Z</time>
      </trkpt>
      <trkpt lat="42.092314" lon="-8.893429">
        <ele>19.212</ele>
        <time>2019-08-17T12:13:42Z</time>
      </trkpt>
      <trkpt lat="42.089539" lon="-8.892367">
        <ele>25.132</ele>
        <time>2019-08-17T12:14:54Z</time>
      </trkpt>
      <trkpt lat="42.087508" lon="-8.891203">
        <ele>30.005</ele>
        <time>2019-08-17T12:15:45Z</time>
      </trkpt>
      <trkpt lat="42.086231" lon="-8.891101">
        <ele>33.708</ele>
        <time>2019-08-17T12:16:16Z</time>
      </trkpt>
      <trkpt lat="42.082469" lon="-8.889960">
        <ele>42.555</ele>
        <time>2019-08-17T12:17:52Z</time>
      </trkpt>
      <trkpt lat="42.081710" lon="-8.890211">
        <ele>35.061</ele>
        <time>2019-08-17T12:18:05Z</time>
      </trkpt>
      <trkpt lat="42.080800" lon="-8.890947">
        <ele>29.471</ele>
        <time>2019-08-17T12:18:18Z</time>
      </trkpt>
      <trkpt lat="42.079554" lon="-8.892615">
        <ele>28.010</ele>
        <time>2019-08-17T12:18:46Z</time>
      </trkpt>
      <trkpt lat="42.078332" lon="-8.893613">
        <ele>37.043</ele>
        <time>2019-08-17T12:22:08Z</time>
      </trkpt>
      <trkpt lat="42.077551" lon="-8.893594">
        <ele>37.437</ele>
        <time>2019-08-17T12:22:28Z</time>
      </trkpt>
      <trkpt lat="42.076693" lon="-8.893120">
        <ele>34.174</ele>
        <time>2019-08-17T12:22:47Z</time>
      </trkpt>
      <trkpt lat="42.075411" lon="-8.892727">
        <ele>29.133</ele>
        <time>2019-08-17T12:23:12Z</time>
      </trkpt>
      <trkpt lat="42.072220" lon="-8.892444">
        <ele>25.439</ele>
        <time>2019-08-17T12:24:06Z</time>
      </trkpt>
      <trkpt lat="42.070677" lon="-8.892656">
        <ele>24.901</ele>
        <time>2019-08-17T12:24:35Z</time>
      </trkpt>
      <trkpt lat="42.070304" lon="-8.893000">
        <ele>22.921</ele>
        <time>2019-08-17T12:24:44Z</time>
      </trkpt>
      <trkpt lat="42.069613" lon="-8.892881">
        <ele>25.208</ele>
        <time>2019-08-17T12:24:57Z</time>
      </trkpt>
      <trkpt lat="42.068201" lon="-8.893132">
        <ele>22.747</ele>
        <time>2019-08-17T12:25:25Z</time>
      </trkpt>
      <trkpt lat="42.058192" lon="-8.889287">
        <ele>9.153</ele>
        <time>2019-08-17T12:30:14Z</time>
      </trkpt>
      <trkpt lat="42.055464" lon="-8.888088">
        <ele>3.193</ele>
        <time>2019-08-17T12:31:03Z</time>
      </trkpt>
      <trkpt lat="42.054895" lon="-8.888136">
        <ele>5.612</ele>
        <time>2019-08-17T12:31:12Z</time>
      </trkpt>
      <trkpt lat="42.054110" lon="-8.888728">
        <ele>8.915</ele>
        <time>2019-08-17T12:31:27Z</time>
      </trkpt>
      <trkpt lat="42.053653" lon="-8.888670">
        <ele>9.739</ele>
        <time>2019-08-17T12:31:35Z</time>
      </trkpt>
      <trkpt lat="42.052115" lon="-8.887033">
        <ele>8.276</ele>
        <time>2019-08-17T12:32:13Z</time>
      </trkpt>
      <trkpt lat="42.051581" lon="-8.884757">
        <ele>6.695</ele>
        <time>2019-08-17T12:32:46Z</time>
      </trkpt>
      <trkpt lat="42.048452" lon="-8.884071">
        <ele>7.174</ele>
        <time>2019-08-17T12:34:30Z</time>
      </trkpt>
      <trkpt lat="42.048270" lon="-8.883750">
        <ele>8.556</ele>
        <time>2019-08-17T12:34:40Z</time>
      </trkpt>
      <trkpt lat="42.047146" lon="-8.883187">
        <ele>12.121</ele>
        <time>2019-08-17T12:35:08Z</time>
      </trkpt>
      <trkpt lat="42.045765" lon="-8.883085">
        <ele>20.708</ele>
        <time>2019-08-17T12:36:02Z</time>
      </trkpt>
      <trkpt lat="42.045583" lon="-8.881832">
        <ele>25.311</ele>
        <time>2019-08-17T12:36:43Z</time>
      </trkpt>
      <trkpt lat="42.045604" lon="-8.879908">
        <ele>40.497</ele>
        <time>2019-08-17T12:37:47Z</time>
      </trkpt>
      <trkpt lat="42.044700" lon="-8.879793">
        <ele>36.537</ele>
        <time>2019-08-17T12:38:39Z</time>
      </trkpt>
      <trkpt lat="42.043595" lon="-8.878797">
        <ele>38.366</ele>
        <time>2019-08-17T12:39:12Z</time>
      </trkpt>
      <trkpt lat="42.041571" lon="-8.877896">
        <ele>38.349</ele>
        <time>2019-08-17T12:40:03Z</time>
      </trkpt>
      <trkpt lat="42.041387" lon="-8.878406">
        <ele>34.253</ele>
        <time>2019-08-17T12:40:12Z</time>
      </trkpt>
      <trkpt lat="42.040967" lon="-8.878826">
        <ele>28.230</ele>
        <time>2019-08-17T12:40:18Z</time>
      </trkpt>
      <trkpt lat="42.039733" lon="-8.879076">
        <ele>29.779</ele>
        <time>2019-08-17T12:40:39Z</time>
      </trkpt>
      <trkpt lat="42.039040" lon="-8.879787">
        <ele>25.862</ele>
        <time>2019-08-17T12:40:52Z</time>
      </trkpt>
      <trkpt lat="42.038855" lon="-8.880457">
        <ele>22.883</ele>
        <time>2019-08-17T12:41:02Z</time>
      </trkpt>
      <trkpt lat="42.038597" lon="-8.880512">
        <ele>22.411</ele>
        <time>2019-08-17T12:41:14Z</time>
      </trkpt>
      <trkpt lat="42.038819" lon="-8.880424">
        <ele>23.108</ele>
        <time>2019-08-17T12:41:31Z</time>
      </trkpt>
      <trkpt lat="42.038652" lon="-8.880540">
        <ele>22.220</ele>
        <time>2019-08-17T12:43:30Z</time>
      </trkpt>
      <trkpt lat="42.038096" lon="-8.880122">
        <ele>21.176</ele>
        <time>2019-08-17T12:43:49Z</time>
      </trkpt>
      <trkpt lat="42.037816" lon="-8.879641">
        <ele>22.636</ele>
        <time>2019-08-17T12:44:00Z</time>
      </trkpt>
      <trkpt lat="42.034861" lon="-8.880696">
        <ele>22.215</ele>
        <time>2019-08-17T12:45:31Z</time>
      </trkpt>
      <trkpt lat="42.034615" lon="-8.881243">
        <ele>19.668</ele>
        <time>2019-08-17T12:45:42Z</time>
      </trkpt>
      <trkpt lat="42.034023" lon="-8.881671">
        <ele>17.582</ele>
        <time>2019-08-17T12:46:05Z</time>
      </trkpt>
      <trkpt lat="42.033884" lon="-8.881981">
        <ele>14.989</ele>
        <time>2019-08-17T12:46:24Z</time>
      </trkpt>
      <trkpt lat="42.032798" lon="-8.882207">
        <ele>14.348</ele>
        <time>2019-08-17T12:46:47Z</time>
      </trkpt>
      <trkpt lat="42.026626" lon="-8.884806">
        <ele>15.337</ele>
        <time>2019-08-17T12:52:39Z</time>
      </trkpt>
      <trkpt lat="42.026054" lon="-8.884647">
        <ele>14.849</ele>
        <time>2019-08-17T12:52:51Z</time>
      </trkpt>
      <trkpt lat="42.025284" lon="-8.883776">
        <ele>16.813</ele>
        <time>2019-08-17T12:53:12Z</time>
      </trkpt>
      <trkpt lat="42.024857" lon="-8.883509">
        <ele>18.708</ele>
        <time>2019-08-17T12:53:23Z</time>
      </trkpt>
      <trkpt lat="42.010097" lon="-8.879296">
        <ele>34.687</ele>
        <time>2019-08-17T12:58:52Z</time>
      </trkpt>
      <trkpt lat="42.008114" lon="-8.877451">
        <ele>38.263</ele>
        <time>2019-08-17T12:59:56Z</time>
      </trkpt>
      <trkpt lat="42.008378" lon="-8.877539">
        <ele>39.083</ele>
        <time>2019-08-17T13:25:49Z</time>
      </trkpt>
      <trkpt lat="42.008373" lon="-8.876977">
        <ele>41.312</ele>
        <time>2019-08-17T13:26:14Z</time>
      </trkpt>
      <trkpt lat="42.008422" lon="-8.877726">
        <ele>38.875</ele>
        <time>2019-08-17T13:26:51Z</time>
      </trkpt>
      <trkpt lat="42.007997" lon="-8.878595">
        <ele>28.789</ele>
        <time>2019-08-17T13:27:13Z</time>
      </trkpt>
      <trkpt lat="42.006742" lon="-8.878517">
        <ele>23.086</ele>
        <time>2019-08-17T13:27:55Z</time>
      </trkpt>
      <trkpt lat="42.005877" lon="-8.879004">
        <ele>14.365</ele>
        <time>2019-08-17T13:28:29Z</time>
      </trkpt>
      <trkpt lat="42.006045" lon="-8.878843">
        <ele>16.148</ele>
        <time>2019-08-17T13:29:07Z</time>
      </trkpt>
      <trkpt lat="42.005727" lon="-8.878102">
        <ele>23.561</ele>
        <time>2019-08-17T13:29:47Z</time>
      </trkpt>
      <trkpt lat="42.005068" lon="-8.878249">
        <ele>20.217</ele>
        <time>2019-08-17T13:30:05Z</time>
      </trkpt>
      <trkpt lat="42.004176" lon="-8.878115">
        <ele>14.508</ele>
        <time>2019-08-17T13:30:22Z</time>
      </trkpt>
      <trkpt lat="42.003507" lon="-8.877206">
        <ele>6.178</ele>
        <time>2019-08-17T13:30:44Z</time>
      </trkpt>
      <trkpt lat="42.002525" lon="-8.876547">
        <ele>10.284</ele>
        <time>2019-08-17T13:31:12Z</time>
      </trkpt>
      <trkpt lat="42.000084" lon="-8.877350">
        <ele>18.154</ele>
        <time>2019-08-17T13:35:09Z</time>
      </trkpt>
      <trkpt lat="41.999827" lon="-8.877876">
        <ele>12.373</ele>
        <time>2019-08-17T13:35:24Z</time>
      </trkpt>
      <trkpt lat="41.999246" lon="-8.878084">
        <ele>17.576</ele>
        <time>2019-08-17T13:35:44Z</time>
      </trkpt>
      <trkpt lat="41.998033" lon="-8.878907">
        <ele>14.070</ele>
        <time>2019-08-17T13:36:20Z</time>
      </trkpt>
      <trkpt lat="41.997299" lon="-8.879128">
        <ele>20.067</ele>
        <time>2019-08-17T13:36:44Z</time>
      </trkpt>
      <trkpt lat="41.995740" lon="-8.880156">
        <ele>27.076</ele>
        <time>2019-08-17T13:37:46Z</time>
      </trkpt>
      <trkpt lat="41.995147" lon="-8.880358">
        <ele>29.112</ele>
        <time>2019-08-17T13:38:12Z</time>
      </trkpt>
      <trkpt lat="41.994059" lon="-8.880130">
        <ele>36.932</ele>
        <time>2019-08-17T13:38:58Z</time>
      </trkpt>
      <trkpt lat="41.993058" lon="-8.880162">
        <ele>39.705</ele>
        <time>2019-08-17T13:39:31Z</time>
      </trkpt>
      <trkpt lat="41.988484" lon="-8.883472">
        <ele>39.608</ele>
        <time>2019-08-17T13:41:25Z</time>
      </trkpt>
      <trkpt lat="41.987803" lon="-8.884157">
        <ele>33.815</ele>
        <time>2019-08-17T13:41:47Z</time>
      </trkpt>
      <trkpt lat="41.987356" lon="-8.884022">
        <ele>40.931</ele>
        <time>2019-08-17T13:42:12Z</time>
      </trkpt>
      <trkpt lat="41.978400" lon="-8.884919">
        <ele>42.031</ele>
        <time>2019-08-17T13:45:12Z</time>
      </trkpt>
      <trkpt lat="41.967506" lon="-8.883778">
        <ele>35.460</ele>
        <time>2019-08-17T13:48:31Z</time>
      </trkpt>
      <trkpt lat="41.965808" lon="-8.884278">
        <ele>34.493</ele>
        <time>2019-08-17T13:49:14Z</time>
      </trkpt>
      <trkpt lat="41.965116" lon="-8.884054">
        <ele>35.857</ele>
        <time>2019-08-17T13:49:30Z</time>
      </trkpt>
      <trkpt lat="41.963853" lon="-8.884399">
        <ele>31.134</ele>
        <time>2019-08-17T13:49:55Z</time>
      </trkpt>
      <trkpt lat="41.961226" lon="-8.883812">
        <ele>41.813</ele>
        <time>2019-08-17T13:51:16Z</time>
      </trkpt>
      <trkpt lat="41.960552" lon="-8.883898">
        <ele>35.852</ele>
        <time>2019-08-17T13:51:58Z</time>
      </trkpt>
      <trkpt lat="41.960092" lon="-8.884199">
        <ele>30.453</ele>
        <time>2019-08-17T13:52:06Z</time>
      </trkpt>
      <trkpt lat="41.959731" lon="-8.884053">
        <ele>37.008</ele>
        <time>2019-08-17T13:52:16Z</time>
      </trkpt>
      <trkpt lat="41.956574" lon="-8.884336">
        <ele>18.308</ele>
        <time>2019-08-17T13:54:07Z</time>
      </trkpt>
      <trkpt lat="41.954419" lon="-8.883958">
        <ele>13.339</ele>
        <time>2019-08-17T13:54:47Z</time>
      </trkpt>
      <trkpt lat="41.953847" lon="-8.883255">
        <ele>21.225</ele>
        <time>2019-08-17T13:55:11Z</time>
      </trkpt>
      <trkpt lat="41.952570" lon="-8.882626">
        <ele>24.675</ele>
        <time>2019-08-17T13:55:55Z</time>
      </trkpt>
      <trkpt lat="41.951896" lon="-8.882684">
        <ele>26.594</ele>
        <time>2019-08-17T13:56:27Z</time>
      </trkpt>
      <trkpt lat="41.951007" lon="-8.883157">
        <ele>26.527</ele>
        <time>2019-08-17T13:56:52Z</time>
      </trkpt>
      <trkpt lat="41.950236" lon="-8.883342">
        <ele>34.211</ele>
        <time>2019-08-17T13:57:22Z</time>
      </trkpt>
      <trkpt lat="41.950080" lon="-8.883764">
        <ele>32.588</ele>
        <time>2019-08-17T13:57:32Z</time>
      </trkpt>
      <trkpt lat="41.948214" lon="-8.882914">
        <ele>39.017</ele>
        <time>2019-08-17T13:58:34Z</time>
      </trkpt>
      <trkpt lat="41.947402" lon="-8.882819">
        <ele>40.066</ele>
        <time>2019-08-17T13:58:56Z</time>
      </trkpt>
      <trkpt lat="41.946724" lon="-8.882298">
        <ele>42.329</ele>
        <time>2019-08-17T13:59:16Z</time>
      </trkpt>
      <trkpt lat="41.945346" lon="-8.881983">
        <ele>46.021</ele>
        <time>2019-08-17T13:59:49Z</time>
      </trkpt>
      <trkpt lat="41.944595" lon="-8.882425">
        <ele>41.808</ele>
        <time>2019-08-17T14:00:06Z</time>
      </trkpt>
      <trkpt lat="41.943899" lon="-8.882404">
        <ele>47.030</ele>
        <time>2019-08-17T14:00:24Z</time>
      </trkpt>
      <trkpt lat="41.943358" lon="-8.882759">
        <ele>44.376</ele>
        <time>2019-08-17T14:00:38Z</time>
      </trkpt>
      <trkpt lat="41.943032" lon="-8.883248">
        <ele>40.626</ele>
        <time>2019-08-17T14:00:48Z</time>
      </trkpt>
      <trkpt lat="41.942516" lon="-8.883650">
        <ele>44.175</ele>
        <time>2019-08-17T14:01:01Z</time>
      </trkpt>
      <trkpt lat="41.940806" lon="-8.884395">
        <ele>44.998</ele>
        <time>2019-08-17T14:02:34Z</time>
      </trkpt>
      <trkpt lat="41.940773" lon="-8.884107">
        <ele>50.182</ele>
        <time>2019-08-17T14:04:32Z</time>
      </trkpt>
      <trkpt lat="41.938297" lon="-8.884794">
        <ele>45.139</ele>
        <time>2019-08-17T14:05:27Z</time>
      </trkpt>
      <trkpt lat="41.937957" lon="-8.885139">
        <ele>41.548</ele>
        <time>2019-08-17T14:05:36Z</time>
      </trkpt>
      <trkpt lat="41.936808" lon="-8.884883">
        <ele>46.011</ele>
        <time>2019-08-17T14:06:16Z</time>
      </trkpt>
      <trkpt lat="41.930210" lon="-8.881808">
        <ele>49.321</ele>
        <time>2019-08-17T14:08:22Z</time>
      </trkpt>
      <trkpt lat="41.915681" lon="-8.879445">
        <ele>38.503</ele>
        <time>2019-08-17T14:12:42Z</time>
      </trkpt>
      <trkpt lat="41.913239" lon="-8.879408">
        <ele>38.308</ele>
        <time>2019-08-17T14:13:38Z</time>
      </trkpt>
      <trkpt lat="41.912935" lon="-8.879578">
        <ele>31.865</ele>
        <time>2019-08-17T14:14:10Z</time>
      </trkpt>
      <trkpt lat="41.912712" lon="-8.878949">
        <ele>32.981</ele>
        <time>2019-08-17T14:23:55Z</time>
      </trkpt>
      <trkpt lat="41.912865" lon="-8.878436">
        <ele>40.081</ele>
        <time>2019-08-17T14:24:14Z</time>
      </trkpt>
      <trkpt lat="41.912836" lon="-8.877237">
        <ele>44.570</ele>
        <time>2019-08-17T14:24:43Z</time>
      </trkpt>
      <trkpt lat="41.913071" lon="-8.876131">
        <ele>49.433</ele>
        <time>2019-08-17T14:25:02Z</time>
      </trkpt>
      <trkpt lat="41.913063" lon="-8.875447">
        <ele>49.087</ele>
        <time>2019-08-17T14:25:12Z</time>
      </trkpt>
      <trkpt lat="41.912399" lon="-8.874189">
        <ele>48.014</ele>
        <time>2019-08-17T14:25:35Z</time>
      </trkpt>
      <trkpt lat="41.911996" lon="-8.872867">
        <ele>39.353</ele>
        <time>2019-08-17T14:25:54Z</time>
      </trkpt>
      <trkpt lat="41.911282" lon="-8.872274">
        <ele>36.673</ele>
        <time>2019-08-17T14:26:09Z</time>
      </trkpt>
      <trkpt lat="41.908768" lon="-8.872007">
        <ele>34.185</ele>
        <time>2019-08-17T14:26:52Z</time>
      </trkpt>
      <trkpt lat="41.908256" lon="-8.872098">
        <ele>34.613</ele>
        <time>2019-08-17T14:27:02Z</time>
      </trkpt>
      <trkpt lat="41.905298" lon="-8.875051">
        <ele>42.608</ele>
        <time>2019-08-17T14:28:24Z</time>
      </trkpt>
      <trkpt lat="41.904552" lon="-8.875436">
        <ele>40.771</ele>
        <time>2019-08-17T14:28:42Z</time>
      </trkpt>
      <trkpt lat="41.903959" lon="-8.875227">
        <ele>43.157</ele>
        <time>2019-08-17T14:28:56Z</time>
      </trkpt>
      <trkpt lat="41.902915" lon="-8.873796">
        <ele>44.747</ele>
        <time>2019-08-17T14:29:29Z</time>
      </trkpt>
      <trkpt lat="41.902711" lon="-8.873234">
        <ele>42.866</ele>
        <time>2019-08-17T14:30:00Z</time>
      </trkpt>
      <trkpt lat="41.902413" lon="-8.873505">
        <ele>41.999</ele>
        <time>2019-08-17T14:30:15Z</time>
      </trkpt>
      <trkpt lat="41.902239" lon="-8.874065">
        <ele>40.893</ele>
        <time>2019-08-17T14:32:30Z</time>
      </trkpt>
      <trkpt lat="41.901348" lon="-8.873994">
        <ele>37.280</ele>
        <time>2019-08-17T14:39:31Z</time>
      </trkpt>
      <trkpt lat="41.901328" lon="-8.874133">
        <ele>36.759</ele>
        <time>2019-08-17T14:39:38Z</time>
      </trkpt>
      <trkpt lat="41.901295" lon="-8.873940">
        <ele>36.958</ele>
        <time>2019-08-17T14:41:00Z</time>
      </trkpt>
      <trkpt lat="41.900697" lon="-8.873809">
        <ele>28.652</ele>
        <time>2019-08-17T14:41:48Z</time>
      </trkpt>
      <trkpt lat="41.900679" lon="-8.874441">
        <ele>26.317</ele>
        <time>2019-08-17T14:43:08Z</time>
      </trkpt>
      <trkpt lat="41.900995" lon="-8.874640">
        <ele>28.908</ele>
        <time>2019-08-17T14:44:24Z</time>
      </trkpt>
      <trkpt lat="41.900706" lon="-8.874851">
        <ele>20.979</ele>
        <time>2019-08-17T14:44:51Z</time>
      </trkpt>
      <trkpt lat="41.900404" lon="-8.874561">
        <ele>18.475</ele>
        <time>2019-08-17T14:44:58Z</time>
      </trkpt>
      <trkpt lat="41.900339" lon="-8.873883">
        <ele>19.885</ele>
        <time>2019-08-17T14:45:23Z</time>
      </trkpt>
      <trkpt lat="41.899655" lon="-8.873797">
        <ele>10.694</ele>
        <time>2019-08-17T14:46:26Z</time>
      </trkpt>
      <trkpt lat="41.898636" lon="-8.874966">
        <ele>6.187</ele>
        <time>2019-08-17T14:50:05Z</time>
      </trkpt>
      <trkpt lat="41.898311" lon="-8.875862">
        <ele>0.021</ele>
        <time>2019-08-17T14:51:37Z</time>
      </trkpt>
      <trkpt lat="41.898209" lon="-8.875642">
        <ele>4.668</ele>
        <time>2019-08-17T14:51:50Z</time>
      </trkpt>
      <trkpt lat="41.898597" lon="-8.874748">
        <ele>9.077</ele>
        <time>2019-08-17T14:55:02Z</time>
      </trkpt>
      <trkpt lat="41.898402" lon="-8.874837">
        <ele>12.159</ele>
        <time>2019-08-17T14:55:04Z</time>
      </trkpt>
      <trkpt lat="41.898841" lon="-8.874897">
        <ele>4.303</ele>
        <time>2019-08-17T14:58:03Z</time>
      </trkpt>
      <trkpt lat="41.898449" lon="-8.875196">
        <ele>7.123</ele>
        <time>2019-08-17T15:31:12Z</time>
      </trkpt>
      <trkpt lat="41.898163" lon="-8.875998">
        <ele>0.008</ele>
        <time>2019-08-17T15:31:51Z</time>
      </trkpt>
      <trkpt lat="41.897809" lon="-8.876009">
        <ele>4.999</ele>
        <time>2019-08-17T15:32:28Z</time>
      </trkpt>
      <trkpt lat="41.897595" lon="-8.875799">
        <ele>16.085</ele>
        <time>2019-08-17T15:32:44Z</time>
      </trkpt>
      <trkpt lat="41.897829" lon="-8.874985">
        <ele>23.255</ele>
        <time>2019-08-17T15:33:41Z</time>
      </trkpt>
      <trkpt lat="41.897150" lon="-8.875482">
        <ele>22.364</ele>
        <time>2019-08-17T15:35:18Z</time>
      </trkpt>
      <trkpt lat="41.896307" lon="-8.875642">
        <ele>27.647</ele>
        <time>2019-08-17T15:35:53Z</time>
      </trkpt>
      <trkpt lat="41.894795" lon="-8.876667">
        <ele>34.481</ele>
        <time>2019-08-17T15:37:02Z</time>
      </trkpt>
      <trkpt lat="41.894746" lon="-8.875819">
        <ele>46.988</ele>
        <time>2019-08-17T15:38:28Z</time>
      </trkpt>
      <trkpt lat="41.897078" lon="-8.874190">
        <ele>42.387</ele>
        <time>2019-08-17T15:39:35Z</time>
      </trkpt>
      <trkpt lat="41.899338" lon="-8.872230">
        <ele>37.414</ele>
        <time>2019-08-17T15:40:23Z</time>
      </trkpt>
      <trkpt lat="41.900062" lon="-8.871038">
        <ele>38.154</ele>
        <time>2019-08-17T15:40:41Z</time>
      </trkpt>
      <trkpt lat="41.901698" lon="-8.869850">
        <ele>39.109</ele>
        <time>2019-08-17T15:41:19Z</time>
      </trkpt>
      <trkpt lat="41.902246" lon="-8.869630">
        <ele>40.608</ele>
        <time>2019-08-17T15:41:47Z</time>
      </trkpt>
      <trkpt lat="41.903242" lon="-8.868217">
        <ele>45.995</ele>
        <time>2019-08-17T15:42:47Z</time>
      </trkpt>
      <trkpt lat="41.903462" lon="-8.867498">
        <ele>47.581</ele>
        <time>2019-08-17T15:43:03Z</time>
      </trkpt>
      <trkpt lat="41.903269" lon="-8.867277">
        <ele>47.831</ele>
        <time>2019-08-17T15:43:10Z</time>
      </trkpt>
      <trkpt lat="41.903097" lon="-8.866450">
        <ele>47.880</ele>
        <time>2019-08-17T15:43:28Z</time>
      </trkpt>
      <trkpt lat="41.903047" lon="-8.864674">
        <ele>44.933</ele>
        <time>2019-08-17T15:43:58Z</time>
      </trkpt>
      <trkpt lat="41.902894" lon="-8.864483">
        <ele>44.767</ele>
        <time>2019-08-17T15:44:04Z</time>
      </trkpt>
      <trkpt lat="41.901546" lon="-8.863987">
        <ele>49.554</ele>
        <time>2019-08-17T15:44:34Z</time>
      </trkpt>
      <trkpt lat="41.900195" lon="-8.862533">
        <ele>52.863</ele>
        <time>2019-08-17T15:45:05Z</time>
      </trkpt>
      <trkpt lat="41.898847" lon="-8.861798">
        <ele>50.717</ele>
        <time>2019-08-17T15:45:23Z</time>
      </trkpt>
      <trkpt lat="41.897073" lon="-8.859578">
        <ele>42.887</ele>
        <time>2019-08-17T15:45:55Z</time>
      </trkpt>
      <trkpt lat="41.895653" lon="-8.858193">
        <ele>34.415</ele>
        <time>2019-08-17T15:46:26Z</time>
      </trkpt>
      <trkpt lat="41.894667" lon="-8.856037">
        <ele>22.608</ele>
        <time>2019-08-17T15:47:18Z</time>
      </trkpt>
      <trkpt lat="41.893505" lon="-8.854298">
        <ele>13.565</ele>
        <time>2019-08-17T15:47:37Z</time>
      </trkpt>
      <trkpt lat="41.892757" lon="-8.853759">
        <ele>10.461</ele>
        <time>2019-08-17T15:47:49Z</time>
      </trkpt>
      <trkpt lat="41.891226" lon="-8.853480">
        <ele>16.241</ele>
        <time>2019-08-17T15:48:17Z</time>
      </trkpt>
      <trkpt lat="41.890077" lon="-8.852960">
        <ele>17.690</ele>
        <time>2019-08-17T15:48:40Z</time>
      </trkpt>
      <trkpt lat="41.889097" lon="-8.850845">
        <ele>4.453</ele>
        <time>2019-08-17T15:49:09Z</time>
      </trkpt>
      <trkpt lat="41.888787" lon="-8.850665">
        <ele>3.267</ele>
        <time>2019-08-17T15:49:18Z</time>
      </trkpt>
      <trkpt lat="41.888581" lon="-8.850169">
        <ele>0.424</ele>
        <time>2019-08-17T15:50:17Z</time>
      </trkpt>
      <trkpt lat="41.888787" lon="-8.850649">
        <ele>3.023</ele>
        <time>2019-08-17T16:09:45Z</time>
      </trkpt>
      <trkpt lat="41.888958" lon="-8.850587">
        <ele>2.191</ele>
        <time>2019-08-17T16:09:51Z</time>
      </trkpt>
      <trkpt lat="41.889000" lon="-8.849739">
        <ele>0.981</ele>
        <time>2019-08-17T16:14:20Z</time>
      </trkpt>
      <trkpt lat="41.888129" lon="-8.849656">
        <ele>0.019</ele>
        <time>2019-08-17T16:17:52Z</time>
      </trkpt>
      <trkpt lat="41.887465" lon="-8.849157">
        <ele>0.008</ele>
        <time>2019-08-17T16:26:19Z</time>
      </trkpt>
      <trkpt lat="41.886277" lon="-8.848667">
        <ele>0.023</ele>
        <time>2019-08-17T16:27:09Z</time>
      </trkpt>
      <trkpt lat="41.885782" lon="-8.846996">
        <ele>0.019</ele>
        <time>2019-08-17T16:28:03Z</time>
      </trkpt>
      <trkpt lat="41.882365" lon="-8.842309">
        <ele>0.019</ele>
        <time>2019-08-17T16:30:49Z</time>
      </trkpt>
      <trkpt lat="41.881294" lon="-8.840539">
        <ele>0.058</ele>
        <time>2019-08-17T16:31:43Z</time>
      </trkpt>
      <trkpt lat="41.880331" lon="-8.839395">
        <ele>0.021</ele>
        <time>2019-08-17T16:32:23Z</time>
      </trkpt>
      <trkpt lat="41.879589" lon="-8.837583">
        <ele>-0.935</ele>
        <time>2019-08-17T16:33:18Z</time>
      </trkpt>
      <trkpt lat="41.878899" lon="-8.836905">
        <ele>0.952</ele>
        <time>2019-08-17T16:35:57Z</time>
      </trkpt>
      <trkpt lat="41.878768" lon="-8.836378">
        <ele>1.311</ele>
        <time>2019-08-17T16:36:13Z</time>
      </trkpt>
      <trkpt lat="41.878481" lon="-8.836383">
        <ele>3.085</ele>
        <time>2019-08-17T16:36:25Z</time>
      </trkpt>
      <trkpt lat="41.878321" lon="-8.836660">
        <ele>3.089</ele>
        <time>2019-08-17T16:36:37Z</time>
      </trkpt>
      <trkpt lat="41.877940" lon="-8.836697">
        <ele>2.517</ele>
        <time>2019-08-17T16:36:49Z</time>
      </trkpt>
      <trkpt lat="41.877489" lon="-8.837162">
        <ele>4.008</ele>
        <time>2019-08-17T16:37:38Z</time>
      </trkpt>
      <trkpt lat="41.877885" lon="-8.838558">
        <ele>6.552</ele>
        <time>2019-08-17T16:38:54Z</time>
      </trkpt>
      <trkpt lat="41.878287" lon="-8.838949">
        <ele>5.658</ele>
        <time>2019-08-17T16:39:33Z</time>
      </trkpt>
      <trkpt lat="41.877994" lon="-8.838731">
        <ele>6.318</ele>
        <time>2019-08-17T16:40:31Z</time>
      </trkpt>
      <trkpt lat="41.877931" lon="-8.838264">
        <ele>7.087</ele>
        <time>2019-08-17T16:41:31Z</time>
      </trkpt>
      <trkpt lat="41.877720" lon="-8.838224">
        <ele>7.150</ele>
        <time>2019-08-17T16:42:39Z</time>
      </trkpt>
      <trkpt lat="41.877539" lon="-8.837153">
        <ele>4.054</ele>
        <time>2019-08-17T16:43:31Z</time>
      </trkpt>
      <trkpt lat="41.876211" lon="-8.838006">
        <ele>6.021</ele>
        <time>2019-08-17T16:45:42Z</time>
      </trkpt>
      <trkpt lat="41.876006" lon="-8.838312">
        <ele>6.040</ele>
        <time>2019-08-17T16:45:54Z</time>
      </trkpt>
      <trkpt lat="41.875913" lon="-8.838928">
        <ele>6.042</ele>
        <time>2019-08-17T16:48:08Z</time>
      </trkpt>
      <trkpt lat="41.876367" lon="-8.838623">
        <ele>6.022</ele>
        <time>2019-08-17T16:51:58Z</time>
      </trkpt>
      <trkpt lat="41.876031" lon="-8.838773">
        <ele>6.014</ele>
        <time>2019-08-17T16:54:10Z</time>
      </trkpt>
      <trkpt lat="41.875965" lon="-8.838991">
        <ele>5.808</ele>
        <time>2019-08-17T16:54:33Z</time>
      </trkpt>
      <trkpt lat="41.874799" lon="-8.837662">
        <ele>12.728</ele>
        <time>2019-08-17T16:56:42Z</time>
      </trkpt>
      <trkpt lat="41.873458" lon="-8.836625">
        <ele>12.144</ele>
        <time>2019-08-17T16:58:21Z</time>
      </trkpt>
      <trkpt lat="41.873591" lon="-8.836797">
        <ele>13.524</ele>
        <time>2019-08-17T16:58:36Z</time>
      </trkpt>
      <trkpt lat="41.872960" lon="-8.838200">
        <ele>28.233</ele>
        <time>2019-08-17T17:01:12Z</time>
      </trkpt>
      <trkpt lat="41.873707" lon="-8.836673">
        <ele>12.776</ele>
        <time>2019-08-17T17:02:08Z</time>
      </trkpt>
      <trkpt lat="41.875421" lon="-8.838236">
        <ele>10.020</ele>
        <time>2019-08-17T17:04:42Z</time>
      </trkpt>
      <trkpt lat="41.875228" lon="-8.838068">
        <ele>11.317</ele>
        <time>2019-08-17T17:07:01Z</time>
      </trkpt>
      <trkpt lat="41.875734" lon="-8.838722">
        <ele>6.616</ele>
        <time>2019-08-17T17:09:48Z</time>
      </trkpt>
      <trkpt lat="41.875516" lon="-8.839257">
        <ele>5.758</ele>
        <time>2019-08-17T17:43:19Z</time>
      </trkpt>
      <trkpt lat="41.874523" lon="-8.840174">
        <ele>6.552</ele>
        <time>2019-08-17T17:44:07Z</time>
      </trkpt>
      <trkpt lat="41.873535" lon="-8.840826">
        <ele>9.617</ele>
        <time>2019-08-17T17:44:47Z</time>
      </trkpt>
      <trkpt lat="41.872350" lon="-8.841235">
        <ele>15.308</ele>
        <time>2019-08-17T17:45:37Z</time>
      </trkpt>
      <trkpt lat="41.870558" lon="-8.842646">
        <ele>9.559</ele>
        <time>2019-08-17T17:46:36Z</time>
      </trkpt>
      <trkpt lat="41.867585" lon="-8.845480">
        <ele>5.295</ele>
        <time>2019-08-17T17:48:29Z</time>
      </trkpt>
      <trkpt lat="41.867962" lon="-8.845984">
        <ele>2.225</ele>
        <time>2019-08-17T17:48:46Z</time>
      </trkpt>
      <trkpt lat="41.868034" lon="-8.846420">
        <ele>2.174</ele>
        <time>2019-08-17T17:49:05Z</time>
      </trkpt>
      <trkpt lat="41.865469" lon="-8.848920">
        <ele>2.027</ele>
        <time>2019-08-17T17:50:11Z</time>
      </trkpt>
      <trkpt lat="41.865447" lon="-8.849290">
        <ele>3.071</ele>
        <time>2019-08-17T17:50:17Z</time>
      </trkpt>
      <trkpt lat="41.865799" lon="-8.850090">
        <ele>6.878</ele>
        <time>2019-08-17T17:50:31Z</time>
      </trkpt>
      <trkpt lat="41.865987" lon="-8.851048">
        <ele>8.917</ele>
        <time>2019-08-17T17:50:47Z</time>
      </trkpt>
      <trkpt lat="41.866017" lon="-8.853365">
        <ele>18.292</ele>
        <time>2019-08-17T17:51:24Z</time>
      </trkpt>
      <trkpt lat="41.866648" lon="-8.855325">
        <ele>5.273</ele>
        <time>2019-08-17T17:52:01Z</time>
      </trkpt>
      <trkpt lat="41.866918" lon="-8.857961">
        <ele>7.620</ele>
        <time>2019-08-17T17:52:49Z</time>
      </trkpt>
      <trkpt lat="41.866486" lon="-8.858309">
        <ele>11.408</ele>
        <time>2019-08-17T17:53:09Z</time>
      </trkpt>
      <trkpt lat="41.866423" lon="-8.858671">
        <ele>8.413</ele>
        <time>2019-08-17T17:53:20Z</time>
      </trkpt>
      <trkpt lat="41.866228" lon="-8.858810">
        <ele>6.399</ele>
        <time>2019-08-17T18:06:08Z</time>
      </trkpt>
      <trkpt lat="41.866511" lon="-8.860169">
        <ele>4.759</ele>
        <time>2019-08-17T18:07:23Z</time>
      </trkpt>
      <trkpt lat="41.866285" lon="-8.860575">
        <ele>6.168</ele>
        <time>2019-08-17T18:07:53Z</time>
      </trkpt>
      <trkpt lat="41.866423" lon="-8.858736">
        <ele>7.746</ele>
        <time>2019-08-18T12:30:21Z</time>
      </trkpt>
      <trkpt lat="41.866424" lon="-8.858368">
        <ele>11.488</ele>
        <time>2019-08-18T12:30:42Z</time>
      </trkpt>
      <trkpt lat="41.866898" lon="-8.858074">
        <ele>8.516</ele>
        <time>2019-08-18T12:31:44Z</time>
      </trkpt>
      <trkpt lat="41.867041" lon="-8.859292">
        <ele>3.508</ele>
        <time>2019-08-18T12:32:09Z</time>
      </trkpt>
      <trkpt lat="41.867396" lon="-8.860619">
        <ele>0.688</ele>
        <time>2019-08-18T12:33:31Z</time>
      </trkpt>
      <trkpt lat="41.867329" lon="-8.860905">
        <ele>3.364</ele>
        <time>2019-08-18T12:33:39Z</time>
      </trkpt>
      <trkpt lat="41.867100" lon="-8.861104">
        <ele>6.895</ele>
        <time>2019-08-18T12:33:50Z</time>
      </trkpt>
      <trkpt lat="41.866955" lon="-8.861792">
        <ele>7.848</ele>
        <time>2019-08-18T12:34:28Z</time>
      </trkpt>
      <trkpt lat="41.867028" lon="-8.861255">
        <ele>7.647</ele>
        <time>2019-08-18T12:35:09Z</time>
      </trkpt>
      <trkpt lat="41.866263" lon="-8.862038">
        <ele>15.544</ele>
        <time>2019-08-18T12:36:03Z</time>
      </trkpt>
      <trkpt lat="41.864999" lon="-8.862469">
        <ele>14.279</ele>
        <time>2019-08-18T12:36:41Z</time>
      </trkpt>
      <trkpt lat="41.865194" lon="-8.862372">
        <ele>14.568</ele>
        <time>2019-08-18T12:36:58Z</time>
      </trkpt>
      <trkpt lat="41.865244" lon="-8.862145">
        <ele>15.867</ele>
        <time>2019-08-18T12:37:04Z</time>
      </trkpt>
      <trkpt lat="41.864389" lon="-8.858618">
        <ele>11.981</ele>
        <time>2019-08-18T12:39:26Z</time>
      </trkpt>
      <trkpt lat="41.864440" lon="-8.858885">
        <ele>14.019</ele>
        <time>2019-08-18T12:39:39Z</time>
      </trkpt>
      <trkpt lat="41.864045" lon="-8.859151">
        <ele>16.508</ele>
        <time>2019-08-18T12:39:53Z</time>
      </trkpt>
      <trkpt lat="41.852697" lon="-8.864151">
        <ele>8.180</ele>
        <time>2019-08-18T12:45:19Z</time>
      </trkpt>
      <trkpt lat="41.852587" lon="-8.864342">
        <ele>6.916</ele>
        <time>2019-08-18T12:45:39Z</time>
      </trkpt>
      <trkpt lat="41.852921" lon="-8.865460">
        <ele>6.287</ele>
        <time>2019-08-18T12:46:07Z</time>
      </trkpt>
      <trkpt lat="41.852776" lon="-8.865696">
        <ele>6.520</ele>
        <time>2019-08-18T12:46:17Z</time>
      </trkpt>
      <trkpt lat="41.851889" lon="-8.865873">
        <ele>5.759</ele>
        <time>2019-08-18T12:46:49Z</time>
      </trkpt>
      <trkpt lat="41.850886" lon="-8.865695">
        <ele>5.916</ele>
        <time>2019-08-18T12:47:18Z</time>
      </trkpt>
      <trkpt lat="41.850161" lon="-8.865846">
        <ele>7.131</ele>
        <time>2019-08-18T12:47:42Z</time>
      </trkpt>
      <trkpt lat="41.848925" lon="-8.865822">
        <ele>5.880</ele>
        <time>2019-08-18T12:48:19Z</time>
      </trkpt>
      <trkpt lat="41.848715" lon="-8.866089">
        <ele>5.463</ele>
        <time>2019-08-18T12:48:56Z</time>
      </trkpt>
      <trkpt lat="41.847838" lon="-8.866129">
        <ele>7.744</ele>
        <time>2019-08-18T12:49:18Z</time>
      </trkpt>
      <trkpt lat="41.847101" lon="-8.866509">
        <ele>4.518</ele>
        <time>2019-08-18T12:49:49Z</time>
      </trkpt>
      <trkpt lat="41.846611" lon="-8.866326">
        <ele>6.108</ele>
        <time>2019-08-18T12:50:14Z</time>
      </trkpt>
      <trkpt lat="41.845730" lon="-8.866792">
        <ele>4.370</ele>
        <time>2019-08-18T12:50:39Z</time>
      </trkpt>
      <trkpt lat="41.844399" lon="-8.868028">
        <ele>5.476</ele>
        <time>2019-08-18T12:51:19Z</time>
      </trkpt>
      <trkpt lat="41.843726" lon="-8.869956">
        <ele>0.017</ele>
        <time>2019-08-18T12:53:05Z</time>
      </trkpt>
      <trkpt lat="41.842868" lon="-8.871046">
        <ele>4.970</ele>
        <time>2019-08-18T12:53:32Z</time>
      </trkpt>
      <trkpt lat="41.842602" lon="-8.871828">
        <ele>1.159</ele>
        <time>2019-08-18T12:53:48Z</time>
      </trkpt>
      <trkpt lat="41.840244" lon="-8.873494">
        <ele>3.846</ele>
        <time>2019-08-18T12:54:57Z</time>
      </trkpt>
      <trkpt lat="41.838746" lon="-8.873952">
        <ele>5.321</ele>
        <time>2019-08-18T12:55:34Z</time>
      </trkpt>
      <trkpt lat="41.837385" lon="-8.874236">
        <ele>5.290</ele>
        <time>2019-08-18T12:56:04Z</time>
      </trkpt>
      <trkpt lat="41.836980" lon="-8.874200">
        <ele>6.828</ele>
        <time>2019-08-18T12:56:12Z</time>
      </trkpt>
      <trkpt lat="41.836428" lon="-8.874471">
        <ele>5.889</ele>
        <time>2019-08-18T12:56:26Z</time>
      </trkpt>
      <trkpt lat="41.834203" lon="-8.874934">
        <ele>5.417</ele>
        <time>2019-08-18T12:57:42Z</time>
      </trkpt>
      <trkpt lat="41.833253" lon="-8.875029">
        <ele>4.808</ele>
        <time>2019-08-18T12:58:11Z</time>
      </trkpt>
      <trkpt lat="41.832574" lon="-8.874917">
        <ele>4.646</ele>
        <time>2019-08-18T12:58:27Z</time>
      </trkpt>
      <trkpt lat="41.831475" lon="-8.875105">
        <ele>4.662</ele>
        <time>2019-08-18T12:58:52Z</time>
      </trkpt>
      <trkpt lat="41.829834" lon="-8.874807">
        <ele>6.043</ele>
        <time>2019-08-18T13:00:07Z</time>
      </trkpt>
      <trkpt lat="41.829840" lon="-8.874147">
        <ele>8.546</ele>
        <time>2019-08-18T13:00:32Z</time>
      </trkpt>
      <trkpt lat="41.829193" lon="-8.873912">
        <ele>6.085</ele>
        <time>2019-08-18T13:00:47Z</time>
      </trkpt>
      <trkpt lat="41.828191" lon="-8.872940">
        <ele>8.162</ele>
        <time>2019-08-18T13:01:15Z</time>
      </trkpt>
      <trkpt lat="41.825921" lon="-8.872835">
        <ele>4.597</ele>
        <time>2019-08-18T13:02:02Z</time>
      </trkpt>
      <trkpt lat="41.824738" lon="-8.873457">
        <ele>3.676</ele>
        <time>2019-08-18T13:02:26Z</time>
      </trkpt>
      <trkpt lat="41.823909" lon="-8.873474">
        <ele>5.177</ele>
        <time>2019-08-18T13:02:46Z</time>
      </trkpt>
      <trkpt lat="41.823359" lon="-8.873680">
        <ele>2.461</ele>
        <time>2019-08-18T13:02:58Z</time>
      </trkpt>
      <trkpt lat="41.821658" lon="-8.873006">
        <ele>4.027</ele>
        <time>2019-08-18T13:03:33Z</time>
      </trkpt>
      <trkpt lat="41.820083" lon="-8.872597">
        <ele>5.008</ele>
        <time>2019-08-18T13:04:00Z</time>
      </trkpt>
      <trkpt lat="41.817901" lon="-8.870532">
        <ele>2.181</ele>
        <time>2019-08-18T13:04:57Z</time>
      </trkpt>
      <trkpt lat="41.817463" lon="-8.870317">
        <ele>3.387</ele>
        <time>2019-08-18T13:05:20Z</time>
      </trkpt>
      <trkpt lat="41.816210" lon="-8.867900">
        <ele>5.818</ele>
        <time>2019-08-18T13:06:24Z</time>
      </trkpt>
      <trkpt lat="41.816124" lon="-8.868011">
        <ele>5.271</ele>
        <time>2019-08-18T13:06:34Z</time>
      </trkpt>
      <trkpt lat="41.815919" lon="-8.867672">
        <ele>5.230</ele>
        <time>2019-08-18T13:07:18Z</time>
      </trkpt>
      <trkpt lat="41.815552" lon="-8.867841">
        <ele>2.047</ele>
        <time>2019-08-18T13:07:45Z</time>
      </trkpt>
      <trkpt lat="41.815555" lon="-8.867641">
        <ele>2.062</ele>
        <time>2019-08-18T13:09:32Z</time>
      </trkpt>
      <trkpt lat="41.815514" lon="-8.867829">
        <ele>1.951</ele>
        <time>2019-08-18T13:10:01Z</time>
      </trkpt>
      <trkpt lat="41.815970" lon="-8.867562">
        <ele>6.579</ele>
        <time>2019-08-18T13:11:52Z</time>
      </trkpt>
      <trkpt lat="41.815732" lon="-8.866673">
        <ele>7.505</ele>
        <time>2019-08-18T13:12:12Z</time>
      </trkpt>
      <trkpt lat="41.814835" lon="-8.866645">
        <ele>1.825</ele>
        <time>2019-08-18T13:12:40Z</time>
      </trkpt>
      <trkpt lat="41.812066" lon="-8.862678">
        <ele>4.808</ele>
        <time>2019-08-18T13:15:08Z</time>
      </trkpt>
      <trkpt lat="41.811329" lon="-8.860490">
        <ele>5.681</ele>
        <time>2019-08-18T13:15:50Z</time>
      </trkpt>
      <trkpt lat="41.809966" lon="-8.859541">
        <ele>1.257</ele>
        <time>2019-08-18T13:16:28Z</time>
      </trkpt>
      <trkpt lat="41.810022" lon="-8.859086">
        <ele>3.588</ele>
        <time>2019-08-18T13:17:10Z</time>
      </trkpt>
      <trkpt lat="41.810357" lon="-8.858434">
        <ele>2.951</ele>
        <time>2019-08-18T13:17:31Z</time>
      </trkpt>
      <trkpt lat="41.809805" lon="-8.857660">
        <ele>4.350</ele>
        <time>2019-08-18T13:17:52Z</time>
      </trkpt>
      <trkpt lat="41.809218" lon="-8.857167">
        <ele>4.067</ele>
        <time>2019-08-18T13:18:07Z</time>
      </trkpt>
      <trkpt lat="41.808040" lon="-8.857053">
        <ele>3.672</ele>
        <time>2019-08-18T13:18:34Z</time>
      </trkpt>
      <trkpt lat="41.807596" lon="-8.856041">
        <ele>5.351</ele>
        <time>2019-08-18T13:18:55Z</time>
      </trkpt>
      <trkpt lat="41.806125" lon="-8.856066">
        <ele>3.015</ele>
        <time>2019-08-18T13:19:23Z</time>
      </trkpt>
      <trkpt lat="41.799529" lon="-8.857124">
        <ele>28.965</ele>
        <time>2019-08-18T13:21:51Z</time>
      </trkpt>
      <trkpt lat="41.798656" lon="-8.857409">
        <ele>27.811</ele>
        <time>2019-08-18T13:22:19Z</time>
      </trkpt>
      <trkpt lat="41.797711" lon="-8.858036">
        <ele>33.408</ele>
        <time>2019-08-18T13:22:53Z</time>
      </trkpt>
      <trkpt lat="41.796454" lon="-8.859594">
        <ele>39.845</ele>
        <time>2019-08-18T13:23:44Z</time>
      </trkpt>
      <trkpt lat="41.792172" lon="-8.867298">
        <ele>35.881</ele>
        <time>2019-08-18T13:26:29Z</time>
      </trkpt>
      <trkpt lat="41.791613" lon="-8.867877">
        <ele>34.252</ele>
        <time>2019-08-18T13:26:39Z</time>
      </trkpt>
      <trkpt lat="41.790658" lon="-8.868379">
        <ele>20.815</ele>
        <time>2019-08-18T13:26:50Z</time>
      </trkpt>
      <trkpt lat="41.789749" lon="-8.868527">
        <ele>15.384</ele>
        <time>2019-08-18T13:26:58Z</time>
      </trkpt>
      <trkpt lat="41.789018" lon="-8.868386">
        <ele>15.771</ele>
        <time>2019-08-18T13:27:04Z</time>
      </trkpt>
      <trkpt lat="41.782691" lon="-8.865338">
        <ele>12.216</ele>
        <time>2019-08-18T13:28:30Z</time>
      </trkpt>
      <trkpt lat="41.782354" lon="-8.865371">
        <ele>9.815</ele>
        <time>2019-08-18T13:28:39Z</time>
      </trkpt>
      <trkpt lat="41.781999" lon="-8.864996">
        <ele>11.824</ele>
        <time>2019-08-18T13:28:48Z</time>
      </trkpt>
      <trkpt lat="41.778228" lon="-8.863183">
        <ele>19.004</ele>
        <time>2019-08-18T13:30:02Z</time>
      </trkpt>
      <trkpt lat="41.776649" lon="-8.862593">
        <ele>19.014</ele>
        <time>2019-08-18T13:30:28Z</time>
      </trkpt>
      <trkpt lat="41.774686" lon="-8.862262">
        <ele>16.708</ele>
        <time>2019-08-18T13:31:01Z</time>
      </trkpt>
      <trkpt lat="41.774330" lon="-8.862717">
        <ele>13.916</ele>
        <time>2019-08-18T13:31:23Z</time>
      </trkpt>
      <trkpt lat="41.774035" lon="-8.863455">
        <ele>12.022</ele>
        <time>2019-08-18T13:31:37Z</time>
      </trkpt>
      <trkpt lat="41.773369" lon="-8.864008">
        <ele>11.273</ele>
        <time>2019-08-18T13:32:02Z</time>
      </trkpt>
      <trkpt lat="41.773135" lon="-8.864580">
        <ele>10.166</ele>
        <time>2019-08-18T13:32:16Z</time>
      </trkpt>
      <trkpt lat="41.772757" lon="-8.864861">
        <ele>10.695</ele>
        <time>2019-08-18T13:32:34Z</time>
      </trkpt>
      <trkpt lat="41.772728" lon="-8.867236">
        <ele>7.272</ele>
        <time>2019-08-18T13:33:09Z</time>
      </trkpt>
      <trkpt lat="41.770064" lon="-8.867012">
        <ele>11.617</ele>
        <time>2019-08-18T13:33:58Z</time>
      </trkpt>
      <trkpt lat="41.769890" lon="-8.867146">
        <ele>12.076</ele>
        <time>2019-08-18T13:34:04Z</time>
      </trkpt>
      <trkpt lat="41.769804" lon="-8.867838">
        <ele>11.724</ele>
        <time>2019-08-18T13:34:17Z</time>
      </trkpt>
      <trkpt lat="41.768790" lon="-8.867574">
        <ele>11.304</ele>
        <time>2019-08-18T13:34:37Z</time>
      </trkpt>
      <trkpt lat="41.767928" lon="-8.867595">
        <ele>12.814</ele>
        <time>2019-08-18T13:34:56Z</time>
      </trkpt>
      <trkpt lat="41.767744" lon="-8.868575">
        <ele>12.808</ele>
        <time>2019-08-18T13:35:14Z</time>
      </trkpt>
      <trkpt lat="41.765166" lon="-8.869107">
        <ele>11.566</ele>
        <time>2019-08-18T13:36:14Z</time>
      </trkpt>
      <trkpt lat="41.764901" lon="-8.870588">
        <ele>10.412</ele>
        <time>2019-08-18T13:36:50Z</time>
      </trkpt>
      <trkpt lat="41.762022" lon="-8.870847">
        <ele>16.943</ele>
        <time>2019-08-18T13:41:23Z</time>
      </trkpt>
      <trkpt lat="41.761578" lon="-8.870331">
        <ele>20.156</ele>
        <time>2019-08-18T13:41:48Z</time>
      </trkpt>
      <trkpt lat="41.761311" lon="-8.869497">
        <ele>20.015</ele>
        <time>2019-08-18T13:42:10Z</time>
      </trkpt>
      <trkpt lat="41.760344" lon="-8.869145">
        <ele>22.762</ele>
        <time>2019-08-18T13:42:42Z</time>
      </trkpt>
      <trkpt lat="41.760391" lon="-8.870034">
        <ele>29.557</ele>
        <time>2019-08-18T13:43:08Z</time>
      </trkpt>
      <trkpt lat="41.760861" lon="-8.871907">
        <ele>17.926</ele>
        <time>2019-08-18T13:43:36Z</time>
      </trkpt>
      <trkpt lat="41.760732" lon="-8.875868">
        <ele>10.214</ele>
        <time>2019-08-18T13:45:04Z</time>
      </trkpt>
      <trkpt lat="41.758921" lon="-8.876173">
        <ele>7.154</ele>
        <time>2019-08-18T13:47:42Z</time>
      </trkpt>
      <trkpt lat="41.758073" lon="-8.876124">
        <ele>6.009</ele>
        <time>2019-08-18T13:48:21Z</time>
      </trkpt>
      <trkpt lat="41.757663" lon="-8.876477">
        <ele>4.108</ele>
        <time>2019-08-18T13:48:35Z</time>
      </trkpt>
      <trkpt lat="41.757403" lon="-8.876422">
        <ele>5.265</ele>
        <time>2019-08-18T13:49:24Z</time>
      </trkpt>
      <trkpt lat="41.757315" lon="-8.876067">
        <ele>7.221</ele>
        <time>2019-08-18T13:49:37Z</time>
      </trkpt>
      <trkpt lat="41.757533" lon="-8.874537">
        <ele>12.082</ele>
        <time>2019-08-18T13:50:13Z</time>
      </trkpt>
      <trkpt lat="41.758367" lon="-8.874215">
        <ele>11.025</ele>
        <time>2019-08-18T13:50:42Z</time>
      </trkpt>
      <trkpt lat="41.758471" lon="-8.873936">
        <ele>11.424</ele>
        <time>2019-08-18T13:50:50Z</time>
      </trkpt>
      <trkpt lat="41.758191" lon="-8.873021">
        <ele>17.131</ele>
        <time>2019-08-18T13:51:16Z</time>
      </trkpt>
      <trkpt lat="41.757425" lon="-8.873097">
        <ele>20.766</ele>
        <time>2019-08-18T13:51:38Z</time>
      </trkpt>
      <trkpt lat="41.757277" lon="-8.872620">
        <ele>27.365</ele>
        <time>2019-08-18T13:51:57Z</time>
      </trkpt>
      <trkpt lat="41.756903" lon="-8.872552">
        <ele>33.316</ele>
        <time>2019-08-18T13:52:22Z</time>
      </trkpt>
      <trkpt lat="41.756530" lon="-8.872665">
        <ele>36.676</ele>
        <time>2019-08-18T13:52:43Z</time>
      </trkpt>
      <trkpt lat="41.756229" lon="-8.873054">
        <ele>35.713</ele>
        <time>2019-08-18T13:53:02Z</time>
      </trkpt>
      <trkpt lat="41.755728" lon="-8.874431">
        <ele>35.908</ele>
        <time>2019-08-18T13:53:50Z</time>
      </trkpt>
      <trkpt lat="41.755128" lon="-8.875549">
        <ele>35.675</ele>
        <time>2019-08-18T13:56:14Z</time>
      </trkpt>
      <trkpt lat="41.754259" lon="-8.875538">
        <ele>40.551</ele>
        <time>2019-08-18T13:56:43Z</time>
      </trkpt>
      <trkpt lat="41.752824" lon="-8.875061">
        <ele>46.532</ele>
        <time>2019-08-18T13:57:18Z</time>
      </trkpt>
      <trkpt lat="41.751476" lon="-8.874819">
        <ele>46.115</ele>
        <time>2019-08-18T13:59:13Z</time>
      </trkpt>
      <trkpt lat="41.750544" lon="-8.875582">
        <ele>35.794</ele>
        <time>2019-08-18T13:59:43Z</time>
      </trkpt>
      <trkpt lat="41.750222" lon="-8.875685">
        <ele>34.291</ele>
        <time>2019-08-18T13:59:47Z</time>
      </trkpt>
      <trkpt lat="41.749481" lon="-8.875472">
        <ele>37.246</ele>
        <time>2019-08-18T14:00:01Z</time>
      </trkpt>
      <trkpt lat="41.748569" lon="-8.874431">
        <ele>35.495</ele>
        <time>2019-08-18T14:00:46Z</time>
      </trkpt>
      <trkpt lat="41.748494" lon="-8.874715">
        <ele>34.923</ele>
        <time>2019-08-18T14:00:55Z</time>
      </trkpt>
      <trkpt lat="41.748088" lon="-8.874756">
        <ele>28.683</ele>
        <time>2019-08-18T14:01:11Z</time>
      </trkpt>
      <trkpt lat="41.747728" lon="-8.875061">
        <ele>26.611</ele>
        <time>2019-08-18T14:01:18Z</time>
      </trkpt>
      <trkpt lat="41.746930" lon="-8.876425">
        <ele>9.608</ele>
        <time>2019-08-18T14:03:15Z</time>
      </trkpt>
      <trkpt lat="41.746380" lon="-8.876608">
        <ele>5.226</ele>
        <time>2019-08-18T14:03:29Z</time>
      </trkpt>
      <trkpt lat="41.746103" lon="-8.877053">
        <ele>2.692</ele>
        <time>2019-08-18T14:03:40Z</time>
      </trkpt>
      <trkpt lat="41.745671" lon="-8.876986">
        <ele>2.733</ele>
        <time>2019-08-18T14:04:01Z</time>
      </trkpt>
      <trkpt lat="41.744916" lon="-8.877144">
        <ele>1.416</ele>
        <time>2019-08-18T14:04:22Z</time>
      </trkpt>
      <trkpt lat="41.743821" lon="-8.876378">
        <ele>3.075</ele>
        <time>2019-08-18T14:04:55Z</time>
      </trkpt>
      <trkpt lat="41.743691" lon="-8.876035">
        <ele>4.072</ele>
        <time>2019-08-18T14:05:03Z</time>
      </trkpt>
      <trkpt lat="41.742794" lon="-8.875705">
        <ele>6.967</ele>
        <time>2019-08-18T14:05:36Z</time>
      </trkpt>
      <trkpt lat="41.742738" lon="-8.875372">
        <ele>6.396</ele>
        <time>2019-08-18T14:05:49Z</time>
      </trkpt>
      <trkpt lat="41.740568" lon="-8.874497">
        <ele>3.828</ele>
        <time>2019-08-18T14:06:37Z</time>
      </trkpt>
      <trkpt lat="41.740134" lon="-8.874712">
        <ele>5.589</ele>
        <time>2019-08-18T14:06:46Z</time>
      </trkpt>
      <trkpt lat="41.739333" lon="-8.874705">
        <ele>4.217</ele>
        <time>2019-08-18T14:07:03Z</time>
      </trkpt>
      <trkpt lat="41.739148" lon="-8.874426">
        <ele>4.008</ele>
        <time>2019-08-18T14:07:09Z</time>
      </trkpt>
      <trkpt lat="41.738364" lon="-8.874298">
        <ele>4.676</ele>
        <time>2019-08-18T14:07:23Z</time>
      </trkpt>
      <trkpt lat="41.736411" lon="-8.873186">
        <ele>4.052</ele>
        <time>2019-08-18T14:08:02Z</time>
      </trkpt>
      <trkpt lat="41.733853" lon="-8.872691">
        <ele>2.113</ele>
        <time>2019-08-18T14:09:03Z</time>
      </trkpt>
      <trkpt lat="41.732513" lon="-8.872008">
        <ele>3.756</ele>
        <time>2019-08-18T14:09:35Z</time>
      </trkpt>
      <trkpt lat="41.732179" lon="-8.871624">
        <ele>4.015</ele>
        <time>2019-08-18T14:09:44Z</time>
      </trkpt>
      <trkpt lat="41.731281" lon="-8.871300">
        <ele>2.022</ele>
        <time>2019-08-18T14:10:00Z</time>
      </trkpt>
      <trkpt lat="41.729240" lon="-8.871380">
        <ele>3.067</ele>
        <time>2019-08-18T14:10:47Z</time>
      </trkpt>
      <trkpt lat="41.727749" lon="-8.870907">
        <ele>2.126</ele>
        <time>2019-08-18T14:11:10Z</time>
      </trkpt>
      <trkpt lat="41.727028" lon="-8.870419">
        <ele>1.926</ele>
        <time>2019-08-18T14:11:23Z</time>
      </trkpt>
      <trkpt lat="41.726857" lon="-8.869883">
        <ele>3.447</ele>
        <time>2019-08-18T14:11:37Z</time>
      </trkpt>
      <trkpt lat="41.726154" lon="-8.868905">
        <ele>2.011</ele>
        <time>2019-08-18T14:11:54Z</time>
      </trkpt>
      <trkpt lat="41.723035" lon="-8.867185">
        <ele>2.108</ele>
        <time>2019-08-18T14:12:55Z</time>
      </trkpt>
      <trkpt lat="41.722810" lon="-8.866880">
        <ele>2.186</ele>
        <time>2019-08-18T14:13:05Z</time>
      </trkpt>
      <trkpt lat="41.722070" lon="-8.866673">
        <ele>2.542</ele>
        <time>2019-08-18T14:13:19Z</time>
      </trkpt>
      <trkpt lat="41.720763" lon="-8.867061">
        <ele>0.963</ele>
        <time>2019-08-18T14:14:17Z</time>
      </trkpt>
      <trkpt lat="41.719840" lon="-8.866415">
        <ele>0.976</ele>
        <time>2019-08-18T14:16:20Z</time>
      </trkpt>
      <trkpt lat="41.718832" lon="-8.866301">
        <ele>1.355</ele>
        <time>2019-08-18T14:16:39Z</time>
      </trkpt>
      <trkpt lat="41.717381" lon="-8.865668">
        <ele>1.912</ele>
        <time>2019-08-18T14:17:07Z</time>
      </trkpt>
      <trkpt lat="41.716853" lon="-8.864405">
        <ele>3.367</ele>
        <time>2019-08-18T14:17:31Z</time>
      </trkpt>
      <trkpt lat="41.716149" lon="-8.864081">
        <ele>4.096</ele>
        <time>2019-08-18T14:17:46Z</time>
      </trkpt>
      <trkpt lat="41.715944" lon="-8.863562">
        <ele>2.867</ele>
        <time>2019-08-18T14:17:58Z</time>
      </trkpt>
      <trkpt lat="41.714862" lon="-8.863155">
        <ele>3.081</ele>
        <time>2019-08-18T14:18:24Z</time>
      </trkpt>
      <trkpt lat="41.714545" lon="-8.863842">
        <ele>2.719</ele>
        <time>2019-08-18T14:18:38Z</time>
      </trkpt>
      <trkpt lat="41.713987" lon="-8.863827">
        <ele>3.508</ele>
        <time>2019-08-18T14:18:49Z</time>
      </trkpt>
      <trkpt lat="41.712550" lon="-8.863170">
        <ele>2.080</ele>
        <time>2019-08-18T14:20:33Z</time>
      </trkpt>
      <trkpt lat="41.712386" lon="-8.862864">
        <ele>1.646</ele>
        <time>2019-08-18T14:20:43Z</time>
      </trkpt>
      <trkpt lat="41.712402" lon="-8.862234">
        <ele>2.067</ele>
        <time>2019-08-18T14:20:53Z</time>
      </trkpt>
      <trkpt lat="41.712152" lon="-8.861787">
        <ele>2.180</ele>
        <time>2019-08-18T14:21:04Z</time>
      </trkpt>
      <trkpt lat="41.711781" lon="-8.861495">
        <ele>3.479</ele>
        <time>2019-08-18T14:21:13Z</time>
      </trkpt>
      <trkpt lat="41.711256" lon="-8.861338">
        <ele>2.746</ele>
        <time>2019-08-18T14:21:22Z</time>
      </trkpt>
      <trkpt lat="41.709811" lon="-8.861576">
        <ele>2.311</ele>
        <time>2019-08-18T14:21:45Z</time>
      </trkpt>
      <trkpt lat="41.709273" lon="-8.861538">
        <ele>0.470</ele>
        <time>2019-08-18T14:21:54Z</time>
      </trkpt>
      <trkpt lat="41.708269" lon="-8.860656">
        <ele>1.241</ele>
        <time>2019-08-18T14:22:13Z</time>
      </trkpt>
      <trkpt lat="41.707442" lon="-8.860215">
        <ele>1.081</ele>
        <time>2019-08-18T14:22:27Z</time>
      </trkpt>
      <trkpt lat="41.706486" lon="-8.859945">
        <ele>1.509</ele>
        <time>2019-08-18T14:22:42Z</time>
      </trkpt>
      <trkpt lat="41.706018" lon="-8.859640">
        <ele>2.908</ele>
        <time>2019-08-18T14:22:53Z</time>
      </trkpt>
      <trkpt lat="41.705384" lon="-8.859639">
        <ele>1.038</ele>
        <time>2019-08-18T14:23:09Z</time>
      </trkpt>
      <trkpt lat="41.704700" lon="-8.859324">
        <ele>1.814</ele>
        <time>2019-08-18T14:23:22Z</time>
      </trkpt>
      <trkpt lat="41.703875" lon="-8.858473">
        <ele>3.015</ele>
        <time>2019-08-18T14:23:39Z</time>
      </trkpt>
      <trkpt lat="41.702874" lon="-8.857982">
        <ele>3.568</ele>
        <time>2019-08-18T14:23:56Z</time>
      </trkpt>
      <trkpt lat="41.701905" lon="-8.857258">
        <ele>3.797</ele>
        <time>2019-08-18T14:25:15Z</time>
      </trkpt>
      <trkpt lat="41.701342" lon="-8.857154">
        <ele>3.134</ele>
        <time>2019-08-18T14:26:17Z</time>
      </trkpt>
      <trkpt lat="41.699888" lon="-8.855991">
        <ele>-0.259</ele>
        <time>2019-08-18T14:27:12Z</time>
      </trkpt>
      <trkpt lat="41.699947" lon="-8.855287">
        <ele>1.638</ele>
        <time>2019-08-18T14:28:28Z</time>
      </trkpt>
      <trkpt lat="41.699712" lon="-8.853444">
        <ele>2.033</ele>
        <time>2019-08-18T14:29:07Z</time>
      </trkpt>
      <trkpt lat="41.699314" lon="-8.852657">
        <ele>1.423</ele>
        <time>2019-08-18T14:29:24Z</time>
      </trkpt>
      <trkpt lat="41.698500" lon="-8.852185">
        <ele>1.415</ele>
        <time>2019-08-18T14:29:42Z</time>
      </trkpt>
      <trkpt lat="41.697260" lon="-8.850826">
        <ele>3.208</ele>
        <time>2019-08-18T14:30:12Z</time>
      </trkpt>
      <trkpt lat="41.694691" lon="-8.849751">
        <ele>2.737</ele>
        <time>2019-08-18T14:31:46Z</time>
      </trkpt>
      <trkpt lat="41.693322" lon="-8.848900">
        <ele>1.973</ele>
        <time>2019-08-18T14:32:13Z</time>
      </trkpt>
      <trkpt lat="41.692711" lon="-8.838977">
        <ele>13.844</ele>
        <time>2019-08-18T14:36:05Z</time>
      </trkpt>
      <trkpt lat="41.692033" lon="-8.838655">
        <ele>10.587</ele>
        <time>2019-08-18T14:36:55Z</time>
      </trkpt>
      <trkpt lat="41.692052" lon="-8.837905">
        <ele>12.186</ele>
        <time>2019-08-18T14:37:11Z</time>
      </trkpt>
      <trkpt lat="41.692338" lon="-8.837869">
        <ele>13.143</ele>
        <time>2019-08-18T14:37:35Z</time>
      </trkpt>
      <trkpt lat="41.691540" lon="-8.837833">
        <ele>8.598</ele>
        <time>2019-08-18T15:19:39Z</time>
      </trkpt>
      <trkpt lat="41.691913" lon="-8.837763">
        <ele>10.837</ele>
        <time>2019-08-18T15:22:40Z</time>
      </trkpt>
      <trkpt lat="41.691789" lon="-8.836874">
        <ele>10.441</ele>
        <time>2019-08-18T15:23:02Z</time>
      </trkpt>
      <trkpt lat="41.689452" lon="-8.835727">
        <ele>4.081</ele>
        <time>2019-08-18T15:24:17Z</time>
      </trkpt>
      <trkpt lat="41.689266" lon="-8.835377">
        <ele>3.609</ele>
        <time>2019-08-18T15:24:24Z</time>
      </trkpt>
      <trkpt lat="41.689214" lon="-8.834527">
        <ele>1.808</ele>
        <time>2019-08-18T15:24:39Z</time>
      </trkpt>
      <trkpt lat="41.690706" lon="-8.830411">
        <ele>5.868</ele>
        <time>2019-08-18T15:25:54Z</time>
      </trkpt>
      <trkpt lat="41.690849" lon="-8.830165">
        <ele>5.464</ele>
        <time>2019-08-18T15:26:06Z</time>
      </trkpt>
      <trkpt lat="41.690927" lon="-8.830466">
        <ele>7.925</ele>
        <time>2019-08-18T15:27:06Z</time>
      </trkpt>
      <trkpt lat="41.691054" lon="-8.830391">
        <ele>8.688</ele>
        <time>2019-08-18T15:27:17Z</time>
      </trkpt>
      <trkpt lat="41.691214" lon="-8.829456">
        <ele>6.417</ele>
        <time>2019-08-18T15:27:47Z</time>
      </trkpt>
      <trkpt lat="41.691788" lon="-8.828718">
        <ele>8.784</ele>
        <time>2019-08-18T15:28:32Z</time>
      </trkpt>
      <trkpt lat="41.691774" lon="-8.828561">
        <ele>8.399</ele>
        <time>2019-08-18T15:29:33Z</time>
      </trkpt>
      <trkpt lat="41.690989" lon="-8.828076">
        <ele>2.458</ele>
        <time>2019-08-18T15:30:31Z</time>
      </trkpt>
      <trkpt lat="41.691328" lon="-8.827321">
        <ele>4.676</ele>
        <time>2019-08-18T15:31:00Z</time>
      </trkpt>
      <trkpt lat="41.690790" lon="-8.827017">
        <ele>2.390</ele>
        <time>2019-08-18T15:31:47Z</time>
      </trkpt>
      <trkpt lat="41.690788" lon="-8.826865">
        <ele>1.819</ele>
        <time>2019-08-18T15:31:53Z</time>
      </trkpt>
      <trkpt lat="41.692377" lon="-8.823702">
        <ele>1.108</ele>
        <time>2019-08-18T15:33:30Z</time>
      </trkpt>
      <trkpt lat="41.692671" lon="-8.823827">
        <ele>3.071</ele>
        <time>2019-08-18T15:33:51Z</time>
      </trkpt>
      <trkpt lat="41.692978" lon="-8.823558">
        <ele>2.837</ele>
        <time>2019-08-18T15:34:23Z</time>
      </trkpt>
      <trkpt lat="41.693484" lon="-8.824034">
        <ele>2.568</ele>
        <time>2019-08-18T15:35:03Z</time>
      </trkpt>
      <trkpt lat="41.695169" lon="-8.820358">
        <ele>5.321</ele>
        <time>2019-08-18T15:36:39Z</time>
      </trkpt>
      <trkpt lat="41.696037" lon="-8.820662">
        <ele>8.640</ele>
        <time>2019-08-18T15:37:01Z</time>
      </trkpt>
      <trkpt lat="41.696485" lon="-8.820612">
        <ele>6.377</ele>
        <time>2019-08-18T15:37:11Z</time>
      </trkpt>
      <trkpt lat="41.697135" lon="-8.821154">
        <ele>8.592</ele>
        <time>2019-08-18T15:37:36Z</time>
      </trkpt>
      <trkpt lat="41.696195" lon="-8.822211">
        <ele>5.071</ele>
        <time>2019-08-18T15:38:11Z</time>
      </trkpt>
      <trkpt lat="41.696131" lon="-8.822460">
        <ele>7.415</ele>
        <time>2019-08-18T15:38:19Z</time>
      </trkpt>
      <trkpt lat="41.696318" lon="-8.822784">
        <ele>7.365</ele>
        <time>2019-08-18T15:38:34Z</time>
      </trkpt>
      <trkpt lat="41.696160" lon="-8.822485">
        <ele>7.511</ele>
        <time>2019-08-18T15:38:48Z</time>
      </trkpt>
      <trkpt lat="41.696298" lon="-8.822076">
        <ele>5.008</ele>
        <time>2019-08-18T15:39:18Z</time>
      </trkpt>
      <trkpt lat="41.695915" lon="-8.822244">
        <ele>7.285</ele>
        <time>2019-08-18T15:39:30Z</time>
      </trkpt>
      <trkpt lat="41.695412" lon="-8.821757">
        <ele>6.311</ele>
        <time>2019-08-18T15:39:55Z</time>
      </trkpt>
      <trkpt lat="41.695185" lon="-8.822099">
        <ele>6.842</ele>
        <time>2019-08-18T15:40:05Z</time>
      </trkpt>
      <trkpt lat="41.695514" lon="-8.822499">
        <ele>7.845</ele>
        <time>2019-08-18T15:40:17Z</time>
      </trkpt>
      <trkpt lat="41.695687" lon="-8.822504">
        <ele>8.574</ele>
        <time>2019-08-18T15:40:23Z</time>
      </trkpt>
      <trkpt lat="41.695701" lon="-8.822304">
        <ele>8.261</ele>
        <time>2019-08-18T15:40:29Z</time>
      </trkpt>
      <trkpt lat="41.694960" lon="-8.821435">
        <ele>5.766</ele>
        <time>2019-08-18T15:40:54Z</time>
      </trkpt>
      <trkpt lat="41.694842" lon="-8.821119">
        <ele>2.455</ele>
        <time>2019-08-18T15:41:00Z</time>
      </trkpt>
      <trkpt lat="41.691608" lon="-8.816882">
        <ele>0.074</ele>
        <time>2019-08-18T15:42:03Z</time>
      </trkpt>
      <trkpt lat="41.688299" lon="-8.812844">
        <ele>0.056</ele>
        <time>2019-08-18T15:42:52Z</time>
      </trkpt>
      <trkpt lat="41.688041" lon="-8.812771">
        <ele>0.121</ele>
        <time>2019-08-18T15:42:56Z</time>
      </trkpt>
      <trkpt lat="41.687765" lon="-8.812930">
        <ele>1.508</ele>
        <time>2019-08-18T15:43:27Z</time>
      </trkpt>
      <trkpt lat="41.687529" lon="-8.812488">
        <ele>3.941</ele>
        <time>2019-08-18T15:43:53Z</time>
      </trkpt>
      <trkpt lat="41.686307" lon="-8.812705">
        <ele>4.837</ele>
        <time>2019-08-18T15:44:19Z</time>
      </trkpt>
      <trkpt lat="41.685658" lon="-8.812377">
        <ele>6.068</ele>
        <time>2019-08-18T15:44:32Z</time>
      </trkpt>
      <trkpt lat="41.683843" lon="-8.810701">
        <ele>13.131</ele>
        <time>2019-08-18T15:45:14Z</time>
      </trkpt>
      <trkpt lat="41.680664" lon="-8.807122">
        <ele>17.560</ele>
        <time>2019-08-18T15:46:38Z</time>
      </trkpt>
      <trkpt lat="41.675116" lon="-8.811670">
        <ele>23.617</ele>
        <time>2019-08-18T15:48:34Z</time>
      </trkpt>
      <trkpt lat="41.671190" lon="-8.812295">
        <ele>21.672</ele>
        <time>2019-08-18T15:49:36Z</time>
      </trkpt>
      <trkpt lat="41.670854" lon="-8.812139">
        <ele>20.751</ele>
        <time>2019-08-18T15:49:41Z</time>
      </trkpt>
      <trkpt lat="41.669041" lon="-8.810113">
        <ele>18.535</ele>
        <time>2019-08-18T15:50:14Z</time>
      </trkpt>
      <trkpt lat="41.660224" lon="-8.808114">
        <ele>20.886</ele>
        <time>2019-08-18T15:52:16Z</time>
      </trkpt>
      <trkpt lat="41.659275" lon="-8.807669">
        <ele>20.414</ele>
        <time>2019-08-18T15:52:32Z</time>
      </trkpt>
      <trkpt lat="41.658245" lon="-8.807669">
        <ele>23.408</ele>
        <time>2019-08-18T15:52:50Z</time>
      </trkpt>
      <trkpt lat="41.657724" lon="-8.807807">
        <ele>27.197</ele>
        <time>2019-08-18T15:53:02Z</time>
      </trkpt>
      <trkpt lat="41.655940" lon="-8.807418">
        <ele>31.393</ele>
        <time>2019-08-18T15:53:51Z</time>
      </trkpt>
      <trkpt lat="41.654801" lon="-8.807351">
        <ele>37.514</ele>
        <time>2019-08-18T15:54:34Z</time>
      </trkpt>
      <trkpt lat="41.648119" lon="-8.805862">
        <ele>46.727</ele>
        <time>2019-08-18T15:57:05Z</time>
      </trkpt>
      <trkpt lat="41.647739" lon="-8.805893">
        <ele>47.886</ele>
        <time>2019-08-18T15:57:13Z</time>
      </trkpt>
      <trkpt lat="41.647482" lon="-8.805687">
        <ele>48.553</ele>
        <time>2019-08-18T15:57:19Z</time>
      </trkpt>
      <trkpt lat="41.646571" lon="-8.805494">
        <ele>47.658</ele>
        <time>2019-08-18T15:58:25Z</time>
      </trkpt>
      <trkpt lat="41.643361" lon="-8.804986">
        <ele>45.917</ele>
        <time>2019-08-18T15:59:17Z</time>
      </trkpt>
      <trkpt lat="41.640993" lon="-8.804148">
        <ele>34.136</ele>
        <time>2019-08-18T15:59:52Z</time>
      </trkpt>
      <trkpt lat="41.638196" lon="-8.804384">
        <ele>33.917</ele>
        <time>2019-08-18T16:00:33Z</time>
      </trkpt>
      <trkpt lat="41.634138" lon="-8.803779">
        <ele>30.918</ele>
        <time>2019-08-18T16:01:33Z</time>
      </trkpt>
      <trkpt lat="41.631376" lon="-8.803052">
        <ele>32.008</ele>
        <time>2019-08-18T16:02:18Z</time>
      </trkpt>
      <trkpt lat="41.631111" lon="-8.802840">
        <ele>31.817</ele>
        <time>2019-08-18T16:02:23Z</time>
      </trkpt>
      <trkpt lat="41.630589" lon="-8.801913">
        <ele>38.223</ele>
        <time>2019-08-18T16:02:40Z</time>
      </trkpt>
      <trkpt lat="41.627508" lon="-8.800566">
        <ele>46.954</ele>
        <time>2019-08-18T16:03:56Z</time>
      </trkpt>
      <trkpt lat="41.624721" lon="-8.797396">
        <ele>50.457</ele>
        <time>2019-08-18T16:05:03Z</time>
      </trkpt>
      <trkpt lat="41.623635" lon="-8.796575">
        <ele>48.576</ele>
        <time>2019-08-18T16:05:27Z</time>
      </trkpt>
      <trkpt lat="41.623586" lon="-8.796078">
        <ele>50.173</ele>
        <time>2019-08-18T16:05:37Z</time>
      </trkpt>
      <trkpt lat="41.621578" lon="-8.789486">
        <ele>69.358</ele>
        <time>2019-08-18T16:07:50Z</time>
      </trkpt>
      <trkpt lat="41.621741" lon="-8.788540">
        <ele>70.057</ele>
        <time>2019-08-18T16:08:10Z</time>
      </trkpt>
      <trkpt lat="41.622425" lon="-8.787787">
        <ele>67.661</ele>
        <time>2019-08-18T16:08:25Z</time>
      </trkpt>
      <trkpt lat="41.622660" lon="-8.786993">
        <ele>64.121</ele>
        <time>2019-08-18T16:08:35Z</time>
      </trkpt>
      <trkpt lat="41.622775" lon="-8.786002">
        <ele>66.013</ele>
        <time>2019-08-18T16:08:49Z</time>
      </trkpt>
      <trkpt lat="41.622692" lon="-8.785373">
        <ele>64.608</ele>
        <time>2019-08-18T16:08:59Z</time>
      </trkpt>
      <trkpt lat="41.622458" lon="-8.785115">
        <ele>66.530</ele>
        <time>2019-08-18T16:09:04Z</time>
      </trkpt>
      <trkpt lat="41.621928" lon="-8.785114">
        <ele>68.046</ele>
        <time>2019-08-18T16:09:13Z</time>
      </trkpt>
      <trkpt lat="41.621467" lon="-8.784854">
        <ele>68.947</ele>
        <time>2019-08-18T16:09:20Z</time>
      </trkpt>
      <trkpt lat="41.618341" lon="-8.781296">
        <ele>50.320</ele>
        <time>2019-08-18T16:10:11Z</time>
      </trkpt>
      <trkpt lat="41.618026" lon="-8.781207">
        <ele>49.259</ele>
        <time>2019-08-18T16:10:15Z</time>
      </trkpt>
      <trkpt lat="41.617522" lon="-8.781350">
        <ele>47.936</ele>
        <time>2019-08-18T16:10:21Z</time>
      </trkpt>
      <trkpt lat="41.617285" lon="-8.781191">
        <ele>45.711</ele>
        <time>2019-08-18T16:10:24Z</time>
      </trkpt>
      <trkpt lat="41.616710" lon="-8.779615">
        <ele>44.070</ele>
        <time>2019-08-18T16:10:38Z</time>
      </trkpt>
      <trkpt lat="41.616468" lon="-8.779408">
        <ele>42.442</ele>
        <time>2019-08-18T16:10:41Z</time>
      </trkpt>
      <trkpt lat="41.615947" lon="-8.779366">
        <ele>40.722</ele>
        <time>2019-08-18T16:10:46Z</time>
      </trkpt>
      <trkpt lat="41.615825" lon="-8.779183">
        <ele>37.314</ele>
        <time>2019-08-18T16:10:48Z</time>
      </trkpt>
      <trkpt lat="41.616322" lon="-8.778121">
        <ele>30.008</ele>
        <time>2019-08-18T16:10:57Z</time>
      </trkpt>
      <trkpt lat="41.616481" lon="-8.777256">
        <ele>24.918</ele>
        <time>2019-08-18T16:11:06Z</time>
      </trkpt>
      <trkpt lat="41.616329" lon="-8.777008">
        <ele>24.864</ele>
        <time>2019-08-18T16:11:30Z</time>
      </trkpt>
      <trkpt lat="41.615652" lon="-8.776958">
        <ele>21.425</ele>
        <time>2019-08-18T16:11:48Z</time>
      </trkpt>
      <trkpt lat="41.614576" lon="-8.776352">
        <ele>32.888</ele>
        <time>2019-08-18T16:12:15Z</time>
      </trkpt>
      <trkpt lat="41.614120" lon="-8.776356">
        <ele>34.727</ele>
        <time>2019-08-18T16:12:31Z</time>
      </trkpt>
      <trkpt lat="41.613728" lon="-8.776613">
        <ele>35.044</ele>
        <time>2019-08-18T16:12:48Z</time>
      </trkpt>
      <trkpt lat="41.612940" lon="-8.777765">
        <ele>39.659</ele>
        <time>2019-08-18T16:13:29Z</time>
      </trkpt>
      <trkpt lat="41.612324" lon="-8.778164">
        <ele>38.098</ele>
        <time>2019-08-18T16:13:44Z</time>
      </trkpt>
      <trkpt lat="41.611801" lon="-8.778185">
        <ele>35.795</ele>
        <time>2019-08-18T16:13:56Z</time>
      </trkpt>
      <trkpt lat="41.611425" lon="-8.778724">
        <ele>34.349</ele>
        <time>2019-08-18T16:14:07Z</time>
      </trkpt>
      <trkpt lat="41.610550" lon="-8.779335">
        <ele>36.423</ele>
        <time>2019-08-18T16:14:23Z</time>
      </trkpt>
      <trkpt lat="41.608988" lon="-8.779287">
        <ele>34.108</ele>
        <time>2019-08-18T16:14:48Z</time>
      </trkpt>
      <trkpt lat="41.608167" lon="-8.780016">
        <ele>33.933</ele>
        <time>2019-08-18T16:15:09Z</time>
      </trkpt>
      <trkpt lat="41.607199" lon="-8.781996">
        <ele>43.169</ele>
        <time>2019-08-18T16:15:59Z</time>
      </trkpt>
      <trkpt lat="41.605168" lon="-8.783661">
        <ele>40.630</ele>
        <time>2019-08-18T16:16:42Z</time>
      </trkpt>
      <trkpt lat="41.598815" lon="-8.785098">
        <ele>30.653</ele>
        <time>2019-08-18T16:18:10Z</time>
      </trkpt>
      <trkpt lat="41.596028" lon="-8.785320">
        <ele>31.422</ele>
        <time>2019-08-18T16:18:56Z</time>
      </trkpt>
      <trkpt lat="41.585630" lon="-8.786688">
        <ele>30.399</ele>
        <time>2019-08-18T16:21:42Z</time>
      </trkpt>
      <trkpt lat="41.584311" lon="-8.787281">
        <ele>35.274</ele>
        <time>2019-08-18T16:22:07Z</time>
      </trkpt>
      <trkpt lat="41.583216" lon="-8.788118">
        <ele>33.853</ele>
        <time>2019-08-18T16:22:30Z</time>
      </trkpt>
      <trkpt lat="41.581296" lon="-8.787994">
        <ele>25.734</ele>
        <time>2019-08-18T16:22:52Z</time>
      </trkpt>
      <trkpt lat="41.580173" lon="-8.789132">
        <ele>23.555</ele>
        <time>2019-08-18T16:23:07Z</time>
      </trkpt>
      <trkpt lat="41.578476" lon="-8.790212">
        <ele>16.510</ele>
        <time>2019-08-18T16:23:28Z</time>
      </trkpt>
      <trkpt lat="41.575762" lon="-8.790712">
        <ele>13.408</ele>
        <time>2019-08-18T16:23:59Z</time>
      </trkpt>
      <trkpt lat="41.574595" lon="-8.790410">
        <ele>14.567</ele>
        <time>2019-08-18T16:24:16Z</time>
      </trkpt>
      <trkpt lat="41.574421" lon="-8.791340">
        <ele>13.063</ele>
        <time>2019-08-18T16:24:45Z</time>
      </trkpt>
      <trkpt lat="41.573878" lon="-8.790981">
        <ele>11.074</ele>
        <time>2019-08-18T16:25:02Z</time>
      </trkpt>
      <trkpt lat="41.573809" lon="-8.790192">
        <ele>12.347</ele>
        <time>2019-08-18T16:26:53Z</time>
      </trkpt>
      <trkpt lat="41.567621" lon="-8.788469">
        <ele>8.786</ele>
        <time>2019-08-18T16:28:35Z</time>
      </trkpt>
      <trkpt lat="41.559739" lon="-8.783630">
        <ele>13.173</ele>
        <time>2019-08-18T16:30:43Z</time>
      </trkpt>
      <trkpt lat="41.548789" lon="-8.782722">
        <ele>8.068</ele>
        <time>2019-08-18T16:33:29Z</time>
      </trkpt>
      <trkpt lat="41.548588" lon="-8.782864">
        <ele>8.497</ele>
        <time>2019-08-18T16:33:34Z</time>
      </trkpt>
      <trkpt lat="41.547777" lon="-8.789890">
        <ele>5.489</ele>
        <time>2019-08-18T16:35:08Z</time>
      </trkpt>
      <trkpt lat="41.547567" lon="-8.790484">
        <ele>5.406</ele>
        <time>2019-08-18T16:35:20Z</time>
      </trkpt>
      <trkpt lat="41.546437" lon="-8.791029">
        <ele>5.826</ele>
        <time>2019-08-18T16:35:44Z</time>
      </trkpt>
      <trkpt lat="41.545569" lon="-8.791035">
        <ele>5.008</ele>
        <time>2019-08-18T16:35:59Z</time>
      </trkpt>
      <trkpt lat="41.544173" lon="-8.790151">
        <ele>4.552</ele>
        <time>2019-08-18T16:36:39Z</time>
      </trkpt>
      <trkpt lat="41.543337" lon="-8.789350">
        <ele>2.488</ele>
        <time>2019-08-18T16:37:01Z</time>
      </trkpt>
      <trkpt lat="41.543213" lon="-8.789715">
        <ele>3.049</ele>
        <time>2019-08-18T16:37:24Z</time>
      </trkpt>
      <trkpt lat="41.543309" lon="-8.789345">
        <ele>2.332</ele>
        <time>2019-08-18T16:38:25Z</time>
      </trkpt>
      <trkpt lat="41.542934" lon="-8.789117">
        <ele>1.821</ele>
        <time>2019-08-18T16:38:40Z</time>
      </trkpt>
      <trkpt lat="41.542202" lon="-8.790475">
        <ele>1.658</ele>
        <time>2019-08-18T16:46:21Z</time>
      </trkpt>
      <trkpt lat="41.541884" lon="-8.790500">
        <ele>0.833</ele>
        <time>2019-08-18T16:48:14Z</time>
      </trkpt>
      <trkpt lat="41.541962" lon="-8.790594">
        <ele>1.192</ele>
        <time>2019-08-18T16:51:06Z</time>
      </trkpt>
      <trkpt lat="41.541899" lon="-8.790378">
        <ele>0.317</ele>
        <time>2019-08-18T16:51:31Z</time>
      </trkpt>
      <trkpt lat="41.542017" lon="-8.790163">
        <ele>0.587</ele>
        <time>2019-08-18T16:51:40Z</time>
      </trkpt>
      <trkpt lat="41.542087" lon="-8.790060">
        <ele>0.515</ele>
        <time>2019-08-18T16:54:21Z</time>
      </trkpt>
      <trkpt lat="41.541924" lon="-8.790428">
        <ele>0.508</ele>
        <time>2019-08-18T16:54:50Z</time>
      </trkpt>
      <trkpt lat="41.542122" lon="-8.790524">
        <ele>1.525</ele>
        <time>2019-08-18T16:54:59Z</time>
      </trkpt>
      <trkpt lat="41.542863" lon="-8.789014">
        <ele>2.011</ele>
        <time>2019-08-18T16:55:50Z</time>
      </trkpt>
      <trkpt lat="41.541250" lon="-8.787583">
        <ele>2.162</ele>
        <time>2019-08-18T16:56:30Z</time>
      </trkpt>
      <trkpt lat="41.540920" lon="-8.787350">
        <ele>1.525</ele>
        <time>2019-08-18T16:56:38Z</time>
      </trkpt>
      <trkpt lat="41.540014" lon="-8.787156">
        <ele>1.334</ele>
        <time>2019-08-18T16:56:56Z</time>
      </trkpt>
      <trkpt lat="41.539262" lon="-8.786356">
        <ele>0.991</ele>
        <time>2019-08-18T16:57:16Z</time>
      </trkpt>
      <trkpt lat="41.532344" lon="-8.783297">
        <ele>-0.226</ele>
        <time>2019-08-18T16:59:49Z</time>
      </trkpt>
      <trkpt lat="41.532200" lon="-8.783066">
        <ele>1.975</ele>
        <time>2019-08-18T16:59:56Z</time>
      </trkpt>
      <trkpt lat="41.532776" lon="-8.781216">
        <ele>5.464</ele>
        <time>2019-08-18T17:00:41Z</time>
      </trkpt>
      <trkpt lat="41.532907" lon="-8.781480">
        <ele>5.706</ele>
        <time>2019-08-18T17:01:07Z</time>
      </trkpt>
      <trkpt lat="41.532756" lon="-8.781159">
        <ele>5.216</ele>
        <time>2019-08-18T17:01:29Z</time>
      </trkpt>
      <trkpt lat="41.532301" lon="-8.781077">
        <ele>5.808</ele>
        <time>2019-08-18T17:01:52Z</time>
      </trkpt>
      <trkpt lat="41.531588" lon="-8.780537">
        <ele>7.730</ele>
        <time>2019-08-18T17:02:30Z</time>
      </trkpt>
      <trkpt lat="41.531086" lon="-8.780368">
        <ele>7.036</ele>
        <time>2019-08-18T17:02:58Z</time>
      </trkpt>
      <trkpt lat="41.530824" lon="-8.780888">
        <ele>7.037</ele>
        <time>2019-08-18T17:04:03Z</time>
      </trkpt>
      <trkpt lat="41.529828" lon="-8.780283">
        <ele>4.420</ele>
        <time>2019-08-18T17:04:35Z</time>
      </trkpt>
      <trkpt lat="41.529457" lon="-8.781691">
        <ele>2.089</ele>
        <time>2019-08-18T17:05:25Z</time>
      </trkpt>
      <trkpt lat="41.529217" lon="-8.781788">
        <ele>1.186</ele>
        <time>2019-08-18T17:05:39Z</time>
      </trkpt>
      <trkpt lat="41.528252" lon="-8.780828">
        <ele>-0.951</ele>
        <time>2019-08-18T17:06:07Z</time>
      </trkpt>
      <trkpt lat="41.525105" lon="-8.776749">
        <ele>2.390</ele>
        <time>2019-08-18T17:07:39Z</time>
      </trkpt>
      <trkpt lat="41.524100" lon="-8.776069">
        <ele>2.255</ele>
        <time>2019-08-18T17:08:26Z</time>
      </trkpt>
      <trkpt lat="41.520489" lon="-8.774236">
        <ele>2.807</ele>
        <time>2019-08-18T17:09:26Z</time>
      </trkpt>
      <trkpt lat="41.517391" lon="-8.770963">
        <ele>2.917</ele>
        <time>2019-08-18T17:10:33Z</time>
      </trkpt>
      <trkpt lat="41.517182" lon="-8.770888">
        <ele>1.908</ele>
        <time>2019-08-18T17:10:41Z</time>
      </trkpt>
      <trkpt lat="41.516693" lon="-8.771151">
        <ele>0.939</ele>
        <time>2019-08-18T17:11:04Z</time>
      </trkpt>
      <trkpt lat="41.513812" lon="-8.773497">
        <ele>4.695</ele>
        <time>2019-08-18T17:12:40Z</time>
      </trkpt>
      <trkpt lat="41.512493" lon="-8.773471">
        <ele>9.066</ele>
        <time>2019-08-18T17:13:14Z</time>
      </trkpt>
      <trkpt lat="41.511285" lon="-8.772195">
        <ele>10.399</ele>
        <time>2019-08-18T17:14:02Z</time>
      </trkpt>
      <trkpt lat="41.510474" lon="-8.772749">
        <ele>7.288</ele>
        <time>2019-08-18T17:14:27Z</time>
      </trkpt>
      <trkpt lat="41.509293" lon="-8.774072">
        <ele>4.465</ele>
        <time>2019-08-18T17:15:02Z</time>
      </trkpt>
      <trkpt lat="41.508669" lon="-8.776055">
        <ele>5.050</ele>
        <time>2019-08-18T17:15:44Z</time>
      </trkpt>
      <trkpt lat="41.507766" lon="-8.778199">
        <ele>4.049</ele>
        <time>2019-08-18T17:17:04Z</time>
      </trkpt>
      <trkpt lat="41.507625" lon="-8.778106">
        <ele>4.521</ele>
        <time>2019-08-18T17:18:47Z</time>
      </trkpt>
      <trkpt lat="41.507632" lon="-8.777972">
        <ele>4.841</ele>
        <time>2019-08-18T17:18:57Z</time>
      </trkpt>
      <trkpt lat="41.507799" lon="-8.778028">
        <ele>4.005</ele>
        <time>2019-08-18T17:22:19Z</time>
      </trkpt>
      <trkpt lat="41.507679" lon="-8.777918">
        <ele>4.908</ele>
        <time>2019-08-18T17:29:16Z</time>
      </trkpt>
      <trkpt lat="41.507981" lon="-8.778133">
        <ele>3.368</ele>
        <time>2019-08-19T10:45:30Z</time>
      </trkpt>
      <trkpt lat="41.509312" lon="-8.774052">
        <ele>11.842</ele>
        <time>2019-08-19T10:48:38Z</time>
      </trkpt>
      <trkpt lat="41.511240" lon="-8.772171">
        <ele>16.826</ele>
        <time>2019-08-19T10:50:03Z</time>
      </trkpt>
      <trkpt lat="41.510911" lon="-8.771028">
        <ele>9.108</ele>
        <time>2019-08-19T10:51:04Z</time>
      </trkpt>
      <trkpt lat="41.511273" lon="-8.770856">
        <ele>6.520</ele>
        <time>2019-08-19T10:51:21Z</time>
      </trkpt>
      <trkpt lat="41.511665" lon="-8.769526">
        <ele>6.616</ele>
        <time>2019-08-19T10:52:03Z</time>
      </trkpt>
      <trkpt lat="41.512993" lon="-8.771307">
        <ele>3.717</ele>
        <time>2019-08-19T10:53:24Z</time>
      </trkpt>
      <trkpt lat="41.513994" lon="-8.771805">
        <ele>7.975</ele>
        <time>2019-08-19T10:55:44Z</time>
      </trkpt>
      <trkpt lat="41.514135" lon="-8.771609">
        <ele>10.292</ele>
        <time>2019-08-19T10:56:03Z</time>
      </trkpt>
      <trkpt lat="41.513917" lon="-8.772076">
        <ele>5.888</ele>
        <time>2019-08-19T10:56:43Z</time>
      </trkpt>
      <trkpt lat="41.513852" lon="-8.773492">
        <ele>7.512</ele>
        <time>2019-08-19T10:57:43Z</time>
      </trkpt>
      <trkpt lat="41.513558" lon="-8.773572">
        <ele>5.762</ele>
        <time>2019-08-19T10:57:50Z</time>
      </trkpt>
      <trkpt lat="41.513751" lon="-8.773547">
        <ele>6.861</ele>
        <time>2019-08-19T10:58:11Z</time>
      </trkpt>
      <trkpt lat="41.516652" lon="-8.785028">
        <ele>13.921</ele>
        <time>2019-08-19T11:01:19Z</time>
      </trkpt>
      <trkpt lat="41.514192" lon="-8.782915">
        <ele>5.013</ele>
        <time>2019-08-19T11:02:15Z</time>
      </trkpt>
      <trkpt lat="41.511375" lon="-8.782500">
        <ele>4.308</ele>
        <time>2019-08-19T11:03:09Z</time>
      </trkpt>
      <trkpt lat="41.510147" lon="-8.782639">
        <ele>8.180</ele>
        <time>2019-08-19T11:04:03Z</time>
      </trkpt>
      <trkpt lat="41.506884" lon="-8.783704">
        <ele>7.926</ele>
        <time>2019-08-19T11:04:59Z</time>
      </trkpt>
      <trkpt lat="41.500055" lon="-8.785120">
        <ele>4.337</ele>
        <time>2019-08-19T11:06:59Z</time>
      </trkpt>
      <trkpt lat="41.497479" lon="-8.785224">
        <ele>4.595</ele>
        <time>2019-08-19T11:07:50Z</time>
      </trkpt>
      <trkpt lat="41.488798" lon="-8.782630">
        <ele>6.092</ele>
        <time>2019-08-19T11:11:55Z</time>
      </trkpt>
      <trkpt lat="41.487415" lon="-8.781320">
        <ele>0.528</ele>
        <time>2019-08-19T11:13:06Z</time>
      </trkpt>
      <trkpt lat="41.487419" lon="-8.781511">
        <ele>3.372</ele>
        <time>2019-08-19T11:13:53Z</time>
      </trkpt>
      <trkpt lat="41.486499" lon="-8.779894">
        <ele>3.962</ele>
        <time>2019-08-19T11:15:26Z</time>
      </trkpt>
      <trkpt lat="41.485592" lon="-8.779914">
        <ele>10.178</ele>
        <time>2019-08-19T11:16:24Z</time>
      </trkpt>
      <trkpt lat="41.483599" lon="-8.778021">
        <ele>1.233</ele>
        <time>2019-08-19T11:18:41Z</time>
      </trkpt>
      <trkpt lat="41.483728" lon="-8.777018">
        <ele>2.126</ele>
        <time>2019-08-19T11:19:05Z</time>
      </trkpt>
      <trkpt lat="41.483632" lon="-8.776846">
        <ele>5.508</ele>
        <time>2019-08-19T11:19:33Z</time>
      </trkpt>
      <trkpt lat="41.484077" lon="-8.773479">
        <ele>6.821</ele>
        <time>2019-08-19T11:20:48Z</time>
      </trkpt>
      <trkpt lat="41.483604" lon="-8.769134">
        <ele>8.737</ele>
        <time>2019-08-19T11:22:19Z</time>
      </trkpt>
      <trkpt lat="41.483058" lon="-8.768777">
        <ele>8.138</ele>
        <time>2019-08-19T11:22:39Z</time>
      </trkpt>
      <trkpt lat="41.481919" lon="-8.767127">
        <ele>10.716</ele>
        <time>2019-08-19T11:23:18Z</time>
      </trkpt>
      <trkpt lat="41.481009" lon="-8.766506">
        <ele>10.393</ele>
        <time>2019-08-19T11:23:36Z</time>
      </trkpt>
      <trkpt lat="41.479724" lon="-8.765095">
        <ele>10.279</ele>
        <time>2019-08-19T11:24:10Z</time>
      </trkpt>
      <trkpt lat="41.478550" lon="-8.765692">
        <ele>13.393</ele>
        <time>2019-08-19T11:24:45Z</time>
      </trkpt>
      <trkpt lat="41.478211" lon="-8.765438">
        <ele>11.793</ele>
        <time>2019-08-19T11:25:00Z</time>
      </trkpt>
      <trkpt lat="41.475566" lon="-8.765242">
        <ele>15.696</ele>
        <time>2019-08-19T11:25:58Z</time>
      </trkpt>
      <trkpt lat="41.474613" lon="-8.765601">
        <ele>21.431</ele>
        <time>2019-08-19T11:26:22Z</time>
      </trkpt>
      <trkpt lat="41.472926" lon="-8.765516">
        <ele>16.024</ele>
        <time>2019-08-19T11:26:59Z</time>
      </trkpt>
      <trkpt lat="41.470307" lon="-8.764756">
        <ele>13.808</ele>
        <time>2019-08-19T11:27:51Z</time>
      </trkpt>
      <trkpt lat="41.469101" lon="-8.765130">
        <ele>15.043</ele>
        <time>2019-08-19T11:28:15Z</time>
      </trkpt>
      <trkpt lat="41.468352" lon="-8.765907">
        <ele>17.199</ele>
        <time>2019-08-19T11:28:32Z</time>
      </trkpt>
      <trkpt lat="41.467815" lon="-8.766133">
        <ele>16.530</ele>
        <time>2019-08-19T11:28:44Z</time>
      </trkpt>
      <trkpt lat="41.467247" lon="-8.767766">
        <ele>18.848</ele>
        <time>2019-08-19T11:29:18Z</time>
      </trkpt>
      <trkpt lat="41.466218" lon="-8.768103">
        <ele>15.425</ele>
        <time>2019-08-19T11:29:37Z</time>
      </trkpt>
      <trkpt lat="41.464728" lon="-8.768203">
        <ele>15.271</ele>
        <time>2019-08-19T11:30:01Z</time>
      </trkpt>
      <trkpt lat="41.462864" lon="-8.769008">
        <ele>15.925</ele>
        <time>2019-08-19T11:30:34Z</time>
      </trkpt>
      <trkpt lat="41.462033" lon="-8.767888">
        <ele>11.265</ele>
        <time>2019-08-19T11:30:57Z</time>
      </trkpt>
      <trkpt lat="41.460311" lon="-8.767589">
        <ele>12.822</ele>
        <time>2019-08-19T11:31:33Z</time>
      </trkpt>
      <trkpt lat="41.459153" lon="-8.770037">
        <ele>11.362</ele>
        <time>2019-08-19T11:32:16Z</time>
      </trkpt>
      <trkpt lat="41.457521" lon="-8.770356">
        <ele>12.708</ele>
        <time>2019-08-19T11:34:13Z</time>
      </trkpt>
      <trkpt lat="41.455678" lon="-8.770382">
        <ele>15.208</ele>
        <time>2019-08-19T11:34:50Z</time>
      </trkpt>
      <trkpt lat="41.449761" lon="-8.772831">
        <ele>21.586</ele>
        <time>2019-08-19T11:36:38Z</time>
      </trkpt>
      <trkpt lat="41.447453" lon="-8.773319">
        <ele>17.592</ele>
        <time>2019-08-19T11:37:18Z</time>
      </trkpt>
      <trkpt lat="41.443759" lon="-8.774441">
        <ele>17.153</ele>
        <time>2019-08-19T11:38:22Z</time>
      </trkpt>
      <trkpt lat="41.442368" lon="-8.775768">
        <ele>17.871</ele>
        <time>2019-08-19T11:38:54Z</time>
      </trkpt>
      <trkpt lat="41.438149" lon="-8.778070">
        <ele>20.138</ele>
        <time>2019-08-19T11:40:12Z</time>
      </trkpt>
      <trkpt lat="41.436213" lon="-8.778792">
        <ele>18.394</ele>
        <time>2019-08-19T11:40:47Z</time>
      </trkpt>
      <trkpt lat="41.434884" lon="-8.778804">
        <ele>18.798</ele>
        <time>2019-08-19T11:41:11Z</time>
      </trkpt>
      <trkpt lat="41.434016" lon="-8.778401">
        <ele>14.228</ele>
        <time>2019-08-19T11:41:40Z</time>
      </trkpt>
      <trkpt lat="41.434388" lon="-8.778599">
        <ele>12.125</ele>
        <time>2019-08-19T11:41:49Z</time>
      </trkpt>
      <trkpt lat="41.434437" lon="-8.779089">
        <ele>10.826</ele>
        <time>2019-08-19T11:42:05Z</time>
      </trkpt>
      <trkpt lat="41.434174" lon="-8.780767">
        <ele>7.608</ele>
        <time>2019-08-19T11:42:35Z</time>
      </trkpt>
      <trkpt lat="41.434245" lon="-8.782081">
        <ele>2.108</ele>
        <time>2019-08-19T11:42:57Z</time>
      </trkpt>
      <trkpt lat="41.432296" lon="-8.782690">
        <ele>13.886</ele>
        <time>2019-08-19T11:43:43Z</time>
      </trkpt>
      <trkpt lat="41.430878" lon="-8.782647">
        <ele>8.822</ele>
        <time>2019-08-19T11:44:15Z</time>
      </trkpt>
      <trkpt lat="41.430833" lon="-8.783291">
        <ele>11.983</ele>
        <time>2019-08-19T11:44:48Z</time>
      </trkpt>
      <trkpt lat="41.430436" lon="-8.783358">
        <ele>16.121</ele>
        <time>2019-08-19T11:45:03Z</time>
      </trkpt>
      <trkpt lat="41.430720" lon="-8.783386">
        <ele>19.848</ele>
        <time>2019-08-19T11:45:17Z</time>
      </trkpt>
      <trkpt lat="41.430630" lon="-8.783696">
        <ele>19.394</ele>
        <time>2019-08-19T11:45:27Z</time>
      </trkpt>
      <trkpt lat="41.428460" lon="-8.783648">
        <ele>13.978</ele>
        <time>2019-08-19T11:46:11Z</time>
      </trkpt>
      <trkpt lat="41.426255" lon="-8.783199">
        <ele>12.898</ele>
        <time>2019-08-19T11:46:50Z</time>
      </trkpt>
      <trkpt lat="41.424679" lon="-8.783357">
        <ele>14.091</ele>
        <time>2019-08-19T11:47:17Z</time>
      </trkpt>
      <trkpt lat="41.424243" lon="-8.783711">
        <ele>14.381</ele>
        <time>2019-08-19T11:47:26Z</time>
      </trkpt>
      <trkpt lat="41.418543" lon="-8.784761">
        <ele>74.519</ele>
        <time>2019-08-19T11:51:45Z</time>
      </trkpt>
      <trkpt lat="41.418565" lon="-8.785166">
        <ele>76.008</ele>
        <time>2019-08-19T11:52:09Z</time>
      </trkpt>
      <trkpt lat="41.416778" lon="-8.785840">
        <ele>75.843</ele>
        <time>2019-08-19T11:52:57Z</time>
      </trkpt>
      <trkpt lat="41.416306" lon="-8.785709">
        <ele>74.479</ele>
        <time>2019-08-19T11:53:29Z</time>
      </trkpt>
      <trkpt lat="41.416155" lon="-8.785212">
        <ele>72.150</ele>
        <time>2019-08-19T11:53:45Z</time>
      </trkpt>
      <trkpt lat="41.415368" lon="-8.785450">
        <ele>69.438</ele>
        <time>2019-08-19T11:54:43Z</time>
      </trkpt>
      <trkpt lat="41.415432" lon="-8.784504">
        <ele>70.595</ele>
        <time>2019-08-19T11:55:02Z</time>
      </trkpt>
      <trkpt lat="41.414139" lon="-8.784577">
        <ele>70.411</ele>
        <time>2019-08-19T11:55:25Z</time>
      </trkpt>
      <trkpt lat="41.413541" lon="-8.783837">
        <ele>71.855</ele>
        <time>2019-08-19T11:55:40Z</time>
      </trkpt>
      <trkpt lat="41.412989" lon="-8.783726">
        <ele>72.375</ele>
        <time>2019-08-19T11:55:50Z</time>
      </trkpt>
      <trkpt lat="41.411355" lon="-8.782715">
        <ele>71.384</ele>
        <time>2019-08-19T11:56:19Z</time>
      </trkpt>
      <trkpt lat="41.410844" lon="-8.782621">
        <ele>69.607</ele>
        <time>2019-08-19T11:56:26Z</time>
      </trkpt>
      <trkpt lat="41.409862" lon="-8.781687">
        <ele>65.817</ele>
        <time>2019-08-19T11:56:43Z</time>
      </trkpt>
      <trkpt lat="41.408234" lon="-8.779294">
        <ele>68.108</ele>
        <time>2019-08-19T11:57:31Z</time>
      </trkpt>
      <trkpt lat="41.407264" lon="-8.779470">
        <ele>66.692</ele>
        <time>2019-08-19T11:57:49Z</time>
      </trkpt>
      <trkpt lat="41.406490" lon="-8.780299">
        <ele>66.838</ele>
        <time>2019-08-19T11:58:10Z</time>
      </trkpt>
      <trkpt lat="41.405707" lon="-8.779753">
        <ele>66.439</ele>
        <time>2019-08-19T11:58:35Z</time>
      </trkpt>
      <trkpt lat="41.405504" lon="-8.780221">
        <ele>66.997</ele>
        <time>2019-08-19T11:59:50Z</time>
      </trkpt>
      <trkpt lat="41.403075" lon="-8.778723">
        <ele>67.964</ele>
        <time>2019-08-19T12:01:03Z</time>
      </trkpt>
      <trkpt lat="41.400272" lon="-8.777510">
        <ele>69.430</ele>
        <time>2019-08-19T12:02:27Z</time>
      </trkpt>
      <trkpt lat="41.399891" lon="-8.777150">
        <ele>69.674</ele>
        <time>2019-08-19T12:03:26Z</time>
      </trkpt>
      <trkpt lat="41.397718" lon="-8.778585">
        <ele>68.224</ele>
        <time>2019-08-19T12:04:31Z</time>
      </trkpt>
      <trkpt lat="41.397275" lon="-8.778694">
        <ele>68.082</ele>
        <time>2019-08-19T12:04:44Z</time>
      </trkpt>
      <trkpt lat="41.393842" lon="-8.776615">
        <ele>68.443</ele>
        <time>2019-08-19T12:06:32Z</time>
      </trkpt>
      <trkpt lat="41.391446" lon="-8.774197">
        <ele>67.017</ele>
        <time>2019-08-19T12:07:48Z</time>
      </trkpt>
      <trkpt lat="41.390466" lon="-8.773914">
        <ele>66.908</ele>
        <time>2019-08-19T12:08:10Z</time>
      </trkpt>
      <trkpt lat="41.388692" lon="-8.773838">
        <ele>74.852</ele>
        <time>2019-08-19T12:08:46Z</time>
      </trkpt>
      <trkpt lat="41.381483" lon="-8.769634">
        <ele>69.138</ele>
        <time>2019-08-19T12:13:09Z</time>
      </trkpt>
      <trkpt lat="41.379870" lon="-8.768238">
        <ele>64.169</ele>
        <time>2019-08-19T12:14:20Z</time>
      </trkpt>
      <trkpt lat="41.381378" lon="-8.764406">
        <ele>68.737</ele>
        <time>2019-08-19T12:15:46Z</time>
      </trkpt>
      <trkpt lat="41.382788" lon="-8.759991">
        <ele>72.334</ele>
        <time>2019-08-19T12:17:34Z</time>
      </trkpt>
      <trkpt lat="41.382733" lon="-8.759459">
        <ele>70.550</ele>
        <time>2019-08-19T12:17:57Z</time>
      </trkpt>
      <trkpt lat="41.382446" lon="-8.759119">
        <ele>71.124</ele>
        <time>2019-08-19T12:20:09Z</time>
      </trkpt>
      <trkpt lat="41.383054" lon="-8.759841">
        <ele>76.054</ele>
        <time>2019-08-19T12:21:36Z</time>
      </trkpt>
      <trkpt lat="41.382841" lon="-8.760044">
        <ele>72.384</ele>
        <time>2019-08-19T12:21:50Z</time>
      </trkpt>
      <trkpt lat="41.380369" lon="-8.767162">
        <ele>65.907</ele>
        <time>2019-08-19T12:26:54Z</time>
      </trkpt>
      <trkpt lat="41.379571" lon="-8.766576">
        <ele>66.117</ele>
        <time>2019-08-19T12:27:36Z</time>
      </trkpt>
      <trkpt lat="41.379532" lon="-8.765724">
        <ele>70.108</ele>
        <time>2019-08-19T12:28:59Z</time>
      </trkpt>
      <trkpt lat="41.379901" lon="-8.765293">
        <ele>71.172</ele>
        <time>2019-08-19T12:29:21Z</time>
      </trkpt>
      <trkpt lat="41.379450" lon="-8.765199">
        <ele>75.478</ele>
        <time>2019-08-19T12:30:16Z</time>
      </trkpt>
      <trkpt lat="41.378922" lon="-8.762350">
        <ele>62.249</ele>
        <time>2019-08-19T12:32:11Z</time>
      </trkpt>
      <trkpt lat="41.378096" lon="-8.762052">
        <ele>70.177</ele>
        <time>2019-08-19T12:33:18Z</time>
      </trkpt>
      <trkpt lat="41.378599" lon="-8.763777">
        <ele>59.224</ele>
        <time>2019-08-19T12:33:50Z</time>
      </trkpt>
      <trkpt lat="41.378458" lon="-8.764007">
        <ele>62.040</ele>
        <time>2019-08-19T12:34:30Z</time>
      </trkpt>
      <trkpt lat="41.378303" lon="-8.763592">
        <ele>61.444</ele>
        <time>2019-08-19T12:35:05Z</time>
      </trkpt>
      <trkpt lat="41.378273" lon="-8.763888">
        <ele>64.474</ele>
        <time>2019-08-19T12:36:08Z</time>
      </trkpt>
      <trkpt lat="41.378453" lon="-8.764046">
        <ele>64.247</ele>
        <time>2019-08-19T12:36:55Z</time>
      </trkpt>
      <trkpt lat="41.378130" lon="-8.764873">
        <ele>65.829</ele>
        <time>2019-08-19T12:38:00Z</time>
      </trkpt>
      <trkpt lat="41.378293" lon="-8.765516">
        <ele>58.521</ele>
        <time>2019-08-19T12:38:15Z</time>
      </trkpt>
      <trkpt lat="41.377887" lon="-8.765856">
        <ele>61.808</ele>
        <time>2019-08-19T12:38:34Z</time>
      </trkpt>
      <trkpt lat="41.377394" lon="-8.764673">
        <ele>61.838</ele>
        <time>2019-08-19T12:39:00Z</time>
      </trkpt>
      <trkpt lat="41.376959" lon="-8.764315">
        <ele>62.994</ele>
        <time>2019-08-19T12:39:21Z</time>
      </trkpt>
      <trkpt lat="41.376733" lon="-8.763730">
        <ele>63.145</ele>
        <time>2019-08-19T12:39:35Z</time>
      </trkpt>
      <trkpt lat="41.375800" lon="-8.762840">
        <ele>63.213</ele>
        <time>2019-08-19T12:39:59Z</time>
      </trkpt>
      <trkpt lat="41.374537" lon="-8.762078">
        <ele>61.780</ele>
        <time>2019-08-19T12:40:28Z</time>
      </trkpt>
      <trkpt lat="41.372192" lon="-8.761688">
        <ele>68.466</ele>
        <time>2019-08-19T12:42:07Z</time>
      </trkpt>
      <trkpt lat="41.367921" lon="-8.761481">
        <ele>68.640</ele>
        <time>2019-08-19T12:43:40Z</time>
      </trkpt>
      <trkpt lat="41.367803" lon="-8.761169">
        <ele>63.850</ele>
        <time>2019-08-19T12:43:58Z</time>
      </trkpt>
      <trkpt lat="41.366317" lon="-8.761196">
        <ele>64.289</ele>
        <time>2019-08-19T12:45:48Z</time>
      </trkpt>
      <trkpt lat="41.364496" lon="-8.760426">
        <ele>67.506</ele>
        <time>2019-08-19T12:47:48Z</time>
      </trkpt>
      <trkpt lat="41.364521" lon="-8.760283">
        <ele>66.026</ele>
        <time>2019-08-19T12:49:41Z</time>
      </trkpt>
      <trkpt lat="41.364275" lon="-8.760410">
        <ele>72.208</ele>
        <time>2019-08-19T13:30:53Z</time>
      </trkpt>
      <trkpt lat="41.363359" lon="-8.760124">
        <ele>73.292</ele>
        <time>2019-08-19T13:31:22Z</time>
      </trkpt>
      <trkpt lat="41.362584" lon="-8.759509">
        <ele>70.568</ele>
        <time>2019-08-19T13:31:43Z</time>
      </trkpt>
      <trkpt lat="41.362313" lon="-8.759565">
        <ele>71.179</ele>
        <time>2019-08-19T13:32:00Z</time>
      </trkpt>
      <trkpt lat="41.359429" lon="-8.756438">
        <ele>65.137</ele>
        <time>2019-08-19T13:33:06Z</time>
      </trkpt>
      <trkpt lat="41.355898" lon="-8.754811">
        <ele>70.824</ele>
        <time>2019-08-19T13:34:10Z</time>
      </trkpt>
      <trkpt lat="41.353696" lon="-8.754183">
        <ele>67.370</ele>
        <time>2019-08-19T13:34:40Z</time>
      </trkpt>
      <trkpt lat="41.351442" lon="-8.754064">
        <ele>66.144</ele>
        <time>2019-08-19T13:35:10Z</time>
      </trkpt>
      <trkpt lat="41.348404" lon="-8.753065">
        <ele>68.564</ele>
        <time>2019-08-19T13:35:58Z</time>
      </trkpt>
      <trkpt lat="41.348550" lon="-8.753154">
        <ele>68.574</ele>
        <time>2019-08-19T13:36:27Z</time>
      </trkpt>
      <trkpt lat="41.348296" lon="-8.753635">
        <ele>68.556</ele>
        <time>2019-08-19T13:36:41Z</time>
      </trkpt>
      <trkpt lat="41.346343" lon="-8.753450">
        <ele>67.921</ele>
        <time>2019-08-19T13:37:15Z</time>
      </trkpt>
      <trkpt lat="41.345269" lon="-8.753601">
        <ele>67.708</ele>
        <time>2019-08-19T13:37:34Z</time>
      </trkpt>
      <trkpt lat="41.345772" lon="-8.753292">
        <ele>70.651</ele>
        <time>2019-08-19T13:38:01Z</time>
      </trkpt>
      <trkpt lat="41.344040" lon="-8.752491">
        <ele>67.567</ele>
        <time>2019-08-19T13:38:40Z</time>
      </trkpt>
      <trkpt lat="41.342881" lon="-8.751518">
        <ele>66.118</ele>
        <time>2019-08-19T13:39:05Z</time>
      </trkpt>
      <trkpt lat="41.341959" lon="-8.751549">
        <ele>65.966</ele>
        <time>2019-08-19T13:39:29Z</time>
      </trkpt>
      <trkpt lat="41.341723" lon="-8.751255">
        <ele>66.913</ele>
        <time>2019-08-19T13:39:44Z</time>
      </trkpt>
      <trkpt lat="41.341676" lon="-8.750886">
        <ele>66.289</ele>
        <time>2019-08-19T13:40:42Z</time>
      </trkpt>
      <trkpt lat="41.341170" lon="-8.750433">
        <ele>64.853</ele>
        <time>2019-08-19T13:41:00Z</time>
      </trkpt>
      <trkpt lat="41.342493" lon="-8.746687">
        <ele>60.343</ele>
        <time>2019-08-19T13:43:52Z</time>
      </trkpt>
      <trkpt lat="41.342931" lon="-8.746021">
        <ele>60.773</ele>
        <time>2019-08-19T13:44:04Z</time>
      </trkpt>
      <trkpt lat="41.344257" lon="-8.745262">
        <ele>66.185</ele>
        <time>2019-08-19T13:44:34Z</time>
      </trkpt>
      <trkpt lat="41.347266" lon="-8.744955">
        <ele>68.813</ele>
        <time>2019-08-19T13:46:46Z</time>
      </trkpt>
      <trkpt lat="41.348297" lon="-8.744203">
        <ele>68.408</ele>
        <time>2019-08-19T13:47:38Z</time>
      </trkpt>
      <trkpt lat="41.348681" lon="-8.744162">
        <ele>66.761</ele>
        <time>2019-08-19T13:47:50Z</time>
      </trkpt>
      <trkpt lat="41.348882" lon="-8.743809">
        <ele>62.927</ele>
        <time>2019-08-19T13:48:04Z</time>
      </trkpt>
      <trkpt lat="41.349457" lon="-8.743506">
        <ele>62.718</ele>
        <time>2019-08-19T13:48:43Z</time>
      </trkpt>
      <trkpt lat="41.350371" lon="-8.743686">
        <ele>70.546</ele>
        <time>2019-08-19T13:49:43Z</time>
      </trkpt>
      <trkpt lat="41.350542" lon="-8.743489">
        <ele>72.993</ele>
        <time>2019-08-19T13:49:48Z</time>
      </trkpt>
      <trkpt lat="41.351084" lon="-8.741489">
        <ele>69.469</ele>
        <time>2019-08-19T13:50:29Z</time>
      </trkpt>
      <trkpt lat="41.351718" lon="-8.741356">
        <ele>66.833</ele>
        <time>2019-08-19T13:50:54Z</time>
      </trkpt>
      <trkpt lat="41.351814" lon="-8.740816">
        <ele>68.833</ele>
        <time>2019-08-19T13:51:46Z</time>
      </trkpt>
      <trkpt lat="41.351537" lon="-8.740743">
        <ele>67.983</ele>
        <time>2019-08-19T13:52:18Z</time>
      </trkpt>
      <trkpt lat="41.351645" lon="-8.740608">
        <ele>66.725</ele>
        <time>2019-08-19T13:53:16Z</time>
      </trkpt>
      <trkpt lat="41.351830" lon="-8.740731">
        <ele>66.317</ele>
        <time>2019-08-19T13:53:29Z</time>
      </trkpt>
      <trkpt lat="41.351975" lon="-8.740220">
        <ele>67.408</ele>
        <time>2019-08-19T13:53:50Z</time>
      </trkpt>
      <trkpt lat="41.351975" lon="-8.740460">
        <ele>67.992</ele>
        <time>2019-08-19T13:54:05Z</time>
      </trkpt>
      <trkpt lat="41.353212" lon="-8.740800">
        <ele>79.338</ele>
        <time>2019-08-19T13:54:49Z</time>
      </trkpt>
      <trkpt lat="41.353174" lon="-8.740596">
        <ele>76.639</ele>
        <time>2019-08-19T13:54:56Z</time>
      </trkpt>
      <trkpt lat="41.352406" lon="-8.739976">
        <ele>72.887</ele>
        <time>2019-08-19T13:55:18Z</time>
      </trkpt>
      <trkpt lat="41.350277" lon="-8.738990">
        <ele>70.134</ele>
        <time>2019-08-19T13:57:15Z</time>
      </trkpt>
      <trkpt lat="41.350399" lon="-8.738602">
        <ele>74.630</ele>
        <time>2019-08-19T13:57:36Z</time>
      </trkpt>
      <trkpt lat="41.349629" lon="-8.737810">
        <ele>81.654</ele>
        <time>2019-08-19T13:58:34Z</time>
      </trkpt>
      <trkpt lat="41.348856" lon="-8.737517">
        <ele>82.364</ele>
        <time>2019-08-19T13:59:01Z</time>
      </trkpt>
      <trkpt lat="41.347481" lon="-8.737397">
        <ele>84.947</ele>
        <time>2019-08-19T13:59:41Z</time>
      </trkpt>
      <trkpt lat="41.346887" lon="-8.737109">
        <ele>93.129</ele>
        <time>2019-08-19T14:00:05Z</time>
      </trkpt>
      <trkpt lat="41.344739" lon="-8.735372">
        <ele>90.321</ele>
        <time>2019-08-19T14:01:20Z</time>
      </trkpt>
      <trkpt lat="41.344637" lon="-8.736225">
        <ele>87.808</ele>
        <time>2019-08-19T14:02:22Z</time>
      </trkpt>
      <trkpt lat="41.343552" lon="-8.735855">
        <ele>87.178</ele>
        <time>2019-08-19T14:03:40Z</time>
      </trkpt>
      <trkpt lat="41.343512" lon="-8.734994">
        <ele>85.794</ele>
        <time>2019-08-19T14:04:06Z</time>
      </trkpt>
      <trkpt lat="41.342132" lon="-8.734428">
        <ele>84.275</ele>
        <time>2019-08-19T14:04:52Z</time>
      </trkpt>
      <trkpt lat="41.341379" lon="-8.734451">
        <ele>79.953</ele>
        <time>2019-08-19T14:05:31Z</time>
      </trkpt>
      <trkpt lat="41.339381" lon="-8.734042">
        <ele>70.940</ele>
        <time>2019-08-19T14:06:06Z</time>
      </trkpt>
      <trkpt lat="41.337974" lon="-8.733986">
        <ele>66.336</ele>
        <time>2019-08-19T14:06:24Z</time>
      </trkpt>
      <trkpt lat="41.336672" lon="-8.733414">
        <ele>66.950</ele>
        <time>2019-08-19T14:06:47Z</time>
      </trkpt>
      <trkpt lat="41.335037" lon="-8.732287">
        <ele>77.110</ele>
        <time>2019-08-19T14:07:56Z</time>
      </trkpt>
      <trkpt lat="41.332541" lon="-8.731152">
        <ele>85.052</ele>
        <time>2019-08-19T14:09:15Z</time>
      </trkpt>
      <trkpt lat="41.331651" lon="-8.734382">
        <ele>72.753</ele>
        <time>2019-08-19T14:10:05Z</time>
      </trkpt>
      <trkpt lat="41.331677" lon="-8.733961">
        <ele>70.008</ele>
        <time>2019-08-19T14:10:20Z</time>
      </trkpt>
      <trkpt lat="41.327900" lon="-8.733664">
        <ele>72.608</ele>
        <time>2019-08-19T14:12:02Z</time>
      </trkpt>
      <trkpt lat="41.326830" lon="-8.734083">
        <ele>72.539</ele>
        <time>2019-08-19T14:12:27Z</time>
      </trkpt>
      <trkpt lat="41.325641" lon="-8.733853">
        <ele>68.035</ele>
        <time>2019-08-19T14:13:11Z</time>
      </trkpt>
      <trkpt lat="41.325389" lon="-8.734936">
        <ele>65.366</ele>
        <time>2019-08-19T14:13:38Z</time>
      </trkpt>
      <trkpt lat="41.325570" lon="-8.733948">
        <ele>63.864</ele>
        <time>2019-08-19T14:19:00Z</time>
      </trkpt>
      <trkpt lat="41.324454" lon="-8.733188">
        <ele>65.891</ele>
        <time>2019-08-19T14:19:34Z</time>
      </trkpt>
      <trkpt lat="41.322528" lon="-8.732884">
        <ele>66.897</ele>
        <time>2019-08-19T14:22:14Z</time>
      </trkpt>
      <trkpt lat="41.322421" lon="-8.733113">
        <ele>66.841</ele>
        <time>2019-08-19T14:22:22Z</time>
      </trkpt>
      <trkpt lat="41.322484" lon="-8.733831">
        <ele>66.351</ele>
        <time>2019-08-19T14:22:38Z</time>
      </trkpt>
      <trkpt lat="41.322273" lon="-8.734143">
        <ele>66.589</ele>
        <time>2019-08-19T14:22:48Z</time>
      </trkpt>
      <trkpt lat="41.321311" lon="-8.734245">
        <ele>68.406</ele>
        <time>2019-08-19T14:23:10Z</time>
      </trkpt>
      <trkpt lat="41.320881" lon="-8.734524">
        <ele>67.226</ele>
        <time>2019-08-19T14:23:20Z</time>
      </trkpt>
      <trkpt lat="41.320090" lon="-8.734381">
        <ele>65.808</ele>
        <time>2019-08-19T14:23:35Z</time>
      </trkpt>
      <trkpt lat="41.319083" lon="-8.735150">
        <ele>65.542</ele>
        <time>2019-08-19T14:23:59Z</time>
      </trkpt>
      <trkpt lat="41.317984" lon="-8.735499">
        <ele>65.098</ele>
        <time>2019-08-19T14:24:22Z</time>
      </trkpt>
      <trkpt lat="41.317686" lon="-8.735427">
        <ele>65.219</ele>
        <time>2019-08-19T14:24:30Z</time>
      </trkpt>
      <trkpt lat="41.317594" lon="-8.734903">
        <ele>64.487</ele>
        <time>2019-08-19T14:24:42Z</time>
      </trkpt>
      <trkpt lat="41.316160" lon="-8.733536">
        <ele>71.894</ele>
        <time>2019-08-19T14:25:28Z</time>
      </trkpt>
      <trkpt lat="41.315511" lon="-8.733258">
        <ele>74.120</ele>
        <time>2019-08-19T14:25:50Z</time>
      </trkpt>
      <trkpt lat="41.315347" lon="-8.733426">
        <ele>73.894</ele>
        <time>2019-08-19T14:25:56Z</time>
      </trkpt>
      <trkpt lat="41.315012" lon="-8.735859">
        <ele>68.654</ele>
        <time>2019-08-19T14:26:32Z</time>
      </trkpt>
      <trkpt lat="41.305540" lon="-8.736483">
        <ele>69.354</ele>
        <time>2019-08-19T14:29:42Z</time>
      </trkpt>
      <trkpt lat="41.305088" lon="-8.737881">
        <ele>66.356</ele>
        <time>2019-08-19T14:30:07Z</time>
      </trkpt>
      <trkpt lat="41.304581" lon="-8.737590">
        <ele>67.211</ele>
        <time>2019-08-19T14:30:21Z</time>
      </trkpt>
      <trkpt lat="41.302831" lon="-8.735831">
        <ele>70.708</ele>
        <time>2019-08-19T14:31:08Z</time>
      </trkpt>
      <trkpt lat="41.300952" lon="-8.735024">
        <ele>78.419</ele>
        <time>2019-08-19T14:31:52Z</time>
      </trkpt>
      <trkpt lat="41.298027" lon="-8.734326">
        <ele>76.095</ele>
        <time>2019-08-19T14:32:49Z</time>
      </trkpt>
      <trkpt lat="41.296198" lon="-8.733555">
        <ele>82.636</ele>
        <time>2019-08-19T14:33:34Z</time>
      </trkpt>
      <trkpt lat="41.295536" lon="-8.734088">
        <ele>76.334</ele>
        <time>2019-08-19T14:33:55Z</time>
      </trkpt>
      <trkpt lat="41.294508" lon="-8.734433">
        <ele>74.191</ele>
        <time>2019-08-19T14:34:17Z</time>
      </trkpt>
      <trkpt lat="41.293965" lon="-8.734353">
        <ele>73.597</ele>
        <time>2019-08-19T14:34:30Z</time>
      </trkpt>
      <trkpt lat="41.292440" lon="-8.733589">
        <ele>65.381</ele>
        <time>2019-08-19T14:35:27Z</time>
      </trkpt>
      <trkpt lat="41.291522" lon="-8.732848">
        <ele>70.811</ele>
        <time>2019-08-19T14:36:04Z</time>
      </trkpt>
      <trkpt lat="41.290040" lon="-8.732706">
        <ele>71.289</ele>
        <time>2019-08-19T14:37:42Z</time>
      </trkpt>
      <trkpt lat="41.289385" lon="-8.732421">
        <ele>72.806</ele>
        <time>2019-08-19T14:38:31Z</time>
      </trkpt>
      <trkpt lat="41.289081" lon="-8.732024">
        <ele>70.226</ele>
        <time>2019-08-19T14:38:50Z</time>
      </trkpt>
      <trkpt lat="41.288195" lon="-8.731929">
        <ele>70.008</ele>
        <time>2019-08-19T14:39:31Z</time>
      </trkpt>
      <trkpt lat="41.287636" lon="-8.731625">
        <ele>67.122</ele>
        <time>2019-08-19T14:39:45Z</time>
      </trkpt>
      <trkpt lat="41.287368" lon="-8.731754">
        <ele>66.358</ele>
        <time>2019-08-19T14:40:23Z</time>
      </trkpt>
      <trkpt lat="41.284878" lon="-8.731354">
        <ele>68.059</ele>
        <time>2019-08-19T14:41:28Z</time>
      </trkpt>
      <trkpt lat="41.283319" lon="-8.730743">
        <ele>67.047</ele>
        <time>2019-08-19T14:42:24Z</time>
      </trkpt>
      <trkpt lat="41.282163" lon="-8.731178">
        <ele>66.344</ele>
        <time>2019-08-19T14:42:57Z</time>
      </trkpt>
      <trkpt lat="41.281494" lon="-8.730746">
        <ele>66.220</ele>
        <time>2019-08-19T14:45:01Z</time>
      </trkpt>
      <trkpt lat="41.280846" lon="-8.730022">
        <ele>65.354</ele>
        <time>2019-08-19T14:45:34Z</time>
      </trkpt>
      <trkpt lat="41.280720" lon="-8.729574">
        <ele>69.464</ele>
        <time>2019-08-19T14:47:02Z</time>
      </trkpt>
      <trkpt lat="41.280411" lon="-8.729491">
        <ele>74.628</ele>
        <time>2019-08-19T14:47:32Z</time>
      </trkpt>
      <trkpt lat="41.280296" lon="-8.729690">
        <ele>77.389</ele>
        <time>2019-08-19T14:48:18Z</time>
      </trkpt>
      <trkpt lat="41.280399" lon="-8.729524">
        <ele>77.117</ele>
        <time>2019-08-19T14:49:32Z</time>
      </trkpt>
      <trkpt lat="41.279174" lon="-8.728608">
        <ele>68.608</ele>
        <time>2019-08-19T14:51:32Z</time>
      </trkpt>
      <trkpt lat="41.277972" lon="-8.728277">
        <ele>65.896</ele>
        <time>2019-08-19T14:52:12Z</time>
      </trkpt>
      <trkpt lat="41.277270" lon="-8.728478">
        <ele>65.042</ele>
        <time>2019-08-19T14:52:29Z</time>
      </trkpt>
      <trkpt lat="41.276028" lon="-8.728455">
        <ele>64.093</ele>
        <time>2019-08-19T14:52:54Z</time>
      </trkpt>
      <trkpt lat="41.275014" lon="-8.727649">
        <ele>71.361</ele>
        <time>2019-08-19T14:53:33Z</time>
      </trkpt>
      <trkpt lat="41.271881" lon="-8.727300">
        <ele>65.458</ele>
        <time>2019-08-19T14:54:46Z</time>
      </trkpt>
      <trkpt lat="41.270079" lon="-8.725985">
        <ele>61.774</ele>
        <time>2019-08-19T14:55:35Z</time>
      </trkpt>
      <trkpt lat="41.268773" lon="-8.726089">
        <ele>67.268</ele>
        <time>2019-08-19T14:56:11Z</time>
      </trkpt>
      <trkpt lat="41.268604" lon="-8.726344">
        <ele>68.118</ele>
        <time>2019-08-19T14:56:21Z</time>
      </trkpt>
      <trkpt lat="41.266630" lon="-8.726759">
        <ele>68.125</ele>
        <time>2019-08-19T14:57:42Z</time>
      </trkpt>
      <trkpt lat="41.265315" lon="-8.726603">
        <ele>69.926</ele>
        <time>2019-08-19T14:58:28Z</time>
      </trkpt>
      <trkpt lat="41.265022" lon="-8.727502">
        <ele>66.208</ele>
        <time>2019-08-19T14:59:06Z</time>
      </trkpt>
      <trkpt lat="41.264298" lon="-8.726847">
        <ele>29.608</ele>
        <time>2019-08-19T15:00:20Z</time>
      </trkpt>
      <trkpt lat="41.262126" lon="-8.725844">
        <ele>64.076</ele>
        <time>2019-08-19T15:04:17Z</time>
      </trkpt>
      <trkpt lat="41.262138" lon="-8.725444">
        <ele>64.412</ele>
        <time>2019-08-19T15:04:32Z</time>
      </trkpt>
      <trkpt lat="41.261208" lon="-8.724889">
        <ele>67.453</ele>
        <time>2019-08-19T15:05:13Z</time>
      </trkpt>
      <trkpt lat="41.261028" lon="-8.724423">
        <ele>65.361</ele>
        <time>2019-08-19T15:07:20Z</time>
      </trkpt>
      <trkpt lat="41.258418" lon="-8.723324">
        <ele>62.058</ele>
        <time>2019-08-19T15:08:17Z</time>
      </trkpt>
      <trkpt lat="41.257598" lon="-8.723381">
        <ele>62.384</ele>
        <time>2019-08-19T15:08:32Z</time>
      </trkpt>
      <trkpt lat="41.256229" lon="-8.722835">
        <ele>67.638</ele>
        <time>2019-08-19T15:09:11Z</time>
      </trkpt>
      <trkpt lat="41.253211" lon="-8.722953">
        <ele>63.328</ele>
        <time>2019-08-19T15:10:09Z</time>
      </trkpt>
      <trkpt lat="41.249607" lon="-8.723720">
        <ele>68.513</ele>
        <time>2019-08-19T15:11:31Z</time>
      </trkpt>
      <trkpt lat="41.248869" lon="-8.724110">
        <ele>67.243</ele>
        <time>2019-08-19T15:11:53Z</time>
      </trkpt>
      <trkpt lat="41.248574" lon="-8.724759">
        <ele>65.807</ele>
        <time>2019-08-19T15:12:17Z</time>
      </trkpt>
      <trkpt lat="41.245115" lon="-8.724889">
        <ele>67.008</ele>
        <time>2019-08-19T15:13:29Z</time>
      </trkpt>
      <trkpt lat="41.245007" lon="-8.725022">
        <ele>67.015</ele>
        <time>2019-08-19T15:13:36Z</time>
      </trkpt>
      <trkpt lat="41.243744" lon="-8.724841">
        <ele>65.241</ele>
        <time>2019-08-19T15:14:09Z</time>
      </trkpt>
      <trkpt lat="41.243599" lon="-8.725859">
        <ele>65.762</ele>
        <time>2019-08-19T15:14:31Z</time>
      </trkpt>
      <trkpt lat="41.243063" lon="-8.725775">
        <ele>64.180</ele>
        <time>2019-08-19T15:14:48Z</time>
      </trkpt>
      <trkpt lat="41.242967" lon="-8.726321">
        <ele>63.977</ele>
        <time>2019-08-19T15:15:01Z</time>
      </trkpt>
      <trkpt lat="41.242715" lon="-8.726516">
        <ele>64.713</ele>
        <time>2019-08-19T15:15:09Z</time>
      </trkpt>
      <trkpt lat="41.240674" lon="-8.725713">
        <ele>67.477</ele>
        <time>2019-08-19T15:15:56Z</time>
      </trkpt>
      <trkpt lat="41.240043" lon="-8.725679">
        <ele>68.157</ele>
        <time>2019-08-19T15:16:24Z</time>
      </trkpt>
      <trkpt lat="41.240098" lon="-8.725345">
        <ele>64.862</ele>
        <time>2019-08-19T15:16:41Z</time>
      </trkpt>
      <trkpt lat="41.239512" lon="-8.725113">
        <ele>66.583</ele>
        <time>2019-08-19T15:17:04Z</time>
      </trkpt>
      <trkpt lat="41.239459" lon="-8.724625">
        <ele>65.311</ele>
        <time>2019-08-19T15:17:29Z</time>
      </trkpt>
      <trkpt lat="41.238992" lon="-8.724104">
        <ele>63.508</ele>
        <time>2019-08-19T15:17:41Z</time>
      </trkpt>
      <trkpt lat="41.237834" lon="-8.723396">
        <ele>64.150</ele>
        <time>2019-08-19T15:18:25Z</time>
      </trkpt>
      <trkpt lat="41.236318" lon="-8.723422">
        <ele>64.286</ele>
        <time>2019-08-19T15:19:13Z</time>
      </trkpt>
      <trkpt lat="41.235308" lon="-8.723085">
        <ele>62.337</ele>
        <time>2019-08-19T15:21:25Z</time>
      </trkpt>
      <trkpt lat="41.234706" lon="-8.722636">
        <ele>64.355</ele>
        <time>2019-08-19T15:21:44Z</time>
      </trkpt>
      <trkpt lat="41.234530" lon="-8.722054">
        <ele>67.152</ele>
        <time>2019-08-19T15:21:58Z</time>
      </trkpt>
      <trkpt lat="41.234205" lon="-8.722924">
        <ele>67.528</ele>
        <time>2019-08-19T15:22:24Z</time>
      </trkpt>
      <trkpt lat="41.233425" lon="-8.721771">
        <ele>64.692</ele>
        <time>2019-08-19T15:22:46Z</time>
      </trkpt>
      <trkpt lat="41.232126" lon="-8.721553">
        <ele>66.612</ele>
        <time>2019-08-19T15:23:26Z</time>
      </trkpt>
      <trkpt lat="41.231276" lon="-8.721043">
        <ele>65.519</ele>
        <time>2019-08-19T15:25:42Z</time>
      </trkpt>
      <trkpt lat="41.231269" lon="-8.720720">
        <ele>65.109</ele>
        <time>2019-08-19T15:25:56Z</time>
      </trkpt>
      <trkpt lat="41.230655" lon="-8.720783">
        <ele>65.019</ele>
        <time>2019-08-19T15:26:25Z</time>
      </trkpt>
      <trkpt lat="41.229332" lon="-8.720335">
        <ele>63.608</ele>
        <time>2019-08-19T15:27:05Z</time>
      </trkpt>
      <trkpt lat="41.228411" lon="-8.720737">
        <ele>63.565</ele>
        <time>2019-08-19T15:27:26Z</time>
      </trkpt>
      <trkpt lat="41.227844" lon="-8.720609">
        <ele>62.341</ele>
        <time>2019-08-19T15:27:40Z</time>
      </trkpt>
      <trkpt lat="41.227522" lon="-8.719905">
        <ele>63.092</ele>
        <time>2019-08-19T15:27:56Z</time>
      </trkpt>
      <trkpt lat="41.226562" lon="-8.718666">
        <ele>66.850</ele>
        <time>2019-08-19T15:28:27Z</time>
      </trkpt>
      <trkpt lat="41.226547" lon="-8.717288">
        <ele>66.037</ele>
        <time>2019-08-19T15:29:33Z</time>
      </trkpt>
      <trkpt lat="41.226393" lon="-8.716947">
        <ele>66.263</ele>
        <time>2019-08-19T15:29:39Z</time>
      </trkpt>
      <trkpt lat="41.224868" lon="-8.716270">
        <ele>64.587</ele>
        <time>2019-08-19T15:30:12Z</time>
      </trkpt>
      <trkpt lat="41.224673" lon="-8.716668">
        <ele>65.757</ele>
        <time>2019-08-19T15:30:32Z</time>
      </trkpt>
      <trkpt lat="41.222144" lon="-8.715525">
        <ele>64.845</ele>
        <time>2019-08-19T15:31:29Z</time>
      </trkpt>
      <trkpt lat="41.221171" lon="-8.714660">
        <ele>65.547</ele>
        <time>2019-08-19T15:31:58Z</time>
      </trkpt>
      <trkpt lat="41.220327" lon="-8.714431">
        <ele>65.311</ele>
        <time>2019-08-19T15:32:34Z</time>
      </trkpt>
      <trkpt lat="41.220225" lon="-8.714715">
        <ele>64.308</ele>
        <time>2019-08-19T15:32:51Z</time>
      </trkpt>
      <trkpt lat="41.218961" lon="-8.714707">
        <ele>65.078</ele>
        <time>2019-08-19T15:33:28Z</time>
      </trkpt>
      <trkpt lat="41.218277" lon="-8.715008">
        <ele>64.664</ele>
        <time>2019-08-19T15:33:45Z</time>
      </trkpt>
      <trkpt lat="41.217742" lon="-8.714436">
        <ele>65.075</ele>
        <time>2019-08-19T15:34:06Z</time>
      </trkpt>
      <trkpt lat="41.218020" lon="-8.713490">
        <ele>69.253</ele>
        <time>2019-08-19T15:34:41Z</time>
      </trkpt>
      <trkpt lat="41.216698" lon="-8.715015">
        <ele>70.860</ele>
        <time>2019-08-19T15:35:25Z</time>
      </trkpt>
      <trkpt lat="41.216186" lon="-8.715219">
        <ele>71.446</ele>
        <time>2019-08-19T15:35:40Z</time>
      </trkpt>
      <trkpt lat="41.213973" lon="-8.714667">
        <ele>73.260</ele>
        <time>2019-08-19T15:36:30Z</time>
      </trkpt>
      <trkpt lat="41.211946" lon="-8.714543">
        <ele>73.180</ele>
        <time>2019-08-19T15:37:09Z</time>
      </trkpt>
      <trkpt lat="41.210167" lon="-8.714756">
        <ele>71.234</ele>
        <time>2019-08-19T15:37:52Z</time>
      </trkpt>
      <trkpt lat="41.207292" lon="-8.715761">
        <ele>65.655</ele>
        <time>2019-08-19T15:38:55Z</time>
      </trkpt>
      <trkpt lat="41.207671" lon="-8.715589">
        <ele>66.910</ele>
        <time>2019-08-19T15:39:24Z</time>
      </trkpt>
      <trkpt lat="41.207301" lon="-8.715543">
        <ele>67.608</ele>
        <time>2019-08-19T15:39:41Z</time>
      </trkpt>
      <trkpt lat="41.207189" lon="-8.715313">
        <ele>68.967</ele>
        <time>2019-08-19T15:39:51Z</time>
      </trkpt>
      <trkpt lat="41.204747" lon="-8.714849">
        <ele>67.273</ele>
        <time>2019-08-19T15:41:07Z</time>
      </trkpt>
      <trkpt lat="41.204705" lon="-8.715616">
        <ele>64.284</ele>
        <time>2019-08-19T15:42:06Z</time>
      </trkpt>
      <trkpt lat="41.204473" lon="-8.715343">
        <ele>20.292</ele>
        <time>2019-08-19T15:53:52Z</time>
      </trkpt>
      <trkpt lat="41.204557" lon="-8.715481">
        <ele>51.869</ele>
        <time>2019-08-19T15:53:58Z</time>
      </trkpt>
      <trkpt lat="41.204666" lon="-8.714920">
        <ele>65.765</ele>
        <time>2019-08-19T15:54:32Z</time>
      </trkpt>
      <trkpt lat="41.204368" lon="-8.714518">
        <ele>66.139</ele>
        <time>2019-08-19T15:55:18Z</time>
      </trkpt>
      <trkpt lat="41.203077" lon="-8.714049">
        <ele>64.579</ele>
        <time>2019-08-19T15:56:03Z</time>
      </trkpt>
      <trkpt lat="41.203021" lon="-8.713848">
        <ele>64.719</ele>
        <time>2019-08-19T15:56:12Z</time>
      </trkpt>
      <trkpt lat="41.192833" lon="-8.706854">
        <ele>64.209</ele>
        <time>2019-08-19T16:00:21Z</time>
      </trkpt>
      <trkpt lat="41.189887" lon="-8.705032">
        <ele>64.619</ele>
        <time>2019-08-19T16:01:33Z</time>
      </trkpt>
      <trkpt lat="41.189991" lon="-8.704857">
        <ele>65.008</ele>
        <time>2019-08-19T16:01:44Z</time>
      </trkpt>
      <trkpt lat="41.190368" lon="-8.704887">
        <ele>65.035</ele>
        <time>2019-08-19T16:01:56Z</time>
      </trkpt>
      <trkpt lat="41.190707" lon="-8.697362">
        <ele>79.231</ele>
        <time>2019-08-19T16:04:33Z</time>
      </trkpt>
      <trkpt lat="41.190963" lon="-8.696632">
        <ele>73.812</ele>
        <time>2019-08-19T16:08:01Z</time>
      </trkpt>
      <trkpt lat="41.189328" lon="-8.695029">
        <ele>71.030</ele>
        <time>2019-08-19T16:08:49Z</time>
      </trkpt>
      <trkpt lat="41.187269" lon="-8.692402">
        <ele>72.377</ele>
        <time>2019-08-19T16:09:40Z</time>
      </trkpt>
      <trkpt lat="41.186891" lon="-8.692353">
        <ele>69.043</ele>
        <time>2019-08-19T16:10:00Z</time>
      </trkpt>
      <trkpt lat="41.187498" lon="-8.693104">
        <ele>69.467</ele>
        <time>2019-08-19T16:11:37Z</time>
      </trkpt>
      <trkpt lat="41.187062" lon="-8.693747">
        <ele>68.337</ele>
        <time>2019-08-19T16:12:06Z</time>
      </trkpt>
      <trkpt lat="41.186775" lon="-8.694810">
        <ele>64.578</ele>
        <time>2019-08-19T16:12:32Z</time>
      </trkpt>
      <trkpt lat="41.186037" lon="-8.695998">
        <ele>64.533</ele>
        <time>2019-08-19T16:13:20Z</time>
      </trkpt>
      <trkpt lat="41.185489" lon="-8.695978">
        <ele>65.126</ele>
        <time>2019-08-19T16:14:04Z</time>
      </trkpt>
      <trkpt lat="41.185014" lon="-8.695342">
        <ele>65.308</ele>
        <time>2019-08-19T16:15:10Z</time>
      </trkpt>
      <trkpt lat="41.184563" lon="-8.696257">
        <ele>73.751</ele>
        <time>2019-08-19T16:17:12Z</time>
      </trkpt>
      <trkpt lat="41.182930" lon="-8.694771">
        <ele>66.167</ele>
        <time>2019-08-19T16:19:17Z</time>
      </trkpt>
      <trkpt lat="41.183033" lon="-8.694290">
        <ele>67.188</ele>
        <time>2019-08-19T16:20:53Z</time>
      </trkpt>
      <trkpt lat="41.182844" lon="-8.694578">
        <ele>69.226</ele>
        <time>2019-08-19T16:21:07Z</time>
      </trkpt>
      <trkpt lat="41.180587" lon="-8.692665">
        <ele>66.473</ele>
        <time>2019-08-19T16:25:12Z</time>
      </trkpt>
      <trkpt lat="41.180085" lon="-8.693494">
        <ele>70.729</ele>
        <time>2019-08-19T16:25:51Z</time>
      </trkpt>
      <trkpt lat="41.179698" lon="-8.693718">
        <ele>65.353</ele>
        <time>2019-08-19T16:26:12Z</time>
      </trkpt>
      <trkpt lat="41.179336" lon="-8.693520">
        <ele>64.423</ele>
        <time>2019-08-19T16:26:37Z</time>
      </trkpt>
      <trkpt lat="41.179465" lon="-8.692928">
        <ele>64.131</ele>
        <time>2019-08-19T16:27:00Z</time>
      </trkpt>
      <trkpt lat="41.179666" lon="-8.693052">
        <ele>64.361</ele>
        <time>2019-08-19T16:28:26Z</time>
      </trkpt>
      <trkpt lat="41.179426" lon="-8.693221">
        <ele>63.107</ele>
        <time>2019-08-19T16:29:18Z</time>
      </trkpt>
      <trkpt lat="41.179486" lon="-8.693043">
        <ele>60.908</ele>
        <time>2019-08-19T16:31:35Z</time>
      </trkpt>
      <trkpt lat="41.179409" lon="-8.693473">
        <ele>65.357</ele>
        <time>2019-08-19T17:12:52Z</time>
      </trkpt>
      <trkpt lat="41.179212" lon="-8.693511">
        <ele>66.363</ele>
        <time>2019-08-19T17:13:03Z</time>
      </trkpt>
      <trkpt lat="41.174049" lon="-8.689414">
        <ele>64.294</ele>
        <time>2019-08-19T17:14:53Z</time>
      </trkpt>
      <trkpt lat="41.173301" lon="-8.689343">
        <ele>65.492</ele>
        <time>2019-08-19T17:15:13Z</time>
      </trkpt>
      <trkpt lat="41.172876" lon="-8.689003">
        <ele>66.019</ele>
        <time>2019-08-19T17:15:47Z</time>
      </trkpt>
      <trkpt lat="41.172965" lon="-8.689243">
        <ele>65.655</ele>
        <time>2019-08-19T17:15:57Z</time>
      </trkpt>
      <trkpt lat="41.172231" lon="-8.689006">
        <ele>64.179</ele>
        <time>2019-08-19T17:16:13Z</time>
      </trkpt>
      <trkpt lat="41.170500" lon="-8.687129">
        <ele>63.369</ele>
        <time>2019-08-19T17:17:10Z</time>
      </trkpt>
      <trkpt lat="41.169860" lon="-8.687313">
        <ele>64.167</ele>
        <time>2019-08-19T17:17:25Z</time>
      </trkpt>
      <trkpt lat="41.169750" lon="-8.687758">
        <ele>63.581</ele>
        <time>2019-08-19T17:17:40Z</time>
      </trkpt>
      <trkpt lat="41.169189" lon="-8.687743">
        <ele>64.219</ele>
        <time>2019-08-19T17:18:15Z</time>
      </trkpt>
      <trkpt lat="41.168500" lon="-8.689347">
        <ele>64.708</ele>
        <time>2019-08-19T17:18:57Z</time>
      </trkpt>
      <trkpt lat="41.167936" lon="-8.689574">
        <ele>64.670</ele>
        <time>2019-08-19T17:19:12Z</time>
      </trkpt>
      <trkpt lat="41.167336" lon="-8.689246">
        <ele>64.576</ele>
        <time>2019-08-19T17:19:27Z</time>
      </trkpt>
      <trkpt lat="41.167104" lon="-8.688308">
        <ele>66.337</ele>
        <time>2019-08-19T17:19:54Z</time>
      </trkpt>
      <trkpt lat="41.159336" lon="-8.683827">
        <ele>70.075</ele>
        <time>2019-08-19T17:22:27Z</time>
      </trkpt>
      <trkpt lat="41.153635" lon="-8.679040">
        <ele>71.242</ele>
        <time>2019-08-19T17:24:07Z</time>
      </trkpt>
      <trkpt lat="41.151240" lon="-8.677693">
        <ele>66.778</ele>
        <time>2019-08-19T17:24:51Z</time>
      </trkpt>
      <trkpt lat="41.150277" lon="-8.676509">
        <ele>65.712</ele>
        <time>2019-08-19T17:25:12Z</time>
      </trkpt>
      <trkpt lat="41.148852" lon="-8.675570">
        <ele>68.262</ele>
        <time>2019-08-19T17:25:41Z</time>
      </trkpt>
      <trkpt lat="41.148037" lon="-8.674712">
        <ele>61.986</ele>
        <time>2019-08-19T17:26:06Z</time>
      </trkpt>
      <trkpt lat="41.147605" lon="-8.673175">
        <ele>59.460</ele>
        <time>2019-08-19T17:26:30Z</time>
      </trkpt>
      <trkpt lat="41.147338" lon="-8.666739">
        <ele>60.426</ele>
        <time>2019-08-19T17:28:45Z</time>
      </trkpt>
      <trkpt lat="41.147645" lon="-8.666004">
        <ele>61.608</ele>
        <time>2019-08-19T17:29:02Z</time>
      </trkpt>
      <trkpt lat="41.147567" lon="-8.665916">
        <ele>61.252</ele>
        <time>2019-08-19T17:29:58Z</time>
      </trkpt>
      <trkpt lat="41.147859" lon="-8.665462">
        <ele>62.378</ele>
        <time>2019-08-19T17:30:18Z</time>
      </trkpt>
      <trkpt lat="41.148026" lon="-8.664475">
        <ele>63.669</ele>
        <time>2019-08-19T17:30:53Z</time>
      </trkpt>
      <trkpt lat="41.147144" lon="-8.662494">
        <ele>59.317</ele>
        <time>2019-08-19T17:31:25Z</time>
      </trkpt>
      <trkpt lat="41.146654" lon="-8.658172">
        <ele>57.824</ele>
        <time>2019-08-19T17:32:27Z</time>
      </trkpt>
      <trkpt lat="41.148219" lon="-8.652985">
        <ele>58.210</ele>
        <time>2019-08-19T17:34:05Z</time>
      </trkpt>
      <trkpt lat="41.147821" lon="-8.649929">
        <ele>60.484</ele>
        <time>2019-08-19T17:34:55Z</time>
      </trkpt>
      <trkpt lat="41.148411" lon="-8.647040">
        <ele>63.374</ele>
        <time>2019-08-19T17:36:02Z</time>
      </trkpt>
      <trkpt lat="41.148018" lon="-8.642860">
        <ele>63.936</ele>
        <time>2019-08-19T17:37:05Z</time>
      </trkpt>
      <trkpt lat="41.148438" lon="-8.640029">
        <ele>60.417</ele>
        <time>2019-08-19T17:38:28Z</time>
      </trkpt>
      <trkpt lat="41.148310" lon="-8.637184">
        <ele>58.618</ele>
        <time>2019-08-19T17:39:09Z</time>
      </trkpt>
      <trkpt lat="41.148018" lon="-8.635625">
        <ele>61.308</ele>
        <time>2019-08-19T17:39:31Z</time>
      </trkpt>
      <trkpt lat="41.147559" lon="-8.634201">
        <ele>60.987</ele>
        <time>2019-08-19T17:39:51Z</time>
      </trkpt>
      <trkpt lat="41.146444" lon="-8.632065">
        <ele>61.193</ele>
        <time>2019-08-19T17:40:47Z</time>
      </trkpt>
      <trkpt lat="41.145181" lon="-8.630129">
        <ele>60.394</ele>
        <time>2019-08-19T17:41:25Z</time>
      </trkpt>
      <trkpt lat="41.144815" lon="-8.629216">
        <ele>60.612</ele>
        <time>2019-08-19T17:41:36Z</time>
      </trkpt>
      <trkpt lat="41.144644" lon="-8.627911">
        <ele>60.179</ele>
        <time>2019-08-19T17:41:49Z</time>
      </trkpt>
      <trkpt lat="41.144722" lon="-8.625279">
        <ele>61.685</ele>
        <time>2019-08-19T17:42:27Z</time>
      </trkpt>
      <trkpt lat="41.143764" lon="-8.622014">
        <ele>63.579</ele>
        <time>2019-08-19T17:43:44Z</time>
      </trkpt>
      <trkpt lat="41.141441" lon="-8.618711">
        <ele>63.849</ele>
        <time>2019-08-19T17:45:20Z</time>
      </trkpt>
      <trkpt lat="41.140494" lon="-8.616517">
        <ele>70.499</ele>
        <time>2019-08-19T17:46:19Z</time>
      </trkpt>
      <trkpt lat="41.140665" lon="-8.615509">
        <ele>70.607</ele>
        <time>2019-08-19T17:46:48Z</time>
      </trkpt>
      <trkpt lat="41.140412" lon="-8.616057">
        <ele>73.727</ele>
        <time>2019-08-19T17:47:49Z</time>
      </trkpt>
      <trkpt lat="41.140253" lon="-8.615373">
        <ele>70.408</ele>
        <time>2019-08-19T17:48:10Z</time>
      </trkpt>
      <trkpt lat="41.140472" lon="-8.614463">
        <ele>72.983</ele>
        <time>2019-08-19T17:48:58Z</time>
      </trkpt>
      <trkpt lat="41.141043" lon="-8.614772">
        <ele>70.719</ele>
        <time>2019-08-19T17:51:04Z</time>
      </trkpt>
      <trkpt lat="41.141197" lon="-8.614557">
        <ele>72.430</ele>
        <time>2019-08-19T17:52:22Z</time>
      </trkpt>
      <trkpt lat="41.142740" lon="-8.614535">
        <ele>98.178</ele>
        <time>2019-08-19T17:53:55Z</time>
      </trkpt>
      <trkpt lat="41.142883" lon="-8.614684">
        <ele>99.685</ele>
        <time>2019-08-19T17:54:16Z</time>
      </trkpt>
      <trkpt lat="41.143340" lon="-8.614516">
        <ele>108.041</ele>
        <time>2019-08-19T17:55:27Z</time>
      </trkpt>
      <trkpt lat="41.143427" lon="-8.614711">
        <ele>109.485</ele>
        <time>2019-08-19T17:55:32Z</time>
      </trkpt>
      <trkpt lat="41.145292" lon="-8.611091">
        <ele>113.365</ele>
        <time>2019-08-19T17:59:11Z</time>
      </trkpt>
      <trkpt lat="41.145251" lon="-8.610707">
        <ele>115.299</ele>
        <time>2019-08-19T18:00:30Z</time>
      </trkpt>
      <trkpt lat="41.145535" lon="-8.610651">
        <ele>117.307</ele>
        <time>2019-08-19T18:02:16Z</time>
      </trkpt>
      <trkpt lat="41.145563" lon="-8.610803">
        <ele>121.127</ele>
        <time>2019-08-19T18:05:16Z</time>
      </trkpt>
      <trkpt lat="41.146072" lon="-8.610720">
        <ele>132.008</ele>
        <time>2019-08-19T18:05:46Z</time>
      </trkpt>
      <trkpt lat="41.146264" lon="-8.611167">
        <ele>124.623</ele>
        <time>2019-08-19T18:06:12Z</time>
      </trkpt>
      <trkpt lat="41.146641" lon="-8.611014">
        <ele>115.639</ele>
        <time>2019-08-19T18:06:38Z</time>
      </trkpt>
      <trkpt lat="41.146951" lon="-8.611159">
        <ele>117.260</ele>
        <time>2019-08-19T18:06:55Z</time>
      </trkpt>
      <trkpt lat="41.147782" lon="-8.610975">
        <ele>117.928</ele>
        <time>2019-08-19T18:07:25Z</time>
      </trkpt>
      <trkpt lat="41.147906" lon="-8.611091">
        <ele>102.975</ele>
        <time>2019-08-19T18:07:50Z</time>
      </trkpt>
      <trkpt lat="41.147771" lon="-8.611361">
        <ele>121.831</ele>
        <time>2019-08-19T18:08:42Z</time>
      </trkpt>
      <trkpt lat="41.146646" lon="-8.611384">
        <ele>121.065</ele>
        <time>2019-08-19T18:08:59Z</time>
      </trkpt>
      <trkpt lat="41.146077" lon="-8.611801">
        <ele>117.635</ele>
        <time>2019-08-19T18:09:21Z</time>
      </trkpt>
      <trkpt lat="41.145916" lon="-8.613693">
        <ele>125.863</ele>
        <time>2019-08-19T18:12:53Z</time>
      </trkpt>
      <trkpt lat="41.145787" lon="-8.613598">
        <ele>130.844</ele>
        <time>2019-08-19T18:13:17Z</time>
      </trkpt>
      <trkpt lat="41.145544" lon="-8.615047">
        <ele>132.218</ele>
        <time>2019-08-19T18:14:21Z</time>
      </trkpt>
      <trkpt lat="41.145540" lon="-8.614616">
        <ele>139.408</ele>
        <time>2019-08-19T18:16:53Z</time>
      </trkpt>
      <trkpt lat="41.145955" lon="-8.613442">
        <ele>141.920</ele>
        <time>2019-08-19T18:17:26Z</time>
      </trkpt>
      <trkpt lat="41.146146" lon="-8.610907">
        <ele>131.826</ele>
        <time>2019-08-19T18:18:32Z</time>
      </trkpt>
      <trkpt lat="41.145707" lon="-8.610767">
        <ele>124.837</ele>
        <time>2019-08-19T18:18:41Z</time>
      </trkpt>
      <trkpt lat="41.144708" lon="-8.610915">
        <ele>121.875</ele>
        <time>2019-08-19T18:19:05Z</time>
      </trkpt>
      <trkpt lat="41.144334" lon="-8.610676">
        <ele>119.592</ele>
        <time>2019-08-19T18:19:20Z</time>
      </trkpt>
      <trkpt lat="41.143728" lon="-8.611003">
        <ele>119.138</ele>
        <time>2019-08-19T18:20:40Z</time>
      </trkpt>
      <trkpt lat="41.143646" lon="-8.610586">
        <ele>127.642</ele>
        <time>2019-08-19T18:21:11Z</time>
      </trkpt>
      <trkpt lat="41.138259" lon="-8.608844">
        <ele>119.022</ele>
        <time>2019-08-19T18:33:38Z</time>
      </trkpt>
      <trkpt lat="41.138076" lon="-8.608925">
        <ele>118.112</ele>
        <time>2019-08-19T18:33:50Z</time>
      </trkpt>
      <trkpt lat="41.137674" lon="-8.609734">
        <ele>115.432</ele>
        <time>2019-08-19T18:36:41Z</time>
      </trkpt>
      <trkpt lat="41.137100" lon="-8.610039">
        <ele>116.105</ele>
        <time>2019-08-19T18:42:11Z</time>
      </trkpt>
      <trkpt lat="41.137416" lon="-8.610090">
        <ele>114.408</ele>
        <time>2019-08-19T18:42:33Z</time>
      </trkpt>
      <trkpt lat="41.138466" lon="-8.609218">
        <ele>97.825</ele>
        <time>2019-08-19T18:43:37Z</time>
      </trkpt>
      <trkpt lat="41.138831" lon="-8.608553">
        <ele>85.411</ele>
        <time>2019-08-19T18:44:10Z</time>
      </trkpt>
      <trkpt lat="41.138836" lon="-8.609167">
        <ele>76.392</ele>
        <time>2019-08-19T18:44:44Z</time>
      </trkpt>
      <trkpt lat="41.138991" lon="-8.609479">
        <ele>75.990</ele>
        <time>2019-08-19T18:46:03Z</time>
      </trkpt>
      <trkpt lat="41.138509" lon="-8.610607">
        <ele>71.817</ele>
        <time>2019-08-19T18:46:33Z</time>
      </trkpt>
      <trkpt lat="41.138821" lon="-8.610549">
        <ele>70.113</ele>
        <time>2019-08-19T18:47:00Z</time>
      </trkpt>
      <trkpt lat="41.138662" lon="-8.610409">
        <ele>70.837</ele>
        <time>2019-08-19T19:00:47Z</time>
      </trkpt>
      <trkpt lat="41.138204" lon="-8.610975">
        <ele>61.437</ele>
        <time>2019-08-19T19:01:41Z</time>
      </trkpt>
      <trkpt lat="41.136927" lon="-8.616613">
        <ele>63.082</ele>
        <time>2019-08-19T19:04:32Z</time>
      </trkpt>
      <trkpt lat="41.136831" lon="-8.617613">
        <ele>62.943</ele>
        <time>2019-08-19T19:04:57Z</time>
      </trkpt>
      <trkpt lat="41.136949" lon="-8.619096">
        <ele>63.117</ele>
        <time>2019-08-19T19:05:32Z</time>
      </trkpt>
      <trkpt lat="41.137196" lon="-8.619624">
        <ele>62.808</ele>
        <time>2019-08-19T19:05:44Z</time>
      </trkpt>
      <trkpt lat="41.137516" lon="-8.619724">
        <ele>64.112</ele>
        <time>2019-08-19T19:05:54Z</time>
      </trkpt>
      <trkpt lat="41.137621" lon="-8.620122">
        <ele>65.838</ele>
        <time>2019-08-19T19:06:02Z</time>
      </trkpt>
      <trkpt lat="41.138168" lon="-8.620774">
        <ele>63.219</ele>
        <time>2019-08-19T19:06:17Z</time>
      </trkpt>
      <trkpt lat="41.139288" lon="-8.621471">
        <ele>60.527</ele>
        <time>2019-08-19T19:06:41Z</time>
      </trkpt>
      <trkpt lat="41.139862" lon="-8.622247">
        <ele>57.864</ele>
        <time>2019-08-19T19:06:56Z</time>
      </trkpt>
      <trkpt lat="41.141061" lon="-8.623252">
        <ele>60.080</ele>
        <time>2019-08-19T19:07:25Z</time>
      </trkpt>
      <trkpt lat="41.141648" lon="-8.624156">
        <ele>59.094</ele>
        <time>2019-08-19T19:07:43Z</time>
      </trkpt>
      <trkpt lat="41.142390" lon="-8.626367">
        <ele>58.674</ele>
        <time>2019-08-19T19:08:23Z</time>
      </trkpt>
      <trkpt lat="41.142423" lon="-8.627698">
        <ele>60.658</ele>
        <time>2019-08-19T19:08:44Z</time>
      </trkpt>
      <trkpt lat="41.142827" lon="-8.628771">
        <ele>58.852</ele>
        <time>2019-08-19T19:08:59Z</time>
      </trkpt>
      <trkpt lat="41.142943" lon="-8.630672">
        <ele>56.917</ele>
        <time>2019-08-19T19:09:25Z</time>
      </trkpt>
      <trkpt lat="41.143587" lon="-8.633077">
        <ele>57.808</ele>
        <time>2019-08-19T19:10:01Z</time>
      </trkpt>
      <trkpt lat="41.144472" lon="-8.635236">
        <ele>59.349</ele>
        <time>2019-08-19T19:10:37Z</time>
      </trkpt>
      <trkpt lat="41.146180" lon="-8.637797">
        <ele>60.065</ele>
        <time>2019-08-19T19:11:26Z</time>
      </trkpt>
      <trkpt lat="41.146439" lon="-8.639556">
        <ele>63.396</ele>
        <time>2019-08-19T19:11:57Z</time>
      </trkpt>
      <trkpt lat="41.145593" lon="-8.643225">
        <ele>65.074</ele>
        <time>2019-08-19T19:12:59Z</time>
      </trkpt>
      <trkpt lat="41.144436" lon="-8.646609">
        <ele>55.871</ele>
        <time>2019-08-19T19:13:44Z</time>
      </trkpt>
      <trkpt lat="41.141738" lon="-8.648677">
        <ele>55.367</ele>
        <time>2019-08-19T19:14:44Z</time>
      </trkpt>
      <trkpt lat="41.140947" lon="-8.650532">
        <ele>60.791</ele>
        <time>2019-08-19T19:15:13Z</time>
      </trkpt>
      <trkpt lat="41.140231" lon="-8.651459">
        <ele>67.511</ele>
        <time>2019-08-19T19:15:36Z</time>
      </trkpt>
      <trkpt lat="41.138847" lon="-8.654661">
        <ele>69.148</ele>
        <time>2019-08-19T19:17:19Z</time>
      </trkpt>
      <trkpt lat="41.138469" lon="-8.657221">
        <ele>59.861</ele>
        <time>2019-08-19T19:18:47Z</time>
      </trkpt>
      <trkpt lat="41.137809" lon="-8.658511">
        <ele>61.217</ele>
        <time>2019-08-19T19:19:12Z</time>
      </trkpt>
      <trkpt lat="41.137030" lon="-8.659173">
        <ele>62.408</ele>
        <time>2019-08-19T19:19:28Z</time>
      </trkpt>
      <trkpt lat="41.135907" lon="-8.661003">
        <ele>62.418</ele>
        <time>2019-08-19T19:19:58Z</time>
      </trkpt>
      <trkpt lat="41.135607" lon="-8.664348">
        <ele>61.814</ele>
        <time>2019-08-19T19:20:42Z</time>
      </trkpt>
      <trkpt lat="41.135954" lon="-8.665525">
        <ele>61.155</ele>
        <time>2019-08-19T19:20:59Z</time>
      </trkpt>
      <trkpt lat="41.136778" lon="-8.667011">
        <ele>61.863</ele>
        <time>2019-08-19T19:21:27Z</time>
      </trkpt>
      <trkpt lat="41.136858" lon="-8.667759">
        <ele>62.790</ele>
        <time>2019-08-19T19:21:40Z</time>
      </trkpt>
      <trkpt lat="41.136742" lon="-8.668596">
        <ele>63.186</ele>
        <time>2019-08-19T19:21:55Z</time>
      </trkpt>
      <trkpt lat="41.136250" lon="-8.669012">
        <ele>63.430</ele>
        <time>2019-08-19T19:22:13Z</time>
      </trkpt>
      <trkpt lat="41.135188" lon="-8.669145">
        <ele>63.170</ele>
        <time>2019-08-19T19:22:36Z</time>
      </trkpt>
      <trkpt lat="41.134802" lon="-8.670108">
        <ele>68.968</ele>
        <time>2019-08-19T19:22:56Z</time>
      </trkpt>
      <trkpt lat="41.131687" lon="-8.669627">
        <ele>69.942</ele>
        <time>2019-08-19T19:23:54Z</time>
      </trkpt>
      <trkpt lat="41.130535" lon="-8.669170">
        <ele>65.526</ele>
        <time>2019-08-19T19:24:16Z</time>
      </trkpt>
      <trkpt lat="41.129164" lon="-8.667928">
        <ele>66.908</ele>
        <time>2019-08-19T19:26:42Z</time>
      </trkpt>
      <trkpt lat="41.126578" lon="-8.666804">
        <ele>67.960</ele>
        <time>2019-08-19T19:27:41Z</time>
      </trkpt>
      <trkpt lat="41.126132" lon="-8.667004">
        <ele>65.666</ele>
        <time>2019-08-19T19:28:37Z</time>
      </trkpt>
      <trkpt lat="41.123789" lon="-8.666792">
        <ele>66.527</ele>
        <time>2019-08-19T19:29:19Z</time>
      </trkpt>
      <trkpt lat="41.122263" lon="-8.666301">
        <ele>67.365</ele>
        <time>2019-08-19T19:29:46Z</time>
      </trkpt>
      <trkpt lat="41.121609" lon="-8.665824">
        <ele>66.322</ele>
        <time>2019-08-19T19:30:24Z</time>
      </trkpt>
      <trkpt lat="41.121619" lon="-8.665641">
        <ele>66.358</ele>
        <time>2019-08-19T19:30:36Z</time>
      </trkpt>
      <trkpt lat="41.121059" lon="-8.665000">
        <ele>67.842</ele>
        <time>2019-08-19T19:30:52Z</time>
      </trkpt>
      <trkpt lat="41.121743" lon="-8.661526">
        <ele>83.462</ele>
        <time>2019-08-19T19:32:06Z</time>
      </trkpt>
      <trkpt lat="41.120747" lon="-8.660992">
        <ele>84.936</ele>
        <time>2019-08-19T19:33:50Z</time>
      </trkpt>
      <trkpt lat="41.120898" lon="-8.661027">
        <ele>86.417</ele>
        <time>2019-08-19T19:35:59Z</time>
      </trkpt>
      <trkpt lat="41.120719" lon="-8.661145">
        <ele>82.018</ele>
        <time>2019-08-19T19:36:36Z</time>
      </trkpt>
      <trkpt lat="41.120904" lon="-8.660996">
        <ele>82.408</ele>
        <time>2019-08-19T19:37:05Z</time>
      </trkpt>
      <trkpt lat="41.120891" lon="-8.661127">
        <ele>82.897</ele>
        <time>2019-08-19T19:39:09Z</time>
      </trkpt>
      <trkpt lat="41.120464" lon="-8.660935">
        <ele>86.473</ele>
        <time>2019-08-19T19:40:14Z</time>
      </trkpt>
      <trkpt lat="41.120804" lon="-8.660394">
        <ele>85.734</ele>
        <time>2019-08-19T19:41:14Z</time>
      </trkpt>
      <trkpt lat="41.120373" lon="-8.660128">
        <ele>88.122</ele>
        <time>2019-08-19T19:57:56Z</time>
      </trkpt>
      <trkpt lat="41.120852" lon="-8.661135">
        <ele>21.941</ele>
        <time>2019-08-20T11:05:39Z</time>
      </trkpt>
      <trkpt lat="41.121722" lon="-8.661441">
        <ele>23.081</ele>
        <time>2019-08-20T11:06:34Z</time>
      </trkpt>
      <trkpt lat="41.121762" lon="-8.661622">
        <ele>22.209</ele>
        <time>2019-08-20T11:06:40Z</time>
      </trkpt>
      <trkpt lat="41.121135" lon="-8.664762">
        <ele>7.908</ele>
        <time>2019-08-20T11:07:26Z</time>
      </trkpt>
      <trkpt lat="41.120946" lon="-8.665014">
        <ele>7.438</ele>
        <time>2019-08-20T11:07:35Z</time>
      </trkpt>
      <trkpt lat="41.119054" lon="-8.663525">
        <ele>8.294</ele>
        <time>2019-08-20T11:08:27Z</time>
      </trkpt>
      <trkpt lat="41.117159" lon="-8.662656">
        <ele>8.676</ele>
        <time>2019-08-20T11:09:03Z</time>
      </trkpt>
      <trkpt lat="41.111563" lon="-8.662845">
        <ele>0.057</ele>
        <time>2019-08-20T11:10:28Z</time>
      </trkpt>
      <trkpt lat="41.111077" lon="-8.662640">
        <ele>3.858</ele>
        <time>2019-08-20T11:10:35Z</time>
      </trkpt>
      <trkpt lat="41.110258" lon="-8.661921">
        <ele>7.038</ele>
        <time>2019-08-20T11:10:49Z</time>
      </trkpt>
      <trkpt lat="41.107652" lon="-8.661240">
        <ele>6.574</ele>
        <time>2019-08-20T11:11:35Z</time>
      </trkpt>
      <trkpt lat="41.106240" lon="-8.661011">
        <ele>7.041</ele>
        <time>2019-08-20T11:11:59Z</time>
      </trkpt>
      <trkpt lat="41.105428" lon="-8.661252">
        <ele>9.953</ele>
        <time>2019-08-20T11:12:11Z</time>
      </trkpt>
      <trkpt lat="41.103629" lon="-8.660523">
        <ele>10.504</ele>
        <time>2019-08-20T11:12:47Z</time>
      </trkpt>
      <trkpt lat="41.103445" lon="-8.660616">
        <ele>9.914</ele>
        <time>2019-08-20T11:12:55Z</time>
      </trkpt>
      <trkpt lat="41.103276" lon="-8.661183">
        <ele>4.008</ele>
        <time>2019-08-20T11:13:04Z</time>
      </trkpt>
      <trkpt lat="41.102830" lon="-8.661114">
        <ele>1.379</ele>
        <time>2019-08-20T11:13:13Z</time>
      </trkpt>
      <trkpt lat="41.099757" lon="-8.659848">
        <ele>0.515</ele>
        <time>2019-08-20T11:14:09Z</time>
      </trkpt>
      <trkpt lat="41.099938" lon="-8.659058">
        <ele>6.737</ele>
        <time>2019-08-20T11:14:23Z</time>
      </trkpt>
      <trkpt lat="41.098974" lon="-8.658175">
        <ele>6.558</ele>
        <time>2019-08-20T11:14:46Z</time>
      </trkpt>
      <trkpt lat="41.093062" lon="-8.656808">
        <ele>9.519</ele>
        <time>2019-08-20T11:16:37Z</time>
      </trkpt>
      <trkpt lat="41.091731" lon="-8.656724">
        <ele>7.139</ele>
        <time>2019-08-20T11:17:05Z</time>
      </trkpt>
      <trkpt lat="41.083531" lon="-8.655510">
        <ele>6.265</ele>
        <time>2019-08-20T11:19:33Z</time>
      </trkpt>
      <trkpt lat="41.082090" lon="-8.655551">
        <ele>6.592</ele>
        <time>2019-08-20T11:19:56Z</time>
      </trkpt>
      <trkpt lat="41.078652" lon="-8.655959">
        <ele>2.017</ele>
        <time>2019-08-20T11:20:51Z</time>
      </trkpt>
      <trkpt lat="41.075909" lon="-8.655100">
        <ele>5.487</ele>
        <time>2019-08-20T11:21:37Z</time>
      </trkpt>
      <trkpt lat="41.075519" lon="-8.655823">
        <ele>3.215</ele>
        <time>2019-08-20T11:21:49Z</time>
      </trkpt>
      <trkpt lat="41.075064" lon="-8.656022">
        <ele>4.908</ele>
        <time>2019-08-20T11:21:56Z</time>
      </trkpt>
      <trkpt lat="41.072287" lon="-8.655119">
        <ele>9.885</ele>
        <time>2019-08-20T11:22:45Z</time>
      </trkpt>
      <trkpt lat="41.071955" lon="-8.655903">
        <ele>9.581</ele>
        <time>2019-08-20T11:23:01Z</time>
      </trkpt>
      <trkpt lat="41.070083" lon="-8.655302">
        <ele>9.123</ele>
        <time>2019-08-20T11:23:37Z</time>
      </trkpt>
      <trkpt lat="41.069861" lon="-8.655526">
        <ele>7.264</ele>
        <time>2019-08-20T11:23:43Z</time>
      </trkpt>
      <trkpt lat="41.069480" lon="-8.656550">
        <ele>5.545</ele>
        <time>2019-08-20T11:23:57Z</time>
      </trkpt>
      <trkpt lat="41.069142" lon="-8.656713">
        <ele>2.445</ele>
        <time>2019-08-20T11:24:03Z</time>
      </trkpt>
      <trkpt lat="41.067341" lon="-8.656205">
        <ele>5.581</ele>
        <time>2019-08-20T11:24:33Z</time>
      </trkpt>
      <trkpt lat="41.067009" lon="-8.656354">
        <ele>4.518</ele>
        <time>2019-08-20T11:24:41Z</time>
      </trkpt>
      <trkpt lat="41.066815" lon="-8.656123">
        <ele>5.599</ele>
        <time>2019-08-20T11:24:47Z</time>
      </trkpt>
      <trkpt lat="41.066263" lon="-8.655949">
        <ele>5.207</ele>
        <time>2019-08-20T11:25:28Z</time>
      </trkpt>
      <trkpt lat="41.065855" lon="-8.655490">
        <ele>4.027</ele>
        <time>2019-08-20T11:25:42Z</time>
      </trkpt>
      <trkpt lat="41.065795" lon="-8.654989">
        <ele>4.408</ele>
        <time>2019-08-20T11:25:51Z</time>
      </trkpt>
      <trkpt lat="41.065491" lon="-8.654621">
        <ele>6.413</ele>
        <time>2019-08-20T11:26:57Z</time>
      </trkpt>
      <trkpt lat="41.065215" lon="-8.653414">
        <ele>6.899</ele>
        <time>2019-08-20T11:27:28Z</time>
      </trkpt>
      <trkpt lat="41.064638" lon="-8.653278">
        <ele>6.751</ele>
        <time>2019-08-20T11:27:44Z</time>
      </trkpt>
      <trkpt lat="41.064503" lon="-8.652751">
        <ele>8.632</ele>
        <time>2019-08-20T11:28:06Z</time>
      </trkpt>
      <trkpt lat="41.064117" lon="-8.652729">
        <ele>11.093</ele>
        <time>2019-08-20T11:28:18Z</time>
      </trkpt>
      <trkpt lat="41.063103" lon="-8.652908">
        <ele>14.573</ele>
        <time>2019-08-20T11:28:42Z</time>
      </trkpt>
      <trkpt lat="41.062044" lon="-8.653627">
        <ele>11.329</ele>
        <time>2019-08-20T11:29:06Z</time>
      </trkpt>
      <trkpt lat="41.061244" lon="-8.653986">
        <ele>11.736</ele>
        <time>2019-08-20T11:29:21Z</time>
      </trkpt>
      <trkpt lat="41.059910" lon="-8.654242">
        <ele>9.647</ele>
        <time>2019-08-20T11:29:43Z</time>
      </trkpt>
      <trkpt lat="41.058595" lon="-8.654197">
        <ele>10.929</ele>
        <time>2019-08-20T11:30:09Z</time>
      </trkpt>
      <trkpt lat="41.058332" lon="-8.655531">
        <ele>8.121</ele>
        <time>2019-08-20T11:30:39Z</time>
      </trkpt>
      <trkpt lat="41.058056" lon="-8.655788">
        <ele>6.308</ele>
        <time>2019-08-20T11:30:44Z</time>
      </trkpt>
      <trkpt lat="41.057752" lon="-8.655810">
        <ele>6.148</ele>
        <time>2019-08-20T11:30:49Z</time>
      </trkpt>
      <trkpt lat="41.049750" lon="-8.653092">
        <ele>5.394</ele>
        <time>2019-08-20T11:33:10Z</time>
      </trkpt>
      <trkpt lat="41.049249" lon="-8.653220">
        <ele>7.156</ele>
        <time>2019-08-20T11:33:30Z</time>
      </trkpt>
      <trkpt lat="41.049034" lon="-8.652897">
        <ele>7.537</ele>
        <time>2019-08-20T11:33:58Z</time>
      </trkpt>
      <trkpt lat="41.049399" lon="-8.653460">
        <ele>6.668</ele>
        <time>2019-08-20T11:34:26Z</time>
      </trkpt>
      <trkpt lat="41.049245" lon="-8.654238">
        <ele>5.898</ele>
        <time>2019-08-20T11:34:49Z</time>
      </trkpt>
      <trkpt lat="41.048963" lon="-8.654214">
        <ele>4.774</ele>
        <time>2019-08-20T11:35:01Z</time>
      </trkpt>
      <trkpt lat="41.047950" lon="-8.653541">
        <ele>3.561</ele>
        <time>2019-08-20T11:35:34Z</time>
      </trkpt>
      <trkpt lat="41.047945" lon="-8.652542">
        <ele>7.516</ele>
        <time>2019-08-20T11:35:58Z</time>
      </trkpt>
      <trkpt lat="41.044752" lon="-8.651452">
        <ele>6.176</ele>
        <time>2019-08-20T11:37:10Z</time>
      </trkpt>
      <trkpt lat="41.044921" lon="-8.649480">
        <ele>9.713</ele>
        <time>2019-08-20T11:37:54Z</time>
      </trkpt>
      <trkpt lat="41.040565" lon="-8.647967">
        <ele>14.008</ele>
        <time>2019-08-20T11:39:29Z</time>
      </trkpt>
      <trkpt lat="41.040232" lon="-8.647990">
        <ele>12.855</ele>
        <time>2019-08-20T11:39:38Z</time>
      </trkpt>
      <trkpt lat="41.039118" lon="-8.647666">
        <ele>11.731</ele>
        <time>2019-08-20T11:40:02Z</time>
      </trkpt>
      <trkpt lat="41.033091" lon="-8.645470">
        <ele>7.733</ele>
        <time>2019-08-20T11:42:03Z</time>
      </trkpt>
      <trkpt lat="41.032058" lon="-8.645420">
        <ele>6.454</ele>
        <time>2019-08-20T11:42:41Z</time>
      </trkpt>
      <trkpt lat="41.031861" lon="-8.645878">
        <ele>4.855</ele>
        <time>2019-08-20T11:43:05Z</time>
      </trkpt>
      <trkpt lat="41.031386" lon="-8.645283">
        <ele>4.065</ele>
        <time>2019-08-20T11:43:41Z</time>
      </trkpt>
      <trkpt lat="41.030779" lon="-8.645320">
        <ele>5.961</ele>
        <time>2019-08-20T11:44:01Z</time>
      </trkpt>
      <trkpt lat="41.030207" lon="-8.645719">
        <ele>4.348</ele>
        <time>2019-08-20T11:44:16Z</time>
      </trkpt>
      <trkpt lat="41.027408" lon="-8.645553">
        <ele>0.127</ele>
        <time>2019-08-20T11:45:20Z</time>
      </trkpt>
      <trkpt lat="41.026393" lon="-8.645147">
        <ele>1.468</ele>
        <time>2019-08-20T11:45:54Z</time>
      </trkpt>
      <trkpt lat="41.025494" lon="-8.644549">
        <ele>2.614</ele>
        <time>2019-08-20T11:46:29Z</time>
      </trkpt>
      <trkpt lat="41.024679" lon="-8.644649">
        <ele>3.808</ele>
        <time>2019-08-20T11:47:03Z</time>
      </trkpt>
      <trkpt lat="41.022690" lon="-8.643868">
        <ele>4.076</ele>
        <time>2019-08-20T11:48:04Z</time>
      </trkpt>
      <trkpt lat="41.021466" lon="-8.643810">
        <ele>8.862</ele>
        <time>2019-08-20T11:48:32Z</time>
      </trkpt>
      <trkpt lat="41.017986" lon="-8.644286">
        <ele>3.334</ele>
        <time>2019-08-20T11:50:29Z</time>
      </trkpt>
      <trkpt lat="41.016506" lon="-8.643561">
        <ele>3.995</ele>
        <time>2019-08-20T11:50:59Z</time>
      </trkpt>
      <trkpt lat="41.015971" lon="-8.643775">
        <ele>5.266</ele>
        <time>2019-08-20T11:51:22Z</time>
      </trkpt>
      <trkpt lat="41.015576" lon="-8.643179">
        <ele>6.166</ele>
        <time>2019-08-20T11:51:42Z</time>
      </trkpt>
      <trkpt lat="41.014711" lon="-8.643704">
        <ele>3.712</ele>
        <time>2019-08-20T11:52:15Z</time>
      </trkpt>
      <trkpt lat="41.014298" lon="-8.644452">
        <ele>4.529</ele>
        <time>2019-08-20T11:52:37Z</time>
      </trkpt>
      <trkpt lat="41.013651" lon="-8.644457">
        <ele>5.025</ele>
        <time>2019-08-20T11:53:02Z</time>
      </trkpt>
      <trkpt lat="41.013714" lon="-8.644692">
        <ele>4.726</ele>
        <time>2019-08-20T11:53:13Z</time>
      </trkpt>
      <trkpt lat="41.013528" lon="-8.644880">
        <ele>4.108</ele>
        <time>2019-08-20T11:53:20Z</time>
      </trkpt>
      <trkpt lat="41.009993" lon="-8.645750">
        <ele>2.308</ele>
        <time>2019-08-20T11:54:43Z</time>
      </trkpt>
      <trkpt lat="41.000784" lon="-8.646217">
        <ele>7.076</ele>
        <time>2019-08-20T11:58:03Z</time>
      </trkpt>
      <trkpt lat="40.999169" lon="-8.646339">
        <ele>0.982</ele>
        <time>2019-08-20T11:58:37Z</time>
      </trkpt>
      <trkpt lat="40.998615" lon="-8.646545">
        <ele>5.074</ele>
        <time>2019-08-20T11:59:34Z</time>
      </trkpt>
      <trkpt lat="40.998121" lon="-8.646021">
        <ele>7.875</ele>
        <time>2019-08-20T12:01:09Z</time>
      </trkpt>
      <trkpt lat="40.997547" lon="-8.645853">
        <ele>6.566</ele>
        <time>2019-08-20T12:01:25Z</time>
      </trkpt>
      <trkpt lat="40.995491" lon="-8.645884">
        <ele>5.816</ele>
        <time>2019-08-20T12:02:07Z</time>
      </trkpt>
      <trkpt lat="40.993724" lon="-8.645294">
        <ele>5.082</ele>
        <time>2019-08-20T12:02:52Z</time>
      </trkpt>
      <trkpt lat="40.991888" lon="-8.645933">
        <ele>7.099</ele>
        <time>2019-08-20T12:03:34Z</time>
      </trkpt>
      <trkpt lat="40.990252" lon="-8.646252">
        <ele>4.264</ele>
        <time>2019-08-20T12:04:18Z</time>
      </trkpt>
      <trkpt lat="40.987230" lon="-8.646471">
        <ele>4.206</ele>
        <time>2019-08-20T12:05:50Z</time>
      </trkpt>
      <trkpt lat="40.982689" lon="-8.647951">
        <ele>1.616</ele>
        <time>2019-08-20T12:08:26Z</time>
      </trkpt>
      <trkpt lat="40.979228" lon="-8.648653">
        <ele>3.808</ele>
        <time>2019-08-20T12:09:55Z</time>
      </trkpt>
      <trkpt lat="40.978177" lon="-8.649150">
        <ele>7.050</ele>
        <time>2019-08-20T12:10:35Z</time>
      </trkpt>
      <trkpt lat="40.976774" lon="-8.643746">
        <ele>2.716</ele>
        <time>2019-08-20T12:12:27Z</time>
      </trkpt>
      <trkpt lat="40.975432" lon="-8.643819">
        <ele>3.268</ele>
        <time>2019-08-20T12:12:54Z</time>
      </trkpt>
      <trkpt lat="40.974859" lon="-8.641603">
        <ele>1.259</ele>
        <time>2019-08-20T12:13:28Z</time>
      </trkpt>
      <trkpt lat="40.974696" lon="-8.641445">
        <ele>0.810</ele>
        <time>2019-08-20T12:13:38Z</time>
      </trkpt>
      <trkpt lat="40.974843" lon="-8.641174">
        <ele>2.740</ele>
        <time>2019-08-20T12:14:02Z</time>
      </trkpt>
      <trkpt lat="40.975132" lon="-8.637831">
        <ele>5.956</ele>
        <time>2019-08-20T12:14:59Z</time>
      </trkpt>
      <trkpt lat="40.974930" lon="-8.637005">
        <ele>9.563</ele>
        <time>2019-08-20T12:15:21Z</time>
      </trkpt>
      <trkpt lat="40.974513" lon="-8.637032">
        <ele>7.141</ele>
        <time>2019-08-20T12:15:31Z</time>
      </trkpt>
      <trkpt lat="40.974008" lon="-8.636592">
        <ele>7.381</ele>
        <time>2019-08-20T12:15:44Z</time>
      </trkpt>
      <trkpt lat="40.971916" lon="-8.636134">
        <ele>7.909</ele>
        <time>2019-08-20T12:16:20Z</time>
      </trkpt>
      <trkpt lat="40.971206" lon="-8.636207">
        <ele>5.608</ele>
        <time>2019-08-20T12:16:31Z</time>
      </trkpt>
      <trkpt lat="40.970099" lon="-8.636009">
        <ele>6.638</ele>
        <time>2019-08-20T12:16:49Z</time>
      </trkpt>
      <trkpt lat="40.964605" lon="-8.635751">
        <ele>8.064</ele>
        <time>2019-08-20T12:18:17Z</time>
      </trkpt>
      <trkpt lat="40.963223" lon="-8.635854">
        <ele>7.086</ele>
        <time>2019-08-20T12:18:42Z</time>
      </trkpt>
      <trkpt lat="40.959530" lon="-8.635439">
        <ele>6.747</ele>
        <time>2019-08-20T12:19:47Z</time>
      </trkpt>
      <trkpt lat="40.955244" lon="-8.635229">
        <ele>7.038</ele>
        <time>2019-08-20T12:21:04Z</time>
      </trkpt>
      <trkpt lat="40.955690" lon="-8.635368">
        <ele>6.228</ele>
        <time>2019-08-20T12:21:16Z</time>
      </trkpt>
      <trkpt lat="40.955592" lon="-8.636543">
        <ele>3.534</ele>
        <time>2019-08-20T12:21:59Z</time>
      </trkpt>
      <trkpt lat="40.955620" lon="-8.636390">
        <ele>4.081</ele>
        <time>2019-08-20T12:22:18Z</time>
      </trkpt>
      <trkpt lat="40.955610" lon="-8.636103">
        <ele>4.055</ele>
        <time>2019-08-20T12:22:27Z</time>
      </trkpt>
      <trkpt lat="40.955030" lon="-8.636148">
        <ele>6.807</ele>
        <time>2019-08-20T12:22:54Z</time>
      </trkpt>
      <trkpt lat="40.954813" lon="-8.639124">
        <ele>5.717</ele>
        <time>2019-08-20T12:23:47Z</time>
      </trkpt>
      <trkpt lat="40.954647" lon="-8.639652">
        <ele>7.308</ele>
        <time>2019-08-20T12:24:07Z</time>
      </trkpt>
      <trkpt lat="40.951431" lon="-8.639177">
        <ele>12.759</ele>
        <time>2019-08-20T12:25:08Z</time>
      </trkpt>
      <trkpt lat="40.949840" lon="-8.638633">
        <ele>12.075</ele>
        <time>2019-08-20T12:25:45Z</time>
      </trkpt>
      <trkpt lat="40.950217" lon="-8.638738">
        <ele>9.797</ele>
        <time>2019-08-20T12:26:13Z</time>
      </trkpt>
      <trkpt lat="40.950012" lon="-8.639294">
        <ele>6.098</ele>
        <time>2019-08-20T12:26:37Z</time>
      </trkpt>
      <trkpt lat="40.950592" lon="-8.640205">
        <ele>5.119</ele>
        <time>2019-08-20T12:27:32Z</time>
      </trkpt>
      <trkpt lat="40.950242" lon="-8.640846">
        <ele>-2.999</ele>
        <time>2019-08-20T12:28:40Z</time>
      </trkpt>
      <trkpt lat="40.950207" lon="-8.641272">
        <ele>-3.175</ele>
        <time>2019-08-20T12:28:50Z</time>
      </trkpt>
      <trkpt lat="40.950429" lon="-8.641623">
        <ele>4.322</ele>
        <time>2019-08-20T12:32:19Z</time>
      </trkpt>
      <trkpt lat="40.950933" lon="-8.641633">
        <ele>7.762</ele>
        <time>2019-08-20T12:32:40Z</time>
      </trkpt>
      <trkpt lat="40.951149" lon="-8.642224">
        <ele>12.283</ele>
        <time>2019-08-20T12:32:53Z</time>
      </trkpt>
      <trkpt lat="40.950673" lon="-8.642612">
        <ele>13.211</ele>
        <time>2019-08-20T12:33:19Z</time>
      </trkpt>
      <trkpt lat="40.949709" lon="-8.642359">
        <ele>14.508</ele>
        <time>2019-08-20T12:35:36Z</time>
      </trkpt>
      <trkpt lat="40.949943" lon="-8.642945">
        <ele>16.770</ele>
        <time>2019-08-20T12:36:25Z</time>
      </trkpt>
      <trkpt lat="40.950239" lon="-8.643256">
        <ele>15.096</ele>
        <time>2019-08-20T12:36:33Z</time>
      </trkpt>
      <trkpt lat="40.950398" lon="-8.644768">
        <ele>9.128</ele>
        <time>2019-08-20T12:37:06Z</time>
      </trkpt>
      <trkpt lat="40.941761" lon="-8.644708">
        <ele>18.449</ele>
        <time>2019-08-20T12:40:12Z</time>
      </trkpt>
      <trkpt lat="40.941417" lon="-8.644266">
        <ele>24.340</ele>
        <time>2019-08-20T12:40:59Z</time>
      </trkpt>
      <trkpt lat="40.941296" lon="-8.644616">
        <ele>23.450</ele>
        <time>2019-08-20T12:41:08Z</time>
      </trkpt>
      <trkpt lat="40.941131" lon="-8.644694">
        <ele>23.126</ele>
        <time>2019-08-20T12:41:12Z</time>
      </trkpt>
      <trkpt lat="40.937140" lon="-8.644647">
        <ele>17.973</ele>
        <time>2019-08-20T12:43:26Z</time>
      </trkpt>
      <trkpt lat="40.935593" lon="-8.645009">
        <ele>17.697</ele>
        <time>2019-08-20T12:43:54Z</time>
      </trkpt>
      <trkpt lat="40.934224" lon="-8.645081">
        <ele>21.723</ele>
        <time>2019-08-20T12:44:19Z</time>
      </trkpt>
      <trkpt lat="40.932907" lon="-8.645375">
        <ele>16.125</ele>
        <time>2019-08-20T12:44:43Z</time>
      </trkpt>
      <trkpt lat="40.932773" lon="-8.645618">
        <ele>13.408</ele>
        <time>2019-08-20T12:44:52Z</time>
      </trkpt>
      <trkpt lat="40.931817" lon="-8.645794">
        <ele>14.543</ele>
        <time>2019-08-20T12:45:10Z</time>
      </trkpt>
      <trkpt lat="40.931189" lon="-8.646226">
        <ele>15.339</ele>
        <time>2019-08-20T12:45:28Z</time>
      </trkpt>
      <trkpt lat="40.931106" lon="-8.647614">
        <ele>11.861</ele>
        <time>2019-08-20T12:45:53Z</time>
      </trkpt>
      <trkpt lat="40.930072" lon="-8.650305">
        <ele>21.642</ele>
        <time>2019-08-20T12:46:35Z</time>
      </trkpt>
      <trkpt lat="40.929861" lon="-8.653979">
        <ele>21.573</ele>
        <time>2019-08-20T12:47:27Z</time>
      </trkpt>
      <trkpt lat="40.929998" lon="-8.654888">
        <ele>20.063</ele>
        <time>2019-08-20T12:47:40Z</time>
      </trkpt>
      <trkpt lat="40.929772" lon="-8.655110">
        <ele>18.489</ele>
        <time>2019-08-20T12:47:45Z</time>
      </trkpt>
      <trkpt lat="40.929699" lon="-8.655763">
        <ele>17.736</ele>
        <time>2019-08-20T12:48:23Z</time>
      </trkpt>
      <trkpt lat="40.929054" lon="-8.656806">
        <ele>18.277</ele>
        <time>2019-08-20T12:48:44Z</time>
      </trkpt>
      <trkpt lat="40.928263" lon="-8.657160">
        <ele>19.761</ele>
        <time>2019-08-20T12:48:59Z</time>
      </trkpt>
      <trkpt lat="40.926794" lon="-8.657184">
        <ele>22.827</ele>
        <time>2019-08-20T12:49:27Z</time>
      </trkpt>
      <trkpt lat="40.926319" lon="-8.656922">
        <ele>21.908</ele>
        <time>2019-08-20T12:49:36Z</time>
      </trkpt>
      <trkpt lat="40.925332" lon="-8.656850">
        <ele>20.951</ele>
        <time>2019-08-20T12:49:52Z</time>
      </trkpt>
      <trkpt lat="40.924788" lon="-8.656646">
        <ele>23.627</ele>
        <time>2019-08-20T12:50:01Z</time>
      </trkpt>
      <trkpt lat="40.922347" lon="-8.656237">
        <ele>27.599</ele>
        <time>2019-08-20T12:50:44Z</time>
      </trkpt>
      <trkpt lat="40.921716" lon="-8.656438">
        <ele>26.590</ele>
        <time>2019-08-20T12:50:56Z</time>
      </trkpt>
      <trkpt lat="40.921060" lon="-8.656288">
        <ele>25.721</ele>
        <time>2019-08-20T12:51:07Z</time>
      </trkpt>
      <trkpt lat="40.920713" lon="-8.656601">
        <ele>25.711</ele>
        <time>2019-08-20T12:51:18Z</time>
      </trkpt>
      <trkpt lat="40.920182" lon="-8.656449">
        <ele>24.057</ele>
        <time>2019-08-20T12:51:36Z</time>
      </trkpt>
      <trkpt lat="40.919924" lon="-8.656091">
        <ele>21.634</ele>
        <time>2019-08-20T12:51:46Z</time>
      </trkpt>
      <trkpt lat="40.918431" lon="-8.655688">
        <ele>29.315</ele>
        <time>2019-08-20T12:52:17Z</time>
      </trkpt>
      <trkpt lat="40.917244" lon="-8.655866">
        <ele>26.065</ele>
        <time>2019-08-20T12:52:37Z</time>
      </trkpt>
      <trkpt lat="40.914096" lon="-8.655924">
        <ele>29.311</ele>
        <time>2019-08-20T12:53:40Z</time>
      </trkpt>
      <trkpt lat="40.911572" lon="-8.655187">
        <ele>28.708</ele>
        <time>2019-08-20T12:54:26Z</time>
      </trkpt>
      <trkpt lat="40.905670" lon="-8.656207">
        <ele>25.985</ele>
        <time>2019-08-20T12:56:05Z</time>
      </trkpt>
      <trkpt lat="40.905075" lon="-8.656186">
        <ele>25.581</ele>
        <time>2019-08-20T12:56:15Z</time>
      </trkpt>
      <trkpt lat="40.904503" lon="-8.655904">
        <ele>21.793</ele>
        <time>2019-08-20T12:56:26Z</time>
      </trkpt>
      <trkpt lat="40.903939" lon="-8.655292">
        <ele>19.844</ele>
        <time>2019-08-20T12:56:39Z</time>
      </trkpt>
      <trkpt lat="40.902337" lon="-8.652274">
        <ele>31.025</ele>
        <time>2019-08-20T12:57:27Z</time>
      </trkpt>
      <trkpt lat="40.901938" lon="-8.651903">
        <ele>29.845</ele>
        <time>2019-08-20T12:57:34Z</time>
      </trkpt>
      <trkpt lat="40.901558" lon="-8.650768">
        <ele>26.881</ele>
        <time>2019-08-20T12:57:47Z</time>
      </trkpt>
      <trkpt lat="40.900840" lon="-8.649868">
        <ele>24.078</ele>
        <time>2019-08-20T12:58:02Z</time>
      </trkpt>
      <trkpt lat="40.900269" lon="-8.648425">
        <ele>29.039</ele>
        <time>2019-08-20T12:58:23Z</time>
      </trkpt>
      <trkpt lat="40.900050" lon="-8.648133">
        <ele>29.401</ele>
        <time>2019-08-20T12:58:28Z</time>
      </trkpt>
      <trkpt lat="40.899756" lon="-8.648123">
        <ele>28.621</ele>
        <time>2019-08-20T12:58:33Z</time>
      </trkpt>
      <trkpt lat="40.894509" lon="-8.652405">
        <ele>29.308</ele>
        <time>2019-08-20T13:00:22Z</time>
      </trkpt>
      <trkpt lat="40.892916" lon="-8.653298">
        <ele>27.357</ele>
        <time>2019-08-20T13:00:53Z</time>
      </trkpt>
      <trkpt lat="40.892517" lon="-8.653674">
        <ele>26.133</ele>
        <time>2019-08-20T13:01:00Z</time>
      </trkpt>
      <trkpt lat="40.891983" lon="-8.653810">
        <ele>24.415</ele>
        <time>2019-08-20T13:01:09Z</time>
      </trkpt>
      <trkpt lat="40.890990" lon="-8.654379">
        <ele>27.086</ele>
        <time>2019-08-20T13:01:27Z</time>
      </trkpt>
      <trkpt lat="40.889904" lon="-8.655175">
        <ele>28.557</ele>
        <time>2019-08-20T13:01:45Z</time>
      </trkpt>
      <trkpt lat="40.888721" lon="-8.655643">
        <ele>26.367</ele>
        <time>2019-08-20T13:02:02Z</time>
      </trkpt>
      <trkpt lat="40.888217" lon="-8.656190">
        <ele>24.253</ele>
        <time>2019-08-20T13:02:11Z</time>
      </trkpt>
      <trkpt lat="40.887618" lon="-8.657178">
        <ele>22.430</ele>
        <time>2019-08-20T13:02:25Z</time>
      </trkpt>
      <trkpt lat="40.886447" lon="-8.658383">
        <ele>19.064</ele>
        <time>2019-08-20T13:02:46Z</time>
      </trkpt>
      <trkpt lat="40.885334" lon="-8.659967">
        <ele>19.106</ele>
        <time>2019-08-20T13:03:09Z</time>
      </trkpt>
      <trkpt lat="40.883974" lon="-8.661480">
        <ele>17.716</ele>
        <time>2019-08-20T13:03:39Z</time>
      </trkpt>
      <trkpt lat="40.881960" lon="-8.661944">
        <ele>18.908</ele>
        <time>2019-08-20T13:04:12Z</time>
      </trkpt>
      <trkpt lat="40.879699" lon="-8.662802">
        <ele>19.050</ele>
        <time>2019-08-20T13:04:47Z</time>
      </trkpt>
      <trkpt lat="40.878856" lon="-8.662988">
        <ele>14.466</ele>
        <time>2019-08-20T13:05:00Z</time>
      </trkpt>
      <trkpt lat="40.876994" lon="-8.664225">
        <ele>16.248</ele>
        <time>2019-08-20T13:05:31Z</time>
      </trkpt>
      <trkpt lat="40.876590" lon="-8.664991">
        <ele>11.849</ele>
        <time>2019-08-20T13:06:04Z</time>
      </trkpt>
      <trkpt lat="40.876036" lon="-8.666660">
        <ele>9.210</ele>
        <time>2019-08-20T13:06:31Z</time>
      </trkpt>
      <trkpt lat="40.875251" lon="-8.669666">
        <ele>9.860</ele>
        <time>2019-08-20T13:07:36Z</time>
      </trkpt>
      <trkpt lat="40.874367" lon="-8.670515">
        <ele>6.816</ele>
        <time>2019-08-20T13:07:58Z</time>
      </trkpt>
      <trkpt lat="40.874457" lon="-8.670866">
        <ele>7.043</ele>
        <time>2019-08-20T13:08:06Z</time>
      </trkpt>
      <trkpt lat="40.875311" lon="-8.671521">
        <ele>9.322</ele>
        <time>2019-08-20T13:08:27Z</time>
      </trkpt>
      <trkpt lat="40.875511" lon="-8.672222">
        <ele>6.862</ele>
        <time>2019-08-20T13:08:39Z</time>
      </trkpt>
      <trkpt lat="40.876394" lon="-8.673102">
        <ele>4.908</ele>
        <time>2019-08-20T13:09:02Z</time>
      </trkpt>
      <trkpt lat="40.875410" lon="-8.673826">
        <ele>4.608</ele>
        <time>2019-08-20T13:09:28Z</time>
      </trkpt>
      <trkpt lat="40.875190" lon="-8.674244">
        <ele>6.646</ele>
        <time>2019-08-20T13:09:40Z</time>
      </trkpt>
      <trkpt lat="40.874865" lon="-8.674219">
        <ele>7.242</ele>
        <time>2019-08-20T13:09:48Z</time>
      </trkpt>
      <trkpt lat="40.873102" lon="-8.675455">
        <ele>5.914</ele>
        <time>2019-08-20T13:11:11Z</time>
      </trkpt>
      <trkpt lat="40.872964" lon="-8.675189">
        <ele>6.215</ele>
        <time>2019-08-20T13:12:45Z</time>
      </trkpt>
      <trkpt lat="40.872915" lon="-8.675321">
        <ele>6.546</ele>
        <time>2019-08-20T13:13:37Z</time>
      </trkpt>
      <trkpt lat="40.873472" lon="-8.676516">
        <ele>8.096</ele>
        <time>2019-08-20T13:16:18Z</time>
      </trkpt>
      <trkpt lat="40.873190" lon="-8.676776">
        <ele>7.742</ele>
        <time>2019-08-20T13:17:06Z</time>
      </trkpt>
      <trkpt lat="40.873113" lon="-8.676258">
        <ele>7.269</ele>
        <time>2019-08-20T13:17:07Z</time>
      </trkpt>
      <trkpt lat="40.873589" lon="-8.677083">
        <ele>5.787</ele>
        <time>2019-08-20T13:18:22Z</time>
      </trkpt>
      <trkpt lat="40.873019" lon="-8.677479">
        <ele>6.142</ele>
        <time>2019-08-20T13:18:51Z</time>
      </trkpt>
      <trkpt lat="40.872661" lon="-8.677389">
        <ele>7.126</ele>
        <time>2019-08-20T13:20:49Z</time>
      </trkpt>
      <trkpt lat="40.872518" lon="-8.677542">
        <ele>6.608</ele>
        <time>2019-08-20T13:45:55Z</time>
      </trkpt>
      <trkpt lat="40.870352" lon="-8.677810">
        <ele>0.922</ele>
        <time>2019-08-20T13:46:55Z</time>
      </trkpt>
      <trkpt lat="40.870485" lon="-8.677388">
        <ele>5.678</ele>
        <time>2019-08-20T13:47:15Z</time>
      </trkpt>
      <trkpt lat="40.871084" lon="-8.676840">
        <ele>6.610</ele>
        <time>2019-08-20T13:47:48Z</time>
      </trkpt>
      <trkpt lat="40.869997" lon="-8.673596">
        <ele>5.181</ele>
        <time>2019-08-20T13:48:42Z</time>
      </trkpt>
      <trkpt lat="40.871129" lon="-8.671546">
        <ele>8.912</ele>
        <time>2019-08-20T13:49:18Z</time>
      </trkpt>
      <trkpt lat="40.871175" lon="-8.671161">
        <ele>8.132</ele>
        <time>2019-08-20T13:49:24Z</time>
      </trkpt>
      <trkpt lat="40.865339" lon="-8.657140">
        <ele>4.938</ele>
        <time>2019-08-20T13:52:40Z</time>
      </trkpt>
      <trkpt lat="40.864895" lon="-8.656865">
        <ele>4.455</ele>
        <time>2019-08-20T13:52:50Z</time>
      </trkpt>
      <trkpt lat="40.858554" lon="-8.658856">
        <ele>0.097</ele>
        <time>2019-08-20T13:54:31Z</time>
      </trkpt>
      <trkpt lat="40.848594" lon="-8.659447">
        <ele>0.923</ele>
        <time>2019-08-20T13:57:09Z</time>
      </trkpt>
      <trkpt lat="40.847651" lon="-8.659995">
        <ele>0.525</ele>
        <time>2019-08-20T13:57:24Z</time>
      </trkpt>
      <trkpt lat="40.845835" lon="-8.662363">
        <ele>4.008</ele>
        <time>2019-08-20T13:58:22Z</time>
      </trkpt>
      <trkpt lat="40.843953" lon="-8.663054">
        <ele>4.853</ele>
        <time>2019-08-20T13:59:22Z</time>
      </trkpt>
      <trkpt lat="40.840470" lon="-8.663982">
        <ele>0.679</ele>
        <time>2019-08-20T14:00:21Z</time>
      </trkpt>
      <trkpt lat="40.830575" lon="-8.664637">
        <ele>3.991</ele>
        <time>2019-08-20T14:03:37Z</time>
      </trkpt>
      <trkpt lat="40.829077" lon="-8.665144">
        <ele>1.252</ele>
        <time>2019-08-20T14:04:01Z</time>
      </trkpt>
      <trkpt lat="40.819630" lon="-8.669544">
        <ele>2.213</ele>
        <time>2019-08-20T14:06:37Z</time>
      </trkpt>
      <trkpt lat="40.805301" lon="-8.672654">
        <ele>0.983</ele>
        <time>2019-08-20T14:10:24Z</time>
      </trkpt>
      <trkpt lat="40.800561" lon="-8.674546">
        <ele>3.079</ele>
        <time>2019-08-20T14:11:43Z</time>
      </trkpt>
      <trkpt lat="40.799866" lon="-8.674557">
        <ele>2.446</ele>
        <time>2019-08-20T14:11:54Z</time>
      </trkpt>
      <trkpt lat="40.795861" lon="-8.673488">
        <ele>-0.475</ele>
        <time>2019-08-20T14:13:02Z</time>
      </trkpt>
      <trkpt lat="40.792140" lon="-8.674490">
        <ele>0.228</ele>
        <time>2019-08-20T14:14:04Z</time>
      </trkpt>
      <trkpt lat="40.791467" lon="-8.674925">
        <ele>-1.020</ele>
        <time>2019-08-20T14:14:16Z</time>
      </trkpt>
      <trkpt lat="40.791068" lon="-8.675566">
        <ele>-1.808</ele>
        <time>2019-08-20T14:14:27Z</time>
      </trkpt>
      <trkpt lat="40.790673" lon="-8.675887">
        <ele>-0.391</ele>
        <time>2019-08-20T14:14:35Z</time>
      </trkpt>
      <trkpt lat="40.788607" lon="-8.679288">
        <ele>0.647</ele>
        <time>2019-08-20T14:15:32Z</time>
      </trkpt>
      <trkpt lat="40.788315" lon="-8.680093">
        <ele>-1.319</ele>
        <time>2019-08-20T14:15:45Z</time>
      </trkpt>
      <trkpt lat="40.787831" lon="-8.680538">
        <ele>-0.430</ele>
        <time>2019-08-20T14:16:32Z</time>
      </trkpt>
      <trkpt lat="40.782361" lon="-8.688092">
        <ele>2.461</ele>
        <time>2019-08-20T14:18:50Z</time>
      </trkpt>
      <trkpt lat="40.775701" lon="-8.692842">
        <ele>-1.331</ele>
        <time>2019-08-20T14:20:55Z</time>
      </trkpt>
      <trkpt lat="40.775206" lon="-8.692896">
        <ele>1.637</ele>
        <time>2019-08-20T14:21:03Z</time>
      </trkpt>
      <trkpt lat="40.770170" lon="-8.695140">
        <ele>1.784</ele>
        <time>2019-08-20T14:22:33Z</time>
      </trkpt>
      <trkpt lat="40.768232" lon="-8.695753">
        <ele>0.044</ele>
        <time>2019-08-20T14:23:06Z</time>
      </trkpt>
      <trkpt lat="40.767537" lon="-8.696276">
        <ele>-0.105</ele>
        <time>2019-08-20T14:23:19Z</time>
      </trkpt>
      <trkpt lat="40.766000" lon="-8.698305">
        <ele>2.415</ele>
        <time>2019-08-20T14:23:57Z</time>
      </trkpt>
      <trkpt lat="40.764603" lon="-8.701951">
        <ele>5.208</ele>
        <time>2019-08-20T14:25:07Z</time>
      </trkpt>
      <trkpt lat="40.764779" lon="-8.710884">
        <ele>7.258</ele>
        <time>2019-08-20T14:27:37Z</time>
      </trkpt>
      <trkpt lat="40.764477" lon="-8.711333">
        <ele>7.274</ele>
        <time>2019-08-20T14:27:49Z</time>
      </trkpt>
      <trkpt lat="40.763020" lon="-8.711802">
        <ele>6.276</ele>
        <time>2019-08-20T14:29:14Z</time>
      </trkpt>
      <trkpt lat="40.761112" lon="-8.712974">
        <ele>4.927</ele>
        <time>2019-08-20T14:30:15Z</time>
      </trkpt>
      <trkpt lat="40.760720" lon="-8.712950">
        <ele>7.218</ele>
        <time>2019-08-20T14:30:29Z</time>
      </trkpt>
      <trkpt lat="40.760996" lon="-8.710871">
        <ele>3.918</ele>
        <time>2019-08-20T14:33:44Z</time>
      </trkpt>
      <trkpt lat="40.760826" lon="-8.711076">
        <ele>3.134</ele>
        <time>2019-08-20T14:39:50Z</time>
      </trkpt>
      <trkpt lat="40.760988" lon="-8.711279">
        <ele>3.861</ele>
        <time>2019-08-20T15:01:46Z</time>
      </trkpt>
      <trkpt lat="40.760804" lon="-8.710906">
        <ele>3.791</ele>
        <time>2019-08-20T15:02:23Z</time>
      </trkpt>
      <trkpt lat="40.760759" lon="-8.709945">
        <ele>5.281</ele>
        <time>2019-08-20T15:02:56Z</time>
      </trkpt>
      <trkpt lat="40.760063" lon="-8.709904">
        <ele>3.819</ele>
        <time>2019-08-20T15:03:24Z</time>
      </trkpt>
      <trkpt lat="40.759975" lon="-8.708682">
        <ele>2.908</ele>
        <time>2019-08-20T15:03:54Z</time>
      </trkpt>
      <trkpt lat="40.759313" lon="-8.708569">
        <ele>4.083</ele>
        <time>2019-08-20T15:04:14Z</time>
      </trkpt>
      <trkpt lat="40.759241" lon="-8.703007">
        <ele>4.789</ele>
        <time>2019-08-20T15:05:42Z</time>
      </trkpt>
      <trkpt lat="40.758931" lon="-8.701629">
        <ele>3.271</ele>
        <time>2019-08-20T15:06:17Z</time>
      </trkpt>
      <trkpt lat="40.757847" lon="-8.701906">
        <ele>4.192</ele>
        <time>2019-08-20T15:06:49Z</time>
      </trkpt>
      <trkpt lat="40.757795" lon="-8.701488">
        <ele>1.083</ele>
        <time>2019-08-20T15:07:29Z</time>
      </trkpt>
      <trkpt lat="40.757747" lon="-8.701823">
        <ele>3.483</ele>
        <time>2019-08-20T15:09:50Z</time>
      </trkpt>
      <trkpt lat="40.757540" lon="-8.701958">
        <ele>5.049</ele>
        <time>2019-08-20T15:09:58Z</time>
      </trkpt>
      <trkpt lat="40.756026" lon="-8.702143">
        <ele>4.736</ele>
        <time>2019-08-20T15:10:33Z</time>
      </trkpt>
      <trkpt lat="40.754964" lon="-8.702138">
        <ele>2.992</ele>
        <time>2019-08-20T15:10:54Z</time>
      </trkpt>
      <trkpt lat="40.754724" lon="-8.701959">
        <ele>4.073</ele>
        <time>2019-08-20T15:11:01Z</time>
      </trkpt>
      <trkpt lat="40.755029" lon="-8.702191">
        <ele>2.920</ele>
        <time>2019-08-20T15:11:34Z</time>
      </trkpt>
      <trkpt lat="40.754930" lon="-8.702278">
        <ele>3.608</ele>
        <time>2019-08-20T15:11:39Z</time>
      </trkpt>
      <trkpt lat="40.752938" lon="-8.702004">
        <ele>4.273</ele>
        <time>2019-08-20T15:12:18Z</time>
      </trkpt>
      <trkpt lat="40.740007" lon="-8.697118">
        <ele>4.989</ele>
        <time>2019-08-20T15:15:35Z</time>
      </trkpt>
      <trkpt lat="40.739128" lon="-8.696900">
        <ele>5.551</ele>
        <time>2019-08-20T15:15:47Z</time>
      </trkpt>
      <trkpt lat="40.731289" lon="-8.698493">
        <ele>3.472</ele>
        <time>2019-08-20T15:17:44Z</time>
      </trkpt>
      <trkpt lat="40.727100" lon="-8.698908">
        <ele>0.243</ele>
        <time>2019-08-20T15:18:49Z</time>
      </trkpt>
      <trkpt lat="40.724293" lon="-8.699764">
        <ele>5.013</ele>
        <time>2019-08-20T15:19:33Z</time>
      </trkpt>
      <trkpt lat="40.723595" lon="-8.699734">
        <ele>2.059</ele>
        <time>2019-08-20T15:19:44Z</time>
      </trkpt>
      <trkpt lat="40.721015" lon="-8.699176">
        <ele>1.116</ele>
        <time>2019-08-20T15:20:25Z</time>
      </trkpt>
      <trkpt lat="40.718230" lon="-8.700241">
        <ele>1.592</ele>
        <time>2019-08-20T15:21:08Z</time>
      </trkpt>
      <trkpt lat="40.717645" lon="-8.700659">
        <ele>1.273</ele>
        <time>2019-08-20T15:21:18Z</time>
      </trkpt>
      <trkpt lat="40.713653" lon="-8.707005">
        <ele>2.820</ele>
        <time>2019-08-20T15:23:04Z</time>
      </trkpt>
      <trkpt lat="40.707995" lon="-8.711925">
        <ele>2.908</ele>
        <time>2019-08-20T15:24:53Z</time>
      </trkpt>
      <trkpt lat="40.705544" lon="-8.714769">
        <ele>2.163</ele>
        <time>2019-08-20T15:25:48Z</time>
      </trkpt>
      <trkpt lat="40.700125" lon="-8.718411">
        <ele>2.729</ele>
        <time>2019-08-20T15:27:25Z</time>
      </trkpt>
      <trkpt lat="40.696313" lon="-8.720381">
        <ele>1.741</ele>
        <time>2019-08-20T15:28:30Z</time>
      </trkpt>
      <trkpt lat="40.692681" lon="-8.720823">
        <ele>4.942</ele>
        <time>2019-08-20T15:29:31Z</time>
      </trkpt>
      <trkpt lat="40.689801" lon="-8.719693">
        <ele>5.153</ele>
        <time>2019-08-20T15:30:14Z</time>
      </trkpt>
      <trkpt lat="40.689046" lon="-8.719668">
        <ele>1.673</ele>
        <time>2019-08-20T15:30:49Z</time>
      </trkpt>
      <trkpt lat="40.689089" lon="-8.719478">
        <ele>1.769</ele>
        <time>2019-08-20T15:31:13Z</time>
      </trkpt>
      <trkpt lat="40.688925" lon="-8.719675">
        <ele>1.126</ele>
        <time>2019-08-20T15:32:15Z</time>
      </trkpt>
      <trkpt lat="40.687636" lon="-8.719770">
        <ele>2.734</ele>
        <time>2019-08-20T15:32:42Z</time>
      </trkpt>
      <trkpt lat="40.684143" lon="-8.718969">
        <ele>1.055</ele>
        <time>2019-08-20T15:33:37Z</time>
      </trkpt>
      <trkpt lat="40.679878" lon="-8.718195">
        <ele>2.410</ele>
        <time>2019-08-20T15:34:42Z</time>
      </trkpt>
      <trkpt lat="40.677929" lon="-8.718269">
        <ele>0.408</ele>
        <time>2019-08-20T15:35:12Z</time>
      </trkpt>
      <trkpt lat="40.677350" lon="-8.718555">
        <ele>0.467</ele>
        <time>2019-08-20T15:35:21Z</time>
      </trkpt>
      <trkpt lat="40.672912" lon="-8.722375">
        <ele>3.053</ele>
        <time>2019-08-20T15:36:44Z</time>
      </trkpt>
      <trkpt lat="40.670433" lon="-8.725150">
        <ele>7.985</ele>
        <time>2019-08-20T15:37:36Z</time>
      </trkpt>
      <trkpt lat="40.663305" lon="-8.729812">
        <ele>1.516</ele>
        <time>2019-08-20T15:39:43Z</time>
      </trkpt>
      <trkpt lat="40.662922" lon="-8.728812">
        <ele>3.477</ele>
        <time>2019-08-20T15:40:16Z</time>
      </trkpt>
      <trkpt lat="40.663408" lon="-8.728366">
        <ele>3.127</ele>
        <time>2019-08-20T15:40:30Z</time>
      </trkpt>
      <trkpt lat="40.663442" lon="-8.728173">
        <ele>2.883</ele>
        <time>2019-08-20T15:40:34Z</time>
      </trkpt>
      <trkpt lat="40.663034" lon="-8.727245">
        <ele>3.030</ele>
        <time>2019-08-20T15:40:55Z</time>
      </trkpt>
      <trkpt lat="40.662523" lon="-8.727435">
        <ele>2.898</ele>
        <time>2019-08-20T15:41:08Z</time>
      </trkpt>
      <trkpt lat="40.661685" lon="-8.728453">
        <ele>3.015</ele>
        <time>2019-08-20T15:41:42Z</time>
      </trkpt>
      <trkpt lat="40.660967" lon="-8.730143">
        <ele>0.026</ele>
        <time>2019-08-20T15:42:36Z</time>
      </trkpt>
      <trkpt lat="40.661058" lon="-8.729687">
        <ele>0.808</ele>
        <time>2019-08-20T15:43:02Z</time>
      </trkpt>
      <trkpt lat="40.661764" lon="-8.728285">
        <ele>2.513</ele>
        <time>2019-08-20T15:44:09Z</time>
      </trkpt>
      <trkpt lat="40.661031" lon="-8.729710">
        <ele>0.739</ele>
        <time>2019-08-20T15:47:35Z</time>
      </trkpt>
      <trkpt lat="40.661190" lon="-8.729988">
        <ele>0.651</ele>
        <time>2019-08-20T15:48:10Z</time>
      </trkpt>
      <trkpt lat="40.661077" lon="-8.729929">
        <ele>0.232</ele>
        <time>2019-08-20T15:52:44Z</time>
      </trkpt>
      <trkpt lat="40.660838" lon="-8.730233">
        <ele>0.033</ele>
        <time>2019-08-20T15:58:24Z</time>
      </trkpt>
      <trkpt lat="40.661032" lon="-8.730138">
        <ele>0.063</ele>
        <time>2019-08-20T17:07:06Z</time>
      </trkpt>
      <trkpt lat="40.660907" lon="-8.730020">
        <ele>0.039</ele>
        <time>2019-08-20T17:07:45Z</time>
      </trkpt>
      <trkpt lat="40.661055" lon="-8.729862">
        <ele>0.456</ele>
        <time>2019-08-20T17:08:45Z</time>
      </trkpt>
      <trkpt lat="40.660761" lon="-8.729621">
        <ele>0.814</ele>
        <time>2019-08-20T17:11:10Z</time>
      </trkpt>
      <trkpt lat="40.659809" lon="-8.731013">
        <ele>0.054</ele>
        <time>2019-08-20T17:23:23Z</time>
      </trkpt>
      <trkpt lat="40.657647" lon="-8.732908">
        <ele>0.009</ele>
        <time>2019-08-20T17:25:39Z</time>
      </trkpt>
      <trkpt lat="40.655675" lon="-8.733276">
        <ele>0.008</ele>
        <time>2019-08-20T17:27:22Z</time>
      </trkpt>
      <trkpt lat="40.654590" lon="-8.733010">
        <ele>0.025</ele>
        <time>2019-08-20T17:28:20Z</time>
      </trkpt>
      <trkpt lat="40.653400" lon="-8.732198">
        <ele>0.031</ele>
        <time>2019-08-20T17:29:30Z</time>
      </trkpt>
      <trkpt lat="40.652254" lon="-8.730660">
        <ele>0.093</ele>
        <time>2019-08-20T17:31:03Z</time>
      </trkpt>
      <trkpt lat="40.651418" lon="-8.729785">
        <ele>0.074</ele>
        <time>2019-08-20T17:32:16Z</time>
      </trkpt>
      <trkpt lat="40.650376" lon="-8.729412">
        <ele>0.055</ele>
        <time>2019-08-20T17:33:38Z</time>
      </trkpt>
      <trkpt lat="40.650060" lon="-8.729748">
        <ele>3.115</ele>
        <time>2019-08-20T17:38:29Z</time>
      </trkpt>
      <trkpt lat="40.649739" lon="-8.730456">
        <ele>3.431</ele>
        <time>2019-08-20T17:38:55Z</time>
      </trkpt>
      <trkpt lat="40.650227" lon="-8.730793">
        <ele>3.718</ele>
        <time>2019-08-20T17:39:16Z</time>
      </trkpt>
      <trkpt lat="40.650234" lon="-8.731290">
        <ele>2.557</ele>
        <time>2019-08-20T17:39:26Z</time>
      </trkpt>
      <trkpt lat="40.647452" lon="-8.734760">
        <ele>0.900</ele>
        <time>2019-08-20T17:40:45Z</time>
      </trkpt>
      <trkpt lat="40.647120" lon="-8.734257">
        <ele>-0.620</ele>
        <time>2019-08-20T17:40:54Z</time>
      </trkpt>
      <trkpt lat="40.645853" lon="-8.733512">
        <ele>1.308</ele>
        <time>2019-08-20T17:41:20Z</time>
      </trkpt>
      <trkpt lat="40.645267" lon="-8.731421">
        <ele>1.069</ele>
        <time>2019-08-20T17:42:49Z</time>
      </trkpt>
      <trkpt lat="40.644802" lon="-8.730653">
        <ele>2.855</ele>
        <time>2019-08-20T17:43:03Z</time>
      </trkpt>
      <trkpt lat="40.641640" lon="-8.727503">
        <ele>0.937</ele>
        <time>2019-08-20T17:44:05Z</time>
      </trkpt>
      <trkpt lat="40.640218" lon="-8.726430">
        <ele>4.928</ele>
        <time>2019-08-20T17:44:32Z</time>
      </trkpt>
      <trkpt lat="40.639376" lon="-8.726389">
        <ele>2.829</ele>
        <time>2019-08-20T17:44:52Z</time>
      </trkpt>
      <trkpt lat="40.633628" lon="-8.729086">
        <ele>2.859</ele>
        <time>2019-08-20T17:46:32Z</time>
      </trkpt>
      <trkpt lat="40.633259" lon="-8.729511">
        <ele>2.935</ele>
        <time>2019-08-20T17:46:46Z</time>
      </trkpt>
      <trkpt lat="40.632775" lon="-8.729416">
        <ele>0.962</ele>
        <time>2019-08-20T17:46:54Z</time>
      </trkpt>
      <trkpt lat="40.628342" lon="-8.731153">
        <ele>3.817</ele>
        <time>2019-08-20T17:48:11Z</time>
      </trkpt>
      <trkpt lat="40.627999" lon="-8.731849">
        <ele>4.487</ele>
        <time>2019-08-20T17:48:23Z</time>
      </trkpt>
      <trkpt lat="40.628087" lon="-8.732666">
        <ele>6.615</ele>
        <time>2019-08-20T17:48:45Z</time>
      </trkpt>
      <trkpt lat="40.630696" lon="-8.739956">
        <ele>0.008</ele>
        <time>2019-08-20T17:51:36Z</time>
      </trkpt>
      <trkpt lat="40.631912" lon="-8.742834">
        <ele>0.645</ele>
        <time>2019-08-20T17:52:22Z</time>
      </trkpt>
      <trkpt lat="40.632152" lon="-8.743620">
        <ele>3.561</ele>
        <time>2019-08-20T17:52:43Z</time>
      </trkpt>
      <trkpt lat="40.632296" lon="-8.745340">
        <ele>3.023</ele>
        <time>2019-08-20T17:53:40Z</time>
      </trkpt>
      <trkpt lat="40.632494" lon="-8.745705">
        <ele>4.164</ele>
        <time>2019-08-20T17:53:47Z</time>
      </trkpt>
      <trkpt lat="40.633685" lon="-8.745962">
        <ele>7.715</ele>
        <time>2019-08-20T17:54:19Z</time>
      </trkpt>
      <trkpt lat="40.636171" lon="-8.745971">
        <ele>6.045</ele>
        <time>2019-08-20T17:55:24Z</time>
      </trkpt>
      <trkpt lat="40.636326" lon="-8.745131">
        <ele>4.241</ele>
        <time>2019-08-20T17:55:42Z</time>
      </trkpt>
      <trkpt lat="40.638020" lon="-8.745029">
        <ele>5.138</ele>
        <time>2019-08-20T17:56:47Z</time>
      </trkpt>
      <trkpt lat="40.638206" lon="-8.744618">
        <ele>4.988</ele>
        <time>2019-08-20T17:57:00Z</time>
      </trkpt>
      <trkpt lat="40.638571" lon="-8.744637">
        <ele>7.424</ele>
        <time>2019-08-20T17:57:33Z</time>
      </trkpt>
      <trkpt lat="40.638371" lon="-8.744681">
        <ele>6.226</ele>
        <time>2019-08-20T17:58:10Z</time>
      </trkpt>
      <trkpt lat="40.638459" lon="-8.744519">
        <ele>7.108</ele>
        <time>2019-08-20T18:02:35Z</time>
      </trkpt>
      <trkpt lat="40.638500" lon="-8.744660">
        <ele>6.962</ele>
        <time>2019-08-20T18:02:57Z</time>
      </trkpt>
      <trkpt lat="40.638484" lon="-8.744482">
        <ele>7.578</ele>
        <time>2019-08-20T18:03:14Z</time>
      </trkpt>
      <trkpt lat="40.638277" lon="-8.744458">
        <ele>5.480</ele>
        <time>2019-08-20T18:03:25Z</time>
      </trkpt>
      <trkpt lat="40.638613" lon="-8.744601">
        <ele>7.941</ele>
        <time>2019-08-20T18:04:46Z</time>
      </trkpt>
      <trkpt lat="40.638321" lon="-8.744715">
        <ele>5.992</ele>
        <time>2019-08-20T18:07:48Z</time>
      </trkpt>
      <trkpt lat="40.638543" lon="-8.744716">
        <ele>6.852</ele>
        <time>2019-08-20T18:08:27Z</time>
      </trkpt>
      <trkpt lat="40.638731" lon="-8.743775">
        <ele>8.628</ele>
        <time>2019-08-20T18:08:51Z</time>
      </trkpt>
      <trkpt lat="40.639392" lon="-8.742660">
        <ele>3.935</ele>
        <time>2019-08-20T18:10:02Z</time>
      </trkpt>
      <trkpt lat="40.639037" lon="-8.742563">
        <ele>4.666</ele>
        <time>2019-08-20T18:10:56Z</time>
      </trkpt>
      <trkpt lat="40.638970" lon="-8.742661">
        <ele>5.629</ele>
        <time>2019-08-20T18:11:34Z</time>
      </trkpt>
      <trkpt lat="40.639536" lon="-8.741977">
        <ele>2.021</ele>
        <time>2019-08-20T18:13:59Z</time>
      </trkpt>
      <trkpt lat="40.639366" lon="-8.742657">
        <ele>4.008</ele>
        <time>2019-08-20T18:15:18Z</time>
      </trkpt>
      <trkpt lat="40.639239" lon="-8.742397">
        <ele>3.410</ele>
        <time>2019-08-20T18:17:31Z</time>
      </trkpt>
      <trkpt lat="40.639286" lon="-8.742501">
        <ele>3.636</ele>
        <time>2019-08-20T18:17:57Z</time>
      </trkpt>
      <trkpt lat="40.642942" lon="-8.747059">
        <ele>6.976</ele>
        <time>2019-08-21T09:40:33Z</time>
      </trkpt>
      <trkpt lat="40.642897" lon="-8.746868">
        <ele>6.890</ele>
        <time>2019-08-21T09:40:58Z</time>
      </trkpt>
      <trkpt lat="40.642900" lon="-8.747266">
        <ele>7.019</ele>
        <time>2019-08-21T09:41:13Z</time>
      </trkpt>
      <trkpt lat="40.642777" lon="-8.747319">
        <ele>7.708</ele>
        <time>2019-08-21T09:41:16Z</time>
      </trkpt>
      <trkpt lat="40.642587" lon="-8.747160">
        <ele>8.511</ele>
        <time>2019-08-21T09:41:23Z</time>
      </trkpt>
      <trkpt lat="40.641649" lon="-8.747163">
        <ele>9.447</ele>
        <time>2019-08-21T09:41:50Z</time>
      </trkpt>
      <trkpt lat="40.641612" lon="-8.747025">
        <ele>10.239</ele>
        <time>2019-08-21T10:05:41Z</time>
      </trkpt>
      <trkpt lat="40.641555" lon="-8.747182">
        <ele>8.984</ele>
        <time>2019-08-21T10:07:48Z</time>
      </trkpt>
      <trkpt lat="40.637418" lon="-8.746985">
        <ele>6.033</ele>
        <time>2019-08-21T10:09:20Z</time>
      </trkpt>
      <trkpt lat="40.633604" lon="-8.747004">
        <ele>7.747</ele>
        <time>2019-08-21T10:10:36Z</time>
      </trkpt>
      <trkpt lat="40.632570" lon="-8.746608">
        <ele>3.422</ele>
        <time>2019-08-21T10:10:57Z</time>
      </trkpt>
      <trkpt lat="40.632119" lon="-8.745899">
        <ele>4.467</ele>
        <time>2019-08-21T10:11:10Z</time>
      </trkpt>
      <trkpt lat="40.631720" lon="-8.745695">
        <ele>3.685</ele>
        <time>2019-08-21T10:11:17Z</time>
      </trkpt>
      <trkpt lat="40.631508" lon="-8.745803">
        <ele>3.689</ele>
        <time>2019-08-21T10:11:21Z</time>
      </trkpt>
      <trkpt lat="40.631054" lon="-8.746656">
        <ele>1.117</ele>
        <time>2019-08-21T10:11:36Z</time>
      </trkpt>
      <trkpt lat="40.630592" lon="-8.746910">
        <ele>1.008</ele>
        <time>2019-08-21T10:11:45Z</time>
      </trkpt>
      <trkpt lat="40.627256" lon="-8.746882">
        <ele>3.912</ele>
        <time>2019-08-21T10:13:09Z</time>
      </trkpt>
      <trkpt lat="40.626625" lon="-8.746725">
        <ele>3.738</ele>
        <time>2019-08-21T10:13:26Z</time>
      </trkpt>
      <trkpt lat="40.626067" lon="-8.746982">
        <ele>3.090</ele>
        <time>2019-08-21T10:13:40Z</time>
      </trkpt>
      <trkpt lat="40.625103" lon="-8.747808">
        <ele>2.745</ele>
        <time>2019-08-21T10:14:36Z</time>
      </trkpt>
      <trkpt lat="40.623193" lon="-8.748846">
        <ele>3.944</ele>
        <time>2019-08-21T10:15:19Z</time>
      </trkpt>
      <trkpt lat="40.622097" lon="-8.749109">
        <ele>3.318</ele>
        <time>2019-08-21T10:15:59Z</time>
      </trkpt>
      <trkpt lat="40.621976" lon="-8.749747">
        <ele>5.873</ele>
        <time>2019-08-21T10:16:30Z</time>
      </trkpt>
      <trkpt lat="40.621291" lon="-8.749993">
        <ele>6.328</ele>
        <time>2019-08-21T10:16:51Z</time>
      </trkpt>
      <trkpt lat="40.620519" lon="-8.750513">
        <ele>3.898</ele>
        <time>2019-08-21T10:17:12Z</time>
      </trkpt>
      <trkpt lat="40.619652" lon="-8.750811">
        <ele>4.215</ele>
        <time>2019-08-21T10:17:36Z</time>
      </trkpt>
      <trkpt lat="40.619603" lon="-8.751797">
        <ele>2.026</ele>
        <time>2019-08-21T10:18:03Z</time>
      </trkpt>
      <trkpt lat="40.619480" lon="-8.751980">
        <ele>0.008</ele>
        <time>2019-08-21T10:18:08Z</time>
      </trkpt>
      <trkpt lat="40.617829" lon="-8.752526">
        <ele>10.823</ele>
        <time>2019-08-21T10:18:58Z</time>
      </trkpt>
      <trkpt lat="40.616880" lon="-8.752628">
        <ele>6.589</ele>
        <time>2019-08-21T10:19:21Z</time>
      </trkpt>
      <trkpt lat="40.616788" lon="-8.751074">
        <ele>6.661</ele>
        <time>2019-08-21T10:20:12Z</time>
      </trkpt>
      <trkpt lat="40.612387" lon="-8.751528">
        <ele>9.156</ele>
        <time>2019-08-21T10:22:35Z</time>
      </trkpt>
      <trkpt lat="40.611111" lon="-8.751143">
        <ele>5.035</ele>
        <time>2019-08-21T10:23:14Z</time>
      </trkpt>
      <trkpt lat="40.611379" lon="-8.749633">
        <ele>4.049</ele>
        <time>2019-08-21T10:24:07Z</time>
      </trkpt>
      <trkpt lat="40.612115" lon="-8.749969">
        <ele>4.394</ele>
        <time>2019-08-21T10:25:29Z</time>
      </trkpt>
      <trkpt lat="40.612137" lon="-8.750325">
        <ele>6.329</ele>
        <time>2019-08-21T10:26:20Z</time>
      </trkpt>
      <trkpt lat="40.611943" lon="-8.750277">
        <ele>6.041</ele>
        <time>2019-08-21T10:26:30Z</time>
      </trkpt>
      <trkpt lat="40.612132" lon="-8.750292">
        <ele>6.181</ele>
        <time>2019-08-21T10:30:27Z</time>
      </trkpt>
      <trkpt lat="40.612371" lon="-8.750007">
        <ele>4.009</ele>
        <time>2019-08-21T10:30:45Z</time>
      </trkpt>
      <trkpt lat="40.612851" lon="-8.750061">
        <ele>4.408</ele>
        <time>2019-08-21T10:34:39Z</time>
      </trkpt>
      <trkpt lat="40.613198" lon="-8.749850">
        <ele>4.568</ele>
        <time>2019-08-21T10:34:57Z</time>
      </trkpt>
      <trkpt lat="40.615587" lon="-8.749699">
        <ele>3.784</ele>
        <time>2019-08-21T10:56:39Z</time>
      </trkpt>
      <trkpt lat="40.615312" lon="-8.749545">
        <ele>4.676</ele>
        <time>2019-08-21T10:56:57Z</time>
      </trkpt>
      <trkpt lat="40.613132" lon="-8.749596">
        <ele>3.471</ele>
        <time>2019-08-21T10:57:42Z</time>
      </trkpt>
      <trkpt lat="40.612488" lon="-8.749751">
        <ele>3.130</ele>
        <time>2019-08-21T10:57:55Z</time>
      </trkpt>
      <trkpt lat="40.610539" lon="-8.749198">
        <ele>3.244</ele>
        <time>2019-08-21T10:58:31Z</time>
      </trkpt>
      <trkpt lat="40.607153" lon="-8.748922">
        <ele>5.529</ele>
        <time>2019-08-21T10:59:35Z</time>
      </trkpt>
      <trkpt lat="40.606951" lon="-8.748751">
        <ele>4.074</ele>
        <time>2019-08-21T10:59:46Z</time>
      </trkpt>
      <trkpt lat="40.602768" lon="-8.748565">
        <ele>0.059</ele>
        <time>2019-08-21T11:01:11Z</time>
      </trkpt>
      <trkpt lat="40.594542" lon="-8.751620">
        <ele>3.303</ele>
        <time>2019-08-21T11:06:09Z</time>
      </trkpt>
      <trkpt lat="40.584389" lon="-8.752509">
        <ele>0.323</ele>
        <time>2019-08-21T11:09:42Z</time>
      </trkpt>
      <trkpt lat="40.579800" lon="-8.754709">
        <ele>2.308</ele>
        <time>2019-08-21T11:11:09Z</time>
      </trkpt>
      <trkpt lat="40.577408" lon="-8.754945">
        <ele>3.339</ele>
        <time>2019-08-21T11:11:53Z</time>
      </trkpt>
      <trkpt lat="40.573829" lon="-8.756135">
        <ele>5.675</ele>
        <time>2019-08-21T11:12:57Z</time>
      </trkpt>
      <trkpt lat="40.572734" lon="-8.756287">
        <ele>2.577</ele>
        <time>2019-08-21T11:13:16Z</time>
      </trkpt>
      <trkpt lat="40.571581" lon="-8.756212">
        <ele>1.242</ele>
        <time>2019-08-21T11:13:36Z</time>
      </trkpt>
      <trkpt lat="40.570112" lon="-8.756536">
        <ele>2.171</ele>
        <time>2019-08-21T11:14:01Z</time>
      </trkpt>
      <trkpt lat="40.563670" lon="-8.757167">
        <ele>0.095</ele>
        <time>2019-08-21T11:16:23Z</time>
      </trkpt>
      <trkpt lat="40.562187" lon="-8.757500">
        <ele>0.040</ele>
        <time>2019-08-21T11:16:52Z</time>
      </trkpt>
      <trkpt lat="40.562196" lon="-8.757661">
        <ele>0.085</ele>
        <time>2019-08-21T11:17:00Z</time>
      </trkpt>
      <trkpt lat="40.562553" lon="-8.757794">
        <ele>0.026</ele>
        <time>2019-08-21T11:18:01Z</time>
      </trkpt>
      <trkpt lat="40.562453" lon="-8.758051">
        <ele>0.047</ele>
        <time>2019-08-21T11:18:07Z</time>
      </trkpt>
      <trkpt lat="40.562058" lon="-8.757613">
        <ele>0.011</ele>
        <time>2019-08-21T11:18:18Z</time>
      </trkpt>
      <trkpt lat="40.561264" lon="-8.757797">
        <ele>3.608</ele>
        <time>2019-08-21T11:18:33Z</time>
      </trkpt>
      <trkpt lat="40.560595" lon="-8.758529">
        <ele>3.016</ele>
        <time>2019-08-21T11:19:00Z</time>
      </trkpt>
      <trkpt lat="40.560090" lon="-8.756761">
        <ele>2.052</ele>
        <time>2019-08-21T11:19:31Z</time>
      </trkpt>
      <trkpt lat="40.559943" lon="-8.757371">
        <ele>1.124</ele>
        <time>2019-08-21T11:19:42Z</time>
      </trkpt>
      <trkpt lat="40.558896" lon="-8.759273">
        <ele>1.069</ele>
        <time>2019-08-21T11:20:20Z</time>
      </trkpt>
      <trkpt lat="40.557072" lon="-8.761650">
        <ele>1.688</ele>
        <time>2019-08-21T11:21:11Z</time>
      </trkpt>
      <trkpt lat="40.556026" lon="-8.762703">
        <ele>0.392</ele>
        <time>2019-08-21T11:21:36Z</time>
      </trkpt>
      <trkpt lat="40.555141" lon="-8.764091">
        <ele>-0.547</ele>
        <time>2019-08-21T11:22:01Z</time>
      </trkpt>
      <trkpt lat="40.554489" lon="-8.764702">
        <ele>0.142</ele>
        <time>2019-08-21T11:22:23Z</time>
      </trkpt>
      <trkpt lat="40.552981" lon="-8.765530">
        <ele>2.022</ele>
        <time>2019-08-21T11:23:50Z</time>
      </trkpt>
      <trkpt lat="40.552200" lon="-8.766945">
        <ele>1.162</ele>
        <time>2019-08-21T11:24:13Z</time>
      </trkpt>
      <trkpt lat="40.551035" lon="-8.768116">
        <ele>0.908</ele>
        <time>2019-08-21T11:24:39Z</time>
      </trkpt>
      <trkpt lat="40.550277" lon="-8.768262">
        <ele>-0.308</ele>
        <time>2019-08-21T11:25:18Z</time>
      </trkpt>
      <trkpt lat="40.549221" lon="-8.767931">
        <ele>0.296</ele>
        <time>2019-08-21T11:25:39Z</time>
      </trkpt>
      <trkpt lat="40.547707" lon="-8.768014">
        <ele>1.342</ele>
        <time>2019-08-21T11:26:04Z</time>
      </trkpt>
      <trkpt lat="40.545428" lon="-8.767597">
        <ele>1.284</ele>
        <time>2019-08-21T11:26:40Z</time>
      </trkpt>
      <trkpt lat="40.544193" lon="-8.767128">
        <ele>-1.549</ele>
        <time>2019-08-21T11:27:00Z</time>
      </trkpt>
      <trkpt lat="40.542798" lon="-8.766879">
        <ele>0.998</ele>
        <time>2019-08-21T11:27:22Z</time>
      </trkpt>
      <trkpt lat="40.541489" lon="-8.765837">
        <ele>1.682</ele>
        <time>2019-08-21T11:27:46Z</time>
      </trkpt>
      <trkpt lat="40.539301" lon="-8.765181">
        <ele>0.517</ele>
        <time>2019-08-21T11:28:21Z</time>
      </trkpt>
      <trkpt lat="40.535383" lon="-8.765465">
        <ele>-0.282</ele>
        <time>2019-08-21T11:29:24Z</time>
      </trkpt>
      <trkpt lat="40.533746" lon="-8.766183">
        <ele>2.573</ele>
        <time>2019-08-21T11:29:53Z</time>
      </trkpt>
      <trkpt lat="40.533106" lon="-8.766875">
        <ele>-1.085</ele>
        <time>2019-08-21T11:30:07Z</time>
      </trkpt>
      <trkpt lat="40.532276" lon="-8.767433">
        <ele>0.013</ele>
        <time>2019-08-21T11:30:23Z</time>
      </trkpt>
      <trkpt lat="40.531486" lon="-8.768430">
        <ele>0.108</ele>
        <time>2019-08-21T11:31:05Z</time>
      </trkpt>
      <trkpt lat="40.529572" lon="-8.769600">
        <ele>-0.371</ele>
        <time>2019-08-21T11:32:29Z</time>
      </trkpt>
      <trkpt lat="40.526604" lon="-8.773515">
        <ele>-0.737</ele>
        <time>2019-08-21T11:34:36Z</time>
      </trkpt>
      <trkpt lat="40.525026" lon="-8.773973">
        <ele>-0.119</ele>
        <time>2019-08-21T11:35:04Z</time>
      </trkpt>
      <trkpt lat="40.523708" lon="-8.773970">
        <ele>1.064</ele>
        <time>2019-08-21T11:35:26Z</time>
      </trkpt>
      <trkpt lat="40.520860" lon="-8.775188">
        <ele>0.743</ele>
        <time>2019-08-21T11:36:19Z</time>
      </trkpt>
      <trkpt lat="40.519429" lon="-8.774601">
        <ele>0.027</ele>
        <time>2019-08-21T11:36:54Z</time>
      </trkpt>
      <trkpt lat="40.518155" lon="-8.774627">
        <ele>0.432</ele>
        <time>2019-08-21T11:37:16Z</time>
      </trkpt>
      <trkpt lat="40.517224" lon="-8.774301">
        <ele>0.077</ele>
        <time>2019-08-21T11:37:32Z</time>
      </trkpt>
      <trkpt lat="40.515108" lon="-8.774866">
        <ele>1.042</ele>
        <time>2019-08-21T11:38:09Z</time>
      </trkpt>
      <trkpt lat="40.513705" lon="-8.774598">
        <ele>0.822</ele>
        <time>2019-08-21T11:38:35Z</time>
      </trkpt>
      <trkpt lat="40.512483" lon="-8.774657">
        <ele>-0.714</ele>
        <time>2019-08-21T11:38:56Z</time>
      </trkpt>
      <trkpt lat="40.511453" lon="-8.774875">
        <ele>0.008</ele>
        <time>2019-08-21T11:39:17Z</time>
      </trkpt>
      <trkpt lat="40.510316" lon="-8.769689">
        <ele>7.138</ele>
        <time>2019-08-21T11:40:49Z</time>
      </trkpt>
      <trkpt lat="40.503962" lon="-8.772412">
        <ele>13.224</ele>
        <time>2019-08-21T11:42:48Z</time>
      </trkpt>
      <trkpt lat="40.503553" lon="-8.772886">
        <ele>13.746</ele>
        <time>2019-08-21T11:42:57Z</time>
      </trkpt>
      <trkpt lat="40.502372" lon="-8.774987">
        <ele>13.051</ele>
        <time>2019-08-21T11:43:34Z</time>
      </trkpt>
      <trkpt lat="40.501180" lon="-8.776179">
        <ele>6.580</ele>
        <time>2019-08-21T11:44:00Z</time>
      </trkpt>
      <trkpt lat="40.500253" lon="-8.776780">
        <ele>6.674</ele>
        <time>2019-08-21T11:44:18Z</time>
      </trkpt>
      <trkpt lat="40.496507" lon="-8.778144">
        <ele>5.879</ele>
        <time>2019-08-21T11:45:25Z</time>
      </trkpt>
      <trkpt lat="40.494423" lon="-8.778793">
        <ele>8.154</ele>
        <time>2019-08-21T11:46:01Z</time>
      </trkpt>
      <trkpt lat="40.491500" lon="-8.779335">
        <ele>6.074</ele>
        <time>2019-08-21T11:46:50Z</time>
      </trkpt>
      <trkpt lat="40.488548" lon="-8.780463">
        <ele>6.556</ele>
        <time>2019-08-21T11:47:44Z</time>
      </trkpt>
      <trkpt lat="40.487105" lon="-8.780717">
        <ele>4.821</ele>
        <time>2019-08-21T11:48:19Z</time>
      </trkpt>
      <trkpt lat="40.479002" lon="-8.781807">
        <ele>5.508</ele>
        <time>2019-08-21T11:50:41Z</time>
      </trkpt>
      <trkpt lat="40.471485" lon="-8.782115">
        <ele>11.821</ele>
        <time>2019-08-21T11:53:07Z</time>
      </trkpt>
      <trkpt lat="40.471377" lon="-8.782325">
        <ele>10.967</ele>
        <time>2019-08-21T11:53:24Z</time>
      </trkpt>
      <trkpt lat="40.471556" lon="-8.783617">
        <ele>7.689</ele>
        <time>2019-08-21T11:53:50Z</time>
      </trkpt>
      <trkpt lat="40.467889" lon="-8.783400">
        <ele>7.994</ele>
        <time>2019-08-21T11:55:01Z</time>
      </trkpt>
      <trkpt lat="40.467344" lon="-8.783232">
        <ele>9.633</ele>
        <time>2019-08-21T11:55:14Z</time>
      </trkpt>
      <trkpt lat="40.465590" lon="-8.784067">
        <ele>7.387</ele>
        <time>2019-08-21T11:56:00Z</time>
      </trkpt>
      <trkpt lat="40.464438" lon="-8.784098">
        <ele>8.262</ele>
        <time>2019-08-21T11:56:23Z</time>
      </trkpt>
      <trkpt lat="40.462681" lon="-8.783892">
        <ele>8.067</ele>
        <time>2019-08-21T11:56:54Z</time>
      </trkpt>
      <trkpt lat="40.461935" lon="-8.783562">
        <ele>9.063</ele>
        <time>2019-08-21T11:57:11Z</time>
      </trkpt>
      <trkpt lat="40.460821" lon="-8.783308">
        <ele>9.044</ele>
        <time>2019-08-21T11:57:33Z</time>
      </trkpt>
      <trkpt lat="40.455970" lon="-8.782518">
        <ele>10.518</ele>
        <time>2019-08-21T11:59:12Z</time>
      </trkpt>
      <trkpt lat="40.454866" lon="-8.779432">
        <ele>12.408</ele>
        <time>2019-08-21T12:00:23Z</time>
      </trkpt>
      <trkpt lat="40.454343" lon="-8.780028">
        <ele>14.710</ele>
        <time>2019-08-21T12:01:11Z</time>
      </trkpt>
      <trkpt lat="40.453760" lon="-8.780129">
        <ele>12.166</ele>
        <time>2019-08-21T12:01:23Z</time>
      </trkpt>
      <trkpt lat="40.453742" lon="-8.779897">
        <ele>13.258</ele>
        <time>2019-08-21T12:01:34Z</time>
      </trkpt>
      <trkpt lat="40.452263" lon="-8.780867">
        <ele>14.613</ele>
        <time>2019-08-21T12:04:06Z</time>
      </trkpt>
      <trkpt lat="40.451548" lon="-8.781134">
        <ele>14.352</ele>
        <time>2019-08-21T12:04:21Z</time>
      </trkpt>
      <trkpt lat="40.451337" lon="-8.780997">
        <ele>15.546</ele>
        <time>2019-08-21T12:04:27Z</time>
      </trkpt>
      <trkpt lat="40.451046" lon="-8.781100">
        <ele>15.321</ele>
        <time>2019-08-21T12:04:35Z</time>
      </trkpt>
      <trkpt lat="40.450268" lon="-8.782117">
        <ele>20.036</ele>
        <time>2019-08-21T12:04:59Z</time>
      </trkpt>
      <trkpt lat="40.448398" lon="-8.785889">
        <ele>19.381</ele>
        <time>2019-08-21T12:06:28Z</time>
      </trkpt>
      <trkpt lat="40.450104" lon="-8.786433">
        <ele>6.761</ele>
        <time>2019-08-21T12:07:33Z</time>
      </trkpt>
      <trkpt lat="40.449445" lon="-8.793321">
        <ele>3.017</ele>
        <time>2019-08-21T12:09:24Z</time>
      </trkpt>
      <trkpt lat="40.450293" lon="-8.792961">
        <ele>4.008</ele>
        <time>2019-08-21T12:10:01Z</time>
      </trkpt>
      <trkpt lat="40.450370" lon="-8.792249">
        <ele>4.892</ele>
        <time>2019-08-21T12:10:53Z</time>
      </trkpt>
      <trkpt lat="40.450064" lon="-8.791985">
        <ele>4.868</ele>
        <time>2019-08-21T12:11:03Z</time>
      </trkpt>
      <trkpt lat="40.450235" lon="-8.791693">
        <ele>4.220</ele>
        <time>2019-08-21T12:11:11Z</time>
      </trkpt>
      <trkpt lat="40.451254" lon="-8.792137">
        <ele>5.015</ele>
        <time>2019-08-21T12:11:36Z</time>
      </trkpt>
      <trkpt lat="40.451475" lon="-8.792556">
        <ele>5.094</ele>
        <time>2019-08-21T12:11:44Z</time>
      </trkpt>
      <trkpt lat="40.453183" lon="-8.793785">
        <ele>2.538</ele>
        <time>2019-08-21T12:12:28Z</time>
      </trkpt>
      <trkpt lat="40.453166" lon="-8.793985">
        <ele>2.463</ele>
        <time>2019-08-21T12:12:36Z</time>
      </trkpt>
      <trkpt lat="40.452578" lon="-8.794723">
        <ele>4.078</ele>
        <time>2019-08-21T12:12:59Z</time>
      </trkpt>
      <trkpt lat="40.452333" lon="-8.795424">
        <ele>5.189</ele>
        <time>2019-08-21T12:13:12Z</time>
      </trkpt>
      <trkpt lat="40.452581" lon="-8.798151">
        <ele>6.006</ele>
        <time>2019-08-21T12:13:58Z</time>
      </trkpt>
      <trkpt lat="40.452827" lon="-8.799256">
        <ele>3.026</ele>
        <time>2019-08-21T12:14:16Z</time>
      </trkpt>
      <trkpt lat="40.453044" lon="-8.799742">
        <ele>3.008</ele>
        <time>2019-08-21T12:14:25Z</time>
      </trkpt>
      <trkpt lat="40.453499" lon="-8.800108">
        <ele>4.092</ele>
        <time>2019-08-21T12:14:36Z</time>
      </trkpt>
      <trkpt lat="40.455352" lon="-8.800386">
        <ele>6.478</ele>
        <time>2019-08-21T12:15:28Z</time>
      </trkpt>
      <trkpt lat="40.455063" lon="-8.801649">
        <ele>9.710</ele>
        <time>2019-08-21T12:16:11Z</time>
      </trkpt>
      <trkpt lat="40.453963" lon="-8.801657">
        <ele>8.875</ele>
        <time>2019-08-21T12:17:08Z</time>
      </trkpt>
      <trkpt lat="40.454329" lon="-8.801888">
        <ele>10.714</ele>
        <time>2019-08-21T12:20:14Z</time>
      </trkpt>
      <trkpt lat="40.454297" lon="-8.801713">
        <ele>9.758</ele>
        <time>2019-08-21T12:20:42Z</time>
      </trkpt>
      <trkpt lat="40.454008" lon="-8.801645">
        <ele>8.553</ele>
        <time>2019-08-21T12:20:54Z</time>
      </trkpt>
      <trkpt lat="40.451810" lon="-8.801738">
        <ele>7.228</ele>
        <time>2019-08-21T12:23:16Z</time>
      </trkpt>
      <trkpt lat="40.451849" lon="-8.802410">
        <ele>9.067</ele>
        <time>2019-08-21T12:23:47Z</time>
      </trkpt>
      <trkpt lat="40.451773" lon="-8.802016">
        <ele>9.581</ele>
        <time>2019-08-21T12:24:22Z</time>
      </trkpt>
      <trkpt lat="40.451464" lon="-8.801859">
        <ele>8.819</ele>
        <time>2019-08-21T12:24:41Z</time>
      </trkpt>
      <trkpt lat="40.451392" lon="-8.801597">
        <ele>9.308</ele>
        <time>2019-08-21T12:25:10Z</time>
      </trkpt>
      <trkpt lat="40.449421" lon="-8.800754">
        <ele>9.120</ele>
        <time>2019-08-21T12:25:57Z</time>
      </trkpt>
      <trkpt lat="40.448841" lon="-8.800290">
        <ele>11.066</ele>
        <time>2019-08-21T12:26:14Z</time>
      </trkpt>
      <trkpt lat="40.447592" lon="-8.799779">
        <ele>9.758</ele>
        <time>2019-08-21T12:26:40Z</time>
      </trkpt>
      <trkpt lat="40.446227" lon="-8.798492">
        <ele>4.413</ele>
        <time>2019-08-21T12:27:16Z</time>
      </trkpt>
      <trkpt lat="40.445327" lon="-8.797044">
        <ele>4.572</ele>
        <time>2019-08-21T12:27:45Z</time>
      </trkpt>
      <trkpt lat="40.444943" lon="-8.797024">
        <ele>12.486</ele>
        <time>2019-08-21T12:28:18Z</time>
      </trkpt>
      <trkpt lat="40.444788" lon="-8.798170">
        <ele>11.221</ele>
        <time>2019-08-21T12:28:39Z</time>
      </trkpt>
      <trkpt lat="40.444510" lon="-8.798172">
        <ele>12.656</ele>
        <time>2019-08-21T12:28:48Z</time>
      </trkpt>
      <trkpt lat="40.426728" lon="-8.785724">
        <ele>18.081</ele>
        <time>2019-08-21T12:35:18Z</time>
      </trkpt>
      <trkpt lat="40.426182" lon="-8.785543">
        <ele>19.261</ele>
        <time>2019-08-21T12:35:29Z</time>
      </trkpt>
      <trkpt lat="40.416339" lon="-8.785258">
        <ele>21.617</ele>
        <time>2019-08-21T12:39:47Z</time>
      </trkpt>
      <trkpt lat="40.403743" lon="-8.783848">
        <ele>20.508</ele>
        <time>2019-08-21T12:43:40Z</time>
      </trkpt>
      <trkpt lat="40.404080" lon="-8.784991">
        <ele>20.712</ele>
        <time>2019-08-21T12:43:44Z</time>
      </trkpt>
      <trkpt lat="40.404141" lon="-8.784642">
        <ele>20.988</ele>
        <time>2019-08-21T12:44:48Z</time>
      </trkpt>
      <trkpt lat="40.402727" lon="-8.784784">
        <ele>22.270</ele>
        <time>2019-08-21T12:45:30Z</time>
      </trkpt>
      <trkpt lat="40.388314" lon="-8.784341">
        <ele>24.725</ele>
        <time>2019-08-21T12:50:03Z</time>
      </trkpt>
      <trkpt lat="40.381660" lon="-8.784294">
        <ele>34.014</ele>
        <time>2019-08-21T12:52:10Z</time>
      </trkpt>
      <trkpt lat="40.379878" lon="-8.784221">
        <ele>33.978</ele>
        <time>2019-08-21T12:52:49Z</time>
      </trkpt>
      <trkpt lat="40.379770" lon="-8.784078">
        <ele>34.263</ele>
        <time>2019-08-21T12:53:03Z</time>
      </trkpt>
      <trkpt lat="40.379618" lon="-8.784313">
        <ele>31.968</ele>
        <time>2019-08-21T13:14:52Z</time>
      </trkpt>
      <trkpt lat="40.377781" lon="-8.785136">
        <ele>29.574</ele>
        <time>2019-08-21T13:15:39Z</time>
      </trkpt>
      <trkpt lat="40.331867" lon="-8.805521">
        <ele>27.756</ele>
        <time>2019-08-21T13:30:25Z</time>
      </trkpt>
      <trkpt lat="40.325693" lon="-8.808071">
        <ele>29.121</ele>
        <time>2019-08-21T13:32:10Z</time>
      </trkpt>
      <trkpt lat="40.325043" lon="-8.808457">
        <ele>27.208</ele>
        <time>2019-08-21T13:32:51Z</time>
      </trkpt>
      <trkpt lat="40.321920" lon="-8.809621">
        <ele>31.091</ele>
        <time>2019-08-21T13:33:56Z</time>
      </trkpt>
      <trkpt lat="40.288320" lon="-8.823407">
        <ele>35.027</ele>
        <time>2019-08-21T13:44:46Z</time>
      </trkpt>
      <trkpt lat="40.258567" lon="-8.835379">
        <ele>37.339</ele>
        <time>2019-08-21T13:56:17Z</time>
      </trkpt>
      <trkpt lat="40.257909" lon="-8.835756">
        <ele>39.544</ele>
        <time>2019-08-21T13:56:33Z</time>
      </trkpt>
      <trkpt lat="40.251252" lon="-8.841379">
        <ele>50.563</ele>
        <time>2019-08-21T13:59:04Z</time>
      </trkpt>
      <trkpt lat="40.248315" lon="-8.842732">
        <ele>43.137</ele>
        <time>2019-08-21T14:00:04Z</time>
      </trkpt>
      <trkpt lat="40.247856" lon="-8.843061">
        <ele>43.712</ele>
        <time>2019-08-21T14:00:16Z</time>
      </trkpt>
      <trkpt lat="40.240629" lon="-8.849378">
        <ele>41.217</ele>
        <time>2019-08-21T14:03:49Z</time>
      </trkpt>
      <trkpt lat="40.240119" lon="-8.849461">
        <ele>40.597</ele>
        <time>2019-08-21T14:03:59Z</time>
      </trkpt>
      <trkpt lat="40.235177" lon="-8.848426">
        <ele>38.723</ele>
        <time>2019-08-21T14:05:43Z</time>
      </trkpt>
      <trkpt lat="40.229346" lon="-8.848144">
        <ele>46.925</ele>
        <time>2019-08-21T14:07:51Z</time>
      </trkpt>
      <trkpt lat="40.226104" lon="-8.848527">
        <ele>38.008</ele>
        <time>2019-08-21T14:08:55Z</time>
      </trkpt>
      <trkpt lat="40.224486" lon="-8.848452">
        <ele>41.493</ele>
        <time>2019-08-21T14:09:27Z</time>
      </trkpt>
      <trkpt lat="40.222081" lon="-8.849674">
        <ele>44.529</ele>
        <time>2019-08-21T14:10:19Z</time>
      </trkpt>
      <trkpt lat="40.219593" lon="-8.848831">
        <ele>43.411</ele>
        <time>2019-08-21T14:11:18Z</time>
      </trkpt>
      <trkpt lat="40.217326" lon="-8.848760">
        <ele>46.626</ele>
        <time>2019-08-21T14:12:02Z</time>
      </trkpt>
      <trkpt lat="40.215761" lon="-8.850044">
        <ele>46.655</ele>
        <time>2019-08-21T14:12:38Z</time>
      </trkpt>
      <trkpt lat="40.215203" lon="-8.850129">
        <ele>45.379</ele>
        <time>2019-08-21T14:14:53Z</time>
      </trkpt>
      <trkpt lat="40.215015" lon="-8.850036">
        <ele>45.954</ele>
        <time>2019-08-21T14:18:14Z</time>
      </trkpt>
      <trkpt lat="40.214645" lon="-8.850344">
        <ele>46.849</ele>
        <time>2019-08-21T14:19:38Z</time>
      </trkpt>
      <trkpt lat="40.214539" lon="-8.850214">
        <ele>46.893</ele>
        <time>2019-08-21T14:21:39Z</time>
      </trkpt>
      <trkpt lat="40.214510" lon="-8.850333">
        <ele>46.865</ele>
        <time>2019-08-21T14:22:00Z</time>
      </trkpt>
      <trkpt lat="40.214679" lon="-8.849913">
        <ele>46.021</ele>
        <time>2019-08-21T14:41:11Z</time>
      </trkpt>
      <trkpt lat="40.214345" lon="-8.849654">
        <ele>46.608</ele>
        <time>2019-08-21T14:41:25Z</time>
      </trkpt>
      <trkpt lat="40.213308" lon="-8.849593">
        <ele>48.033</ele>
        <time>2019-08-21T14:41:58Z</time>
      </trkpt>
      <trkpt lat="40.213033" lon="-8.849788">
        <ele>48.319</ele>
        <time>2019-08-21T14:42:10Z</time>
      </trkpt>
      <trkpt lat="40.213000" lon="-8.849684">
        <ele>48.391</ele>
        <time>2019-08-21T14:42:38Z</time>
      </trkpt>
      <trkpt lat="40.213146" lon="-8.850452">
        <ele>47.536</ele>
        <time>2019-08-21T14:43:00Z</time>
      </trkpt>
      <trkpt lat="40.214468" lon="-8.852004">
        <ele>44.765</ele>
        <time>2019-08-21T14:44:18Z</time>
      </trkpt>
      <trkpt lat="40.214208" lon="-8.854621">
        <ele>42.949</ele>
        <time>2019-08-21T14:45:19Z</time>
      </trkpt>
      <trkpt lat="40.215125" lon="-8.857185">
        <ele>37.094</ele>
        <time>2019-08-21T14:46:21Z</time>
      </trkpt>
      <trkpt lat="40.215454" lon="-8.858845">
        <ele>33.839</ele>
        <time>2019-08-21T14:46:43Z</time>
      </trkpt>
      <trkpt lat="40.215528" lon="-8.861104">
        <ele>34.967</ele>
        <time>2019-08-21T14:47:14Z</time>
      </trkpt>
      <trkpt lat="40.215947" lon="-8.862281">
        <ele>35.181</ele>
        <time>2019-08-21T14:47:34Z</time>
      </trkpt>
      <trkpt lat="40.215350" lon="-8.865881">
        <ele>47.219</ele>
        <time>2019-08-21T14:48:31Z</time>
      </trkpt>
      <trkpt lat="40.215515" lon="-8.869962">
        <ele>41.408</ele>
        <time>2019-08-21T14:49:20Z</time>
      </trkpt>
      <trkpt lat="40.215390" lon="-8.871456">
        <ele>38.450</ele>
        <time>2019-08-21T14:49:36Z</time>
      </trkpt>
      <trkpt lat="40.215642" lon="-8.872730">
        <ele>32.616</ele>
        <time>2019-08-21T14:49:52Z</time>
      </trkpt>
      <trkpt lat="40.215650" lon="-8.874398">
        <ele>26.058</ele>
        <time>2019-08-21T14:50:09Z</time>
      </trkpt>
      <trkpt lat="40.216000" lon="-8.877064">
        <ele>18.263</ele>
        <time>2019-08-21T14:50:35Z</time>
      </trkpt>
      <trkpt lat="40.215695" lon="-8.878571">
        <ele>21.342</ele>
        <time>2019-08-21T14:51:20Z</time>
      </trkpt>
      <trkpt lat="40.215996" lon="-8.877898">
        <ele>20.866</ele>
        <time>2019-08-21T14:51:32Z</time>
      </trkpt>
      <trkpt lat="40.216581" lon="-8.878608">
        <ele>16.551</ele>
        <time>2019-08-21T14:51:46Z</time>
      </trkpt>
      <trkpt lat="40.217338" lon="-8.878825">
        <ele>17.076</ele>
        <time>2019-08-21T14:52:03Z</time>
      </trkpt>
      <trkpt lat="40.217724" lon="-8.879201">
        <ele>17.915</ele>
        <time>2019-08-21T14:52:14Z</time>
      </trkpt>
      <trkpt lat="40.217635" lon="-8.880039">
        <ele>14.665</ele>
        <time>2019-08-21T14:52:27Z</time>
      </trkpt>
      <trkpt lat="40.217853" lon="-8.884663">
        <ele>17.311</ele>
        <time>2019-08-21T14:53:35Z</time>
      </trkpt>
      <trkpt lat="40.217677" lon="-8.887530">
        <ele>10.108</ele>
        <time>2019-08-21T14:54:11Z</time>
      </trkpt>
      <trkpt lat="40.218495" lon="-8.887770">
        <ele>10.465</ele>
        <time>2019-08-21T14:54:30Z</time>
      </trkpt>
      <trkpt lat="40.219983" lon="-8.888694">
        <ele>9.081</ele>
        <time>2019-08-21T14:55:02Z</time>
      </trkpt>
      <trkpt lat="40.220740" lon="-8.890007">
        <ele>7.483</ele>
        <time>2019-08-21T14:55:28Z</time>
      </trkpt>
      <trkpt lat="40.220745" lon="-8.890620">
        <ele>9.298</ele>
        <time>2019-08-21T14:55:39Z</time>
      </trkpt>
      <trkpt lat="40.220385" lon="-8.890981">
        <ele>9.467</ele>
        <time>2019-08-21T14:55:49Z</time>
      </trkpt>
      <trkpt lat="40.218248" lon="-8.891745">
        <ele>11.971</ele>
        <time>2019-08-21T14:56:31Z</time>
      </trkpt>
      <trkpt lat="40.215366" lon="-8.893318">
        <ele>11.056</ele>
        <time>2019-08-21T14:57:24Z</time>
      </trkpt>
      <trkpt lat="40.215011" lon="-8.893390">
        <ele>9.881</ele>
        <time>2019-08-21T14:57:31Z</time>
      </trkpt>
      <trkpt lat="40.209855" lon="-8.896004">
        <ele>6.991</ele>
        <time>2019-08-21T14:59:01Z</time>
      </trkpt>
      <trkpt lat="40.209657" lon="-8.895828">
        <ele>8.381</ele>
        <time>2019-08-21T14:59:06Z</time>
      </trkpt>
      <trkpt lat="40.209480" lon="-8.894762">
        <ele>12.619</ele>
        <time>2019-08-21T14:59:22Z</time>
      </trkpt>
      <trkpt lat="40.207851" lon="-8.894877">
        <ele>22.808</ele>
        <time>2019-08-21T15:00:12Z</time>
      </trkpt>
      <trkpt lat="40.207171" lon="-8.894625">
        <ele>28.643</ele>
        <time>2019-08-21T15:00:47Z</time>
      </trkpt>
      <trkpt lat="40.206502" lon="-8.894914">
        <ele>34.979</ele>
        <time>2019-08-21T15:01:23Z</time>
      </trkpt>
      <trkpt lat="40.206065" lon="-8.894717">
        <ele>43.871</ele>
        <time>2019-08-21T15:02:08Z</time>
      </trkpt>
      <trkpt lat="40.205782" lon="-8.894798">
        <ele>47.636</ele>
        <time>2019-08-21T15:02:39Z</time>
      </trkpt>
      <trkpt lat="40.205078" lon="-8.895274">
        <ele>51.035</ele>
        <time>2019-08-21T15:03:18Z</time>
      </trkpt>
      <trkpt lat="40.202927" lon="-8.897927">
        <ele>47.549</ele>
        <time>2019-08-21T15:04:19Z</time>
      </trkpt>
      <trkpt lat="40.202106" lon="-8.898406">
        <ele>55.314</ele>
        <time>2019-08-21T15:04:45Z</time>
      </trkpt>
      <trkpt lat="40.200817" lon="-8.900057">
        <ele>60.189</ele>
        <time>2019-08-21T15:07:17Z</time>
      </trkpt>
      <trkpt lat="40.200186" lon="-8.901349">
        <ele>49.188</ele>
        <time>2019-08-21T15:08:59Z</time>
      </trkpt>
      <trkpt lat="40.199318" lon="-8.901367">
        <ele>54.224</ele>
        <time>2019-08-21T15:10:24Z</time>
      </trkpt>
      <trkpt lat="40.199189" lon="-8.901626">
        <ele>57.026</ele>
        <time>2019-08-21T15:10:30Z</time>
      </trkpt>
      <trkpt lat="40.199409" lon="-8.902450">
        <ele>38.308</ele>
        <time>2019-08-21T15:12:29Z</time>
      </trkpt>
      <trkpt lat="40.198156" lon="-8.903189">
        <ele>45.562</ele>
        <time>2019-08-21T15:16:10Z</time>
      </trkpt>
      <trkpt lat="40.197487" lon="-8.903351">
        <ele>44.348</ele>
        <time>2019-08-21T15:16:21Z</time>
      </trkpt>
      <trkpt lat="40.196899" lon="-8.903794">
        <ele>31.260</ele>
        <time>2019-08-21T15:16:37Z</time>
      </trkpt>
      <trkpt lat="40.195851" lon="-8.903570">
        <ele>31.385</ele>
        <time>2019-08-21T15:17:04Z</time>
      </trkpt>
      <trkpt lat="40.195175" lon="-8.904458">
        <ele>26.514</ele>
        <time>2019-08-21T15:17:23Z</time>
      </trkpt>
      <trkpt lat="40.193956" lon="-8.905086">
        <ele>31.858</ele>
        <time>2019-08-21T15:17:47Z</time>
      </trkpt>
      <trkpt lat="40.191451" lon="-8.906073">
        <ele>48.483</ele>
        <time>2019-08-21T15:21:33Z</time>
      </trkpt>
      <trkpt lat="40.190967" lon="-8.906074">
        <ele>58.988</ele>
        <time>2019-08-21T15:22:02Z</time>
      </trkpt>
      <trkpt lat="40.190133" lon="-8.905733">
        <ele>66.069</ele>
        <time>2019-08-21T15:22:50Z</time>
      </trkpt>
      <trkpt lat="40.189607" lon="-8.905772">
        <ele>62.604</ele>
        <time>2019-08-21T15:23:21Z</time>
      </trkpt>
      <trkpt lat="40.188724" lon="-8.905106">
        <ele>83.924</ele>
        <time>2019-08-21T15:24:26Z</time>
      </trkpt>
      <trkpt lat="40.187969" lon="-8.905150">
        <ele>90.408</ele>
        <time>2019-08-21T15:25:02Z</time>
      </trkpt>
      <trkpt lat="40.186616" lon="-8.904877">
        <ele>84.950</ele>
        <time>2019-08-21T15:26:05Z</time>
      </trkpt>
      <trkpt lat="40.186221" lon="-8.904477">
        <ele>76.286</ele>
        <time>2019-08-21T15:26:17Z</time>
      </trkpt>
      <trkpt lat="40.185873" lon="-8.902984">
        <ele>98.688</ele>
        <time>2019-08-21T15:26:49Z</time>
      </trkpt>
      <trkpt lat="40.185425" lon="-8.902597">
        <ele>98.633</ele>
        <time>2019-08-21T15:27:01Z</time>
      </trkpt>
      <trkpt lat="40.184259" lon="-8.902986">
        <ele>89.742</ele>
        <time>2019-08-21T15:27:28Z</time>
      </trkpt>
      <trkpt lat="40.183611" lon="-8.904179">
        <ele>77.556</ele>
        <time>2019-08-21T15:28:09Z</time>
      </trkpt>
      <trkpt lat="40.182832" lon="-8.904589">
        <ele>78.161</ele>
        <time>2019-08-21T15:28:23Z</time>
      </trkpt>
      <trkpt lat="40.182308" lon="-8.905325">
        <ele>63.526</ele>
        <time>2019-08-21T15:28:32Z</time>
      </trkpt>
      <trkpt lat="40.181867" lon="-8.905578">
        <ele>59.041</ele>
        <time>2019-08-21T15:28:39Z</time>
      </trkpt>
      <trkpt lat="40.181376" lon="-8.905696">
        <ele>60.381</ele>
        <time>2019-08-21T15:29:01Z</time>
      </trkpt>
      <trkpt lat="40.180752" lon="-8.905603">
        <ele>57.009</ele>
        <time>2019-08-21T15:29:12Z</time>
      </trkpt>
      <trkpt lat="40.179687" lon="-8.904566">
        <ele>56.908</ele>
        <time>2019-08-21T15:29:33Z</time>
      </trkpt>
      <trkpt lat="40.179373" lon="-8.904508">
        <ele>53.488</ele>
        <time>2019-08-21T15:30:17Z</time>
      </trkpt>
      <trkpt lat="40.179356" lon="-8.904607">
        <ele>51.624</ele>
        <time>2019-08-21T15:31:32Z</time>
      </trkpt>
      <trkpt lat="40.179642" lon="-8.904573">
        <ele>56.466</ele>
        <time>2019-08-21T15:32:20Z</time>
      </trkpt>
      <trkpt lat="40.179189" lon="-8.904259">
        <ele>52.391</ele>
        <time>2019-08-21T15:32:56Z</time>
      </trkpt>
      <trkpt lat="40.178867" lon="-8.902269">
        <ele>38.390</ele>
        <time>2019-08-21T15:33:16Z</time>
      </trkpt>
      <trkpt lat="40.175349" lon="-8.895903">
        <ele>13.094</ele>
        <time>2019-08-21T15:34:34Z</time>
      </trkpt>
      <trkpt lat="40.174487" lon="-8.895023">
        <ele>9.819</ele>
        <time>2019-08-21T15:34:53Z</time>
      </trkpt>
      <trkpt lat="40.172874" lon="-8.893982">
        <ele>7.684</ele>
        <time>2019-08-21T15:35:24Z</time>
      </trkpt>
      <trkpt lat="40.171986" lon="-8.892974">
        <ele>7.127</ele>
        <time>2019-08-21T15:35:45Z</time>
      </trkpt>
      <trkpt lat="40.171391" lon="-8.891895">
        <ele>8.468</ele>
        <time>2019-08-21T15:36:02Z</time>
      </trkpt>
      <trkpt lat="40.170887" lon="-8.890402">
        <ele>4.314</ele>
        <time>2019-08-21T15:36:24Z</time>
      </trkpt>
      <trkpt lat="40.170246" lon="-8.889256">
        <ele>6.708</ele>
        <time>2019-08-21T15:37:02Z</time>
      </trkpt>
      <trkpt lat="40.168478" lon="-8.887282">
        <ele>4.336</ele>
        <time>2019-08-21T15:37:55Z</time>
      </trkpt>
      <trkpt lat="40.166835" lon="-8.885031">
        <ele>8.772</ele>
        <time>2019-08-21T15:38:41Z</time>
      </trkpt>
      <trkpt lat="40.166569" lon="-8.884341">
        <ele>8.074</ele>
        <time>2019-08-21T15:38:57Z</time>
      </trkpt>
      <trkpt lat="40.166630" lon="-8.883041">
        <ele>13.619</ele>
        <time>2019-08-21T15:40:03Z</time>
      </trkpt>
      <trkpt lat="40.166406" lon="-8.882209">
        <ele>10.128</ele>
        <time>2019-08-21T15:40:20Z</time>
      </trkpt>
      <trkpt lat="40.164163" lon="-8.879748">
        <ele>0.092</ele>
        <time>2019-08-21T15:41:19Z</time>
      </trkpt>
      <trkpt lat="40.164039" lon="-8.879052">
        <ele>5.997</ele>
        <time>2019-08-21T15:41:31Z</time>
      </trkpt>
      <trkpt lat="40.164500" lon="-8.875713">
        <ele>6.352</ele>
        <time>2019-08-21T15:42:46Z</time>
      </trkpt>
      <trkpt lat="40.164414" lon="-8.875387">
        <ele>5.899</ele>
        <time>2019-08-21T15:42:53Z</time>
      </trkpt>
      <trkpt lat="40.163817" lon="-8.874678">
        <ele>5.407</ele>
        <time>2019-08-21T15:48:41Z</time>
      </trkpt>
      <trkpt lat="40.163507" lon="-8.873664">
        <ele>4.727</ele>
        <time>2019-08-21T15:49:02Z</time>
      </trkpt>
      <trkpt lat="40.163159" lon="-8.873514">
        <ele>3.708</ele>
        <time>2019-08-21T15:49:09Z</time>
      </trkpt>
      <trkpt lat="40.163106" lon="-8.873220">
        <ele>4.123</ele>
        <time>2019-08-21T15:49:14Z</time>
      </trkpt>
      <trkpt lat="40.163856" lon="-8.872850">
        <ele>4.959</ele>
        <time>2019-08-21T15:49:40Z</time>
      </trkpt>
      <trkpt lat="40.163937" lon="-8.872508">
        <ele>7.611</ele>
        <time>2019-08-21T15:49:50Z</time>
      </trkpt>
      <trkpt lat="40.164767" lon="-8.871688">
        <ele>5.046</ele>
        <time>2019-08-21T15:50:20Z</time>
      </trkpt>
      <trkpt lat="40.165741" lon="-8.871468">
        <ele>6.795</ele>
        <time>2019-08-21T15:50:51Z</time>
      </trkpt>
      <trkpt lat="40.166126" lon="-8.871104">
        <ele>7.099</ele>
        <time>2019-08-21T15:51:06Z</time>
      </trkpt>
      <trkpt lat="40.167194" lon="-8.868556">
        <ele>10.134</ele>
        <time>2019-08-21T15:51:59Z</time>
      </trkpt>
      <trkpt lat="40.167407" lon="-8.866908">
        <ele>28.049</ele>
        <time>2019-08-21T15:52:48Z</time>
      </trkpt>
      <trkpt lat="40.167084" lon="-8.864041">
        <ele>39.465</ele>
        <time>2019-08-21T15:54:39Z</time>
      </trkpt>
      <trkpt lat="40.166823" lon="-8.863027">
        <ele>40.168</ele>
        <time>2019-08-21T15:55:16Z</time>
      </trkpt>
      <trkpt lat="40.164548" lon="-8.859186">
        <ele>32.114</ele>
        <time>2019-08-21T15:56:38Z</time>
      </trkpt>
      <trkpt lat="40.163965" lon="-8.858587">
        <ele>28.808</ele>
        <time>2019-08-21T15:56:54Z</time>
      </trkpt>
      <trkpt lat="40.163757" lon="-8.857795">
        <ele>27.510</ele>
        <time>2019-08-21T15:57:04Z</time>
      </trkpt>
      <trkpt lat="40.163974" lon="-8.857628">
        <ele>29.176</ele>
        <time>2019-08-21T15:57:10Z</time>
      </trkpt>
      <trkpt lat="40.164262" lon="-8.857866">
        <ele>33.718</ele>
        <time>2019-08-21T15:57:20Z</time>
      </trkpt>
      <trkpt lat="40.164518" lon="-8.857235">
        <ele>34.133</ele>
        <time>2019-08-21T15:57:47Z</time>
      </trkpt>
      <trkpt lat="40.164832" lon="-8.856952">
        <ele>38.252</ele>
        <time>2019-08-21T15:58:09Z</time>
      </trkpt>
      <trkpt lat="40.166160" lon="-8.856735">
        <ele>53.296</ele>
        <time>2019-08-21T16:06:33Z</time>
      </trkpt>
      <trkpt lat="40.166942" lon="-8.857449">
        <ele>55.521</ele>
        <time>2019-08-21T16:07:59Z</time>
      </trkpt>
      <trkpt lat="40.166228" lon="-8.856855">
        <ele>55.081</ele>
        <time>2019-08-22T09:36:22Z</time>
      </trkpt>
      <trkpt lat="40.164795" lon="-8.856979">
        <ele>37.861</ele>
        <time>2019-08-22T09:39:52Z</time>
      </trkpt>
      <trkpt lat="40.164408" lon="-8.857501">
        <ele>33.617</ele>
        <time>2019-08-22T09:40:02Z</time>
      </trkpt>
      <trkpt lat="40.164190" lon="-8.858746">
        <ele>30.708</ele>
        <time>2019-08-22T09:40:34Z</time>
      </trkpt>
      <trkpt lat="40.163957" lon="-8.858615">
        <ele>28.742</ele>
        <time>2019-08-22T09:40:38Z</time>
      </trkpt>
      <trkpt lat="40.163694" lon="-8.857900">
        <ele>27.348</ele>
        <time>2019-08-22T09:40:51Z</time>
      </trkpt>
      <trkpt lat="40.163466" lon="-8.857742">
        <ele>26.371</ele>
        <time>2019-08-22T09:40:58Z</time>
      </trkpt>
      <trkpt lat="40.162107" lon="-8.857748">
        <ele>23.999</ele>
        <time>2019-08-22T09:41:22Z</time>
      </trkpt>
      <trkpt lat="40.160720" lon="-8.858062">
        <ele>17.217</ele>
        <time>2019-08-22T09:41:41Z</time>
      </trkpt>
      <trkpt lat="40.157157" lon="-8.860771">
        <ele>15.814</ele>
        <time>2019-08-22T09:42:42Z</time>
      </trkpt>
      <trkpt lat="40.155730" lon="-8.861571">
        <ele>13.281</ele>
        <time>2019-08-22T09:43:06Z</time>
      </trkpt>
      <trkpt lat="40.155420" lon="-8.861928">
        <ele>13.493</ele>
        <time>2019-08-22T09:43:14Z</time>
      </trkpt>
      <trkpt lat="40.153023" lon="-8.862229">
        <ele>14.326</ele>
        <time>2019-08-22T09:43:58Z</time>
      </trkpt>
      <trkpt lat="40.149697" lon="-8.861621">
        <ele>9.147</ele>
        <time>2019-08-22T09:45:39Z</time>
      </trkpt>
      <trkpt lat="40.149204" lon="-8.861460">
        <ele>8.711</ele>
        <time>2019-08-22T09:46:08Z</time>
      </trkpt>
      <trkpt lat="40.149136" lon="-8.861317">
        <ele>9.408</ele>
        <time>2019-08-22T10:04:21Z</time>
      </trkpt>
      <trkpt lat="40.148297" lon="-8.861254">
        <ele>4.476</ele>
        <time>2019-08-22T10:05:27Z</time>
      </trkpt>
      <trkpt lat="40.148426" lon="-8.859760">
        <ele>4.382</ele>
        <time>2019-08-22T10:06:03Z</time>
      </trkpt>
      <trkpt lat="40.148274" lon="-8.858731">
        <ele>4.375</ele>
        <time>2019-08-22T10:06:39Z</time>
      </trkpt>
      <trkpt lat="40.148288" lon="-8.857368">
        <ele>2.753</ele>
        <time>2019-08-22T10:07:21Z</time>
      </trkpt>
      <trkpt lat="40.148090" lon="-8.856626">
        <ele>2.411</ele>
        <time>2019-08-22T10:07:41Z</time>
      </trkpt>
      <trkpt lat="40.147940" lon="-8.856564">
        <ele>2.048</ele>
        <time>2019-08-22T10:08:54Z</time>
      </trkpt>
      <trkpt lat="40.148036" lon="-8.856276">
        <ele>3.385</ele>
        <time>2019-08-22T10:09:08Z</time>
      </trkpt>
      <trkpt lat="40.147892" lon="-8.855580">
        <ele>2.317</ele>
        <time>2019-08-22T10:11:34Z</time>
      </trkpt>
      <trkpt lat="40.148002" lon="-8.853790">
        <ele>3.041</ele>
        <time>2019-08-22T10:12:16Z</time>
      </trkpt>
      <trkpt lat="40.147921" lon="-8.842643">
        <ele>1.381</ele>
        <time>2019-08-22T10:18:02Z</time>
      </trkpt>
      <trkpt lat="40.148230" lon="-8.839778">
        <ele>5.609</ele>
        <time>2019-08-22T10:18:46Z</time>
      </trkpt>
      <trkpt lat="40.148104" lon="-8.839495">
        <ele>5.008</ele>
        <time>2019-08-22T10:19:41Z</time>
      </trkpt>
      <trkpt lat="40.148106" lon="-8.838225">
        <ele>3.018</ele>
        <time>2019-08-22T10:20:39Z</time>
      </trkpt>
      <trkpt lat="40.147288" lon="-8.834840">
        <ele>3.954</ele>
        <time>2019-08-22T10:21:42Z</time>
      </trkpt>
      <trkpt lat="40.147008" lon="-8.832782">
        <ele>7.427</ele>
        <time>2019-08-22T10:22:22Z</time>
      </trkpt>
      <trkpt lat="40.147097" lon="-8.830520">
        <ele>6.635</ele>
        <time>2019-08-22T10:22:51Z</time>
      </trkpt>
      <trkpt lat="40.147254" lon="-8.829861">
        <ele>6.883</ele>
        <time>2019-08-22T10:23:01Z</time>
      </trkpt>
      <trkpt lat="40.147238" lon="-8.827957">
        <ele>9.550</ele>
        <time>2019-08-22T10:23:56Z</time>
      </trkpt>
      <trkpt lat="40.146782" lon="-8.826284">
        <ele>9.177</ele>
        <time>2019-08-22T10:24:24Z</time>
      </trkpt>
      <trkpt lat="40.146080" lon="-8.822073">
        <ele>9.929</ele>
        <time>2019-08-22T10:25:32Z</time>
      </trkpt>
      <trkpt lat="40.144037" lon="-8.819825">
        <ele>4.151</ele>
        <time>2019-08-22T10:26:13Z</time>
      </trkpt>
      <trkpt lat="40.143227" lon="-8.818329">
        <ele>3.601</ele>
        <time>2019-08-22T10:26:39Z</time>
      </trkpt>
      <trkpt lat="40.142637" lon="-8.816093">
        <ele>5.411</ele>
        <time>2019-08-22T10:27:14Z</time>
      </trkpt>
      <trkpt lat="40.142212" lon="-8.813499">
        <ele>4.908</ele>
        <time>2019-08-22T10:27:57Z</time>
      </trkpt>
      <trkpt lat="40.140822" lon="-8.809722">
        <ele>5.939</ele>
        <time>2019-08-22T10:28:59Z</time>
      </trkpt>
      <trkpt lat="40.139954" lon="-8.806612">
        <ele>2.065</ele>
        <time>2019-08-22T10:29:50Z</time>
      </trkpt>
      <trkpt lat="40.139755" lon="-8.804822">
        <ele>2.858</ele>
        <time>2019-08-22T10:30:15Z</time>
      </trkpt>
      <trkpt lat="40.139437" lon="-8.803751">
        <ele>3.036</ele>
        <time>2019-08-22T10:30:31Z</time>
      </trkpt>
      <trkpt lat="40.138661" lon="-8.802164">
        <ele>3.434</ele>
        <time>2019-08-22T10:30:57Z</time>
      </trkpt>
      <trkpt lat="40.137829" lon="-8.800977">
        <ele>9.761</ele>
        <time>2019-08-22T10:31:22Z</time>
      </trkpt>
      <trkpt lat="40.135654" lon="-8.801538">
        <ele>0.438</ele>
        <time>2019-08-22T10:33:22Z</time>
      </trkpt>
      <trkpt lat="40.135004" lon="-8.801501">
        <ele>-0.610</ele>
        <time>2019-08-22T10:33:35Z</time>
      </trkpt>
      <trkpt lat="40.124059" lon="-8.795436">
        <ele>0.341</ele>
        <time>2019-08-22T10:42:59Z</time>
      </trkpt>
      <trkpt lat="40.120062" lon="-8.792738">
        <ele>0.081</ele>
        <time>2019-08-22T10:44:25Z</time>
      </trkpt>
      <trkpt lat="40.117978" lon="-8.791082">
        <ele>1.309</ele>
        <time>2019-08-22T10:45:12Z</time>
      </trkpt>
      <trkpt lat="40.116925" lon="-8.789859">
        <ele>1.508</ele>
        <time>2019-08-22T10:45:39Z</time>
      </trkpt>
      <trkpt lat="40.115976" lon="-8.788060">
        <ele>1.558</ele>
        <time>2019-08-22T10:46:11Z</time>
      </trkpt>
      <trkpt lat="40.115322" lon="-8.785723">
        <ele>0.984</ele>
        <time>2019-08-22T10:46:48Z</time>
      </trkpt>
      <trkpt lat="40.115176" lon="-8.784035">
        <ele>1.447</ele>
        <time>2019-08-22T10:48:25Z</time>
      </trkpt>
      <trkpt lat="40.115401" lon="-8.781576">
        <ele>0.035</ele>
        <time>2019-08-22T10:49:02Z</time>
      </trkpt>
      <trkpt lat="40.115945" lon="-8.779732">
        <ele>0.613</ele>
        <time>2019-08-22T10:49:32Z</time>
      </trkpt>
      <trkpt lat="40.117020" lon="-8.777773">
        <ele>1.780</ele>
        <time>2019-08-22T10:50:08Z</time>
      </trkpt>
      <trkpt lat="40.117957" lon="-8.776680">
        <ele>3.087</ele>
        <time>2019-08-22T10:50:32Z</time>
      </trkpt>
      <trkpt lat="40.118699" lon="-8.776054">
        <ele>2.229</ele>
        <time>2019-08-22T10:50:49Z</time>
      </trkpt>
      <trkpt lat="40.124481" lon="-8.772249">
        <ele>4.695</ele>
        <time>2019-08-22T10:52:55Z</time>
      </trkpt>
      <trkpt lat="40.126002" lon="-8.770928">
        <ele>4.349</ele>
        <time>2019-08-22T10:53:58Z</time>
      </trkpt>
      <trkpt lat="40.133546" lon="-8.765944">
        <ele>2.623</ele>
        <time>2019-08-22T10:58:09Z</time>
      </trkpt>
      <trkpt lat="40.135519" lon="-8.764365">
        <ele>0.008</ele>
        <time>2019-08-22T10:59:03Z</time>
      </trkpt>
      <trkpt lat="40.136785" lon="-8.763113">
        <ele>1.893</ele>
        <time>2019-08-22T10:59:39Z</time>
      </trkpt>
      <trkpt lat="40.138547" lon="-8.760803">
        <ele>2.349</ele>
        <time>2019-08-22T11:00:35Z</time>
      </trkpt>
      <trkpt lat="40.140235" lon="-8.757646">
        <ele>0.872</ele>
        <time>2019-08-22T11:01:41Z</time>
      </trkpt>
      <trkpt lat="40.141114" lon="-8.755543">
        <ele>1.160</ele>
        <time>2019-08-22T11:02:31Z</time>
      </trkpt>
      <trkpt lat="40.141265" lon="-8.755619">
        <ele>1.048</ele>
        <time>2019-08-22T11:03:20Z</time>
      </trkpt>
      <trkpt lat="40.144541" lon="-8.747451">
        <ele>1.575</ele>
        <time>2019-08-22T11:06:38Z</time>
      </trkpt>
      <trkpt lat="40.147111" lon="-8.740774">
        <ele>1.322</ele>
        <time>2019-08-22T11:08:35Z</time>
      </trkpt>
      <trkpt lat="40.147907" lon="-8.737848">
        <ele>3.134</ele>
        <time>2019-08-22T11:09:27Z</time>
      </trkpt>
      <trkpt lat="40.148246" lon="-8.737076">
        <ele>1.014</ele>
        <time>2019-08-22T11:09:43Z</time>
      </trkpt>
      <trkpt lat="40.148409" lon="-8.735770">
        <ele>0.054</ele>
        <time>2019-08-22T11:12:06Z</time>
      </trkpt>
      <trkpt lat="40.148393" lon="-8.733788">
        <ele>1.109</ele>
        <time>2019-08-22T11:12:41Z</time>
      </trkpt>
      <trkpt lat="40.149329" lon="-8.722274">
        <ele>2.108</ele>
        <time>2019-08-22T11:15:30Z</time>
      </trkpt>
      <trkpt lat="40.149224" lon="-8.719808">
        <ele>0.815</ele>
        <time>2019-08-22T11:16:04Z</time>
      </trkpt>
      <trkpt lat="40.148835" lon="-8.717749">
        <ele>3.311</ele>
        <time>2019-08-22T11:16:34Z</time>
      </trkpt>
      <trkpt lat="40.147644" lon="-8.714389">
        <ele>3.464</ele>
        <time>2019-08-22T11:18:19Z</time>
      </trkpt>
      <trkpt lat="40.146040" lon="-8.710960">
        <ele>3.112</ele>
        <time>2019-08-22T11:19:28Z</time>
      </trkpt>
      <trkpt lat="40.145889" lon="-8.709601">
        <ele>4.060</ele>
        <time>2019-08-22T11:19:57Z</time>
      </trkpt>
      <trkpt lat="40.145644" lon="-8.709075">
        <ele>5.627</ele>
        <time>2019-08-22T11:20:13Z</time>
      </trkpt>
      <trkpt lat="40.142229" lon="-8.711481">
        <ele>6.694</ele>
        <time>2019-08-22T11:21:51Z</time>
      </trkpt>
      <trkpt lat="40.141974" lon="-8.711900">
        <ele>5.216</ele>
        <time>2019-08-22T11:22:01Z</time>
      </trkpt>
      <trkpt lat="40.142207" lon="-8.712471">
        <ele>5.048</ele>
        <time>2019-08-22T11:22:11Z</time>
      </trkpt>
      <trkpt lat="40.143159" lon="-8.713217">
        <ele>2.661</ele>
        <time>2019-08-22T11:22:31Z</time>
      </trkpt>
      <trkpt lat="40.144591" lon="-8.716452">
        <ele>3.617</ele>
        <time>2019-08-22T11:23:29Z</time>
      </trkpt>
      <trkpt lat="40.145199" lon="-8.718361">
        <ele>1.208</ele>
        <time>2019-08-22T11:24:00Z</time>
      </trkpt>
      <trkpt lat="40.145644" lon="-8.720665">
        <ele>3.128</ele>
        <time>2019-08-22T11:24:38Z</time>
      </trkpt>
      <trkpt lat="40.145840" lon="-8.724135">
        <ele>4.044</ele>
        <time>2019-08-22T11:25:32Z</time>
      </trkpt>
      <trkpt lat="40.144923" lon="-8.734439">
        <ele>5.097</ele>
        <time>2019-08-22T11:28:16Z</time>
      </trkpt>
      <trkpt lat="40.144593" lon="-8.736250">
        <ele>8.485</ele>
        <time>2019-08-22T11:28:51Z</time>
      </trkpt>
      <trkpt lat="40.144030" lon="-8.738214">
        <ele>6.663</ele>
        <time>2019-08-22T11:29:24Z</time>
      </trkpt>
      <trkpt lat="40.138956" lon="-8.751202">
        <ele>3.250</ele>
        <time>2019-08-22T11:34:20Z</time>
      </trkpt>
      <trkpt lat="40.138087" lon="-8.750963">
        <ele>1.077</ele>
        <time>2019-08-22T11:34:42Z</time>
      </trkpt>
      <trkpt lat="40.136506" lon="-8.751418">
        <ele>3.439</ele>
        <time>2019-08-22T11:35:11Z</time>
      </trkpt>
      <trkpt lat="40.135764" lon="-8.751917">
        <ele>2.086</ele>
        <time>2019-08-22T11:35:26Z</time>
      </trkpt>
      <trkpt lat="40.135044" lon="-8.752571">
        <ele>1.260</ele>
        <time>2019-08-22T11:35:41Z</time>
      </trkpt>
      <trkpt lat="40.132848" lon="-8.755158">
        <ele>2.026</ele>
        <time>2019-08-22T11:36:30Z</time>
      </trkpt>
      <trkpt lat="40.131875" lon="-8.756625">
        <ele>1.008</ele>
        <time>2019-08-22T11:36:54Z</time>
      </trkpt>
      <trkpt lat="40.130507" lon="-8.758090">
        <ele>1.012</ele>
        <time>2019-08-22T11:37:24Z</time>
      </trkpt>
      <trkpt lat="40.128662" lon="-8.759723">
        <ele>2.048</ele>
        <time>2019-08-22T11:38:03Z</time>
      </trkpt>
      <trkpt lat="40.127674" lon="-8.759659">
        <ele>0.031</ele>
        <time>2019-08-22T11:38:20Z</time>
      </trkpt>
      <trkpt lat="40.126643" lon="-8.760652">
        <ele>0.069</ele>
        <time>2019-08-22T11:38:54Z</time>
      </trkpt>
      <trkpt lat="40.126573" lon="-8.760867">
        <ele>0.137</ele>
        <time>2019-08-22T11:39:12Z</time>
      </trkpt>
      <trkpt lat="40.126644" lon="-8.760630">
        <ele>0.094</ele>
        <time>2019-08-22T11:40:31Z</time>
      </trkpt>
      <trkpt lat="40.124881" lon="-8.758395">
        <ele>0.891</ele>
        <time>2019-08-22T11:41:21Z</time>
      </trkpt>
      <trkpt lat="40.123548" lon="-8.757090">
        <ele>0.693</ele>
        <time>2019-08-22T11:41:49Z</time>
      </trkpt>
      <trkpt lat="40.121065" lon="-8.755352">
        <ele>1.018</ele>
        <time>2019-08-22T11:43:25Z</time>
      </trkpt>
      <trkpt lat="40.119873" lon="-8.754947">
        <ele>4.198</ele>
        <time>2019-08-22T11:43:57Z</time>
      </trkpt>
      <trkpt lat="40.119654" lon="-8.758186">
        <ele>12.917</ele>
        <time>2019-08-22T11:45:06Z</time>
      </trkpt>
      <trkpt lat="40.119671" lon="-8.761075">
        <ele>7.508</ele>
        <time>2019-08-22T11:45:49Z</time>
      </trkpt>
      <trkpt lat="40.119265" lon="-8.762246">
        <ele>10.415</ele>
        <time>2019-08-22T11:46:34Z</time>
      </trkpt>
      <trkpt lat="40.118824" lon="-8.760821">
        <ele>19.871</ele>
        <time>2019-08-22T11:48:04Z</time>
      </trkpt>
      <trkpt lat="40.118482" lon="-8.760785">
        <ele>18.164</ele>
        <time>2019-08-22T11:48:17Z</time>
      </trkpt>
      <trkpt lat="40.118351" lon="-8.760917">
        <ele>17.132</ele>
        <time>2019-08-22T11:48:22Z</time>
      </trkpt>
      <trkpt lat="40.118340" lon="-8.761304">
        <ele>16.470</ele>
        <time>2019-08-22T11:48:33Z</time>
      </trkpt>
      <trkpt lat="40.118574" lon="-8.761950">
        <ele>13.787</ele>
        <time>2019-08-22T11:48:56Z</time>
      </trkpt>
      <trkpt lat="40.118298" lon="-8.761956">
        <ele>11.344</ele>
        <time>2019-08-22T11:49:08Z</time>
      </trkpt>
      <trkpt lat="40.117930" lon="-8.760572">
        <ele>10.616</ele>
        <time>2019-08-22T11:49:37Z</time>
      </trkpt>
      <trkpt lat="40.117183" lon="-8.758790">
        <ele>8.766</ele>
        <time>2019-08-22T11:51:02Z</time>
      </trkpt>
      <trkpt lat="40.116532" lon="-8.758049">
        <ele>8.129</ele>
        <time>2019-08-22T11:51:24Z</time>
      </trkpt>
      <trkpt lat="40.115744" lon="-8.758407">
        <ele>16.321</ele>
        <time>2019-08-22T11:51:53Z</time>
      </trkpt>
      <trkpt lat="40.115227" lon="-8.758119">
        <ele>23.608</ele>
        <time>2019-08-22T11:52:18Z</time>
      </trkpt>
      <trkpt lat="40.114424" lon="-8.758233">
        <ele>27.440</ele>
        <time>2019-08-22T11:52:52Z</time>
      </trkpt>
      <trkpt lat="40.113869" lon="-8.757929">
        <ele>22.516</ele>
        <time>2019-08-22T11:53:03Z</time>
      </trkpt>
      <trkpt lat="40.113618" lon="-8.758179">
        <ele>16.729</ele>
        <time>2019-08-22T11:53:07Z</time>
      </trkpt>
      <trkpt lat="40.113293" lon="-8.758987">
        <ele>13.417</ele>
        <time>2019-08-22T11:53:15Z</time>
      </trkpt>
      <trkpt lat="40.112858" lon="-8.759235">
        <ele>10.885</ele>
        <time>2019-08-22T11:53:20Z</time>
      </trkpt>
      <trkpt lat="40.111384" lon="-8.759134">
        <ele>10.742</ele>
        <time>2019-08-22T11:53:40Z</time>
      </trkpt>
      <trkpt lat="40.110644" lon="-8.758896">
        <ele>12.979</ele>
        <time>2019-08-22T11:53:52Z</time>
      </trkpt>
      <trkpt lat="40.109875" lon="-8.758376">
        <ele>11.111</ele>
        <time>2019-08-22T11:54:05Z</time>
      </trkpt>
      <trkpt lat="40.109279" lon="-8.757697">
        <ele>8.014</ele>
        <time>2019-08-22T11:54:17Z</time>
      </trkpt>
      <trkpt lat="40.107373" lon="-8.754576">
        <ele>6.654</ele>
        <time>2019-08-22T11:55:08Z</time>
      </trkpt>
      <trkpt lat="40.105976" lon="-8.753018">
        <ele>7.309</ele>
        <time>2019-08-22T11:55:40Z</time>
      </trkpt>
      <trkpt lat="40.104954" lon="-8.752215">
        <ele>7.908</ele>
        <time>2019-08-22T11:56:01Z</time>
      </trkpt>
      <trkpt lat="40.102691" lon="-8.750550">
        <ele>8.785</ele>
        <time>2019-08-22T11:56:49Z</time>
      </trkpt>
      <trkpt lat="40.102119" lon="-8.750735">
        <ele>5.421</ele>
        <time>2019-08-22T11:57:04Z</time>
      </trkpt>
      <trkpt lat="40.100091" lon="-8.749502">
        <ele>9.214</ele>
        <time>2019-08-22T11:57:45Z</time>
      </trkpt>
      <trkpt lat="40.095722" lon="-8.747335">
        <ele>8.492</ele>
        <time>2019-08-22T11:59:02Z</time>
      </trkpt>
      <trkpt lat="40.095121" lon="-8.747206">
        <ele>9.870</ele>
        <time>2019-08-22T11:59:20Z</time>
      </trkpt>
      <trkpt lat="40.094456" lon="-8.749058">
        <ele>-0.637</ele>
        <time>2019-08-22T11:59:55Z</time>
      </trkpt>
      <trkpt lat="40.091326" lon="-8.754780">
        <ele>0.264</ele>
        <time>2019-08-22T12:01:36Z</time>
      </trkpt>
      <trkpt lat="40.090971" lon="-8.757489">
        <ele>-0.576</ele>
        <time>2019-08-22T12:02:18Z</time>
      </trkpt>
      <trkpt lat="40.090108" lon="-8.759190">
        <ele>-0.667</ele>
        <time>2019-08-22T12:02:50Z</time>
      </trkpt>
      <trkpt lat="40.089736" lon="-8.759590">
        <ele>-0.481</ele>
        <time>2019-08-22T12:02:59Z</time>
      </trkpt>
      <trkpt lat="40.089433" lon="-8.759647">
        <ele>-0.219</ele>
        <time>2019-08-22T12:03:04Z</time>
      </trkpt>
      <trkpt lat="40.088328" lon="-8.759385">
        <ele>-0.208</ele>
        <time>2019-08-22T12:03:22Z</time>
      </trkpt>
      <trkpt lat="40.087224" lon="-8.758896">
        <ele>2.040</ele>
        <time>2019-08-22T12:03:41Z</time>
      </trkpt>
      <trkpt lat="40.085896" lon="-8.758518">
        <ele>3.516</ele>
        <time>2019-08-22T12:06:45Z</time>
      </trkpt>
      <trkpt lat="40.084535" lon="-8.757651">
        <ele>2.449</ele>
        <time>2019-08-22T12:07:16Z</time>
      </trkpt>
      <trkpt lat="40.084271" lon="-8.757920">
        <ele>5.417</ele>
        <time>2019-08-22T12:07:23Z</time>
      </trkpt>
      <trkpt lat="40.084109" lon="-8.758603">
        <ele>8.035</ele>
        <time>2019-08-22T12:07:41Z</time>
      </trkpt>
      <trkpt lat="40.083887" lon="-8.758755">
        <ele>12.052</ele>
        <time>2019-08-22T12:07:49Z</time>
      </trkpt>
      <trkpt lat="40.083191" lon="-8.758180">
        <ele>20.649</ele>
        <time>2019-08-22T12:08:27Z</time>
      </trkpt>
      <trkpt lat="40.081944" lon="-8.757955">
        <ele>23.611</ele>
        <time>2019-08-22T12:09:21Z</time>
      </trkpt>
      <trkpt lat="40.080547" lon="-8.758357">
        <ele>30.069</ele>
        <time>2019-08-22T12:10:15Z</time>
      </trkpt>
      <trkpt lat="40.079203" lon="-8.758316">
        <ele>32.804</ele>
        <time>2019-08-22T12:10:55Z</time>
      </trkpt>
      <trkpt lat="40.079061" lon="-8.759624">
        <ele>35.024</ele>
        <time>2019-08-22T12:11:24Z</time>
      </trkpt>
      <trkpt lat="40.078563" lon="-8.760424">
        <ele>40.708</ele>
        <time>2019-08-22T12:11:47Z</time>
      </trkpt>
      <trkpt lat="40.078442" lon="-8.760978">
        <ele>42.630</ele>
        <time>2019-08-22T12:12:01Z</time>
      </trkpt>
      <trkpt lat="40.078494" lon="-8.760374">
        <ele>40.816</ele>
        <time>2019-08-22T12:12:30Z</time>
      </trkpt>
      <trkpt lat="40.077641" lon="-8.759757">
        <ele>40.089</ele>
        <time>2019-08-22T12:13:06Z</time>
      </trkpt>
      <trkpt lat="40.076282" lon="-8.758953">
        <ele>28.117</ele>
        <time>2019-08-22T12:13:29Z</time>
      </trkpt>
      <trkpt lat="40.074744" lon="-8.758426">
        <ele>20.215</ele>
        <time>2019-08-22T12:13:51Z</time>
      </trkpt>
      <trkpt lat="40.072249" lon="-8.759247">
        <ele>11.692</ele>
        <time>2019-08-22T12:16:39Z</time>
      </trkpt>
      <trkpt lat="40.071456" lon="-8.760515">
        <ele>11.369</ele>
        <time>2019-08-22T12:16:58Z</time>
      </trkpt>
      <trkpt lat="40.070958" lon="-8.760898">
        <ele>6.791</ele>
        <time>2019-08-22T12:17:08Z</time>
      </trkpt>
      <trkpt lat="40.070513" lon="-8.760857">
        <ele>12.642</ele>
        <time>2019-08-22T12:17:16Z</time>
      </trkpt>
      <trkpt lat="40.069837" lon="-8.760359">
        <ele>17.122</ele>
        <time>2019-08-22T12:17:34Z</time>
      </trkpt>
      <trkpt lat="40.068196" lon="-8.760951">
        <ele>14.714</ele>
        <time>2019-08-22T12:18:23Z</time>
      </trkpt>
      <trkpt lat="40.067972" lon="-8.761270">
        <ele>14.308</ele>
        <time>2019-08-22T12:18:31Z</time>
      </trkpt>
      <trkpt lat="40.066390" lon="-8.762493">
        <ele>13.018</ele>
        <time>2019-08-22T12:19:02Z</time>
      </trkpt>
      <trkpt lat="40.062562" lon="-8.766624">
        <ele>14.774</ele>
        <time>2019-08-22T12:20:40Z</time>
      </trkpt>
      <trkpt lat="40.060932" lon="-8.768159">
        <ele>17.177</ele>
        <time>2019-08-22T12:21:36Z</time>
      </trkpt>
      <trkpt lat="40.060390" lon="-8.770448">
        <ele>23.135</ele>
        <time>2019-08-22T12:22:29Z</time>
      </trkpt>
      <trkpt lat="40.059836" lon="-8.770548">
        <ele>21.883</ele>
        <time>2019-08-22T12:22:41Z</time>
      </trkpt>
      <trkpt lat="40.058551" lon="-8.771717">
        <ele>17.890</ele>
        <time>2019-08-22T12:23:05Z</time>
      </trkpt>
      <trkpt lat="40.056618" lon="-8.772836">
        <ele>8.257</ele>
        <time>2019-08-22T12:23:33Z</time>
      </trkpt>
      <trkpt lat="40.055186" lon="-8.773030">
        <ele>14.179</ele>
        <time>2019-08-22T12:25:06Z</time>
      </trkpt>
      <trkpt lat="40.054671" lon="-8.773296">
        <ele>20.627</ele>
        <time>2019-08-22T12:25:22Z</time>
      </trkpt>
      <trkpt lat="40.053242" lon="-8.775843">
        <ele>30.368</ele>
        <time>2019-08-22T12:28:34Z</time>
      </trkpt>
      <trkpt lat="40.052420" lon="-8.776415">
        <ele>27.514</ele>
        <time>2019-08-22T12:29:27Z</time>
      </trkpt>
      <trkpt lat="40.051093" lon="-8.779124">
        <ele>43.008</ele>
        <time>2019-08-22T12:31:01Z</time>
      </trkpt>
      <trkpt lat="40.050798" lon="-8.780587">
        <ele>43.056</ele>
        <time>2019-08-22T12:32:06Z</time>
      </trkpt>
      <trkpt lat="40.050634" lon="-8.780797">
        <ele>43.262</ele>
        <time>2019-08-22T12:32:15Z</time>
      </trkpt>
      <trkpt lat="40.049626" lon="-8.781125">
        <ele>43.545</ele>
        <time>2019-08-22T12:32:40Z</time>
      </trkpt>
      <trkpt lat="40.048701" lon="-8.781926">
        <ele>47.163</ele>
        <time>2019-08-22T12:33:13Z</time>
      </trkpt>
      <trkpt lat="40.047450" lon="-8.781139">
        <ele>32.651</ele>
        <time>2019-08-22T12:33:57Z</time>
      </trkpt>
      <trkpt lat="40.047082" lon="-8.781768">
        <ele>31.028</ele>
        <time>2019-08-22T12:34:10Z</time>
      </trkpt>
      <trkpt lat="40.045582" lon="-8.781872">
        <ele>26.295</ele>
        <time>2019-08-22T12:37:02Z</time>
      </trkpt>
      <trkpt lat="40.042699" lon="-8.783686">
        <ele>49.337</ele>
        <time>2019-08-22T12:43:57Z</time>
      </trkpt>
      <trkpt lat="40.040806" lon="-8.783125">
        <ele>73.822</ele>
        <time>2019-08-22T12:46:34Z</time>
      </trkpt>
      <trkpt lat="40.038425" lon="-8.782675">
        <ele>94.162</ele>
        <time>2019-08-22T12:48:52Z</time>
      </trkpt>
      <trkpt lat="40.037628" lon="-8.782693">
        <ele>93.508</ele>
        <time>2019-08-22T12:49:30Z</time>
      </trkpt>
      <trkpt lat="40.036485" lon="-8.784204">
        <ele>93.508</ele>
        <time>2019-08-22T12:50:22Z</time>
      </trkpt>
      <trkpt lat="40.034777" lon="-8.785841">
        <ele>98.856</ele>
        <time>2019-08-22T12:52:00Z</time>
      </trkpt>
      <trkpt lat="40.030893" lon="-8.788420">
        <ele>98.782</ele>
        <time>2019-08-22T12:53:35Z</time>
      </trkpt>
      <trkpt lat="40.030847" lon="-8.788141">
        <ele>98.325</ele>
        <time>2019-08-22T12:56:08Z</time>
      </trkpt>
      <trkpt lat="40.031106" lon="-8.787687">
        <ele>99.013</ele>
        <time>2019-08-22T13:14:48Z</time>
      </trkpt>
      <trkpt lat="40.030838" lon="-8.788228">
        <ele>98.681</ele>
        <time>2019-08-22T13:16:14Z</time>
      </trkpt>
      <trkpt lat="40.030862" lon="-8.788493">
        <ele>98.498</ele>
        <time>2019-08-22T13:27:01Z</time>
      </trkpt>
      <trkpt lat="40.029196" lon="-8.789968">
        <ele>97.955</ele>
        <time>2019-08-22T13:27:48Z</time>
      </trkpt>
      <trkpt lat="40.026156" lon="-8.794494">
        <ele>102.997</ele>
        <time>2019-08-22T13:29:31Z</time>
      </trkpt>
      <trkpt lat="40.025471" lon="-8.795131">
        <ele>100.062</ele>
        <time>2019-08-22T13:29:47Z</time>
      </trkpt>
      <trkpt lat="40.023626" lon="-8.796004">
        <ele>100.083</ele>
        <time>2019-08-22T13:30:23Z</time>
      </trkpt>
      <trkpt lat="40.021665" lon="-8.797575">
        <ele>101.011</ele>
        <time>2019-08-22T13:31:14Z</time>
      </trkpt>
      <trkpt lat="40.021822" lon="-8.797720">
        <ele>101.108</ele>
        <time>2019-08-22T13:31:30Z</time>
      </trkpt>
      <trkpt lat="40.022284" lon="-8.797638">
        <ele>101.950</ele>
        <time>2019-08-22T13:31:45Z</time>
      </trkpt>
      <trkpt lat="40.022647" lon="-8.798135">
        <ele>100.536</ele>
        <time>2019-08-22T13:31:58Z</time>
      </trkpt>
      <trkpt lat="40.024518" lon="-8.803248">
        <ele>89.559</ele>
        <time>2019-08-22T13:33:12Z</time>
      </trkpt>
      <trkpt lat="40.026338" lon="-8.806214">
        <ele>94.297</ele>
        <time>2019-08-22T13:33:57Z</time>
      </trkpt>
      <trkpt lat="40.026532" lon="-8.809815">
        <ele>68.935</ele>
        <time>2019-08-22T13:34:22Z</time>
      </trkpt>
      <trkpt lat="40.027276" lon="-8.812507">
        <ele>72.942</ele>
        <time>2019-08-22T13:35:31Z</time>
      </trkpt>
      <trkpt lat="40.027381" lon="-8.814296">
        <ele>81.659</ele>
        <time>2019-08-22T13:36:19Z</time>
      </trkpt>
      <trkpt lat="40.028177" lon="-8.816326">
        <ele>76.421</ele>
        <time>2019-08-22T13:36:55Z</time>
      </trkpt>
      <trkpt lat="40.029003" lon="-8.817314">
        <ele>74.942</ele>
        <time>2019-08-22T13:37:16Z</time>
      </trkpt>
      <trkpt lat="40.029041" lon="-8.818131">
        <ele>75.522</ele>
        <time>2019-08-22T13:37:30Z</time>
      </trkpt>
      <trkpt lat="40.028376" lon="-8.818291">
        <ele>75.814</ele>
        <time>2019-08-22T13:37:46Z</time>
      </trkpt>
      <trkpt lat="40.028225" lon="-8.818890">
        <ele>76.408</ele>
        <time>2019-08-22T13:37:57Z</time>
      </trkpt>
      <trkpt lat="40.027119" lon="-8.820337">
        <ele>77.548</ele>
        <time>2019-08-22T13:38:26Z</time>
      </trkpt>
      <trkpt lat="40.026954" lon="-8.820978">
        <ele>76.554</ele>
        <time>2019-08-22T13:38:43Z</time>
      </trkpt>
      <trkpt lat="40.024722" lon="-8.820138">
        <ele>75.097</ele>
        <time>2019-08-22T13:40:13Z</time>
      </trkpt>
      <trkpt lat="40.024387" lon="-8.820165">
        <ele>74.115</ele>
        <time>2019-08-22T13:40:19Z</time>
      </trkpt>
      <trkpt lat="40.024038" lon="-8.820555">
        <ele>74.593</ele>
        <time>2019-08-22T13:40:58Z</time>
      </trkpt>
      <trkpt lat="40.023929" lon="-8.820367">
        <ele>74.970</ele>
        <time>2019-08-22T13:41:05Z</time>
      </trkpt>
      <trkpt lat="40.024391" lon="-8.819858">
        <ele>74.717</ele>
        <time>2019-08-22T13:41:22Z</time>
      </trkpt>
      <trkpt lat="40.022911" lon="-8.818689">
        <ele>78.449</ele>
        <time>2019-08-22T13:41:55Z</time>
      </trkpt>
      <trkpt lat="40.022529" lon="-8.818902">
        <ele>77.932</ele>
        <time>2019-08-22T13:42:04Z</time>
      </trkpt>
      <trkpt lat="40.022025" lon="-8.818898">
        <ele>78.292</ele>
        <time>2019-08-22T13:42:14Z</time>
      </trkpt>
      <trkpt lat="40.021499" lon="-8.818807">
        <ele>78.111</ele>
        <time>2019-08-22T13:42:24Z</time>
      </trkpt>
      <trkpt lat="40.020592" lon="-8.818389">
        <ele>75.008</ele>
        <time>2019-08-22T13:42:41Z</time>
      </trkpt>
      <trkpt lat="40.017904" lon="-8.816634">
        <ele>79.137</ele>
        <time>2019-08-22T13:43:37Z</time>
      </trkpt>
      <trkpt lat="40.017438" lon="-8.816051">
        <ele>80.283</ele>
        <time>2019-08-22T13:43:59Z</time>
      </trkpt>
      <trkpt lat="40.016975" lon="-8.817115">
        <ele>79.016</ele>
        <time>2019-08-22T13:44:21Z</time>
      </trkpt>
      <trkpt lat="40.016593" lon="-8.817557">
        <ele>77.074</ele>
        <time>2019-08-22T13:44:30Z</time>
      </trkpt>
      <trkpt lat="40.015320" lon="-8.817869">
        <ele>79.742</ele>
        <time>2019-08-22T13:44:57Z</time>
      </trkpt>
      <trkpt lat="40.013792" lon="-8.819225">
        <ele>78.039</ele>
        <time>2019-08-22T13:45:36Z</time>
      </trkpt>
      <trkpt lat="40.013182" lon="-8.819476">
        <ele>79.416</ele>
        <time>2019-08-22T13:45:49Z</time>
      </trkpt>
      <trkpt lat="40.013479" lon="-8.820798">
        <ele>78.028</ele>
        <time>2019-08-22T13:46:10Z</time>
      </trkpt>
      <trkpt lat="40.013884" lon="-8.821803">
        <ele>75.575</ele>
        <time>2019-08-22T13:46:27Z</time>
      </trkpt>
      <trkpt lat="40.014253" lon="-8.823835">
        <ele>76.028</ele>
        <time>2019-08-22T13:47:03Z</time>
      </trkpt>
      <trkpt lat="40.014065" lon="-8.824000">
        <ele>75.520</ele>
        <time>2019-08-22T13:47:20Z</time>
      </trkpt>
      <trkpt lat="40.013631" lon="-8.825338">
        <ele>76.408</ele>
        <time>2019-08-22T13:47:45Z</time>
      </trkpt>
      <trkpt lat="40.012995" lon="-8.826489">
        <ele>79.021</ele>
        <time>2019-08-22T13:48:06Z</time>
      </trkpt>
      <trkpt lat="40.012672" lon="-8.827711">
        <ele>83.587</ele>
        <time>2019-08-22T13:48:26Z</time>
      </trkpt>
      <trkpt lat="40.012761" lon="-8.829820">
        <ele>79.530</ele>
        <time>2019-08-22T13:48:57Z</time>
      </trkpt>
      <trkpt lat="40.012623" lon="-8.832771">
        <ele>81.918</ele>
        <time>2019-08-22T13:49:34Z</time>
      </trkpt>
      <trkpt lat="40.011996" lon="-8.835209">
        <ele>73.326</ele>
        <time>2019-08-22T13:50:07Z</time>
      </trkpt>
      <trkpt lat="40.011973" lon="-8.837406">
        <ele>66.213</ele>
        <time>2019-08-22T13:50:34Z</time>
      </trkpt>
      <trkpt lat="40.011281" lon="-8.839120">
        <ele>62.550</ele>
        <time>2019-08-22T13:50:58Z</time>
      </trkpt>
      <trkpt lat="40.011580" lon="-8.840560">
        <ele>58.012</ele>
        <time>2019-08-22T13:51:17Z</time>
      </trkpt>
      <trkpt lat="40.012456" lon="-8.841925">
        <ele>57.192</ele>
        <time>2019-08-22T13:51:43Z</time>
      </trkpt>
      <trkpt lat="40.012782" lon="-8.843490">
        <ele>57.173</ele>
        <time>2019-08-22T13:52:04Z</time>
      </trkpt>
      <trkpt lat="40.012906" lon="-8.844800">
        <ele>54.920</ele>
        <time>2019-08-22T13:52:22Z</time>
      </trkpt>
      <trkpt lat="40.012788" lon="-8.846562">
        <ele>51.008</ele>
        <time>2019-08-22T13:52:45Z</time>
      </trkpt>
      <trkpt lat="40.013109" lon="-8.849139">
        <ele>51.233</ele>
        <time>2019-08-22T13:53:20Z</time>
      </trkpt>
      <trkpt lat="40.011966" lon="-8.850695">
        <ele>47.939</ele>
        <time>2019-08-22T13:53:50Z</time>
      </trkpt>
      <trkpt lat="40.011257" lon="-8.852325">
        <ele>44.312</ele>
        <time>2019-08-22T13:54:23Z</time>
      </trkpt>
      <trkpt lat="40.010184" lon="-8.853362">
        <ele>42.090</ele>
        <time>2019-08-22T13:54:47Z</time>
      </trkpt>
      <trkpt lat="40.008017" lon="-8.854976">
        <ele>45.878</ele>
        <time>2019-08-22T13:55:30Z</time>
      </trkpt>
      <trkpt lat="40.004834" lon="-8.856205">
        <ele>47.615</ele>
        <time>2019-08-22T13:58:25Z</time>
      </trkpt>
      <trkpt lat="40.001363" lon="-8.859824">
        <ele>49.272</ele>
        <time>2019-08-22T13:59:55Z</time>
      </trkpt>
      <trkpt lat="40.000935" lon="-8.860593">
        <ele>51.064</ele>
        <time>2019-08-22T14:00:07Z</time>
      </trkpt>
      <trkpt lat="40.000373" lon="-8.862856">
        <ele>41.717</ele>
        <time>2019-08-22T14:00:35Z</time>
      </trkpt>
      <trkpt lat="40.000291" lon="-8.863787">
        <ele>40.487</ele>
        <time>2019-08-22T14:00:53Z</time>
      </trkpt>
      <trkpt lat="40.000555" lon="-8.866368">
        <ele>40.015</ele>
        <time>2019-08-22T14:01:35Z</time>
      </trkpt>
      <trkpt lat="40.000252" lon="-8.863809">
        <ele>40.408</ele>
        <time>2019-08-22T14:02:28Z</time>
      </trkpt>
      <trkpt lat="39.998080" lon="-8.861422">
        <ele>46.225</ele>
        <time>2019-08-22T14:03:36Z</time>
      </trkpt>
      <trkpt lat="39.996048" lon="-8.860735">
        <ele>48.081</ele>
        <time>2019-08-22T14:04:17Z</time>
      </trkpt>
      <trkpt lat="39.987834" lon="-8.859731">
        <ele>53.284</ele>
        <time>2019-08-22T14:06:36Z</time>
      </trkpt>
      <trkpt lat="39.983833" lon="-8.857546">
        <ele>48.832</ele>
        <time>2019-08-22T14:07:56Z</time>
      </trkpt>
      <trkpt lat="39.982939" lon="-8.857227">
        <ele>50.810</ele>
        <time>2019-08-22T14:08:15Z</time>
      </trkpt>
      <trkpt lat="39.980292" lon="-8.857057">
        <ele>58.977</ele>
        <time>2019-08-22T14:09:08Z</time>
      </trkpt>
      <trkpt lat="39.980043" lon="-8.857157">
        <ele>57.874</ele>
        <time>2019-08-22T14:09:14Z</time>
      </trkpt>
      <trkpt lat="39.979323" lon="-8.862003">
        <ele>52.326</ele>
        <time>2019-08-22T14:11:56Z</time>
      </trkpt>
      <trkpt lat="39.974344" lon="-8.875709">
        <ele>51.645</ele>
        <time>2019-08-22T14:15:35Z</time>
      </trkpt>
      <trkpt lat="39.970658" lon="-8.881891">
        <ele>49.847</ele>
        <time>2019-08-22T14:17:27Z</time>
      </trkpt>
      <trkpt lat="39.970740" lon="-8.883730">
        <ele>62.211</ele>
        <time>2019-08-22T14:18:25Z</time>
      </trkpt>
      <trkpt lat="39.968574" lon="-8.890177">
        <ele>71.208</ele>
        <time>2019-08-22T14:21:08Z</time>
      </trkpt>
      <trkpt lat="39.966165" lon="-8.894920">
        <ele>55.078</ele>
        <time>2019-08-22T14:22:00Z</time>
      </trkpt>
      <trkpt lat="39.965720" lon="-8.895463">
        <ele>56.144</ele>
        <time>2019-08-22T14:22:10Z</time>
      </trkpt>
      <trkpt lat="39.965134" lon="-8.895748">
        <ele>57.917</ele>
        <time>2019-08-22T14:22:20Z</time>
      </trkpt>
      <trkpt lat="39.964503" lon="-8.895762">
        <ele>59.075</ele>
        <time>2019-08-22T14:22:30Z</time>
      </trkpt>
      <trkpt lat="39.955761" lon="-8.893807">
        <ele>61.243</ele>
        <time>2019-08-22T14:24:57Z</time>
      </trkpt>
      <trkpt lat="39.955236" lon="-8.893817">
        <ele>61.760</ele>
        <time>2019-08-22T14:25:08Z</time>
      </trkpt>
      <trkpt lat="39.954922" lon="-8.893714">
        <ele>61.477</ele>
        <time>2019-08-22T14:25:16Z</time>
      </trkpt>
      <trkpt lat="39.954677" lon="-8.893439">
        <ele>60.439</ele>
        <time>2019-08-22T14:25:24Z</time>
      </trkpt>
      <trkpt lat="39.953064" lon="-8.893232">
        <ele>65.672</ele>
        <time>2019-08-22T14:25:58Z</time>
      </trkpt>
      <trkpt lat="39.945194" lon="-8.891460">
        <ele>66.013</ele>
        <time>2019-08-22T14:28:08Z</time>
      </trkpt>
      <trkpt lat="39.943911" lon="-8.891443">
        <ele>71.214</ele>
        <time>2019-08-22T14:28:28Z</time>
      </trkpt>
      <trkpt lat="39.934801" lon="-8.896028">
        <ele>59.408</ele>
        <time>2019-08-22T14:30:57Z</time>
      </trkpt>
      <trkpt lat="39.932325" lon="-8.897494">
        <ele>58.411</ele>
        <time>2019-08-22T14:31:50Z</time>
      </trkpt>
      <trkpt lat="39.930594" lon="-8.898780">
        <ele>57.077</ele>
        <time>2019-08-22T14:32:23Z</time>
      </trkpt>
      <trkpt lat="39.929125" lon="-8.901380">
        <ele>61.920</ele>
        <time>2019-08-22T14:33:12Z</time>
      </trkpt>
      <trkpt lat="39.928771" lon="-8.901720">
        <ele>59.498</ele>
        <time>2019-08-22T14:33:21Z</time>
      </trkpt>
      <trkpt lat="39.922938" lon="-8.903785">
        <ele>68.016</ele>
        <time>2019-08-22T14:35:23Z</time>
      </trkpt>
      <trkpt lat="39.922352" lon="-8.904171">
        <ele>71.073</ele>
        <time>2019-08-22T14:35:36Z</time>
      </trkpt>
      <trkpt lat="39.922158" lon="-8.905064">
        <ele>72.930</ele>
        <time>2019-08-22T14:35:51Z</time>
      </trkpt>
      <trkpt lat="39.924664" lon="-8.916913">
        <ele>61.122</ele>
        <time>2019-08-22T14:38:42Z</time>
      </trkpt>
      <trkpt lat="39.923651" lon="-8.918440">
        <ele>62.441</ele>
        <time>2019-08-22T14:39:16Z</time>
      </trkpt>
      <trkpt lat="39.923869" lon="-8.920473">
        <ele>62.181</ele>
        <time>2019-08-22T14:41:57Z</time>
      </trkpt>
      <trkpt lat="39.923615" lon="-8.921430">
        <ele>67.309</ele>
        <time>2019-08-22T14:42:14Z</time>
      </trkpt>
      <trkpt lat="39.923315" lon="-8.921777">
        <ele>68.308</ele>
        <time>2019-08-22T14:42:23Z</time>
      </trkpt>
      <trkpt lat="39.922815" lon="-8.922026">
        <ele>66.258</ele>
        <time>2019-08-22T14:42:35Z</time>
      </trkpt>
      <trkpt lat="39.921932" lon="-8.922193">
        <ele>67.014</ele>
        <time>2019-08-22T14:42:55Z</time>
      </trkpt>
      <trkpt lat="39.920864" lon="-8.922103">
        <ele>65.077</ele>
        <time>2019-08-22T14:43:21Z</time>
      </trkpt>
      <trkpt lat="39.920405" lon="-8.922355">
        <ele>69.415</ele>
        <time>2019-08-22T14:43:33Z</time>
      </trkpt>
      <trkpt lat="39.919445" lon="-8.924447">
        <ele>77.053</ele>
        <time>2019-08-22T14:44:15Z</time>
      </trkpt>
      <trkpt lat="39.919242" lon="-8.925658">
        <ele>77.480</ele>
        <time>2019-08-22T14:44:37Z</time>
      </trkpt>
      <trkpt lat="39.922454" lon="-8.940758">
        <ele>48.067</ele>
        <time>2019-08-22T14:48:10Z</time>
      </trkpt>
      <trkpt lat="39.922481" lon="-8.941306">
        <ele>47.249</ele>
        <time>2019-08-22T14:48:17Z</time>
      </trkpt>
      <trkpt lat="39.922107" lon="-8.941505">
        <ele>49.285</ele>
        <time>2019-08-22T14:48:29Z</time>
      </trkpt>
      <trkpt lat="39.922616" lon="-8.941263">
        <ele>46.089</ele>
        <time>2019-08-22T14:49:06Z</time>
      </trkpt>
      <trkpt lat="39.922917" lon="-8.941545">
        <ele>45.017</ele>
        <time>2019-08-22T14:49:17Z</time>
      </trkpt>
      <trkpt lat="39.923230" lon="-8.941600">
        <ele>45.208</ele>
        <time>2019-08-22T14:49:26Z</time>
      </trkpt>
      <trkpt lat="39.922709" lon="-8.941596">
        <ele>45.192</ele>
        <time>2019-08-22T14:50:06Z</time>
      </trkpt>
      <trkpt lat="39.923659" lon="-8.941641">
        <ele>42.488</ele>
        <time>2019-08-22T14:50:28Z</time>
      </trkpt>
      <trkpt lat="39.923911" lon="-8.941900">
        <ele>38.931</ele>
        <time>2019-08-22T14:50:34Z</time>
      </trkpt>
      <trkpt lat="39.923782" lon="-8.942337">
        <ele>37.449</ele>
        <time>2019-08-22T14:50:56Z</time>
      </trkpt>
      <trkpt lat="39.923367" lon="-8.942384">
        <ele>38.197</ele>
        <time>2019-08-22T14:51:08Z</time>
      </trkpt>
      <trkpt lat="39.922811" lon="-8.942671">
        <ele>36.994</ele>
        <time>2019-08-22T14:51:24Z</time>
      </trkpt>
      <trkpt lat="39.922075" lon="-8.943309">
        <ele>35.811</ele>
        <time>2019-08-22T14:51:43Z</time>
      </trkpt>
      <trkpt lat="39.920579" lon="-8.945478">
        <ele>33.653</ele>
        <time>2019-08-22T14:52:23Z</time>
      </trkpt>
      <trkpt lat="39.922281" lon="-8.950348">
        <ele>18.715</ele>
        <time>2019-08-22T14:53:16Z</time>
      </trkpt>
      <trkpt lat="39.922356" lon="-8.951384">
        <ele>15.065</ele>
        <time>2019-08-22T14:53:44Z</time>
      </trkpt>
      <trkpt lat="39.920038" lon="-8.952184">
        <ele>12.211</ele>
        <time>2019-08-22T14:54:37Z</time>
      </trkpt>
      <trkpt lat="39.917149" lon="-8.954329">
        <ele>10.708</ele>
        <time>2019-08-22T14:55:42Z</time>
      </trkpt>
      <trkpt lat="39.914755" lon="-8.950993">
        <ele>14.925</ele>
        <time>2019-08-22T14:56:54Z</time>
      </trkpt>
      <trkpt lat="39.914308" lon="-8.950828">
        <ele>17.571</ele>
        <time>2019-08-22T14:57:04Z</time>
      </trkpt>
      <trkpt lat="39.880076" lon="-8.963340">
        <ele>2.084</ele>
        <time>2019-08-22T15:08:16Z</time>
      </trkpt>
      <trkpt lat="39.879535" lon="-8.963592">
        <ele>2.112</ele>
        <time>2019-08-22T15:08:28Z</time>
      </trkpt>
      <trkpt lat="39.879350" lon="-8.963846">
        <ele>1.250</ele>
        <time>2019-08-22T15:08:34Z</time>
      </trkpt>
      <trkpt lat="39.879148" lon="-8.965657">
        <ele>5.067</ele>
        <time>2019-08-22T15:11:13Z</time>
      </trkpt>
      <trkpt lat="39.877872" lon="-8.965521">
        <ele>6.134</ele>
        <time>2019-08-22T15:11:49Z</time>
      </trkpt>
      <trkpt lat="39.877078" lon="-8.965814">
        <ele>5.066</ele>
        <time>2019-08-22T15:12:19Z</time>
      </trkpt>
      <trkpt lat="39.877719" lon="-8.965530">
        <ele>5.982</ele>
        <time>2019-08-22T15:12:45Z</time>
      </trkpt>
      <trkpt lat="39.879072" lon="-8.965500">
        <ele>4.443</ele>
        <time>2019-08-22T15:13:13Z</time>
      </trkpt>
      <trkpt lat="39.879179" lon="-8.964269">
        <ele>2.017</ele>
        <time>2019-08-22T15:13:35Z</time>
      </trkpt>
      <trkpt lat="39.879098" lon="-8.963929">
        <ele>1.608</ele>
        <time>2019-08-22T15:13:41Z</time>
      </trkpt>
      <trkpt lat="39.878912" lon="-8.963821">
        <ele>2.912</ele>
        <time>2019-08-22T15:13:45Z</time>
      </trkpt>
      <trkpt lat="39.873381" lon="-8.965748">
        <ele>4.028</ele>
        <time>2019-08-22T15:16:21Z</time>
      </trkpt>
      <trkpt lat="39.873073" lon="-8.966222">
        <ele>4.471</ele>
        <time>2019-08-22T15:16:32Z</time>
      </trkpt>
      <trkpt lat="39.873244" lon="-8.967433">
        <ele>8.229</ele>
        <time>2019-08-22T15:16:58Z</time>
      </trkpt>
      <trkpt lat="39.873438" lon="-8.967422">
        <ele>8.917</ele>
        <time>2019-08-22T15:17:08Z</time>
      </trkpt>
      <trkpt lat="39.873969" lon="-8.966969">
        <ele>8.464</ele>
        <time>2019-08-22T15:17:37Z</time>
      </trkpt>
      <trkpt lat="39.873249" lon="-8.967411">
        <ele>8.191</ele>
        <time>2019-08-22T15:31:35Z</time>
      </trkpt>
      <trkpt lat="39.873457" lon="-8.967306">
        <ele>8.423</ele>
        <time>2019-08-22T15:45:52Z</time>
      </trkpt>
      <trkpt lat="39.877018" lon="-8.964879">
        <ele>6.798</ele>
        <time>2019-08-23T08:40:57Z</time>
      </trkpt>
      <trkpt lat="39.877165" lon="-8.964792">
        <ele>6.815</ele>
        <time>2019-08-23T09:52:10Z</time>
      </trkpt>
      <trkpt lat="39.876767" lon="-8.965241">
        <ele>6.026</ele>
        <time>2019-08-23T09:53:35Z</time>
      </trkpt>
      <trkpt lat="39.875798" lon="-8.965854">
        <ele>7.908</ele>
        <time>2019-08-23T09:55:33Z</time>
      </trkpt>
      <trkpt lat="39.875608" lon="-8.965638">
        <ele>5.853</ele>
        <time>2019-08-23T09:55:45Z</time>
      </trkpt>
      <trkpt lat="39.875101" lon="-8.965521">
        <ele>3.079</ele>
        <time>2019-08-23T09:56:03Z</time>
      </trkpt>
      <trkpt lat="39.874790" lon="-8.965980">
        <ele>6.132</ele>
        <time>2019-08-23T09:56:16Z</time>
      </trkpt>
      <trkpt lat="39.874486" lon="-8.966097">
        <ele>6.156</ele>
        <time>2019-08-23T09:56:24Z</time>
      </trkpt>
      <trkpt lat="39.874030" lon="-8.966886">
        <ele>8.089</ele>
        <time>2019-08-23T09:56:45Z</time>
      </trkpt>
      <trkpt lat="39.873283" lon="-8.967508">
        <ele>8.955</ele>
        <time>2019-08-23T09:58:14Z</time>
      </trkpt>
      <trkpt lat="39.873401" lon="-8.968450">
        <ele>10.349</ele>
        <time>2019-08-23T09:58:42Z</time>
      </trkpt>
      <trkpt lat="39.873690" lon="-8.969051">
        <ele>8.833</ele>
        <time>2019-08-23T09:59:15Z</time>
      </trkpt>
      <trkpt lat="39.873692" lon="-8.968848">
        <ele>9.064</ele>
        <time>2019-08-23T10:02:45Z</time>
      </trkpt>
      <trkpt lat="39.873575" lon="-8.969060">
        <ele>9.006</ele>
        <time>2019-08-23T10:24:13Z</time>
      </trkpt>
      <trkpt lat="39.873749" lon="-8.969647">
        <ele>8.116</ele>
        <time>2019-08-23T10:25:00Z</time>
      </trkpt>
      <trkpt lat="39.873615" lon="-8.969746">
        <ele>8.008</ele>
        <time>2019-08-23T10:25:10Z</time>
      </trkpt>
      <trkpt lat="39.873333" lon="-8.969697">
        <ele>9.040</ele>
        <time>2019-08-23T10:25:18Z</time>
      </trkpt>
      <trkpt lat="39.873300" lon="-8.969178">
        <ele>9.096</ele>
        <time>2019-08-23T10:26:04Z</time>
      </trkpt>
      <trkpt lat="39.873131" lon="-8.969026">
        <ele>9.069</ele>
        <time>2019-08-23T10:26:15Z</time>
      </trkpt>
      <trkpt lat="39.873172" lon="-8.969196">
        <ele>9.033</ele>
        <time>2019-08-23T10:26:52Z</time>
      </trkpt>
      <trkpt lat="39.872760" lon="-8.968029">
        <ele>9.856</ele>
        <time>2019-08-23T10:27:34Z</time>
      </trkpt>
      <trkpt lat="39.873006" lon="-8.967914">
        <ele>10.362</ele>
        <time>2019-08-23T10:27:57Z</time>
      </trkpt>
      <trkpt lat="39.873168" lon="-8.967565">
        <ele>8.876</ele>
        <time>2019-08-23T10:28:07Z</time>
      </trkpt>
      <trkpt lat="39.872950" lon="-8.966171">
        <ele>4.110</ele>
        <time>2019-08-23T10:28:28Z</time>
      </trkpt>
      <trkpt lat="39.872767" lon="-8.966040">
        <ele>3.867</ele>
        <time>2019-08-23T10:28:40Z</time>
      </trkpt>
      <trkpt lat="39.791737" lon="-8.995710">
        <ele>41.681</ele>
        <time>2019-08-23T10:56:59Z</time>
      </trkpt>
      <trkpt lat="39.790994" lon="-8.996592">
        <ele>41.919</ele>
        <time>2019-08-23T10:57:16Z</time>
      </trkpt>
      <trkpt lat="39.786173" lon="-9.007225">
        <ele>37.508</ele>
        <time>2019-08-23T10:59:55Z</time>
      </trkpt>
      <trkpt lat="39.785562" lon="-9.007952">
        <ele>37.020</ele>
        <time>2019-08-23T11:00:09Z</time>
      </trkpt>
      <trkpt lat="39.784432" lon="-9.008585">
        <ele>37.216</ele>
        <time>2019-08-23T11:00:30Z</time>
      </trkpt>
      <trkpt lat="39.783472" lon="-9.009422">
        <ele>37.139</ele>
        <time>2019-08-23T11:00:53Z</time>
      </trkpt>
      <trkpt lat="39.782411" lon="-9.011469">
        <ele>35.383</ele>
        <time>2019-08-23T11:02:39Z</time>
      </trkpt>
      <trkpt lat="39.782208" lon="-9.012671">
        <ele>36.096</ele>
        <time>2019-08-23T11:02:57Z</time>
      </trkpt>
      <trkpt lat="39.781541" lon="-9.013706">
        <ele>37.722</ele>
        <time>2019-08-23T11:03:14Z</time>
      </trkpt>
      <trkpt lat="39.781085" lon="-9.014145">
        <ele>38.126</ele>
        <time>2019-08-23T11:03:25Z</time>
      </trkpt>
      <trkpt lat="39.778391" lon="-9.015157">
        <ele>38.280</ele>
        <time>2019-08-23T11:04:19Z</time>
      </trkpt>
      <trkpt lat="39.777773" lon="-9.015572">
        <ele>37.923</ele>
        <time>2019-08-23T11:04:33Z</time>
      </trkpt>
      <trkpt lat="39.776634" lon="-9.017172">
        <ele>35.483</ele>
        <time>2019-08-23T11:05:02Z</time>
      </trkpt>
      <trkpt lat="39.776071" lon="-9.019361">
        <ele>23.311</ele>
        <time>2019-08-23T11:05:23Z</time>
      </trkpt>
      <trkpt lat="39.775805" lon="-9.019880">
        <ele>19.408</ele>
        <time>2019-08-23T11:05:28Z</time>
      </trkpt>
      <trkpt lat="39.775179" lon="-9.020153">
        <ele>16.576</ele>
        <time>2019-08-23T11:05:35Z</time>
      </trkpt>
      <trkpt lat="39.774425" lon="-9.019772">
        <ele>16.812</ele>
        <time>2019-08-23T11:05:45Z</time>
      </trkpt>
      <trkpt lat="39.774254" lon="-9.019837">
        <ele>18.825</ele>
        <time>2019-08-23T11:05:49Z</time>
      </trkpt>
      <trkpt lat="39.774058" lon="-9.022356">
        <ele>22.699</ele>
        <time>2019-08-23T11:06:59Z</time>
      </trkpt>
      <trkpt lat="39.773646" lon="-9.023253">
        <ele>20.212</ele>
        <time>2019-08-23T11:07:27Z</time>
      </trkpt>
      <trkpt lat="39.772980" lon="-9.023702">
        <ele>20.398</ele>
        <time>2019-08-23T11:09:56Z</time>
      </trkpt>
      <trkpt lat="39.771190" lon="-9.024407">
        <ele>22.642</ele>
        <time>2019-08-23T11:10:38Z</time>
      </trkpt>
      <trkpt lat="39.770555" lon="-9.024910">
        <ele>25.346</ele>
        <time>2019-08-23T11:10:53Z</time>
      </trkpt>
      <trkpt lat="39.769441" lon="-9.026834">
        <ele>18.576</ele>
        <time>2019-08-23T11:11:22Z</time>
      </trkpt>
      <trkpt lat="39.769003" lon="-9.028217">
        <ele>20.190</ele>
        <time>2019-08-23T11:11:39Z</time>
      </trkpt>
      <trkpt lat="39.768630" lon="-9.028458">
        <ele>17.719</ele>
        <time>2019-08-23T11:11:45Z</time>
      </trkpt>
      <trkpt lat="39.767767" lon="-9.028561">
        <ele>16.908</ele>
        <time>2019-08-23T11:14:48Z</time>
      </trkpt>
      <trkpt lat="39.766803" lon="-9.029812">
        <ele>13.911</ele>
        <time>2019-08-23T11:15:16Z</time>
      </trkpt>
      <trkpt lat="39.764264" lon="-9.030818">
        <ele>25.137</ele>
        <time>2019-08-23T11:16:55Z</time>
      </trkpt>
      <trkpt lat="39.764415" lon="-9.031056">
        <ele>18.770</ele>
        <time>2019-08-23T11:17:15Z</time>
      </trkpt>
      <trkpt lat="39.764131" lon="-9.031426">
        <ele>15.334</ele>
        <time>2019-08-23T11:17:26Z</time>
      </trkpt>
      <trkpt lat="39.764164" lon="-9.031768">
        <ele>8.527</ele>
        <time>2019-08-23T11:18:38Z</time>
      </trkpt>
      <trkpt lat="39.764081" lon="-9.031532">
        <ele>13.143</ele>
        <time>2019-08-23T11:21:10Z</time>
      </trkpt>
      <trkpt lat="39.764383" lon="-9.031068">
        <ele>19.027</ele>
        <time>2019-08-23T11:21:25Z</time>
      </trkpt>
      <trkpt lat="39.764320" lon="-9.030820">
        <ele>24.521</ele>
        <time>2019-08-23T11:21:34Z</time>
      </trkpt>
      <trkpt lat="39.762924" lon="-9.031024">
        <ele>19.911</ele>
        <time>2019-08-23T11:22:07Z</time>
      </trkpt>
      <trkpt lat="39.761291" lon="-9.030733">
        <ele>26.721</ele>
        <time>2019-08-23T11:22:39Z</time>
      </trkpt>
      <trkpt lat="39.761062" lon="-9.030568">
        <ele>28.003</ele>
        <time>2019-08-23T11:22:44Z</time>
      </trkpt>
      <trkpt lat="39.759741" lon="-9.030258">
        <ele>31.108</ele>
        <time>2019-08-23T11:23:12Z</time>
      </trkpt>
      <trkpt lat="39.760030" lon="-9.030435">
        <ele>30.475</ele>
        <time>2019-08-23T11:23:26Z</time>
      </trkpt>
      <trkpt lat="39.759925" lon="-9.030907">
        <ele>28.531</ele>
        <time>2019-08-23T11:23:34Z</time>
      </trkpt>
      <trkpt lat="39.759612" lon="-9.031606">
        <ele>26.574</ele>
        <time>2019-08-23T11:23:47Z</time>
      </trkpt>
      <trkpt lat="39.758945" lon="-9.032470">
        <ele>19.698</ele>
        <time>2019-08-23T11:25:55Z</time>
      </trkpt>
      <trkpt lat="39.758171" lon="-9.032618">
        <ele>16.431</ele>
        <time>2019-08-23T11:26:17Z</time>
      </trkpt>
      <trkpt lat="39.756579" lon="-9.032378">
        <ele>10.297</ele>
        <time>2019-08-23T11:26:56Z</time>
      </trkpt>
      <trkpt lat="39.756454" lon="-9.032285">
        <ele>10.711</ele>
        <time>2019-08-23T11:27:01Z</time>
      </trkpt>
      <trkpt lat="39.756466" lon="-9.032017">
        <ele>11.935</ele>
        <time>2019-08-23T11:27:10Z</time>
      </trkpt>
      <trkpt lat="39.755832" lon="-9.031638">
        <ele>9.085</ele>
        <time>2019-08-23T11:31:54Z</time>
      </trkpt>
      <trkpt lat="39.756349" lon="-9.031798">
        <ele>11.889</ele>
        <time>2019-08-23T11:33:26Z</time>
      </trkpt>
      <trkpt lat="39.756568" lon="-9.030965">
        <ele>20.317</ele>
        <time>2019-08-23T11:34:20Z</time>
      </trkpt>
      <trkpt lat="39.756716" lon="-9.030875">
        <ele>23.408</ele>
        <time>2019-08-23T11:34:31Z</time>
      </trkpt>
      <trkpt lat="39.756499" lon="-9.029357">
        <ele>28.322</ele>
        <time>2019-08-23T11:35:28Z</time>
      </trkpt>
      <trkpt lat="39.755903" lon="-9.028859">
        <ele>27.838</ele>
        <time>2019-08-23T11:35:53Z</time>
      </trkpt>
      <trkpt lat="39.755171" lon="-9.028570">
        <ele>33.161</ele>
        <time>2019-08-23T11:36:18Z</time>
      </trkpt>
      <trkpt lat="39.754444" lon="-9.027928">
        <ele>41.975</ele>
        <time>2019-08-23T11:37:00Z</time>
      </trkpt>
      <trkpt lat="39.752996" lon="-9.027561">
        <ele>48.468</ele>
        <time>2019-08-23T11:41:37Z</time>
      </trkpt>
      <trkpt lat="39.747110" lon="-9.026717">
        <ele>63.834</ele>
        <time>2019-08-23T11:44:29Z</time>
      </trkpt>
      <trkpt lat="39.746316" lon="-9.026785">
        <ele>64.048</ele>
        <time>2019-08-23T11:44:43Z</time>
      </trkpt>
      <trkpt lat="39.744983" lon="-9.027233">
        <ele>62.912</ele>
        <time>2019-08-23T11:45:03Z</time>
      </trkpt>
      <trkpt lat="39.731261" lon="-9.032241">
        <ele>53.512</ele>
        <time>2019-08-23T11:48:51Z</time>
      </trkpt>
      <trkpt lat="39.730568" lon="-9.032520">
        <ele>52.932</ele>
        <time>2019-08-23T11:49:02Z</time>
      </trkpt>
      <trkpt lat="39.730331" lon="-9.033021">
        <ele>52.105</ele>
        <time>2019-08-23T11:49:11Z</time>
      </trkpt>
      <trkpt lat="39.730048" lon="-9.032865">
        <ele>52.708</ele>
        <time>2019-08-23T11:49:18Z</time>
      </trkpt>
      <trkpt lat="39.729852" lon="-9.032987">
        <ele>52.885</ele>
        <time>2019-08-23T11:49:22Z</time>
      </trkpt>
      <trkpt lat="39.729361" lon="-9.033530">
        <ele>54.331</ele>
        <time>2019-08-23T11:49:34Z</time>
      </trkpt>
      <trkpt lat="39.728792" lon="-9.034631">
        <ele>55.194</ele>
        <time>2019-08-23T11:49:54Z</time>
      </trkpt>
      <trkpt lat="39.728257" lon="-9.035771">
        <ele>54.048</ele>
        <time>2019-08-23T11:50:12Z</time>
      </trkpt>
      <trkpt lat="39.728264" lon="-9.036347">
        <ele>52.821</ele>
        <time>2019-08-23T11:50:22Z</time>
      </trkpt>
      <trkpt lat="39.727894" lon="-9.036492">
        <ele>51.077</ele>
        <time>2019-08-23T11:50:32Z</time>
      </trkpt>
      <trkpt lat="39.725654" lon="-9.041014">
        <ele>55.611</ele>
        <time>2019-08-23T11:51:46Z</time>
      </trkpt>
      <trkpt lat="39.725702" lon="-9.041379">
        <ele>55.015</ele>
        <time>2019-08-23T11:51:55Z</time>
      </trkpt>
      <trkpt lat="39.725270" lon="-9.041476">
        <ele>56.463</ele>
        <time>2019-08-23T11:52:07Z</time>
      </trkpt>
      <trkpt lat="39.721261" lon="-9.046775">
        <ele>46.744</ele>
        <time>2019-08-23T11:53:44Z</time>
      </trkpt>
      <trkpt lat="39.721166" lon="-9.047099">
        <ele>45.418</ele>
        <time>2019-08-23T11:53:54Z</time>
      </trkpt>
      <trkpt lat="39.720963" lon="-9.047006">
        <ele>47.308</ele>
        <time>2019-08-23T11:54:03Z</time>
      </trkpt>
      <trkpt lat="39.720170" lon="-9.047275">
        <ele>47.250</ele>
        <time>2019-08-23T11:54:20Z</time>
      </trkpt>
      <trkpt lat="39.707285" lon="-9.048299">
        <ele>47.816</ele>
        <time>2019-08-23T11:57:46Z</time>
      </trkpt>
      <trkpt lat="39.706504" lon="-9.048456">
        <ele>48.459</ele>
        <time>2019-08-23T11:58:02Z</time>
      </trkpt>
      <trkpt lat="39.706317" lon="-9.048731">
        <ele>48.023</ele>
        <time>2019-08-23T11:58:12Z</time>
      </trkpt>
      <trkpt lat="39.706220" lon="-9.048692">
        <ele>48.026</ele>
        <time>2019-08-23T11:58:16Z</time>
      </trkpt>
      <trkpt lat="39.705863" lon="-9.049437">
        <ele>37.552</ele>
        <time>2019-08-23T12:07:36Z</time>
      </trkpt>
      <trkpt lat="39.705863" lon="-9.049255">
        <ele>41.326</ele>
        <time>2019-08-23T12:12:56Z</time>
      </trkpt>
      <trkpt lat="39.706211" lon="-9.048850">
        <ele>48.090</ele>
        <time>2019-08-23T12:13:12Z</time>
      </trkpt>
      <trkpt lat="39.706154" lon="-9.048421">
        <ele>48.691</ele>
        <time>2019-08-23T12:13:22Z</time>
      </trkpt>
      <trkpt lat="39.705384" lon="-9.047815">
        <ele>53.181</ele>
        <time>2019-08-23T12:13:46Z</time>
      </trkpt>
      <trkpt lat="39.704589" lon="-9.046199">
        <ele>56.319</ele>
        <time>2019-08-23T12:14:37Z</time>
      </trkpt>
      <trkpt lat="39.704332" lon="-9.046197">
        <ele>57.608</ele>
        <time>2019-08-23T12:14:44Z</time>
      </trkpt>
      <trkpt lat="39.704434" lon="-9.045818">
        <ele>57.143</ele>
        <time>2019-08-23T12:14:54Z</time>
      </trkpt>
      <trkpt lat="39.704313" lon="-9.045512">
        <ele>59.179</ele>
        <time>2019-08-23T12:15:02Z</time>
      </trkpt>
      <trkpt lat="39.700857" lon="-9.037438">
        <ele>89.012</ele>
        <time>2019-08-23T12:18:25Z</time>
      </trkpt>
      <trkpt lat="39.698709" lon="-9.030588">
        <ele>100.556</ele>
        <time>2019-08-23T12:20:48Z</time>
      </trkpt>
      <trkpt lat="39.698444" lon="-9.023912">
        <ele>98.579</ele>
        <time>2019-08-23T12:22:18Z</time>
      </trkpt>
      <trkpt lat="39.697308" lon="-9.021530">
        <ele>100.155</ele>
        <time>2019-08-23T12:23:03Z</time>
      </trkpt>
      <trkpt lat="39.696392" lon="-9.020051">
        <ele>104.079</ele>
        <time>2019-08-23T12:23:34Z</time>
      </trkpt>
      <trkpt lat="39.696185" lon="-9.020303">
        <ele>102.413</ele>
        <time>2019-08-23T12:23:41Z</time>
      </trkpt>
      <trkpt lat="39.695446" lon="-9.024521">
        <ele>98.611</ele>
        <time>2019-08-23T12:24:44Z</time>
      </trkpt>
      <trkpt lat="39.695431" lon="-9.026243">
        <ele>95.321</ele>
        <time>2019-08-23T12:25:11Z</time>
      </trkpt>
      <trkpt lat="39.695798" lon="-9.032006">
        <ele>93.003</ele>
        <time>2019-08-23T12:26:50Z</time>
      </trkpt>
      <trkpt lat="39.695731" lon="-9.032778">
        <ele>94.808</ele>
        <time>2019-08-23T12:27:33Z</time>
      </trkpt>
      <trkpt lat="39.695230" lon="-9.033911">
        <ele>93.225</ele>
        <time>2019-08-23T12:28:35Z</time>
      </trkpt>
      <trkpt lat="39.695146" lon="-9.034556">
        <ele>92.411</ele>
        <time>2019-08-23T12:28:41Z</time>
      </trkpt>
      <trkpt lat="39.695306" lon="-9.035095">
        <ele>93.844</ele>
        <time>2019-08-23T12:28:47Z</time>
      </trkpt>
      <trkpt lat="39.696540" lon="-9.037117">
        <ele>83.698</ele>
        <time>2019-08-23T12:29:20Z</time>
      </trkpt>
      <trkpt lat="39.697072" lon="-9.039784">
        <ele>78.561</ele>
        <time>2019-08-23T12:29:50Z</time>
      </trkpt>
      <trkpt lat="39.697783" lon="-9.041487">
        <ele>70.527</ele>
        <time>2019-08-23T12:30:09Z</time>
      </trkpt>
      <trkpt lat="39.697964" lon="-9.043421">
        <ele>62.661</ele>
        <time>2019-08-23T12:30:25Z</time>
      </trkpt>
      <trkpt lat="39.698305" lon="-9.044861">
        <ele>59.015</ele>
        <time>2019-08-23T12:30:41Z</time>
      </trkpt>
      <trkpt lat="39.698186" lon="-9.047078">
        <ele>58.348</ele>
        <time>2019-08-23T12:31:13Z</time>
      </trkpt>
      <trkpt lat="39.698083" lon="-9.047210">
        <ele>58.861</ele>
        <time>2019-08-23T12:31:17Z</time>
      </trkpt>
      <trkpt lat="39.697407" lon="-9.047126">
        <ele>63.017</ele>
        <time>2019-08-23T12:31:51Z</time>
      </trkpt>
      <trkpt lat="39.696804" lon="-9.047226">
        <ele>65.008</ele>
        <time>2019-08-23T12:32:05Z</time>
      </trkpt>
      <trkpt lat="39.693272" lon="-9.051840">
        <ele>63.278</ele>
        <time>2019-08-23T12:33:53Z</time>
      </trkpt>
      <trkpt lat="39.692662" lon="-9.052375">
        <ele>64.194</ele>
        <time>2019-08-23T12:34:11Z</time>
      </trkpt>
      <trkpt lat="39.691667" lon="-9.053624">
        <ele>63.027</ele>
        <time>2019-08-23T12:34:40Z</time>
      </trkpt>
      <trkpt lat="39.690584" lon="-9.054161">
        <ele>62.061</ele>
        <time>2019-08-23T12:35:04Z</time>
      </trkpt>
      <trkpt lat="39.689695" lon="-9.054408">
        <ele>63.244</ele>
        <time>2019-08-23T12:35:24Z</time>
      </trkpt>
      <trkpt lat="39.688911" lon="-9.055173">
        <ele>61.760</ele>
        <time>2019-08-23T12:35:41Z</time>
      </trkpt>
      <trkpt lat="39.688064" lon="-9.055730">
        <ele>59.374</ele>
        <time>2019-08-23T12:35:57Z</time>
      </trkpt>
      <trkpt lat="39.687297" lon="-9.055891">
        <ele>60.688</ele>
        <time>2019-08-23T12:36:11Z</time>
      </trkpt>
      <trkpt lat="39.686007" lon="-9.056449">
        <ele>57.551</ele>
        <time>2019-08-23T12:36:33Z</time>
      </trkpt>
      <trkpt lat="39.685167" lon="-9.056527">
        <ele>54.701</ele>
        <time>2019-08-23T12:36:54Z</time>
      </trkpt>
      <trkpt lat="39.685337" lon="-9.055979">
        <ele>57.411</ele>
        <time>2019-08-23T12:37:08Z</time>
      </trkpt>
      <trkpt lat="39.685309" lon="-9.054875">
        <ele>63.508</ele>
        <time>2019-08-23T12:37:34Z</time>
      </trkpt>
      <trkpt lat="39.685071" lon="-9.053911">
        <ele>65.979</ele>
        <time>2019-08-23T12:37:55Z</time>
      </trkpt>
      <trkpt lat="39.684236" lon="-9.051954">
        <ele>73.295</ele>
        <time>2019-08-23T12:38:37Z</time>
      </trkpt>
      <trkpt lat="39.684281" lon="-9.050893">
        <ele>75.268</ele>
        <time>2019-08-23T12:38:57Z</time>
      </trkpt>
      <trkpt lat="39.683643" lon="-9.048972">
        <ele>74.252</ele>
        <time>2019-08-23T12:39:35Z</time>
      </trkpt>
      <trkpt lat="39.683327" lon="-9.046734">
        <ele>85.585</ele>
        <time>2019-08-23T12:40:48Z</time>
      </trkpt>
      <trkpt lat="39.680924" lon="-9.050867">
        <ele>83.941</ele>
        <time>2019-08-23T12:42:08Z</time>
      </trkpt>
      <trkpt lat="39.679849" lon="-9.052026">
        <ele>84.465</ele>
        <time>2019-08-23T12:42:31Z</time>
      </trkpt>
      <trkpt lat="39.674162" lon="-9.053846">
        <ele>85.989</ele>
        <time>2019-08-23T12:44:12Z</time>
      </trkpt>
      <trkpt lat="39.670722" lon="-9.056599">
        <ele>78.856</ele>
        <time>2019-08-23T12:45:16Z</time>
      </trkpt>
      <trkpt lat="39.659987" lon="-9.061735">
        <ele>78.859</ele>
        <time>2019-08-23T12:48:28Z</time>
      </trkpt>
      <trkpt lat="39.656395" lon="-9.064094">
        <ele>75.614</ele>
        <time>2019-08-23T12:49:30Z</time>
      </trkpt>
      <trkpt lat="39.655610" lon="-9.064455">
        <ele>74.508</ele>
        <time>2019-08-23T12:49:44Z</time>
      </trkpt>
      <trkpt lat="39.654990" lon="-9.064507">
        <ele>78.679</ele>
        <time>2019-08-23T12:49:55Z</time>
      </trkpt>
      <trkpt lat="39.650600" lon="-9.063903">
        <ele>89.425</ele>
        <time>2019-08-23T12:51:25Z</time>
      </trkpt>
      <trkpt lat="39.649632" lon="-9.063890">
        <ele>83.048</ele>
        <time>2019-08-23T12:51:43Z</time>
      </trkpt>
      <trkpt lat="39.649489" lon="-9.063742">
        <ele>83.042</ele>
        <time>2019-08-23T12:51:49Z</time>
      </trkpt>
      <trkpt lat="39.646169" lon="-9.063288">
        <ele>85.215</ele>
        <time>2019-08-23T12:52:50Z</time>
      </trkpt>
      <trkpt lat="39.644828" lon="-9.063826">
        <ele>87.881</ele>
        <time>2019-08-23T12:53:15Z</time>
      </trkpt>
      <trkpt lat="39.641310" lon="-9.066158">
        <ele>86.515</ele>
        <time>2019-08-23T12:54:31Z</time>
      </trkpt>
      <trkpt lat="39.635562" lon="-9.069439">
        <ele>75.179</ele>
        <time>2019-08-23T12:56:12Z</time>
      </trkpt>
      <trkpt lat="39.631067" lon="-9.069472">
        <ele>87.349</ele>
        <time>2019-08-23T12:58:07Z</time>
      </trkpt>
      <trkpt lat="39.626467" lon="-9.069774">
        <ele>92.702</ele>
        <time>2019-08-23T12:59:58Z</time>
      </trkpt>
      <trkpt lat="39.624176" lon="-9.069783">
        <ele>86.822</ele>
        <time>2019-08-23T13:00:28Z</time>
      </trkpt>
      <trkpt lat="39.622230" lon="-9.070666">
        <ele>91.708</ele>
        <time>2019-08-23T13:00:57Z</time>
      </trkpt>
      <trkpt lat="39.620548" lon="-9.071150">
        <ele>95.788</ele>
        <time>2019-08-23T13:01:30Z</time>
      </trkpt>
      <trkpt lat="39.618773" lon="-9.070960">
        <ele>93.874</ele>
        <time>2019-08-23T13:02:04Z</time>
      </trkpt>
      <trkpt lat="39.617124" lon="-9.070608">
        <ele>93.527</ele>
        <time>2019-08-23T13:02:31Z</time>
      </trkpt>
      <trkpt lat="39.615664" lon="-9.069978">
        <ele>93.191</ele>
        <time>2019-08-23T13:02:55Z</time>
      </trkpt>
      <trkpt lat="39.614576" lon="-9.070334">
        <ele>91.944</ele>
        <time>2019-08-23T13:03:14Z</time>
      </trkpt>
      <trkpt lat="39.613563" lon="-9.070240">
        <ele>94.420</ele>
        <time>2019-08-23T13:03:36Z</time>
      </trkpt>
      <trkpt lat="39.613325" lon="-9.070652">
        <ele>94.024</ele>
        <time>2019-08-23T13:03:47Z</time>
      </trkpt>
      <trkpt lat="39.613254" lon="-9.070264">
        <ele>94.718</ele>
        <time>2019-08-23T13:04:04Z</time>
      </trkpt>
      <trkpt lat="39.612896" lon="-9.070166">
        <ele>97.445</ele>
        <time>2019-08-23T13:04:14Z</time>
      </trkpt>
      <trkpt lat="39.608065" lon="-9.073775">
        <ele>102.447</ele>
        <time>2019-08-23T13:06:22Z</time>
      </trkpt>
      <trkpt lat="39.607139" lon="-9.074667">
        <ele>105.911</ele>
        <time>2019-08-23T13:06:47Z</time>
      </trkpt>
      <trkpt lat="39.606551" lon="-9.075516">
        <ele>105.908</ele>
        <time>2019-08-23T13:08:46Z</time>
      </trkpt>
      <trkpt lat="39.606378" lon="-9.075564">
        <ele>107.138</ele>
        <time>2019-08-23T13:31:57Z</time>
      </trkpt>
      <trkpt lat="39.606816" lon="-9.076199">
        <ele>102.134</ele>
        <time>2019-08-23T13:33:22Z</time>
      </trkpt>
      <trkpt lat="39.606708" lon="-9.080124">
        <ele>67.737</ele>
        <time>2019-08-23T13:34:43Z</time>
      </trkpt>
      <trkpt lat="39.606481" lon="-9.080491">
        <ele>62.261</ele>
        <time>2019-08-23T13:34:50Z</time>
      </trkpt>
      <trkpt lat="39.605361" lon="-9.081054">
        <ele>67.644</ele>
        <time>2019-08-23T13:35:29Z</time>
      </trkpt>
      <trkpt lat="39.605115" lon="-9.081567">
        <ele>70.240</ele>
        <time>2019-08-23T13:35:56Z</time>
      </trkpt>
      <trkpt lat="39.604682" lon="-9.080867">
        <ele>57.314</ele>
        <time>2019-08-23T13:36:47Z</time>
      </trkpt>
      <trkpt lat="39.604666" lon="-9.080455">
        <ele>55.138</ele>
        <time>2019-08-23T13:37:07Z</time>
      </trkpt>
      <trkpt lat="39.604914" lon="-9.079793">
        <ele>77.581</ele>
        <time>2019-08-23T13:37:42Z</time>
      </trkpt>
      <trkpt lat="39.605659" lon="-9.079926">
        <ele>78.161</ele>
        <time>2019-08-23T13:39:03Z</time>
      </trkpt>
      <trkpt lat="39.605216" lon="-9.079861">
        <ele>79.917</ele>
        <time>2019-08-23T13:39:09Z</time>
      </trkpt>
      <trkpt lat="39.605334" lon="-9.079786">
        <ele>80.608</ele>
        <time>2019-08-23T13:39:11Z</time>
      </trkpt>
      <trkpt lat="39.605055" lon="-9.079699">
        <ele>79.432</ele>
        <time>2019-08-23T13:40:54Z</time>
      </trkpt>
      <trkpt lat="39.604902" lon="-9.079457">
        <ele>77.538</ele>
        <time>2019-08-23T13:41:13Z</time>
      </trkpt>
      <trkpt lat="39.604577" lon="-9.077473">
        <ele>77.451</ele>
        <time>2019-08-23T13:47:46Z</time>
      </trkpt>
      <trkpt lat="39.604666" lon="-9.076287">
        <ele>88.495</ele>
        <time>2019-08-23T13:48:31Z</time>
      </trkpt>
      <trkpt lat="39.605154" lon="-9.075601">
        <ele>106.248</ele>
        <time>2019-08-23T13:48:57Z</time>
      </trkpt>
      <trkpt lat="39.605354" lon="-9.075892">
        <ele>105.284</ele>
        <time>2019-08-23T13:49:14Z</time>
      </trkpt>
      <trkpt lat="39.604761" lon="-9.076143">
        <ele>91.628</ele>
        <time>2019-08-23T13:50:52Z</time>
      </trkpt>
      <trkpt lat="39.605823" lon="-9.074388">
        <ele>122.232</ele>
        <time>2019-08-23T13:51:53Z</time>
      </trkpt>
      <trkpt lat="39.605741" lon="-9.073349">
        <ele>126.692</ele>
        <time>2019-08-23T13:52:25Z</time>
      </trkpt>
      <trkpt lat="39.605855" lon="-9.072623">
        <ele>126.373</ele>
        <time>2019-08-23T13:52:48Z</time>
      </trkpt>
      <trkpt lat="39.606167" lon="-9.071078">
        <ele>123.420</ele>
        <time>2019-08-23T13:53:25Z</time>
      </trkpt>
      <trkpt lat="39.606725" lon="-9.069340">
        <ele>115.508</ele>
        <time>2019-08-23T13:53:48Z</time>
      </trkpt>
      <trkpt lat="39.606306" lon="-9.069442">
        <ele>107.443</ele>
        <time>2019-08-23T13:54:04Z</time>
      </trkpt>
      <trkpt lat="39.606162" lon="-9.069725">
        <ele>107.789</ele>
        <time>2019-08-23T13:54:11Z</time>
      </trkpt>
      <trkpt lat="39.605817" lon="-9.069854">
        <ele>101.092</ele>
        <time>2019-08-23T13:54:20Z</time>
      </trkpt>
      <trkpt lat="39.605611" lon="-9.069211">
        <ele>96.926</ele>
        <time>2019-08-23T13:54:29Z</time>
      </trkpt>
      <trkpt lat="39.605969" lon="-9.068634">
        <ele>94.499</ele>
        <time>2019-08-23T13:54:39Z</time>
      </trkpt>
      <trkpt lat="39.605949" lon="-9.068316">
        <ele>88.675</ele>
        <time>2019-08-23T13:54:43Z</time>
      </trkpt>
      <trkpt lat="39.604959" lon="-9.067505">
        <ele>75.319</ele>
        <time>2019-08-23T13:54:58Z</time>
      </trkpt>
      <trkpt lat="39.604168" lon="-9.067728">
        <ele>64.233</ele>
        <time>2019-08-23T13:55:09Z</time>
      </trkpt>
      <trkpt lat="39.603894" lon="-9.067980">
        <ele>60.676</ele>
        <time>2019-08-23T13:55:20Z</time>
      </trkpt>
      <trkpt lat="39.603802" lon="-9.068436">
        <ele>57.190</ele>
        <time>2019-08-23T13:55:27Z</time>
      </trkpt>
      <trkpt lat="39.603469" lon="-9.068825">
        <ele>51.719</ele>
        <time>2019-08-23T13:55:34Z</time>
      </trkpt>
      <trkpt lat="39.603102" lon="-9.068580">
        <ele>47.408</ele>
        <time>2019-08-23T13:55:46Z</time>
      </trkpt>
      <trkpt lat="39.602236" lon="-9.068639">
        <ele>41.951</ele>
        <time>2019-08-23T13:56:07Z</time>
      </trkpt>
      <trkpt lat="39.601889" lon="-9.068702">
        <ele>37.637</ele>
        <time>2019-08-23T13:56:12Z</time>
      </trkpt>
      <trkpt lat="39.601440" lon="-9.069033">
        <ele>33.850</ele>
        <time>2019-08-23T13:56:21Z</time>
      </trkpt>
      <trkpt lat="39.601234" lon="-9.072920">
        <ele>12.854</ele>
        <time>2019-08-23T13:57:35Z</time>
      </trkpt>
      <trkpt lat="39.601047" lon="-9.073607">
        <ele>9.827</ele>
        <time>2019-08-23T13:58:16Z</time>
      </trkpt>
      <trkpt lat="39.600385" lon="-9.073220">
        <ele>9.673</ele>
        <time>2019-08-23T13:59:24Z</time>
      </trkpt>
      <trkpt lat="39.597944" lon="-9.072380">
        <ele>11.397</ele>
        <time>2019-08-23T14:01:45Z</time>
      </trkpt>
      <trkpt lat="39.595429" lon="-9.072390">
        <ele>13.071</ele>
        <time>2019-08-23T14:02:47Z</time>
      </trkpt>
      <trkpt lat="39.593324" lon="-9.072603">
        <ele>7.084</ele>
        <time>2019-08-23T14:03:25Z</time>
      </trkpt>
      <trkpt lat="39.590300" lon="-9.073911">
        <ele>4.007</ele>
        <time>2019-08-23T14:04:22Z</time>
      </trkpt>
      <trkpt lat="39.588653" lon="-9.074338">
        <ele>1.317</ele>
        <time>2019-08-23T14:05:02Z</time>
      </trkpt>
      <trkpt lat="39.588256" lon="-9.074182">
        <ele>1.608</ele>
        <time>2019-08-23T14:05:09Z</time>
      </trkpt>
      <trkpt lat="39.587753" lon="-9.073558">
        <ele>2.262</ele>
        <time>2019-08-23T14:05:22Z</time>
      </trkpt>
      <trkpt lat="39.586775" lon="-9.071397">
        <ele>3.338</ele>
        <time>2019-08-23T14:05:56Z</time>
      </trkpt>
      <trkpt lat="39.586520" lon="-9.071075">
        <ele>5.641</ele>
        <time>2019-08-23T14:06:03Z</time>
      </trkpt>
      <trkpt lat="39.586211" lon="-9.070945">
        <ele>8.875</ele>
        <time>2019-08-23T14:06:09Z</time>
      </trkpt>
      <trkpt lat="39.585210" lon="-9.070822">
        <ele>5.398</ele>
        <time>2019-08-23T14:06:27Z</time>
      </trkpt>
      <trkpt lat="39.583881" lon="-9.071244">
        <ele>7.764</ele>
        <time>2019-08-23T14:06:51Z</time>
      </trkpt>
      <trkpt lat="39.581069" lon="-9.072473">
        <ele>9.238</ele>
        <time>2019-08-23T14:07:41Z</time>
      </trkpt>
      <trkpt lat="39.580842" lon="-9.072667">
        <ele>8.562</ele>
        <time>2019-08-23T14:07:46Z</time>
      </trkpt>
      <trkpt lat="39.580659" lon="-9.073207">
        <ele>6.748</ele>
        <time>2019-08-23T14:07:55Z</time>
      </trkpt>
      <trkpt lat="39.580173" lon="-9.073062">
        <ele>10.361</ele>
        <time>2019-08-23T14:08:04Z</time>
      </trkpt>
      <trkpt lat="39.578728" lon="-9.073934">
        <ele>7.217</ele>
        <time>2019-08-23T14:08:31Z</time>
      </trkpt>
      <trkpt lat="39.578099" lon="-9.074069">
        <ele>5.108</ele>
        <time>2019-08-23T14:08:43Z</time>
      </trkpt>
      <trkpt lat="39.577752" lon="-9.073895">
        <ele>5.928</ele>
        <time>2019-08-23T14:08:50Z</time>
      </trkpt>
      <trkpt lat="39.577602" lon="-9.073580">
        <ele>10.084</ele>
        <time>2019-08-23T14:08:55Z</time>
      </trkpt>
      <trkpt lat="39.577751" lon="-9.072445">
        <ele>12.067</ele>
        <time>2019-08-23T14:09:10Z</time>
      </trkpt>
      <trkpt lat="39.577656" lon="-9.072026">
        <ele>9.521</ele>
        <time>2019-08-23T14:09:16Z</time>
      </trkpt>
      <trkpt lat="39.576600" lon="-9.071202">
        <ele>13.554</ele>
        <time>2019-08-23T14:09:37Z</time>
      </trkpt>
      <trkpt lat="39.576371" lon="-9.071146">
        <ele>14.130</ele>
        <time>2019-08-23T14:09:41Z</time>
      </trkpt>
      <trkpt lat="39.574290" lon="-9.071646">
        <ele>2.034</ele>
        <time>2019-08-23T14:10:17Z</time>
      </trkpt>
      <trkpt lat="39.574017" lon="-9.071539">
        <ele>4.748</ele>
        <time>2019-08-23T14:10:22Z</time>
      </trkpt>
      <trkpt lat="39.573759" lon="-9.070423">
        <ele>6.869</ele>
        <time>2019-08-23T14:10:36Z</time>
      </trkpt>
      <trkpt lat="39.572848" lon="-9.068569">
        <ele>5.004</ele>
        <time>2019-08-23T14:11:01Z</time>
      </trkpt>
      <trkpt lat="39.570410" lon="-9.068794">
        <ele>35.324</ele>
        <time>2019-08-23T14:13:17Z</time>
      </trkpt>
      <trkpt lat="39.569143" lon="-9.069208">
        <ele>42.608</ele>
        <time>2019-08-23T14:14:31Z</time>
      </trkpt>
      <trkpt lat="39.569244" lon="-9.069256">
        <ele>44.790</ele>
        <time>2019-08-23T14:15:23Z</time>
      </trkpt>
      <trkpt lat="39.569034" lon="-9.069543">
        <ele>47.086</ele>
        <time>2019-08-23T14:15:40Z</time>
      </trkpt>
      <trkpt lat="39.568487" lon="-9.072127">
        <ele>70.679</ele>
        <time>2019-08-23T14:17:44Z</time>
      </trkpt>
      <trkpt lat="39.567357" lon="-9.073545">
        <ele>74.873</ele>
        <time>2019-08-23T14:18:46Z</time>
      </trkpt>
      <trkpt lat="39.564000" lon="-9.075963">
        <ele>116.246</ele>
        <time>2019-08-23T14:23:17Z</time>
      </trkpt>
      <trkpt lat="39.563275" lon="-9.076722">
        <ele>121.152</ele>
        <time>2019-08-23T14:24:08Z</time>
      </trkpt>
      <trkpt lat="39.561573" lon="-9.079140">
        <ele>137.766</ele>
        <time>2019-08-23T14:27:44Z</time>
      </trkpt>
      <trkpt lat="39.559955" lon="-9.080544">
        <ele>141.120</ele>
        <time>2019-08-23T14:29:27Z</time>
      </trkpt>
      <trkpt lat="39.559515" lon="-9.080841">
        <ele>145.166</ele>
        <time>2019-08-23T14:29:42Z</time>
      </trkpt>
      <trkpt lat="39.557712" lon="-9.081084">
        <ele>152.529</ele>
        <time>2019-08-23T14:30:40Z</time>
      </trkpt>
      <trkpt lat="39.557189" lon="-9.081505">
        <ele>152.521</ele>
        <time>2019-08-23T14:31:02Z</time>
      </trkpt>
      <trkpt lat="39.554813" lon="-9.085297">
        <ele>159.708</ele>
        <time>2019-08-23T14:32:50Z</time>
      </trkpt>
      <trkpt lat="39.553802" lon="-9.086530">
        <ele>163.440</ele>
        <time>2019-08-23T14:33:30Z</time>
      </trkpt>
      <trkpt lat="39.550915" lon="-9.091900">
        <ele>168.266</ele>
        <time>2019-08-23T14:38:18Z</time>
      </trkpt>
      <trkpt lat="39.550543" lon="-9.093248">
        <ele>163.649</ele>
        <time>2019-08-23T14:38:36Z</time>
      </trkpt>
      <trkpt lat="39.548457" lon="-9.097054">
        <ele>162.843</ele>
        <time>2019-08-23T14:39:50Z</time>
      </trkpt>
      <trkpt lat="39.546500" lon="-9.099955">
        <ele>153.836</ele>
        <time>2019-08-23T14:40:39Z</time>
      </trkpt>
      <trkpt lat="39.541321" lon="-9.105840">
        <ele>139.782</ele>
        <time>2019-08-23T14:46:26Z</time>
      </trkpt>
      <trkpt lat="39.540038" lon="-9.107555">
        <ele>125.766</ele>
        <time>2019-08-23T14:46:48Z</time>
      </trkpt>
      <trkpt lat="39.537224" lon="-9.112212">
        <ele>113.040</ele>
        <time>2019-08-23T14:47:55Z</time>
      </trkpt>
      <trkpt lat="39.537125" lon="-9.112652">
        <ele>113.241</ele>
        <time>2019-08-23T14:48:10Z</time>
      </trkpt>
      <trkpt lat="39.536715" lon="-9.113166">
        <ele>114.381</ele>
        <time>2019-08-23T14:48:31Z</time>
      </trkpt>
      <trkpt lat="39.536439" lon="-9.114233">
        <ele>112.509</ele>
        <time>2019-08-23T14:48:51Z</time>
      </trkpt>
      <trkpt lat="39.537063" lon="-9.115102">
        <ele>117.308</ele>
        <time>2019-08-23T14:49:22Z</time>
      </trkpt>
      <trkpt lat="39.537048" lon="-9.115373">
        <ele>116.918</ele>
        <time>2019-08-23T14:49:30Z</time>
      </trkpt>
      <trkpt lat="39.536322" lon="-9.116614">
        <ele>119.914</ele>
        <time>2019-08-23T14:50:07Z</time>
      </trkpt>
      <trkpt lat="39.535638" lon="-9.119281">
        <ele>115.647</ele>
        <time>2019-08-23T14:50:50Z</time>
      </trkpt>
      <trkpt lat="39.534340" lon="-9.121328">
        <ele>111.541</ele>
        <time>2019-08-23T14:51:34Z</time>
      </trkpt>
      <trkpt lat="39.533670" lon="-9.122939">
        <ele>111.714</ele>
        <time>2019-08-23T14:52:03Z</time>
      </trkpt>
      <trkpt lat="39.533319" lon="-9.123386">
        <ele>112.370</ele>
        <time>2019-08-23T14:52:15Z</time>
      </trkpt>
      <trkpt lat="39.532938" lon="-9.124746">
        <ele>109.764</ele>
        <time>2019-08-23T14:52:38Z</time>
      </trkpt>
      <trkpt lat="39.531514" lon="-9.125319">
        <ele>98.758</ele>
        <time>2019-08-23T14:53:06Z</time>
      </trkpt>
      <trkpt lat="39.530862" lon="-9.124951">
        <ele>94.093</ele>
        <time>2019-08-23T14:53:19Z</time>
      </trkpt>
      <trkpt lat="39.529705" lon="-9.124753">
        <ele>88.365</ele>
        <time>2019-08-23T14:53:40Z</time>
      </trkpt>
      <trkpt lat="39.527474" lon="-9.125980">
        <ele>86.021</ele>
        <time>2019-08-23T14:54:25Z</time>
      </trkpt>
      <trkpt lat="39.527085" lon="-9.126526">
        <ele>80.508</ele>
        <time>2019-08-23T14:56:12Z</time>
      </trkpt>
      <trkpt lat="39.526688" lon="-9.126658">
        <ele>77.193</ele>
        <time>2019-08-23T14:56:26Z</time>
      </trkpt>
      <trkpt lat="39.526242" lon="-9.127192">
        <ele>76.139</ele>
        <time>2019-08-23T14:56:41Z</time>
      </trkpt>
      <trkpt lat="39.525738" lon="-9.127429">
        <ele>76.492</ele>
        <time>2019-08-23T14:56:55Z</time>
      </trkpt>
      <trkpt lat="39.525379" lon="-9.128056">
        <ele>76.636</ele>
        <time>2019-08-23T14:57:08Z</time>
      </trkpt>
      <trkpt lat="39.524954" lon="-9.128308">
        <ele>75.989</ele>
        <time>2019-08-23T14:57:18Z</time>
      </trkpt>
      <trkpt lat="39.523841" lon="-9.129581">
        <ele>72.915</ele>
        <time>2019-08-23T14:57:52Z</time>
      </trkpt>
      <trkpt lat="39.523327" lon="-9.129864">
        <ele>71.069</ele>
        <time>2019-08-23T14:58:03Z</time>
      </trkpt>
      <trkpt lat="39.522637" lon="-9.131385">
        <ele>73.513</ele>
        <time>2019-08-23T14:58:31Z</time>
      </trkpt>
      <trkpt lat="39.522652" lon="-9.131734">
        <ele>70.847</ele>
        <time>2019-08-23T14:58:46Z</time>
      </trkpt>
      <trkpt lat="39.522464" lon="-9.131709">
        <ele>73.729</ele>
        <time>2019-08-23T14:58:57Z</time>
      </trkpt>
      <trkpt lat="39.521728" lon="-9.132178">
        <ele>70.921</ele>
        <time>2019-08-23T14:59:15Z</time>
      </trkpt>
      <trkpt lat="39.520890" lon="-9.133889">
        <ele>66.008</ele>
        <time>2019-08-23T14:59:59Z</time>
      </trkpt>
      <trkpt lat="39.520540" lon="-9.135626">
        <ele>68.518</ele>
        <time>2019-08-23T15:00:32Z</time>
      </trkpt>
      <trkpt lat="39.519810" lon="-9.137186">
        <ele>58.184</ele>
        <time>2019-08-23T15:00:54Z</time>
      </trkpt>
      <trkpt lat="39.519537" lon="-9.137459">
        <ele>62.587</ele>
        <time>2019-08-23T15:01:58Z</time>
      </trkpt>
      <trkpt lat="39.519057" lon="-9.137300">
        <ele>67.231</ele>
        <time>2019-08-23T15:02:12Z</time>
      </trkpt>
      <trkpt lat="39.518838" lon="-9.137371">
        <ele>68.764</ele>
        <time>2019-08-23T15:02:20Z</time>
      </trkpt>
      <trkpt lat="39.517964" lon="-9.139007">
        <ele>67.960</ele>
        <time>2019-08-23T15:03:01Z</time>
      </trkpt>
      <trkpt lat="39.518842" lon="-9.139855">
        <ele>69.334</ele>
        <time>2019-08-23T15:03:33Z</time>
      </trkpt>
      <trkpt lat="39.519676" lon="-9.141524">
        <ele>65.588</ele>
        <time>2019-08-23T15:04:05Z</time>
      </trkpt>
      <trkpt lat="39.519635" lon="-9.141934">
        <ele>71.342</ele>
        <time>2019-08-23T15:04:13Z</time>
      </trkpt>
      <trkpt lat="39.519094" lon="-9.142276">
        <ele>70.122</ele>
        <time>2019-08-23T15:04:27Z</time>
      </trkpt>
      <trkpt lat="39.518931" lon="-9.142592">
        <ele>67.614</ele>
        <time>2019-08-23T15:04:35Z</time>
      </trkpt>
      <trkpt lat="39.518861" lon="-9.142251">
        <ele>66.408</ele>
        <time>2019-08-23T15:05:01Z</time>
      </trkpt>
      <trkpt lat="39.518215" lon="-9.141822">
        <ele>51.918</ele>
        <time>2019-08-23T15:05:18Z</time>
      </trkpt>
      <trkpt lat="39.518075" lon="-9.141979">
        <ele>44.214</ele>
        <time>2019-08-23T15:10:44Z</time>
      </trkpt>
      <trkpt lat="39.518177" lon="-9.141386">
        <ele>55.327</ele>
        <time>2019-08-23T15:11:28Z</time>
      </trkpt>
      <trkpt lat="39.518084" lon="-9.141154">
        <ele>55.291</ele>
        <time>2019-08-23T15:11:37Z</time>
      </trkpt>
      <trkpt lat="39.517391" lon="-9.140829">
        <ele>49.574</ele>
        <time>2019-08-23T15:11:49Z</time>
      </trkpt>
      <trkpt lat="39.516964" lon="-9.140940">
        <ele>38.210</ele>
        <time>2019-08-23T15:12:35Z</time>
      </trkpt>
      <trkpt lat="39.517351" lon="-9.140834">
        <ele>48.874</ele>
        <time>2019-08-23T15:14:57Z</time>
      </trkpt>
      <trkpt lat="39.516934" lon="-9.140916">
        <ele>38.838</ele>
        <time>2019-08-23T15:17:16Z</time>
      </trkpt>
      <trkpt lat="39.515611" lon="-9.140445">
        <ele>38.153</ele>
        <time>2019-08-23T15:33:27Z</time>
      </trkpt>
      <trkpt lat="39.514056" lon="-9.140590">
        <ele>26.704</ele>
        <time>2019-08-23T15:34:30Z</time>
      </trkpt>
      <trkpt lat="39.513050" lon="-9.140852">
        <ele>25.714</ele>
        <time>2019-08-23T15:34:52Z</time>
      </trkpt>
      <trkpt lat="39.512468" lon="-9.140700">
        <ele>19.908</ele>
        <time>2019-08-23T15:35:03Z</time>
      </trkpt>
      <trkpt lat="39.512266" lon="-9.140339">
        <ele>14.759</ele>
        <time>2019-08-23T15:35:10Z</time>
      </trkpt>
      <trkpt lat="39.512303" lon="-9.139330">
        <ele>10.145</ele>
        <time>2019-08-23T15:35:40Z</time>
      </trkpt>
      <trkpt lat="39.513289" lon="-9.137051">
        <ele>9.528</ele>
        <time>2019-08-23T15:37:34Z</time>
      </trkpt>
      <trkpt lat="39.513113" lon="-9.135854">
        <ele>10.022</ele>
        <time>2019-08-23T15:38:08Z</time>
      </trkpt>
      <trkpt lat="39.512564" lon="-9.134827">
        <ele>8.065</ele>
        <time>2019-08-23T15:39:30Z</time>
      </trkpt>
      <trkpt lat="39.512306" lon="-9.135008">
        <ele>7.351</ele>
        <time>2019-08-23T16:24:34Z</time>
      </trkpt>
      <trkpt lat="39.512001" lon="-9.135676">
        <ele>7.025</ele>
        <time>2019-08-23T16:27:47Z</time>
      </trkpt>
      <trkpt lat="39.511017" lon="-9.135089">
        <ele>3.659</ele>
        <time>2019-08-23T16:28:46Z</time>
      </trkpt>
      <trkpt lat="39.509314" lon="-9.134408">
        <ele>9.788</ele>
        <time>2019-08-23T16:30:29Z</time>
      </trkpt>
      <trkpt lat="39.507753" lon="-9.134342">
        <ele>8.624</ele>
        <time>2019-08-23T16:31:03Z</time>
      </trkpt>
      <trkpt lat="39.506367" lon="-9.134793">
        <ele>9.726</ele>
        <time>2019-08-23T16:31:39Z</time>
      </trkpt>
      <trkpt lat="39.505134" lon="-9.135411">
        <ele>9.508</ele>
        <time>2019-08-23T16:32:08Z</time>
      </trkpt>
      <trkpt lat="39.504216" lon="-9.136218">
        <ele>9.292</ele>
        <time>2019-08-23T16:32:33Z</time>
      </trkpt>
      <trkpt lat="39.504018" lon="-9.136694">
        <ele>5.898</ele>
        <time>2019-08-23T16:32:42Z</time>
      </trkpt>
      <trkpt lat="39.503688" lon="-9.136832">
        <ele>5.251</ele>
        <time>2019-08-23T16:32:49Z</time>
      </trkpt>
      <trkpt lat="39.503391" lon="-9.137203">
        <ele>5.885</ele>
        <time>2019-08-23T16:32:57Z</time>
      </trkpt>
      <trkpt lat="39.502579" lon="-9.138605">
        <ele>6.358</ele>
        <time>2019-08-23T16:33:29Z</time>
      </trkpt>
      <trkpt lat="39.501796" lon="-9.141323">
        <ele>7.924</ele>
        <time>2019-08-23T16:34:21Z</time>
      </trkpt>
      <trkpt lat="39.501434" lon="-9.141975">
        <ele>7.848</ele>
        <time>2019-08-23T16:34:36Z</time>
      </trkpt>
      <trkpt lat="39.501667" lon="-9.141843">
        <ele>7.062</ele>
        <time>2019-08-23T16:35:17Z</time>
      </trkpt>
      <trkpt lat="39.501768" lon="-9.141939">
        <ele>6.376</ele>
        <time>2019-08-23T16:35:34Z</time>
      </trkpt>
      <trkpt lat="39.502011" lon="-9.141669">
        <ele>4.690</ele>
        <time>2019-08-23T16:35:57Z</time>
      </trkpt>
      <trkpt lat="39.502373" lon="-9.141819">
        <ele>0.019</ele>
        <time>2019-08-23T16:36:35Z</time>
      </trkpt>
      <trkpt lat="39.502345" lon="-9.143807">
        <ele>0.008</ele>
        <time>2019-08-23T16:38:31Z</time>
      </trkpt>
      <trkpt lat="39.502526" lon="-9.145123">
        <ele>0.081</ele>
        <time>2019-08-23T16:39:11Z</time>
      </trkpt>
      <trkpt lat="39.502777" lon="-9.146043">
        <ele>0.087</ele>
        <time>2019-08-23T16:39:44Z</time>
      </trkpt>
      <trkpt lat="39.503611" lon="-9.147562">
        <ele>0.020</ele>
        <time>2019-08-23T16:42:44Z</time>
      </trkpt>
      <trkpt lat="39.503804" lon="-9.148458">
        <ele>0.084</ele>
        <time>2019-08-23T16:44:08Z</time>
      </trkpt>
      <trkpt lat="39.502686" lon="-9.149158">
        <ele>0.177</ele>
        <time>2019-08-23T16:45:11Z</time>
      </trkpt>
      <trkpt lat="39.501858" lon="-9.149433">
        <ele>0.353</ele>
        <time>2019-08-23T16:45:37Z</time>
      </trkpt>
      <trkpt lat="39.501503" lon="-9.150575">
        <ele>1.677</ele>
        <time>2019-08-23T16:46:36Z</time>
      </trkpt>
      <trkpt lat="39.501701" lon="-9.151028">
        <ele>9.311</ele>
        <time>2019-08-23T16:47:03Z</time>
      </trkpt>
      <trkpt lat="39.500292" lon="-9.151547">
        <ele>5.778</ele>
        <time>2019-08-23T16:47:53Z</time>
      </trkpt>
      <trkpt lat="39.498975" lon="-9.151621">
        <ele>9.833</ele>
        <time>2019-08-23T16:48:25Z</time>
      </trkpt>
      <trkpt lat="39.498217" lon="-9.152744">
        <ele>23.726</ele>
        <time>2019-08-23T16:49:36Z</time>
      </trkpt>
      <trkpt lat="39.497351" lon="-9.152927">
        <ele>27.108</ele>
        <time>2019-08-23T16:50:17Z</time>
      </trkpt>
      <trkpt lat="39.496491" lon="-9.153397">
        <ele>30.551</ele>
        <time>2019-08-23T16:50:53Z</time>
      </trkpt>
      <trkpt lat="39.495267" lon="-9.155466">
        <ele>47.747</ele>
        <time>2019-08-23T16:52:44Z</time>
      </trkpt>
      <trkpt lat="39.492449" lon="-9.157199">
        <ele>63.270</ele>
        <time>2019-08-23T16:55:02Z</time>
      </trkpt>
      <trkpt lat="39.491724" lon="-9.158854">
        <ele>78.674</ele>
        <time>2019-08-23T16:56:15Z</time>
      </trkpt>
      <trkpt lat="39.490324" lon="-9.160952">
        <ele>91.917</ele>
        <time>2019-08-23T16:58:43Z</time>
      </trkpt>
      <trkpt lat="39.490220" lon="-9.170068">
        <ele>100.843</ele>
        <time>2019-08-23T17:01:52Z</time>
      </trkpt>
      <trkpt lat="39.489915" lon="-9.171338">
        <ele>95.457</ele>
        <time>2019-08-23T17:02:04Z</time>
      </trkpt>
      <trkpt lat="39.488088" lon="-9.176190">
        <ele>94.161</ele>
        <time>2019-08-23T17:03:10Z</time>
      </trkpt>
      <trkpt lat="39.487620" lon="-9.176941">
        <ele>96.153</ele>
        <time>2019-08-23T17:03:24Z</time>
      </trkpt>
      <trkpt lat="39.485772" lon="-9.179108">
        <ele>94.404</ele>
        <time>2019-08-23T17:04:08Z</time>
      </trkpt>
      <trkpt lat="39.475222" lon="-9.191154">
        <ele>98.014</ele>
        <time>2019-08-23T17:09:17Z</time>
      </trkpt>
      <trkpt lat="39.473804" lon="-9.191964">
        <ele>99.808</ele>
        <time>2019-08-23T17:09:54Z</time>
      </trkpt>
      <trkpt lat="39.466936" lon="-9.194487">
        <ele>130.799</ele>
        <time>2019-08-23T17:13:52Z</time>
      </trkpt>
      <trkpt lat="39.458438" lon="-9.199782">
        <ele>153.245</ele>
        <time>2019-08-23T17:18:33Z</time>
      </trkpt>
      <trkpt lat="39.454065" lon="-9.200918">
        <ele>157.448</ele>
        <time>2019-08-23T17:20:11Z</time>
      </trkpt>
      <trkpt lat="39.453385" lon="-9.201261">
        <ele>159.092</ele>
        <time>2019-08-23T17:20:26Z</time>
      </trkpt>
      <trkpt lat="39.450413" lon="-9.203341">
        <ele>151.045</ele>
        <time>2019-08-23T17:21:24Z</time>
      </trkpt>
      <trkpt lat="39.449850" lon="-9.203966">
        <ele>148.251</ele>
        <time>2019-08-23T17:21:33Z</time>
      </trkpt>
      <trkpt lat="39.449314" lon="-9.204946">
        <ele>139.015</ele>
        <time>2019-08-23T17:21:42Z</time>
      </trkpt>
      <trkpt lat="39.445925" lon="-9.214833">
        <ele>90.539</ele>
        <time>2019-08-23T17:22:58Z</time>
      </trkpt>
      <trkpt lat="39.440944" lon="-9.220082">
        <ele>73.913</ele>
        <time>2019-08-23T17:24:19Z</time>
      </trkpt>
      <trkpt lat="39.439958" lon="-9.220822">
        <ele>73.243</ele>
        <time>2019-08-23T17:24:37Z</time>
      </trkpt>
      <trkpt lat="39.439827" lon="-9.221094">
        <ele>73.607</ele>
        <time>2019-08-23T17:26:53Z</time>
      </trkpt>
      <trkpt lat="39.437008" lon="-9.220188">
        <ele>64.408</ele>
        <time>2019-08-23T17:27:57Z</time>
      </trkpt>
      <trkpt lat="39.436939" lon="-9.220351">
        <ele>65.545</ele>
        <time>2019-08-23T17:28:06Z</time>
      </trkpt>
      <trkpt lat="39.437343" lon="-9.218886">
        <ele>48.451</ele>
        <time>2019-08-23T17:29:09Z</time>
      </trkpt>
      <trkpt lat="39.437102" lon="-9.218267">
        <ele>40.314</ele>
        <time>2019-08-23T17:29:29Z</time>
      </trkpt>
      <trkpt lat="39.436741" lon="-9.217866">
        <ele>36.358</ele>
        <time>2019-08-23T17:29:46Z</time>
      </trkpt>
      <trkpt lat="39.436661" lon="-9.217248">
        <ele>32.181</ele>
        <time>2019-08-23T17:29:56Z</time>
      </trkpt>
      <trkpt lat="39.436071" lon="-9.215793">
        <ele>22.797</ele>
        <time>2019-08-23T17:30:28Z</time>
      </trkpt>
      <trkpt lat="39.435632" lon="-9.216084">
        <ele>22.981</ele>
        <time>2019-08-23T17:31:04Z</time>
      </trkpt>
      <trkpt lat="39.434952" lon="-9.216233">
        <ele>19.175</ele>
        <time>2019-08-23T17:31:26Z</time>
      </trkpt>
      <trkpt lat="39.435715" lon="-9.213591">
        <ele>16.597</ele>
        <time>2019-08-23T17:34:14Z</time>
      </trkpt>
      <trkpt lat="39.435622" lon="-9.213286">
        <ele>15.423</ele>
        <time>2019-08-23T17:34:48Z</time>
      </trkpt>
      <trkpt lat="39.435706" lon="-9.211679">
        <ele>17.125</ele>
        <time>2019-08-23T17:35:23Z</time>
      </trkpt>
      <trkpt lat="39.433877" lon="-9.210018">
        <ele>15.808</ele>
        <time>2019-08-23T17:36:09Z</time>
      </trkpt>
      <trkpt lat="39.432652" lon="-9.207727">
        <ele>18.333</ele>
        <time>2019-08-23T17:36:49Z</time>
      </trkpt>
      <trkpt lat="39.430982" lon="-9.206118">
        <ele>29.459</ele>
        <time>2019-08-23T17:37:36Z</time>
      </trkpt>
      <trkpt lat="39.430137" lon="-9.204873">
        <ele>42.292</ele>
        <time>2019-08-23T17:38:50Z</time>
      </trkpt>
      <trkpt lat="39.429847" lon="-9.204865">
        <ele>39.996</ele>
        <time>2019-08-23T17:39:09Z</time>
      </trkpt>
      <trkpt lat="39.430097" lon="-9.204604">
        <ele>43.019</ele>
        <time>2019-08-23T17:39:52Z</time>
      </trkpt>
      <trkpt lat="39.430254" lon="-9.203541">
        <ele>42.755</ele>
        <time>2019-08-23T17:40:23Z</time>
      </trkpt>
      <trkpt lat="39.430726" lon="-9.202863">
        <ele>40.429</ele>
        <time>2019-08-23T17:40:38Z</time>
      </trkpt>
      <trkpt lat="39.430636" lon="-9.201908">
        <ele>32.793</ele>
        <time>2019-08-23T17:40:51Z</time>
      </trkpt>
      <trkpt lat="39.430984" lon="-9.201178">
        <ele>30.984</ele>
        <time>2019-08-23T17:41:03Z</time>
      </trkpt>
      <trkpt lat="39.430936" lon="-9.200935">
        <ele>30.607</ele>
        <time>2019-08-23T17:41:09Z</time>
      </trkpt>
      <trkpt lat="39.430692" lon="-9.200889">
        <ele>31.617</ele>
        <time>2019-08-23T17:47:04Z</time>
      </trkpt>
      <trkpt lat="39.430639" lon="-9.200997">
        <ele>31.908</ele>
        <time>2019-08-23T17:47:11Z</time>
      </trkpt>
      <trkpt lat="39.430517" lon="-9.202883">
        <ele>38.982</ele>
        <time>2019-08-23T17:47:59Z</time>
      </trkpt>
      <trkpt lat="39.429358" lon="-9.203364">
        <ele>40.068</ele>
        <time>2019-08-23T17:48:51Z</time>
      </trkpt>
      <trkpt lat="39.429480" lon="-9.203174">
        <ele>38.961</ele>
        <time>2019-08-23T17:49:19Z</time>
      </trkpt>
      <trkpt lat="39.429439" lon="-9.203466">
        <ele>41.063</ele>
        <time>2019-08-24T09:16:47Z</time>
      </trkpt>
      <trkpt lat="39.430486" lon="-9.202919">
        <ele>39.044</ele>
        <time>2019-08-24T09:19:49Z</time>
      </trkpt>
      <trkpt lat="39.430629" lon="-9.201070">
        <ele>32.018</ele>
        <time>2019-08-24T09:22:09Z</time>
      </trkpt>
      <trkpt lat="39.430884" lon="-9.201013">
        <ele>31.308</ele>
        <time>2019-08-24T09:22:28Z</time>
      </trkpt>
      <trkpt lat="39.430983" lon="-9.201161">
        <ele>30.940</ele>
        <time>2019-08-24T09:22:34Z</time>
      </trkpt>
      <trkpt lat="39.430712" lon="-9.201922">
        <ele>32.456</ele>
        <time>2019-08-24T09:22:55Z</time>
      </trkpt>
      <trkpt lat="39.430731" lon="-9.202968">
        <ele>41.150</ele>
        <time>2019-08-24T09:23:22Z</time>
      </trkpt>
      <trkpt lat="39.430208" lon="-9.203936">
        <ele>44.097</ele>
        <time>2019-08-24T09:24:04Z</time>
      </trkpt>
      <trkpt lat="39.430255" lon="-9.205065">
        <ele>42.119</ele>
        <time>2019-08-24T09:24:40Z</time>
      </trkpt>
      <trkpt lat="39.431292" lon="-9.206489">
        <ele>22.790</ele>
        <time>2019-08-24T09:24:58Z</time>
      </trkpt>
      <trkpt lat="39.432660" lon="-9.207744">
        <ele>18.325</ele>
        <time>2019-08-24T09:25:21Z</time>
      </trkpt>
      <trkpt lat="39.433917" lon="-9.210026">
        <ele>16.057</ele>
        <time>2019-08-24T09:26:06Z</time>
      </trkpt>
      <trkpt lat="39.435588" lon="-9.211583">
        <ele>16.525</ele>
        <time>2019-08-24T09:26:49Z</time>
      </trkpt>
      <trkpt lat="39.436091" lon="-9.211851">
        <ele>18.926</ele>
        <time>2019-08-24T09:27:15Z</time>
      </trkpt>
      <trkpt lat="39.436340" lon="-9.213041">
        <ele>18.608</ele>
        <time>2019-08-24T09:28:53Z</time>
      </trkpt>
      <trkpt lat="39.435721" lon="-9.214731">
        <ele>20.208</ele>
        <time>2019-08-24T09:29:48Z</time>
      </trkpt>
      <trkpt lat="39.435403" lon="-9.214729">
        <ele>17.436</ele>
        <time>2019-08-24T09:30:05Z</time>
      </trkpt>
      <trkpt lat="39.434984" lon="-9.216192">
        <ele>19.212</ele>
        <time>2019-08-24T09:30:58Z</time>
      </trkpt>
      <trkpt lat="39.432539" lon="-9.216893">
        <ele>9.186</ele>
        <time>2019-08-24T09:31:36Z</time>
      </trkpt>
      <trkpt lat="39.430164" lon="-9.219141">
        <ele>4.633</ele>
        <time>2019-08-24T09:32:26Z</time>
      </trkpt>
      <trkpt lat="39.429781" lon="-9.219843">
        <ele>6.795</ele>
        <time>2019-08-24T09:32:37Z</time>
      </trkpt>
      <trkpt lat="39.429435" lon="-9.220996">
        <ele>9.816</ele>
        <time>2019-08-24T09:32:55Z</time>
      </trkpt>
      <trkpt lat="39.429337" lon="-9.222554">
        <ele>10.931</ele>
        <time>2019-08-24T09:33:44Z</time>
      </trkpt>
      <trkpt lat="39.428978" lon="-9.222338">
        <ele>5.783</ele>
        <time>2019-08-24T10:08:04Z</time>
      </trkpt>
      <trkpt lat="39.428890" lon="-9.221326">
        <ele>3.883</ele>
        <time>2019-08-24T10:08:24Z</time>
      </trkpt>
      <trkpt lat="39.428505" lon="-9.220388">
        <ele>3.425</ele>
        <time>2019-08-24T10:08:43Z</time>
      </trkpt>
      <trkpt lat="39.428213" lon="-9.219110">
        <ele>2.317</ele>
        <time>2019-08-24T10:09:06Z</time>
      </trkpt>
      <trkpt lat="39.427596" lon="-9.219170">
        <ele>0.008</ele>
        <time>2019-08-24T10:09:22Z</time>
      </trkpt>
      <trkpt lat="39.427005" lon="-9.217106">
        <ele>0.022</ele>
        <time>2019-08-24T10:09:58Z</time>
      </trkpt>
      <trkpt lat="39.426267" lon="-9.216272">
        <ele>0.078</ele>
        <time>2019-08-24T10:11:16Z</time>
      </trkpt>
      <trkpt lat="39.426094" lon="-9.215170">
        <ele>1.392</ele>
        <time>2019-08-24T10:11:37Z</time>
      </trkpt>
      <trkpt lat="39.426262" lon="-9.213630">
        <ele>0.589</ele>
        <time>2019-08-24T10:12:05Z</time>
      </trkpt>
      <trkpt lat="39.425840" lon="-9.212465">
        <ele>1.061</ele>
        <time>2019-08-24T10:12:26Z</time>
      </trkpt>
      <trkpt lat="39.425862" lon="-9.211127">
        <ele>1.242</ele>
        <time>2019-08-24T10:12:49Z</time>
      </trkpt>
      <trkpt lat="39.424761" lon="-9.210018">
        <ele>2.267</ele>
        <time>2019-08-24T10:13:19Z</time>
      </trkpt>
      <trkpt lat="39.422686" lon="-9.207097">
        <ele>4.199</ele>
        <time>2019-08-24T10:14:24Z</time>
      </trkpt>
      <trkpt lat="39.421920" lon="-9.206226">
        <ele>2.493</ele>
        <time>2019-08-24T10:14:44Z</time>
      </trkpt>
      <trkpt lat="39.420648" lon="-9.205189">
        <ele>5.565</ele>
        <time>2019-08-24T10:18:15Z</time>
      </trkpt>
      <trkpt lat="39.419269" lon="-9.204422">
        <ele>5.321</ele>
        <time>2019-08-24T10:18:47Z</time>
      </trkpt>
      <trkpt lat="39.417597" lon="-9.203927">
        <ele>3.308</ele>
        <time>2019-08-24T10:19:21Z</time>
      </trkpt>
      <trkpt lat="39.414482" lon="-9.203476">
        <ele>2.863</ele>
        <time>2019-08-24T10:21:03Z</time>
      </trkpt>
      <trkpt lat="39.410315" lon="-9.202037">
        <ele>2.829</ele>
        <time>2019-08-24T10:22:38Z</time>
      </trkpt>
      <trkpt lat="39.405572" lon="-9.200223">
        <ele>12.143</ele>
        <time>2019-08-24T10:25:23Z</time>
      </trkpt>
      <trkpt lat="39.405151" lon="-9.199843">
        <ele>5.250</ele>
        <time>2019-08-24T10:25:37Z</time>
      </trkpt>
      <trkpt lat="39.404839" lon="-9.199272">
        <ele>2.492</ele>
        <time>2019-08-24T10:25:46Z</time>
      </trkpt>
      <trkpt lat="39.404727" lon="-9.198317">
        <ele>5.023</ele>
        <time>2019-08-24T10:26:00Z</time>
      </trkpt>
      <trkpt lat="39.405070" lon="-9.195021">
        <ele>7.098</ele>
        <time>2019-08-24T10:27:00Z</time>
      </trkpt>
      <trkpt lat="39.406091" lon="-9.192400">
        <ele>4.950</ele>
        <time>2019-08-24T10:27:54Z</time>
      </trkpt>
      <trkpt lat="39.407879" lon="-9.190834">
        <ele>5.854</ele>
        <time>2019-08-24T10:28:39Z</time>
      </trkpt>
      <trkpt lat="39.409239" lon="-9.189900">
        <ele>6.456</ele>
        <time>2019-08-24T10:29:07Z</time>
      </trkpt>
      <trkpt lat="39.411890" lon="-9.189805">
        <ele>11.411</ele>
        <time>2019-08-24T10:29:59Z</time>
      </trkpt>
      <trkpt lat="39.413314" lon="-9.189972">
        <ele>15.108</ele>
        <time>2019-08-24T10:30:29Z</time>
      </trkpt>
      <trkpt lat="39.416155" lon="-9.188215">
        <ele>7.399</ele>
        <time>2019-08-24T10:31:40Z</time>
      </trkpt>
      <trkpt lat="39.416849" lon="-9.188392">
        <ele>16.115</ele>
        <time>2019-08-24T10:32:10Z</time>
      </trkpt>
      <trkpt lat="39.417646" lon="-9.188974">
        <ele>25.219</ele>
        <time>2019-08-24T10:33:05Z</time>
      </trkpt>
      <trkpt lat="39.418071" lon="-9.189008">
        <ele>31.296</ele>
        <time>2019-08-24T10:33:32Z</time>
      </trkpt>
      <trkpt lat="39.418695" lon="-9.187228">
        <ele>12.768</ele>
        <time>2019-08-24T10:34:01Z</time>
      </trkpt>
      <trkpt lat="39.419210" lon="-9.186584">
        <ele>9.169</ele>
        <time>2019-08-24T10:34:13Z</time>
      </trkpt>
      <trkpt lat="39.419448" lon="-9.185542">
        <ele>9.174</ele>
        <time>2019-08-24T10:34:38Z</time>
      </trkpt>
      <trkpt lat="39.418820" lon="-9.185198">
        <ele>17.936</ele>
        <time>2019-08-24T10:35:13Z</time>
      </trkpt>
      <trkpt lat="39.417844" lon="-9.185165">
        <ele>21.578</ele>
        <time>2019-08-24T10:36:13Z</time>
      </trkpt>
      <trkpt lat="39.417401" lon="-9.184665">
        <ele>28.233</ele>
        <time>2019-08-24T10:36:46Z</time>
      </trkpt>
      <trkpt lat="39.416590" lon="-9.184451">
        <ele>31.826</ele>
        <time>2019-08-24T10:37:24Z</time>
      </trkpt>
      <trkpt lat="39.416398" lon="-9.183789">
        <ele>27.808</ele>
        <time>2019-08-24T10:37:32Z</time>
      </trkpt>
      <trkpt lat="39.416175" lon="-9.183525">
        <ele>24.991</ele>
        <time>2019-08-24T10:37:36Z</time>
      </trkpt>
      <trkpt lat="39.415369" lon="-9.183322">
        <ele>31.517</ele>
        <time>2019-08-24T10:38:05Z</time>
      </trkpt>
      <trkpt lat="39.415067" lon="-9.181197">
        <ele>43.441</ele>
        <time>2019-08-24T10:39:21Z</time>
      </trkpt>
      <trkpt lat="39.414909" lon="-9.180843">
        <ele>45.928</ele>
        <time>2019-08-24T10:39:36Z</time>
      </trkpt>
      <trkpt lat="39.414146" lon="-9.180605">
        <ele>45.640</ele>
        <time>2019-08-24T10:40:07Z</time>
      </trkpt>
      <trkpt lat="39.412942" lon="-9.180715">
        <ele>52.561</ele>
        <time>2019-08-24T10:40:53Z</time>
      </trkpt>
      <trkpt lat="39.412413" lon="-9.179108">
        <ele>62.866</ele>
        <time>2019-08-24T10:42:08Z</time>
      </trkpt>
      <trkpt lat="39.410646" lon="-9.181264">
        <ele>46.428</ele>
        <time>2019-08-24T10:42:52Z</time>
      </trkpt>
      <trkpt lat="39.410138" lon="-9.181325">
        <ele>48.439</ele>
        <time>2019-08-24T10:42:59Z</time>
      </trkpt>
      <trkpt lat="39.408687" lon="-9.180204">
        <ele>46.401</ele>
        <time>2019-08-24T10:43:24Z</time>
      </trkpt>
      <trkpt lat="39.407965" lon="-9.179150">
        <ele>40.821</ele>
        <time>2019-08-24T10:45:17Z</time>
      </trkpt>
      <trkpt lat="39.405864" lon="-9.178125">
        <ele>29.808</ele>
        <time>2019-08-24T10:45:45Z</time>
      </trkpt>
      <trkpt lat="39.404816" lon="-9.177372">
        <ele>26.347</ele>
        <time>2019-08-24T10:45:58Z</time>
      </trkpt>
      <trkpt lat="39.404011" lon="-9.176578">
        <ele>10.983</ele>
        <time>2019-08-24T10:46:10Z</time>
      </trkpt>
      <trkpt lat="39.403468" lon="-9.176578">
        <ele>7.677</ele>
        <time>2019-08-24T10:46:17Z</time>
      </trkpt>
      <trkpt lat="39.400956" lon="-9.177578">
        <ele>1.254</ele>
        <time>2019-08-24T10:46:57Z</time>
      </trkpt>
      <trkpt lat="39.399428" lon="-9.177036">
        <ele>12.076</ele>
        <time>2019-08-24T10:47:48Z</time>
      </trkpt>
      <trkpt lat="39.397957" lon="-9.175917">
        <ele>19.117</ele>
        <time>2019-08-24T10:48:27Z</time>
      </trkpt>
      <trkpt lat="39.395775" lon="-9.173397">
        <ele>25.672</ele>
        <time>2019-08-24T10:50:02Z</time>
      </trkpt>
      <trkpt lat="39.394348" lon="-9.172714">
        <ele>32.384</ele>
        <time>2019-08-24T10:52:38Z</time>
      </trkpt>
      <trkpt lat="39.393853" lon="-9.173274">
        <ele>30.632</ele>
        <time>2019-08-24T10:53:54Z</time>
      </trkpt>
      <trkpt lat="39.392881" lon="-9.172751">
        <ele>31.392</ele>
        <time>2019-08-24T10:54:15Z</time>
      </trkpt>
      <trkpt lat="39.392736" lon="-9.172497">
        <ele>34.211</ele>
        <time>2019-08-24T10:55:11Z</time>
      </trkpt>
      <trkpt lat="39.392843" lon="-9.171614">
        <ele>38.208</ele>
        <time>2019-08-24T10:56:13Z</time>
      </trkpt>
      <trkpt lat="39.392702" lon="-9.171113">
        <ele>40.317</ele>
        <time>2019-08-24T10:56:27Z</time>
      </trkpt>
      <trkpt lat="39.392407" lon="-9.170622">
        <ele>42.983</ele>
        <time>2019-08-24T10:56:43Z</time>
      </trkpt>
      <trkpt lat="39.391898" lon="-9.170360">
        <ele>47.997</ele>
        <time>2019-08-24T10:56:56Z</time>
      </trkpt>
      <trkpt lat="39.390682" lon="-9.170312">
        <ele>43.894</ele>
        <time>2019-08-24T10:57:23Z</time>
      </trkpt>
      <trkpt lat="39.389685" lon="-9.169750">
        <ele>41.916</ele>
        <time>2019-08-24T10:57:40Z</time>
      </trkpt>
      <trkpt lat="39.388708" lon="-9.170094">
        <ele>42.127</ele>
        <time>2019-08-24T10:57:57Z</time>
      </trkpt>
      <trkpt lat="39.386377" lon="-9.170181">
        <ele>30.512</ele>
        <time>2019-08-24T10:58:39Z</time>
      </trkpt>
      <trkpt lat="39.385667" lon="-9.170428">
        <ele>28.574</ele>
        <time>2019-08-24T10:58:52Z</time>
      </trkpt>
      <trkpt lat="39.383843" lon="-9.170723">
        <ele>26.997</ele>
        <time>2019-08-24T10:59:24Z</time>
      </trkpt>
      <trkpt lat="39.381984" lon="-9.169586">
        <ele>23.123</ele>
        <time>2019-08-24T11:00:01Z</time>
      </trkpt>
      <trkpt lat="39.380980" lon="-9.170239">
        <ele>17.925</ele>
        <time>2019-08-24T11:00:20Z</time>
      </trkpt>
      <trkpt lat="39.380755" lon="-9.170253">
        <ele>17.708</ele>
        <time>2019-08-24T11:00:23Z</time>
      </trkpt>
      <trkpt lat="39.380341" lon="-9.169884">
        <ele>15.373</ele>
        <time>2019-08-24T11:00:31Z</time>
      </trkpt>
      <trkpt lat="39.379639" lon="-9.168859">
        <ele>25.239</ele>
        <time>2019-08-24T11:00:51Z</time>
      </trkpt>
      <trkpt lat="39.378445" lon="-9.168006">
        <ele>25.483</ele>
        <time>2019-08-24T11:01:26Z</time>
      </trkpt>
      <trkpt lat="39.376399" lon="-9.168149">
        <ele>28.660</ele>
        <time>2019-08-24T11:02:15Z</time>
      </trkpt>
      <trkpt lat="39.373733" lon="-9.167699">
        <ele>18.512</ele>
        <time>2019-08-24T11:03:37Z</time>
      </trkpt>
      <trkpt lat="39.372358" lon="-9.167796">
        <ele>20.143</ele>
        <time>2019-08-24T11:04:00Z</time>
      </trkpt>
      <trkpt lat="39.370436" lon="-9.167692">
        <ele>7.748</ele>
        <time>2019-08-24T11:04:30Z</time>
      </trkpt>
      <trkpt lat="39.370292" lon="-9.165228">
        <ele>8.070</ele>
        <time>2019-08-24T11:05:39Z</time>
      </trkpt>
      <trkpt lat="39.369654" lon="-9.163052">
        <ele>7.079</ele>
        <time>2019-08-24T11:06:12Z</time>
      </trkpt>
      <trkpt lat="39.368234" lon="-9.160878">
        <ele>10.305</ele>
        <time>2019-08-24T11:06:49Z</time>
      </trkpt>
      <trkpt lat="39.367362" lon="-9.158626">
        <ele>11.425</ele>
        <time>2019-08-24T11:07:57Z</time>
      </trkpt>
      <trkpt lat="39.365798" lon="-9.158066">
        <ele>11.108</ele>
        <time>2019-08-24T11:08:34Z</time>
      </trkpt>
      <trkpt lat="39.365172" lon="-9.157408">
        <ele>17.851</ele>
        <time>2019-08-24T11:09:25Z</time>
      </trkpt>
      <trkpt lat="39.364650" lon="-9.156431">
        <ele>16.127</ele>
        <time>2019-08-24T11:09:45Z</time>
      </trkpt>
      <trkpt lat="39.364073" lon="-9.155969">
        <ele>21.331</ele>
        <time>2019-08-24T11:09:55Z</time>
      </trkpt>
      <trkpt lat="39.363292" lon="-9.154936">
        <ele>19.038</ele>
        <time>2019-08-24T11:10:12Z</time>
      </trkpt>
      <trkpt lat="39.362168" lon="-9.154122">
        <ele>10.860</ele>
        <time>2019-08-24T11:10:35Z</time>
      </trkpt>
      <trkpt lat="39.361944" lon="-9.154077">
        <ele>10.471</ele>
        <time>2019-08-24T11:10:41Z</time>
      </trkpt>
      <trkpt lat="39.361646" lon="-9.154515">
        <ele>12.726</ele>
        <time>2019-08-24T11:10:51Z</time>
      </trkpt>
      <trkpt lat="39.361275" lon="-9.154688">
        <ele>14.928</ele>
        <time>2019-08-24T11:10:59Z</time>
      </trkpt>
      <trkpt lat="39.359253" lon="-9.154129">
        <ele>28.583</ele>
        <time>2019-08-24T11:11:52Z</time>
      </trkpt>
      <trkpt lat="39.358569" lon="-9.153573">
        <ele>30.025</ele>
        <time>2019-08-24T11:12:20Z</time>
      </trkpt>
      <trkpt lat="39.358313" lon="-9.152812">
        <ele>28.217</ele>
        <time>2019-08-24T11:12:42Z</time>
      </trkpt>
      <trkpt lat="39.358079" lon="-9.152664">
        <ele>31.208</ele>
        <time>2019-08-24T11:12:52Z</time>
      </trkpt>
      <trkpt lat="39.357937" lon="-9.152744">
        <ele>32.892</ele>
        <time>2019-08-24T11:12:59Z</time>
      </trkpt>
      <trkpt lat="39.357899" lon="-9.153032">
        <ele>32.768</ele>
        <time>2019-08-24T11:13:09Z</time>
      </trkpt>
      <trkpt lat="39.358239" lon="-9.153609">
        <ele>33.062</ele>
        <time>2019-08-24T11:13:33Z</time>
      </trkpt>
      <trkpt lat="39.358286" lon="-9.154383">
        <ele>35.759</ele>
        <time>2019-08-24T11:13:59Z</time>
      </trkpt>
      <trkpt lat="39.359430" lon="-9.154931">
        <ele>41.991</ele>
        <time>2019-08-24T11:16:09Z</time>
      </trkpt>
      <trkpt lat="39.359812" lon="-9.155842">
        <ele>45.292</ele>
        <time>2019-08-24T11:16:42Z</time>
      </trkpt>
      <trkpt lat="39.359963" lon="-9.155834">
        <ele>43.477</ele>
        <time>2019-08-24T11:16:59Z</time>
      </trkpt>
      <trkpt lat="39.359728" lon="-9.156817">
        <ele>49.079</ele>
        <time>2019-08-24T11:18:46Z</time>
      </trkpt>
      <trkpt lat="39.358977" lon="-9.157326">
        <ele>51.648</ele>
        <time>2019-08-24T11:19:21Z</time>
      </trkpt>
      <trkpt lat="39.359575" lon="-9.157442">
        <ele>52.761</ele>
        <time>2019-08-24T11:19:50Z</time>
      </trkpt>
      <trkpt lat="39.359536" lon="-9.157627">
        <ele>55.517</ele>
        <time>2019-08-24T11:20:00Z</time>
      </trkpt>
      <trkpt lat="39.359169" lon="-9.157796">
        <ele>58.408</ele>
        <time>2019-08-24T11:20:28Z</time>
      </trkpt>
      <trkpt lat="39.360046" lon="-9.157787">
        <ele>59.718</ele>
        <time>2019-08-24T11:23:07Z</time>
      </trkpt>
      <trkpt lat="39.361870" lon="-9.157223">
        <ele>60.534</ele>
        <time>2019-08-24T11:28:27Z</time>
      </trkpt>
      <trkpt lat="39.362870" lon="-9.157436">
        <ele>70.368</ele>
        <time>2019-08-24T11:34:50Z</time>
      </trkpt>
      <trkpt lat="39.363104" lon="-9.157244">
        <ele>72.925</ele>
        <time>2019-08-24T11:36:54Z</time>
      </trkpt>
      <trkpt lat="39.363562" lon="-9.157451">
        <ele>72.167</ele>
        <time>2019-08-24T11:37:38Z</time>
      </trkpt>
      <trkpt lat="39.363897" lon="-9.157128">
        <ele>62.458</ele>
        <time>2019-08-24T11:44:12Z</time>
      </trkpt>
      <trkpt lat="39.363716" lon="-9.157330">
        <ele>69.413</ele>
        <time>2019-08-24T11:46:31Z</time>
      </trkpt>
      <trkpt lat="39.363395" lon="-9.157338">
        <ele>75.155</ele>
        <time>2019-08-24T11:47:29Z</time>
      </trkpt>
      <trkpt lat="39.363095" lon="-9.157241">
        <ele>72.778</ele>
        <time>2019-08-24T11:47:59Z</time>
      </trkpt>
      <trkpt lat="39.363083" lon="-9.156930">
        <ele>71.333</ele>
        <time>2019-08-24T11:49:12Z</time>
      </trkpt>
      <trkpt lat="39.363081" lon="-9.157215">
        <ele>72.426</ele>
        <time>2019-08-24T11:50:22Z</time>
      </trkpt>
      <trkpt lat="39.362888" lon="-9.157334">
        <ele>69.508</ele>
        <time>2019-08-24T11:50:33Z</time>
      </trkpt>
      <trkpt lat="39.362435" lon="-9.156675">
        <ele>56.621</ele>
        <time>2019-08-24T11:51:20Z</time>
      </trkpt>
      <trkpt lat="39.362384" lon="-9.156851">
        <ele>58.297</ele>
        <time>2019-08-24T11:52:37Z</time>
      </trkpt>
      <trkpt lat="39.361956" lon="-9.157049">
        <ele>58.041</ele>
        <time>2019-08-24T11:53:12Z</time>
      </trkpt>
      <trkpt lat="39.361991" lon="-9.157147">
        <ele>59.938</ele>
        <time>2019-08-24T11:53:44Z</time>
      </trkpt>
      <trkpt lat="39.362060" lon="-9.156863">
        <ele>56.140</ele>
        <time>2019-08-24T11:53:56Z</time>
      </trkpt>
      <trkpt lat="39.361954" lon="-9.156816">
        <ele>55.131</ele>
        <time>2019-08-24T11:54:33Z</time>
      </trkpt>
      <trkpt lat="39.361927" lon="-9.157087">
        <ele>58.496</ele>
        <time>2019-08-24T11:57:14Z</time>
      </trkpt>
      <trkpt lat="39.361695" lon="-9.157099">
        <ele>57.068</ele>
        <time>2019-08-24T11:57:33Z</time>
      </trkpt>
      <trkpt lat="39.361699" lon="-9.156914">
        <ele>53.989</ele>
        <time>2019-08-24T11:57:53Z</time>
      </trkpt>
      <trkpt lat="39.361401" lon="-9.156940">
        <ele>53.006</ele>
        <time>2019-08-24T11:59:36Z</time>
      </trkpt>
      <trkpt lat="39.360834" lon="-9.157369">
        <ele>59.626</ele>
        <time>2019-08-24T12:01:08Z</time>
      </trkpt>
      <trkpt lat="39.359509" lon="-9.157892">
        <ele>60.108</ele>
        <time>2019-08-24T12:02:46Z</time>
      </trkpt>
      <trkpt lat="39.359178" lon="-9.157762">
        <ele>57.752</ele>
        <time>2019-08-24T12:03:16Z</time>
      </trkpt>
      <trkpt lat="39.359598" lon="-9.157458">
        <ele>53.048</ele>
        <time>2019-08-24T12:04:33Z</time>
      </trkpt>
      <trkpt lat="39.358872" lon="-9.157347">
        <ele>52.492</ele>
        <time>2019-08-24T12:05:04Z</time>
      </trkpt>
      <trkpt lat="39.359682" lon="-9.156777">
        <ele>49.169</ele>
        <time>2019-08-24T12:07:02Z</time>
      </trkpt>
      <trkpt lat="39.359763" lon="-9.155860">
        <ele>46.071</ele>
        <time>2019-08-24T12:07:17Z</time>
      </trkpt>
      <trkpt lat="39.359390" lon="-9.155001">
        <ele>43.462</ele>
        <time>2019-08-24T12:07:29Z</time>
      </trkpt>
      <trkpt lat="39.358286" lon="-9.154506">
        <ele>37.977</ele>
        <time>2019-08-24T12:07:44Z</time>
      </trkpt>
      <trkpt lat="39.357839" lon="-9.153861">
        <ele>36.879</ele>
        <time>2019-08-24T12:07:53Z</time>
      </trkpt>
      <trkpt lat="39.357908" lon="-9.152661">
        <ele>33.317</ele>
        <time>2019-08-24T12:08:07Z</time>
      </trkpt>
      <trkpt lat="39.358260" lon="-9.152590">
        <ele>29.587</ele>
        <time>2019-08-24T12:08:12Z</time>
      </trkpt>
      <trkpt lat="39.358554" lon="-9.153438">
        <ele>29.215</ele>
        <time>2019-08-24T12:08:21Z</time>
      </trkpt>
      <trkpt lat="39.359322" lon="-9.154080">
        <ele>27.508</ele>
        <time>2019-08-24T12:08:33Z</time>
      </trkpt>
      <trkpt lat="39.361280" lon="-9.154593">
        <ele>13.355</ele>
        <time>2019-08-24T12:09:01Z</time>
      </trkpt>
      <trkpt lat="39.361575" lon="-9.154463">
        <ele>11.991</ele>
        <time>2019-08-24T12:09:06Z</time>
      </trkpt>
      <trkpt lat="39.361918" lon="-9.154003">
        <ele>9.865</ele>
        <time>2019-08-24T12:09:44Z</time>
      </trkpt>
      <trkpt lat="39.362127" lon="-9.153966">
        <ele>10.042</ele>
        <time>2019-08-24T12:09:53Z</time>
      </trkpt>
      <trkpt lat="39.363192" lon="-9.154772">
        <ele>17.664</ele>
        <time>2019-08-24T12:10:21Z</time>
      </trkpt>
      <trkpt lat="39.364071" lon="-9.155844">
        <ele>18.795</ele>
        <time>2019-08-24T12:10:47Z</time>
      </trkpt>
      <trkpt lat="39.364659" lon="-9.156290">
        <ele>14.340</ele>
        <time>2019-08-24T12:11:02Z</time>
      </trkpt>
      <trkpt lat="39.365218" lon="-9.157378">
        <ele>16.242</ele>
        <time>2019-08-24T12:11:23Z</time>
      </trkpt>
      <trkpt lat="39.365836" lon="-9.158028">
        <ele>11.042</ele>
        <time>2019-08-24T12:11:38Z</time>
      </trkpt>
      <trkpt lat="39.367069" lon="-9.158420">
        <ele>10.322</ele>
        <time>2019-08-24T12:12:02Z</time>
      </trkpt>
      <trkpt lat="39.367410" lon="-9.158653">
        <ele>11.814</ele>
        <time>2019-08-24T12:12:08Z</time>
      </trkpt>
      <trkpt lat="39.368366" lon="-9.161029">
        <ele>10.108</ele>
        <time>2019-08-24T12:12:43Z</time>
      </trkpt>
      <trkpt lat="39.369403" lon="-9.162369">
        <ele>8.748</ele>
        <time>2019-08-24T12:13:13Z</time>
      </trkpt>
      <trkpt lat="39.369797" lon="-9.163321">
        <ele>6.014</ele>
        <time>2019-08-24T12:13:32Z</time>
      </trkpt>
      <trkpt lat="39.370378" lon="-9.165443">
        <ele>7.438</ele>
        <time>2019-08-24T12:14:08Z</time>
      </trkpt>
      <trkpt lat="39.370485" lon="-9.168339">
        <ele>11.035</ele>
        <time>2019-08-24T12:14:51Z</time>
      </trkpt>
      <trkpt lat="39.370786" lon="-9.169428">
        <ele>13.227</ele>
        <time>2019-08-24T12:15:08Z</time>
      </trkpt>
      <trkpt lat="39.371369" lon="-9.170351">
        <ele>11.328</ele>
        <time>2019-08-24T12:15:27Z</time>
      </trkpt>
      <trkpt lat="39.373043" lon="-9.171867">
        <ele>5.943</ele>
        <time>2019-08-24T12:16:08Z</time>
      </trkpt>
      <trkpt lat="39.377128" lon="-9.178849">
        <ele>8.565</ele>
        <time>2019-08-24T12:18:25Z</time>
      </trkpt>
      <trkpt lat="39.378667" lon="-9.180276">
        <ele>14.094</ele>
        <time>2019-08-24T12:19:33Z</time>
      </trkpt>
      <trkpt lat="39.380511" lon="-9.181115">
        <ele>21.757</ele>
        <time>2019-08-24T12:20:32Z</time>
      </trkpt>
      <trkpt lat="39.381468" lon="-9.181871">
        <ele>25.022</ele>
        <time>2019-08-24T12:21:11Z</time>
      </trkpt>
      <trkpt lat="39.384752" lon="-9.184961">
        <ele>38.908</ele>
        <time>2019-08-24T12:23:32Z</time>
      </trkpt>
      <trkpt lat="39.389940" lon="-9.186872">
        <ele>25.043</ele>
        <time>2019-08-24T12:25:16Z</time>
      </trkpt>
      <trkpt lat="39.392704" lon="-9.191043">
        <ele>6.259</ele>
        <time>2019-08-24T12:26:19Z</time>
      </trkpt>
      <trkpt lat="39.392701" lon="-9.191536">
        <ele>5.423</ele>
        <time>2019-08-24T12:26:24Z</time>
      </trkpt>
      <trkpt lat="39.392438" lon="-9.191855">
        <ele>6.010</ele>
        <time>2019-08-24T12:26:30Z</time>
      </trkpt>
      <trkpt lat="39.391252" lon="-9.192124">
        <ele>2.792</ele>
        <time>2019-08-24T12:26:48Z</time>
      </trkpt>
      <trkpt lat="39.390310" lon="-9.191744">
        <ele>7.683</ele>
        <time>2019-08-24T12:27:03Z</time>
      </trkpt>
      <trkpt lat="39.389035" lon="-9.191852">
        <ele>4.378</ele>
        <time>2019-08-24T12:27:23Z</time>
      </trkpt>
      <trkpt lat="39.388673" lon="-9.192028">
        <ele>4.880</ele>
        <time>2019-08-24T12:27:30Z</time>
      </trkpt>
      <trkpt lat="39.387654" lon="-9.193815">
        <ele>1.992</ele>
        <time>2019-08-24T12:27:58Z</time>
      </trkpt>
      <trkpt lat="39.386715" lon="-9.196725">
        <ele>0.873</ele>
        <time>2019-08-24T12:28:41Z</time>
      </trkpt>
      <trkpt lat="39.386693" lon="-9.197253">
        <ele>-0.120</ele>
        <time>2019-08-24T12:28:49Z</time>
      </trkpt>
      <trkpt lat="39.388422" lon="-9.200493">
        <ele>0.108</ele>
        <time>2019-08-24T12:30:12Z</time>
      </trkpt>
      <trkpt lat="39.388327" lon="-9.200108">
        <ele>2.663</ele>
        <time>2019-08-24T12:30:21Z</time>
      </trkpt>
      <trkpt lat="39.388636" lon="-9.199391">
        <ele>1.979</ele>
        <time>2019-08-24T12:30:35Z</time>
      </trkpt>
      <trkpt lat="39.389996" lon="-9.198480">
        <ele>4.053</ele>
        <time>2019-08-24T12:31:06Z</time>
      </trkpt>
      <trkpt lat="39.390847" lon="-9.198595">
        <ele>0.090</ele>
        <time>2019-08-24T12:31:26Z</time>
      </trkpt>
      <trkpt lat="39.391619" lon="-9.198980">
        <ele>-0.122</ele>
        <time>2019-08-24T12:31:46Z</time>
      </trkpt>
      <trkpt lat="39.391903" lon="-9.199326">
        <ele>-0.133</ele>
        <time>2019-08-24T12:31:56Z</time>
      </trkpt>
      <trkpt lat="39.392106" lon="-9.200107">
        <ele>2.038</ele>
        <time>2019-08-24T12:32:12Z</time>
      </trkpt>
      <trkpt lat="39.393910" lon="-9.202730">
        <ele>3.040</ele>
        <time>2019-08-24T12:33:18Z</time>
      </trkpt>
      <trkpt lat="39.397390" lon="-9.205368">
        <ele>-0.622</ele>
        <time>2019-08-24T12:34:53Z</time>
      </trkpt>
      <trkpt lat="39.397406" lon="-9.205962">
        <ele>0.662</ele>
        <time>2019-08-24T12:35:08Z</time>
      </trkpt>
      <trkpt lat="39.397548" lon="-9.206199">
        <ele>0.908</ele>
        <time>2019-08-24T12:35:14Z</time>
      </trkpt>
      <trkpt lat="39.397344" lon="-9.207241">
        <ele>1.608</ele>
        <time>2019-08-24T12:35:32Z</time>
      </trkpt>
      <trkpt lat="39.394570" lon="-9.213297">
        <ele>5.936</ele>
        <time>2019-08-24T12:39:09Z</time>
      </trkpt>
      <trkpt lat="39.394717" lon="-9.214462">
        <ele>0.212</ele>
        <time>2019-08-24T12:39:26Z</time>
      </trkpt>
      <trkpt lat="39.394641" lon="-9.214847">
        <ele>0.726</ele>
        <time>2019-08-24T12:39:32Z</time>
      </trkpt>
      <trkpt lat="39.394190" lon="-9.215151">
        <ele>1.983</ele>
        <time>2019-08-24T12:39:41Z</time>
      </trkpt>
      <trkpt lat="39.393177" lon="-9.215378">
        <ele>3.815</ele>
        <time>2019-08-24T12:39:59Z</time>
      </trkpt>
      <trkpt lat="39.392849" lon="-9.215599">
        <ele>2.216</ele>
        <time>2019-08-24T12:40:06Z</time>
      </trkpt>
      <trkpt lat="39.392104" lon="-9.217351">
        <ele>3.941</ele>
        <time>2019-08-24T12:40:34Z</time>
      </trkpt>
      <trkpt lat="39.392001" lon="-9.218355">
        <ele>2.363</ele>
        <time>2019-08-24T12:40:48Z</time>
      </trkpt>
      <trkpt lat="39.391192" lon="-9.219402">
        <ele>0.839</ele>
        <time>2019-08-24T12:41:08Z</time>
      </trkpt>
      <trkpt lat="39.390921" lon="-9.219523">
        <ele>0.701</ele>
        <time>2019-08-24T12:41:13Z</time>
      </trkpt>
      <trkpt lat="39.390334" lon="-9.219280">
        <ele>2.521</ele>
        <time>2019-08-24T12:41:23Z</time>
      </trkpt>
      <trkpt lat="39.389895" lon="-9.219388">
        <ele>2.308</ele>
        <time>2019-08-24T12:41:30Z</time>
      </trkpt>
      <trkpt lat="39.389424" lon="-9.220377">
        <ele>3.157</ele>
        <time>2019-08-24T12:41:47Z</time>
      </trkpt>
      <trkpt lat="39.388552" lon="-9.221440">
        <ele>4.423</ele>
        <time>2019-08-24T12:42:08Z</time>
      </trkpt>
      <trkpt lat="39.386787" lon="-9.222787">
        <ele>5.247</ele>
        <time>2019-08-24T12:42:44Z</time>
      </trkpt>
      <trkpt lat="39.386581" lon="-9.223727">
        <ele>3.084</ele>
        <time>2019-08-24T12:42:58Z</time>
      </trkpt>
      <trkpt lat="39.386102" lon="-9.224615">
        <ele>2.286</ele>
        <time>2019-08-24T12:43:14Z</time>
      </trkpt>
      <trkpt lat="39.384402" lon="-9.226636">
        <ele>5.137</ele>
        <time>2019-08-24T12:43:58Z</time>
      </trkpt>
      <trkpt lat="39.384558" lon="-9.227192">
        <ele>6.932</ele>
        <time>2019-08-24T12:44:09Z</time>
      </trkpt>
      <trkpt lat="39.385665" lon="-9.228276">
        <ele>9.184</ele>
        <time>2019-08-24T12:44:36Z</time>
      </trkpt>
      <trkpt lat="39.386029" lon="-9.228345">
        <ele>13.114</ele>
        <time>2019-08-24T12:44:43Z</time>
      </trkpt>
      <trkpt lat="39.386873" lon="-9.228206">
        <ele>12.754</ele>
        <time>2019-08-24T12:45:03Z</time>
      </trkpt>
      <trkpt lat="39.387459" lon="-9.227615">
        <ele>14.809</ele>
        <time>2019-08-24T12:45:34Z</time>
      </trkpt>
      <trkpt lat="39.387514" lon="-9.227282">
        <ele>12.608</ele>
        <time>2019-08-24T12:46:15Z</time>
      </trkpt>
      <trkpt lat="39.388066" lon="-9.226334">
        <ele>11.795</ele>
        <time>2019-08-24T12:46:35Z</time>
      </trkpt>
      <trkpt lat="39.388416" lon="-9.226413">
        <ele>15.131</ele>
        <time>2019-08-24T12:47:22Z</time>
      </trkpt>
      <trkpt lat="39.388354" lon="-9.226480">
        <ele>15.255</ele>
        <time>2019-08-24T13:09:24Z</time>
      </trkpt>
      <trkpt lat="39.388199" lon="-9.226158">
        <ele>11.892</ele>
        <time>2019-08-24T13:09:56Z</time>
      </trkpt>
      <trkpt lat="39.388614" lon="-9.225684">
        <ele>12.494</ele>
        <time>2019-08-24T13:10:11Z</time>
      </trkpt>
      <trkpt lat="39.389825" lon="-9.225417">
        <ele>10.765</ele>
        <time>2019-08-24T13:10:39Z</time>
      </trkpt>
      <trkpt lat="39.390403" lon="-9.225006">
        <ele>10.060</ele>
        <time>2019-08-24T13:10:53Z</time>
      </trkpt>
      <trkpt lat="39.390783" lon="-9.224397">
        <ele>8.842</ele>
        <time>2019-08-24T13:11:06Z</time>
      </trkpt>
      <trkpt lat="39.391270" lon="-9.224008">
        <ele>10.317</ele>
        <time>2019-08-24T13:11:18Z</time>
      </trkpt>
      <trkpt lat="39.392374" lon="-9.223600">
        <ele>12.687</ele>
        <time>2019-08-24T13:11:43Z</time>
      </trkpt>
      <trkpt lat="39.392852" lon="-9.222727">
        <ele>10.815</ele>
        <time>2019-08-24T13:12:00Z</time>
      </trkpt>
      <trkpt lat="39.393876" lon="-9.221996">
        <ele>9.208</ele>
        <time>2019-08-24T13:12:26Z</time>
      </trkpt>
      <trkpt lat="39.394140" lon="-9.221438">
        <ele>9.195</ele>
        <time>2019-08-24T13:12:37Z</time>
      </trkpt>
      <trkpt lat="39.394870" lon="-9.220638">
        <ele>6.841</ele>
        <time>2019-08-24T13:13:00Z</time>
      </trkpt>
      <trkpt lat="39.395331" lon="-9.219706">
        <ele>3.335</ele>
        <time>2019-08-24T13:13:18Z</time>
      </trkpt>
      <trkpt lat="39.395557" lon="-9.219620">
        <ele>4.342</ele>
        <time>2019-08-24T13:13:24Z</time>
      </trkpt>
      <trkpt lat="39.395885" lon="-9.219843">
        <ele>9.724</ele>
        <time>2019-08-24T13:13:35Z</time>
      </trkpt>
      <trkpt lat="39.396443" lon="-9.219798">
        <ele>5.635</ele>
        <time>2019-08-24T13:13:48Z</time>
      </trkpt>
      <trkpt lat="39.397288" lon="-9.219407">
        <ele>6.710</ele>
        <time>2019-08-24T13:14:09Z</time>
      </trkpt>
      <trkpt lat="39.397782" lon="-9.218719">
        <ele>10.832</ele>
        <time>2019-08-24T13:14:26Z</time>
      </trkpt>
      <trkpt lat="39.398147" lon="-9.217153">
        <ele>8.415</ele>
        <time>2019-08-24T13:14:56Z</time>
      </trkpt>
      <trkpt lat="39.398669" lon="-9.216672">
        <ele>7.165</ele>
        <time>2019-08-24T13:15:09Z</time>
      </trkpt>
      <trkpt lat="39.399063" lon="-9.216577">
        <ele>6.511</ele>
        <time>2019-08-24T13:15:16Z</time>
      </trkpt>
      <trkpt lat="39.399967" lon="-9.216727">
        <ele>0.208</ele>
        <time>2019-08-24T13:15:36Z</time>
      </trkpt>
      <trkpt lat="39.400094" lon="-9.218644">
        <ele>0.365</ele>
        <time>2019-08-24T13:16:09Z</time>
      </trkpt>
      <trkpt lat="39.400346" lon="-9.219675">
        <ele>2.321</ele>
        <time>2019-08-24T13:17:10Z</time>
      </trkpt>
      <trkpt lat="39.400840" lon="-9.219915">
        <ele>0.045</ele>
        <time>2019-08-24T13:17:31Z</time>
      </trkpt>
      <trkpt lat="39.401369" lon="-9.219717">
        <ele>0.052</ele>
        <time>2019-08-24T13:17:45Z</time>
      </trkpt>
      <trkpt lat="39.403386" lon="-9.216875">
        <ele>3.174</ele>
        <time>2019-08-24T13:19:15Z</time>
      </trkpt>
      <trkpt lat="39.405481" lon="-9.212886">
        <ele>1.025</ele>
        <time>2019-08-24T13:20:29Z</time>
      </trkpt>
      <trkpt lat="39.405827" lon="-9.212583">
        <ele>1.610</ele>
        <time>2019-08-24T13:20:38Z</time>
      </trkpt>
      <trkpt lat="39.406178" lon="-9.212585">
        <ele>2.842</ele>
        <time>2019-08-24T13:20:45Z</time>
      </trkpt>
      <trkpt lat="39.406480" lon="-9.212724">
        <ele>3.714</ele>
        <time>2019-08-24T13:20:53Z</time>
      </trkpt>
      <trkpt lat="39.407213" lon="-9.213546">
        <ele>3.154</ele>
        <time>2019-08-24T13:21:17Z</time>
      </trkpt>
      <trkpt lat="39.407866" lon="-9.216867">
        <ele>6.309</ele>
        <time>2019-08-24T13:22:19Z</time>
      </trkpt>
      <trkpt lat="39.408356" lon="-9.217904">
        <ele>3.708</ele>
        <time>2019-08-24T13:22:40Z</time>
      </trkpt>
      <trkpt lat="39.410342" lon="-9.219902">
        <ele>8.455</ele>
        <time>2019-08-24T13:23:33Z</time>
      </trkpt>
      <trkpt lat="39.411389" lon="-9.220256">
        <ele>6.541</ele>
        <time>2019-08-24T13:23:57Z</time>
      </trkpt>
      <trkpt lat="39.412003" lon="-9.221149">
        <ele>10.125</ele>
        <time>2019-08-24T13:24:20Z</time>
      </trkpt>
      <trkpt lat="39.412313" lon="-9.221882">
        <ele>8.042</ele>
        <time>2019-08-24T13:24:36Z</time>
      </trkpt>
      <trkpt lat="39.413112" lon="-9.222770">
        <ele>6.554</ele>
        <time>2019-08-24T13:25:04Z</time>
      </trkpt>
      <trkpt lat="39.414383" lon="-9.222229">
        <ele>2.835</ele>
        <time>2019-08-24T13:25:30Z</time>
      </trkpt>
      <trkpt lat="39.415833" lon="-9.222034">
        <ele>1.340</ele>
        <time>2019-08-24T13:26:05Z</time>
      </trkpt>
      <trkpt lat="39.416101" lon="-9.221596">
        <ele>0.022</ele>
        <time>2019-08-24T13:26:17Z</time>
      </trkpt>
      <trkpt lat="39.416648" lon="-9.221849">
        <ele>0.756</ele>
        <time>2019-08-24T13:26:34Z</time>
      </trkpt>
      <trkpt lat="39.417829" lon="-9.223405">
        <ele>3.359</ele>
        <time>2019-08-24T13:28:31Z</time>
      </trkpt>
      <trkpt lat="39.418644" lon="-9.224770">
        <ele>3.114</ele>
        <time>2019-08-24T13:29:00Z</time>
      </trkpt>
      <trkpt lat="39.419807" lon="-9.225313">
        <ele>1.808</ele>
        <time>2019-08-24T13:29:27Z</time>
      </trkpt>
      <trkpt lat="39.422276" lon="-9.228399">
        <ele>0.089</ele>
        <time>2019-08-24T13:30:50Z</time>
      </trkpt>
      <trkpt lat="39.422488" lon="-9.228987">
        <ele>0.875</ele>
        <time>2019-08-24T13:31:10Z</time>
      </trkpt>
      <trkpt lat="39.422374" lon="-9.229360">
        <ele>3.519</ele>
        <time>2019-08-24T13:31:25Z</time>
      </trkpt>
      <trkpt lat="39.422093" lon="-9.229374">
        <ele>5.426</ele>
        <time>2019-08-24T13:31:42Z</time>
      </trkpt>
      <trkpt lat="39.421414" lon="-9.228986">
        <ele>8.818</ele>
        <time>2019-08-24T13:32:04Z</time>
      </trkpt>
      <trkpt lat="39.421911" lon="-9.229619">
        <ele>8.779</ele>
        <time>2019-08-24T13:32:28Z</time>
      </trkpt>
      <trkpt lat="39.422229" lon="-9.230661">
        <ele>12.714</ele>
        <time>2019-08-24T13:33:01Z</time>
      </trkpt>
      <trkpt lat="39.422591" lon="-9.234972">
        <ele>30.486</ele>
        <time>2019-08-24T13:35:06Z</time>
      </trkpt>
      <trkpt lat="39.423387" lon="-9.237241">
        <ele>37.372</ele>
        <time>2019-08-24T13:36:52Z</time>
      </trkpt>
      <trkpt lat="39.423091" lon="-9.237648">
        <ele>44.713</ele>
        <time>2019-08-24T13:38:13Z</time>
      </trkpt>
      <trkpt lat="39.422409" lon="-9.237723">
        <ele>53.414</ele>
        <time>2019-08-24T13:38:52Z</time>
      </trkpt>
      <trkpt lat="39.420659" lon="-9.236845">
        <ele>60.908</ele>
        <time>2019-08-24T13:40:07Z</time>
      </trkpt>
      <trkpt lat="39.420078" lon="-9.236105">
        <ele>61.441</ele>
        <time>2019-08-24T13:40:35Z</time>
      </trkpt>
      <trkpt lat="39.420896" lon="-9.237080">
        <ele>59.117</ele>
        <time>2019-08-24T13:41:25Z</time>
      </trkpt>
      <trkpt lat="39.418997" lon="-9.234621">
        <ele>63.881</ele>
        <time>2019-08-24T13:43:06Z</time>
      </trkpt>
      <trkpt lat="39.418213" lon="-9.233242">
        <ele>56.728</ele>
        <time>2019-08-24T13:43:28Z</time>
      </trkpt>
      <trkpt lat="39.417947" lon="-9.233096">
        <ele>56.990</ele>
        <time>2019-08-24T13:43:34Z</time>
      </trkpt>
      <trkpt lat="39.417959" lon="-9.232520">
        <ele>51.671</ele>
        <time>2019-08-24T13:43:46Z</time>
      </trkpt>
      <trkpt lat="39.417753" lon="-9.232111">
        <ele>50.326</ele>
        <time>2019-08-24T13:43:53Z</time>
      </trkpt>
      <trkpt lat="39.417292" lon="-9.231737">
        <ele>47.088</ele>
        <time>2019-08-24T13:44:00Z</time>
      </trkpt>
      <trkpt lat="39.416741" lon="-9.231631">
        <ele>48.852</ele>
        <time>2019-08-24T13:44:12Z</time>
      </trkpt>
      <trkpt lat="39.415738" lon="-9.232149">
        <ele>53.153</ele>
        <time>2019-08-24T13:44:50Z</time>
      </trkpt>
      <trkpt lat="39.412916" lon="-9.234970">
        <ele>70.808</ele>
        <time>2019-08-24T13:46:36Z</time>
      </trkpt>
      <trkpt lat="39.412609" lon="-9.235704">
        <ele>76.008</ele>
        <time>2019-08-24T13:46:52Z</time>
      </trkpt>
      <trkpt lat="39.412252" lon="-9.237896">
        <ele>84.399</ele>
        <time>2019-08-24T13:48:11Z</time>
      </trkpt>
      <trkpt lat="39.412419" lon="-9.238466">
        <ele>78.625</ele>
        <time>2019-08-24T13:48:26Z</time>
      </trkpt>
      <trkpt lat="39.412238" lon="-9.238735">
        <ele>75.189</ele>
        <time>2019-08-24T13:48:36Z</time>
      </trkpt>
      <trkpt lat="39.412081" lon="-9.238757">
        <ele>76.346</ele>
        <time>2019-08-24T13:48:42Z</time>
      </trkpt>
      <trkpt lat="39.411692" lon="-9.238363">
        <ele>82.748</ele>
        <time>2019-08-24T13:49:15Z</time>
      </trkpt>
      <trkpt lat="39.410352" lon="-9.238153">
        <ele>93.679</ele>
        <time>2019-08-24T13:50:25Z</time>
      </trkpt>
      <trkpt lat="39.406707" lon="-9.239410">
        <ele>101.194</ele>
        <time>2019-08-24T13:52:05Z</time>
      </trkpt>
      <trkpt lat="39.405941" lon="-9.239530">
        <ele>103.396</ele>
        <time>2019-08-24T13:52:30Z</time>
      </trkpt>
      <trkpt lat="39.405638" lon="-9.239771">
        <ele>102.714</ele>
        <time>2019-08-24T13:52:39Z</time>
      </trkpt>
      <trkpt lat="39.405382" lon="-9.239758">
        <ele>102.154</ele>
        <time>2019-08-24T13:52:44Z</time>
      </trkpt>
      <trkpt lat="39.404448" lon="-9.240457">
        <ele>100.709</ele>
        <time>2019-08-24T13:53:20Z</time>
      </trkpt>
      <trkpt lat="39.404040" lon="-9.240959">
        <ele>98.008</ele>
        <time>2019-08-24T13:54:54Z</time>
      </trkpt>
      <trkpt lat="39.403877" lon="-9.241974">
        <ele>98.995</ele>
        <time>2019-08-24T13:55:07Z</time>
      </trkpt>
      <trkpt lat="39.404303" lon="-9.244544">
        <ele>80.411</ele>
        <time>2019-08-24T13:55:29Z</time>
      </trkpt>
      <trkpt lat="39.403787" lon="-9.246801">
        <ele>71.185</ele>
        <time>2019-08-24T13:55:47Z</time>
      </trkpt>
      <trkpt lat="39.404007" lon="-9.248796">
        <ele>75.072</ele>
        <time>2019-08-24T13:56:12Z</time>
      </trkpt>
      <trkpt lat="39.403757" lon="-9.250819">
        <ele>79.034</ele>
        <time>2019-08-24T13:56:47Z</time>
      </trkpt>
      <trkpt lat="39.404203" lon="-9.252872">
        <ele>82.255</ele>
        <time>2019-08-24T13:57:49Z</time>
      </trkpt>
      <trkpt lat="39.404138" lon="-9.254195">
        <ele>81.020</ele>
        <time>2019-08-24T13:58:29Z</time>
      </trkpt>
      <trkpt lat="39.403838" lon="-9.255247">
        <ele>80.092</ele>
        <time>2019-08-24T13:58:52Z</time>
      </trkpt>
      <trkpt lat="39.402690" lon="-9.257633">
        <ele>75.915</ele>
        <time>2019-08-24T13:59:28Z</time>
      </trkpt>
      <trkpt lat="39.401407" lon="-9.258854">
        <ele>77.265</ele>
        <time>2019-08-24T13:59:57Z</time>
      </trkpt>
      <trkpt lat="39.400357" lon="-9.260404">
        <ele>81.411</ele>
        <time>2019-08-24T14:00:30Z</time>
      </trkpt>
      <trkpt lat="39.399509" lon="-9.260797">
        <ele>84.008</ele>
        <time>2019-08-24T14:00:51Z</time>
      </trkpt>
      <trkpt lat="39.398551" lon="-9.260674">
        <ele>85.625</ele>
        <time>2019-08-24T14:01:06Z</time>
      </trkpt>
      <trkpt lat="39.397927" lon="-9.260762">
        <ele>78.881</ele>
        <time>2019-08-24T14:01:13Z</time>
      </trkpt>
      <trkpt lat="39.396635" lon="-9.261793">
        <ele>65.855</ele>
        <time>2019-08-24T14:01:27Z</time>
      </trkpt>
      <trkpt lat="39.394901" lon="-9.262423">
        <ele>60.922</ele>
        <time>2019-08-24T14:01:43Z</time>
      </trkpt>
      <trkpt lat="39.394451" lon="-9.263163">
        <ele>55.094</ele>
        <time>2019-08-24T14:01:51Z</time>
      </trkpt>
      <trkpt lat="39.394312" lon="-9.265949">
        <ele>45.945</ele>
        <time>2019-08-24T14:02:18Z</time>
      </trkpt>
      <trkpt lat="39.394735" lon="-9.267852">
        <ele>38.710</ele>
        <time>2019-08-24T14:02:36Z</time>
      </trkpt>
      <trkpt lat="39.394785" lon="-9.270240">
        <ele>41.162</ele>
        <time>2019-08-24T14:03:04Z</time>
      </trkpt>
      <trkpt lat="39.395174" lon="-9.271884">
        <ele>33.825</ele>
        <time>2019-08-24T14:03:29Z</time>
      </trkpt>
      <trkpt lat="39.395188" lon="-9.273020">
        <ele>23.526</ele>
        <time>2019-08-24T14:03:43Z</time>
      </trkpt>
      <trkpt lat="39.395479" lon="-9.273552">
        <ele>19.708</ele>
        <time>2019-08-24T14:03:49Z</time>
      </trkpt>
      <trkpt lat="39.396341" lon="-9.274036">
        <ele>14.808</ele>
        <time>2019-08-24T14:04:02Z</time>
      </trkpt>
      <trkpt lat="39.396777" lon="-9.274580">
        <ele>9.766</ele>
        <time>2019-08-24T14:04:11Z</time>
      </trkpt>
      <trkpt lat="39.396677" lon="-9.277650">
        <ele>9.112</ele>
        <time>2019-08-24T14:04:57Z</time>
      </trkpt>
      <trkpt lat="39.396413" lon="-9.277978">
        <ele>14.186</ele>
        <time>2019-08-24T14:05:11Z</time>
      </trkpt>
      <trkpt lat="39.395283" lon="-9.278548">
        <ele>15.893</ele>
        <time>2019-08-24T14:05:51Z</time>
      </trkpt>
      <trkpt lat="39.394881" lon="-9.279046">
        <ele>18.475</ele>
        <time>2019-08-24T14:06:09Z</time>
      </trkpt>
      <trkpt lat="39.393307" lon="-9.279400">
        <ele>23.956</ele>
        <time>2019-08-24T14:07:03Z</time>
      </trkpt>
      <trkpt lat="39.391709" lon="-9.280389">
        <ele>28.131</ele>
        <time>2019-08-24T14:07:46Z</time>
      </trkpt>
      <trkpt lat="39.390724" lon="-9.280626">
        <ele>33.373</ele>
        <time>2019-08-24T14:08:13Z</time>
      </trkpt>
      <trkpt lat="39.389222" lon="-9.280381">
        <ele>33.245</ele>
        <time>2019-08-24T14:08:50Z</time>
      </trkpt>
      <trkpt lat="39.387422" lon="-9.279283">
        <ele>31.647</ele>
        <time>2019-08-24T14:09:28Z</time>
      </trkpt>
      <trkpt lat="39.386991" lon="-9.279290">
        <ele>33.811</ele>
        <time>2019-08-24T14:09:35Z</time>
      </trkpt>
      <trkpt lat="39.386552" lon="-9.279524">
        <ele>34.308</ele>
        <time>2019-08-24T14:09:43Z</time>
      </trkpt>
      <trkpt lat="39.385903" lon="-9.280326">
        <ele>37.758</ele>
        <time>2019-08-24T14:09:59Z</time>
      </trkpt>
      <trkpt lat="39.385445" lon="-9.282268">
        <ele>48.234</ele>
        <time>2019-08-24T14:10:47Z</time>
      </trkpt>
      <trkpt lat="39.384937" lon="-9.283157">
        <ele>47.178</ele>
        <time>2019-08-24T14:11:10Z</time>
      </trkpt>
      <trkpt lat="39.384066" lon="-9.283575">
        <ele>45.785</ele>
        <time>2019-08-24T14:11:30Z</time>
      </trkpt>
      <trkpt lat="39.383441" lon="-9.283498">
        <ele>47.497</ele>
        <time>2019-08-24T14:11:46Z</time>
      </trkpt>
      <trkpt lat="39.383967" lon="-9.283539">
        <ele>45.578</ele>
        <time>2019-08-24T14:12:35Z</time>
      </trkpt>
      <trkpt lat="39.384283" lon="-9.284338">
        <ele>41.113</ele>
        <time>2019-08-24T14:12:50Z</time>
      </trkpt>
      <trkpt lat="39.384231" lon="-9.284736">
        <ele>40.845</ele>
        <time>2019-08-24T14:12:59Z</time>
      </trkpt>
      <trkpt lat="39.383459" lon="-9.285507">
        <ele>46.753</ele>
        <time>2019-08-24T14:13:20Z</time>
      </trkpt>
      <trkpt lat="39.381577" lon="-9.288055">
        <ele>37.304</ele>
        <time>2019-08-24T14:14:17Z</time>
      </trkpt>
      <trkpt lat="39.380821" lon="-9.290374">
        <ele>29.314</ele>
        <time>2019-08-24T14:14:55Z</time>
      </trkpt>
      <trkpt lat="39.379564" lon="-9.292180">
        <ele>30.608</ele>
        <time>2019-08-24T14:15:33Z</time>
      </trkpt>
      <trkpt lat="39.378680" lon="-9.293128">
        <ele>31.389</ele>
        <time>2019-08-24T14:15:59Z</time>
      </trkpt>
      <trkpt lat="39.377987" lon="-9.294807">
        <ele>31.465</ele>
        <time>2019-08-24T14:16:32Z</time>
      </trkpt>
      <trkpt lat="39.377610" lon="-9.297889">
        <ele>18.679</ele>
        <time>2019-08-24T14:17:07Z</time>
      </trkpt>
      <trkpt lat="39.377024" lon="-9.299447">
        <ele>17.776</ele>
        <time>2019-08-24T14:17:30Z</time>
      </trkpt>
      <trkpt lat="39.377135" lon="-9.300086">
        <ele>19.748</ele>
        <time>2019-08-24T14:17:43Z</time>
      </trkpt>
      <trkpt lat="39.377030" lon="-9.300939">
        <ele>21.659</ele>
        <time>2019-08-24T14:17:59Z</time>
      </trkpt>
      <trkpt lat="39.374403" lon="-9.313173">
        <ele>38.694</ele>
        <time>2019-08-24T14:25:04Z</time>
      </trkpt>
      <trkpt lat="39.374284" lon="-9.314976">
        <ele>47.216</ele>
        <time>2019-08-24T14:26:07Z</time>
      </trkpt>
      <trkpt lat="39.374529" lon="-9.316453">
        <ele>46.548</ele>
        <time>2019-08-24T14:26:39Z</time>
      </trkpt>
      <trkpt lat="39.374465" lon="-9.318090">
        <ele>43.061</ele>
        <time>2019-08-24T14:27:06Z</time>
      </trkpt>
      <trkpt lat="39.374633" lon="-9.318837">
        <ele>38.217</ele>
        <time>2019-08-24T14:27:47Z</time>
      </trkpt>
      <trkpt lat="39.374613" lon="-9.319598">
        <ele>32.508</ele>
        <time>2019-08-24T14:27:56Z</time>
      </trkpt>
      <trkpt lat="39.374442" lon="-9.319752">
        <ele>30.888</ele>
        <time>2019-08-24T14:28:00Z</time>
      </trkpt>
      <trkpt lat="39.373337" lon="-9.319653">
        <ele>32.524</ele>
        <time>2019-08-24T14:28:25Z</time>
      </trkpt>
      <trkpt lat="39.372916" lon="-9.321533">
        <ele>27.528</ele>
        <time>2019-08-24T14:28:49Z</time>
      </trkpt>
      <trkpt lat="39.372243" lon="-9.321443">
        <ele>27.875</ele>
        <time>2019-08-24T14:29:02Z</time>
      </trkpt>
      <trkpt lat="39.372105" lon="-9.321565">
        <ele>27.467</ele>
        <time>2019-08-24T14:29:05Z</time>
      </trkpt>
      <trkpt lat="39.371960" lon="-9.324515">
        <ele>25.718</ele>
        <time>2019-08-24T14:29:46Z</time>
      </trkpt>
      <trkpt lat="39.371613" lon="-9.325482">
        <ele>24.143</ele>
        <time>2019-08-24T14:29:59Z</time>
      </trkpt>
      <trkpt lat="39.371395" lon="-9.327009">
        <ele>22.025</ele>
        <time>2019-08-24T14:30:22Z</time>
      </trkpt>
      <trkpt lat="39.370620" lon="-9.328715">
        <ele>20.828</ele>
        <time>2019-08-24T14:31:17Z</time>
      </trkpt>
      <trkpt lat="39.372534" lon="-9.336263">
        <ele>9.989</ele>
        <time>2019-08-24T14:33:14Z</time>
      </trkpt>
      <trkpt lat="39.372834" lon="-9.336699">
        <ele>7.417</ele>
        <time>2019-08-24T14:33:34Z</time>
      </trkpt>
      <trkpt lat="39.372891" lon="-9.336627">
        <ele>7.408</ele>
        <time>2019-08-24T14:34:17Z</time>
      </trkpt>
      <trkpt lat="39.372446" lon="-9.337049">
        <ele>5.696</ele>
        <time>2019-08-24T14:35:50Z</time>
      </trkpt>
      <trkpt lat="39.372558" lon="-9.337689">
        <ele>0.352</ele>
        <time>2019-08-24T14:36:11Z</time>
      </trkpt>
      <trkpt lat="39.373538" lon="-9.339939">
        <ele>0.026</ele>
        <time>2019-08-24T14:37:20Z</time>
      </trkpt>
      <trkpt lat="39.374295" lon="-9.340229">
        <ele>0.063</ele>
        <time>2019-08-24T14:39:04Z</time>
      </trkpt>
      <trkpt lat="39.374916" lon="-9.340171">
        <ele>0.065</ele>
        <time>2019-08-24T14:39:24Z</time>
      </trkpt>
      <trkpt lat="39.376950" lon="-9.340764">
        <ele>0.026</ele>
        <time>2019-08-24T14:40:36Z</time>
      </trkpt>
      <trkpt lat="39.377250" lon="-9.340545">
        <ele>0.091</ele>
        <time>2019-08-24T14:40:49Z</time>
      </trkpt>
      <trkpt lat="39.377252" lon="-9.340225">
        <ele>0.053</ele>
        <time>2019-08-24T14:41:10Z</time>
      </trkpt>
      <trkpt lat="39.377216" lon="-9.340394">
        <ele>0.057</ele>
        <time>2019-08-24T14:43:12Z</time>
      </trkpt>
      <trkpt lat="39.377428" lon="-9.340179">
        <ele>0.000</ele>
        <time>2019-08-24T14:43:50Z</time>
      </trkpt>
      <trkpt lat="39.377272" lon="-9.340220">
        <ele>0.020</ele>
        <time>2019-08-24T14:44:49Z</time>
      </trkpt>
      <trkpt lat="39.377020" lon="-9.340815">
        <ele>0.008</ele>
        <time>2019-08-24T14:46:11Z</time>
      </trkpt>
      <trkpt lat="39.377125" lon="-9.341023">
        <ele>0.089</ele>
        <time>2019-08-24T14:47:47Z</time>
      </trkpt>
      <trkpt lat="39.376893" lon="-9.341271">
        <ele>0.035</ele>
        <time>2019-08-24T14:48:17Z</time>
      </trkpt>
      <trkpt lat="39.375836" lon="-9.341018">
        <ele>0.079</ele>
        <time>2019-08-24T14:48:56Z</time>
      </trkpt>
      <trkpt lat="39.374860" lon="-9.341310">
        <ele>0.066</ele>
        <time>2019-08-24T14:49:22Z</time>
      </trkpt>
      <trkpt lat="39.374770" lon="-9.340773">
        <ele>0.058</ele>
        <time>2019-08-24T14:49:40Z</time>
      </trkpt>
      <trkpt lat="39.374552" lon="-9.340426">
        <ele>0.089</ele>
        <time>2019-08-24T14:50:00Z</time>
      </trkpt>
      <trkpt lat="39.374087" lon="-9.340439">
        <ele>0.084</ele>
        <time>2019-08-24T14:50:19Z</time>
      </trkpt>
      <trkpt lat="39.374113" lon="-9.340245">
        <ele>0.096</ele>
        <time>2019-08-24T14:50:31Z</time>
      </trkpt>
      <trkpt lat="39.374209" lon="-9.340289">
        <ele>0.035</ele>
        <time>2019-08-24T15:17:55Z</time>
      </trkpt>
      <trkpt lat="39.373560" lon="-9.340031">
        <ele>0.086</ele>
        <time>2019-08-24T15:20:01Z</time>
      </trkpt>
      <trkpt lat="39.372388" lon="-9.337095">
        <ele>5.014</ele>
        <time>2019-08-24T15:21:00Z</time>
      </trkpt>
      <trkpt lat="39.371981" lon="-9.337366">
        <ele>3.508</ele>
        <time>2019-08-24T15:21:38Z</time>
      </trkpt>
      <trkpt lat="39.371831" lon="-9.337183">
        <ele>5.067</ele>
        <time>2019-08-24T15:21:49Z</time>
      </trkpt>
      <trkpt lat="39.371119" lon="-9.337170">
        <ele>7.043</ele>
        <time>2019-08-24T15:22:07Z</time>
      </trkpt>
      <trkpt lat="39.370693" lon="-9.336710">
        <ele>6.937</ele>
        <time>2019-08-24T15:22:37Z</time>
      </trkpt>
      <trkpt lat="39.366770" lon="-9.336816">
        <ele>11.064</ele>
        <time>2019-08-24T15:24:13Z</time>
      </trkpt>
      <trkpt lat="39.363542" lon="-9.338317">
        <ele>8.066</ele>
        <time>2019-08-24T15:25:03Z</time>
      </trkpt>
      <trkpt lat="39.362682" lon="-9.338869">
        <ele>9.317</ele>
        <time>2019-08-24T15:25:16Z</time>
      </trkpt>
      <trkpt lat="39.362043" lon="-9.339798">
        <ele>10.942</ele>
        <time>2019-08-24T15:25:30Z</time>
      </trkpt>
      <trkpt lat="39.359720" lon="-9.344286">
        <ele>8.454</ele>
        <time>2019-08-24T15:26:37Z</time>
      </trkpt>
      <trkpt lat="39.358277" lon="-9.346712">
        <ele>10.876</ele>
        <time>2019-08-24T15:27:15Z</time>
      </trkpt>
      <trkpt lat="39.356893" lon="-9.354581">
        <ele>6.490</ele>
        <time>2019-08-24T15:29:02Z</time>
      </trkpt>
      <trkpt lat="39.357048" lon="-9.356352">
        <ele>7.919</ele>
        <time>2019-08-24T15:29:27Z</time>
      </trkpt>
      <trkpt lat="39.358377" lon="-9.359821">
        <ele>6.508</ele>
        <time>2019-08-24T15:30:25Z</time>
      </trkpt>
      <trkpt lat="39.358890" lon="-9.362217">
        <ele>4.011</ele>
        <time>2019-08-24T15:31:02Z</time>
      </trkpt>
      <trkpt lat="39.359064" lon="-9.364902">
        <ele>2.587</ele>
        <time>2019-08-24T15:31:55Z</time>
      </trkpt>
      <trkpt lat="39.358506" lon="-9.366310">
        <ele>2.521</ele>
        <time>2019-08-24T15:32:22Z</time>
      </trkpt>
      <trkpt lat="39.358323" lon="-9.366338">
        <ele>3.918</ele>
        <time>2019-08-24T15:32:26Z</time>
      </trkpt>
      <trkpt lat="39.358072" lon="-9.365742">
        <ele>3.930</ele>
        <time>2019-08-24T15:32:38Z</time>
      </trkpt>
      <trkpt lat="39.357112" lon="-9.364657">
        <ele>1.561</ele>
        <time>2019-08-24T15:33:57Z</time>
      </trkpt>
      <trkpt lat="39.353015" lon="-9.361861">
        <ele>5.436</ele>
        <time>2019-08-24T15:35:47Z</time>
      </trkpt>
      <trkpt lat="39.352179" lon="-9.361491">
        <ele>4.528</ele>
        <time>2019-08-24T15:36:03Z</time>
      </trkpt>
      <trkpt lat="39.350525" lon="-9.361197">
        <ele>3.169</ele>
        <time>2019-08-24T15:36:32Z</time>
      </trkpt>
      <trkpt lat="39.350279" lon="-9.360855">
        <ele>4.904</ele>
        <time>2019-08-24T15:36:38Z</time>
      </trkpt>
      <trkpt lat="39.350025" lon="-9.359898">
        <ele>2.124</ele>
        <time>2019-08-24T15:36:51Z</time>
      </trkpt>
      <trkpt lat="39.350171" lon="-9.359595">
        <ele>2.208</ele>
        <time>2019-08-24T15:36:55Z</time>
      </trkpt>
      <trkpt lat="39.350410" lon="-9.359600">
        <ele>1.520</ele>
        <time>2019-08-24T15:36:59Z</time>
      </trkpt>
      <trkpt lat="39.350720" lon="-9.360208">
        <ele>1.986</ele>
        <time>2019-08-24T15:37:10Z</time>
      </trkpt>
      <trkpt lat="39.352054" lon="-9.361058">
        <ele>5.530</ele>
        <time>2019-08-24T15:37:40Z</time>
      </trkpt>
      <trkpt lat="39.352863" lon="-9.360797">
        <ele>6.767</ele>
        <time>2019-08-24T15:37:58Z</time>
      </trkpt>
      <trkpt lat="39.353675" lon="-9.361152">
        <ele>4.429</ele>
        <time>2019-08-24T15:38:20Z</time>
      </trkpt>
      <trkpt lat="39.353954" lon="-9.360865">
        <ele>6.190</ele>
        <time>2019-08-24T15:40:33Z</time>
      </trkpt>
      <trkpt lat="39.354150" lon="-9.361186">
        <ele>7.285</ele>
        <time>2019-08-24T15:43:16Z</time>
      </trkpt>
      <trkpt lat="39.353914" lon="-9.361140">
        <ele>5.367</ele>
        <time>2019-08-24T15:43:20Z</time>
      </trkpt>
      <trkpt lat="39.353835" lon="-9.361079">
        <ele>4.929</ele>
        <time>2019-08-24T15:43:22Z</time>
      </trkpt>
      <trkpt lat="39.354669" lon="-9.361187">
        <ele>8.900</ele>
        <time>2019-08-24T15:43:29Z</time>
      </trkpt>
      <trkpt lat="39.354460" lon="-9.361214">
        <ele>8.720</ele>
        <time>2019-08-24T15:43:30Z</time>
      </trkpt>
      <trkpt lat="39.355110" lon="-9.361550">
        <ele>8.408</ele>
        <time>2019-08-24T15:43:36Z</time>
      </trkpt>
      <trkpt lat="39.354006" lon="-9.361078">
        <ele>5.926</ele>
        <time>2019-08-24T15:43:49Z</time>
      </trkpt>
      <trkpt lat="39.354047" lon="-9.360790">
        <ele>6.732</ele>
        <time>2019-08-24T15:45:40Z</time>
      </trkpt>
      <trkpt lat="39.354077" lon="-9.360992">
        <ele>6.586</ele>
        <time>2019-08-24T15:46:06Z</time>
      </trkpt>
      <trkpt lat="39.353604" lon="-9.360897">
        <ele>4.763</ele>
        <time>2019-08-24T15:46:14Z</time>
      </trkpt>
      <trkpt lat="39.354081" lon="-9.360973">
        <ele>6.595</ele>
        <time>2019-08-24T15:46:20Z</time>
      </trkpt>
      <trkpt lat="39.353785" lon="-9.360757">
        <ele>6.296</ele>
        <time>2019-08-24T15:46:26Z</time>
      </trkpt>
      <trkpt lat="39.353391" lon="-9.360807">
        <ele>4.571</ele>
        <time>2019-08-24T15:46:34Z</time>
      </trkpt>
      <trkpt lat="39.354715" lon="-9.361419">
        <ele>8.893</ele>
        <time>2019-08-24T15:48:49Z</time>
      </trkpt>
      <trkpt lat="39.354794" lon="-9.361170">
        <ele>9.033</ele>
        <time>2019-08-24T15:48:50Z</time>
      </trkpt>
      <trkpt lat="39.354699" lon="-9.361104">
        <ele>9.023</ele>
        <time>2019-08-24T15:48:51Z</time>
      </trkpt>
      <trkpt lat="39.354674" lon="-9.361196">
        <ele>8.915</ele>
        <time>2019-08-24T15:48:53Z</time>
      </trkpt>
      <trkpt lat="39.353889" lon="-9.360960">
        <ele>5.508</ele>
        <time>2019-08-24T15:49:00Z</time>
      </trkpt>
      <trkpt lat="39.354002" lon="-9.361038">
        <ele>6.067</ele>
        <time>2019-08-24T15:49:03Z</time>
      </trkpt>
      <trkpt lat="39.353713" lon="-9.361024">
        <ele>4.783</ele>
        <time>2019-08-24T15:49:08Z</time>
      </trkpt>
      <trkpt lat="39.353997" lon="-9.360992">
        <ele>6.097</ele>
        <time>2019-08-24T15:49:28Z</time>
      </trkpt>
      <trkpt lat="39.353731" lon="-9.360731">
        <ele>6.274</ele>
        <time>2019-08-24T15:50:27Z</time>
      </trkpt>
      <trkpt lat="39.353917" lon="-9.361025">
        <ele>5.516</ele>
        <time>2019-08-24T15:51:05Z</time>
      </trkpt>
      <trkpt lat="39.354077" lon="-9.360898">
        <ele>6.637</ele>
        <time>2019-08-24T15:51:06Z</time>
      </trkpt>
      <trkpt lat="39.353886" lon="-9.360910">
        <ele>5.742</ele>
        <time>2019-08-24T15:52:16Z</time>
      </trkpt>
      <trkpt lat="39.353812" lon="-9.360374">
        <ele>9.474</ele>
        <time>2019-08-24T15:54:17Z</time>
      </trkpt>
      <trkpt lat="39.354301" lon="-9.360080">
        <ele>7.421</ele>
        <time>2019-08-24T15:54:37Z</time>
      </trkpt>
      <trkpt lat="39.356124" lon="-9.359525">
        <ele>8.341</ele>
        <time>2019-08-24T15:55:38Z</time>
      </trkpt>
      <trkpt lat="39.356645" lon="-9.359490">
        <ele>9.205</ele>
        <time>2019-08-24T15:56:03Z</time>
      </trkpt>
      <trkpt lat="39.357141" lon="-9.360175">
        <ele>7.108</ele>
        <time>2019-08-24T15:57:10Z</time>
      </trkpt>
      <trkpt lat="39.357109" lon="-9.360288">
        <ele>7.016</ele>
        <time>2019-08-24T15:57:28Z</time>
      </trkpt>
      <trkpt lat="39.356550" lon="-9.360319">
        <ele>7.982</ele>
        <time>2019-08-24T16:01:59Z</time>
      </trkpt>
      <trkpt lat="39.356280" lon="-9.360227">
        <ele>8.379</ele>
        <time>2019-08-26T09:19:54Z</time>
      </trkpt>
      <trkpt lat="39.356461" lon="-9.359670">
        <ele>10.405</ele>
        <time>2019-08-26T09:20:49Z</time>
      </trkpt>
      <trkpt lat="39.356072" lon="-9.359565">
        <ele>8.325</ele>
        <time>2019-08-26T09:21:11Z</time>
      </trkpt>
      <trkpt lat="39.354006" lon="-9.360216">
        <ele>9.408</ele>
        <time>2019-08-26T09:22:04Z</time>
      </trkpt>
      <trkpt lat="39.353792" lon="-9.360393">
        <ele>9.261</ele>
        <time>2019-08-26T09:22:12Z</time>
      </trkpt>
      <trkpt lat="39.353876" lon="-9.361027">
        <ele>5.367</ele>
        <time>2019-08-26T09:22:38Z</time>
      </trkpt>
      <trkpt lat="39.353417" lon="-9.360985">
        <ele>3.832</ele>
        <time>2019-08-26T09:53:07Z</time>
      </trkpt>
      <trkpt lat="39.353629" lon="-9.361110">
        <ele>4.178</ele>
        <time>2019-08-26T09:54:01Z</time>
      </trkpt>
      <trkpt lat="39.354590" lon="-9.362681">
        <ele>4.098</ele>
        <time>2019-08-26T09:54:58Z</time>
      </trkpt>
      <trkpt lat="39.356850" lon="-9.364141">
        <ele>2.083</ele>
        <time>2019-08-26T09:55:51Z</time>
      </trkpt>
      <trkpt lat="39.358596" lon="-9.365982">
        <ele>1.132</ele>
        <time>2019-08-26T09:56:36Z</time>
      </trkpt>
      <trkpt lat="39.358598" lon="-9.366297">
        <ele>1.871</ele>
        <time>2019-08-26T09:56:40Z</time>
      </trkpt>
      <trkpt lat="39.358131" lon="-9.366558">
        <ele>5.672</ele>
        <time>2019-08-26T09:56:47Z</time>
      </trkpt>
      <trkpt lat="39.357784" lon="-9.367041">
        <ele>7.013</ele>
        <time>2019-08-26T09:56:54Z</time>
      </trkpt>
      <trkpt lat="39.357525" lon="-9.368486">
        <ele>5.414</ele>
        <time>2019-08-26T09:57:15Z</time>
      </trkpt>
      <trkpt lat="39.357619" lon="-9.368923">
        <ele>4.408</ele>
        <time>2019-08-26T09:57:22Z</time>
      </trkpt>
      <trkpt lat="39.358570" lon="-9.370338">
        <ele>3.031</ele>
        <time>2019-08-26T09:57:50Z</time>
      </trkpt>
      <trkpt lat="39.358729" lon="-9.371348">
        <ele>2.057</ele>
        <time>2019-08-26T09:58:06Z</time>
      </trkpt>
      <trkpt lat="39.357114" lon="-9.376644">
        <ele>2.572</ele>
        <time>2019-08-26T09:59:34Z</time>
      </trkpt>
      <trkpt lat="39.356430" lon="-9.377242">
        <ele>3.688</ele>
        <time>2019-08-26T09:59:50Z</time>
      </trkpt>
      <trkpt lat="39.356759" lon="-9.378391">
        <ele>5.088</ele>
        <time>2019-08-26T10:00:12Z</time>
      </trkpt>
      <trkpt lat="39.354206" lon="-9.379011">
        <ele>6.693</ele>
        <time>2019-08-26T10:01:08Z</time>
      </trkpt>
      <trkpt lat="39.353844" lon="-9.378935">
        <ele>5.022</ele>
        <time>2019-08-26T10:01:49Z</time>
      </trkpt>
      <trkpt lat="39.353898" lon="-9.379903">
        <ele>6.171</ele>
        <time>2019-08-26T10:03:15Z</time>
      </trkpt>
      <trkpt lat="39.353681" lon="-9.379447">
        <ele>4.569</ele>
        <time>2019-08-26T10:04:09Z</time>
      </trkpt>
      <trkpt lat="39.353883" lon="-9.378952">
        <ele>5.204</ele>
        <time>2019-08-26T10:04:21Z</time>
      </trkpt>
      <trkpt lat="39.356556" lon="-9.378400">
        <ele>4.324</ele>
        <time>2019-08-26T10:06:04Z</time>
      </trkpt>
      <trkpt lat="39.356406" lon="-9.377211">
        <ele>3.908</ele>
        <time>2019-08-26T10:06:23Z</time>
      </trkpt>
      <trkpt lat="39.356842" lon="-9.376676">
        <ele>3.030</ele>
        <time>2019-08-26T10:06:34Z</time>
      </trkpt>
      <trkpt lat="39.357340" lon="-9.375669">
        <ele>4.796</ele>
        <time>2019-08-26T10:06:51Z</time>
      </trkpt>
      <trkpt lat="39.358608" lon="-9.371510">
        <ele>2.061</ele>
        <time>2019-08-26T10:07:49Z</time>
      </trkpt>
      <trkpt lat="39.358573" lon="-9.370646">
        <ele>2.787</ele>
        <time>2019-08-26T10:08:00Z</time>
      </trkpt>
      <trkpt lat="39.357607" lon="-9.369046">
        <ele>4.457</ele>
        <time>2019-08-26T10:08:27Z</time>
      </trkpt>
      <trkpt lat="39.357016" lon="-9.368716">
        <ele>3.972</ele>
        <time>2019-08-26T10:08:39Z</time>
      </trkpt>
      <trkpt lat="39.357055" lon="-9.368151">
        <ele>4.881</ele>
        <time>2019-08-26T10:08:50Z</time>
      </trkpt>
      <trkpt lat="39.357407" lon="-9.367926">
        <ele>5.720</ele>
        <time>2019-08-26T10:09:20Z</time>
      </trkpt>
      <trkpt lat="39.357548" lon="-9.367512">
        <ele>5.446</ele>
        <time>2019-08-26T10:09:30Z</time>
      </trkpt>
      <trkpt lat="39.357312" lon="-9.366549">
        <ele>5.088</ele>
        <time>2019-08-26T10:10:00Z</time>
      </trkpt>
      <trkpt lat="39.356464" lon="-9.365093">
        <ele>2.016</ele>
        <time>2019-08-26T10:10:29Z</time>
      </trkpt>
      <trkpt lat="39.355480" lon="-9.364014">
        <ele>4.108</ele>
        <time>2019-08-26T10:10:55Z</time>
      </trkpt>
      <trkpt lat="39.354745" lon="-9.363963">
        <ele>5.788</ele>
        <time>2019-08-26T10:11:11Z</time>
      </trkpt>
      <trkpt lat="39.353865" lon="-9.364123">
        <ele>2.254</ele>
        <time>2019-08-26T10:11:30Z</time>
      </trkpt>
      <trkpt lat="39.352873" lon="-9.364005">
        <ele>2.819</ele>
        <time>2019-08-26T10:11:49Z</time>
      </trkpt>
      <trkpt lat="39.352279" lon="-9.364186">
        <ele>2.275</ele>
        <time>2019-08-26T10:12:01Z</time>
      </trkpt>
      <trkpt lat="39.351661" lon="-9.365623">
        <ele>4.585</ele>
        <time>2019-08-26T10:12:34Z</time>
      </trkpt>
      <trkpt lat="39.351413" lon="-9.366588">
        <ele>3.980</ele>
        <time>2019-08-26T10:12:58Z</time>
      </trkpt>
      <trkpt lat="39.351487" lon="-9.367307">
        <ele>5.399</ele>
        <time>2019-08-26T10:15:09Z</time>
      </trkpt>
      <trkpt lat="39.351076" lon="-9.367274">
        <ele>3.748</ele>
        <time>2019-08-26T10:16:03Z</time>
      </trkpt>
      <trkpt lat="39.351252" lon="-9.367239">
        <ele>5.023</ele>
        <time>2019-08-26T10:18:17Z</time>
      </trkpt>
      <trkpt lat="39.351625" lon="-9.365885">
        <ele>5.883</ele>
        <time>2019-08-26T10:18:51Z</time>
      </trkpt>
      <trkpt lat="39.352206" lon="-9.365121">
        <ele>-0.411</ele>
        <time>2019-08-26T10:19:07Z</time>
      </trkpt>
      <trkpt lat="39.352333" lon="-9.364675">
        <ele>2.008</ele>
        <time>2019-08-26T10:19:15Z</time>
      </trkpt>
      <trkpt lat="39.351290" lon="-9.363799">
        <ele>4.366</ele>
        <time>2019-08-26T10:20:04Z</time>
      </trkpt>
      <trkpt lat="39.351051" lon="-9.363426">
        <ele>4.842</ele>
        <time>2019-08-26T10:20:12Z</time>
      </trkpt>
      <trkpt lat="39.351193" lon="-9.362137">
        <ele>1.597</ele>
        <time>2019-08-26T10:20:34Z</time>
      </trkpt>
      <trkpt lat="39.351489" lon="-9.361441">
        <ele>1.463</ele>
        <time>2019-08-26T10:21:20Z</time>
      </trkpt>
      <trkpt lat="39.350467" lon="-9.361160">
        <ele>3.313</ele>
        <time>2019-08-26T10:21:58Z</time>
      </trkpt>
      <trkpt lat="39.350171" lon="-9.360338">
        <ele>4.338</ele>
        <time>2019-08-26T10:22:12Z</time>
      </trkpt>
      <trkpt lat="39.349950" lon="-9.360137">
        <ele>3.157</ele>
        <time>2019-08-26T10:22:17Z</time>
      </trkpt>
      <trkpt lat="39.349647" lon="-9.360245">
        <ele>3.936</ele>
        <time>2019-08-26T10:22:22Z</time>
      </trkpt>
      <trkpt lat="39.349253" lon="-9.360686">
        <ele>3.062</ele>
        <time>2019-08-26T10:22:35Z</time>
      </trkpt>
      <trkpt lat="39.349881" lon="-9.360034">
        <ele>2.683</ele>
        <time>2019-08-26T10:23:00Z</time>
      </trkpt>
      <trkpt lat="39.349928" lon="-9.359762">
        <ele>2.011</ele>
        <time>2019-08-26T10:23:09Z</time>
      </trkpt>
      <trkpt lat="39.349408" lon="-9.359187">
        <ele>2.308</ele>
        <time>2019-08-26T10:23:26Z</time>
      </trkpt>
      <trkpt lat="39.347090" lon="-9.353374">
        <ele>5.730</ele>
        <time>2019-08-26T10:25:04Z</time>
      </trkpt>
      <trkpt lat="39.346556" lon="-9.352845">
        <ele>3.596</ele>
        <time>2019-08-26T10:25:15Z</time>
      </trkpt>
      <trkpt lat="39.345969" lon="-9.352609">
        <ele>4.771</ele>
        <time>2019-08-26T10:25:26Z</time>
      </trkpt>
      <trkpt lat="39.344179" lon="-9.352772">
        <ele>6.037</ele>
        <time>2019-08-26T10:25:59Z</time>
      </trkpt>
      <trkpt lat="39.339988" lon="-9.352114">
        <ele>5.757</ele>
        <time>2019-08-26T10:27:20Z</time>
      </trkpt>
      <trkpt lat="39.339879" lon="-9.352225">
        <ele>6.542</ele>
        <time>2019-08-26T10:27:28Z</time>
      </trkpt>
      <trkpt lat="39.339807" lon="-9.353445">
        <ele>10.481</ele>
        <time>2019-08-26T10:28:00Z</time>
      </trkpt>
      <trkpt lat="39.338564" lon="-9.353497">
        <ele>10.650</ele>
        <time>2019-08-26T10:29:00Z</time>
      </trkpt>
      <trkpt lat="39.338484" lon="-9.354190">
        <ele>7.942</ele>
        <time>2019-08-26T10:29:17Z</time>
      </trkpt>
      <trkpt lat="39.338332" lon="-9.354362">
        <ele>7.322</ele>
        <time>2019-08-26T10:29:22Z</time>
      </trkpt>
      <trkpt lat="39.337013" lon="-9.354240">
        <ele>9.014</ele>
        <time>2019-08-26T10:29:49Z</time>
      </trkpt>
      <trkpt lat="39.335328" lon="-9.354468">
        <ele>11.608</ele>
        <time>2019-08-26T10:30:22Z</time>
      </trkpt>
      <trkpt lat="39.333212" lon="-9.353859">
        <ele>9.858</ele>
        <time>2019-08-26T10:31:01Z</time>
      </trkpt>
      <trkpt lat="39.330721" lon="-9.353905">
        <ele>7.594</ele>
        <time>2019-08-26T10:31:53Z</time>
      </trkpt>
      <trkpt lat="39.329697" lon="-9.354063">
        <ele>13.419</ele>
        <time>2019-08-26T10:32:16Z</time>
      </trkpt>
      <trkpt lat="39.328112" lon="-9.353910">
        <ele>16.665</ele>
        <time>2019-08-26T10:32:54Z</time>
      </trkpt>
      <trkpt lat="39.327874" lon="-9.354399">
        <ele>16.645</ele>
        <time>2019-08-26T10:33:14Z</time>
      </trkpt>
      <trkpt lat="39.327874" lon="-9.356195">
        <ele>14.040</ele>
        <time>2019-08-26T10:33:44Z</time>
      </trkpt>
      <trkpt lat="39.327592" lon="-9.356839">
        <ele>11.479</ele>
        <time>2019-08-26T10:33:55Z</time>
      </trkpt>
      <trkpt lat="39.327234" lon="-9.357080">
        <ele>10.068</ele>
        <time>2019-08-26T10:34:03Z</time>
      </trkpt>
      <trkpt lat="39.326682" lon="-9.357141">
        <ele>10.526</ele>
        <time>2019-08-26T10:34:20Z</time>
      </trkpt>
      <trkpt lat="39.326457" lon="-9.357650">
        <ele>8.147</ele>
        <time>2019-08-26T10:36:15Z</time>
      </trkpt>
      <trkpt lat="39.326287" lon="-9.357238">
        <ele>10.511</ele>
        <time>2019-08-26T10:36:27Z</time>
      </trkpt>
      <trkpt lat="39.325405" lon="-9.357345">
        <ele>10.508</ele>
        <time>2019-08-26T10:36:54Z</time>
      </trkpt>
      <trkpt lat="39.325116" lon="-9.357627">
        <ele>12.266</ele>
        <time>2019-08-26T10:37:20Z</time>
      </trkpt>
      <trkpt lat="39.324771" lon="-9.357673">
        <ele>13.542</ele>
        <time>2019-08-26T10:37:33Z</time>
      </trkpt>
      <trkpt lat="39.324326" lon="-9.358135">
        <ele>17.757</ele>
        <time>2019-08-26T10:37:50Z</time>
      </trkpt>
      <trkpt lat="39.324343" lon="-9.359212">
        <ele>17.243</ele>
        <time>2019-08-26T10:38:16Z</time>
      </trkpt>
      <trkpt lat="39.324168" lon="-9.359257">
        <ele>15.723</ele>
        <time>2019-08-26T10:38:23Z</time>
      </trkpt>
      <trkpt lat="39.324144" lon="-9.359491">
        <ele>14.328</ele>
        <time>2019-08-26T10:38:28Z</time>
      </trkpt>
      <trkpt lat="39.324310" lon="-9.360229">
        <ele>5.857</ele>
        <time>2019-08-26T10:39:40Z</time>
      </trkpt>
      <trkpt lat="39.324559" lon="-9.360317">
        <ele>4.876</ele>
        <time>2019-08-26T10:40:02Z</time>
      </trkpt>
      <trkpt lat="39.324506" lon="-9.360730">
        <ele>2.898</ele>
        <time>2019-08-26T10:40:59Z</time>
      </trkpt>
      <trkpt lat="39.324020" lon="-9.359053">
        <ele>14.515</ele>
        <time>2019-08-26T10:43:51Z</time>
      </trkpt>
      <trkpt lat="39.323687" lon="-9.358971">
        <ele>9.326</ele>
        <time>2019-08-26T10:44:04Z</time>
      </trkpt>
      <trkpt lat="39.322954" lon="-9.358282">
        <ele>12.008</ele>
        <time>2019-08-26T10:44:33Z</time>
      </trkpt>
      <trkpt lat="39.321498" lon="-9.357471">
        <ele>12.653</ele>
        <time>2019-08-26T10:45:20Z</time>
      </trkpt>
      <trkpt lat="39.320680" lon="-9.356412">
        <ele>15.259</ele>
        <time>2019-08-26T10:45:44Z</time>
      </trkpt>
      <trkpt lat="39.319617" lon="-9.354656">
        <ele>18.134</ele>
        <time>2019-08-26T10:46:30Z</time>
      </trkpt>
      <trkpt lat="39.319579" lon="-9.352392">
        <ele>20.540</ele>
        <time>2019-08-26T10:47:11Z</time>
      </trkpt>
      <trkpt lat="39.319831" lon="-9.350715">
        <ele>21.290</ele>
        <time>2019-08-26T10:47:40Z</time>
      </trkpt>
      <trkpt lat="39.319765" lon="-9.349645">
        <ele>23.245</ele>
        <time>2019-08-26T10:47:58Z</time>
      </trkpt>
      <trkpt lat="39.319891" lon="-9.348812">
        <ele>23.094</ele>
        <time>2019-08-26T10:48:14Z</time>
      </trkpt>
      <trkpt lat="39.320977" lon="-9.344885">
        <ele>29.413</ele>
        <time>2019-08-26T10:50:57Z</time>
      </trkpt>
      <trkpt lat="39.321280" lon="-9.344406">
        <ele>31.111</ele>
        <time>2019-08-26T10:51:09Z</time>
      </trkpt>
      <trkpt lat="39.321993" lon="-9.343744">
        <ele>33.221</ele>
        <time>2019-08-26T10:51:36Z</time>
      </trkpt>
      <trkpt lat="39.321953" lon="-9.342994">
        <ele>34.203</ele>
        <time>2019-08-26T10:51:51Z</time>
      </trkpt>
      <trkpt lat="39.322124" lon="-9.342236">
        <ele>36.308</ele>
        <time>2019-08-26T10:52:08Z</time>
      </trkpt>
      <trkpt lat="39.321375" lon="-9.340490">
        <ele>38.155</ele>
        <time>2019-08-26T10:52:45Z</time>
      </trkpt>
      <trkpt lat="39.320886" lon="-9.340003">
        <ele>40.831</ele>
        <time>2019-08-26T10:53:02Z</time>
      </trkpt>
      <trkpt lat="39.319743" lon="-9.339318">
        <ele>44.056</ele>
        <time>2019-08-26T10:53:38Z</time>
      </trkpt>
      <trkpt lat="39.311347" lon="-9.335612">
        <ele>57.872</ele>
        <time>2019-08-26T10:57:38Z</time>
      </trkpt>
      <trkpt lat="39.310997" lon="-9.335645">
        <ele>57.132</ele>
        <time>2019-08-26T10:57:46Z</time>
      </trkpt>
      <trkpt lat="39.310561" lon="-9.335474">
        <ele>52.737</ele>
        <time>2019-08-26T10:57:53Z</time>
      </trkpt>
      <trkpt lat="39.310232" lon="-9.335687">
        <ele>51.436</ele>
        <time>2019-08-26T10:57:58Z</time>
      </trkpt>
      <trkpt lat="39.310129" lon="-9.336480">
        <ele>54.885</ele>
        <time>2019-08-26T10:58:14Z</time>
      </trkpt>
      <trkpt lat="39.308971" lon="-9.337205">
        <ele>65.566</ele>
        <time>2019-08-26T10:58:57Z</time>
      </trkpt>
      <trkpt lat="39.308785" lon="-9.339278">
        <ele>62.629</ele>
        <time>2019-08-26T10:59:41Z</time>
      </trkpt>
      <trkpt lat="39.308315" lon="-9.339007">
        <ele>64.621</ele>
        <time>2019-08-26T10:59:54Z</time>
      </trkpt>
      <trkpt lat="39.307340" lon="-9.337237">
        <ele>70.408</ele>
        <time>2019-08-26T11:00:37Z</time>
      </trkpt>
      <trkpt lat="39.306870" lon="-9.335359">
        <ele>73.590</ele>
        <time>2019-08-26T11:01:20Z</time>
      </trkpt>
      <trkpt lat="39.305678" lon="-9.332996">
        <ele>76.896</ele>
        <time>2019-08-26T11:02:17Z</time>
      </trkpt>
      <trkpt lat="39.305719" lon="-9.330673">
        <ele>77.181</ele>
        <time>2019-08-26T11:04:41Z</time>
      </trkpt>
      <trkpt lat="39.305649" lon="-9.330861">
        <ele>77.777</ele>
        <time>2019-08-26T11:05:05Z</time>
      </trkpt>
      <trkpt lat="39.305415" lon="-9.330094">
        <ele>79.567</ele>
        <time>2019-08-26T11:06:40Z</time>
      </trkpt>
      <trkpt lat="39.304208" lon="-9.327880">
        <ele>88.482</ele>
        <time>2019-08-26T11:07:38Z</time>
      </trkpt>
      <trkpt lat="39.302920" lon="-9.323894">
        <ele>99.081</ele>
        <time>2019-08-26T11:09:29Z</time>
      </trkpt>
      <trkpt lat="39.302718" lon="-9.322514">
        <ele>101.710</ele>
        <time>2019-08-26T11:10:00Z</time>
      </trkpt>
      <trkpt lat="39.302204" lon="-9.321364">
        <ele>104.055</ele>
        <time>2019-08-26T11:10:26Z</time>
      </trkpt>
      <trkpt lat="39.300989" lon="-9.319884">
        <ele>103.707</ele>
        <time>2019-08-26T11:11:08Z</time>
      </trkpt>
      <trkpt lat="39.300085" lon="-9.319107">
        <ele>103.817</ele>
        <time>2019-08-26T11:11:35Z</time>
      </trkpt>
      <trkpt lat="39.299065" lon="-9.319120">
        <ele>104.208</ele>
        <time>2019-08-26T11:11:55Z</time>
      </trkpt>
      <trkpt lat="39.297522" lon="-9.317784">
        <ele>107.129</ele>
        <time>2019-08-26T11:12:46Z</time>
      </trkpt>
      <trkpt lat="39.296591" lon="-9.317559">
        <ele>109.615</ele>
        <time>2019-08-26T11:13:16Z</time>
      </trkpt>
      <trkpt lat="39.296550" lon="-9.317327">
        <ele>110.630</ele>
        <time>2019-08-26T11:13:21Z</time>
      </trkpt>
      <trkpt lat="39.296905" lon="-9.316378">
        <ele>112.126</ele>
        <time>2019-08-26T11:13:45Z</time>
      </trkpt>
      <trkpt lat="39.296847" lon="-9.316100">
        <ele>113.726</ele>
        <time>2019-08-26T11:13:53Z</time>
      </trkpt>
      <trkpt lat="39.295020" lon="-9.315597">
        <ele>112.751</ele>
        <time>2019-08-26T11:19:43Z</time>
      </trkpt>
      <trkpt lat="39.294111" lon="-9.315583">
        <ele>109.720</ele>
        <time>2019-08-26T11:20:03Z</time>
      </trkpt>
      <trkpt lat="39.292846" lon="-9.315797">
        <ele>108.399</ele>
        <time>2019-08-26T11:20:23Z</time>
      </trkpt>
      <trkpt lat="39.288132" lon="-9.317756">
        <ele>86.471</ele>
        <time>2019-08-26T11:21:54Z</time>
      </trkpt>
      <trkpt lat="39.288628" lon="-9.317575">
        <ele>89.141</ele>
        <time>2019-08-26T11:22:28Z</time>
      </trkpt>
      <trkpt lat="39.288771" lon="-9.317775">
        <ele>89.615</ele>
        <time>2019-08-26T11:22:34Z</time>
      </trkpt>
      <trkpt lat="39.288137" lon="-9.319650">
        <ele>88.108</ele>
        <time>2019-08-26T11:23:06Z</time>
      </trkpt>
      <trkpt lat="39.287882" lon="-9.324032">
        <ele>83.061</ele>
        <time>2019-08-26T11:24:28Z</time>
      </trkpt>
      <trkpt lat="39.288002" lon="-9.325656">
        <ele>73.747</ele>
        <time>2019-08-26T11:24:45Z</time>
      </trkpt>
      <trkpt lat="39.288187" lon="-9.326321">
        <ele>72.612</ele>
        <time>2019-08-26T11:24:53Z</time>
      </trkpt>
      <trkpt lat="39.288928" lon="-9.327350">
        <ele>71.678</ele>
        <time>2019-08-26T11:25:10Z</time>
      </trkpt>
      <trkpt lat="39.289625" lon="-9.330012">
        <ele>75.228</ele>
        <time>2019-08-26T11:25:53Z</time>
      </trkpt>
      <trkpt lat="39.288682" lon="-9.334856">
        <ele>68.593</ele>
        <time>2019-08-26T11:27:04Z</time>
      </trkpt>
      <trkpt lat="39.288776" lon="-9.334981">
        <ele>68.152</ele>
        <time>2019-08-26T11:27:07Z</time>
      </trkpt>
      <trkpt lat="39.289485" lon="-9.334872">
        <ele>63.711</ele>
        <time>2019-08-26T11:27:18Z</time>
      </trkpt>
      <trkpt lat="39.289722" lon="-9.335326">
        <ele>61.859</ele>
        <time>2019-08-26T11:27:24Z</time>
      </trkpt>
      <trkpt lat="39.289649" lon="-9.335596">
        <ele>61.003</ele>
        <time>2019-08-26T11:27:27Z</time>
      </trkpt>
      <trkpt lat="39.288408" lon="-9.337134">
        <ele>46.823</ele>
        <time>2019-08-26T11:27:44Z</time>
      </trkpt>
      <trkpt lat="39.287866" lon="-9.338069">
        <ele>44.308</ele>
        <time>2019-08-26T11:27:54Z</time>
      </trkpt>
      <trkpt lat="39.287704" lon="-9.340268">
        <ele>35.069</ele>
        <time>2019-08-26T11:30:09Z</time>
      </trkpt>
      <trkpt lat="39.287628" lon="-9.340499">
        <ele>31.515</ele>
        <time>2019-08-26T11:30:26Z</time>
      </trkpt>
      <trkpt lat="39.287454" lon="-9.340510">
        <ele>28.380</ele>
        <time>2019-08-26T11:31:44Z</time>
      </trkpt>
      <trkpt lat="39.287580" lon="-9.340750">
        <ele>28.546</ele>
        <time>2019-08-26T11:32:03Z</time>
      </trkpt>
      <trkpt lat="39.288505" lon="-9.340183">
        <ele>38.746</ele>
        <time>2019-08-26T11:33:14Z</time>
      </trkpt>
      <trkpt lat="39.287386" lon="-9.340537">
        <ele>26.321</ele>
        <time>2019-08-26T11:33:30Z</time>
      </trkpt>
      <trkpt lat="39.287222" lon="-9.340501">
        <ele>22.230</ele>
        <time>2019-08-26T11:33:44Z</time>
      </trkpt>
      <trkpt lat="39.287247" lon="-9.340314">
        <ele>23.679</ele>
        <time>2019-08-26T11:34:20Z</time>
      </trkpt>
      <trkpt lat="39.287441" lon="-9.340332">
        <ele>29.639</ele>
        <time>2019-08-26T11:34:59Z</time>
      </trkpt>
      <trkpt lat="39.287232" lon="-9.340349">
        <ele>23.001</ele>
        <time>2019-08-26T11:36:36Z</time>
      </trkpt>
      <trkpt lat="39.287220" lon="-9.340595">
        <ele>21.521</ele>
        <time>2019-08-26T11:37:12Z</time>
      </trkpt>
      <trkpt lat="39.287318" lon="-9.340469">
        <ele>24.908</ele>
        <time>2019-08-26T11:37:40Z</time>
      </trkpt>
      <trkpt lat="39.287576" lon="-9.340554">
        <ele>30.117</ele>
        <time>2019-08-26T11:38:09Z</time>
      </trkpt>
      <trkpt lat="39.287701" lon="-9.340209">
        <ele>35.413</ele>
        <time>2019-08-26T11:40:25Z</time>
      </trkpt>
      <trkpt lat="39.287676" lon="-9.340007">
        <ele>36.478</ele>
        <time>2019-08-26T11:40:40Z</time>
      </trkpt>
      <trkpt lat="39.287612" lon="-9.340088">
        <ele>34.464</ele>
        <time>2019-08-26T11:41:10Z</time>
      </trkpt>
      <trkpt lat="39.287788" lon="-9.338353">
        <ele>43.954</ele>
        <time>2019-08-26T11:42:37Z</time>
      </trkpt>
      <trkpt lat="39.285684" lon="-9.336144">
        <ele>42.389</ele>
        <time>2019-08-26T11:43:49Z</time>
      </trkpt>
      <trkpt lat="39.285008" lon="-9.334946">
        <ele>40.318</ele>
        <time>2019-08-26T11:44:03Z</time>
      </trkpt>
      <trkpt lat="39.284306" lon="-9.332839">
        <ele>35.937</ele>
        <time>2019-08-26T11:44:25Z</time>
      </trkpt>
      <trkpt lat="39.284031" lon="-9.332500">
        <ele>34.058</ele>
        <time>2019-08-26T11:44:30Z</time>
      </trkpt>
      <trkpt lat="39.283406" lon="-9.332647">
        <ele>39.052</ele>
        <time>2019-08-26T11:44:39Z</time>
      </trkpt>
      <trkpt lat="39.282918" lon="-9.334160">
        <ele>38.017</ele>
        <time>2019-08-26T11:45:09Z</time>
      </trkpt>
      <trkpt lat="39.282443" lon="-9.334640">
        <ele>42.008</ele>
        <time>2019-08-26T11:45:26Z</time>
      </trkpt>
      <trkpt lat="39.281858" lon="-9.334879">
        <ele>44.969</ele>
        <time>2019-08-26T11:45:49Z</time>
      </trkpt>
      <trkpt lat="39.280720" lon="-9.334718">
        <ele>59.965</ele>
        <time>2019-08-26T11:46:58Z</time>
      </trkpt>
      <trkpt lat="39.278945" lon="-9.335091">
        <ele>50.540</ele>
        <time>2019-08-26T11:47:50Z</time>
      </trkpt>
      <trkpt lat="39.278093" lon="-9.334992">
        <ele>48.156</ele>
        <time>2019-08-26T11:47:59Z</time>
      </trkpt>
      <trkpt lat="39.277275" lon="-9.334347">
        <ele>33.386</ele>
        <time>2019-08-26T11:48:07Z</time>
      </trkpt>
      <trkpt lat="39.276545" lon="-9.332725">
        <ele>31.881</ele>
        <time>2019-08-26T11:48:19Z</time>
      </trkpt>
      <trkpt lat="39.276070" lon="-9.332477">
        <ele>25.990</ele>
        <time>2019-08-26T11:48:24Z</time>
      </trkpt>
      <trkpt lat="39.275720" lon="-9.332667">
        <ele>26.159</ele>
        <time>2019-08-26T11:48:28Z</time>
      </trkpt>
      <trkpt lat="39.275320" lon="-9.333617">
        <ele>31.542</ele>
        <time>2019-08-26T11:48:53Z</time>
      </trkpt>
      <trkpt lat="39.274693" lon="-9.334197">
        <ele>34.222</ele>
        <time>2019-08-26T11:49:24Z</time>
      </trkpt>
      <trkpt lat="39.273924" lon="-9.334583">
        <ele>41.314</ele>
        <time>2019-08-26T11:50:03Z</time>
      </trkpt>
      <trkpt lat="39.272778" lon="-9.334722">
        <ele>50.008</ele>
        <time>2019-08-26T11:51:03Z</time>
      </trkpt>
      <trkpt lat="39.271226" lon="-9.334702">
        <ele>42.988</ele>
        <time>2019-08-26T11:51:42Z</time>
      </trkpt>
      <trkpt lat="39.268939" lon="-9.334166">
        <ele>26.474</ele>
        <time>2019-08-26T11:52:15Z</time>
      </trkpt>
      <trkpt lat="39.268183" lon="-9.333491">
        <ele>27.969</ele>
        <time>2019-08-26T11:52:43Z</time>
      </trkpt>
      <trkpt lat="39.267683" lon="-9.333740">
        <ele>26.445</ele>
        <time>2019-08-26T11:52:57Z</time>
      </trkpt>
      <trkpt lat="39.267330" lon="-9.333229">
        <ele>26.835</ele>
        <time>2019-08-26T11:53:12Z</time>
      </trkpt>
      <trkpt lat="39.266041" lon="-9.333691">
        <ele>23.250</ele>
        <time>2019-08-26T11:53:48Z</time>
      </trkpt>
      <trkpt lat="39.265986" lon="-9.333976">
        <ele>22.679</ele>
        <time>2019-08-26T11:54:06Z</time>
      </trkpt>
      <trkpt lat="39.266221" lon="-9.334502">
        <ele>23.418</ele>
        <time>2019-08-26T11:54:22Z</time>
      </trkpt>
      <trkpt lat="39.266207" lon="-9.334923">
        <ele>20.755</ele>
        <time>2019-08-26T11:55:14Z</time>
      </trkpt>
      <trkpt lat="39.264892" lon="-9.335550">
        <ele>12.707</ele>
        <time>2019-08-26T11:58:21Z</time>
      </trkpt>
      <trkpt lat="39.265086" lon="-9.334771">
        <ele>19.917</ele>
        <time>2019-08-26T11:59:25Z</time>
      </trkpt>
      <trkpt lat="39.265315" lon="-9.334737">
        <ele>22.308</ele>
        <time>2019-08-26T11:59:33Z</time>
      </trkpt>
      <trkpt lat="39.265546" lon="-9.335249">
        <ele>18.599</ele>
        <time>2019-08-26T11:59:45Z</time>
      </trkpt>
      <trkpt lat="39.265771" lon="-9.335073">
        <ele>20.285</ele>
        <time>2019-08-26T11:59:51Z</time>
      </trkpt>
      <trkpt lat="39.265719" lon="-9.334618">
        <ele>23.380</ele>
        <time>2019-08-26T12:00:02Z</time>
      </trkpt>
      <trkpt lat="39.264212" lon="-9.333972">
        <ele>7.346</ele>
        <time>2019-08-26T12:00:36Z</time>
      </trkpt>
      <trkpt lat="39.263828" lon="-9.334050">
        <ele>4.316</ele>
        <time>2019-08-26T12:01:22Z</time>
      </trkpt>
      <trkpt lat="39.263715" lon="-9.333214">
        <ele>7.181</ele>
        <time>2019-08-26T12:01:55Z</time>
      </trkpt>
      <trkpt lat="39.264069" lon="-9.331348">
        <ele>8.910</ele>
        <time>2019-08-26T12:02:33Z</time>
      </trkpt>
      <trkpt lat="39.264933" lon="-9.330674">
        <ele>16.139</ele>
        <time>2019-08-26T12:03:09Z</time>
      </trkpt>
      <trkpt lat="39.264664" lon="-9.328344">
        <ele>11.035</ele>
        <time>2019-08-26T12:03:46Z</time>
      </trkpt>
      <trkpt lat="39.264295" lon="-9.327631">
        <ele>5.586</ele>
        <time>2019-08-26T12:03:56Z</time>
      </trkpt>
      <trkpt lat="39.262726" lon="-9.325994">
        <ele>6.414</ele>
        <time>2019-08-26T12:04:32Z</time>
      </trkpt>
      <trkpt lat="39.262288" lon="-9.325723">
        <ele>6.908</ele>
        <time>2019-08-26T12:04:42Z</time>
      </trkpt>
      <trkpt lat="39.261327" lon="-9.326629">
        <ele>6.617</ele>
        <time>2019-08-26T12:05:04Z</time>
      </trkpt>
      <trkpt lat="39.260851" lon="-9.326892">
        <ele>7.343</ele>
        <time>2019-08-26T12:05:13Z</time>
      </trkpt>
      <trkpt lat="39.258190" lon="-9.325983">
        <ele>3.918</ele>
        <time>2019-08-26T12:06:00Z</time>
      </trkpt>
      <trkpt lat="39.257315" lon="-9.326135">
        <ele>5.074</ele>
        <time>2019-08-26T12:06:17Z</time>
      </trkpt>
      <trkpt lat="39.256377" lon="-9.326996">
        <ele>6.054</ele>
        <time>2019-08-26T12:07:10Z</time>
      </trkpt>
      <trkpt lat="39.255631" lon="-9.326578">
        <ele>7.819</ele>
        <time>2019-08-26T12:07:31Z</time>
      </trkpt>
      <trkpt lat="39.254644" lon="-9.326689">
        <ele>17.768</ele>
        <time>2019-08-26T12:08:15Z</time>
      </trkpt>
      <trkpt lat="39.254227" lon="-9.327131">
        <ele>23.957</ele>
        <time>2019-08-26T12:08:51Z</time>
      </trkpt>
      <trkpt lat="39.253948" lon="-9.327991">
        <ele>34.377</ele>
        <time>2019-08-26T12:09:35Z</time>
      </trkpt>
      <trkpt lat="39.254362" lon="-9.329189">
        <ele>39.661</ele>
        <time>2019-08-26T12:10:34Z</time>
      </trkpt>
      <trkpt lat="39.253428" lon="-9.329316">
        <ele>50.727</ele>
        <time>2019-08-26T12:11:34Z</time>
      </trkpt>
      <trkpt lat="39.253012" lon="-9.329822">
        <ele>54.608</ele>
        <time>2019-08-26T12:12:03Z</time>
      </trkpt>
      <trkpt lat="39.252404" lon="-9.331084">
        <ele>66.261</ele>
        <time>2019-08-26T12:13:18Z</time>
      </trkpt>
      <trkpt lat="39.251797" lon="-9.331698">
        <ele>74.667</ele>
        <time>2019-08-26T12:14:08Z</time>
      </trkpt>
      <trkpt lat="39.251646" lon="-9.332325">
        <ele>74.482</ele>
        <time>2019-08-26T12:14:40Z</time>
      </trkpt>
      <trkpt lat="39.250705" lon="-9.333175">
        <ele>80.328</ele>
        <time>2019-08-26T12:15:34Z</time>
      </trkpt>
      <trkpt lat="39.250655" lon="-9.333022">
        <ele>79.428</ele>
        <time>2019-08-26T12:17:12Z</time>
      </trkpt>
      <trkpt lat="39.250129" lon="-9.333634">
        <ele>84.573</ele>
        <time>2019-08-26T12:17:54Z</time>
      </trkpt>
      <trkpt lat="39.249387" lon="-9.333823">
        <ele>85.262</ele>
        <time>2019-08-26T12:18:20Z</time>
      </trkpt>
      <trkpt lat="39.248429" lon="-9.333403">
        <ele>83.961</ele>
        <time>2019-08-26T12:18:43Z</time>
      </trkpt>
      <trkpt lat="39.245634" lon="-9.331003">
        <ele>97.071</ele>
        <time>2019-08-26T12:20:21Z</time>
      </trkpt>
      <trkpt lat="39.244780" lon="-9.329963">
        <ele>93.241</ele>
        <time>2019-08-26T12:20:45Z</time>
      </trkpt>
      <trkpt lat="39.244601" lon="-9.329970">
        <ele>93.315</ele>
        <time>2019-08-26T12:20:48Z</time>
      </trkpt>
      <trkpt lat="39.243761" lon="-9.330673">
        <ele>94.008</ele>
        <time>2019-08-26T12:21:09Z</time>
      </trkpt>
      <trkpt lat="39.242902" lon="-9.330718">
        <ele>94.781</ele>
        <time>2019-08-26T12:21:33Z</time>
      </trkpt>
      <trkpt lat="39.240016" lon="-9.331503">
        <ele>104.857</ele>
        <time>2019-08-26T12:23:18Z</time>
      </trkpt>
      <trkpt lat="39.238228" lon="-9.331570">
        <ele>104.812</ele>
        <time>2019-08-26T12:24:09Z</time>
      </trkpt>
      <trkpt lat="39.236841" lon="-9.331974">
        <ele>105.288</ele>
        <time>2019-08-26T12:24:44Z</time>
      </trkpt>
      <trkpt lat="39.235960" lon="-9.331837">
        <ele>105.278</ele>
        <time>2019-08-26T12:25:11Z</time>
      </trkpt>
      <trkpt lat="39.234653" lon="-9.331199">
        <ele>105.693</ele>
        <time>2019-08-26T12:48:02Z</time>
      </trkpt>
      <trkpt lat="39.234360" lon="-9.330343">
        <ele>98.822</ele>
        <time>2019-08-26T12:48:17Z</time>
      </trkpt>
      <trkpt lat="39.233919" lon="-9.329952">
        <ele>97.811</ele>
        <time>2019-08-26T12:48:27Z</time>
      </trkpt>
      <trkpt lat="39.232705" lon="-9.329688">
        <ele>101.071</ele>
        <time>2019-08-26T12:48:55Z</time>
      </trkpt>
      <trkpt lat="39.231127" lon="-9.328666">
        <ele>103.141</ele>
        <time>2019-08-26T12:49:36Z</time>
      </trkpt>
      <trkpt lat="39.230572" lon="-9.328097">
        <ele>102.015</ele>
        <time>2019-08-26T12:49:50Z</time>
      </trkpt>
      <trkpt lat="39.229434" lon="-9.327497">
        <ele>97.908</ele>
        <time>2019-08-26T12:50:13Z</time>
      </trkpt>
      <trkpt lat="39.228994" lon="-9.326781">
        <ele>99.111</ele>
        <time>2019-08-26T12:50:26Z</time>
      </trkpt>
      <trkpt lat="39.227827" lon="-9.325802">
        <ele>106.997</ele>
        <time>2019-08-26T12:51:02Z</time>
      </trkpt>
      <trkpt lat="39.226589" lon="-9.325341">
        <ele>109.972</ele>
        <time>2019-08-26T12:51:51Z</time>
      </trkpt>
      <trkpt lat="39.225042" lon="-9.324448">
        <ele>108.228</ele>
        <time>2019-08-26T12:52:28Z</time>
      </trkpt>
      <trkpt lat="39.224496" lon="-9.324747">
        <ele>109.758</ele>
        <time>2019-08-26T12:52:42Z</time>
      </trkpt>
      <trkpt lat="39.222699" lon="-9.325181">
        <ele>111.583</ele>
        <time>2019-08-26T12:53:27Z</time>
      </trkpt>
      <trkpt lat="39.221457" lon="-9.325139">
        <ele>109.512</ele>
        <time>2019-08-26T12:53:50Z</time>
      </trkpt>
      <trkpt lat="39.220939" lon="-9.325901">
        <ele>107.031</ele>
        <time>2019-08-26T12:54:07Z</time>
      </trkpt>
      <trkpt lat="39.219980" lon="-9.326475">
        <ele>107.235</ele>
        <time>2019-08-26T12:54:27Z</time>
      </trkpt>
      <trkpt lat="39.219354" lon="-9.328070">
        <ele>104.286</ele>
        <time>2019-08-26T12:54:54Z</time>
      </trkpt>
      <trkpt lat="39.219421" lon="-9.329231">
        <ele>105.314</ele>
        <time>2019-08-26T12:55:14Z</time>
      </trkpt>
      <trkpt lat="39.219173" lon="-9.329747">
        <ele>106.808</ele>
        <time>2019-08-26T12:57:09Z</time>
      </trkpt>
      <trkpt lat="39.219769" lon="-9.331390">
        <ele>100.577</ele>
        <time>2019-08-26T12:57:33Z</time>
      </trkpt>
      <trkpt lat="39.220196" lon="-9.333621">
        <ele>101.733</ele>
        <time>2019-08-26T12:58:03Z</time>
      </trkpt>
      <trkpt lat="39.220408" lon="-9.335270">
        <ele>102.068</ele>
        <time>2019-08-26T12:58:23Z</time>
      </trkpt>
      <trkpt lat="39.220419" lon="-9.337241">
        <ele>91.574</ele>
        <time>2019-08-26T12:58:45Z</time>
      </trkpt>
      <trkpt lat="39.218402" lon="-9.338841">
        <ele>72.814</ele>
        <time>2019-08-26T13:01:36Z</time>
      </trkpt>
      <trkpt lat="39.216835" lon="-9.339778">
        <ele>66.449</ele>
        <time>2019-08-26T13:02:25Z</time>
      </trkpt>
      <trkpt lat="39.215993" lon="-9.340557">
        <ele>62.728</ele>
        <time>2019-08-26T13:02:39Z</time>
      </trkpt>
      <trkpt lat="39.215616" lon="-9.341218">
        <ele>56.327</ele>
        <time>2019-08-26T13:02:47Z</time>
      </trkpt>
      <trkpt lat="39.215514" lon="-9.342033">
        <ele>51.058</ele>
        <time>2019-08-26T13:02:56Z</time>
      </trkpt>
      <trkpt lat="39.215145" lon="-9.343182">
        <ele>31.052</ele>
        <time>2019-08-26T13:06:09Z</time>
      </trkpt>
      <trkpt lat="39.215069" lon="-9.342917">
        <ele>35.917</ele>
        <time>2019-08-26T13:08:26Z</time>
      </trkpt>
      <trkpt lat="39.215387" lon="-9.342492">
        <ele>46.008</ele>
        <time>2019-08-26T13:08:44Z</time>
      </trkpt>
      <trkpt lat="39.215349" lon="-9.342321">
        <ele>46.459</ele>
        <time>2019-08-26T13:08:51Z</time>
      </trkpt>
      <trkpt lat="39.214235" lon="-9.343271">
        <ele>23.245</ele>
        <time>2019-08-26T13:09:10Z</time>
      </trkpt>
      <trkpt lat="39.213771" lon="-9.343963">
        <ele>11.750</ele>
        <time>2019-08-26T13:09:22Z</time>
      </trkpt>
      <trkpt lat="39.213015" lon="-9.344620">
        <ele>16.736</ele>
        <time>2019-08-26T13:09:47Z</time>
      </trkpt>
      <trkpt lat="39.212688" lon="-9.344033">
        <ele>19.686</ele>
        <time>2019-08-26T13:11:11Z</time>
      </trkpt>
      <trkpt lat="39.212350" lon="-9.342249">
        <ele>25.111</ele>
        <time>2019-08-26T13:12:18Z</time>
      </trkpt>
      <trkpt lat="39.212475" lon="-9.341170">
        <ele>24.260</ele>
        <time>2019-08-26T13:12:45Z</time>
      </trkpt>
      <trkpt lat="39.212194" lon="-9.340101">
        <ele>26.279</ele>
        <time>2019-08-26T13:13:09Z</time>
      </trkpt>
      <trkpt lat="39.212461" lon="-9.339166">
        <ele>27.763</ele>
        <time>2019-08-26T13:13:37Z</time>
      </trkpt>
      <trkpt lat="39.212472" lon="-9.338390">
        <ele>39.044</ele>
        <time>2019-08-26T13:14:42Z</time>
      </trkpt>
      <trkpt lat="39.211463" lon="-9.336502">
        <ele>59.818</ele>
        <time>2019-08-26T13:17:16Z</time>
      </trkpt>
      <trkpt lat="39.211395" lon="-9.335007">
        <ele>80.908</ele>
        <time>2019-08-26T13:19:22Z</time>
      </trkpt>
      <trkpt lat="39.210552" lon="-9.333152">
        <ele>93.660</ele>
        <time>2019-08-26T13:21:03Z</time>
      </trkpt>
      <trkpt lat="39.210403" lon="-9.331796">
        <ele>104.316</ele>
        <time>2019-08-26T13:22:06Z</time>
      </trkpt>
      <trkpt lat="39.209834" lon="-9.330282">
        <ele>111.811</ele>
        <time>2019-08-26T13:23:18Z</time>
      </trkpt>
      <trkpt lat="39.209986" lon="-9.329045">
        <ele>115.067</ele>
        <time>2019-08-26T13:23:58Z</time>
      </trkpt>
      <trkpt lat="39.210560" lon="-9.327897">
        <ele>115.647</ele>
        <time>2019-08-26T13:24:17Z</time>
      </trkpt>
      <trkpt lat="39.211076" lon="-9.327221">
        <ele>118.952</ele>
        <time>2019-08-26T13:24:39Z</time>
      </trkpt>
      <trkpt lat="39.211042" lon="-9.326404">
        <ele>120.581</ele>
        <time>2019-08-26T13:24:58Z</time>
      </trkpt>
      <trkpt lat="39.210757" lon="-9.325677">
        <ele>118.310</ele>
        <time>2019-08-26T13:25:12Z</time>
      </trkpt>
      <trkpt lat="39.209093" lon="-9.323172">
        <ele>121.095</ele>
        <time>2019-08-26T13:26:08Z</time>
      </trkpt>
      <trkpt lat="39.209299" lon="-9.321159">
        <ele>126.649</ele>
        <time>2019-08-26T13:26:56Z</time>
      </trkpt>
      <trkpt lat="39.208025" lon="-9.322283">
        <ele>122.923</ele>
        <time>2019-08-26T13:27:24Z</time>
      </trkpt>
      <trkpt lat="39.207704" lon="-9.322516">
        <ele>120.508</ele>
        <time>2019-08-26T13:27:31Z</time>
      </trkpt>
      <trkpt lat="39.207629" lon="-9.322433">
        <ele>119.713</ele>
        <time>2019-08-26T13:27:35Z</time>
      </trkpt>
      <trkpt lat="39.208059" lon="-9.320956">
        <ele>117.529</ele>
        <time>2019-08-26T13:27:55Z</time>
      </trkpt>
      <trkpt lat="39.207909" lon="-9.320359">
        <ele>113.734</ele>
        <time>2019-08-26T13:28:01Z</time>
      </trkpt>
      <trkpt lat="39.207517" lon="-9.319968">
        <ele>108.840</ele>
        <time>2019-08-26T13:28:10Z</time>
      </trkpt>
      <trkpt lat="39.208083" lon="-9.319393">
        <ele>107.090</ele>
        <time>2019-08-26T13:28:23Z</time>
      </trkpt>
      <trkpt lat="39.208605" lon="-9.318511">
        <ele>108.255</ele>
        <time>2019-08-26T13:28:39Z</time>
      </trkpt>
      <trkpt lat="39.209059" lon="-9.318233">
        <ele>109.694</ele>
        <time>2019-08-26T13:28:48Z</time>
      </trkpt>
      <trkpt lat="39.209147" lon="-9.317984">
        <ele>109.243</ele>
        <time>2019-08-26T13:28:51Z</time>
      </trkpt>
      <trkpt lat="39.208930" lon="-9.316932">
        <ele>110.346</ele>
        <time>2019-08-26T13:29:06Z</time>
      </trkpt>
      <trkpt lat="39.208238" lon="-9.315781">
        <ele>120.788</ele>
        <time>2019-08-26T13:29:59Z</time>
      </trkpt>
      <trkpt lat="39.208528" lon="-9.315489">
        <ele>124.216</ele>
        <time>2019-08-26T13:30:27Z</time>
      </trkpt>
      <trkpt lat="39.208292" lon="-9.315475">
        <ele>123.208</ele>
        <time>2019-08-26T13:30:52Z</time>
      </trkpt>
      <trkpt lat="39.208132" lon="-9.314896">
        <ele>119.918</ele>
        <time>2019-08-26T13:31:07Z</time>
      </trkpt>
      <trkpt lat="39.208478" lon="-9.314099">
        <ele>120.544</ele>
        <time>2019-08-26T13:31:25Z</time>
      </trkpt>
      <trkpt lat="39.208792" lon="-9.312619">
        <ele>126.889</ele>
        <time>2019-08-26T13:32:08Z</time>
      </trkpt>
      <trkpt lat="39.207496" lon="-9.310468">
        <ele>139.365</ele>
        <time>2019-08-26T13:33:46Z</time>
      </trkpt>
      <trkpt lat="39.206779" lon="-9.307964">
        <ele>140.795</ele>
        <time>2019-08-26T13:36:55Z</time>
      </trkpt>
      <trkpt lat="39.205586" lon="-9.307322">
        <ele>148.450</ele>
        <time>2019-08-26T13:37:30Z</time>
      </trkpt>
      <trkpt lat="39.203203" lon="-9.306793">
        <ele>153.179</ele>
        <time>2019-08-26T13:38:40Z</time>
      </trkpt>
      <trkpt lat="39.202038" lon="-9.307113">
        <ele>152.448</ele>
        <time>2019-08-26T13:39:03Z</time>
      </trkpt>
      <trkpt lat="39.201187" lon="-9.307830">
        <ele>149.086</ele>
        <time>2019-08-26T13:39:24Z</time>
      </trkpt>
      <trkpt lat="39.200327" lon="-9.308211">
        <ele>148.260</ele>
        <time>2019-08-26T13:39:47Z</time>
      </trkpt>
      <trkpt lat="39.199261" lon="-9.309114">
        <ele>144.626</ele>
        <time>2019-08-26T13:43:22Z</time>
      </trkpt>
      <trkpt lat="39.198092" lon="-9.309206">
        <ele>139.208</ele>
        <time>2019-08-26T13:43:39Z</time>
      </trkpt>
      <trkpt lat="39.197517" lon="-9.309463">
        <ele>136.932</ele>
        <time>2019-08-26T13:43:51Z</time>
      </trkpt>
      <trkpt lat="39.197372" lon="-9.309182">
        <ele>135.218</ele>
        <time>2019-08-26T13:45:31Z</time>
      </trkpt>
      <trkpt lat="39.197152" lon="-9.309573">
        <ele>135.363</ele>
        <time>2019-08-26T13:47:15Z</time>
      </trkpt>
      <trkpt lat="39.195523" lon="-9.310989">
        <ele>133.989</ele>
        <time>2019-08-26T13:47:58Z</time>
      </trkpt>
      <trkpt lat="39.194349" lon="-9.311330">
        <ele>132.159</ele>
        <time>2019-08-26T13:48:22Z</time>
      </trkpt>
      <trkpt lat="39.192035" lon="-9.312588">
        <ele>123.684</ele>
        <time>2019-08-26T13:49:01Z</time>
      </trkpt>
      <trkpt lat="39.191488" lon="-9.312608">
        <ele>117.513</ele>
        <time>2019-08-26T13:49:09Z</time>
      </trkpt>
      <trkpt lat="39.190291" lon="-9.313849">
        <ele>101.172</ele>
        <time>2019-08-26T13:49:23Z</time>
      </trkpt>
      <trkpt lat="39.189529" lon="-9.314402">
        <ele>88.322</ele>
        <time>2019-08-26T13:49:30Z</time>
      </trkpt>
      <trkpt lat="39.189069" lon="-9.314477">
        <ele>80.262</ele>
        <time>2019-08-26T13:49:34Z</time>
      </trkpt>
      <trkpt lat="39.187624" lon="-9.314196">
        <ele>60.408</ele>
        <time>2019-08-26T13:49:45Z</time>
      </trkpt>
      <trkpt lat="39.186445" lon="-9.314988">
        <ele>52.508</ele>
        <time>2019-08-26T13:49:58Z</time>
      </trkpt>
      <trkpt lat="39.184082" lon="-9.315641">
        <ele>32.636</ele>
        <time>2019-08-26T13:50:19Z</time>
      </trkpt>
      <trkpt lat="39.182402" lon="-9.315366">
        <ele>17.632</ele>
        <time>2019-08-26T13:50:35Z</time>
      </trkpt>
      <trkpt lat="39.181595" lon="-9.315490">
        <ele>14.287</ele>
        <time>2019-08-26T13:50:45Z</time>
      </trkpt>
      <trkpt lat="39.180934" lon="-9.315976">
        <ele>12.723</ele>
        <time>2019-08-26T13:50:56Z</time>
      </trkpt>
      <trkpt lat="39.180678" lon="-9.315764">
        <ele>13.733</ele>
        <time>2019-08-26T13:51:04Z</time>
      </trkpt>
      <trkpt lat="39.180481" lon="-9.315810">
        <ele>13.798</ele>
        <time>2019-08-26T13:51:14Z</time>
      </trkpt>
      <trkpt lat="39.179673" lon="-9.316477">
        <ele>14.187</ele>
        <time>2019-08-26T13:51:38Z</time>
      </trkpt>
      <trkpt lat="39.179417" lon="-9.317233">
        <ele>13.496</ele>
        <time>2019-08-26T13:51:54Z</time>
      </trkpt>
      <trkpt lat="39.178748" lon="-9.317718">
        <ele>18.427</ele>
        <time>2019-08-26T13:53:00Z</time>
      </trkpt>
      <trkpt lat="39.178598" lon="-9.318619">
        <ele>13.068</ele>
        <time>2019-08-26T13:53:25Z</time>
      </trkpt>
      <trkpt lat="39.178220" lon="-9.319013">
        <ele>12.414</ele>
        <time>2019-08-26T13:53:39Z</time>
      </trkpt>
      <trkpt lat="39.177795" lon="-9.319869">
        <ele>10.908</ele>
        <time>2019-08-26T13:55:29Z</time>
      </trkpt>
      <trkpt lat="39.177019" lon="-9.320654">
        <ele>13.146</ele>
        <time>2019-08-26T13:55:51Z</time>
      </trkpt>
      <trkpt lat="39.176831" lon="-9.321110">
        <ele>12.082</ele>
        <time>2019-08-26T13:56:22Z</time>
      </trkpt>
      <trkpt lat="39.177168" lon="-9.322633">
        <ele>11.417</ele>
        <time>2019-08-26T13:57:03Z</time>
      </trkpt>
      <trkpt lat="39.179317" lon="-9.322582">
        <ele>17.173</ele>
        <time>2019-08-26T13:58:01Z</time>
      </trkpt>
      <trkpt lat="39.180168" lon="-9.323063">
        <ele>21.843</ele>
        <time>2019-08-26T13:58:22Z</time>
      </trkpt>
      <trkpt lat="39.182193" lon="-9.323575">
        <ele>17.078</ele>
        <time>2019-08-26T13:58:54Z</time>
      </trkpt>
      <trkpt lat="39.182585" lon="-9.324178">
        <ele>15.917</ele>
        <time>2019-08-26T13:59:06Z</time>
      </trkpt>
      <trkpt lat="39.182511" lon="-9.325418">
        <ele>12.986</ele>
        <time>2019-08-26T13:59:27Z</time>
      </trkpt>
      <trkpt lat="39.182678" lon="-9.325821">
        <ele>14.624</ele>
        <time>2019-08-26T13:59:50Z</time>
      </trkpt>
      <trkpt lat="39.182485" lon="-9.325482">
        <ele>13.104</ele>
        <time>2019-08-26T14:00:10Z</time>
      </trkpt>
      <trkpt lat="39.181264" lon="-9.325411">
        <ele>20.614</ele>
        <time>2019-08-26T14:00:52Z</time>
      </trkpt>
      <trkpt lat="39.179936" lon="-9.326443">
        <ele>28.708</ele>
        <time>2019-08-26T14:01:57Z</time>
      </trkpt>
      <trkpt lat="39.179109" lon="-9.327380">
        <ele>28.966</ele>
        <time>2019-08-26T14:03:43Z</time>
      </trkpt>
      <trkpt lat="39.178940" lon="-9.328326">
        <ele>26.172</ele>
        <time>2019-08-26T14:03:59Z</time>
      </trkpt>
      <trkpt lat="39.179414" lon="-9.329613">
        <ele>10.027</ele>
        <time>2019-08-26T14:04:27Z</time>
      </trkpt>
      <trkpt lat="39.179074" lon="-9.330938">
        <ele>11.983</ele>
        <time>2019-08-26T14:04:58Z</time>
      </trkpt>
      <trkpt lat="39.178136" lon="-9.332622">
        <ele>11.743</ele>
        <time>2019-08-26T14:05:35Z</time>
      </trkpt>
      <trkpt lat="39.177246" lon="-9.333550">
        <ele>14.648</ele>
        <time>2019-08-26T14:05:57Z</time>
      </trkpt>
      <trkpt lat="39.175681" lon="-9.335862">
        <ele>10.317</ele>
        <time>2019-08-26T14:06:39Z</time>
      </trkpt>
      <trkpt lat="39.174980" lon="-9.336610">
        <ele>7.786</ele>
        <time>2019-08-26T14:07:12Z</time>
      </trkpt>
      <trkpt lat="39.174655" lon="-9.337192">
        <ele>9.017</ele>
        <time>2019-08-26T14:07:26Z</time>
      </trkpt>
      <trkpt lat="39.174587" lon="-9.337613">
        <ele>7.387</ele>
        <time>2019-08-26T14:07:38Z</time>
      </trkpt>
      <trkpt lat="39.174366" lon="-9.337856">
        <ele>7.915</ele>
        <time>2019-08-26T14:07:49Z</time>
      </trkpt>
      <trkpt lat="39.174462" lon="-9.338348">
        <ele>7.108</ele>
        <time>2019-08-26T14:08:09Z</time>
      </trkpt>
      <trkpt lat="39.175568" lon="-9.340327">
        <ele>7.485</ele>
        <time>2019-08-26T14:08:50Z</time>
      </trkpt>
      <trkpt lat="39.177304" lon="-9.341681">
        <ele>8.621</ele>
        <time>2019-08-26T14:09:32Z</time>
      </trkpt>
      <trkpt lat="39.177582" lon="-9.342066">
        <ele>11.156</ele>
        <time>2019-08-26T14:09:40Z</time>
      </trkpt>
      <trkpt lat="39.177567" lon="-9.342912">
        <ele>11.462</ele>
        <time>2019-08-26T14:10:50Z</time>
      </trkpt>
      <trkpt lat="39.177122" lon="-9.343823">
        <ele>9.572</ele>
        <time>2019-08-26T14:11:10Z</time>
      </trkpt>
      <trkpt lat="39.177347" lon="-9.345249">
        <ele>21.037</ele>
        <time>2019-08-26T14:11:33Z</time>
      </trkpt>
      <trkpt lat="39.176970" lon="-9.346229">
        <ele>12.116</ele>
        <time>2019-08-26T14:12:12Z</time>
      </trkpt>
      <trkpt lat="39.177232" lon="-9.347529">
        <ele>17.445</ele>
        <time>2019-08-26T14:13:22Z</time>
      </trkpt>
      <trkpt lat="39.177291" lon="-9.349338">
        <ele>3.813</ele>
        <time>2019-08-26T14:13:55Z</time>
      </trkpt>
      <trkpt lat="39.177678" lon="-9.351520">
        <ele>4.743</ele>
        <time>2019-08-26T14:14:37Z</time>
      </trkpt>
      <trkpt lat="39.178466" lon="-9.353692">
        <ele>5.607</ele>
        <time>2019-08-26T14:15:19Z</time>
      </trkpt>
      <trkpt lat="39.178311" lon="-9.354253">
        <ele>9.908</ele>
        <time>2019-08-26T14:15:31Z</time>
      </trkpt>
      <trkpt lat="39.178025" lon="-9.354469">
        <ele>7.935</ele>
        <time>2019-08-26T14:15:48Z</time>
      </trkpt>
      <trkpt lat="39.176657" lon="-9.354756">
        <ele>7.071</ele>
        <time>2019-08-26T14:17:00Z</time>
      </trkpt>
      <trkpt lat="39.174703" lon="-9.355885">
        <ele>8.096</ele>
        <time>2019-08-26T14:17:43Z</time>
      </trkpt>
      <trkpt lat="39.174548" lon="-9.356160">
        <ele>11.072</ele>
        <time>2019-08-26T14:17:56Z</time>
      </trkpt>
      <trkpt lat="39.174016" lon="-9.355935">
        <ele>9.482</ele>
        <time>2019-08-26T14:18:13Z</time>
      </trkpt>
      <trkpt lat="39.172981" lon="-9.356155">
        <ele>6.017</ele>
        <time>2019-08-26T14:18:37Z</time>
      </trkpt>
      <trkpt lat="39.169273" lon="-9.357473">
        <ele>6.036</ele>
        <time>2019-08-26T14:19:51Z</time>
      </trkpt>
      <trkpt lat="39.159940" lon="-9.361646">
        <ele>40.895</ele>
        <time>2019-08-26T14:25:28Z</time>
      </trkpt>
      <trkpt lat="39.159224" lon="-9.361712">
        <ele>40.038</ele>
        <time>2019-08-26T14:25:43Z</time>
      </trkpt>
      <trkpt lat="39.154031" lon="-9.360830">
        <ele>54.470</ele>
        <time>2019-08-26T14:27:45Z</time>
      </trkpt>
      <trkpt lat="39.152827" lon="-9.360959">
        <ele>58.117</ele>
        <time>2019-08-26T14:28:23Z</time>
      </trkpt>
      <trkpt lat="39.151944" lon="-9.361237">
        <ele>60.008</ele>
        <time>2019-08-26T14:28:48Z</time>
      </trkpt>
      <trkpt lat="39.147589" lon="-9.364152">
        <ele>58.797</ele>
        <time>2019-08-26T14:30:35Z</time>
      </trkpt>
      <trkpt lat="39.146824" lon="-9.364317">
        <ele>59.943</ele>
        <time>2019-08-26T14:30:55Z</time>
      </trkpt>
      <trkpt lat="39.145659" lon="-9.363987">
        <ele>64.128</ele>
        <time>2019-08-26T14:31:30Z</time>
      </trkpt>
      <trkpt lat="39.144363" lon="-9.364705">
        <ele>65.494</ele>
        <time>2019-08-26T14:32:04Z</time>
      </trkpt>
      <trkpt lat="39.144233" lon="-9.364900">
        <ele>64.344</ele>
        <time>2019-08-26T14:32:17Z</time>
      </trkpt>
      <trkpt lat="39.144106" lon="-9.366336">
        <ele>59.129</ele>
        <time>2019-08-26T14:32:45Z</time>
      </trkpt>
      <trkpt lat="39.143307" lon="-9.368988">
        <ele>51.498</ele>
        <time>2019-08-26T14:33:17Z</time>
      </trkpt>
      <trkpt lat="39.143490" lon="-9.370080">
        <ele>48.117</ele>
        <time>2019-08-26T14:33:30Z</time>
      </trkpt>
      <trkpt lat="39.144012" lon="-9.370871">
        <ele>44.674</ele>
        <time>2019-08-26T14:33:45Z</time>
      </trkpt>
      <trkpt lat="39.143836" lon="-9.371018">
        <ele>45.156</ele>
        <time>2019-08-26T14:34:26Z</time>
      </trkpt>
      <trkpt lat="39.143421" lon="-9.370947">
        <ele>46.321</ele>
        <time>2019-08-26T14:34:37Z</time>
      </trkpt>
      <trkpt lat="39.142608" lon="-9.371216">
        <ele>51.408</ele>
        <time>2019-08-26T14:35:34Z</time>
      </trkpt>
      <trkpt lat="39.143245" lon="-9.371072">
        <ele>46.241</ele>
        <time>2019-08-26T14:36:02Z</time>
      </trkpt>
      <trkpt lat="39.143613" lon="-9.371175">
        <ele>45.037</ele>
        <time>2019-08-26T14:36:10Z</time>
      </trkpt>
      <trkpt lat="39.143851" lon="-9.371026">
        <ele>45.082</ele>
        <time>2019-08-26T14:36:16Z</time>
      </trkpt>
      <trkpt lat="39.144182" lon="-9.371364">
        <ele>44.938</ele>
        <time>2019-08-26T14:36:24Z</time>
      </trkpt>
      <trkpt lat="39.144336" lon="-9.372299">
        <ele>37.118</ele>
        <time>2019-08-26T14:36:37Z</time>
      </trkpt>
      <trkpt lat="39.144171" lon="-9.373061">
        <ele>36.943</ele>
        <time>2019-08-26T14:36:47Z</time>
      </trkpt>
      <trkpt lat="39.143838" lon="-9.373722">
        <ele>34.522</ele>
        <time>2019-08-26T14:36:59Z</time>
      </trkpt>
      <trkpt lat="39.140834" lon="-9.376867">
        <ele>27.791</ele>
        <time>2019-08-26T14:38:11Z</time>
      </trkpt>
      <trkpt lat="39.139417" lon="-9.377796">
        <ele>29.792</ele>
        <time>2019-08-26T14:38:45Z</time>
      </trkpt>
      <trkpt lat="39.139021" lon="-9.378389">
        <ele>25.273</ele>
        <time>2019-08-26T14:39:08Z</time>
      </trkpt>
      <trkpt lat="39.138482" lon="-9.378871">
        <ele>25.120</ele>
        <time>2019-08-26T14:41:26Z</time>
      </trkpt>
      <trkpt lat="39.137678" lon="-9.379281">
        <ele>22.208</ele>
        <time>2019-08-26T14:41:48Z</time>
      </trkpt>
      <trkpt lat="39.136840" lon="-9.378915">
        <ele>24.433</ele>
        <time>2019-08-26T14:42:20Z</time>
      </trkpt>
      <trkpt lat="39.136418" lon="-9.379026">
        <ele>21.539</ele>
        <time>2019-08-26T14:42:32Z</time>
      </trkpt>
      <trkpt lat="39.136135" lon="-9.379452">
        <ele>23.734</ele>
        <time>2019-08-26T14:42:42Z</time>
      </trkpt>
      <trkpt lat="39.135934" lon="-9.381123">
        <ele>25.960</ele>
        <time>2019-08-26T14:43:20Z</time>
      </trkpt>
      <trkpt lat="39.135695" lon="-9.381312">
        <ele>27.040</ele>
        <time>2019-08-26T14:43:28Z</time>
      </trkpt>
      <trkpt lat="39.135047" lon="-9.381455">
        <ele>26.945</ele>
        <time>2019-08-26T14:43:49Z</time>
      </trkpt>
      <trkpt lat="39.134782" lon="-9.380905">
        <ele>28.754</ele>
        <time>2019-08-26T14:44:02Z</time>
      </trkpt>
      <trkpt lat="39.133123" lon="-9.374375">
        <ele>41.223</ele>
        <time>2019-08-26T14:46:27Z</time>
      </trkpt>
      <trkpt lat="39.133239" lon="-9.374261">
        <ele>42.943</ele>
        <time>2019-08-26T14:46:31Z</time>
      </trkpt>
      <trkpt lat="39.133348" lon="-9.374354">
        <ele>42.764</ele>
        <time>2019-08-26T14:46:34Z</time>
      </trkpt>
      <trkpt lat="39.133446" lon="-9.374845">
        <ele>40.510</ele>
        <time>2019-08-26T14:46:43Z</time>
      </trkpt>
      <trkpt lat="39.135392" lon="-9.373877">
        <ele>48.008</ele>
        <time>2019-08-26T14:50:55Z</time>
      </trkpt>
      <trkpt lat="39.136511" lon="-9.373706">
        <ele>49.968</ele>
        <time>2019-08-26T14:51:37Z</time>
      </trkpt>
      <trkpt lat="39.136475" lon="-9.374972">
        <ele>45.824</ele>
        <time>2019-08-26T14:52:29Z</time>
      </trkpt>
      <trkpt lat="39.136148" lon="-9.374835">
        <ele>47.879</ele>
        <time>2019-08-26T14:53:57Z</time>
      </trkpt>
      <trkpt lat="39.136231" lon="-9.374894">
        <ele>47.315</ele>
        <time>2019-08-26T14:55:13Z</time>
      </trkpt>
      <trkpt lat="39.136108" lon="-9.375028">
        <ele>48.055</ele>
        <time>2019-08-26T14:55:28Z</time>
      </trkpt>
      <trkpt lat="39.136080" lon="-9.374757">
        <ele>47.920</ele>
        <time>2019-08-26T14:56:04Z</time>
      </trkpt>
      <trkpt lat="39.136386" lon="-9.374928">
        <ele>46.379</ele>
        <time>2019-08-26T14:57:19Z</time>
      </trkpt>
      <trkpt lat="39.136207" lon="-9.374998">
        <ele>47.378</ele>
        <time>2019-08-26T14:59:12Z</time>
      </trkpt>
      <trkpt lat="39.134887" lon="-9.374661">
        <ele>45.223</ele>
        <time>2019-08-27T09:13:07Z</time>
      </trkpt>
      <trkpt lat="39.135397" lon="-9.374904">
        <ele>45.283</ele>
        <time>2019-08-27T09:13:31Z</time>
      </trkpt>
      <trkpt lat="39.135333" lon="-9.375284">
        <ele>45.211</ele>
        <time>2019-08-27T09:13:38Z</time>
      </trkpt>
      <trkpt lat="39.134041" lon="-9.374664">
        <ele>45.208</ele>
        <time>2019-08-27T09:14:41Z</time>
      </trkpt>
      <trkpt lat="39.133478" lon="-9.374979">
        <ele>38.746</ele>
        <time>2019-08-27T09:15:00Z</time>
      </trkpt>
      <trkpt lat="39.134535" lon="-9.379747">
        <ele>29.642</ele>
        <time>2019-08-27T09:16:09Z</time>
      </trkpt>
      <trkpt lat="39.134017" lon="-9.381250">
        <ele>30.047</ele>
        <time>2019-08-27T09:16:49Z</time>
      </trkpt>
      <trkpt lat="39.134003" lon="-9.381636">
        <ele>27.790</ele>
        <time>2019-08-27T09:17:00Z</time>
      </trkpt>
      <trkpt lat="39.133720" lon="-9.381605">
        <ele>29.618</ele>
        <time>2019-08-27T09:18:48Z</time>
      </trkpt>
      <trkpt lat="39.133620" lon="-9.381997">
        <ele>29.716</ele>
        <time>2019-08-27T09:19:05Z</time>
      </trkpt>
      <trkpt lat="39.133695" lon="-9.381674">
        <ele>30.241</ele>
        <time>2019-08-27T09:54:10Z</time>
      </trkpt>
      <trkpt lat="39.133788" lon="-9.381741">
        <ele>81.918</ele>
        <time>2019-08-27T09:55:17Z</time>
      </trkpt>
      <trkpt lat="39.133702" lon="-9.382493">
        <ele>78.173</ele>
        <time>2019-08-27T09:57:20Z</time>
      </trkpt>
      <trkpt lat="39.132677" lon="-9.382664">
        <ele>78.185</ele>
        <time>2019-08-27T09:57:59Z</time>
      </trkpt>
      <trkpt lat="39.132771" lon="-9.384042">
        <ele>79.213</ele>
        <time>2019-08-27T09:58:41Z</time>
      </trkpt>
      <trkpt lat="39.132513" lon="-9.384421">
        <ele>81.508</ele>
        <time>2019-08-27T09:59:01Z</time>
      </trkpt>
      <trkpt lat="39.132579" lon="-9.384528">
        <ele>81.351</ele>
        <time>2019-08-27T09:59:19Z</time>
      </trkpt>
      <trkpt lat="39.132532" lon="-9.384421">
        <ele>81.687</ele>
        <time>2019-08-27T09:59:46Z</time>
      </trkpt>
      <trkpt lat="39.132280" lon="-9.384806">
        <ele>85.432</ele>
        <time>2019-08-27T10:00:23Z</time>
      </trkpt>
      <trkpt lat="39.132362" lon="-9.384955">
        <ele>86.145</ele>
        <time>2019-08-27T10:01:12Z</time>
      </trkpt>
      <trkpt lat="39.132369" lon="-9.384787">
        <ele>84.593</ele>
        <time>2019-08-27T10:01:50Z</time>
      </trkpt>
      <trkpt lat="39.131670" lon="-9.384581">
        <ele>83.881</ele>
        <time>2019-08-27T10:02:44Z</time>
      </trkpt>
      <trkpt lat="39.131286" lon="-9.384675">
        <ele>89.336</ele>
        <time>2019-08-27T10:03:00Z</time>
      </trkpt>
      <trkpt lat="39.130136" lon="-9.385620">
        <ele>99.723</ele>
        <time>2019-08-27T10:04:06Z</time>
      </trkpt>
      <trkpt lat="39.127195" lon="-9.386965">
        <ele>102.595</ele>
        <time>2019-08-27T10:05:32Z</time>
      </trkpt>
      <trkpt lat="39.125347" lon="-9.388785">
        <ele>116.149</ele>
        <time>2019-08-27T10:07:06Z</time>
      </trkpt>
      <trkpt lat="39.124058" lon="-9.389328">
        <ele>133.023</ele>
        <time>2019-08-27T10:08:32Z</time>
      </trkpt>
      <trkpt lat="39.124101" lon="-9.389482">
        <ele>135.708</ele>
        <time>2019-08-27T10:08:43Z</time>
      </trkpt>
      <trkpt lat="39.124559" lon="-9.389670">
        <ele>135.763</ele>
        <time>2019-08-27T10:09:51Z</time>
      </trkpt>
      <trkpt lat="39.124146" lon="-9.390360">
        <ele>131.119</ele>
        <time>2019-08-27T10:10:14Z</time>
      </trkpt>
      <trkpt lat="39.123400" lon="-9.390863">
        <ele>127.884</ele>
        <time>2019-08-27T10:10:36Z</time>
      </trkpt>
      <trkpt lat="39.122651" lon="-9.391034">
        <ele>125.847</ele>
        <time>2019-08-27T10:11:23Z</time>
      </trkpt>
      <trkpt lat="39.121756" lon="-9.391513">
        <ele>123.865</ele>
        <time>2019-08-27T10:11:40Z</time>
      </trkpt>
      <trkpt lat="39.120550" lon="-9.392479">
        <ele>117.453</ele>
        <time>2019-08-27T10:12:04Z</time>
      </trkpt>
      <trkpt lat="39.119545" lon="-9.392277">
        <ele>114.548</ele>
        <time>2019-08-27T10:12:25Z</time>
      </trkpt>
      <trkpt lat="39.119335" lon="-9.392118">
        <ele>111.675</ele>
        <time>2019-08-27T10:12:30Z</time>
      </trkpt>
      <trkpt lat="39.118688" lon="-9.389447">
        <ele>95.167</ele>
        <time>2019-08-27T10:12:59Z</time>
      </trkpt>
      <trkpt lat="39.118150" lon="-9.388245">
        <ele>106.281</ele>
        <time>2019-08-27T10:14:04Z</time>
      </trkpt>
      <trkpt lat="39.117716" lon="-9.388045">
        <ele>111.619</ele>
        <time>2019-08-27T10:14:23Z</time>
      </trkpt>
      <trkpt lat="39.117047" lon="-9.388071">
        <ele>113.408</ele>
        <time>2019-08-27T10:14:38Z</time>
      </trkpt>
      <trkpt lat="39.116841" lon="-9.388204">
        <ele>111.930</ele>
        <time>2019-08-27T10:14:43Z</time>
      </trkpt>
      <trkpt lat="39.116714" lon="-9.388097">
        <ele>110.446</ele>
        <time>2019-08-27T10:14:47Z</time>
      </trkpt>
      <trkpt lat="39.116834" lon="-9.386674">
        <ele>109.391</ele>
        <time>2019-08-27T10:15:23Z</time>
      </trkpt>
      <trkpt lat="39.116486" lon="-9.383648">
        <ele>116.354</ele>
        <time>2019-08-27T10:16:28Z</time>
      </trkpt>
      <trkpt lat="39.116384" lon="-9.383598">
        <ele>116.832</ele>
        <time>2019-08-27T10:16:30Z</time>
      </trkpt>
      <trkpt lat="39.115378" lon="-9.384822">
        <ele>114.010</ele>
        <time>2019-08-27T10:16:53Z</time>
      </trkpt>
      <trkpt lat="39.115036" lon="-9.384976">
        <ele>112.335</ele>
        <time>2019-08-27T10:16:58Z</time>
      </trkpt>
      <trkpt lat="39.112846" lon="-9.385256">
        <ele>104.812</ele>
        <time>2019-08-27T10:17:25Z</time>
      </trkpt>
      <trkpt lat="39.112191" lon="-9.384899">
        <ele>102.247</ele>
        <time>2019-08-27T10:17:35Z</time>
      </trkpt>
      <trkpt lat="39.111315" lon="-9.384889">
        <ele>99.229</ele>
        <time>2019-08-27T10:17:52Z</time>
      </trkpt>
      <trkpt lat="39.110818" lon="-9.385227">
        <ele>96.121</ele>
        <time>2019-08-27T10:18:00Z</time>
      </trkpt>
      <trkpt lat="39.110211" lon="-9.385155">
        <ele>93.708</ele>
        <time>2019-08-27T10:18:08Z</time>
      </trkpt>
      <trkpt lat="39.108769" lon="-9.385723">
        <ele>88.028</ele>
        <time>2019-08-27T10:18:27Z</time>
      </trkpt>
      <trkpt lat="39.108007" lon="-9.385655">
        <ele>84.354</ele>
        <time>2019-08-27T10:18:36Z</time>
      </trkpt>
      <trkpt lat="39.107396" lon="-9.385296">
        <ele>80.389</ele>
        <time>2019-08-27T10:18:44Z</time>
      </trkpt>
      <trkpt lat="39.106906" lon="-9.385302">
        <ele>77.582</ele>
        <time>2019-08-27T10:18:50Z</time>
      </trkpt>
      <trkpt lat="39.106484" lon="-9.385040">
        <ele>73.630</ele>
        <time>2019-08-27T10:18:58Z</time>
      </trkpt>
      <trkpt lat="39.106120" lon="-9.384584">
        <ele>63.778</ele>
        <time>2019-08-27T10:19:18Z</time>
      </trkpt>
      <trkpt lat="39.105941" lon="-9.383435">
        <ele>58.143</ele>
        <time>2019-08-27T10:19:36Z</time>
      </trkpt>
      <trkpt lat="39.105166" lon="-9.382310">
        <ele>59.620</ele>
        <time>2019-08-27T10:19:58Z</time>
      </trkpt>
      <trkpt lat="39.104106" lon="-9.379707">
        <ele>67.825</ele>
        <time>2019-08-27T10:21:05Z</time>
      </trkpt>
      <trkpt lat="39.103735" lon="-9.380260">
        <ele>68.326</ele>
        <time>2019-08-27T10:21:15Z</time>
      </trkpt>
      <trkpt lat="39.102965" lon="-9.380648">
        <ele>66.608</ele>
        <time>2019-08-27T10:21:27Z</time>
      </trkpt>
      <trkpt lat="39.101924" lon="-9.380867">
        <ele>59.908</ele>
        <time>2019-08-27T10:21:43Z</time>
      </trkpt>
      <trkpt lat="39.100756" lon="-9.380749">
        <ele>56.656</ele>
        <time>2019-08-27T10:22:05Z</time>
      </trkpt>
      <trkpt lat="39.099991" lon="-9.380194">
        <ele>56.982</ele>
        <time>2019-08-27T10:22:22Z</time>
      </trkpt>
      <trkpt lat="39.100329" lon="-9.379175">
        <ele>59.887</ele>
        <time>2019-08-27T10:24:44Z</time>
      </trkpt>
      <trkpt lat="39.100332" lon="-9.378732">
        <ele>60.680</ele>
        <time>2019-08-27T10:24:51Z</time>
      </trkpt>
      <trkpt lat="39.100072" lon="-9.377742">
        <ele>59.788</ele>
        <time>2019-08-27T10:25:06Z</time>
      </trkpt>
      <trkpt lat="39.099677" lon="-9.377247">
        <ele>59.426</ele>
        <time>2019-08-27T10:25:16Z</time>
      </trkpt>
      <trkpt lat="39.097701" lon="-9.376206">
        <ele>59.071</ele>
        <time>2019-08-27T10:25:57Z</time>
      </trkpt>
      <trkpt lat="39.096960" lon="-9.376002">
        <ele>58.838</ele>
        <time>2019-08-27T10:26:20Z</time>
      </trkpt>
      <trkpt lat="39.095602" lon="-9.376512">
        <ele>64.219</ele>
        <time>2019-08-27T10:26:57Z</time>
      </trkpt>
      <trkpt lat="39.096202" lon="-9.377412">
        <ele>65.709</ele>
        <time>2019-08-27T10:28:06Z</time>
      </trkpt>
      <trkpt lat="39.096422" lon="-9.379730">
        <ele>68.719</ele>
        <time>2019-08-27T10:28:57Z</time>
      </trkpt>
      <trkpt lat="39.096320" lon="-9.380416">
        <ele>66.808</ele>
        <time>2019-08-27T10:29:05Z</time>
      </trkpt>
      <trkpt lat="39.095895" lon="-9.380928">
        <ele>61.925</ele>
        <time>2019-08-27T10:29:15Z</time>
      </trkpt>
      <trkpt lat="39.102706" lon="-9.396244">
        <ele>57.931</ele>
        <time>2019-08-27T10:35:31Z</time>
      </trkpt>
      <trkpt lat="39.103070" lon="-9.396168">
        <ele>61.236</ele>
        <time>2019-08-27T10:35:35Z</time>
      </trkpt>
      <trkpt lat="39.103455" lon="-9.396430">
        <ele>58.859</ele>
        <time>2019-08-27T10:35:46Z</time>
      </trkpt>
      <trkpt lat="39.102733" lon="-9.398315">
        <ele>61.067</ele>
        <time>2019-08-27T10:36:27Z</time>
      </trkpt>
      <trkpt lat="39.102696" lon="-9.398457">
        <ele>62.165</ele>
        <time>2019-08-27T10:36:31Z</time>
      </trkpt>
      <trkpt lat="39.102947" lon="-9.398238">
        <ele>60.720</ele>
        <time>2019-08-27T10:36:46Z</time>
      </trkpt>
      <trkpt lat="39.102599" lon="-9.399409">
        <ele>60.247</ele>
        <time>2019-08-27T10:37:21Z</time>
      </trkpt>
      <trkpt lat="39.102355" lon="-9.399304">
        <ele>58.932</ele>
        <time>2019-08-27T10:37:40Z</time>
      </trkpt>
      <trkpt lat="39.101806" lon="-9.399580">
        <ele>67.992</ele>
        <time>2019-08-27T10:38:56Z</time>
      </trkpt>
      <trkpt lat="39.101102" lon="-9.401704">
        <ele>93.311</ele>
        <time>2019-08-27T10:41:17Z</time>
      </trkpt>
      <trkpt lat="39.100317" lon="-9.403090">
        <ele>105.308</ele>
        <time>2019-08-27T10:43:15Z</time>
      </trkpt>
      <trkpt lat="39.099508" lon="-9.403590">
        <ele>107.617</ele>
        <time>2019-08-27T10:43:56Z</time>
      </trkpt>
      <trkpt lat="39.099430" lon="-9.403488">
        <ele>107.273</ele>
        <time>2019-08-27T10:50:08Z</time>
      </trkpt>
      <trkpt lat="39.098876" lon="-9.403603">
        <ele>108.228</ele>
        <time>2019-08-27T10:50:32Z</time>
      </trkpt>
      <trkpt lat="39.097086" lon="-9.404394">
        <ele>124.211</ele>
        <time>2019-08-27T10:52:12Z</time>
      </trkpt>
      <trkpt lat="39.096029" lon="-9.405462">
        <ele>123.819</ele>
        <time>2019-08-27T10:52:51Z</time>
      </trkpt>
      <trkpt lat="39.094529" lon="-9.407413">
        <ele>126.647</ele>
        <time>2019-08-27T10:53:52Z</time>
      </trkpt>
      <trkpt lat="39.093539" lon="-9.408255">
        <ele>130.542</ele>
        <time>2019-08-27T10:54:26Z</time>
      </trkpt>
      <trkpt lat="39.093410" lon="-9.408658">
        <ele>131.859</ele>
        <time>2019-08-27T10:54:39Z</time>
      </trkpt>
      <trkpt lat="39.092919" lon="-9.409139">
        <ele>133.948</ele>
        <time>2019-08-27T10:54:59Z</time>
      </trkpt>
      <trkpt lat="39.092185" lon="-9.409183">
        <ele>134.961</ele>
        <time>2019-08-27T10:55:24Z</time>
      </trkpt>
      <trkpt lat="39.090199" lon="-9.410493">
        <ele>133.417</ele>
        <time>2019-08-27T10:56:13Z</time>
      </trkpt>
      <trkpt lat="39.088153" lon="-9.410822">
        <ele>133.308</ele>
        <time>2019-08-27T10:57:00Z</time>
      </trkpt>
      <trkpt lat="39.085933" lon="-9.413070">
        <ele>133.588</ele>
        <time>2019-08-27T10:58:36Z</time>
      </trkpt>
      <trkpt lat="39.084695" lon="-9.413475">
        <ele>137.764</ele>
        <time>2019-08-27T10:59:11Z</time>
      </trkpt>
      <trkpt lat="39.083931" lon="-9.414064">
        <ele>136.139</ele>
        <time>2019-08-27T10:59:26Z</time>
      </trkpt>
      <trkpt lat="39.082895" lon="-9.414050">
        <ele>135.732</ele>
        <time>2019-08-27T10:59:51Z</time>
      </trkpt>
      <trkpt lat="39.082085" lon="-9.413755">
        <ele>137.610</ele>
        <time>2019-08-27T11:00:10Z</time>
      </trkpt>
      <trkpt lat="39.081696" lon="-9.416095">
        <ele>130.948</ele>
        <time>2019-08-27T11:00:40Z</time>
      </trkpt>
      <trkpt lat="39.081434" lon="-9.416383">
        <ele>124.713</ele>
        <time>2019-08-27T11:00:51Z</time>
      </trkpt>
      <trkpt lat="39.080957" lon="-9.416292">
        <ele>121.240</ele>
        <time>2019-08-27T11:05:59Z</time>
      </trkpt>
      <trkpt lat="39.080096" lon="-9.415805">
        <ele>126.182</ele>
        <time>2019-08-27T11:06:43Z</time>
      </trkpt>
      <trkpt lat="39.080215" lon="-9.414279">
        <ele>132.143</ele>
        <time>2019-08-27T11:07:20Z</time>
      </trkpt>
      <trkpt lat="39.080037" lon="-9.413350">
        <ele>132.417</ele>
        <time>2019-08-27T11:07:42Z</time>
      </trkpt>
      <trkpt lat="39.080083" lon="-9.412749">
        <ele>133.008</ele>
        <time>2019-08-27T11:07:57Z</time>
      </trkpt>
      <trkpt lat="39.079318" lon="-9.412374">
        <ele>135.992</ele>
        <time>2019-08-27T11:08:16Z</time>
      </trkpt>
      <trkpt lat="39.078697" lon="-9.411721">
        <ele>137.358</ele>
        <time>2019-08-27T11:08:34Z</time>
      </trkpt>
      <trkpt lat="39.077695" lon="-9.411326">
        <ele>138.363</ele>
        <time>2019-08-27T11:08:55Z</time>
      </trkpt>
      <trkpt lat="39.074931" lon="-9.411804">
        <ele>134.556</ele>
        <time>2019-08-27T11:09:57Z</time>
      </trkpt>
      <trkpt lat="39.072976" lon="-9.411629">
        <ele>137.634</ele>
        <time>2019-08-27T11:10:32Z</time>
      </trkpt>
      <trkpt lat="39.069967" lon="-9.411759">
        <ele>132.772</ele>
        <time>2019-08-27T11:11:26Z</time>
      </trkpt>
      <trkpt lat="39.068646" lon="-9.411208">
        <ele>130.217</ele>
        <time>2019-08-27T11:11:51Z</time>
      </trkpt>
      <trkpt lat="39.067189" lon="-9.410195">
        <ele>133.474</ele>
        <time>2019-08-27T11:12:23Z</time>
      </trkpt>
      <trkpt lat="39.065422" lon="-9.409229">
        <ele>135.858</ele>
        <time>2019-08-27T11:13:00Z</time>
      </trkpt>
      <trkpt lat="39.063749" lon="-9.407681">
        <ele>134.952</ele>
        <time>2019-08-27T11:13:43Z</time>
      </trkpt>
      <trkpt lat="39.063026" lon="-9.407264">
        <ele>135.417</ele>
        <time>2019-08-27T11:14:02Z</time>
      </trkpt>
      <trkpt lat="39.062210" lon="-9.408100">
        <ele>140.808</ele>
        <time>2019-08-27T11:15:33Z</time>
      </trkpt>
      <trkpt lat="39.061589" lon="-9.409531">
        <ele>135.169</ele>
        <time>2019-08-27T11:15:59Z</time>
      </trkpt>
      <trkpt lat="39.061119" lon="-9.409593">
        <ele>133.575</ele>
        <time>2019-08-27T11:16:13Z</time>
      </trkpt>
      <trkpt lat="39.060321" lon="-9.410724">
        <ele>136.940</ele>
        <time>2019-08-27T11:16:43Z</time>
      </trkpt>
      <trkpt lat="39.059271" lon="-9.411223">
        <ele>134.653</ele>
        <time>2019-08-27T11:17:15Z</time>
      </trkpt>
      <trkpt lat="39.058120" lon="-9.412680">
        <ele>129.091</ele>
        <time>2019-08-27T11:17:42Z</time>
      </trkpt>
      <trkpt lat="39.057218" lon="-9.414192">
        <ele>116.399</ele>
        <time>2019-08-27T11:18:03Z</time>
      </trkpt>
      <trkpt lat="39.056206" lon="-9.414567">
        <ele>104.114</ele>
        <time>2019-08-27T11:18:17Z</time>
      </trkpt>
      <trkpt lat="39.055575" lon="-9.415461">
        <ele>89.621</ele>
        <time>2019-08-27T11:18:31Z</time>
      </trkpt>
      <trkpt lat="39.054937" lon="-9.415606">
        <ele>73.248</ele>
        <time>2019-08-27T11:18:56Z</time>
      </trkpt>
      <trkpt lat="39.054916" lon="-9.415759">
        <ele>70.561</ele>
        <time>2019-08-27T11:19:01Z</time>
      </trkpt>
      <trkpt lat="39.055131" lon="-9.415957">
        <ele>66.417</ele>
        <time>2019-08-27T11:19:14Z</time>
      </trkpt>
      <trkpt lat="39.054473" lon="-9.415236">
        <ele>69.908</ele>
        <time>2019-08-27T11:25:18Z</time>
      </trkpt>
      <trkpt lat="39.054076" lon="-9.414556">
        <ele>73.318</ele>
        <time>2019-08-27T11:25:41Z</time>
      </trkpt>
      <trkpt lat="39.053133" lon="-9.413792">
        <ele>72.644</ele>
        <time>2019-08-27T11:26:08Z</time>
      </trkpt>
      <trkpt lat="39.052327" lon="-9.412614">
        <ele>75.429</ele>
        <time>2019-08-27T11:26:44Z</time>
      </trkpt>
      <trkpt lat="39.052104" lon="-9.412109">
        <ele>82.532</ele>
        <time>2019-08-27T11:27:17Z</time>
      </trkpt>
      <trkpt lat="39.052333" lon="-9.411798">
        <ele>87.410</ele>
        <time>2019-08-27T11:27:54Z</time>
      </trkpt>
      <trkpt lat="39.052013" lon="-9.411992">
        <ele>87.488</ele>
        <time>2019-08-27T11:28:09Z</time>
      </trkpt>
      <trkpt lat="39.051812" lon="-9.411258">
        <ele>84.943</ele>
        <time>2019-08-27T11:28:20Z</time>
      </trkpt>
      <trkpt lat="39.051994" lon="-9.410536">
        <ele>83.410</ele>
        <time>2019-08-27T11:28:36Z</time>
      </trkpt>
      <trkpt lat="39.051891" lon="-9.409935">
        <ele>83.695</ele>
        <time>2019-08-27T11:28:55Z</time>
      </trkpt>
      <trkpt lat="39.051308" lon="-9.408747">
        <ele>90.149</ele>
        <time>2019-08-27T11:29:35Z</time>
      </trkpt>
      <trkpt lat="39.050738" lon="-9.408149">
        <ele>93.923</ele>
        <time>2019-08-27T11:30:07Z</time>
      </trkpt>
      <trkpt lat="39.050598" lon="-9.406197">
        <ele>111.708</ele>
        <time>2019-08-27T11:32:10Z</time>
      </trkpt>
      <trkpt lat="39.050880" lon="-9.404843">
        <ele>124.023</ele>
        <time>2019-08-27T11:34:07Z</time>
      </trkpt>
      <trkpt lat="39.050777" lon="-9.403268">
        <ele>130.239</ele>
        <time>2019-08-27T11:35:08Z</time>
      </trkpt>
      <trkpt lat="39.049959" lon="-9.402018">
        <ele>140.634</ele>
        <time>2019-08-27T11:36:12Z</time>
      </trkpt>
      <trkpt lat="39.049653" lon="-9.401230">
        <ele>140.317</ele>
        <time>2019-08-27T11:36:28Z</time>
      </trkpt>
      <trkpt lat="39.049375" lon="-9.398960">
        <ele>146.565</ele>
        <time>2019-08-27T11:37:26Z</time>
      </trkpt>
      <trkpt lat="39.046534" lon="-9.399447">
        <ele>148.173</ele>
        <time>2019-08-27T11:38:34Z</time>
      </trkpt>
      <trkpt lat="39.045651" lon="-9.399789">
        <ele>142.928</ele>
        <time>2019-08-27T11:39:50Z</time>
      </trkpt>
      <trkpt lat="39.042339" lon="-9.402398">
        <ele>142.395</ele>
        <time>2019-08-27T11:41:01Z</time>
      </trkpt>
      <trkpt lat="39.035951" lon="-9.411039">
        <ele>154.076</ele>
        <time>2019-08-27T11:44:28Z</time>
      </trkpt>
      <trkpt lat="39.030215" lon="-9.416651">
        <ele>131.190</ele>
        <time>2019-08-27T11:46:13Z</time>
      </trkpt>
      <trkpt lat="39.028870" lon="-9.419036">
        <ele>130.619</ele>
        <time>2019-08-27T11:46:58Z</time>
      </trkpt>
      <trkpt lat="39.027472" lon="-9.420077">
        <ele>130.308</ele>
        <time>2019-08-27T11:47:20Z</time>
      </trkpt>
      <trkpt lat="39.026007" lon="-9.420804">
        <ele>127.721</ele>
        <time>2019-08-27T11:47:53Z</time>
      </trkpt>
      <trkpt lat="39.025270" lon="-9.421625">
        <ele>126.427</ele>
        <time>2019-08-27T11:48:10Z</time>
      </trkpt>
      <trkpt lat="39.025076" lon="-9.421473">
        <ele>126.512</ele>
        <time>2019-08-27T11:48:14Z</time>
      </trkpt>
      <trkpt lat="39.023919" lon="-9.418002">
        <ele>123.145</ele>
        <time>2019-08-27T11:49:16Z</time>
      </trkpt>
      <trkpt lat="39.023170" lon="-9.418122">
        <ele>120.563</ele>
        <time>2019-08-27T11:49:32Z</time>
      </trkpt>
      <trkpt lat="39.022874" lon="-9.418610">
        <ele>118.881</ele>
        <time>2019-08-27T11:49:42Z</time>
      </trkpt>
      <trkpt lat="39.022277" lon="-9.418863">
        <ele>118.036</ele>
        <time>2019-08-27T11:49:55Z</time>
      </trkpt>
      <trkpt lat="39.020470" lon="-9.419089">
        <ele>117.913</ele>
        <time>2019-08-27T11:50:34Z</time>
      </trkpt>
      <trkpt lat="39.019560" lon="-9.418914">
        <ele>118.154</ele>
        <time>2019-08-27T11:50:56Z</time>
      </trkpt>
      <trkpt lat="39.020038" lon="-9.417907">
        <ele>111.956</ele>
        <time>2019-08-27T11:51:17Z</time>
      </trkpt>
      <trkpt lat="39.019511" lon="-9.416602">
        <ele>104.911</ele>
        <time>2019-08-27T11:51:35Z</time>
      </trkpt>
      <trkpt lat="39.019432" lon="-9.416037">
        <ele>104.608</ele>
        <time>2019-08-27T11:52:07Z</time>
      </trkpt>
      <trkpt lat="39.017829" lon="-9.415890">
        <ele>95.279</ele>
        <time>2019-08-27T11:52:32Z</time>
      </trkpt>
      <trkpt lat="39.016827" lon="-9.415527">
        <ele>86.265</ele>
        <time>2019-08-27T11:52:44Z</time>
      </trkpt>
      <trkpt lat="39.014034" lon="-9.415072">
        <ele>60.110</ele>
        <time>2019-08-27T11:53:17Z</time>
      </trkpt>
      <trkpt lat="39.013526" lon="-9.415170">
        <ele>57.333</ele>
        <time>2019-08-27T11:53:30Z</time>
      </trkpt>
      <trkpt lat="39.013517" lon="-9.415912">
        <ele>55.981</ele>
        <time>2019-08-27T11:53:54Z</time>
      </trkpt>
      <trkpt lat="39.012953" lon="-9.416376">
        <ele>55.729</ele>
        <time>2019-08-27T11:54:10Z</time>
      </trkpt>
      <trkpt lat="39.012729" lon="-9.417102">
        <ele>57.294</ele>
        <time>2019-08-27T11:54:23Z</time>
      </trkpt>
      <trkpt lat="39.012195" lon="-9.417585">
        <ele>57.861</ele>
        <time>2019-08-27T11:54:37Z</time>
      </trkpt>
      <trkpt lat="39.011166" lon="-9.418033">
        <ele>60.228</ele>
        <time>2019-08-27T11:55:02Z</time>
      </trkpt>
      <trkpt lat="39.010877" lon="-9.418414">
        <ele>62.289</ele>
        <time>2019-08-27T11:55:12Z</time>
      </trkpt>
      <trkpt lat="39.010817" lon="-9.418976">
        <ele>61.917</ele>
        <time>2019-08-27T11:55:30Z</time>
      </trkpt>
      <trkpt lat="39.011743" lon="-9.420108">
        <ele>59.708</ele>
        <time>2019-08-27T11:56:01Z</time>
      </trkpt>
      <trkpt lat="39.011245" lon="-9.420655">
        <ele>60.216</ele>
        <time>2019-08-27T11:56:24Z</time>
      </trkpt>
      <trkpt lat="39.011131" lon="-9.421227">
        <ele>60.682</ele>
        <time>2019-08-27T11:57:14Z</time>
      </trkpt>
      <trkpt lat="39.011341" lon="-9.420349">
        <ele>62.797</ele>
        <time>2019-08-27T12:02:05Z</time>
      </trkpt>
      <trkpt lat="39.011290" lon="-9.419596">
        <ele>62.020</ele>
        <time>2019-08-27T12:02:20Z</time>
      </trkpt>
      <trkpt lat="39.010526" lon="-9.418569">
        <ele>61.758</ele>
        <time>2019-08-27T12:02:51Z</time>
      </trkpt>
      <trkpt lat="39.010114" lon="-9.417616">
        <ele>69.146</ele>
        <time>2019-08-27T12:03:23Z</time>
      </trkpt>
      <trkpt lat="39.009834" lon="-9.417283">
        <ele>70.571</ele>
        <time>2019-08-27T12:03:43Z</time>
      </trkpt>
      <trkpt lat="39.009589" lon="-9.417312">
        <ele>71.638</ele>
        <time>2019-08-27T12:06:41Z</time>
      </trkpt>
      <trkpt lat="39.009668" lon="-9.417107">
        <ele>70.655</ele>
        <time>2019-08-27T12:08:16Z</time>
      </trkpt>
      <trkpt lat="39.009333" lon="-9.416465">
        <ele>77.607</ele>
        <time>2019-08-27T12:09:25Z</time>
      </trkpt>
      <trkpt lat="39.009768" lon="-9.415752">
        <ele>95.617</ele>
        <time>2019-08-27T12:11:00Z</time>
      </trkpt>
      <trkpt lat="39.009405" lon="-9.415171">
        <ele>104.908</ele>
        <time>2019-08-27T12:12:09Z</time>
      </trkpt>
      <trkpt lat="39.008756" lon="-9.415234">
        <ele>113.729</ele>
        <time>2019-08-27T12:14:15Z</time>
      </trkpt>
      <trkpt lat="39.008213" lon="-9.415765">
        <ele>123.755</ele>
        <time>2019-08-27T12:14:55Z</time>
      </trkpt>
      <trkpt lat="39.007873" lon="-9.416692">
        <ele>129.510</ele>
        <time>2019-08-27T12:15:38Z</time>
      </trkpt>
      <trkpt lat="39.007066" lon="-9.417877">
        <ele>135.493</ele>
        <time>2019-08-27T12:16:49Z</time>
      </trkpt>
      <trkpt lat="39.006151" lon="-9.420232">
        <ele>137.791</ele>
        <time>2019-08-27T12:17:47Z</time>
      </trkpt>
      <trkpt lat="38.997490" lon="-9.414469">
        <ele>143.899</ele>
        <time>2019-08-27T12:22:41Z</time>
      </trkpt>
      <trkpt lat="38.996901" lon="-9.414222">
        <ele>139.744</ele>
        <time>2019-08-27T12:22:47Z</time>
      </trkpt>
      <trkpt lat="38.995666" lon="-9.414121">
        <ele>129.211</ele>
        <time>2019-08-27T12:22:58Z</time>
      </trkpt>
      <trkpt lat="38.994343" lon="-9.414156">
        <ele>117.252</ele>
        <time>2019-08-27T12:23:10Z</time>
      </trkpt>
      <trkpt lat="38.992468" lon="-9.414621">
        <ele>95.653</ele>
        <time>2019-08-27T12:25:01Z</time>
      </trkpt>
      <trkpt lat="38.990775" lon="-9.415497">
        <ele>80.908</ele>
        <time>2019-08-27T12:25:17Z</time>
      </trkpt>
      <trkpt lat="38.988551" lon="-9.415564">
        <ele>75.408</ele>
        <time>2019-08-27T12:26:12Z</time>
      </trkpt>
      <trkpt lat="38.988244" lon="-9.415803">
        <ele>81.119</ele>
        <time>2019-08-27T12:26:36Z</time>
      </trkpt>
      <trkpt lat="38.987064" lon="-9.417463">
        <ele>108.065</ele>
        <time>2019-08-27T12:28:30Z</time>
      </trkpt>
      <trkpt lat="38.986832" lon="-9.418141">
        <ele>111.090</ele>
        <time>2019-08-27T12:29:55Z</time>
      </trkpt>
      <trkpt lat="38.986305" lon="-9.418054">
        <ele>113.733</ele>
        <time>2019-08-27T12:37:06Z</time>
      </trkpt>
      <trkpt lat="38.982314" lon="-9.418205">
        <ele>91.031</ele>
        <time>2019-08-27T12:38:50Z</time>
      </trkpt>
      <trkpt lat="38.982265" lon="-9.418025">
        <ele>89.539</ele>
        <time>2019-08-27T12:39:00Z</time>
      </trkpt>
      <trkpt lat="38.982400" lon="-9.417973">
        <ele>89.854</ele>
        <time>2019-08-27T12:39:13Z</time>
      </trkpt>
      <trkpt lat="38.982298" lon="-9.417796">
        <ele>95.271</ele>
        <time>2019-08-27T13:13:27Z</time>
      </trkpt>
      <trkpt lat="38.982242" lon="-9.418172">
        <ele>95.466</ele>
        <time>2019-08-27T13:14:46Z</time>
      </trkpt>
      <trkpt lat="38.981052" lon="-9.418204">
        <ele>89.929</ele>
        <time>2019-08-27T13:15:28Z</time>
      </trkpt>
      <trkpt lat="38.978064" lon="-9.418845">
        <ele>90.121</ele>
        <time>2019-08-27T13:16:54Z</time>
      </trkpt>
      <trkpt lat="38.977923" lon="-9.419002">
        <ele>62.008</ele>
        <time>2019-08-28T10:12:07Z</time>
      </trkpt>
      <trkpt lat="38.974633" lon="-9.419586">
        <ele>60.370</ele>
        <time>2019-08-28T10:14:24Z</time>
      </trkpt>
      <trkpt lat="38.973903" lon="-9.419695">
        <ele>63.616</ele>
        <time>2019-08-28T10:14:48Z</time>
      </trkpt>
      <trkpt lat="38.972886" lon="-9.419592">
        <ele>63.471</ele>
        <time>2019-08-28T10:15:13Z</time>
      </trkpt>
      <trkpt lat="38.972437" lon="-9.419723">
        <ele>63.344</ele>
        <time>2019-08-28T10:15:26Z</time>
      </trkpt>
      <trkpt lat="38.971651" lon="-9.419554">
        <ele>62.892</ele>
        <time>2019-08-28T10:15:43Z</time>
      </trkpt>
      <trkpt lat="38.969953" lon="-9.419630">
        <ele>62.530</ele>
        <time>2019-08-28T10:16:55Z</time>
      </trkpt>
      <trkpt lat="38.969750" lon="-9.419411">
        <ele>63.575</ele>
        <time>2019-08-28T10:17:17Z</time>
      </trkpt>
      <trkpt lat="38.969621" lon="-9.419455">
        <ele>77.152</ele>
        <time>2019-08-28T10:41:52Z</time>
      </trkpt>
      <trkpt lat="38.969674" lon="-9.419795">
        <ele>72.325</ele>
        <time>2019-08-28T10:43:27Z</time>
      </trkpt>
      <trkpt lat="38.969551" lon="-9.419840">
        <ele>71.326</ele>
        <time>2019-08-28T10:43:30Z</time>
      </trkpt>
      <trkpt lat="38.967501" lon="-9.418959">
        <ele>72.408</ele>
        <time>2019-08-28T10:44:55Z</time>
      </trkpt>
      <trkpt lat="38.966257" lon="-9.419230">
        <ele>74.908</ele>
        <time>2019-08-28T10:45:38Z</time>
      </trkpt>
      <trkpt lat="38.965552" lon="-9.419156">
        <ele>75.116</ele>
        <time>2019-08-28T10:45:57Z</time>
      </trkpt>
      <trkpt lat="38.964640" lon="-9.418072">
        <ele>70.182</ele>
        <time>2019-08-28T10:46:56Z</time>
      </trkpt>
      <trkpt lat="38.964266" lon="-9.417855">
        <ele>71.917</ele>
        <time>2019-08-28T10:47:11Z</time>
      </trkpt>
      <trkpt lat="38.963704" lon="-9.418204">
        <ele>73.980</ele>
        <time>2019-08-28T10:47:35Z</time>
      </trkpt>
      <trkpt lat="38.963312" lon="-9.418145">
        <ele>73.898</ele>
        <time>2019-08-28T10:47:59Z</time>
      </trkpt>
      <trkpt lat="38.963273" lon="-9.418534">
        <ele>72.796</ele>
        <time>2019-08-28T10:48:18Z</time>
      </trkpt>
      <trkpt lat="38.962447" lon="-9.418641">
        <ele>60.821</ele>
        <time>2019-08-28T10:48:46Z</time>
      </trkpt>
      <trkpt lat="38.961890" lon="-9.419192">
        <ele>61.788</ele>
        <time>2019-08-28T10:49:09Z</time>
      </trkpt>
      <trkpt lat="38.961755" lon="-9.419700">
        <ele>57.782</ele>
        <time>2019-08-28T10:50:10Z</time>
      </trkpt>
      <trkpt lat="38.961572" lon="-9.419569">
        <ele>55.143</ele>
        <time>2019-08-28T10:50:40Z</time>
      </trkpt>
      <trkpt lat="38.960837" lon="-9.419559">
        <ele>53.217</ele>
        <time>2019-08-28T10:51:01Z</time>
      </trkpt>
      <trkpt lat="38.960455" lon="-9.419317">
        <ele>52.308</ele>
        <time>2019-08-28T10:51:11Z</time>
      </trkpt>
      <trkpt lat="38.960189" lon="-9.418486">
        <ele>54.782</ele>
        <time>2019-08-28T10:51:29Z</time>
      </trkpt>
      <trkpt lat="38.960806" lon="-9.417005">
        <ele>64.018</ele>
        <time>2019-08-28T10:52:18Z</time>
      </trkpt>
      <trkpt lat="38.960524" lon="-9.416812">
        <ele>61.343</ele>
        <time>2019-08-28T10:52:35Z</time>
      </trkpt>
      <trkpt lat="38.960109" lon="-9.416865">
        <ele>58.136</ele>
        <time>2019-08-28T10:52:50Z</time>
      </trkpt>
      <trkpt lat="38.959696" lon="-9.416107">
        <ele>52.014</ele>
        <time>2019-08-28T10:53:06Z</time>
      </trkpt>
      <trkpt lat="38.958965" lon="-9.415581">
        <ele>47.952</ele>
        <time>2019-08-28T10:53:26Z</time>
      </trkpt>
      <trkpt lat="38.956713" lon="-9.415231">
        <ele>41.947</ele>
        <time>2019-08-28T10:54:19Z</time>
      </trkpt>
      <trkpt lat="38.955413" lon="-9.415733">
        <ele>56.674</ele>
        <time>2019-08-28T10:55:20Z</time>
      </trkpt>
      <trkpt lat="38.955176" lon="-9.415570">
        <ele>62.445</ele>
        <time>2019-08-28T10:55:52Z</time>
      </trkpt>
      <trkpt lat="38.954850" lon="-9.414955">
        <ele>74.647</ele>
        <time>2019-08-28T10:57:04Z</time>
      </trkpt>
      <trkpt lat="38.955222" lon="-9.414593">
        <ele>77.811</ele>
        <time>2019-08-28T10:57:45Z</time>
      </trkpt>
      <trkpt lat="38.955196" lon="-9.414118">
        <ele>82.308</ele>
        <time>2019-08-28T10:58:09Z</time>
      </trkpt>
      <trkpt lat="38.953905" lon="-9.413767">
        <ele>86.628</ele>
        <time>2019-08-28T10:58:52Z</time>
      </trkpt>
      <trkpt lat="38.953311" lon="-9.414079">
        <ele>89.474</ele>
        <time>2019-08-28T10:59:09Z</time>
      </trkpt>
      <trkpt lat="38.952878" lon="-9.414117">
        <ele>91.949</ele>
        <time>2019-08-28T10:59:20Z</time>
      </trkpt>
      <trkpt lat="38.951341" lon="-9.413193">
        <ele>90.672</ele>
        <time>2019-08-28T11:00:00Z</time>
      </trkpt>
      <trkpt lat="38.951104" lon="-9.413331">
        <ele>90.090</ele>
        <time>2019-08-28T11:00:06Z</time>
      </trkpt>
      <trkpt lat="38.950804" lon="-9.414138">
        <ele>93.048</ele>
        <time>2019-08-28T11:00:22Z</time>
      </trkpt>
      <trkpt lat="38.950545" lon="-9.414362">
        <ele>92.793</ele>
        <time>2019-08-28T11:00:29Z</time>
      </trkpt>
      <trkpt lat="38.949737" lon="-9.414430">
        <ele>92.640</ele>
        <time>2019-08-28T11:00:46Z</time>
      </trkpt>
      <trkpt lat="38.948837" lon="-9.413821">
        <ele>94.122</ele>
        <time>2019-08-28T11:01:07Z</time>
      </trkpt>
      <trkpt lat="38.948354" lon="-9.414490">
        <ele>96.662</ele>
        <time>2019-08-28T11:01:25Z</time>
      </trkpt>
      <trkpt lat="38.948026" lon="-9.414715">
        <ele>97.608</ele>
        <time>2019-08-28T11:01:37Z</time>
      </trkpt>
      <trkpt lat="38.947198" lon="-9.414660">
        <ele>98.308</ele>
        <time>2019-08-28T11:02:09Z</time>
      </trkpt>
      <trkpt lat="38.946321" lon="-9.414124">
        <ele>118.266</ele>
        <time>2019-08-28T11:04:57Z</time>
      </trkpt>
      <trkpt lat="38.944941" lon="-9.413850">
        <ele>107.482</ele>
        <time>2019-08-28T11:05:23Z</time>
      </trkpt>
      <trkpt lat="38.944721" lon="-9.413491">
        <ele>105.587</ele>
        <time>2019-08-28T11:05:34Z</time>
      </trkpt>
      <trkpt lat="38.944653" lon="-9.412733">
        <ele>103.470</ele>
        <time>2019-08-28T11:05:44Z</time>
      </trkpt>
      <trkpt lat="38.944470" lon="-9.412326">
        <ele>101.788</ele>
        <time>2019-08-28T11:05:50Z</time>
      </trkpt>
      <trkpt lat="38.944077" lon="-9.411974">
        <ele>100.126</ele>
        <time>2019-08-28T11:05:58Z</time>
      </trkpt>
      <trkpt lat="38.943016" lon="-9.411672">
        <ele>96.561</ele>
        <time>2019-08-28T11:06:12Z</time>
      </trkpt>
      <trkpt lat="38.943045" lon="-9.411156">
        <ele>96.038</ele>
        <time>2019-08-28T11:06:17Z</time>
      </trkpt>
      <trkpt lat="38.943565" lon="-9.410505">
        <ele>91.491</ele>
        <time>2019-08-28T11:06:25Z</time>
      </trkpt>
      <trkpt lat="38.943842" lon="-9.409899">
        <ele>87.581</ele>
        <time>2019-08-28T11:06:31Z</time>
      </trkpt>
      <trkpt lat="38.944398" lon="-9.409587">
        <ele>84.619</ele>
        <time>2019-08-28T11:06:38Z</time>
      </trkpt>
      <trkpt lat="38.944454" lon="-9.408646">
        <ele>80.108</ele>
        <time>2019-08-28T11:06:48Z</time>
      </trkpt>
      <trkpt lat="38.945175" lon="-9.407750">
        <ele>74.593</ele>
        <time>2019-08-28T11:07:02Z</time>
      </trkpt>
      <trkpt lat="38.944825" lon="-9.407112">
        <ele>70.879</ele>
        <time>2019-08-28T11:07:09Z</time>
      </trkpt>
      <trkpt lat="38.943272" lon="-9.406299">
        <ele>63.284</ele>
        <time>2019-08-28T11:07:36Z</time>
      </trkpt>
      <trkpt lat="38.943007" lon="-9.405827">
        <ele>65.277</ele>
        <time>2019-08-28T11:07:48Z</time>
      </trkpt>
      <trkpt lat="38.943179" lon="-9.405451">
        <ele>67.485</ele>
        <time>2019-08-28T11:07:56Z</time>
      </trkpt>
      <trkpt lat="38.943553" lon="-9.405247">
        <ele>69.673</ele>
        <time>2019-08-28T11:08:08Z</time>
      </trkpt>
      <trkpt lat="38.943852" lon="-9.404494">
        <ele>74.178</ele>
        <time>2019-08-28T11:08:28Z</time>
      </trkpt>
      <trkpt lat="38.943605" lon="-9.402799">
        <ele>80.925</ele>
        <time>2019-08-28T11:09:21Z</time>
      </trkpt>
      <trkpt lat="38.943664" lon="-9.401223">
        <ele>89.934</ele>
        <time>2019-08-28T11:10:15Z</time>
      </trkpt>
      <trkpt lat="38.944473" lon="-9.399723">
        <ele>99.655</ele>
        <time>2019-08-28T11:11:19Z</time>
      </trkpt>
      <trkpt lat="38.944287" lon="-9.399458">
        <ele>99.710</ele>
        <time>2019-08-28T11:11:32Z</time>
      </trkpt>
      <trkpt lat="38.942364" lon="-9.398690">
        <ele>115.008</ele>
        <time>2019-08-28T11:12:55Z</time>
      </trkpt>
      <trkpt lat="38.942143" lon="-9.397907">
        <ele>115.347</ele>
        <time>2019-08-28T11:13:19Z</time>
      </trkpt>
      <trkpt lat="38.941340" lon="-9.397236">
        <ele>116.283</ele>
        <time>2019-08-28T11:13:50Z</time>
      </trkpt>
      <trkpt lat="38.941263" lon="-9.396773">
        <ele>117.218</ele>
        <time>2019-08-28T11:14:04Z</time>
      </trkpt>
      <trkpt lat="38.941520" lon="-9.396051">
        <ele>123.131</ele>
        <time>2019-08-28T11:15:09Z</time>
      </trkpt>
      <trkpt lat="38.941419" lon="-9.396025">
        <ele>124.389</ele>
        <time>2019-08-28T11:16:03Z</time>
      </trkpt>
      <trkpt lat="38.941708" lon="-9.394528">
        <ele>126.357</ele>
        <time>2019-08-28T11:17:59Z</time>
      </trkpt>
      <trkpt lat="38.941623" lon="-9.394255">
        <ele>127.052</ele>
        <time>2019-08-28T11:18:07Z</time>
      </trkpt>
      <trkpt lat="38.941356" lon="-9.394107">
        <ele>128.129</ele>
        <time>2019-08-28T11:18:15Z</time>
      </trkpt>
      <trkpt lat="38.940697" lon="-9.394504">
        <ele>131.157</ele>
        <time>2019-08-28T11:18:36Z</time>
      </trkpt>
      <trkpt lat="38.939985" lon="-9.395401">
        <ele>136.500</ele>
        <time>2019-08-28T11:19:14Z</time>
      </trkpt>
      <trkpt lat="38.938978" lon="-9.396140">
        <ele>141.420</ele>
        <time>2019-08-28T11:20:02Z</time>
      </trkpt>
      <trkpt lat="38.937711" lon="-9.396416">
        <ele>150.608</ele>
        <time>2019-08-28T11:20:50Z</time>
      </trkpt>
      <trkpt lat="38.937155" lon="-9.396366">
        <ele>154.079</ele>
        <time>2019-08-28T11:21:12Z</time>
      </trkpt>
      <trkpt lat="38.936436" lon="-9.397085">
        <ele>161.195</ele>
        <time>2019-08-28T11:21:50Z</time>
      </trkpt>
      <trkpt lat="38.935308" lon="-9.397140">
        <ele>164.920</ele>
        <time>2019-08-28T11:22:29Z</time>
      </trkpt>
      <trkpt lat="38.934683" lon="-9.399805">
        <ele>158.343</ele>
        <time>2019-08-28T11:23:10Z</time>
      </trkpt>
      <trkpt lat="38.934080" lon="-9.400008">
        <ele>155.321</ele>
        <time>2019-08-28T11:23:19Z</time>
      </trkpt>
      <trkpt lat="38.933474" lon="-9.399706">
        <ele>153.129</ele>
        <time>2019-08-28T11:23:27Z</time>
      </trkpt>
      <trkpt lat="38.933030" lon="-9.399943">
        <ele>152.044</ele>
        <time>2019-08-28T11:23:33Z</time>
      </trkpt>
      <trkpt lat="38.933004" lon="-9.401178">
        <ele>148.491</ele>
        <time>2019-08-28T11:23:49Z</time>
      </trkpt>
      <trkpt lat="38.932759" lon="-9.402625">
        <ele>147.213</ele>
        <time>2019-08-28T11:24:05Z</time>
      </trkpt>
      <trkpt lat="38.931415" lon="-9.403390">
        <ele>144.443</ele>
        <time>2019-08-28T11:24:25Z</time>
      </trkpt>
      <trkpt lat="38.931083" lon="-9.403906">
        <ele>144.507</ele>
        <time>2019-08-28T11:24:33Z</time>
      </trkpt>
      <trkpt lat="38.930886" lon="-9.405756">
        <ele>143.508</ele>
        <time>2019-08-28T11:24:56Z</time>
      </trkpt>
      <trkpt lat="38.933070" lon="-9.410827">
        <ele>128.025</ele>
        <time>2019-08-28T11:25:52Z</time>
      </trkpt>
      <trkpt lat="38.933625" lon="-9.413790">
        <ele>116.371</ele>
        <time>2019-08-28T11:26:22Z</time>
      </trkpt>
      <trkpt lat="38.933489" lon="-9.414123">
        <ele>114.216</ele>
        <time>2019-08-28T11:26:26Z</time>
      </trkpt>
      <trkpt lat="38.932806" lon="-9.414534">
        <ele>109.769</ele>
        <time>2019-08-28T11:26:34Z</time>
      </trkpt>
      <trkpt lat="38.932227" lon="-9.415694">
        <ele>98.547</ele>
        <time>2019-08-28T11:26:45Z</time>
      </trkpt>
      <trkpt lat="38.931900" lon="-9.416571">
        <ele>90.785</ele>
        <time>2019-08-28T11:26:54Z</time>
      </trkpt>
      <trkpt lat="38.932030" lon="-9.417512">
        <ele>82.430</ele>
        <time>2019-08-28T11:27:04Z</time>
      </trkpt>
      <trkpt lat="38.931819" lon="-9.417889">
        <ele>76.947</ele>
        <time>2019-08-28T11:28:19Z</time>
      </trkpt>
      <trkpt lat="38.931489" lon="-9.417836">
        <ele>75.425</ele>
        <time>2019-08-28T11:28:25Z</time>
      </trkpt>
      <trkpt lat="38.931057" lon="-9.417143">
        <ele>72.926</ele>
        <time>2019-08-28T11:28:34Z</time>
      </trkpt>
      <trkpt lat="38.930544" lon="-9.417230">
        <ele>70.408</ele>
        <time>2019-08-28T11:28:42Z</time>
      </trkpt>
      <trkpt lat="38.930073" lon="-9.416880">
        <ele>67.308</ele>
        <time>2019-08-28T11:28:53Z</time>
      </trkpt>
      <trkpt lat="38.929934" lon="-9.416957">
        <ele>90.266</ele>
        <time>2019-08-28T11:30:55Z</time>
      </trkpt>
      <trkpt lat="38.929212" lon="-9.416644">
        <ele>70.422</ele>
        <time>2019-08-28T11:31:48Z</time>
      </trkpt>
      <trkpt lat="38.928497" lon="-9.416647">
        <ele>78.597</ele>
        <time>2019-08-28T11:32:45Z</time>
      </trkpt>
      <trkpt lat="38.927900" lon="-9.416303">
        <ele>89.620</ele>
        <time>2019-08-28T11:33:37Z</time>
      </trkpt>
      <trkpt lat="38.922585" lon="-9.416836">
        <ele>148.428</ele>
        <time>2019-08-28T11:40:49Z</time>
      </trkpt>
      <trkpt lat="38.921065" lon="-9.415979">
        <ele>157.796</ele>
        <time>2019-08-28T11:41:59Z</time>
      </trkpt>
      <trkpt lat="38.919174" lon="-9.415341">
        <ele>167.941</ele>
        <time>2019-08-28T11:43:05Z</time>
      </trkpt>
      <trkpt lat="38.917908" lon="-9.414495">
        <ele>167.628</ele>
        <time>2019-08-28T11:43:37Z</time>
      </trkpt>
      <trkpt lat="38.915212" lon="-9.413800">
        <ele>165.724</ele>
        <time>2019-08-28T11:44:41Z</time>
      </trkpt>
      <trkpt lat="38.912317" lon="-9.414889">
        <ele>163.404</ele>
        <time>2019-08-28T11:45:37Z</time>
      </trkpt>
      <trkpt lat="38.911138" lon="-9.414936">
        <ele>157.814</ele>
        <time>2019-08-28T11:45:52Z</time>
      </trkpt>
      <trkpt lat="38.909729" lon="-9.415385">
        <ele>163.908</ele>
        <time>2019-08-28T11:46:32Z</time>
      </trkpt>
      <trkpt lat="38.909095" lon="-9.415204">
        <ele>168.056</ele>
        <time>2019-08-28T11:46:57Z</time>
      </trkpt>
      <trkpt lat="38.909205" lon="-9.415200">
        <ele>167.532</ele>
        <time>2019-08-28T11:47:45Z</time>
      </trkpt>
      <trkpt lat="38.907685" lon="-9.415628">
        <ele>167.447</ele>
        <time>2019-08-28T11:48:25Z</time>
      </trkpt>
      <trkpt lat="38.906514" lon="-9.416321">
        <ele>165.840</ele>
        <time>2019-08-28T11:48:49Z</time>
      </trkpt>
      <trkpt lat="38.904792" lon="-9.417704">
        <ele>162.988</ele>
        <time>2019-08-28T11:49:22Z</time>
      </trkpt>
      <trkpt lat="38.903839" lon="-9.417595">
        <ele>158.796</ele>
        <time>2019-08-28T11:49:42Z</time>
      </trkpt>
      <trkpt lat="38.903359" lon="-9.417292">
        <ele>158.351</ele>
        <time>2019-08-28T11:49:55Z</time>
      </trkpt>
      <trkpt lat="38.902353" lon="-9.417632">
        <ele>156.668</ele>
        <time>2019-08-28T11:52:09Z</time>
      </trkpt>
      <trkpt lat="38.901653" lon="-9.417394">
        <ele>157.291</ele>
        <time>2019-08-28T11:52:28Z</time>
      </trkpt>
      <trkpt lat="38.900967" lon="-9.416890">
        <ele>155.781</ele>
        <time>2019-08-28T11:52:47Z</time>
      </trkpt>
      <trkpt lat="38.900198" lon="-9.416883">
        <ele>153.919</ele>
        <time>2019-08-28T11:53:06Z</time>
      </trkpt>
      <trkpt lat="38.900113" lon="-9.416625">
        <ele>156.008</ele>
        <time>2019-08-28T11:53:13Z</time>
      </trkpt>
      <trkpt lat="38.900119" lon="-9.416008">
        <ele>158.663</ele>
        <time>2019-08-28T11:53:29Z</time>
      </trkpt>
      <trkpt lat="38.900218" lon="-9.416137">
        <ele>158.869</ele>
        <time>2019-08-28T11:53:34Z</time>
      </trkpt>
      <trkpt lat="38.900646" lon="-9.416153">
        <ele>159.754</ele>
        <time>2019-08-28T11:53:46Z</time>
      </trkpt>
      <trkpt lat="38.901424" lon="-9.415947">
        <ele>159.537</ele>
        <time>2019-08-28T11:54:05Z</time>
      </trkpt>
      <trkpt lat="38.902691" lon="-9.414285">
        <ele>165.885</ele>
        <time>2019-08-28T11:55:14Z</time>
      </trkpt>
      <trkpt lat="38.903177" lon="-9.412795">
        <ele>170.393</ele>
        <time>2019-08-28T11:56:01Z</time>
      </trkpt>
      <trkpt lat="38.903463" lon="-9.410283">
        <ele>182.368</ele>
        <time>2019-08-28T11:57:12Z</time>
      </trkpt>
      <trkpt lat="38.903283" lon="-9.409510">
        <ele>183.145</ele>
        <time>2019-08-28T11:57:27Z</time>
      </trkpt>
      <trkpt lat="38.903530" lon="-9.407010">
        <ele>184.997</ele>
        <time>2019-08-28T11:58:08Z</time>
      </trkpt>
      <trkpt lat="38.903065" lon="-9.406537">
        <ele>184.923</ele>
        <time>2019-08-28T11:58:22Z</time>
      </trkpt>
      <trkpt lat="38.902674" lon="-9.405438">
        <ele>186.525</ele>
        <time>2019-08-28T11:58:43Z</time>
      </trkpt>
      <trkpt lat="38.902113" lon="-9.404517">
        <ele>184.708</ele>
        <time>2019-08-28T11:59:03Z</time>
      </trkpt>
      <trkpt lat="38.900820" lon="-9.400762">
        <ele>189.553</ele>
        <time>2019-08-28T12:00:05Z</time>
      </trkpt>
      <trkpt lat="38.898777" lon="-9.397337">
        <ele>194.579</ele>
        <time>2019-08-28T12:01:16Z</time>
      </trkpt>
      <trkpt lat="38.898272" lon="-9.397085">
        <ele>192.684</ele>
        <time>2019-08-28T12:01:26Z</time>
      </trkpt>
      <trkpt lat="38.894281" lon="-9.396247">
        <ele>194.397</ele>
        <time>2019-08-28T12:02:42Z</time>
      </trkpt>
      <trkpt lat="38.894843" lon="-9.396245">
        <ele>193.965</ele>
        <time>2019-08-28T12:03:13Z</time>
      </trkpt>
      <trkpt lat="38.894805" lon="-9.395268">
        <ele>195.583</ele>
        <time>2019-08-28T12:03:33Z</time>
      </trkpt>
      <trkpt lat="38.894619" lon="-9.394867">
        <ele>196.738</ele>
        <time>2019-08-28T12:03:43Z</time>
      </trkpt>
      <trkpt lat="38.893046" lon="-9.393848">
        <ele>200.855</ele>
        <time>2019-08-28T12:04:26Z</time>
      </trkpt>
      <trkpt lat="38.889962" lon="-9.391096">
        <ele>211.054</ele>
        <time>2019-08-28T12:05:56Z</time>
      </trkpt>
      <trkpt lat="38.888355" lon="-9.393055">
        <ele>207.756</ele>
        <time>2019-08-28T12:06:33Z</time>
      </trkpt>
      <trkpt lat="38.885621" lon="-9.394384">
        <ele>195.011</ele>
        <time>2019-08-28T12:07:08Z</time>
      </trkpt>
      <trkpt lat="38.884125" lon="-9.396426">
        <ele>182.608</ele>
        <time>2019-08-28T12:07:34Z</time>
      </trkpt>
      <trkpt lat="38.883501" lon="-9.396617">
        <ele>177.519</ele>
        <time>2019-08-28T12:07:46Z</time>
      </trkpt>
      <trkpt lat="38.883106" lon="-9.396573">
        <ele>175.525</ele>
        <time>2019-08-28T12:07:53Z</time>
      </trkpt>
      <trkpt lat="38.881597" lon="-9.395420">
        <ele>164.610</ele>
        <time>2019-08-28T12:08:12Z</time>
      </trkpt>
      <trkpt lat="38.881195" lon="-9.395300">
        <ele>161.893</ele>
        <time>2019-08-28T12:08:16Z</time>
      </trkpt>
      <trkpt lat="38.880843" lon="-9.395529">
        <ele>159.911</ele>
        <time>2019-08-28T12:08:20Z</time>
      </trkpt>
      <trkpt lat="38.879928" lon="-9.396840">
        <ele>165.689</ele>
        <time>2019-08-28T12:09:08Z</time>
      </trkpt>
      <trkpt lat="38.879261" lon="-9.397079">
        <ele>176.954</ele>
        <time>2019-08-28T12:09:52Z</time>
      </trkpt>
      <trkpt lat="38.878459" lon="-9.397011">
        <ele>185.551</ele>
        <time>2019-08-28T12:10:41Z</time>
      </trkpt>
      <trkpt lat="38.877071" lon="-9.397579">
        <ele>198.374</ele>
        <time>2019-08-28T12:11:59Z</time>
      </trkpt>
      <trkpt lat="38.876645" lon="-9.397931">
        <ele>201.756</ele>
        <time>2019-08-28T12:12:22Z</time>
      </trkpt>
      <trkpt lat="38.876081" lon="-9.398814">
        <ele>208.021</ele>
        <time>2019-08-28T12:13:05Z</time>
      </trkpt>
      <trkpt lat="38.875325" lon="-9.398608">
        <ele>205.608</ele>
        <time>2019-08-28T12:13:30Z</time>
      </trkpt>
      <trkpt lat="38.870325" lon="-9.398933">
        <ele>208.251</ele>
        <time>2019-08-28T12:16:16Z</time>
      </trkpt>
      <trkpt lat="38.866535" lon="-9.400003">
        <ele>208.327</ele>
        <time>2019-08-28T12:17:42Z</time>
      </trkpt>
      <trkpt lat="38.865442" lon="-9.400760">
        <ele>204.062</ele>
        <time>2019-08-28T12:17:57Z</time>
      </trkpt>
      <trkpt lat="38.863828" lon="-9.402632">
        <ele>193.965</ele>
        <time>2019-08-28T12:18:21Z</time>
      </trkpt>
      <trkpt lat="38.863226" lon="-9.402697">
        <ele>191.563</ele>
        <time>2019-08-28T12:18:32Z</time>
      </trkpt>
      <trkpt lat="38.862896" lon="-9.402887">
        <ele>194.891</ele>
        <time>2019-08-28T12:18:45Z</time>
      </trkpt>
      <trkpt lat="38.861478" lon="-9.405134">
        <ele>209.616</ele>
        <time>2019-08-28T12:23:06Z</time>
      </trkpt>
      <trkpt lat="38.861184" lon="-9.406126">
        <ele>206.683</ele>
        <time>2019-08-28T12:23:20Z</time>
      </trkpt>
      <trkpt lat="38.857327" lon="-9.407981">
        <ele>213.928</ele>
        <time>2019-08-28T12:24:59Z</time>
      </trkpt>
      <trkpt lat="38.855712" lon="-9.409173">
        <ele>217.889</ele>
        <time>2019-08-28T12:25:59Z</time>
      </trkpt>
      <trkpt lat="38.855648" lon="-9.409431">
        <ele>219.117</ele>
        <time>2019-08-28T12:26:05Z</time>
      </trkpt>
      <trkpt lat="38.856188" lon="-9.410515">
        <ele>219.108</ele>
        <time>2019-08-28T12:26:25Z</time>
      </trkpt>
      <trkpt lat="38.858744" lon="-9.413591">
        <ele>217.826</ele>
        <time>2019-08-28T12:27:34Z</time>
      </trkpt>
      <trkpt lat="38.859651" lon="-9.414635">
        <ele>220.242</ele>
        <time>2019-08-28T12:27:58Z</time>
      </trkpt>
      <trkpt lat="38.861399" lon="-9.415887">
        <ele>213.057</ele>
        <time>2019-08-28T12:28:31Z</time>
      </trkpt>
      <trkpt lat="38.862461" lon="-9.417471">
        <ele>208.390</ele>
        <time>2019-08-28T12:28:56Z</time>
      </trkpt>
      <trkpt lat="38.863729" lon="-9.418325">
        <ele>202.568</ele>
        <time>2019-08-28T12:29:16Z</time>
      </trkpt>
      <trkpt lat="38.864886" lon="-9.420013">
        <ele>198.716</ele>
        <time>2019-08-28T12:29:39Z</time>
      </trkpt>
      <trkpt lat="38.865486" lon="-9.420593">
        <ele>196.831</ele>
        <time>2019-08-28T12:29:51Z</time>
      </trkpt>
      <trkpt lat="38.866130" lon="-9.424068">
        <ele>195.098</ele>
        <time>2019-08-28T12:30:35Z</time>
      </trkpt>
      <trkpt lat="38.866544" lon="-9.425167">
        <ele>194.142</ele>
        <time>2019-08-28T12:30:49Z</time>
      </trkpt>
      <trkpt lat="38.866664" lon="-9.425913">
        <ele>193.522</ele>
        <time>2019-08-28T12:30:58Z</time>
      </trkpt>
      <trkpt lat="38.867317" lon="-9.427384">
        <ele>189.714</ele>
        <time>2019-08-28T12:31:17Z</time>
      </trkpt>
      <trkpt lat="38.867708" lon="-9.431358">
        <ele>185.708</ele>
        <time>2019-08-28T12:32:08Z</time>
      </trkpt>
      <trkpt lat="38.867241" lon="-9.432262">
        <ele>185.128</ele>
        <time>2019-08-28T12:32:22Z</time>
      </trkpt>
      <trkpt lat="38.867625" lon="-9.436708">
        <ele>175.664</ele>
        <time>2019-08-28T12:33:15Z</time>
      </trkpt>
      <trkpt lat="38.868028" lon="-9.438846">
        <ele>168.589</ele>
        <time>2019-08-28T12:33:39Z</time>
      </trkpt>
      <trkpt lat="38.867960" lon="-9.440811">
        <ele>159.942</ele>
        <time>2019-08-28T12:33:55Z</time>
      </trkpt>
      <trkpt lat="38.867837" lon="-9.441276">
        <ele>157.790</ele>
        <time>2019-08-28T12:33:59Z</time>
      </trkpt>
      <trkpt lat="38.866872" lon="-9.442366">
        <ele>149.638</ele>
        <time>2019-08-28T12:34:19Z</time>
      </trkpt>
      <trkpt lat="38.865781" lon="-9.443223">
        <ele>148.533</ele>
        <time>2019-08-28T12:34:40Z</time>
      </trkpt>
      <trkpt lat="38.865359" lon="-9.444143">
        <ele>144.710</ele>
        <time>2019-08-28T12:34:49Z</time>
      </trkpt>
      <trkpt lat="38.865360" lon="-9.446489">
        <ele>123.319</ele>
        <time>2019-08-28T12:35:11Z</time>
      </trkpt>
      <trkpt lat="38.865206" lon="-9.446711">
        <ele>77.609</ele>
        <time>2019-08-28T12:37:05Z</time>
      </trkpt>
      <trkpt lat="38.865090" lon="-9.447912">
        <ele>111.019</ele>
        <time>2019-08-28T12:37:23Z</time>
      </trkpt>
      <trkpt lat="38.864625" lon="-9.447713">
        <ele>103.708</ele>
        <time>2019-08-28T12:39:26Z</time>
      </trkpt>
      <trkpt lat="38.865104" lon="-9.448003">
        <ele>101.445</ele>
        <time>2019-08-28T12:40:06Z</time>
      </trkpt>
      <trkpt lat="38.865481" lon="-9.450442">
        <ele>83.791</ele>
        <time>2019-08-28T12:40:55Z</time>
      </trkpt>
      <trkpt lat="38.865265" lon="-9.450333">
        <ele>80.786</ele>
        <time>2019-08-28T12:41:12Z</time>
      </trkpt>
      <trkpt lat="38.865417" lon="-9.450235">
        <ele>82.459</ele>
        <time>2019-08-28T12:41:54Z</time>
      </trkpt>
      <trkpt lat="38.864971" lon="-9.449357">
        <ele>84.647</ele>
        <time>2019-08-28T12:44:59Z</time>
      </trkpt>
      <trkpt lat="38.864466" lon="-9.449085">
        <ele>80.055</ele>
        <time>2019-08-28T12:45:08Z</time>
      </trkpt>
      <trkpt lat="38.864003" lon="-9.449087">
        <ele>74.920</ele>
        <time>2019-08-28T12:45:17Z</time>
      </trkpt>
      <trkpt lat="38.863313" lon="-9.448296">
        <ele>60.217</ele>
        <time>2019-08-28T12:47:16Z</time>
      </trkpt>
      <trkpt lat="38.863194" lon="-9.446477">
        <ele>66.156</ele>
        <time>2019-08-28T12:48:30Z</time>
      </trkpt>
      <trkpt lat="38.862999" lon="-9.446261">
        <ele>71.559</ele>
        <time>2019-08-28T12:49:28Z</time>
      </trkpt>
      <trkpt lat="38.862720" lon="-9.446274">
        <ele>74.614</ele>
        <time>2019-08-28T12:50:05Z</time>
      </trkpt>
      <trkpt lat="38.862738" lon="-9.447232">
        <ele>95.508</ele>
        <time>2019-08-28T12:51:38Z</time>
      </trkpt>
      <trkpt lat="38.862429" lon="-9.448452">
        <ele>103.659</ele>
        <time>2019-08-28T12:52:52Z</time>
      </trkpt>
      <trkpt lat="38.862232" lon="-9.448849">
        <ele>108.415</ele>
        <time>2019-08-28T12:53:18Z</time>
      </trkpt>
      <trkpt lat="38.861933" lon="-9.448920">
        <ele>114.490</ele>
        <time>2019-08-28T12:53:39Z</time>
      </trkpt>
      <trkpt lat="38.859238" lon="-9.447081">
        <ele>148.433</ele>
        <time>2019-08-28T12:57:43Z</time>
      </trkpt>
      <trkpt lat="38.858400" lon="-9.446861">
        <ele>153.211</ele>
        <time>2019-08-28T12:58:23Z</time>
      </trkpt>
      <trkpt lat="38.857363" lon="-9.446236">
        <ele>153.359</ele>
        <time>2019-08-28T12:58:57Z</time>
      </trkpt>
      <trkpt lat="38.856566" lon="-9.446533">
        <ele>153.074</ele>
        <time>2019-08-28T12:59:15Z</time>
      </trkpt>
      <trkpt lat="38.855069" lon="-9.446218">
        <ele>156.681</ele>
        <time>2019-08-28T12:59:57Z</time>
      </trkpt>
      <trkpt lat="38.854811" lon="-9.446314">
        <ele>158.777</ele>
        <time>2019-08-28T13:00:08Z</time>
      </trkpt>
      <trkpt lat="38.854272" lon="-9.447004">
        <ele>160.861</ele>
        <time>2019-08-28T13:00:38Z</time>
      </trkpt>
      <trkpt lat="38.854026" lon="-9.447080">
        <ele>161.927</ele>
        <time>2019-08-28T13:00:48Z</time>
      </trkpt>
      <trkpt lat="38.853357" lon="-9.446921">
        <ele>161.008</ele>
        <time>2019-08-28T13:01:09Z</time>
      </trkpt>
      <trkpt lat="38.852890" lon="-9.446414">
        <ele>162.711</ele>
        <time>2019-08-28T13:01:40Z</time>
      </trkpt>
      <trkpt lat="38.853271" lon="-9.446852">
        <ele>162.347</ele>
        <time>2019-08-28T13:01:57Z</time>
      </trkpt>
      <trkpt lat="38.852734" lon="-9.447443">
        <ele>161.642</ele>
        <time>2019-08-28T13:02:19Z</time>
      </trkpt>
      <trkpt lat="38.851829" lon="-9.448901">
        <ele>156.625</ele>
        <time>2019-08-28T13:02:56Z</time>
      </trkpt>
      <trkpt lat="38.852016" lon="-9.448787">
        <ele>161.513</ele>
        <time>2019-08-28T13:03:22Z</time>
      </trkpt>
      <trkpt lat="38.852605" lon="-9.449208">
        <ele>158.171</ele>
        <time>2019-08-28T13:03:41Z</time>
      </trkpt>
      <trkpt lat="38.852567" lon="-9.449961">
        <ele>154.376</ele>
        <time>2019-08-28T13:03:55Z</time>
      </trkpt>
      <trkpt lat="38.851674" lon="-9.451809">
        <ele>148.283</ele>
        <time>2019-08-28T13:04:27Z</time>
      </trkpt>
      <trkpt lat="38.851081" lon="-9.452717">
        <ele>144.745</ele>
        <time>2019-08-28T13:04:43Z</time>
      </trkpt>
      <trkpt lat="38.850493" lon="-9.452953">
        <ele>143.747</ele>
        <time>2019-08-28T13:04:58Z</time>
      </trkpt>
      <trkpt lat="38.850360" lon="-9.452842">
        <ele>144.211</ele>
        <time>2019-08-28T13:05:05Z</time>
      </trkpt>
      <trkpt lat="38.850055" lon="-9.452200">
        <ele>147.408</ele>
        <time>2019-08-28T13:05:26Z</time>
      </trkpt>
      <trkpt lat="38.849853" lon="-9.451069">
        <ele>154.148</ele>
        <time>2019-08-28T13:05:56Z</time>
      </trkpt>
      <trkpt lat="38.849337" lon="-9.450148">
        <ele>154.774</ele>
        <time>2019-08-28T13:06:19Z</time>
      </trkpt>
      <trkpt lat="38.849107" lon="-9.450038">
        <ele>153.899</ele>
        <time>2019-08-28T13:06:27Z</time>
      </trkpt>
      <trkpt lat="38.849685" lon="-9.454405">
        <ele>125.342</ele>
        <time>2019-08-28T13:07:22Z</time>
      </trkpt>
      <trkpt lat="38.850012" lon="-9.455178">
        <ele>115.980</ele>
        <time>2019-08-28T13:07:32Z</time>
      </trkpt>
      <trkpt lat="38.849949" lon="-9.455427">
        <ele>112.278</ele>
        <time>2019-08-28T13:07:36Z</time>
      </trkpt>
      <trkpt lat="38.849493" lon="-9.455592">
        <ele>109.613</ele>
        <time>2019-08-28T13:07:48Z</time>
      </trkpt>
      <trkpt lat="38.846849" lon="-9.457445">
        <ele>126.090</ele>
        <time>2019-08-28T13:09:22Z</time>
      </trkpt>
      <trkpt lat="38.846306" lon="-9.458119">
        <ele>126.269</ele>
        <time>2019-08-28T13:09:38Z</time>
      </trkpt>
      <trkpt lat="38.845527" lon="-9.458661">
        <ele>107.904</ele>
        <time>2019-08-28T13:10:43Z</time>
      </trkpt>
      <trkpt lat="38.844234" lon="-9.459509">
        <ele>121.224</ele>
        <time>2019-08-28T13:11:42Z</time>
      </trkpt>
      <trkpt lat="38.843546" lon="-9.459536">
        <ele>119.708</ele>
        <time>2019-08-28T13:11:58Z</time>
      </trkpt>
      <trkpt lat="38.843033" lon="-9.460179">
        <ele>118.590</ele>
        <time>2019-08-28T13:12:10Z</time>
      </trkpt>
      <trkpt lat="38.841752" lon="-9.460980">
        <ele>112.816</ele>
        <time>2019-08-28T13:12:34Z</time>
      </trkpt>
      <trkpt lat="38.841102" lon="-9.460964">
        <ele>109.131</ele>
        <time>2019-08-28T13:12:42Z</time>
      </trkpt>
      <trkpt lat="38.840026" lon="-9.460098">
        <ele>98.554</ele>
        <time>2019-08-28T13:13:00Z</time>
      </trkpt>
      <trkpt lat="38.840373" lon="-9.460912">
        <ele>90.432</ele>
        <time>2019-08-28T13:15:06Z</time>
      </trkpt>
      <trkpt lat="38.840363" lon="-9.460954">
        <ele>87.158</ele>
        <time>2019-08-28T13:45:38Z</time>
      </trkpt>
      <trkpt lat="38.840358" lon="-9.460851">
        <ele>87.152</ele>
        <time>2019-08-28T13:49:11Z</time>
      </trkpt>
      <trkpt lat="38.840456" lon="-9.460977">
        <ele>87.117</ele>
        <time>2019-08-28T13:49:44Z</time>
      </trkpt>
      <trkpt lat="38.840236" lon="-9.460620">
        <ele>87.108</ele>
        <time>2019-08-28T13:50:56Z</time>
      </trkpt>
      <trkpt lat="38.839955" lon="-9.461052">
        <ele>87.449</ele>
        <time>2019-08-28T13:51:10Z</time>
      </trkpt>
      <trkpt lat="38.839986" lon="-9.461881">
        <ele>90.855</ele>
        <time>2019-08-28T13:52:16Z</time>
      </trkpt>
      <trkpt lat="38.839558" lon="-9.462967">
        <ele>97.381</ele>
        <time>2019-08-28T13:53:13Z</time>
      </trkpt>
      <trkpt lat="38.839107" lon="-9.463372">
        <ele>97.461</ele>
        <time>2019-08-28T13:53:29Z</time>
      </trkpt>
      <trkpt lat="38.838455" lon="-9.463719">
        <ele>96.694</ele>
        <time>2019-08-28T13:53:43Z</time>
      </trkpt>
      <trkpt lat="38.837658" lon="-9.463769">
        <ele>95.948</ele>
        <time>2019-08-28T13:54:16Z</time>
      </trkpt>
      <trkpt lat="38.836947" lon="-9.464750">
        <ele>92.430</ele>
        <time>2019-08-28T13:54:38Z</time>
      </trkpt>
      <trkpt lat="38.835240" lon="-9.465996">
        <ele>90.590</ele>
        <time>2019-08-28T13:55:12Z</time>
      </trkpt>
      <trkpt lat="38.830168" lon="-9.468159">
        <ele>81.178</ele>
        <time>2019-08-28T13:56:25Z</time>
      </trkpt>
      <trkpt lat="38.827995" lon="-9.469553">
        <ele>79.033</ele>
        <time>2019-08-28T13:57:00Z</time>
      </trkpt>
      <trkpt lat="38.827331" lon="-9.469533">
        <ele>78.626</ele>
        <time>2019-08-28T13:57:09Z</time>
      </trkpt>
      <trkpt lat="38.825409" lon="-9.468363">
        <ele>80.608</ele>
        <time>2019-08-28T13:57:40Z</time>
      </trkpt>
      <trkpt lat="38.824599" lon="-9.467669">
        <ele>73.661</ele>
        <time>2019-08-28T13:58:02Z</time>
      </trkpt>
      <trkpt lat="38.823466" lon="-9.466015">
        <ele>70.327</ele>
        <time>2019-08-28T13:58:31Z</time>
      </trkpt>
      <trkpt lat="38.821567" lon="-9.464641">
        <ele>77.563</ele>
        <time>2019-08-28T13:59:11Z</time>
      </trkpt>
      <trkpt lat="38.821063" lon="-9.464560">
        <ele>79.753</ele>
        <time>2019-08-28T13:59:20Z</time>
      </trkpt>
      <trkpt lat="38.819648" lon="-9.464993">
        <ele>74.356</ele>
        <time>2019-08-28T13:59:38Z</time>
      </trkpt>
      <trkpt lat="38.818809" lon="-9.465692">
        <ele>70.510</ele>
        <time>2019-08-28T13:59:51Z</time>
      </trkpt>
      <trkpt lat="38.818674" lon="-9.466101">
        <ele>68.692</ele>
        <time>2019-08-28T13:59:57Z</time>
      </trkpt>
      <trkpt lat="38.819227" lon="-9.470144">
        <ele>91.972</ele>
        <time>2019-08-28T14:02:28Z</time>
      </trkpt>
      <trkpt lat="38.819342" lon="-9.472199">
        <ele>101.487</ele>
        <time>2019-08-28T14:03:58Z</time>
      </trkpt>
      <trkpt lat="38.819215" lon="-9.472063">
        <ele>100.942</ele>
        <time>2019-08-28T14:04:09Z</time>
      </trkpt>
      <trkpt lat="38.816333" lon="-9.472200">
        <ele>111.126</ele>
        <time>2019-08-28T14:05:47Z</time>
      </trkpt>
      <trkpt lat="38.814815" lon="-9.472834">
        <ele>111.308</ele>
        <time>2019-08-28T14:06:20Z</time>
      </trkpt>
      <trkpt lat="38.814351" lon="-9.472672">
        <ele>113.742</ele>
        <time>2019-08-28T14:06:34Z</time>
      </trkpt>
      <trkpt lat="38.813860" lon="-9.472025">
        <ele>115.388</ele>
        <time>2019-08-28T14:06:58Z</time>
      </trkpt>
      <trkpt lat="38.811174" lon="-9.472405">
        <ele>130.894</ele>
        <time>2019-08-28T14:08:41Z</time>
      </trkpt>
      <trkpt lat="38.810540" lon="-9.472364">
        <ele>136.194</ele>
        <time>2019-08-28T14:09:18Z</time>
      </trkpt>
      <trkpt lat="38.808912" lon="-9.471922">
        <ele>152.967</ele>
        <time>2019-08-28T14:11:01Z</time>
      </trkpt>
      <trkpt lat="38.807282" lon="-9.472742">
        <ele>169.621</ele>
        <time>2019-08-28T14:12:41Z</time>
      </trkpt>
      <trkpt lat="38.806727" lon="-9.472765">
        <ele>175.233</ele>
        <time>2019-08-28T14:13:08Z</time>
      </trkpt>
      <trkpt lat="38.804962" lon="-9.471886">
        <ele>173.323</ele>
        <time>2019-08-28T14:13:54Z</time>
      </trkpt>
      <trkpt lat="38.804043" lon="-9.471731">
        <ele>173.034</ele>
        <time>2019-08-28T14:14:08Z</time>
      </trkpt>
      <trkpt lat="38.801097" lon="-9.469084">
        <ele>177.255</ele>
        <time>2019-08-28T14:15:32Z</time>
      </trkpt>
      <trkpt lat="38.801377" lon="-9.469321">
        <ele>173.810</ele>
        <time>2019-08-28T14:15:58Z</time>
      </trkpt>
      <trkpt lat="38.801233" lon="-9.469544">
        <ele>173.908</ele>
        <time>2019-08-28T14:16:06Z</time>
      </trkpt>
      <trkpt lat="38.799665" lon="-9.469752">
        <ele>168.947</ele>
        <time>2019-08-28T14:16:35Z</time>
      </trkpt>
      <trkpt lat="38.798721" lon="-9.471593">
        <ele>175.043</ele>
        <time>2019-08-28T14:17:54Z</time>
      </trkpt>
      <trkpt lat="38.797169" lon="-9.472086">
        <ele>187.879</ele>
        <time>2019-08-28T14:19:19Z</time>
      </trkpt>
      <trkpt lat="38.797313" lon="-9.472832">
        <ele>188.099</ele>
        <time>2019-08-28T14:19:44Z</time>
      </trkpt>
      <trkpt lat="38.797632" lon="-9.473403">
        <ele>184.962</ele>
        <time>2019-08-28T14:19:58Z</time>
      </trkpt>
      <trkpt lat="38.797350" lon="-9.474788">
        <ele>168.226</ele>
        <time>2019-08-28T14:20:19Z</time>
      </trkpt>
      <trkpt lat="38.797204" lon="-9.474602">
        <ele>164.638</ele>
        <time>2019-08-28T14:20:36Z</time>
      </trkpt>
      <trkpt lat="38.796656" lon="-9.475036">
        <ele>164.028</ele>
        <time>2019-08-28T14:20:49Z</time>
      </trkpt>
      <trkpt lat="38.796172" lon="-9.474992">
        <ele>160.476</ele>
        <time>2019-08-28T14:20:58Z</time>
      </trkpt>
      <trkpt lat="38.795876" lon="-9.475350">
        <ele>156.090</ele>
        <time>2019-08-28T14:21:06Z</time>
      </trkpt>
      <trkpt lat="38.795212" lon="-9.475179">
        <ele>150.519</ele>
        <time>2019-08-28T14:22:40Z</time>
      </trkpt>
      <trkpt lat="38.795029" lon="-9.476115">
        <ele>140.108</ele>
        <time>2019-08-28T14:23:02Z</time>
      </trkpt>
      <trkpt lat="38.794615" lon="-9.476635">
        <ele>131.421</ele>
        <time>2019-08-28T14:23:17Z</time>
      </trkpt>
      <trkpt lat="38.793998" lon="-9.477025">
        <ele>126.387</ele>
        <time>2019-08-28T14:23:32Z</time>
      </trkpt>
      <trkpt lat="38.793433" lon="-9.476805">
        <ele>124.843</ele>
        <time>2019-08-28T14:23:46Z</time>
      </trkpt>
      <trkpt lat="38.793266" lon="-9.477727">
        <ele>129.313</ele>
        <time>2019-08-28T14:25:04Z</time>
      </trkpt>
      <trkpt lat="38.792529" lon="-9.478554">
        <ele>133.496</ele>
        <time>2019-08-28T14:26:55Z</time>
      </trkpt>
      <trkpt lat="38.792536" lon="-9.479176">
        <ele>133.810</ele>
        <time>2019-08-28T14:27:29Z</time>
      </trkpt>
      <trkpt lat="38.792341" lon="-9.479801">
        <ele>146.232</ele>
        <time>2019-08-28T14:28:48Z</time>
      </trkpt>
      <trkpt lat="38.792021" lon="-9.479960">
        <ele>137.222</ele>
        <time>2019-08-28T14:30:17Z</time>
      </trkpt>
      <trkpt lat="38.791315" lon="-9.480767">
        <ele>160.076</ele>
        <time>2019-08-28T14:31:56Z</time>
      </trkpt>
      <trkpt lat="38.790841" lon="-9.480820">
        <ele>162.090</ele>
        <time>2019-08-28T14:32:12Z</time>
      </trkpt>
      <trkpt lat="38.790066" lon="-9.480439">
        <ele>162.919</ele>
        <time>2019-08-28T14:32:40Z</time>
      </trkpt>
      <trkpt lat="38.789178" lon="-9.480432">
        <ele>174.208</ele>
        <time>2019-08-28T14:33:29Z</time>
      </trkpt>
      <trkpt lat="38.788901" lon="-9.480773">
        <ele>180.131</ele>
        <time>2019-08-28T14:34:03Z</time>
      </trkpt>
      <trkpt lat="38.788746" lon="-9.480622">
        <ele>183.047</ele>
        <time>2019-08-28T14:34:20Z</time>
      </trkpt>
      <trkpt lat="38.788718" lon="-9.480115">
        <ele>186.223</ele>
        <time>2019-08-28T14:34:48Z</time>
      </trkpt>
      <trkpt lat="38.788607" lon="-9.480386">
        <ele>187.553</ele>
        <time>2019-08-28T14:35:16Z</time>
      </trkpt>
      <trkpt lat="38.787419" lon="-9.480895">
        <ele>184.996</ele>
        <time>2019-08-28T14:35:38Z</time>
      </trkpt>
      <trkpt lat="38.787219" lon="-9.481270">
        <ele>184.410</ele>
        <time>2019-08-28T14:35:51Z</time>
      </trkpt>
      <trkpt lat="38.786350" lon="-9.482135">
        <ele>189.142</ele>
        <time>2019-08-28T14:37:06Z</time>
      </trkpt>
      <trkpt lat="38.786089" lon="-9.482100">
        <ele>193.882</ele>
        <time>2019-08-28T14:37:25Z</time>
      </trkpt>
      <trkpt lat="38.784365" lon="-9.482705">
        <ele>206.122</ele>
        <time>2019-08-28T14:39:13Z</time>
      </trkpt>
      <trkpt lat="38.783822" lon="-9.483322">
        <ele>204.462</ele>
        <time>2019-08-28T14:39:37Z</time>
      </trkpt>
      <trkpt lat="38.783207" lon="-9.483155">
        <ele>201.008</ele>
        <time>2019-08-28T14:39:52Z</time>
      </trkpt>
      <trkpt lat="38.782929" lon="-9.483517">
        <ele>200.508</ele>
        <time>2019-08-28T14:39:59Z</time>
      </trkpt>
      <trkpt lat="38.782018" lon="-9.483565">
        <ele>194.646</ele>
        <time>2019-08-28T14:40:17Z</time>
      </trkpt>
      <trkpt lat="38.781981" lon="-9.483751">
        <ele>193.282</ele>
        <time>2019-08-28T14:40:40Z</time>
      </trkpt>
      <trkpt lat="38.782790" lon="-9.484610">
        <ele>193.398</ele>
        <time>2019-08-28T14:41:39Z</time>
      </trkpt>
      <trkpt lat="38.782991" lon="-9.485972">
        <ele>205.558</ele>
        <time>2019-08-28T14:42:47Z</time>
      </trkpt>
      <trkpt lat="38.782604" lon="-9.484963">
        <ele>208.081</ele>
        <time>2019-08-28T14:43:35Z</time>
      </trkpt>
      <trkpt lat="38.781899" lon="-9.484255">
        <ele>209.845</ele>
        <time>2019-08-28T14:44:04Z</time>
      </trkpt>
      <trkpt lat="38.781008" lon="-9.484314">
        <ele>212.297</ele>
        <time>2019-08-28T14:44:29Z</time>
      </trkpt>
      <trkpt lat="38.780545" lon="-9.484109">
        <ele>218.147</ele>
        <time>2019-08-28T14:44:51Z</time>
      </trkpt>
      <trkpt lat="38.780652" lon="-9.482869">
        <ele>230.992</ele>
        <time>2019-08-28T14:45:56Z</time>
      </trkpt>
      <trkpt lat="38.780239" lon="-9.482337">
        <ele>235.973</ele>
        <time>2019-08-28T14:46:32Z</time>
      </trkpt>
      <trkpt lat="38.779593" lon="-9.482210">
        <ele>240.420</ele>
        <time>2019-08-28T14:47:11Z</time>
      </trkpt>
      <trkpt lat="38.778451" lon="-9.482767">
        <ele>253.708</ele>
        <time>2019-08-28T14:48:19Z</time>
      </trkpt>
      <trkpt lat="38.778220" lon="-9.482725">
        <ele>255.443</ele>
        <time>2019-08-28T14:48:31Z</time>
      </trkpt>
      <trkpt lat="38.777133" lon="-9.482092">
        <ele>263.279</ele>
        <time>2019-08-28T14:49:37Z</time>
      </trkpt>
      <trkpt lat="38.776539" lon="-9.481525">
        <ele>268.195</ele>
        <time>2019-08-28T14:50:16Z</time>
      </trkpt>
      <trkpt lat="38.772671" lon="-9.478826">
        <ele>289.785</ele>
        <time>2019-08-28T14:54:18Z</time>
      </trkpt>
      <trkpt lat="38.771933" lon="-9.477982">
        <ele>296.398</ele>
        <time>2019-08-28T14:54:57Z</time>
      </trkpt>
      <trkpt lat="38.771848" lon="-9.477128">
        <ele>299.182</ele>
        <time>2019-08-28T14:55:27Z</time>
      </trkpt>
      <trkpt lat="38.772643" lon="-9.476482">
        <ele>306.424</ele>
        <time>2019-08-28T14:56:57Z</time>
      </trkpt>
      <trkpt lat="38.772209" lon="-9.476701">
        <ele>305.654</ele>
        <time>2019-08-28T14:57:12Z</time>
      </trkpt>
      <trkpt lat="38.772647" lon="-9.473769">
        <ele>297.363</ele>
        <time>2019-08-28T14:57:59Z</time>
      </trkpt>
      <trkpt lat="38.773053" lon="-9.472424">
        <ele>286.344</ele>
        <time>2019-08-28T14:58:34Z</time>
      </trkpt>
      <trkpt lat="38.772611" lon="-9.471612">
        <ele>275.018</ele>
        <time>2019-08-28T14:58:55Z</time>
      </trkpt>
      <trkpt lat="38.772247" lon="-9.471912">
        <ele>274.508</ele>
        <time>2019-08-28T14:59:55Z</time>
      </trkpt>
      <trkpt lat="38.771478" lon="-9.473216">
        <ele>288.220</ele>
        <time>2019-08-28T15:00:30Z</time>
      </trkpt>
      <trkpt lat="38.770769" lon="-9.473993">
        <ele>289.646</ele>
        <time>2019-08-28T15:01:02Z</time>
      </trkpt>
      <trkpt lat="38.770148" lon="-9.474166">
        <ele>288.552</ele>
        <time>2019-08-28T15:01:20Z</time>
      </trkpt>
      <trkpt lat="38.768599" lon="-9.474024">
        <ele>291.232</ele>
        <time>2019-08-28T15:03:23Z</time>
      </trkpt>
      <trkpt lat="38.767045" lon="-9.473426">
        <ele>301.015</ele>
        <time>2019-08-28T15:04:25Z</time>
      </trkpt>
      <trkpt lat="38.766401" lon="-9.473335">
        <ele>304.969</ele>
        <time>2019-08-28T15:05:23Z</time>
      </trkpt>
      <trkpt lat="38.765266" lon="-9.472207">
        <ele>299.331</ele>
        <time>2019-08-28T15:05:47Z</time>
      </trkpt>
      <trkpt lat="38.764822" lon="-9.471224">
        <ele>297.491</ele>
        <time>2019-08-28T15:05:59Z</time>
      </trkpt>
      <trkpt lat="38.763294" lon="-9.470295">
        <ele>287.464</ele>
        <time>2019-08-28T15:07:05Z</time>
      </trkpt>
      <trkpt lat="38.762530" lon="-9.469647">
        <ele>284.206</ele>
        <time>2019-08-28T15:07:27Z</time>
      </trkpt>
      <trkpt lat="38.762117" lon="-9.468286">
        <ele>280.316</ele>
        <time>2019-08-28T15:07:43Z</time>
      </trkpt>
      <trkpt lat="38.761843" lon="-9.467971">
        <ele>279.308</ele>
        <time>2019-08-28T15:07:48Z</time>
      </trkpt>
      <trkpt lat="38.761392" lon="-9.467783">
        <ele>277.580</ele>
        <time>2019-08-28T15:07:54Z</time>
      </trkpt>
      <trkpt lat="38.761213" lon="-9.467455">
        <ele>276.296</ele>
        <time>2019-08-28T15:07:58Z</time>
      </trkpt>
      <trkpt lat="38.761193" lon="-9.467007">
        <ele>275.792</ele>
        <time>2019-08-28T15:08:03Z</time>
      </trkpt>
      <trkpt lat="38.761568" lon="-9.465930">
        <ele>275.392</ele>
        <time>2019-08-28T15:08:19Z</time>
      </trkpt>
      <trkpt lat="38.761404" lon="-9.465265">
        <ele>275.385</ele>
        <time>2019-08-28T15:08:27Z</time>
      </trkpt>
      <trkpt lat="38.761124" lon="-9.465102">
        <ele>274.469</ele>
        <time>2019-08-28T15:08:31Z</time>
      </trkpt>
      <trkpt lat="38.759731" lon="-9.465213">
        <ele>249.511</ele>
        <time>2019-08-28T15:09:20Z</time>
      </trkpt>
      <trkpt lat="38.758932" lon="-9.464729">
        <ele>261.071</ele>
        <time>2019-08-28T15:10:08Z</time>
      </trkpt>
      <trkpt lat="38.758559" lon="-9.464060">
        <ele>260.982</ele>
        <time>2019-08-28T15:10:16Z</time>
      </trkpt>
      <trkpt lat="38.758417" lon="-9.462893">
        <ele>261.543</ele>
        <time>2019-08-28T15:10:27Z</time>
      </trkpt>
      <trkpt lat="38.757595" lon="-9.461920">
        <ele>261.017</ele>
        <time>2019-08-28T15:10:41Z</time>
      </trkpt>
      <trkpt lat="38.757329" lon="-9.461308">
        <ele>260.608</ele>
        <time>2019-08-28T15:10:48Z</time>
      </trkpt>
      <trkpt lat="38.757310" lon="-9.460749">
        <ele>261.122</ele>
        <time>2019-08-28T15:10:54Z</time>
      </trkpt>
      <trkpt lat="38.758622" lon="-9.459945">
        <ele>263.538</ele>
        <time>2019-08-28T15:11:31Z</time>
      </trkpt>
      <trkpt lat="38.758798" lon="-9.459616">
        <ele>262.824</ele>
        <time>2019-08-28T15:11:38Z</time>
      </trkpt>
      <trkpt lat="38.758722" lon="-9.459328">
        <ele>262.224</ele>
        <time>2019-08-28T15:11:42Z</time>
      </trkpt>
      <trkpt lat="38.758520" lon="-9.459184">
        <ele>262.067</ele>
        <time>2019-08-28T15:11:45Z</time>
      </trkpt>
      <trkpt lat="38.757603" lon="-9.459301">
        <ele>257.531</ele>
        <time>2019-08-28T15:11:55Z</time>
      </trkpt>
      <trkpt lat="38.756463" lon="-9.457986">
        <ele>250.483</ele>
        <time>2019-08-28T15:12:09Z</time>
      </trkpt>
      <trkpt lat="38.755545" lon="-9.457894">
        <ele>245.343</ele>
        <time>2019-08-28T15:12:18Z</time>
      </trkpt>
      <trkpt lat="38.754849" lon="-9.456580">
        <ele>238.784</ele>
        <time>2019-08-28T15:12:30Z</time>
      </trkpt>
      <trkpt lat="38.753090" lon="-9.457550">
        <ele>227.307</ele>
        <time>2019-08-28T15:12:50Z</time>
      </trkpt>
      <trkpt lat="38.752698" lon="-9.457531">
        <ele>225.017</ele>
        <time>2019-08-28T15:12:54Z</time>
      </trkpt>
      <trkpt lat="38.752462" lon="-9.457290">
        <ele>223.608</ele>
        <time>2019-08-28T15:12:57Z</time>
      </trkpt>
      <trkpt lat="38.752090" lon="-9.455374">
        <ele>217.022</ele>
        <time>2019-08-28T15:13:15Z</time>
      </trkpt>
      <trkpt lat="38.753160" lon="-9.453191">
        <ele>208.668</ele>
        <time>2019-08-28T15:14:34Z</time>
      </trkpt>
      <trkpt lat="38.753099" lon="-9.452942">
        <ele>208.664</ele>
        <time>2019-08-28T15:14:37Z</time>
      </trkpt>
      <trkpt lat="38.752269" lon="-9.451994">
        <ele>204.084</ele>
        <time>2019-08-28T15:15:20Z</time>
      </trkpt>
      <trkpt lat="38.752715" lon="-9.450735">
        <ele>198.547</ele>
        <time>2019-08-28T15:15:41Z</time>
      </trkpt>
      <trkpt lat="38.752499" lon="-9.450392">
        <ele>195.561</ele>
        <time>2019-08-28T15:15:47Z</time>
      </trkpt>
      <trkpt lat="38.750978" lon="-9.450237">
        <ele>187.283</ele>
        <time>2019-08-28T15:16:04Z</time>
      </trkpt>
      <trkpt lat="38.748897" lon="-9.450342">
        <ele>175.533</ele>
        <time>2019-08-28T15:16:22Z</time>
      </trkpt>
      <trkpt lat="38.748343" lon="-9.450554">
        <ele>172.333</ele>
        <time>2019-08-28T15:16:27Z</time>
      </trkpt>
      <trkpt lat="38.747441" lon="-9.451461">
        <ele>164.323</ele>
        <time>2019-08-28T15:16:37Z</time>
      </trkpt>
      <trkpt lat="38.745408" lon="-9.451350">
        <ele>154.515</ele>
        <time>2019-08-28T15:16:55Z</time>
      </trkpt>
      <trkpt lat="38.745049" lon="-9.451656">
        <ele>152.108</ele>
        <time>2019-08-28T15:16:59Z</time>
      </trkpt>
      <trkpt lat="38.744671" lon="-9.452553">
        <ele>147.267</ele>
        <time>2019-08-28T15:17:06Z</time>
      </trkpt>
      <trkpt lat="38.743641" lon="-9.453534">
        <ele>142.133</ele>
        <time>2019-08-28T15:17:17Z</time>
      </trkpt>
      <trkpt lat="38.742454" lon="-9.453756">
        <ele>136.599</ele>
        <time>2019-08-28T15:17:27Z</time>
      </trkpt>
      <trkpt lat="38.741462" lon="-9.454217">
        <ele>131.189</ele>
        <time>2019-08-28T15:17:36Z</time>
      </trkpt>
      <trkpt lat="38.740396" lon="-9.454386">
        <ele>126.452</ele>
        <time>2019-08-28T15:17:45Z</time>
      </trkpt>
      <trkpt lat="38.738924" lon="-9.455026">
        <ele>118.466</ele>
        <time>2019-08-28T15:17:58Z</time>
      </trkpt>
      <trkpt lat="38.738317" lon="-9.455868">
        <ele>113.498</ele>
        <time>2019-08-28T15:18:06Z</time>
      </trkpt>
      <trkpt lat="38.737448" lon="-9.455894">
        <ele>109.358</ele>
        <time>2019-08-28T15:18:14Z</time>
      </trkpt>
      <trkpt lat="38.735931" lon="-9.456737">
        <ele>100.858</ele>
        <time>2019-08-28T15:18:30Z</time>
      </trkpt>
      <trkpt lat="38.735607" lon="-9.457102">
        <ele>99.152</ele>
        <time>2019-08-28T15:18:35Z</time>
      </trkpt>
      <trkpt lat="38.735353" lon="-9.457734">
        <ele>96.617</ele>
        <time>2019-08-28T15:18:42Z</time>
      </trkpt>
      <trkpt lat="38.735437" lon="-9.459981">
        <ele>94.108</ele>
        <time>2019-08-28T15:19:02Z</time>
      </trkpt>
      <trkpt lat="38.734666" lon="-9.461176">
        <ele>88.769</ele>
        <time>2019-08-28T15:19:15Z</time>
      </trkpt>
      <trkpt lat="38.734073" lon="-9.464266">
        <ele>79.715</ele>
        <time>2019-08-28T15:19:43Z</time>
      </trkpt>
      <trkpt lat="38.733392" lon="-9.465446">
        <ele>77.851</ele>
        <time>2019-08-28T15:19:57Z</time>
      </trkpt>
      <trkpt lat="38.732256" lon="-9.468057">
        <ele>67.991</ele>
        <time>2019-08-28T15:20:27Z</time>
      </trkpt>
      <trkpt lat="38.732067" lon="-9.468239">
        <ele>68.094</ele>
        <time>2019-08-28T15:20:32Z</time>
      </trkpt>
      <trkpt lat="38.731145" lon="-9.468544">
        <ele>68.618</ele>
        <time>2019-08-28T15:25:29Z</time>
      </trkpt>
      <trkpt lat="38.730293" lon="-9.469314">
        <ele>72.790</ele>
        <time>2019-08-28T15:26:01Z</time>
      </trkpt>
      <trkpt lat="38.728753" lon="-9.468500">
        <ele>87.690</ele>
        <time>2019-08-28T15:27:34Z</time>
      </trkpt>
      <trkpt lat="38.726873" lon="-9.468405">
        <ele>101.588</ele>
        <time>2019-08-28T15:29:14Z</time>
      </trkpt>
      <trkpt lat="38.725737" lon="-9.467903">
        <ele>100.624</ele>
        <time>2019-08-28T15:29:43Z</time>
      </trkpt>
      <trkpt lat="38.724421" lon="-9.467052">
        <ele>94.626</ele>
        <time>2019-08-28T15:30:09Z</time>
      </trkpt>
      <trkpt lat="38.721689" lon="-9.466092">
        <ele>110.608</ele>
        <time>2019-08-28T15:31:36Z</time>
      </trkpt>
      <trkpt lat="38.721497" lon="-9.466564">
        <ele>125.172</ele>
        <time>2019-08-30T10:11:50Z</time>
      </trkpt>
      <trkpt lat="38.721787" lon="-9.466147">
        <ele>123.568</ele>
        <time>2019-08-30T10:12:35Z</time>
      </trkpt>
      <trkpt lat="38.722793" lon="-9.466362">
        <ele>119.214</ele>
        <time>2019-08-30T10:13:00Z</time>
      </trkpt>
      <trkpt lat="38.724247" lon="-9.466930">
        <ele>116.374</ele>
        <time>2019-08-30T10:13:23Z</time>
      </trkpt>
      <trkpt lat="38.725976" lon="-9.468006">
        <ele>107.027</ele>
        <time>2019-08-30T10:13:59Z</time>
      </trkpt>
      <trkpt lat="38.726936" lon="-9.468422">
        <ele>103.251</ele>
        <time>2019-08-30T10:14:25Z</time>
      </trkpt>
      <trkpt lat="38.727254" lon="-9.468344">
        <ele>101.463</ele>
        <time>2019-08-30T10:14:32Z</time>
      </trkpt>
      <trkpt lat="38.728907" lon="-9.468535">
        <ele>92.373</ele>
        <time>2019-08-30T10:15:27Z</time>
      </trkpt>
      <trkpt lat="38.730133" lon="-9.469272">
        <ele>80.432</ele>
        <time>2019-08-30T10:15:43Z</time>
      </trkpt>
      <trkpt lat="38.730200" lon="-9.469473">
        <ele>78.592</ele>
        <time>2019-08-30T10:15:47Z</time>
      </trkpt>
      <trkpt lat="38.729304" lon="-9.473928">
        <ele>74.811</ele>
        <time>2019-08-30T10:17:03Z</time>
      </trkpt>
      <trkpt lat="38.728933" lon="-9.474371">
        <ele>71.608</ele>
        <time>2019-08-30T10:17:11Z</time>
      </trkpt>
      <trkpt lat="38.728378" lon="-9.474627">
        <ele>70.887</ele>
        <time>2019-08-30T10:17:20Z</time>
      </trkpt>
      <trkpt lat="38.727678" lon="-9.474621">
        <ele>70.793</ele>
        <time>2019-08-30T10:17:31Z</time>
      </trkpt>
      <trkpt lat="38.726370" lon="-9.474266">
        <ele>70.049</ele>
        <time>2019-08-30T10:17:54Z</time>
      </trkpt>
      <trkpt lat="38.724639" lon="-9.474789">
        <ele>70.899</ele>
        <time>2019-08-30T10:18:26Z</time>
      </trkpt>
      <trkpt lat="38.724181" lon="-9.475240">
        <ele>72.682</ele>
        <time>2019-08-30T10:18:37Z</time>
      </trkpt>
      <trkpt lat="38.723458" lon="-9.476689">
        <ele>72.966</ele>
        <time>2019-08-30T10:19:29Z</time>
      </trkpt>
      <trkpt lat="38.722702" lon="-9.477696">
        <ele>71.848</ele>
        <time>2019-08-30T10:20:30Z</time>
      </trkpt>
      <trkpt lat="38.722308" lon="-9.477830">
        <ele>72.018</ele>
        <time>2019-08-30T10:20:39Z</time>
      </trkpt>
      <trkpt lat="38.721285" lon="-9.477759">
        <ele>73.786</ele>
        <time>2019-08-30T10:20:59Z</time>
      </trkpt>
      <trkpt lat="38.720729" lon="-9.477971">
        <ele>73.660</ele>
        <time>2019-08-30T10:21:09Z</time>
      </trkpt>
      <trkpt lat="38.716973" lon="-9.480621">
        <ele>69.326</ele>
        <time>2019-08-30T10:22:16Z</time>
      </trkpt>
      <trkpt lat="38.715021" lon="-9.482829">
        <ele>66.808</ele>
        <time>2019-08-30T10:23:00Z</time>
      </trkpt>
      <trkpt lat="38.712253" lon="-9.484319">
        <ele>65.862</ele>
        <time>2019-08-30T10:23:46Z</time>
      </trkpt>
      <trkpt lat="38.710552" lon="-9.484849">
        <ele>64.428</ele>
        <time>2019-08-30T10:24:12Z</time>
      </trkpt>
      <trkpt lat="38.709763" lon="-9.484840">
        <ele>64.484</ele>
        <time>2019-08-30T10:24:24Z</time>
      </trkpt>
      <trkpt lat="38.708946" lon="-9.484609">
        <ele>64.284</ele>
        <time>2019-08-30T10:24:38Z</time>
      </trkpt>
      <trkpt lat="38.707708" lon="-9.483740">
        <ele>64.537</ele>
        <time>2019-08-30T10:24:59Z</time>
      </trkpt>
      <trkpt lat="38.706713" lon="-9.482339">
        <ele>66.781</ele>
        <time>2019-08-30T10:25:21Z</time>
      </trkpt>
      <trkpt lat="38.705070" lon="-9.479269">
        <ele>68.693</ele>
        <time>2019-08-30T10:26:09Z</time>
      </trkpt>
      <trkpt lat="38.703608" lon="-9.477570">
        <ele>66.393</ele>
        <time>2019-08-30T10:26:39Z</time>
      </trkpt>
      <trkpt lat="38.700007" lon="-9.468127">
        <ele>71.146</ele>
        <time>2019-08-30T10:28:54Z</time>
      </trkpt>
      <trkpt lat="38.699748" lon="-9.468491">
        <ele>68.788</ele>
        <time>2019-08-30T10:30:20Z</time>
      </trkpt>
      <trkpt lat="38.699917" lon="-9.468193">
        <ele>69.716</ele>
        <time>2019-08-30T10:31:35Z</time>
      </trkpt>
      <trkpt lat="38.699421" lon="-9.466880">
        <ele>70.008</ele>
        <time>2019-08-30T10:32:09Z</time>
      </trkpt>
      <trkpt lat="38.698227" lon="-9.465059">
        <ele>72.848</ele>
        <time>2019-08-30T10:32:47Z</time>
      </trkpt>
      <trkpt lat="38.696794" lon="-9.461609">
        <ele>68.564</ele>
        <time>2019-08-30T10:33:42Z</time>
      </trkpt>
      <trkpt lat="38.695832" lon="-9.459964">
        <ele>67.740</ele>
        <time>2019-08-30T10:34:10Z</time>
      </trkpt>
      <trkpt lat="38.695486" lon="-9.458098">
        <ele>69.230</ele>
        <time>2019-08-30T10:34:36Z</time>
      </trkpt>
      <trkpt lat="38.695467" lon="-9.450410">
        <ele>84.063</ele>
        <time>2019-08-30T10:36:46Z</time>
      </trkpt>
      <trkpt lat="38.695959" lon="-9.447977">
        <ele>87.067</ele>
        <time>2019-08-30T10:37:29Z</time>
      </trkpt>
      <trkpt lat="38.695851" lon="-9.441641">
        <ele>91.159</ele>
        <time>2019-08-30T10:39:11Z</time>
      </trkpt>
      <trkpt lat="38.695745" lon="-9.441221">
        <ele>89.929</ele>
        <time>2019-08-30T10:39:25Z</time>
      </trkpt>
      <trkpt lat="38.695914" lon="-9.440768">
        <ele>86.545</ele>
        <time>2019-08-30T10:39:36Z</time>
      </trkpt>
      <trkpt lat="38.695909" lon="-9.439437">
        <ele>87.947</ele>
        <time>2019-08-30T10:40:06Z</time>
      </trkpt>
      <trkpt lat="38.695188" lon="-9.437248">
        <ele>90.711</ele>
        <time>2019-08-30T10:40:52Z</time>
      </trkpt>
      <trkpt lat="38.693466" lon="-9.434832">
        <ele>86.008</ele>
        <time>2019-08-30T10:47:12Z</time>
      </trkpt>
      <trkpt lat="38.692219" lon="-9.433365">
        <ele>83.248</ele>
        <time>2019-08-30T10:47:40Z</time>
      </trkpt>
      <trkpt lat="38.691810" lon="-9.431869">
        <ele>80.414</ele>
        <time>2019-08-30T10:48:00Z</time>
      </trkpt>
      <trkpt lat="38.691812" lon="-9.431003">
        <ele>79.380</ele>
        <time>2019-08-30T10:48:14Z</time>
      </trkpt>
      <trkpt lat="38.691395" lon="-9.430044">
        <ele>82.790</ele>
        <time>2019-08-30T10:50:26Z</time>
      </trkpt>
      <trkpt lat="38.691123" lon="-9.429997">
        <ele>82.113</ele>
        <time>2019-08-30T10:50:49Z</time>
      </trkpt>
      <trkpt lat="38.691022" lon="-9.430479">
        <ele>79.727</ele>
        <time>2019-08-30T10:52:11Z</time>
      </trkpt>
      <trkpt lat="38.691084" lon="-9.430302">
        <ele>78.239</ele>
        <time>2019-08-30T10:52:30Z</time>
      </trkpt>
      <trkpt lat="38.691272" lon="-9.430393">
        <ele>79.319</ele>
        <time>2019-08-30T10:53:02Z</time>
      </trkpt>
      <trkpt lat="38.691326" lon="-9.430150">
        <ele>76.064</ele>
        <time>2019-08-30T10:54:34Z</time>
      </trkpt>
      <trkpt lat="38.691271" lon="-9.430344">
        <ele>76.006</ele>
        <time>2019-08-30T10:54:40Z</time>
      </trkpt>
      <trkpt lat="38.691090" lon="-9.430263">
        <ele>80.716</ele>
        <time>2019-08-30T10:55:45Z</time>
      </trkpt>
      <trkpt lat="38.691106" lon="-9.430086">
        <ele>78.508</ele>
        <time>2019-08-30T10:56:02Z</time>
      </trkpt>
      <trkpt lat="38.691122" lon="-9.430354">
        <ele>75.770</ele>
        <time>2019-08-30T10:56:50Z</time>
      </trkpt>
      <trkpt lat="38.691271" lon="-9.430373">
        <ele>75.246</ele>
        <time>2019-08-30T10:57:31Z</time>
      </trkpt>
      <trkpt lat="38.691061" lon="-9.430161">
        <ele>75.392</ele>
        <time>2019-08-30T11:00:43Z</time>
      </trkpt>
      <trkpt lat="38.691245" lon="-9.429806">
        <ele>78.062</ele>
        <time>2019-08-30T11:03:45Z</time>
      </trkpt>
      <trkpt lat="38.690505" lon="-9.427630">
        <ele>71.995</ele>
        <time>2019-08-30T11:04:19Z</time>
      </trkpt>
      <trkpt lat="38.690254" lon="-9.423269">
        <ele>65.739</ele>
        <time>2019-08-30T11:08:16Z</time>
      </trkpt>
      <trkpt lat="38.690717" lon="-9.422283">
        <ele>64.411</ele>
        <time>2019-08-30T11:08:33Z</time>
      </trkpt>
      <trkpt lat="38.691553" lon="-9.421810">
        <ele>68.551</ele>
        <time>2019-08-30T11:09:38Z</time>
      </trkpt>
      <trkpt lat="38.691077" lon="-9.421978">
        <ele>65.042</ele>
        <time>2019-08-30T11:13:19Z</time>
      </trkpt>
      <trkpt lat="38.690804" lon="-9.421317">
        <ele>62.222</ele>
        <time>2019-08-30T11:13:50Z</time>
      </trkpt>
      <trkpt lat="38.691252" lon="-9.421944">
        <ele>62.214</ele>
        <time>2019-08-30T11:14:19Z</time>
      </trkpt>
      <trkpt lat="38.691822" lon="-9.421251">
        <ele>63.908</ele>
        <time>2019-08-30T11:15:38Z</time>
      </trkpt>
      <trkpt lat="38.692432" lon="-9.420882">
        <ele>65.048</ele>
        <time>2019-08-30T11:16:05Z</time>
      </trkpt>
      <trkpt lat="38.693573" lon="-9.420589">
        <ele>66.794</ele>
        <time>2019-08-30T11:16:36Z</time>
      </trkpt>
      <trkpt lat="38.694428" lon="-9.420886">
        <ele>69.430</ele>
        <time>2019-08-30T11:17:05Z</time>
      </trkpt>
      <trkpt lat="38.694673" lon="-9.420090">
        <ele>69.910</ele>
        <time>2019-08-30T11:18:40Z</time>
      </trkpt>
      <trkpt lat="38.694007" lon="-9.419604">
        <ele>69.683</ele>
        <time>2019-08-30T11:20:04Z</time>
      </trkpt>
      <trkpt lat="38.694234" lon="-9.419719">
        <ele>72.437</ele>
        <time>2019-08-30T11:20:41Z</time>
      </trkpt>
      <trkpt lat="38.694511" lon="-9.419551">
        <ele>69.769</ele>
        <time>2019-08-30T11:21:18Z</time>
      </trkpt>
      <trkpt lat="38.694613" lon="-9.419916">
        <ele>65.119</ele>
        <time>2019-08-30T11:21:26Z</time>
      </trkpt>
      <trkpt lat="38.694829" lon="-9.420025">
        <ele>65.597</ele>
        <time>2019-08-30T11:21:35Z</time>
      </trkpt>
      <trkpt lat="38.695177" lon="-9.419443">
        <ele>68.723</ele>
        <time>2019-08-30T11:21:52Z</time>
      </trkpt>
      <trkpt lat="38.695444" lon="-9.419353">
        <ele>66.725</ele>
        <time>2019-08-30T11:22:07Z</time>
      </trkpt>
      <trkpt lat="38.696443" lon="-9.420287">
        <ele>64.308</ele>
        <time>2019-08-30T11:32:22Z</time>
      </trkpt>
      <trkpt lat="38.696954" lon="-9.420430">
        <ele>62.473</ele>
        <time>2019-08-30T11:33:36Z</time>
      </trkpt>
      <trkpt lat="38.696857" lon="-9.420314">
        <ele>53.699</ele>
        <time>2019-08-30T11:36:03Z</time>
      </trkpt>
      <trkpt lat="38.697082" lon="-9.419471">
        <ele>59.685</ele>
        <time>2019-08-30T11:36:35Z</time>
      </trkpt>
      <trkpt lat="38.697416" lon="-9.418862">
        <ele>59.045</ele>
        <time>2019-08-30T11:36:54Z</time>
      </trkpt>
      <trkpt lat="38.697190" lon="-9.418428">
        <ele>57.718</ele>
        <time>2019-08-30T11:37:21Z</time>
      </trkpt>
      <trkpt lat="38.697865" lon="-9.419364">
        <ele>57.632</ele>
        <time>2019-08-30T11:39:36Z</time>
      </trkpt>
      <trkpt lat="38.697788" lon="-9.419683">
        <ele>59.344</ele>
        <time>2019-08-30T11:39:55Z</time>
      </trkpt>
      <trkpt lat="38.698968" lon="-9.420661">
        <ele>65.224</ele>
        <time>2019-08-30T11:40:53Z</time>
      </trkpt>
      <trkpt lat="38.699030" lon="-9.420262">
        <ele>65.312</ele>
        <time>2019-08-30T11:41:29Z</time>
      </trkpt>
      <trkpt lat="38.699553" lon="-9.419216">
        <ele>64.232</ele>
        <time>2019-08-30T11:42:07Z</time>
      </trkpt>
      <trkpt lat="38.700000" lon="-9.418686">
        <ele>69.405</ele>
        <time>2019-08-30T11:42:36Z</time>
      </trkpt>
      <trkpt lat="38.699991" lon="-9.418554">
        <ele>71.308</ele>
        <time>2019-08-30T11:42:45Z</time>
      </trkpt>
      <trkpt lat="38.699464" lon="-9.418357">
        <ele>74.635</ele>
        <time>2019-08-30T11:43:20Z</time>
      </trkpt>
      <trkpt lat="38.699945" lon="-9.418459">
        <ele>83.581</ele>
        <time>2019-08-30T11:43:45Z</time>
      </trkpt>
      <trkpt lat="38.700256" lon="-9.418350">
        <ele>80.617</ele>
        <time>2019-08-30T11:44:02Z</time>
      </trkpt>
      <trkpt lat="38.700523" lon="-9.417764">
        <ele>69.297</ele>
        <time>2019-08-30T11:44:33Z</time>
      </trkpt>
      <trkpt lat="38.701086" lon="-9.415616">
        <ele>63.750</ele>
        <time>2019-08-30T11:45:21Z</time>
      </trkpt>
      <trkpt lat="38.701204" lon="-9.414173">
        <ele>64.154</ele>
        <time>2019-08-30T11:45:51Z</time>
      </trkpt>
      <trkpt lat="38.701406" lon="-9.414022">
        <ele>62.586</ele>
        <time>2019-08-30T11:46:18Z</time>
      </trkpt>
      <trkpt lat="38.702238" lon="-9.408722">
        <ele>62.046</ele>
        <time>2019-08-30T11:48:03Z</time>
      </trkpt>
      <trkpt lat="38.703585" lon="-9.406143">
        <ele>60.226</ele>
        <time>2019-08-30T11:48:57Z</time>
      </trkpt>
      <trkpt lat="38.703795" lon="-9.404215">
        <ele>60.947</ele>
        <time>2019-08-30T11:49:29Z</time>
      </trkpt>
      <trkpt lat="38.703650" lon="-9.403617">
        <ele>60.511</ele>
        <time>2019-08-30T11:49:39Z</time>
      </trkpt>
      <trkpt lat="38.703464" lon="-9.403445">
        <ele>60.708</ele>
        <time>2019-08-30T11:49:45Z</time>
      </trkpt>
      <trkpt lat="38.703469" lon="-9.402517">
        <ele>61.866</ele>
        <time>2019-08-30T11:50:01Z</time>
      </trkpt>
      <trkpt lat="38.702999" lon="-9.400331">
        <ele>60.412</ele>
        <time>2019-08-30T11:50:51Z</time>
      </trkpt>
      <trkpt lat="38.702941" lon="-9.398415">
        <ele>62.398</ele>
        <time>2019-08-30T11:52:32Z</time>
      </trkpt>
      <trkpt lat="38.702563" lon="-9.398040">
        <ele>60.128</ele>
        <time>2019-08-30T11:52:45Z</time>
      </trkpt>
      <trkpt lat="38.702322" lon="-9.397456">
        <ele>60.481</ele>
        <time>2019-08-30T11:52:58Z</time>
      </trkpt>
      <trkpt lat="38.702026" lon="-9.396154">
        <ele>58.915</ele>
        <time>2019-08-30T11:53:59Z</time>
      </trkpt>
      <trkpt lat="38.702190" lon="-9.394498">
        <ele>61.297</ele>
        <time>2019-08-30T11:54:42Z</time>
      </trkpt>
      <trkpt lat="38.702060" lon="-9.393087">
        <ele>57.247</ele>
        <time>2019-08-30T11:55:16Z</time>
      </trkpt>
      <trkpt lat="38.702223" lon="-9.391994">
        <ele>60.792</ele>
        <time>2019-08-30T11:55:47Z</time>
      </trkpt>
      <trkpt lat="38.701545" lon="-9.390717">
        <ele>58.473</ele>
        <time>2019-08-30T11:56:31Z</time>
      </trkpt>
      <trkpt lat="38.700626" lon="-9.390200">
        <ele>57.720</ele>
        <time>2019-08-30T11:57:17Z</time>
      </trkpt>
      <trkpt lat="38.701553" lon="-9.390725">
        <ele>60.108</ele>
        <time>2019-08-30T12:04:56Z</time>
      </trkpt>
      <trkpt lat="38.702322" lon="-9.392017">
        <ele>58.563</ele>
        <time>2019-08-30T12:05:28Z</time>
      </trkpt>
      <trkpt lat="38.702629" lon="-9.391962">
        <ele>62.179</ele>
        <time>2019-08-30T12:05:40Z</time>
      </trkpt>
      <trkpt lat="38.702704" lon="-9.391820">
        <ele>62.835</ele>
        <time>2019-08-30T12:05:48Z</time>
      </trkpt>
      <trkpt lat="38.702504" lon="-9.391256">
        <ele>64.415</ele>
        <time>2019-08-30T12:06:00Z</time>
      </trkpt>
      <trkpt lat="38.700208" lon="-9.387359">
        <ele>72.928</ele>
        <time>2019-08-30T12:07:50Z</time>
      </trkpt>
      <trkpt lat="38.701572" lon="-9.386356">
        <ele>84.662</ele>
        <time>2019-08-30T12:08:54Z</time>
      </trkpt>
      <trkpt lat="38.701483" lon="-9.385987">
        <ele>85.894</ele>
        <time>2019-08-30T12:09:25Z</time>
      </trkpt>
      <trkpt lat="38.700245" lon="-9.383367">
        <ele>73.294</ele>
        <time>2019-08-30T12:10:17Z</time>
      </trkpt>
      <trkpt lat="38.699097" lon="-9.382322">
        <ele>71.669</ele>
        <time>2019-08-30T12:10:41Z</time>
      </trkpt>
      <trkpt lat="38.698962" lon="-9.380902">
        <ele>76.404</ele>
        <time>2019-08-30T12:11:10Z</time>
      </trkpt>
      <trkpt lat="38.698335" lon="-9.380329">
        <ele>79.224</ele>
        <time>2019-08-30T12:11:30Z</time>
      </trkpt>
      <trkpt lat="38.697112" lon="-9.378177">
        <ele>77.508</ele>
        <time>2019-08-30T12:12:12Z</time>
      </trkpt>
      <trkpt lat="38.697340" lon="-9.378523">
        <ele>74.830</ele>
        <time>2019-08-30T12:12:32Z</time>
      </trkpt>
      <trkpt lat="38.698224" lon="-9.377846">
        <ele>82.856</ele>
        <time>2019-08-30T12:13:09Z</time>
      </trkpt>
      <trkpt lat="38.697176" lon="-9.375386">
        <ele>85.882</ele>
        <time>2019-08-30T12:13:54Z</time>
      </trkpt>
      <trkpt lat="38.696391" lon="-9.374511">
        <ele>81.212</ele>
        <time>2019-08-30T12:14:08Z</time>
      </trkpt>
      <trkpt lat="38.696036" lon="-9.373250">
        <ele>80.365</ele>
        <time>2019-08-30T12:14:27Z</time>
      </trkpt>
      <trkpt lat="38.696364" lon="-9.372562">
        <ele>79.969</ele>
        <time>2019-08-30T12:15:04Z</time>
      </trkpt>
      <trkpt lat="38.695443" lon="-9.368415">
        <ele>90.291</ele>
        <time>2019-08-30T12:16:15Z</time>
      </trkpt>
      <trkpt lat="38.695344" lon="-9.368277">
        <ele>92.161</ele>
        <time>2019-08-30T12:16:23Z</time>
      </trkpt>
      <trkpt lat="38.694831" lon="-9.368451">
        <ele>91.054</ele>
        <time>2019-08-30T12:16:45Z</time>
      </trkpt>
      <trkpt lat="38.694269" lon="-9.367277">
        <ele>73.956</ele>
        <time>2019-08-30T12:17:16Z</time>
      </trkpt>
      <trkpt lat="38.694257" lon="-9.365437">
        <ele>80.011</ele>
        <time>2019-08-30T12:18:09Z</time>
      </trkpt>
      <trkpt lat="38.693828" lon="-9.365755">
        <ele>82.008</ele>
        <time>2019-08-30T12:18:24Z</time>
      </trkpt>
      <trkpt lat="38.693075" lon="-9.365780">
        <ele>82.459</ele>
        <time>2019-08-30T12:18:37Z</time>
      </trkpt>
      <trkpt lat="38.691641" lon="-9.364078">
        <ele>76.495</ele>
        <time>2019-08-30T12:19:10Z</time>
      </trkpt>
      <trkpt lat="38.691587" lon="-9.361449">
        <ele>77.721</ele>
        <time>2019-08-30T12:19:47Z</time>
      </trkpt>
      <trkpt lat="38.690734" lon="-9.357752">
        <ele>85.921</ele>
        <time>2019-08-30T12:20:48Z</time>
      </trkpt>
      <trkpt lat="38.690725" lon="-9.356427">
        <ele>87.144</ele>
        <time>2019-08-30T12:21:12Z</time>
      </trkpt>
      <trkpt lat="38.690325" lon="-9.355552">
        <ele>90.388</ele>
        <time>2019-08-30T12:22:35Z</time>
      </trkpt>
      <trkpt lat="38.690398" lon="-9.355399">
        <ele>88.360</ele>
        <time>2019-08-30T12:23:24Z</time>
      </trkpt>
      <trkpt lat="38.690171" lon="-9.355406">
        <ele>87.030</ele>
        <time>2019-08-30T12:23:49Z</time>
      </trkpt>
      <trkpt lat="38.690409" lon="-9.355459">
        <ele>87.683</ele>
        <time>2019-08-30T12:24:13Z</time>
      </trkpt>
      <trkpt lat="38.690257" lon="-9.354662">
        <ele>83.425</ele>
        <time>2019-08-30T12:26:04Z</time>
      </trkpt>
      <trkpt lat="38.689153" lon="-9.352307">
        <ele>85.717</ele>
        <time>2019-08-30T12:26:59Z</time>
      </trkpt>
      <trkpt lat="38.688832" lon="-9.350928">
        <ele>82.508</ele>
        <time>2019-08-30T12:27:22Z</time>
      </trkpt>
      <trkpt lat="38.688377" lon="-9.350158">
        <ele>83.272</ele>
        <time>2019-08-30T12:27:37Z</time>
      </trkpt>
      <trkpt lat="38.688279" lon="-9.349435">
        <ele>82.438</ele>
        <time>2019-08-30T12:27:47Z</time>
      </trkpt>
      <trkpt lat="38.688462" lon="-9.348136">
        <ele>82.234</ele>
        <time>2019-08-30T12:28:04Z</time>
      </trkpt>
      <trkpt lat="38.687585" lon="-9.347657">
        <ele>81.984</ele>
        <time>2019-08-30T12:28:22Z</time>
      </trkpt>
      <trkpt lat="38.687739" lon="-9.342103">
        <ele>78.077</ele>
        <time>2019-08-30T12:29:36Z</time>
      </trkpt>
      <trkpt lat="38.688108" lon="-9.337107">
        <ele>79.371</ele>
        <time>2019-08-30T12:30:54Z</time>
      </trkpt>
      <trkpt lat="38.687993" lon="-9.335221">
        <ele>78.953</ele>
        <time>2019-08-30T12:31:29Z</time>
      </trkpt>
      <trkpt lat="38.688333" lon="-9.325418">
        <ele>81.883</ele>
        <time>2019-08-30T12:34:07Z</time>
      </trkpt>
      <trkpt lat="38.688745" lon="-9.318672">
        <ele>74.628</ele>
        <time>2019-08-30T12:35:45Z</time>
      </trkpt>
      <trkpt lat="38.688417" lon="-9.316749">
        <ele>72.189</ele>
        <time>2019-08-30T12:36:52Z</time>
      </trkpt>
      <trkpt lat="38.688513" lon="-9.316885">
        <ele>82.717</ele>
        <time>2019-08-30T13:01:23Z</time>
      </trkpt>
      <trkpt lat="38.688258" lon="-9.316645">
        <ele>83.308</ele>
        <time>2019-08-30T13:02:28Z</time>
      </trkpt>
      <trkpt lat="38.687948" lon="-9.315779">
        <ele>70.166</ele>
        <time>2019-08-30T13:02:45Z</time>
      </trkpt>
      <trkpt lat="38.687396" lon="-9.315998">
        <ele>66.022</ele>
        <time>2019-08-30T13:02:55Z</time>
      </trkpt>
      <trkpt lat="38.687101" lon="-9.315906">
        <ele>63.568</ele>
        <time>2019-08-30T13:03:01Z</time>
      </trkpt>
      <trkpt lat="38.686894" lon="-9.315627">
        <ele>61.398</ele>
        <time>2019-08-30T13:03:08Z</time>
      </trkpt>
      <trkpt lat="38.687116" lon="-9.314883">
        <ele>61.791</ele>
        <time>2019-08-30T13:03:25Z</time>
      </trkpt>
      <trkpt lat="38.686347" lon="-9.314515">
        <ele>59.415</ele>
        <time>2019-08-30T13:03:42Z</time>
      </trkpt>
      <trkpt lat="38.685112" lon="-9.313509">
        <ele>61.117</ele>
        <time>2019-08-30T13:04:14Z</time>
      </trkpt>
      <trkpt lat="38.684820" lon="-9.313642">
        <ele>62.587</ele>
        <time>2019-08-30T13:04:27Z</time>
      </trkpt>
      <trkpt lat="38.685030" lon="-9.313308">
        <ele>64.756</ele>
        <time>2019-08-30T13:05:06Z</time>
      </trkpt>
      <trkpt lat="38.685471" lon="-9.313821">
        <ele>60.959</ele>
        <time>2019-08-30T13:05:26Z</time>
      </trkpt>
      <trkpt lat="38.686656" lon="-9.314638">
        <ele>59.514</ele>
        <time>2019-08-30T13:05:57Z</time>
      </trkpt>
      <trkpt lat="38.688219" lon="-9.314762">
        <ele>62.908</ele>
        <time>2019-08-30T13:08:22Z</time>
      </trkpt>
      <trkpt lat="38.688378" lon="-9.314636">
        <ele>62.369</ele>
        <time>2019-08-30T13:08:28Z</time>
      </trkpt>
      <trkpt lat="38.688338" lon="-9.314458">
        <ele>63.045</ele>
        <time>2019-08-30T13:08:35Z</time>
      </trkpt>
      <trkpt lat="38.687725" lon="-9.314278">
        <ele>68.721</ele>
        <time>2019-08-30T13:09:03Z</time>
      </trkpt>
      <trkpt lat="38.687479" lon="-9.313982">
        <ele>75.391</ele>
        <time>2019-08-30T13:09:20Z</time>
      </trkpt>
      <trkpt lat="38.686982" lon="-9.311587">
        <ele>79.934</ele>
        <time>2019-08-30T13:10:30Z</time>
      </trkpt>
      <trkpt lat="38.686957" lon="-9.309120">
        <ele>89.598</ele>
        <time>2019-08-30T13:11:14Z</time>
      </trkpt>
      <trkpt lat="38.687280" lon="-9.306161">
        <ele>84.980</ele>
        <time>2019-08-30T13:11:58Z</time>
      </trkpt>
      <trkpt lat="38.687942" lon="-9.304828">
        <ele>83.690</ele>
        <time>2019-08-30T13:12:23Z</time>
      </trkpt>
      <trkpt lat="38.688717" lon="-9.304041">
        <ele>85.037</ele>
        <time>2019-08-30T13:12:40Z</time>
      </trkpt>
      <trkpt lat="38.690990" lon="-9.303072">
        <ele>78.049</ele>
        <time>2019-08-30T13:13:17Z</time>
      </trkpt>
      <trkpt lat="38.691908" lon="-9.302203">
        <ele>77.513</ele>
        <time>2019-08-30T13:13:35Z</time>
      </trkpt>
      <trkpt lat="38.693300" lon="-9.302415">
        <ele>88.008</ele>
        <time>2019-08-30T13:14:08Z</time>
      </trkpt>
      <trkpt lat="38.693483" lon="-9.302242">
        <ele>86.387</ele>
        <time>2019-08-30T13:14:16Z</time>
      </trkpt>
      <trkpt lat="38.693659" lon="-9.301037">
        <ele>80.613</ele>
        <time>2019-08-30T13:14:37Z</time>
      </trkpt>
      <trkpt lat="38.694162" lon="-9.300238">
        <ele>77.739</ele>
        <time>2019-08-30T13:14:55Z</time>
      </trkpt>
      <trkpt lat="38.693838" lon="-9.298673">
        <ele>83.159</ele>
        <time>2019-08-30T13:15:23Z</time>
      </trkpt>
      <trkpt lat="38.694085" lon="-9.296869">
        <ele>78.012</ele>
        <time>2019-08-30T13:15:43Z</time>
      </trkpt>
      <trkpt lat="38.694011" lon="-9.296652">
        <ele>77.496</ele>
        <time>2019-08-30T13:15:48Z</time>
      </trkpt>
      <trkpt lat="38.692913" lon="-9.297559">
        <ele>73.038</ele>
        <time>2019-08-30T13:16:16Z</time>
      </trkpt>
      <trkpt lat="38.691571" lon="-9.297701">
        <ele>66.278</ele>
        <time>2019-08-30T13:16:37Z</time>
      </trkpt>
      <trkpt lat="38.690179" lon="-9.298361">
        <ele>58.394</ele>
        <time>2019-08-30T13:17:13Z</time>
      </trkpt>
      <trkpt lat="38.689849" lon="-9.298876">
        <ele>58.757</ele>
        <time>2019-08-30T13:17:23Z</time>
      </trkpt>
      <trkpt lat="38.689875" lon="-9.299138">
        <ele>59.222</ele>
        <time>2019-08-30T13:17:28Z</time>
      </trkpt>
      <trkpt lat="38.690101" lon="-9.299180">
        <ele>60.008</ele>
        <time>2019-08-30T13:17:34Z</time>
      </trkpt>
      <trkpt lat="38.690471" lon="-9.298497">
        <ele>62.753</ele>
        <time>2019-08-30T13:17:48Z</time>
      </trkpt>
      <trkpt lat="38.691577" lon="-9.295288">
        <ele>62.799</ele>
        <time>2019-08-30T13:18:32Z</time>
      </trkpt>
      <trkpt lat="38.692893" lon="-9.292398">
        <ele>57.875</ele>
        <time>2019-08-30T13:19:04Z</time>
      </trkpt>
      <trkpt lat="38.693280" lon="-9.291985">
        <ele>58.195</ele>
        <time>2019-08-30T13:19:10Z</time>
      </trkpt>
      <trkpt lat="38.694341" lon="-9.291347">
        <ele>58.288</ele>
        <time>2019-08-30T13:19:24Z</time>
      </trkpt>
      <trkpt lat="38.695743" lon="-9.289085">
        <ele>56.172</ele>
        <time>2019-08-30T13:19:57Z</time>
      </trkpt>
      <trkpt lat="38.696171" lon="-9.287161">
        <ele>58.284</ele>
        <time>2019-08-30T13:20:21Z</time>
      </trkpt>
      <trkpt lat="38.696988" lon="-9.285675">
        <ele>57.554</ele>
        <time>2019-08-30T13:20:42Z</time>
      </trkpt>
      <trkpt lat="38.697392" lon="-9.283499">
        <ele>57.286</ele>
        <time>2019-08-30T13:21:07Z</time>
      </trkpt>
      <trkpt lat="38.698479" lon="-9.281983">
        <ele>58.060</ele>
        <time>2019-08-30T13:21:30Z</time>
      </trkpt>
      <trkpt lat="38.698745" lon="-9.281085">
        <ele>57.826</ele>
        <time>2019-08-30T13:21:40Z</time>
      </trkpt>
      <trkpt lat="38.698864" lon="-9.279150">
        <ele>58.208</ele>
        <time>2019-08-30T13:22:02Z</time>
      </trkpt>
      <trkpt lat="38.698508" lon="-9.274097">
        <ele>60.632</ele>
        <time>2019-08-30T13:23:04Z</time>
      </trkpt>
      <trkpt lat="38.698372" lon="-9.273289">
        <ele>60.168</ele>
        <time>2019-08-30T13:23:14Z</time>
      </trkpt>
      <trkpt lat="38.697974" lon="-9.272347">
        <ele>60.544</ele>
        <time>2019-08-30T13:23:27Z</time>
      </trkpt>
      <trkpt lat="38.697931" lon="-9.271768">
        <ele>60.554</ele>
        <time>2019-08-30T13:23:34Z</time>
      </trkpt>
      <trkpt lat="38.698894" lon="-9.268665">
        <ele>58.367</ele>
        <time>2019-08-30T13:24:57Z</time>
      </trkpt>
      <trkpt lat="38.698924" lon="-9.266057">
        <ele>59.221</ele>
        <time>2019-08-30T13:25:31Z</time>
      </trkpt>
      <trkpt lat="38.699750" lon="-9.263250">
        <ele>59.093</ele>
        <time>2019-08-30T13:26:09Z</time>
      </trkpt>
      <trkpt lat="38.699807" lon="-9.262158">
        <ele>59.743</ele>
        <time>2019-08-30T13:26:23Z</time>
      </trkpt>
      <trkpt lat="38.699620" lon="-9.259812">
        <ele>58.215</ele>
        <time>2019-08-30T13:26:53Z</time>
      </trkpt>
      <trkpt lat="38.700143" lon="-9.256094">
        <ele>59.365</ele>
        <time>2019-08-30T13:27:40Z</time>
      </trkpt>
      <trkpt lat="38.699797" lon="-9.253753">
        <ele>58.911</ele>
        <time>2019-08-30T13:28:22Z</time>
      </trkpt>
      <trkpt lat="38.700100" lon="-9.253656">
        <ele>59.208</ele>
        <time>2019-08-30T13:28:35Z</time>
      </trkpt>
      <trkpt lat="38.699771" lon="-9.251056">
        <ele>60.695</ele>
        <time>2019-08-30T13:29:47Z</time>
      </trkpt>
      <trkpt lat="38.699807" lon="-9.250437">
        <ele>60.911</ele>
        <time>2019-08-30T13:30:14Z</time>
      </trkpt>
      <trkpt lat="38.699723" lon="-9.250713">
        <ele>61.047</ele>
        <time>2019-08-30T13:30:22Z</time>
      </trkpt>
      <trkpt lat="38.699574" lon="-9.250429">
        <ele>60.757</ele>
        <time>2019-08-30T13:30:28Z</time>
      </trkpt>
      <trkpt lat="38.699237" lon="-9.244374">
        <ele>58.710</ele>
        <time>2019-08-30T13:31:51Z</time>
      </trkpt>
      <trkpt lat="38.698494" lon="-9.235527">
        <ele>59.814</ele>
        <time>2019-08-30T13:33:43Z</time>
      </trkpt>
      <trkpt lat="38.698370" lon="-9.230407">
        <ele>57.866</ele>
        <time>2019-08-30T13:34:56Z</time>
      </trkpt>
      <trkpt lat="38.698199" lon="-9.229653">
        <ele>57.976</ele>
        <time>2019-08-30T13:35:07Z</time>
      </trkpt>
      <trkpt lat="38.697661" lon="-9.229307">
        <ele>59.137</ele>
        <time>2019-08-30T13:35:20Z</time>
      </trkpt>
      <trkpt lat="38.697942" lon="-9.228541">
        <ele>58.449</ele>
        <time>2019-08-30T13:35:34Z</time>
      </trkpt>
      <trkpt lat="38.697432" lon="-9.226821">
        <ele>55.413</ele>
        <time>2019-08-30T13:35:58Z</time>
      </trkpt>
      <trkpt lat="38.695215" lon="-9.222927">
        <ele>59.208</ele>
        <time>2019-08-30T13:37:04Z</time>
      </trkpt>
      <trkpt lat="38.695229" lon="-9.222610">
        <ele>59.767</ele>
        <time>2019-08-30T13:37:25Z</time>
      </trkpt>
      <trkpt lat="38.694496" lon="-9.221279">
        <ele>58.483</ele>
        <time>2019-08-30T13:37:55Z</time>
      </trkpt>
      <trkpt lat="38.694244" lon="-9.221100">
        <ele>57.739</ele>
        <time>2019-08-30T13:38:08Z</time>
      </trkpt>
      <trkpt lat="38.693218" lon="-9.217933">
        <ele>56.169</ele>
        <time>2019-08-30T13:39:07Z</time>
      </trkpt>
      <trkpt lat="38.692953" lon="-9.217810">
        <ele>59.772</ele>
        <time>2019-08-30T13:39:21Z</time>
      </trkpt>
      <trkpt lat="38.692614" lon="-9.217254">
        <ele>58.916</ele>
        <time>2019-08-30T13:43:33Z</time>
      </trkpt>
      <trkpt lat="38.692233" lon="-9.216940">
        <ele>58.328</ele>
        <time>2019-08-30T13:43:56Z</time>
      </trkpt>
      <trkpt lat="38.692353" lon="-9.216016">
        <ele>57.818</ele>
        <time>2019-08-30T13:44:26Z</time>
      </trkpt>
      <trkpt lat="38.691894" lon="-9.214660">
        <ele>58.425</ele>
        <time>2019-08-30T13:50:19Z</time>
      </trkpt>
      <trkpt lat="38.692313" lon="-9.212777">
        <ele>60.026</ele>
        <time>2019-08-30T13:51:56Z</time>
      </trkpt>
      <trkpt lat="38.693447" lon="-9.213168">
        <ele>59.208</ele>
        <time>2019-08-30T13:52:30Z</time>
      </trkpt>
      <trkpt lat="38.693684" lon="-9.212949">
        <ele>59.308</ele>
        <time>2019-08-30T13:52:39Z</time>
      </trkpt>
      <trkpt lat="38.694008" lon="-9.208953">
        <ele>59.186</ele>
        <time>2019-08-30T13:54:14Z</time>
      </trkpt>
      <trkpt lat="38.694401" lon="-9.207366">
        <ele>59.432</ele>
        <time>2019-08-30T13:54:54Z</time>
      </trkpt>
      <trkpt lat="38.694471" lon="-9.206405">
        <ele>61.468</ele>
        <time>2019-08-30T13:55:23Z</time>
      </trkpt>
      <trkpt lat="38.694372" lon="-9.206201">
        <ele>62.848</ele>
        <time>2019-08-30T13:55:37Z</time>
      </trkpt>
      <trkpt lat="38.693615" lon="-9.206076">
        <ele>58.941</ele>
        <time>2019-08-30T13:56:26Z</time>
      </trkpt>
      <trkpt lat="38.693843" lon="-9.205671">
        <ele>61.655</ele>
        <time>2019-08-30T13:56:45Z</time>
      </trkpt>
      <trkpt lat="38.693733" lon="-9.205223">
        <ele>58.147</ele>
        <time>2019-08-30T14:00:38Z</time>
      </trkpt>
      <trkpt lat="38.693676" lon="-9.205346">
        <ele>59.057</ele>
        <time>2019-08-30T14:03:57Z</time>
      </trkpt>
      <trkpt lat="38.694559" lon="-9.205839">
        <ele>58.388</ele>
        <time>2019-08-30T14:05:28Z</time>
      </trkpt>
      <trkpt lat="38.694938" lon="-9.204303">
        <ele>59.024</ele>
        <time>2019-08-30T14:06:16Z</time>
      </trkpt>
      <trkpt lat="38.694983" lon="-9.203358">
        <ele>59.426</ele>
        <time>2019-08-30T14:06:38Z</time>
      </trkpt>
      <trkpt lat="38.695485" lon="-9.200961">
        <ele>58.108</ele>
        <time>2019-08-30T14:07:25Z</time>
      </trkpt>
      <trkpt lat="38.695331" lon="-9.200860">
        <ele>57.882</ele>
        <time>2019-08-30T14:07:38Z</time>
      </trkpt>
      <trkpt lat="38.695622" lon="-9.200498">
        <ele>59.618</ele>
        <time>2019-08-30T14:08:01Z</time>
      </trkpt>
      <trkpt lat="38.695951" lon="-9.197999">
        <ele>58.414</ele>
        <time>2019-08-30T14:09:16Z</time>
      </trkpt>
      <trkpt lat="38.694977" lon="-9.197535">
        <ele>55.754</ele>
        <time>2019-08-30T14:09:52Z</time>
      </trkpt>
      <trkpt lat="38.695662" lon="-9.193972">
        <ele>59.487</ele>
        <time>2019-08-30T14:11:01Z</time>
      </trkpt>
      <trkpt lat="38.695601" lon="-9.194476">
        <ele>58.991</ele>
        <time>2019-08-30T14:11:20Z</time>
      </trkpt>
      <trkpt lat="38.695995" lon="-9.193900">
        <ele>64.843</ele>
        <time>2019-08-30T14:12:00Z</time>
      </trkpt>
      <trkpt lat="38.695870" lon="-9.193338">
        <ele>69.763</ele>
        <time>2019-08-30T14:27:41Z</time>
      </trkpt>
      <trkpt lat="38.696392" lon="-9.194634">
        <ele>66.467</ele>
        <time>2019-08-30T14:28:07Z</time>
      </trkpt>
      <trkpt lat="38.696693" lon="-9.194841">
        <ele>65.081</ele>
        <time>2019-08-30T14:28:15Z</time>
      </trkpt>
      <trkpt lat="38.697454" lon="-9.194912">
        <ele>65.819</ele>
        <time>2019-08-30T14:28:32Z</time>
      </trkpt>
      <trkpt lat="38.697553" lon="-9.195115">
        <ele>69.108</ele>
        <time>2019-08-30T14:28:37Z</time>
      </trkpt>
      <trkpt lat="38.697357" lon="-9.197630">
        <ele>70.230</ele>
        <time>2019-08-30T14:29:18Z</time>
      </trkpt>
      <trkpt lat="38.697466" lon="-9.199356">
        <ele>67.486</ele>
        <time>2019-08-30T14:29:54Z</time>
      </trkpt>
      <trkpt lat="38.697240" lon="-9.201076">
        <ele>62.022</ele>
        <time>2019-08-30T14:30:23Z</time>
      </trkpt>
      <trkpt lat="38.697267" lon="-9.202818">
        <ele>61.062</ele>
        <time>2019-08-30T14:30:58Z</time>
      </trkpt>
      <trkpt lat="38.697497" lon="-9.204409">
        <ele>59.775</ele>
        <time>2019-08-30T14:34:01Z</time>
      </trkpt>
      <trkpt lat="38.697376" lon="-9.205325">
        <ele>57.169</ele>
        <time>2019-08-30T14:34:32Z</time>
      </trkpt>
      <trkpt lat="38.697284" lon="-9.205114">
        <ele>57.311</ele>
        <time>2019-08-30T14:36:21Z</time>
      </trkpt>
      <trkpt lat="38.697243" lon="-9.205258">
        <ele>59.661</ele>
        <time>2019-08-30T14:40:23Z</time>
      </trkpt>
      <trkpt lat="38.697124" lon="-9.205131">
        <ele>62.017</ele>
        <time>2019-08-30T14:40:52Z</time>
      </trkpt>
      <trkpt lat="38.697343" lon="-9.204015">
        <ele>62.987</ele>
        <time>2019-08-30T14:41:17Z</time>
      </trkpt>
      <trkpt lat="38.697107" lon="-9.201081">
        <ele>58.015</ele>
        <time>2019-08-30T14:42:10Z</time>
      </trkpt>
      <trkpt lat="38.697415" lon="-9.199146">
        <ele>58.408</ele>
        <time>2019-08-30T14:42:49Z</time>
      </trkpt>
      <trkpt lat="38.697550" lon="-9.195074">
        <ele>67.155</ele>
        <time>2019-08-30T14:43:59Z</time>
      </trkpt>
      <trkpt lat="38.697440" lon="-9.194851">
        <ele>69.241</ele>
        <time>2019-08-30T14:44:07Z</time>
      </trkpt>
      <trkpt lat="38.696921" lon="-9.194903">
        <ele>71.137</ele>
        <time>2019-08-30T14:44:20Z</time>
      </trkpt>
      <trkpt lat="38.696529" lon="-9.194755">
        <ele>66.317</ele>
        <time>2019-08-30T14:44:31Z</time>
      </trkpt>
      <trkpt lat="38.696002" lon="-9.193934">
        <ele>61.840</ele>
        <time>2019-08-30T14:44:51Z</time>
      </trkpt>
      <trkpt lat="38.695599" lon="-9.194403">
        <ele>60.544</ele>
        <time>2019-08-30T14:45:13Z</time>
      </trkpt>
      <trkpt lat="38.698349" lon="-9.179177">
        <ele>58.846</ele>
        <time>2019-08-30T15:02:24Z</time>
      </trkpt>
      <trkpt lat="38.698532" lon="-9.178675">
        <ele>60.426</ele>
        <time>2019-08-30T15:02:36Z</time>
      </trkpt>
      <trkpt lat="38.699495" lon="-9.178809">
        <ele>69.179</ele>
        <time>2019-08-30T15:03:05Z</time>
      </trkpt>
      <trkpt lat="38.700423" lon="-9.176302">
        <ele>62.005</ele>
        <time>2019-08-30T15:04:11Z</time>
      </trkpt>
      <trkpt lat="38.700355" lon="-9.175334">
        <ele>59.025</ele>
        <time>2019-08-30T15:04:32Z</time>
      </trkpt>
      <trkpt lat="38.700553" lon="-9.174941">
        <ele>58.508</ele>
        <time>2019-08-30T15:05:09Z</time>
      </trkpt>
      <trkpt lat="38.701163" lon="-9.175110">
        <ele>60.821</ele>
        <time>2019-08-30T15:05:36Z</time>
      </trkpt>
      <trkpt lat="38.701135" lon="-9.175223">
        <ele>61.967</ele>
        <time>2019-08-30T15:05:43Z</time>
      </trkpt>
      <trkpt lat="38.700844" lon="-9.175150">
        <ele>62.193</ele>
        <time>2019-08-30T15:06:32Z</time>
      </trkpt>
      <trkpt lat="38.701285" lon="-9.175164">
        <ele>66.013</ele>
        <time>2019-08-30T15:08:06Z</time>
      </trkpt>
      <trkpt lat="38.701859" lon="-9.172805">
        <ele>59.686</ele>
        <time>2019-08-30T15:09:06Z</time>
      </trkpt>
      <trkpt lat="38.703132" lon="-9.165307">
        <ele>55.620</ele>
        <time>2019-08-30T15:10:50Z</time>
      </trkpt>
      <trkpt lat="38.703138" lon="-9.163815">
        <ele>54.752</ele>
        <time>2019-08-30T15:11:11Z</time>
      </trkpt>
      <trkpt lat="38.702593" lon="-9.161134">
        <ele>60.372</ele>
        <time>2019-08-30T15:12:07Z</time>
      </trkpt>
      <trkpt lat="38.702606" lon="-9.161596">
        <ele>64.756</ele>
        <time>2019-08-30T15:12:27Z</time>
      </trkpt>
      <trkpt lat="38.702787" lon="-9.161665">
        <ele>63.559</ele>
        <time>2019-08-30T15:12:33Z</time>
      </trkpt>
      <trkpt lat="38.703024" lon="-9.161541">
        <ele>63.114</ele>
        <time>2019-08-30T15:12:41Z</time>
      </trkpt>
      <trkpt lat="38.703219" lon="-9.161879">
        <ele>64.208</ele>
        <time>2019-08-30T15:12:50Z</time>
      </trkpt>
      <trkpt lat="38.703361" lon="-9.161871">
        <ele>63.799</ele>
        <time>2019-08-30T15:12:59Z</time>
      </trkpt>
      <trkpt lat="38.703673" lon="-9.161323">
        <ele>61.765</ele>
        <time>2019-08-30T15:13:10Z</time>
      </trkpt>
      <trkpt lat="38.704009" lon="-9.159906">
        <ele>58.711</ele>
        <time>2019-08-30T15:13:31Z</time>
      </trkpt>
      <trkpt lat="38.704759" lon="-9.158065">
        <ele>57.151</ele>
        <time>2019-08-30T15:13:58Z</time>
      </trkpt>
      <trkpt lat="38.704431" lon="-9.156762">
        <ele>56.684</ele>
        <time>2019-08-30T15:14:17Z</time>
      </trkpt>
      <trkpt lat="38.705761" lon="-9.148695">
        <ele>57.498</ele>
        <time>2019-08-30T15:16:13Z</time>
      </trkpt>
      <trkpt lat="38.705005" lon="-9.146739">
        <ele>57.480</ele>
        <time>2019-08-30T15:16:51Z</time>
      </trkpt>
      <trkpt lat="38.705383" lon="-9.146400">
        <ele>56.150</ele>
        <time>2019-08-30T15:17:06Z</time>
      </trkpt>
      <trkpt lat="38.705487" lon="-9.144030">
        <ele>62.732</ele>
        <time>2019-08-30T15:18:20Z</time>
      </trkpt>
      <trkpt lat="38.705290" lon="-9.143866">
        <ele>59.192</ele>
        <time>2019-08-30T15:18:33Z</time>
      </trkpt>
      <trkpt lat="38.705251" lon="-9.143196">
        <ele>56.811</ele>
        <time>2019-08-30T15:19:12Z</time>
      </trkpt>
      <trkpt lat="38.705545" lon="-9.141007">
        <ele>59.108</ele>
        <time>2019-08-30T15:20:03Z</time>
      </trkpt>
      <trkpt lat="38.706570" lon="-9.137284">
        <ele>57.047</ele>
        <time>2019-08-30T15:21:21Z</time>
      </trkpt>
      <trkpt lat="38.706720" lon="-9.137101">
        <ele>58.023</ele>
        <time>2019-08-30T15:21:54Z</time>
      </trkpt>
      <trkpt lat="38.707232" lon="-9.137149">
        <ele>59.289</ele>
        <time>2019-08-30T15:22:14Z</time>
      </trkpt>
      <trkpt lat="38.707198" lon="-9.136512">
        <ele>58.389</ele>
        <time>2019-08-30T15:25:28Z</time>
      </trkpt>
      <trkpt lat="38.766154" lon="-9.096140">
        <ele>1.232</ele>
        <time>2018-08-14T05:06:33Z</time>
      </trkpt>
      <trkpt lat="38.764682" lon="-9.096221">
        <ele>0.392</ele>
        <time>2018-08-14T05:07:24Z</time>
      </trkpt>
      <trkpt lat="38.764449" lon="-9.096386">
        <ele>1.011</ele>
        <time>2018-08-14T05:07:30Z</time>
      </trkpt>
      <trkpt lat="38.764088" lon="-9.096265">
        <ele>7.308</ele>
        <time>2018-08-14T05:07:38Z</time>
      </trkpt>
      <trkpt lat="38.761632" lon="-9.096476">
        <ele>-2.095</ele>
        <time>2018-08-14T05:08:40Z</time>
      </trkpt>
      <trkpt lat="38.760097" lon="-9.096441">
        <ele>-5.980</ele>
        <time>2018-08-14T05:09:20Z</time>
      </trkpt>
      <trkpt lat="38.758841" lon="-9.096733">
        <ele>-4.518</ele>
        <time>2018-08-14T05:09:57Z</time>
      </trkpt>
      <trkpt lat="38.756808" lon="-9.096592">
        <ele>8.819</ele>
        <time>2018-08-14T05:10:53Z</time>
      </trkpt>
      <trkpt lat="38.754773" lon="-9.096978">
        <ele>1.596</ele>
        <time>2018-08-14T05:12:07Z</time>
      </trkpt>
      <trkpt lat="38.754604" lon="-9.096640">
        <ele>0.270</ele>
        <time>2018-08-14T05:12:24Z</time>
      </trkpt>
      <trkpt lat="38.753942" lon="-9.096043">
        <ele>-2.536</ele>
        <time>2018-08-14T05:12:46Z</time>
      </trkpt>
      <trkpt lat="38.753460" lon="-9.095258">
        <ele>-5.492</ele>
        <time>2018-08-14T05:13:16Z</time>
      </trkpt>
      <trkpt lat="38.753726" lon="-9.095755">
        <ele>-2.454</ele>
        <time>2018-08-14T05:15:32Z</time>
      </trkpt>
      <trkpt lat="38.753127" lon="-9.095499">
        <ele>-1.756</ele>
        <time>2018-08-14T05:16:01Z</time>
      </trkpt>
      <trkpt lat="38.752543" lon="-9.095519">
        <ele>-3.911</ele>
        <time>2018-08-14T05:16:14Z</time>
      </trkpt>
      <trkpt lat="38.750628" lon="-9.096056">
        <ele>-4.508</ele>
        <time>2018-08-14T05:17:28Z</time>
      </trkpt>
      <trkpt lat="38.749935" lon="-9.096451">
        <ele>-8.067</ele>
        <time>2018-08-14T05:18:02Z</time>
      </trkpt>
      <trkpt lat="38.747512" lon="-9.097107">
        <ele>-9.142</ele>
        <time>2018-08-14T05:19:06Z</time>
      </trkpt>
      <trkpt lat="38.747662" lon="-9.099245">
        <ele>5.450</ele>
        <time>2018-08-14T05:20:05Z</time>
      </trkpt>
      <trkpt lat="38.745967" lon="-9.100576">
        <ele>1.781</ele>
        <time>2018-08-14T05:21:17Z</time>
      </trkpt>
      <trkpt lat="38.744298" lon="-9.101280">
        <ele>3.228</ele>
        <time>2018-08-14T05:22:09Z</time>
      </trkpt>
      <trkpt lat="38.743596" lon="-9.099827">
        <ele>-3.692</ele>
        <time>2018-08-14T05:22:45Z</time>
      </trkpt>
      <trkpt lat="38.742182" lon="-9.100427">
        <ele>-5.478</ele>
        <time>2018-08-14T05:23:21Z</time>
      </trkpt>
      <trkpt lat="38.741963" lon="-9.100187">
        <ele>-3.244</ele>
        <time>2018-08-14T05:23:35Z</time>
      </trkpt>
      <trkpt lat="38.741267" lon="-9.100822">
        <ele>-7.094</ele>
        <time>2018-08-14T05:23:57Z</time>
      </trkpt>
      <trkpt lat="38.737820" lon="-9.102853">
        <ele>-7.957</ele>
        <time>2018-08-14T05:25:30Z</time>
      </trkpt>
      <trkpt lat="38.736163" lon="-9.103465">
        <ele>-8.022</ele>
        <time>2018-08-14T05:26:11Z</time>
      </trkpt>
      <trkpt lat="38.733989" lon="-9.103951">
        <ele>-3.008</ele>
        <time>2018-08-14T05:27:02Z</time>
      </trkpt>
      <trkpt lat="38.732209" lon="-9.104712">
        <ele>-5.721</ele>
        <time>2018-08-14T05:27:47Z</time>
      </trkpt>
      <trkpt lat="38.728996" lon="-9.107006">
        <ele>-4.526</ele>
        <time>2018-08-14T05:29:13Z</time>
      </trkpt>
      <trkpt lat="38.726504" lon="-9.110079">
        <ele>-7.194</ele>
        <time>2018-08-14T05:32:10Z</time>
      </trkpt>
      <trkpt lat="38.719678" lon="-9.116028">
        <ele>-7.835</ele>
        <time>2018-08-14T05:35:21Z</time>
      </trkpt>
      <trkpt lat="38.719300" lon="-9.116215">
        <ele>-12.952</ele>
        <time>2018-08-14T05:35:31Z</time>
      </trkpt>
      <trkpt lat="38.718893" lon="-9.116658">
        <ele>-15.846</ele>
        <time>2018-08-14T05:35:45Z</time>
      </trkpt>
      <trkpt lat="38.718881" lon="-9.116922">
        <ele>-17.172</ele>
        <time>2018-08-14T05:36:07Z</time>
      </trkpt>
      <trkpt lat="38.718511" lon="-9.117088">
        <ele>-15.688</ele>
        <time>2018-08-14T05:36:20Z</time>
      </trkpt>
      <trkpt lat="38.717821" lon="-9.117746">
        <ele>-6.532</ele>
        <time>2018-08-14T05:36:42Z</time>
      </trkpt>
      <trkpt lat="38.712144" lon="-9.123940">
        <ele>-6.692</ele>
        <time>2018-08-14T05:39:53Z</time>
      </trkpt>
      <trkpt lat="38.710966" lon="-9.126699">
        <ele>-6.011</ele>
        <time>2018-08-14T05:40:52Z</time>
      </trkpt>
      <trkpt lat="38.709192" lon="-9.129457">
        <ele>-4.208</ele>
        <time>2018-08-14T05:41:56Z</time>
      </trkpt>
      <trkpt lat="38.707526" lon="-9.133083">
        <ele>-8.495</ele>
        <time>2018-08-14T05:46:42Z</time>
      </trkpt>
      <trkpt lat="38.707068" lon="-9.135152">
        <ele>-6.480</ele>
        <time>2018-08-14T05:47:31Z</time>
      </trkpt>
      <trkpt lat="38.707373" lon="-9.136208">
        <ele>-9.848</ele>
        <time>2018-08-14T05:54:50Z</time>
      </trkpt>
      <trkpt lat="38.707022" lon="-9.136394">
        <ele>-9.419</ele>
        <time>2018-08-14T05:55:10Z</time>
      </trkpt>
      <trkpt lat="38.706619" lon="-9.137194">
        <ele>-10.536</ele>
        <time>2018-08-14T05:56:01Z</time>
      </trkpt>
      <trkpt lat="38.705947" lon="-9.140477">
        <ele>-9.770</ele>
        <time>2018-08-14T05:57:39Z</time>
      </trkpt>
      <trkpt lat="38.705521" lon="-9.141800">
        <ele>-10.866</ele>
        <time>2018-08-14T05:58:27Z</time>
      </trkpt>
      <trkpt lat="38.705126" lon="-9.144592">
        <ele>-6.472</ele>
        <time>2018-08-14T05:59:39Z</time>
      </trkpt>
      <trkpt lat="38.705403" lon="-9.144882">
        <ele>-8.866</ele>
        <time>2018-08-14T05:59:55Z</time>
      </trkpt>
      <trkpt lat="38.705426" lon="-9.146363">
        <ele>-7.729</ele>
        <time>2018-08-14T06:00:38Z</time>
      </trkpt>
      <trkpt lat="38.705698" lon="-9.147460">
        <ele>0.121</ele>
        <time>2018-08-14T06:01:29Z</time>
      </trkpt>
      <trkpt lat="38.705479" lon="-9.147797">
        <ele>-1.608</ele>
        <time>2018-08-14T06:01:45Z</time>
      </trkpt>
      <trkpt lat="38.705810" lon="-9.148802">
        <ele>-3.278</ele>
        <time>2018-08-14T06:02:18Z</time>
      </trkpt>
      <trkpt lat="38.704492" lon="-9.156895">
        <ele>-5.283</ele>
        <time>2018-08-14T06:05:02Z</time>
      </trkpt>
      <trkpt lat="38.704777" lon="-9.158211">
        <ele>-6.731</ele>
        <time>2018-08-14T06:05:26Z</time>
      </trkpt>
      <trkpt lat="38.704112" lon="-9.159694">
        <ele>-5.212</ele>
        <time>2018-08-14T06:05:57Z</time>
      </trkpt>
      <trkpt lat="38.703677" lon="-9.161489">
        <ele>-4.459</ele>
        <time>2018-08-14T06:06:30Z</time>
      </trkpt>
      <trkpt lat="38.703386" lon="-9.162020">
        <ele>-4.763</ele>
        <time>2018-08-14T06:06:52Z</time>
      </trkpt>
      <trkpt lat="38.703065" lon="-9.161645">
        <ele>-3.729</ele>
        <time>2018-08-14T06:07:08Z</time>
      </trkpt>
      <trkpt lat="38.702649" lon="-9.161732">
        <ele>-2.625</ele>
        <time>2018-08-14T06:07:32Z</time>
      </trkpt>
      <trkpt lat="38.703196" lon="-9.163969">
        <ele>-4.965</ele>
        <time>2018-08-14T06:08:20Z</time>
      </trkpt>
      <trkpt lat="38.703194" lon="-9.165421">
        <ele>-3.868</ele>
        <time>2018-08-14T06:08:47Z</time>
      </trkpt>
      <trkpt lat="38.701562" lon="-9.174607">
        <ele>-8.314</ele>
        <time>2018-08-14T06:11:37Z</time>
      </trkpt>
      <trkpt lat="38.701067" lon="-9.174484">
        <ele>-6.708</ele>
        <time>2018-08-14T06:11:59Z</time>
      </trkpt>
      <trkpt lat="38.700991" lon="-9.174671">
        <ele>-8.068</ele>
        <time>2018-08-14T06:12:30Z</time>
      </trkpt>
      <trkpt lat="38.700574" lon="-9.174639">
        <ele>-7.413</ele>
        <time>2018-08-14T06:12:57Z</time>
      </trkpt>
      <trkpt lat="38.700412" lon="-9.175496">
        <ele>-7.611</ele>
        <time>2018-08-14T06:13:48Z</time>
      </trkpt>
      <trkpt lat="38.700448" lon="-9.176302">
        <ele>-8.522</ele>
        <time>2018-08-14T06:14:24Z</time>
      </trkpt>
      <trkpt lat="38.699395" lon="-9.179589">
        <ele>-8.829</ele>
        <time>2018-08-14T06:15:49Z</time>
      </trkpt>
      <trkpt lat="38.698395" lon="-9.182096">
        <ele>-10.533</ele>
        <time>2018-08-14T06:17:06Z</time>
      </trkpt>
      <trkpt lat="38.698216" lon="-9.182312">
        <ele>-11.349</ele>
        <time>2018-08-14T06:17:14Z</time>
      </trkpt>
      <trkpt lat="38.697746" lon="-9.182448">
        <ele>-9.795</ele>
        <time>2018-08-14T06:24:33Z</time>
      </trkpt>
      <trkpt lat="38.695075" lon="-9.197544">
        <ele>-9.767</ele>
        <time>2018-08-14T06:34:47Z</time>
      </trkpt>
      <trkpt lat="38.695220" lon="-9.198249">
        <ele>-7.281</ele>
        <time>2018-08-14T06:35:26Z</time>
      </trkpt>
      <trkpt lat="38.695001" lon="-9.198990">
        <ele>-3.419</ele>
        <time>2018-08-14T06:37:16Z</time>
      </trkpt>
      <trkpt lat="38.694802" lon="-9.199147">
        <ele>-4.508</ele>
        <time>2018-08-14T06:37:36Z</time>
      </trkpt>
      <trkpt lat="38.694864" lon="-9.198692">
        <ele>-6.828</ele>
        <time>2018-08-14T06:38:18Z</time>
      </trkpt>
      <trkpt lat="38.694910" lon="-9.199029">
        <ele>-5.743</ele>
        <time>2018-08-14T06:39:09Z</time>
      </trkpt>
      <trkpt lat="38.695009" lon="-9.198847">
        <ele>-5.471</ele>
        <time>2018-08-14T06:39:27Z</time>
      </trkpt>
      <trkpt lat="38.694832" lon="-9.198554">
        <ele>53.272</ele>
        <time>2018-08-14T07:58:46Z</time>
      </trkpt>
      <trkpt lat="38.694574" lon="-9.198475">
        <ele>56.169</ele>
        <time>2018-08-14T08:00:45Z</time>
      </trkpt>
      <trkpt lat="38.694247" lon="-9.196877">
        <ele>44.133</ele>
        <time>2018-08-14T08:02:31Z</time>
      </trkpt>
      <trkpt lat="38.693630" lon="-9.196253">
        <ele>48.119</ele>
        <time>2018-08-14T08:02:48Z</time>
      </trkpt>
      <trkpt lat="38.692784" lon="-9.196098">
        <ele>51.215</ele>
        <time>2018-08-14T08:03:04Z</time>
      </trkpt>
      <trkpt lat="38.692717" lon="-9.196246">
        <ele>50.624</ele>
        <time>2018-08-14T08:03:06Z</time>
      </trkpt>
      <trkpt lat="38.691314" lon="-9.197002">
        <ele>44.004</ele>
        <time>2018-08-14T08:03:35Z</time>
      </trkpt>
      <trkpt lat="38.690792" lon="-9.197489">
        <ele>44.314</ele>
        <time>2018-08-14T08:03:48Z</time>
      </trkpt>
      <trkpt lat="38.690086" lon="-9.198581">
        <ele>31.708</ele>
        <time>2018-08-14T08:04:09Z</time>
      </trkpt>
      <trkpt lat="38.689580" lon="-9.199022">
        <ele>31.274</ele>
        <time>2018-08-14T08:04:20Z</time>
      </trkpt>
      <trkpt lat="38.687559" lon="-9.200185">
        <ele>26.489</ele>
        <time>2018-08-14T08:05:00Z</time>
      </trkpt>
      <trkpt lat="38.685975" lon="-9.201490">
        <ele>27.687</ele>
        <time>2018-08-14T08:05:35Z</time>
      </trkpt>
      <trkpt lat="38.683432" lon="-9.204138">
        <ele>27.728</ele>
        <time>2018-08-14T08:06:32Z</time>
      </trkpt>
      <trkpt lat="38.681506" lon="-9.206896">
        <ele>31.135</ele>
        <time>2018-08-14T08:07:28Z</time>
      </trkpt>
      <trkpt lat="38.680048" lon="-9.208306">
        <ele>31.759</ele>
        <time>2018-08-14T08:08:01Z</time>
      </trkpt>
      <trkpt lat="38.679396" lon="-9.208509">
        <ele>41.155</ele>
        <time>2018-08-14T08:08:20Z</time>
      </trkpt>
      <trkpt lat="38.679026" lon="-9.208295">
        <ele>41.891</ele>
        <time>2018-08-14T08:08:34Z</time>
      </trkpt>
      <trkpt lat="38.678234" lon="-9.206848">
        <ele>24.666</ele>
        <time>2018-08-14T08:10:40Z</time>
      </trkpt>
      <trkpt lat="38.678561" lon="-9.206478">
        <ele>31.129</ele>
        <time>2018-08-14T08:12:28Z</time>
      </trkpt>
      <trkpt lat="38.679229" lon="-9.206275">
        <ele>40.721</ele>
        <time>2018-08-14T08:12:45Z</time>
      </trkpt>
      <trkpt lat="38.679866" lon="-9.206748">
        <ele>44.208</ele>
        <time>2018-08-14T08:13:02Z</time>
      </trkpt>
      <trkpt lat="38.680164" lon="-9.207643">
        <ele>36.968</ele>
        <time>2018-08-14T08:13:20Z</time>
      </trkpt>
      <trkpt lat="38.680232" lon="-9.209589">
        <ele>31.893</ele>
        <time>2018-08-14T08:13:50Z</time>
      </trkpt>
      <trkpt lat="38.679165" lon="-9.214338">
        <ele>42.521</ele>
        <time>2018-08-14T08:14:58Z</time>
      </trkpt>
      <trkpt lat="38.678509" lon="-9.218609">
        <ele>31.632</ele>
        <time>2018-08-14T08:15:59Z</time>
      </trkpt>
      <trkpt lat="38.677747" lon="-9.224396">
        <ele>39.189</ele>
        <time>2018-08-14T08:17:24Z</time>
      </trkpt>
      <trkpt lat="38.677410" lon="-9.229505">
        <ele>37.423</ele>
        <time>2018-08-14T08:18:35Z</time>
      </trkpt>
      <trkpt lat="38.677242" lon="-9.230394">
        <ele>31.449</ele>
        <time>2018-08-14T08:18:49Z</time>
      </trkpt>
      <trkpt lat="38.676881" lon="-9.231187">
        <ele>27.865</ele>
        <time>2018-08-14T08:19:05Z</time>
      </trkpt>
      <trkpt lat="38.676408" lon="-9.231546">
        <ele>33.786</ele>
        <time>2018-08-14T08:19:18Z</time>
      </trkpt>
      <trkpt lat="38.675815" lon="-9.231690">
        <ele>66.060</ele>
        <time>2018-08-14T08:19:35Z</time>
      </trkpt>
      <trkpt lat="38.675501" lon="-9.231710">
        <ele>65.626</ele>
        <time>2018-08-14T08:19:47Z</time>
      </trkpt>
      <trkpt lat="38.675131" lon="-9.231523">
        <ele>55.208</ele>
        <time>2018-08-14T08:20:06Z</time>
      </trkpt>
      <trkpt lat="38.674887" lon="-9.230861">
        <ele>50.370</ele>
        <time>2018-08-14T08:20:48Z</time>
      </trkpt>
      <trkpt lat="38.675007" lon="-9.230716">
        <ele>57.695</ele>
        <time>2018-08-14T08:21:31Z</time>
      </trkpt>
      <trkpt lat="38.674787" lon="-9.230857">
        <ele>53.523</ele>
        <time>2018-08-14T08:22:43Z</time>
      </trkpt>
      <trkpt lat="38.674299" lon="-9.230835">
        <ele>56.354</ele>
        <time>2018-08-14T08:23:19Z</time>
      </trkpt>
      <trkpt lat="38.674107" lon="-9.231568">
        <ele>58.251</ele>
        <time>2018-08-14T08:23:45Z</time>
      </trkpt>
      <trkpt lat="38.673806" lon="-9.231496">
        <ele>63.675</ele>
        <time>2018-08-14T08:48:07Z</time>
      </trkpt>
      <trkpt lat="38.673774" lon="-9.232241">
        <ele>61.021</ele>
        <time>2018-08-14T08:48:30Z</time>
      </trkpt>
      <trkpt lat="38.673126" lon="-9.234451">
        <ele>57.757</ele>
        <time>2018-08-14T08:49:25Z</time>
      </trkpt>
      <trkpt lat="38.672231" lon="-9.235939">
        <ele>61.513</ele>
        <time>2018-08-14T08:50:10Z</time>
      </trkpt>
      <trkpt lat="38.671598" lon="-9.235759">
        <ele>67.043</ele>
        <time>2018-08-14T08:50:36Z</time>
      </trkpt>
      <trkpt lat="38.670978" lon="-9.236877">
        <ele>68.007</ele>
        <time>2018-08-14T08:51:42Z</time>
      </trkpt>
      <trkpt lat="38.667710" lon="-9.240187">
        <ele>70.008</ele>
        <time>2018-08-14T08:53:20Z</time>
      </trkpt>
      <trkpt lat="38.667864" lon="-9.240458">
        <ele>71.243</ele>
        <time>2018-08-14T08:53:32Z</time>
      </trkpt>
      <trkpt lat="38.669034" lon="-9.241286">
        <ele>63.368</ele>
        <time>2018-08-14T08:54:56Z</time>
      </trkpt>
      <trkpt lat="38.668562" lon="-9.242386">
        <ele>64.176</ele>
        <time>2018-08-14T08:56:48Z</time>
      </trkpt>
      <trkpt lat="38.668658" lon="-9.242591">
        <ele>63.767</ele>
        <time>2018-08-14T08:57:11Z</time>
      </trkpt>
      <trkpt lat="38.668097" lon="-9.245298">
        <ele>61.384</ele>
        <time>2018-08-14T08:59:02Z</time>
      </trkpt>
      <trkpt lat="38.667464" lon="-9.247306">
        <ele>61.788</ele>
        <time>2018-08-14T09:00:04Z</time>
      </trkpt>
      <trkpt lat="38.666418" lon="-9.246759">
        <ele>61.564</ele>
        <time>2018-08-14T09:00:43Z</time>
      </trkpt>
      <trkpt lat="38.665888" lon="-9.246671">
        <ele>60.310</ele>
        <time>2018-08-14T09:01:03Z</time>
      </trkpt>
      <trkpt lat="38.665767" lon="-9.248466">
        <ele>58.028</ele>
        <time>2018-08-14T09:01:34Z</time>
      </trkpt>
      <trkpt lat="38.665208" lon="-9.250670">
        <ele>61.489</ele>
        <time>2018-08-14T09:06:48Z</time>
      </trkpt>
      <trkpt lat="38.664716" lon="-9.253452">
        <ele>61.417</ele>
        <time>2018-08-14T09:07:39Z</time>
      </trkpt>
      <trkpt lat="38.664799" lon="-9.255846">
        <ele>61.508</ele>
        <time>2018-08-14T09:08:46Z</time>
      </trkpt>
      <trkpt lat="38.664608" lon="-9.256401">
        <ele>61.734</ele>
        <time>2018-08-14T09:09:06Z</time>
      </trkpt>
      <trkpt lat="38.663994" lon="-9.257370">
        <ele>60.869</ele>
        <time>2018-08-14T09:09:43Z</time>
      </trkpt>
      <trkpt lat="38.664528" lon="-9.257503">
        <ele>63.247</ele>
        <time>2018-08-14T09:13:34Z</time>
      </trkpt>
      <trkpt lat="38.664014" lon="-9.257437">
        <ele>65.748</ele>
        <time>2018-08-14T09:14:01Z</time>
      </trkpt>
      <trkpt lat="38.664242" lon="-9.256864">
        <ele>62.365</ele>
        <time>2018-08-14T09:14:20Z</time>
      </trkpt>
      <trkpt lat="38.663866" lon="-9.256653">
        <ele>62.399</ele>
        <time>2018-08-14T09:14:37Z</time>
      </trkpt>
      <trkpt lat="38.663273" lon="-9.255973">
        <ele>62.555</ele>
        <time>2018-08-14T09:15:06Z</time>
      </trkpt>
      <trkpt lat="38.664627" lon="-9.254770">
        <ele>61.091</ele>
        <time>2018-08-14T09:17:36Z</time>
      </trkpt>
      <trkpt lat="38.664719" lon="-9.253337">
        <ele>60.819</ele>
        <time>2018-08-14T09:18:48Z</time>
      </trkpt>
      <trkpt lat="38.665763" lon="-9.248155">
        <ele>58.809</ele>
        <time>2018-08-14T09:20:18Z</time>
      </trkpt>
      <trkpt lat="38.665843" lon="-9.246948">
        <ele>61.919</ele>
        <time>2018-08-14T09:20:38Z</time>
      </trkpt>
      <trkpt lat="38.665734" lon="-9.246597">
        <ele>61.508</ele>
        <time>2018-08-14T09:20:45Z</time>
      </trkpt>
      <trkpt lat="38.661620" lon="-9.243518">
        <ele>62.813</ele>
        <time>2018-08-14T09:22:22Z</time>
      </trkpt>
      <trkpt lat="38.660974" lon="-9.242175">
        <ele>63.418</ele>
        <time>2018-08-14T09:23:15Z</time>
      </trkpt>
      <trkpt lat="38.658407" lon="-9.240841">
        <ele>61.966</ele>
        <time>2018-08-14T09:24:36Z</time>
      </trkpt>
      <trkpt lat="38.658161" lon="-9.240863">
        <ele>64.067</ele>
        <time>2018-08-14T09:24:44Z</time>
      </trkpt>
      <trkpt lat="38.657694" lon="-9.240440">
        <ele>60.554</ele>
        <time>2018-08-14T09:24:58Z</time>
      </trkpt>
      <trkpt lat="38.654366" lon="-9.238635">
        <ele>62.868</ele>
        <time>2018-08-14T09:26:15Z</time>
      </trkpt>
      <trkpt lat="38.653994" lon="-9.238563">
        <ele>60.974</ele>
        <time>2018-08-14T09:26:27Z</time>
      </trkpt>
      <trkpt lat="38.653864" lon="-9.238366">
        <ele>60.150</ele>
        <time>2018-08-14T09:26:43Z</time>
      </trkpt>
      <trkpt lat="38.652905" lon="-9.237858">
        <ele>63.231</ele>
        <time>2018-08-14T09:27:11Z</time>
      </trkpt>
      <trkpt lat="38.652834" lon="-9.237597">
        <ele>60.361</ele>
        <time>2018-08-14T09:27:29Z</time>
      </trkpt>
      <trkpt lat="38.651699" lon="-9.236994">
        <ele>62.907</ele>
        <time>2018-08-14T09:28:00Z</time>
      </trkpt>
      <trkpt lat="38.651552" lon="-9.236755">
        <ele>62.908</ele>
        <time>2018-08-14T09:28:10Z</time>
      </trkpt>
      <trkpt lat="38.650011" lon="-9.236169">
        <ele>63.025</ele>
        <time>2018-08-14T09:28:58Z</time>
      </trkpt>
      <trkpt lat="38.647980" lon="-9.235026">
        <ele>64.220</ele>
        <time>2018-08-14T09:30:01Z</time>
      </trkpt>
      <trkpt lat="38.647095" lon="-9.234367">
        <ele>63.568</ele>
        <time>2018-08-14T09:30:26Z</time>
      </trkpt>
      <trkpt lat="38.646632" lon="-9.234309">
        <ele>61.949</ele>
        <time>2018-08-14T09:30:42Z</time>
      </trkpt>
      <trkpt lat="38.646271" lon="-9.233979">
        <ele>60.436</ele>
        <time>2018-08-14T09:30:57Z</time>
      </trkpt>
      <trkpt lat="38.645928" lon="-9.234280">
        <ele>60.320</ele>
        <time>2018-08-14T09:31:15Z</time>
      </trkpt>
      <trkpt lat="38.644674" lon="-9.233505">
        <ele>61.496</ele>
        <time>2018-08-14T09:32:10Z</time>
      </trkpt>
      <trkpt lat="38.644632" lon="-9.233316">
        <ele>61.622</ele>
        <time>2018-08-14T09:32:19Z</time>
      </trkpt>
      <trkpt lat="38.645180" lon="-9.232348">
        <ele>64.575</ele>
        <time>2018-08-14T09:32:40Z</time>
      </trkpt>
      <trkpt lat="38.646452" lon="-9.231212">
        <ele>66.128</ele>
        <time>2018-08-14T09:33:49Z</time>
      </trkpt>
      <trkpt lat="38.646803" lon="-9.230450">
        <ele>68.220</ele>
        <time>2018-08-14T09:34:09Z</time>
      </trkpt>
      <trkpt lat="38.646750" lon="-9.230243">
        <ele>67.708</ele>
        <time>2018-08-14T09:34:14Z</time>
      </trkpt>
      <trkpt lat="38.645140" lon="-9.228748">
        <ele>64.599</ele>
        <time>2018-08-14T09:34:53Z</time>
      </trkpt>
      <trkpt lat="38.644653" lon="-9.227774">
        <ele>64.994</ele>
        <time>2018-08-14T09:35:20Z</time>
      </trkpt>
      <trkpt lat="38.642423" lon="-9.226743">
        <ele>65.112</ele>
        <time>2018-08-14T09:36:12Z</time>
      </trkpt>
      <trkpt lat="38.641210" lon="-9.225600">
        <ele>63.693</ele>
        <time>2018-08-14T09:36:43Z</time>
      </trkpt>
      <trkpt lat="38.640276" lon="-9.225424">
        <ele>63.630</ele>
        <time>2018-08-14T09:37:04Z</time>
      </trkpt>
      <trkpt lat="38.639628" lon="-9.225575">
        <ele>63.934</ele>
        <time>2018-08-14T09:37:24Z</time>
      </trkpt>
      <trkpt lat="38.638603" lon="-9.225368">
        <ele>65.460</ele>
        <time>2018-08-14T09:37:51Z</time>
      </trkpt>
      <trkpt lat="38.637841" lon="-9.224492">
        <ele>66.626</ele>
        <time>2018-08-14T09:38:34Z</time>
      </trkpt>
      <trkpt lat="38.637180" lon="-9.223087">
        <ele>65.295</ele>
        <time>2018-08-14T09:39:08Z</time>
      </trkpt>
      <trkpt lat="38.636452" lon="-9.222227">
        <ele>64.749</ele>
        <time>2018-08-14T09:39:32Z</time>
      </trkpt>
      <trkpt lat="38.635568" lon="-9.221610">
        <ele>64.923</ele>
        <time>2018-08-14T09:39:58Z</time>
      </trkpt>
      <trkpt lat="38.634416" lon="-9.220207">
        <ele>63.908</ele>
        <time>2018-08-14T09:40:41Z</time>
      </trkpt>
      <trkpt lat="38.633532" lon="-9.221660">
        <ele>61.481</ele>
        <time>2018-08-14T09:41:15Z</time>
      </trkpt>
      <trkpt lat="38.632448" lon="-9.222664">
        <ele>58.946</ele>
        <time>2018-08-14T09:41:48Z</time>
      </trkpt>
      <trkpt lat="38.631712" lon="-9.223747">
        <ele>62.934</ele>
        <time>2018-08-14T09:42:32Z</time>
      </trkpt>
      <trkpt lat="38.624790" lon="-9.216502">
        <ele>66.275</ele>
        <time>2018-08-14T09:45:39Z</time>
      </trkpt>
      <trkpt lat="38.617415" lon="-9.212288">
        <ele>62.582</ele>
        <time>2018-08-14T09:48:18Z</time>
      </trkpt>
      <trkpt lat="38.610263" lon="-9.207320">
        <ele>65.266</ele>
        <time>2018-08-14T09:51:03Z</time>
      </trkpt>
      <trkpt lat="38.609679" lon="-9.206613">
        <ele>68.332</ele>
        <time>2018-08-14T09:51:22Z</time>
      </trkpt>
      <trkpt lat="38.608215" lon="-9.203496">
        <ele>96.338</ele>
        <time>2018-08-14T09:53:30Z</time>
      </trkpt>
      <trkpt lat="38.607949" lon="-9.199321">
        <ele>116.235</ele>
        <time>2018-08-14T09:55:50Z</time>
      </trkpt>
      <trkpt lat="38.607638" lon="-9.198676">
        <ele>116.286</ele>
        <time>2018-08-14T09:56:04Z</time>
      </trkpt>
      <trkpt lat="38.604207" lon="-9.197331">
        <ele>109.114</ele>
        <time>2018-08-14T09:57:28Z</time>
      </trkpt>
      <trkpt lat="38.600702" lon="-9.195419">
        <ele>120.508</ele>
        <time>2018-08-14T09:59:07Z</time>
      </trkpt>
      <trkpt lat="38.599736" lon="-9.195039">
        <ele>119.925</ele>
        <time>2018-08-14T10:01:41Z</time>
      </trkpt>
      <trkpt lat="38.592086" lon="-9.195051">
        <ele>127.720</ele>
        <time>2018-08-14T10:10:48Z</time>
      </trkpt>
      <trkpt lat="38.588792" lon="-9.195307">
        <ele>132.778</ele>
        <time>2018-08-14T10:12:09Z</time>
      </trkpt>
      <trkpt lat="38.588289" lon="-9.195114">
        <ele>133.179</ele>
        <time>2018-08-14T10:12:20Z</time>
      </trkpt>
      <trkpt lat="38.587105" lon="-9.194199">
        <ele>131.676</ele>
        <time>2018-08-14T10:12:48Z</time>
      </trkpt>
      <trkpt lat="38.586675" lon="-9.194043">
        <ele>131.560</ele>
        <time>2018-08-14T10:13:22Z</time>
      </trkpt>
      <trkpt lat="38.584755" lon="-9.194316">
        <ele>138.416</ele>
        <time>2018-08-14T10:14:06Z</time>
      </trkpt>
      <trkpt lat="38.583242" lon="-9.194174">
        <ele>135.262</ele>
        <time>2018-08-14T10:14:30Z</time>
      </trkpt>
      <trkpt lat="38.579640" lon="-9.194702">
        <ele>129.139</ele>
        <time>2018-08-14T10:15:26Z</time>
      </trkpt>
      <trkpt lat="38.578426" lon="-9.194511">
        <ele>125.401</ele>
        <time>2018-08-14T10:15:42Z</time>
      </trkpt>
      <trkpt lat="38.576206" lon="-9.193512">
        <ele>117.321</ele>
        <time>2018-08-14T10:17:05Z</time>
      </trkpt>
      <trkpt lat="38.575474" lon="-9.193915">
        <ele>112.808</ele>
        <time>2018-08-14T10:17:44Z</time>
      </trkpt>
      <trkpt lat="38.576095" lon="-9.193490">
        <ele>115.255</ele>
        <time>2018-08-14T10:18:49Z</time>
      </trkpt>
      <trkpt lat="38.574891" lon="-9.192707">
        <ele>108.480</ele>
        <time>2018-08-14T10:19:19Z</time>
      </trkpt>
      <trkpt lat="38.575348" lon="-9.190393">
        <ele>122.528</ele>
        <time>2018-08-14T10:20:21Z</time>
      </trkpt>
      <trkpt lat="38.575687" lon="-9.189862">
        <ele>127.719</ele>
        <time>2018-08-14T10:20:43Z</time>
      </trkpt>
      <trkpt lat="38.577146" lon="-9.188385">
        <ele>126.466</ele>
        <time>2018-08-14T10:21:26Z</time>
      </trkpt>
      <trkpt lat="38.592094" lon="-9.150650">
        <ele>94.410</ele>
        <time>2018-08-14T10:33:08Z</time>
      </trkpt>
      <trkpt lat="38.594843" lon="-9.145587">
        <ele>97.086</ele>
        <time>2018-08-14T10:34:43Z</time>
      </trkpt>
      <trkpt lat="38.594914" lon="-9.145200">
        <ele>97.492</ele>
        <time>2018-08-14T10:34:51Z</time>
      </trkpt>
      <trkpt lat="38.595212" lon="-9.144975">
        <ele>97.727</ele>
        <time>2018-08-14T10:34:58Z</time>
      </trkpt>
      <trkpt lat="38.596918" lon="-9.141940">
        <ele>104.968</ele>
        <time>2018-08-14T10:36:04Z</time>
      </trkpt>
      <trkpt lat="38.597476" lon="-9.140830">
        <ele>105.514</ele>
        <time>2018-08-14T10:36:26Z</time>
      </trkpt>
      <trkpt lat="38.597497" lon="-9.140153">
        <ele>103.508</ele>
        <time>2018-08-14T10:36:39Z</time>
      </trkpt>
      <trkpt lat="38.597813" lon="-9.139790">
        <ele>103.934</ele>
        <time>2018-08-14T10:36:52Z</time>
      </trkpt>
      <trkpt lat="38.597851" lon="-9.139160">
        <ele>105.799</ele>
        <time>2018-08-14T10:38:55Z</time>
      </trkpt>
      <trkpt lat="38.597408" lon="-9.140005">
        <ele>104.577</ele>
        <time>2018-08-14T10:39:49Z</time>
      </trkpt>
      <trkpt lat="38.596854" lon="-9.138679">
        <ele>103.328</ele>
        <time>2018-08-14T10:40:31Z</time>
      </trkpt>
      <trkpt lat="38.593066" lon="-9.137734">
        <ele>109.265</ele>
        <time>2018-08-14T10:45:16Z</time>
      </trkpt>
      <trkpt lat="38.591192" lon="-9.137043">
        <ele>109.819</ele>
        <time>2018-08-14T10:45:57Z</time>
      </trkpt>
      <trkpt lat="38.590048" lon="-9.136214">
        <ele>108.685</ele>
        <time>2018-08-14T10:46:20Z</time>
      </trkpt>
      <trkpt lat="38.586079" lon="-9.134047">
        <ele>114.011</ele>
        <time>2018-08-14T10:47:57Z</time>
      </trkpt>
      <trkpt lat="38.583822" lon="-9.133979">
        <ele>118.244</ele>
        <time>2018-08-14T10:49:05Z</time>
      </trkpt>
      <trkpt lat="38.582152" lon="-9.131677">
        <ele>117.905</ele>
        <time>2018-08-14T10:50:13Z</time>
      </trkpt>
      <trkpt lat="38.581027" lon="-9.128618">
        <ele>121.615</ele>
        <time>2018-08-14T10:51:12Z</time>
      </trkpt>
      <trkpt lat="38.580669" lon="-9.128383">
        <ele>122.408</ele>
        <time>2018-08-14T10:51:22Z</time>
      </trkpt>
      <trkpt lat="38.579346" lon="-9.128449">
        <ele>124.266</ele>
        <time>2018-08-14T11:03:11Z</time>
      </trkpt>
      <trkpt lat="38.578678" lon="-9.126920">
        <ele>122.991</ele>
        <time>2018-08-14T11:03:39Z</time>
      </trkpt>
      <trkpt lat="38.577201" lon="-9.125233">
        <ele>124.269</ele>
        <time>2018-08-14T11:04:21Z</time>
      </trkpt>
      <trkpt lat="38.576978" lon="-9.124667">
        <ele>121.760</ele>
        <time>2018-08-14T11:04:30Z</time>
      </trkpt>
      <trkpt lat="38.577054" lon="-9.123584">
        <ele>116.827</ele>
        <time>2018-08-14T11:06:17Z</time>
      </trkpt>
      <trkpt lat="38.576628" lon="-9.123601">
        <ele>117.091</ele>
        <time>2018-08-14T11:08:37Z</time>
      </trkpt>
      <trkpt lat="38.577117" lon="-9.123392">
        <ele>116.527</ele>
        <time>2018-08-14T11:08:53Z</time>
      </trkpt>
      <trkpt lat="38.582363" lon="-9.110760">
        <ele>100.683</ele>
        <time>2018-08-14T11:12:10Z</time>
      </trkpt>
      <trkpt lat="38.586165" lon="-9.103905">
        <ele>80.169</ele>
        <time>2018-08-14T11:13:58Z</time>
      </trkpt>
      <trkpt lat="38.586540" lon="-9.103748">
        <ele>82.904</ele>
        <time>2018-08-14T11:14:46Z</time>
      </trkpt>
      <trkpt lat="38.582341" lon="-9.102000">
        <ele>88.924</ele>
        <time>2018-08-14T11:16:27Z</time>
      </trkpt>
      <trkpt lat="38.579345" lon="-9.101291">
        <ele>91.108</ele>
        <time>2018-08-14T11:17:22Z</time>
      </trkpt>
      <trkpt lat="38.578648" lon="-9.101224">
        <ele>88.598</ele>
        <time>2018-08-14T11:17:35Z</time>
      </trkpt>
      <trkpt lat="38.576636" lon="-9.101481">
        <ele>92.623</ele>
        <time>2018-08-14T11:18:16Z</time>
      </trkpt>
      <trkpt lat="38.567315" lon="-9.099572">
        <ele>107.041</ele>
        <time>2018-08-14T11:21:23Z</time>
      </trkpt>
      <trkpt lat="38.566163" lon="-9.099663">
        <ele>108.712</ele>
        <time>2018-08-14T11:21:51Z</time>
      </trkpt>
      <trkpt lat="38.564109" lon="-9.100348">
        <ele>114.429</ele>
        <time>2018-08-14T11:22:40Z</time>
      </trkpt>
      <trkpt lat="38.551415" lon="-9.100966">
        <ele>132.913</ele>
        <time>2018-08-14T11:27:34Z</time>
      </trkpt>
      <trkpt lat="38.551151" lon="-9.101162">
        <ele>131.079</ele>
        <time>2018-08-14T11:30:25Z</time>
      </trkpt>
      <trkpt lat="38.550835" lon="-9.101051">
        <ele>132.185</ele>
        <time>2018-08-14T11:30:32Z</time>
      </trkpt>
      <trkpt lat="38.550698" lon="-9.100754">
        <ele>132.056</ele>
        <time>2018-08-14T11:30:38Z</time>
      </trkpt>
      <trkpt lat="38.550767" lon="-9.100460">
        <ele>132.859</ele>
        <time>2018-08-14T11:30:44Z</time>
      </trkpt>
      <trkpt lat="38.551290" lon="-9.100153">
        <ele>131.514</ele>
        <time>2018-08-14T11:31:01Z</time>
      </trkpt>
      <trkpt lat="38.551803" lon="-9.099175">
        <ele>132.708</ele>
        <time>2018-08-14T11:32:00Z</time>
      </trkpt>
      <trkpt lat="38.552253" lon="-9.096091">
        <ele>127.937</ele>
        <time>2018-08-14T11:32:45Z</time>
      </trkpt>
      <trkpt lat="38.554484" lon="-9.088982">
        <ele>131.892</ele>
        <time>2018-08-14T11:34:58Z</time>
      </trkpt>
      <trkpt lat="38.554451" lon="-9.088435">
        <ele>134.050</ele>
        <time>2018-08-14T11:43:46Z</time>
      </trkpt>
      <trkpt lat="38.554895" lon="-9.088145">
        <ele>135.271</ele>
        <time>2018-08-14T11:44:11Z</time>
      </trkpt>
      <trkpt lat="38.557115" lon="-9.085105">
        <ele>138.228</ele>
        <time>2018-08-14T11:45:50Z</time>
      </trkpt>
      <trkpt lat="38.559045" lon="-9.081861">
        <ele>136.782</ele>
        <time>2018-08-14T11:47:15Z</time>
      </trkpt>
      <trkpt lat="38.548151" lon="-9.079881">
        <ele>142.368</ele>
        <time>2018-08-14T11:51:06Z</time>
      </trkpt>
      <trkpt lat="38.547893" lon="-9.079622">
        <ele>142.734</ele>
        <time>2018-08-14T11:51:14Z</time>
      </trkpt>
      <trkpt lat="38.547754" lon="-9.078875">
        <ele>140.568</ele>
        <time>2018-08-14T11:51:28Z</time>
      </trkpt>
      <trkpt lat="38.546552" lon="-9.078634">
        <ele>139.742</ele>
        <time>2018-08-14T11:58:42Z</time>
      </trkpt>
      <trkpt lat="38.546421" lon="-9.077483">
        <ele>139.026</ele>
        <time>2018-08-14T12:02:37Z</time>
      </trkpt>
      <trkpt lat="38.545751" lon="-9.075543">
        <ele>139.808</ele>
        <time>2018-08-14T12:03:22Z</time>
      </trkpt>
      <trkpt lat="38.542811" lon="-9.070930">
        <ele>126.438</ele>
        <time>2018-08-14T12:04:57Z</time>
      </trkpt>
      <trkpt lat="38.540548" lon="-9.067039">
        <ele>140.453</ele>
        <time>2018-08-14T12:08:13Z</time>
      </trkpt>
      <trkpt lat="38.540774" lon="-9.066317">
        <ele>140.031</ele>
        <time>2018-08-14T12:09:07Z</time>
      </trkpt>
      <trkpt lat="38.540657" lon="-9.066936">
        <ele>138.522</ele>
        <time>2018-08-14T12:09:52Z</time>
      </trkpt>
      <trkpt lat="38.540468" lon="-9.067073">
        <ele>137.339</ele>
        <time>2018-08-14T12:10:02Z</time>
      </trkpt>
      <trkpt lat="38.532494" lon="-9.064471">
        <ele>132.013</ele>
        <time>2018-08-14T12:13:10Z</time>
      </trkpt>
      <trkpt lat="38.517825" lon="-9.064764">
        <ele>137.229</ele>
        <time>2018-08-14T12:20:02Z</time>
      </trkpt>
      <trkpt lat="38.513773" lon="-9.064980">
        <ele>140.745</ele>
        <time>2018-08-14T12:21:55Z</time>
      </trkpt>
      <trkpt lat="38.511896" lon="-9.063924">
        <ele>138.427</ele>
        <time>2018-08-14T12:22:32Z</time>
      </trkpt>
      <trkpt lat="38.511699" lon="-9.059641">
        <ele>131.368</ele>
        <time>2018-08-14T12:24:49Z</time>
      </trkpt>
      <trkpt lat="38.511925" lon="-9.055570">
        <ele>130.614</ele>
        <time>2018-08-14T12:26:05Z</time>
      </trkpt>
      <trkpt lat="38.512197" lon="-9.053327">
        <ele>128.608</ele>
        <time>2018-08-14T12:26:40Z</time>
      </trkpt>
      <trkpt lat="38.512165" lon="-9.052352">
        <ele>125.544</ele>
        <time>2018-08-14T12:26:53Z</time>
      </trkpt>
      <trkpt lat="38.513226" lon="-9.047196">
        <ele>105.449</ele>
        <time>2018-08-14T12:27:46Z</time>
      </trkpt>
      <trkpt lat="38.513593" lon="-9.043063">
        <ele>123.957</ele>
        <time>2018-08-14T12:30:09Z</time>
      </trkpt>
      <trkpt lat="38.513537" lon="-9.040816">
        <ele>114.778</ele>
        <time>2018-08-14T12:31:13Z</time>
      </trkpt>
      <trkpt lat="38.513324" lon="-9.040478">
        <ele>111.255</ele>
        <time>2018-08-14T12:31:19Z</time>
      </trkpt>
      <trkpt lat="38.512732" lon="-9.040603">
        <ele>109.439</ele>
        <time>2018-08-14T12:31:32Z</time>
      </trkpt>
      <trkpt lat="38.512449" lon="-9.040534">
        <ele>109.515</ele>
        <time>2018-08-14T12:32:49Z</time>
      </trkpt>
      <trkpt lat="38.512370" lon="-9.040370">
        <ele>111.271</ele>
        <time>2018-08-14T12:32:54Z</time>
      </trkpt>
      <trkpt lat="38.512704" lon="-9.038827">
        <ele>111.337</ele>
        <time>2018-08-14T12:33:25Z</time>
      </trkpt>
      <trkpt lat="38.513062" lon="-9.035622">
        <ele>133.049</ele>
        <time>2018-08-14T12:37:30Z</time>
      </trkpt>
      <trkpt lat="38.512843" lon="-9.035577">
        <ele>132.113</ele>
        <time>2018-08-14T12:41:22Z</time>
      </trkpt>
      <trkpt lat="38.512720" lon="-9.035076">
        <ele>133.408</ele>
        <time>2018-08-14T12:41:48Z</time>
      </trkpt>
      <trkpt lat="38.512382" lon="-9.034765">
        <ele>135.895</ele>
        <time>2018-08-14T12:42:06Z</time>
      </trkpt>
      <trkpt lat="38.509362" lon="-9.033868">
        <ele>146.850</ele>
        <time>2018-08-14T12:43:56Z</time>
      </trkpt>
      <trkpt lat="38.509175" lon="-9.033491">
        <ele>146.698</ele>
        <time>2018-08-14T12:44:07Z</time>
      </trkpt>
      <trkpt lat="38.509271" lon="-9.032417">
        <ele>150.029</ele>
        <time>2018-08-14T12:44:42Z</time>
      </trkpt>
      <trkpt lat="38.506908" lon="-9.033884">
        <ele>143.746</ele>
        <time>2018-08-14T12:45:32Z</time>
      </trkpt>
      <trkpt lat="38.506088" lon="-9.033599">
        <ele>140.140</ele>
        <time>2018-08-14T12:45:45Z</time>
      </trkpt>
      <trkpt lat="38.505872" lon="-9.033691">
        <ele>138.236</ele>
        <time>2018-08-14T12:48:11Z</time>
      </trkpt>
      <trkpt lat="38.505633" lon="-9.034071">
        <ele>135.112</ele>
        <time>2018-08-14T12:48:19Z</time>
      </trkpt>
      <trkpt lat="38.505771" lon="-9.034664">
        <ele>137.562</ele>
        <time>2018-08-14T12:49:09Z</time>
      </trkpt>
      <trkpt lat="38.505552" lon="-9.034304">
        <ele>138.383</ele>
        <time>2018-08-14T12:49:19Z</time>
      </trkpt>
      <trkpt lat="38.505695" lon="-9.033707">
        <ele>137.911</ele>
        <time>2018-08-14T12:49:34Z</time>
      </trkpt>
      <trkpt lat="38.505596" lon="-9.033366">
        <ele>139.008</ele>
        <time>2018-08-14T12:49:48Z</time>
      </trkpt>
      <trkpt lat="38.504832" lon="-9.033110">
        <ele>139.428</ele>
        <time>2018-08-14T12:50:11Z</time>
      </trkpt>
      <trkpt lat="38.504192" lon="-9.032450">
        <ele>138.033</ele>
        <time>2018-08-14T12:50:28Z</time>
      </trkpt>
      <trkpt lat="38.503356" lon="-9.032212">
        <ele>141.411</ele>
        <time>2018-08-14T12:50:47Z</time>
      </trkpt>
      <trkpt lat="38.500332" lon="-9.029527">
        <ele>141.882</ele>
        <time>2018-08-14T12:52:06Z</time>
      </trkpt>
      <trkpt lat="38.499157" lon="-9.028886">
        <ele>141.599</ele>
        <time>2018-08-14T12:52:34Z</time>
      </trkpt>
      <trkpt lat="38.498241" lon="-9.028715">
        <ele>141.053</ele>
        <time>2018-08-14T12:52:58Z</time>
      </trkpt>
      <trkpt lat="38.497666" lon="-9.028834">
        <ele>140.489</ele>
        <time>2018-08-14T12:53:11Z</time>
      </trkpt>
      <trkpt lat="38.495525" lon="-9.029850">
        <ele>144.855</ele>
        <time>2018-08-14T12:53:58Z</time>
      </trkpt>
      <trkpt lat="38.493610" lon="-9.029792">
        <ele>144.388</ele>
        <time>2018-08-14T12:54:38Z</time>
      </trkpt>
      <trkpt lat="38.493132" lon="-9.029511">
        <ele>147.424</ele>
        <time>2018-08-14T12:54:50Z</time>
      </trkpt>
      <trkpt lat="38.492144" lon="-9.028118">
        <ele>151.926</ele>
        <time>2018-08-14T12:55:26Z</time>
      </trkpt>
      <trkpt lat="38.491804" lon="-9.027945">
        <ele>152.108</ele>
        <time>2018-08-14T12:55:36Z</time>
      </trkpt>
      <trkpt lat="38.491105" lon="-9.028093">
        <ele>152.150</ele>
        <time>2018-08-14T12:55:54Z</time>
      </trkpt>
      <trkpt lat="38.487247" lon="-9.029893">
        <ele>161.895</ele>
        <time>2018-08-14T12:57:36Z</time>
      </trkpt>
      <trkpt lat="38.485986" lon="-9.030210">
        <ele>167.793</ele>
        <time>2018-08-14T12:58:11Z</time>
      </trkpt>
      <trkpt lat="38.485632" lon="-9.030140">
        <ele>167.734</ele>
        <time>2018-08-14T12:58:21Z</time>
      </trkpt>
      <trkpt lat="38.484712" lon="-9.029184">
        <ele>174.371</ele>
        <time>2018-08-14T12:59:09Z</time>
      </trkpt>
      <trkpt lat="38.484389" lon="-9.029114">
        <ele>173.945</ele>
        <time>2018-08-14T12:59:17Z</time>
      </trkpt>
      <trkpt lat="38.483056" lon="-9.029956">
        <ele>166.831</ele>
        <time>2018-08-14T12:59:37Z</time>
      </trkpt>
      <trkpt lat="38.481111" lon="-9.030096">
        <ele>167.477</ele>
        <time>2018-08-14T13:00:13Z</time>
      </trkpt>
      <trkpt lat="38.478006" lon="-9.030080">
        <ele>166.138</ele>
        <time>2018-08-14T13:01:14Z</time>
      </trkpt>
      <trkpt lat="38.475160" lon="-9.029880">
        <ele>175.270</ele>
        <time>2018-08-14T13:02:44Z</time>
      </trkpt>
      <trkpt lat="38.474318" lon="-9.029536">
        <ele>183.617</ele>
        <time>2018-08-14T13:03:42Z</time>
      </trkpt>
      <trkpt lat="38.472931" lon="-9.029516">
        <ele>194.508</ele>
        <time>2018-08-14T13:05:00Z</time>
      </trkpt>
      <trkpt lat="38.470949" lon="-9.030529">
        <ele>213.375</ele>
        <time>2018-08-14T13:07:10Z</time>
      </trkpt>
      <trkpt lat="38.470740" lon="-9.030434">
        <ele>215.110</ele>
        <time>2018-08-14T13:07:26Z</time>
      </trkpt>
      <trkpt lat="38.470382" lon="-9.029705">
        <ele>225.348</ele>
        <time>2018-08-14T13:08:18Z</time>
      </trkpt>
      <trkpt lat="38.468722" lon="-9.028029">
        <ele>239.929</ele>
        <time>2018-08-14T13:10:45Z</time>
      </trkpt>
      <trkpt lat="38.468280" lon="-9.027183">
        <ele>243.556</ele>
        <time>2018-08-14T13:13:18Z</time>
      </trkpt>
      <trkpt lat="38.465891" lon="-9.027027">
        <ele>260.240</ele>
        <time>2018-08-14T13:15:34Z</time>
      </trkpt>
      <trkpt lat="38.464390" lon="-9.027184">
        <ele>263.366</ele>
        <time>2018-08-14T13:16:38Z</time>
      </trkpt>
      <trkpt lat="38.463478" lon="-9.026845">
        <ele>259.852</ele>
        <time>2018-08-14T13:17:00Z</time>
      </trkpt>
      <trkpt lat="38.461137" lon="-9.025103">
        <ele>257.737</ele>
        <time>2018-08-14T13:18:00Z</time>
      </trkpt>
      <trkpt lat="38.460694" lon="-9.024461">
        <ele>257.749</ele>
        <time>2018-08-14T13:18:14Z</time>
      </trkpt>
      <trkpt lat="38.460334" lon="-9.023343">
        <ele>255.013</ele>
        <time>2018-08-14T13:18:31Z</time>
      </trkpt>
      <trkpt lat="38.460155" lon="-9.020352">
        <ele>263.908</ele>
        <time>2018-08-14T13:19:50Z</time>
      </trkpt>
      <trkpt lat="38.460199" lon="-9.018077">
        <ele>275.985</ele>
        <time>2018-08-14T13:21:43Z</time>
      </trkpt>
      <trkpt lat="38.460819" lon="-9.017159">
        <ele>283.380</ele>
        <time>2018-08-14T13:24:05Z</time>
      </trkpt>
      <trkpt lat="38.461092" lon="-9.016296">
        <ele>284.358</ele>
        <time>2018-08-14T13:24:44Z</time>
      </trkpt>
      <trkpt lat="38.460902" lon="-9.015996">
        <ele>287.139</ele>
        <time>2018-08-14T13:24:59Z</time>
      </trkpt>
      <trkpt lat="38.460124" lon="-9.016135">
        <ele>290.466</ele>
        <time>2018-08-14T13:25:35Z</time>
      </trkpt>
      <trkpt lat="38.459892" lon="-9.015784">
        <ele>295.080</ele>
        <time>2018-08-14T13:28:13Z</time>
      </trkpt>
      <trkpt lat="38.460004" lon="-9.014946">
        <ele>300.176</ele>
        <time>2018-08-14T13:32:41Z</time>
      </trkpt>
      <trkpt lat="38.460521" lon="-9.013721">
        <ele>299.282</ele>
        <time>2018-08-14T13:33:19Z</time>
      </trkpt>
      <trkpt lat="38.460999" lon="-9.011143">
        <ele>298.731</ele>
        <time>2018-08-14T13:34:09Z</time>
      </trkpt>
      <trkpt lat="38.460879" lon="-9.010780">
        <ele>299.061</ele>
        <time>2018-08-14T13:34:21Z</time>
      </trkpt>
      <trkpt lat="38.460289" lon="-9.010622">
        <ele>295.707</ele>
        <time>2018-08-14T13:34:51Z</time>
      </trkpt>
      <trkpt lat="38.460135" lon="-9.010325">
        <ele>293.908</ele>
        <time>2018-08-14T13:34:56Z</time>
      </trkpt>
      <trkpt lat="38.460254" lon="-9.010025">
        <ele>291.485</ele>
        <time>2018-08-14T13:35:01Z</time>
      </trkpt>
      <trkpt lat="38.460807" lon="-9.009498">
        <ele>282.170</ele>
        <time>2018-08-14T13:35:11Z</time>
      </trkpt>
      <trkpt lat="38.460934" lon="-9.008290">
        <ele>271.098</ele>
        <time>2018-08-14T13:35:24Z</time>
      </trkpt>
      <trkpt lat="38.461511" lon="-9.007766">
        <ele>263.159</ele>
        <time>2018-08-14T13:35:33Z</time>
      </trkpt>
      <trkpt lat="38.461402" lon="-9.006751">
        <ele>250.086</ele>
        <time>2018-08-14T13:35:43Z</time>
      </trkpt>
      <trkpt lat="38.461710" lon="-9.006156">
        <ele>239.820</ele>
        <time>2018-08-14T13:35:50Z</time>
      </trkpt>
      <trkpt lat="38.461657" lon="-9.003910">
        <ele>216.156</ele>
        <time>2018-08-14T13:36:05Z</time>
      </trkpt>
      <trkpt lat="38.461989" lon="-9.002847">
        <ele>206.312</ele>
        <time>2018-08-14T13:36:12Z</time>
      </trkpt>
      <trkpt lat="38.463042" lon="-9.001378">
        <ele>195.127</ele>
        <time>2018-08-14T13:36:27Z</time>
      </trkpt>
      <trkpt lat="38.464117" lon="-9.000538">
        <ele>184.068</ele>
        <time>2018-08-14T13:36:38Z</time>
      </trkpt>
      <trkpt lat="38.465000" lon="-8.999533">
        <ele>173.914</ele>
        <time>2018-08-14T13:36:48Z</time>
      </trkpt>
      <trkpt lat="38.465977" lon="-8.997562">
        <ele>156.208</ele>
        <time>2018-08-14T13:37:08Z</time>
      </trkpt>
      <trkpt lat="38.467039" lon="-8.995831">
        <ele>143.354</ele>
        <time>2018-08-14T13:37:26Z</time>
      </trkpt>
      <trkpt lat="38.468470" lon="-8.994726">
        <ele>139.779</ele>
        <time>2018-08-14T13:37:47Z</time>
      </trkpt>
      <trkpt lat="38.469434" lon="-8.994703">
        <ele>133.247</ele>
        <time>2018-08-14T13:37:58Z</time>
      </trkpt>
      <trkpt lat="38.469760" lon="-8.994516">
        <ele>130.638</ele>
        <time>2018-08-14T13:38:02Z</time>
      </trkpt>
      <trkpt lat="38.469906" lon="-8.993745">
        <ele>124.735</ele>
        <time>2018-08-14T13:38:08Z</time>
      </trkpt>
      <trkpt lat="38.469827" lon="-8.992560">
        <ele>118.069</ele>
        <time>2018-08-14T13:38:18Z</time>
      </trkpt>
      <trkpt lat="38.471047" lon="-8.991109">
        <ele>114.845</ele>
        <time>2018-08-14T13:43:23Z</time>
      </trkpt>
      <trkpt lat="38.470189" lon="-8.989978">
        <ele>110.751</ele>
        <time>2018-08-14T13:44:04Z</time>
      </trkpt>
      <trkpt lat="38.470869" lon="-8.987978">
        <ele>102.274</ele>
        <time>2018-08-14T13:44:38Z</time>
      </trkpt>
      <trkpt lat="38.472495" lon="-8.985532">
        <ele>91.856</ele>
        <time>2018-08-14T13:45:34Z</time>
      </trkpt>
      <trkpt lat="38.473448" lon="-8.983235">
        <ele>72.821</ele>
        <time>2018-08-14T13:46:23Z</time>
      </trkpt>
      <trkpt lat="38.473886" lon="-8.982839">
        <ele>70.408</ele>
        <time>2018-08-14T13:49:54Z</time>
      </trkpt>
      <trkpt lat="38.473712" lon="-8.982801">
        <ele>67.069</ele>
        <time>2018-08-14T13:53:26Z</time>
      </trkpt>
      <trkpt lat="38.473886" lon="-8.982845">
        <ele>70.944</ele>
        <time>2018-08-14T13:55:50Z</time>
      </trkpt>
      <trkpt lat="38.474063" lon="-8.983246">
        <ele>74.182</ele>
        <time>2018-08-14T13:57:26Z</time>
      </trkpt>
      <trkpt lat="38.474785" lon="-8.983994">
        <ele>68.913</ele>
        <time>2018-08-14T13:57:55Z</time>
      </trkpt>
      <trkpt lat="38.475663" lon="-8.984543">
        <ele>60.520</ele>
        <time>2018-08-14T13:58:12Z</time>
      </trkpt>
      <trkpt lat="38.476274" lon="-8.984392">
        <ele>57.194</ele>
        <time>2018-08-14T13:58:34Z</time>
      </trkpt>
      <trkpt lat="38.476997" lon="-8.983989">
        <ele>62.660</ele>
        <time>2018-08-14T13:59:26Z</time>
      </trkpt>
      <trkpt lat="38.477739" lon="-8.983201">
        <ele>64.056</ele>
        <time>2018-08-14T14:00:01Z</time>
      </trkpt>
      <trkpt lat="38.478170" lon="-8.982996">
        <ele>61.152</ele>
        <time>2018-08-14T14:00:12Z</time>
      </trkpt>
      <trkpt lat="38.479075" lon="-8.981575">
        <ele>61.753</ele>
        <time>2018-08-14T14:00:51Z</time>
      </trkpt>
      <trkpt lat="38.479606" lon="-8.981076">
        <ele>56.908</ele>
        <time>2018-08-14T14:01:06Z</time>
      </trkpt>
      <trkpt lat="38.480516" lon="-8.979002">
        <ele>56.708</ele>
        <time>2018-08-14T14:02:04Z</time>
      </trkpt>
      <trkpt lat="38.480772" lon="-8.977563">
        <ele>55.417</ele>
        <time>2018-08-14T14:02:38Z</time>
      </trkpt>
      <trkpt lat="38.481409" lon="-8.977564">
        <ele>57.982</ele>
        <time>2018-08-14T14:05:03Z</time>
      </trkpt>
      <trkpt lat="38.482208" lon="-8.976519">
        <ele>83.980</ele>
        <time>2018-08-14T14:08:42Z</time>
      </trkpt>
      <trkpt lat="38.482341" lon="-8.976603">
        <ele>83.141</ele>
        <time>2018-08-14T14:10:11Z</time>
      </trkpt>
      <trkpt lat="38.483137" lon="-8.976343">
        <ele>94.958</ele>
        <time>2018-08-14T14:11:17Z</time>
      </trkpt>
      <trkpt lat="38.483978" lon="-8.974287">
        <ele>112.712</ele>
        <time>2018-08-14T14:13:27Z</time>
      </trkpt>
      <trkpt lat="38.484185" lon="-8.973244">
        <ele>122.148</ele>
        <time>2018-08-14T14:14:19Z</time>
      </trkpt>
      <trkpt lat="38.484334" lon="-8.973089">
        <ele>123.764</ele>
        <time>2018-08-14T14:14:31Z</time>
      </trkpt>
      <trkpt lat="38.484766" lon="-8.973063">
        <ele>127.069</ele>
        <time>2018-08-14T14:15:00Z</time>
      </trkpt>
      <trkpt lat="38.484884" lon="-8.972866">
        <ele>126.704</ele>
        <time>2018-08-14T14:15:08Z</time>
      </trkpt>
      <trkpt lat="38.484915" lon="-8.972271">
        <ele>122.824</ele>
        <time>2018-08-14T14:15:16Z</time>
      </trkpt>
      <trkpt lat="38.484532" lon="-8.970885">
        <ele>113.308</ele>
        <time>2018-08-14T14:15:30Z</time>
      </trkpt>
      <trkpt lat="38.484831" lon="-8.969213">
        <ele>101.798</ele>
        <time>2018-08-14T14:15:44Z</time>
      </trkpt>
      <trkpt lat="38.484713" lon="-8.966375">
        <ele>84.183</ele>
        <time>2018-08-14T14:16:04Z</time>
      </trkpt>
      <trkpt lat="38.485262" lon="-8.963905">
        <ele>76.981</ele>
        <time>2018-08-14T14:16:26Z</time>
      </trkpt>
      <trkpt lat="38.484881" lon="-8.962039">
        <ele>72.722</ele>
        <time>2018-08-14T14:16:46Z</time>
      </trkpt>
      <trkpt lat="38.485163" lon="-8.959919">
        <ele>64.939</ele>
        <time>2018-08-14T14:17:09Z</time>
      </trkpt>
      <trkpt lat="38.484957" lon="-8.958175">
        <ele>65.473</ele>
        <time>2018-08-14T14:19:04Z</time>
      </trkpt>
      <trkpt lat="38.484879" lon="-8.955461">
        <ele>64.079</ele>
        <time>2018-08-14T14:19:51Z</time>
      </trkpt>
      <trkpt lat="38.485463" lon="-8.953827">
        <ele>72.075</ele>
        <time>2018-08-14T14:20:29Z</time>
      </trkpt>
      <trkpt lat="38.485244" lon="-8.953063">
        <ele>72.164</ele>
        <time>2018-08-14T14:20:49Z</time>
      </trkpt>
      <trkpt lat="38.485180" lon="-8.951810">
        <ele>73.706</ele>
        <time>2018-08-14T14:21:16Z</time>
      </trkpt>
      <trkpt lat="38.484860" lon="-8.950214">
        <ele>68.816</ele>
        <time>2018-08-14T14:21:39Z</time>
      </trkpt>
      <trkpt lat="38.484896" lon="-8.946665">
        <ele>58.108</ele>
        <time>2018-08-14T14:22:15Z</time>
      </trkpt>
      <trkpt lat="38.485301" lon="-8.942621">
        <ele>66.218</ele>
        <time>2018-08-14T14:23:36Z</time>
      </trkpt>
      <trkpt lat="38.486699" lon="-8.939535">
        <ele>63.153</ele>
        <time>2018-08-14T14:24:42Z</time>
      </trkpt>
      <trkpt lat="38.486963" lon="-8.939215">
        <ele>66.081</ele>
        <time>2018-08-14T14:24:53Z</time>
      </trkpt>
      <trkpt lat="38.487316" lon="-8.937198">
        <ele>68.892</ele>
        <time>2018-08-14T14:25:25Z</time>
      </trkpt>
      <trkpt lat="38.488996" lon="-8.935087">
        <ele>83.799</ele>
        <time>2018-08-14T14:28:10Z</time>
      </trkpt>
      <trkpt lat="38.489817" lon="-8.934489">
        <ele>82.093</ele>
        <time>2018-08-14T14:28:31Z</time>
      </trkpt>
      <trkpt lat="38.491744" lon="-8.934530">
        <ele>68.969</ele>
        <time>2018-08-14T14:28:52Z</time>
      </trkpt>
      <trkpt lat="38.492565" lon="-8.934298">
        <ele>65.595</ele>
        <time>2018-08-14T14:29:00Z</time>
      </trkpt>
      <trkpt lat="38.493811" lon="-8.932480">
        <ele>62.264</ele>
        <time>2018-08-14T14:29:26Z</time>
      </trkpt>
      <trkpt lat="38.494612" lon="-8.931975">
        <ele>65.206</ele>
        <time>2018-08-14T14:29:41Z</time>
      </trkpt>
      <trkpt lat="38.495197" lon="-8.930848">
        <ele>64.316</ele>
        <time>2018-08-14T14:29:59Z</time>
      </trkpt>
      <trkpt lat="38.495715" lon="-8.930659">
        <ele>63.408</ele>
        <time>2018-08-14T14:30:09Z</time>
      </trkpt>
      <trkpt lat="38.496521" lon="-8.930795">
        <ele>63.528</ele>
        <time>2018-08-14T14:30:26Z</time>
      </trkpt>
      <trkpt lat="38.498340" lon="-8.930438">
        <ele>66.343</ele>
        <time>2018-08-14T14:31:02Z</time>
      </trkpt>
      <trkpt lat="38.499988" lon="-8.929253">
        <ele>66.221</ele>
        <time>2018-08-14T14:31:38Z</time>
      </trkpt>
      <trkpt lat="38.501139" lon="-8.929020">
        <ele>66.522</ele>
        <time>2018-08-14T14:32:02Z</time>
      </trkpt>
      <trkpt lat="38.502336" lon="-8.929358">
        <ele>59.669</ele>
        <time>2018-08-14T14:32:23Z</time>
      </trkpt>
      <trkpt lat="38.502730" lon="-8.929251">
        <ele>59.213</ele>
        <time>2018-08-14T14:32:29Z</time>
      </trkpt>
      <trkpt lat="38.503405" lon="-8.928635">
        <ele>59.789</ele>
        <time>2018-08-14T14:32:43Z</time>
      </trkpt>
      <trkpt lat="38.503056" lon="-8.928617">
        <ele>58.675</ele>
        <time>2018-08-14T14:33:03Z</time>
      </trkpt>
      <trkpt lat="38.503655" lon="-8.928432">
        <ele>58.274</ele>
        <time>2018-08-14T14:34:36Z</time>
      </trkpt>
      <trkpt lat="38.504284" lon="-8.927905">
        <ele>61.256</ele>
        <time>2018-08-14T14:34:53Z</time>
      </trkpt>
      <trkpt lat="38.504396" lon="-8.927465">
        <ele>60.821</ele>
        <time>2018-08-14T14:35:01Z</time>
      </trkpt>
      <trkpt lat="38.504280" lon="-8.926754">
        <ele>57.608</ele>
        <time>2018-08-14T14:35:15Z</time>
      </trkpt>
      <trkpt lat="38.504880" lon="-8.926207">
        <ele>58.179</ele>
        <time>2018-08-14T14:35:32Z</time>
      </trkpt>
      <trkpt lat="38.505649" lon="-8.926239">
        <ele>57.914</ele>
        <time>2018-08-14T14:35:48Z</time>
      </trkpt>
      <trkpt lat="38.506978" lon="-8.926813">
        <ele>56.342</ele>
        <time>2018-08-14T14:36:16Z</time>
      </trkpt>
      <trkpt lat="38.507664" lon="-8.927749">
        <ele>57.193</ele>
        <time>2018-08-14T14:36:37Z</time>
      </trkpt>
      <trkpt lat="38.507703" lon="-8.928223">
        <ele>58.660</ele>
        <time>2018-08-14T14:36:44Z</time>
      </trkpt>
      <trkpt lat="38.508071" lon="-8.929075">
        <ele>64.594</ele>
        <time>2018-08-14T14:36:57Z</time>
      </trkpt>
      <trkpt lat="38.508420" lon="-8.929146">
        <ele>65.320</ele>
        <time>2018-08-14T14:37:05Z</time>
      </trkpt>
      <trkpt lat="38.508716" lon="-8.928944">
        <ele>61.116</ele>
        <time>2018-08-14T14:37:12Z</time>
      </trkpt>
      <trkpt lat="38.508851" lon="-8.928309">
        <ele>56.183</ele>
        <time>2018-08-14T14:37:22Z</time>
      </trkpt>
      <trkpt lat="38.508165" lon="-8.926029">
        <ele>71.825</ele>
        <time>2018-08-14T14:38:46Z</time>
      </trkpt>
      <trkpt lat="38.508716" lon="-8.925419">
        <ele>84.417</ele>
        <time>2018-08-14T14:39:30Z</time>
      </trkpt>
      <trkpt lat="38.509991" lon="-8.924836">
        <ele>92.408</ele>
        <time>2018-08-14T14:42:17Z</time>
      </trkpt>
      <trkpt lat="38.510153" lon="-8.924566">
        <ele>91.060</ele>
        <time>2018-08-14T14:43:35Z</time>
      </trkpt>
      <trkpt lat="38.510419" lon="-8.921737">
        <ele>94.895</ele>
        <time>2018-08-14T14:45:22Z</time>
      </trkpt>
      <trkpt lat="38.513925" lon="-8.911325">
        <ele>84.113</ele>
        <time>2018-08-14T14:50:17Z</time>
      </trkpt>
      <trkpt lat="38.515859" lon="-8.909063">
        <ele>75.974</ele>
        <time>2018-08-14T14:50:56Z</time>
      </trkpt>
      <trkpt lat="38.516212" lon="-8.907983">
        <ele>70.441</ele>
        <time>2018-08-14T14:51:06Z</time>
      </trkpt>
      <trkpt lat="38.517437" lon="-8.906620">
        <ele>61.145</ele>
        <time>2018-08-14T14:51:23Z</time>
      </trkpt>
      <trkpt lat="38.518161" lon="-8.905106">
        <ele>60.361</ele>
        <time>2018-08-14T14:51:44Z</time>
      </trkpt>
      <trkpt lat="38.519760" lon="-8.903091">
        <ele>63.747</ele>
        <time>2018-08-14T14:52:43Z</time>
      </trkpt>
      <trkpt lat="38.520935" lon="-8.901319">
        <ele>63.635</ele>
        <time>2018-08-14T15:05:00Z</time>
      </trkpt>
      <trkpt lat="38.522643" lon="-8.897986">
        <ele>54.586</ele>
        <time>2018-08-14T15:06:48Z</time>
      </trkpt>
      <trkpt lat="38.522911" lon="-8.895961">
        <ele>64.314</ele>
        <time>2018-08-14T15:07:51Z</time>
      </trkpt>
      <trkpt lat="38.522906" lon="-8.895737">
        <ele>62.508</ele>
        <time>2018-08-14T15:08:03Z</time>
      </trkpt>
      <trkpt lat="38.522763" lon="-8.895769">
        <ele>55.915</ele>
        <time>2018-08-14T15:26:07Z</time>
      </trkpt>
      <trkpt lat="38.523132" lon="-8.895880">
        <ele>49.430</ele>
        <time>2018-08-14T15:27:14Z</time>
      </trkpt>
      <trkpt lat="38.522904" lon="-8.895771">
        <ele>53.288</ele>
        <time>2018-08-14T15:27:20Z</time>
      </trkpt>
      <trkpt lat="38.523333" lon="-8.895784">
        <ele>73.279</ele>
        <time>2018-08-14T15:27:44Z</time>
      </trkpt>
      <trkpt lat="38.522908" lon="-8.895773">
        <ele>69.256</ele>
        <time>2018-08-14T15:28:21Z</time>
      </trkpt>
      <trkpt lat="38.522895" lon="-8.895688">
        <ele>70.686</ele>
        <time>2018-08-15T09:08:12Z</time>
      </trkpt>
      <trkpt lat="38.523029" lon="-8.894061">
        <ele>67.760</ele>
        <time>2018-08-15T09:42:34Z</time>
      </trkpt>
      <trkpt lat="38.522560" lon="-8.889401">
        <ele>67.326</ele>
        <time>2018-08-15T09:44:08Z</time>
      </trkpt>
      <trkpt lat="38.521045" lon="-8.889581">
        <ele>69.608</ele>
        <time>2018-08-15T09:45:04Z</time>
      </trkpt>
      <trkpt lat="38.520779" lon="-8.889277">
        <ele>70.010</ele>
        <time>2018-08-15T09:45:24Z</time>
      </trkpt>
      <trkpt lat="38.520713" lon="-8.889430">
        <ele>71.315</ele>
        <time>2018-08-15T09:45:57Z</time>
      </trkpt>
      <trkpt lat="38.520783" lon="-8.887865">
        <ele>66.434</ele>
        <time>2018-08-15T09:54:33Z</time>
      </trkpt>
      <trkpt lat="38.521501" lon="-8.887535">
        <ele>67.568</ele>
        <time>2018-08-15T09:54:56Z</time>
      </trkpt>
      <trkpt lat="38.521788" lon="-8.887155">
        <ele>68.074</ele>
        <time>2018-08-15T09:55:54Z</time>
      </trkpt>
      <trkpt lat="38.521596" lon="-8.887552">
        <ele>67.074</ele>
        <time>2018-08-15T09:56:57Z</time>
      </trkpt>
      <trkpt lat="38.521852" lon="-8.887167">
        <ele>64.869</ele>
        <time>2018-08-15T10:11:04Z</time>
      </trkpt>
      <trkpt lat="38.521698" lon="-8.885126">
        <ele>68.176</ele>
        <time>2018-08-15T10:12:07Z</time>
      </trkpt>
      <trkpt lat="38.516099" lon="-8.886512">
        <ele>57.813</ele>
        <time>2018-08-15T10:20:26Z</time>
      </trkpt>
      <trkpt lat="38.514586" lon="-8.886422">
        <ele>55.743</ele>
        <time>2018-08-15T10:21:00Z</time>
      </trkpt>
      <trkpt lat="38.513973" lon="-8.886580">
        <ele>57.007</ele>
        <time>2018-08-15T10:21:14Z</time>
      </trkpt>
      <trkpt lat="38.512159" lon="-8.887632">
        <ele>58.208</ele>
        <time>2018-08-15T10:21:58Z</time>
      </trkpt>
      <trkpt lat="38.510287" lon="-8.888102">
        <ele>64.363</ele>
        <time>2018-08-15T10:22:39Z</time>
      </trkpt>
      <trkpt lat="38.509723" lon="-8.888380">
        <ele>63.018</ele>
        <time>2018-08-15T10:22:52Z</time>
      </trkpt>
      <trkpt lat="38.507188" lon="-8.890610">
        <ele>71.557</ele>
        <time>2018-08-15T10:23:57Z</time>
      </trkpt>
      <trkpt lat="38.506321" lon="-8.891132">
        <ele>66.841</ele>
        <time>2018-08-15T10:24:17Z</time>
      </trkpt>
      <trkpt lat="38.501672" lon="-8.891899">
        <ele>60.787</ele>
        <time>2018-08-15T10:25:59Z</time>
      </trkpt>
      <trkpt lat="38.500345" lon="-8.892305">
        <ele>56.597</ele>
        <time>2018-08-15T10:26:28Z</time>
      </trkpt>
      <trkpt lat="38.499532" lon="-8.892300">
        <ele>61.522</ele>
        <time>2018-08-15T10:26:46Z</time>
      </trkpt>
      <trkpt lat="38.498932" lon="-8.892132">
        <ele>65.579</ele>
        <time>2018-08-15T10:27:00Z</time>
      </trkpt>
      <trkpt lat="38.498046" lon="-8.891295">
        <ele>67.016</ele>
        <time>2018-08-15T10:27:28Z</time>
      </trkpt>
      <trkpt lat="38.496223" lon="-8.888448">
        <ele>66.076</ele>
        <time>2018-08-15T10:28:41Z</time>
      </trkpt>
      <trkpt lat="38.494786" lon="-8.886607">
        <ele>68.913</ele>
        <time>2018-08-15T10:29:34Z</time>
      </trkpt>
      <trkpt lat="38.493931" lon="-8.885086">
        <ele>62.408</ele>
        <time>2018-08-15T10:30:11Z</time>
      </trkpt>
      <trkpt lat="38.493124" lon="-8.884372">
        <ele>55.983</ele>
        <time>2018-08-15T10:30:41Z</time>
      </trkpt>
      <trkpt lat="38.492507" lon="-8.883594">
        <ele>58.748</ele>
        <time>2018-08-15T10:31:05Z</time>
      </trkpt>
      <trkpt lat="38.490953" lon="-8.881280">
        <ele>68.357</ele>
        <time>2018-08-15T10:32:09Z</time>
      </trkpt>
      <trkpt lat="38.489698" lon="-8.878907">
        <ele>60.361</ele>
        <time>2018-08-15T10:33:09Z</time>
      </trkpt>
      <trkpt lat="38.485765" lon="-8.875711">
        <ele>54.927</ele>
        <time>2018-08-15T10:35:12Z</time>
      </trkpt>
      <trkpt lat="38.483329" lon="-8.871065">
        <ele>63.837</ele>
        <time>2018-08-15T10:37:04Z</time>
      </trkpt>
      <trkpt lat="38.483031" lon="-8.869541">
        <ele>58.752</ele>
        <time>2018-08-15T10:37:34Z</time>
      </trkpt>
      <trkpt lat="38.482786" lon="-8.869009">
        <ele>59.189</ele>
        <time>2018-08-15T10:37:47Z</time>
      </trkpt>
      <trkpt lat="38.482201" lon="-8.868667">
        <ele>56.743</ele>
        <time>2018-08-15T10:38:07Z</time>
      </trkpt>
      <trkpt lat="38.478837" lon="-8.868088">
        <ele>58.964</ele>
        <time>2018-08-15T10:39:37Z</time>
      </trkpt>
      <trkpt lat="38.477373" lon="-8.867338">
        <ele>60.410</ele>
        <time>2018-08-15T10:40:14Z</time>
      </trkpt>
      <trkpt lat="38.475414" lon="-8.867006">
        <ele>62.908</ele>
        <time>2018-08-15T10:41:03Z</time>
      </trkpt>
      <trkpt lat="38.473505" lon="-8.866022">
        <ele>67.096</ele>
        <time>2018-08-15T10:41:52Z</time>
      </trkpt>
      <trkpt lat="38.470631" lon="-8.865078">
        <ele>66.421</ele>
        <time>2018-08-15T10:43:01Z</time>
      </trkpt>
      <trkpt lat="38.469485" lon="-8.864336">
        <ele>58.430</ele>
        <time>2018-08-15T10:43:39Z</time>
      </trkpt>
      <trkpt lat="38.468208" lon="-8.863764">
        <ele>62.164</ele>
        <time>2018-08-15T10:44:31Z</time>
      </trkpt>
      <trkpt lat="38.467126" lon="-8.862800">
        <ele>67.230</ele>
        <time>2018-08-15T10:47:17Z</time>
      </trkpt>
      <trkpt lat="38.466127" lon="-8.864074">
        <ele>69.990</ele>
        <time>2018-08-15T10:48:00Z</time>
      </trkpt>
      <trkpt lat="38.465773" lon="-8.864323">
        <ele>73.795</ele>
        <time>2018-08-15T10:48:10Z</time>
      </trkpt>
      <trkpt lat="38.465285" lon="-8.865855">
        <ele>67.152</ele>
        <time>2018-08-15T10:48:35Z</time>
      </trkpt>
      <trkpt lat="38.464534" lon="-8.866225">
        <ele>67.287</ele>
        <time>2018-08-15T10:48:48Z</time>
      </trkpt>
      <trkpt lat="38.464263" lon="-8.866934">
        <ele>65.442</ele>
        <time>2018-08-15T10:48:58Z</time>
      </trkpt>
      <trkpt lat="38.463905" lon="-8.867375">
        <ele>64.826</ele>
        <time>2018-08-15T10:49:08Z</time>
      </trkpt>
      <trkpt lat="38.465144" lon="-8.870829">
        <ele>65.708</ele>
        <time>2018-08-15T10:50:07Z</time>
      </trkpt>
      <trkpt lat="38.465920" lon="-8.873547">
        <ele>62.780</ele>
        <time>2018-08-15T10:50:55Z</time>
      </trkpt>
      <trkpt lat="38.466401" lon="-8.874610">
        <ele>63.975</ele>
        <time>2018-08-15T10:51:20Z</time>
      </trkpt>
      <trkpt lat="38.466402" lon="-8.874932">
        <ele>64.194</ele>
        <time>2018-08-15T10:52:01Z</time>
      </trkpt>
      <trkpt lat="38.466269" lon="-8.874978">
        <ele>64.998</ele>
        <time>2018-08-15T10:52:07Z</time>
      </trkpt>
      <trkpt lat="38.465446" lon="-8.873047">
        <ele>66.094</ele>
        <time>2018-08-15T10:52:58Z</time>
      </trkpt>
      <trkpt lat="38.465196" lon="-8.871529">
        <ele>65.074</ele>
        <time>2018-08-15T10:53:25Z</time>
      </trkpt>
      <trkpt lat="38.464446" lon="-8.869367">
        <ele>65.649</ele>
        <time>2018-08-15T10:54:04Z</time>
      </trkpt>
      <trkpt lat="38.463838" lon="-8.868238">
        <ele>66.316</ele>
        <time>2018-08-15T10:54:28Z</time>
      </trkpt>
      <trkpt lat="38.463496" lon="-8.867170">
        <ele>65.815</ele>
        <time>2018-08-15T10:54:48Z</time>
      </trkpt>
      <trkpt lat="38.463368" lon="-8.866216">
        <ele>67.065</ele>
        <time>2018-08-15T10:55:04Z</time>
      </trkpt>
      <trkpt lat="38.462831" lon="-8.864968">
        <ele>66.111</ele>
        <time>2018-08-15T10:55:27Z</time>
      </trkpt>
      <trkpt lat="38.462206" lon="-8.862669">
        <ele>67.508</ele>
        <time>2018-08-15T10:56:11Z</time>
      </trkpt>
      <trkpt lat="38.461410" lon="-8.861046">
        <ele>71.923</ele>
        <time>2018-08-15T10:56:44Z</time>
      </trkpt>
      <trkpt lat="38.460845" lon="-8.860883">
        <ele>72.288</ele>
        <time>2018-08-15T10:57:13Z</time>
      </trkpt>
      <trkpt lat="38.461109" lon="-8.860539">
        <ele>71.667</ele>
        <time>2018-08-15T10:57:26Z</time>
      </trkpt>
      <trkpt lat="38.460921" lon="-8.860079">
        <ele>71.591</ele>
        <time>2018-08-15T10:57:36Z</time>
      </trkpt>
      <trkpt lat="38.459196" lon="-8.857514">
        <ele>74.827</ele>
        <time>2018-08-15T10:58:30Z</time>
      </trkpt>
      <trkpt lat="38.458308" lon="-8.856483">
        <ele>74.397</ele>
        <time>2018-08-15T10:58:54Z</time>
      </trkpt>
      <trkpt lat="38.452635" lon="-8.852028">
        <ele>72.872</ele>
        <time>2018-08-15T11:01:16Z</time>
      </trkpt>
      <trkpt lat="38.451096" lon="-8.850435">
        <ele>73.719</ele>
        <time>2018-08-15T11:01:59Z</time>
      </trkpt>
      <trkpt lat="38.440521" lon="-8.834876">
        <ele>66.734</ele>
        <time>2018-08-15T11:07:26Z</time>
      </trkpt>
      <trkpt lat="38.439093" lon="-8.833148">
        <ele>61.655</ele>
        <time>2018-08-15T11:08:09Z</time>
      </trkpt>
      <trkpt lat="38.432996" lon="-8.828285">
        <ele>76.810</ele>
        <time>2018-08-15T11:10:48Z</time>
      </trkpt>
      <trkpt lat="38.425095" lon="-8.823555">
        <ele>70.508</ele>
        <time>2018-08-15T11:16:54Z</time>
      </trkpt>
      <trkpt lat="38.424853" lon="-8.823245">
        <ele>71.185</ele>
        <time>2018-08-15T11:17:42Z</time>
      </trkpt>
      <trkpt lat="38.424854" lon="-8.823367">
        <ele>71.940</ele>
        <time>2018-08-15T11:19:41Z</time>
      </trkpt>
      <trkpt lat="38.419885" lon="-8.820359">
        <ele>76.439</ele>
        <time>2018-08-15T11:22:15Z</time>
      </trkpt>
      <trkpt lat="38.419191" lon="-8.819511">
        <ele>75.673</ele>
        <time>2018-08-15T11:22:34Z</time>
      </trkpt>
      <trkpt lat="38.418098" lon="-8.817405">
        <ele>72.079</ele>
        <time>2018-08-15T11:23:11Z</time>
      </trkpt>
      <trkpt lat="38.417078" lon="-8.816347">
        <ele>74.089</ele>
        <time>2018-08-15T11:23:39Z</time>
      </trkpt>
      <trkpt lat="38.412446" lon="-8.814476">
        <ele>79.344</ele>
        <time>2018-08-15T11:25:31Z</time>
      </trkpt>
      <trkpt lat="38.408249" lon="-8.811215">
        <ele>74.611</ele>
        <time>2018-08-15T11:27:16Z</time>
      </trkpt>
      <trkpt lat="38.402753" lon="-8.807506">
        <ele>80.894</ele>
        <time>2018-08-15T11:29:30Z</time>
      </trkpt>
      <trkpt lat="38.397164" lon="-8.805281">
        <ele>77.857</ele>
        <time>2018-08-15T11:31:26Z</time>
      </trkpt>
      <trkpt lat="38.392190" lon="-8.802818">
        <ele>81.722</ele>
        <time>2018-08-15T11:33:15Z</time>
      </trkpt>
      <trkpt lat="38.391601" lon="-8.802422">
        <ele>81.808</ele>
        <time>2018-08-15T11:33:29Z</time>
      </trkpt>
      <trkpt lat="38.389696" lon="-8.800561">
        <ele>76.641</ele>
        <time>2018-08-15T11:34:14Z</time>
      </trkpt>
      <trkpt lat="38.386676" lon="-8.799858">
        <ele>72.916</ele>
        <time>2018-08-15T11:35:14Z</time>
      </trkpt>
      <trkpt lat="38.383392" lon="-8.797693">
        <ele>74.575</ele>
        <time>2018-08-15T11:36:22Z</time>
      </trkpt>
      <trkpt lat="38.382662" lon="-8.797063">
        <ele>72.839</ele>
        <time>2018-08-15T11:36:38Z</time>
      </trkpt>
      <trkpt lat="38.382165" lon="-8.796271">
        <ele>71.865</ele>
        <time>2018-08-15T11:36:52Z</time>
      </trkpt>
      <trkpt lat="38.381832" lon="-8.795263">
        <ele>70.515</ele>
        <time>2018-08-15T11:37:09Z</time>
      </trkpt>
      <trkpt lat="38.381684" lon="-8.791577">
        <ele>64.940</ele>
        <time>2018-08-15T11:38:42Z</time>
      </trkpt>
      <trkpt lat="38.381410" lon="-8.789596">
        <ele>66.297</ele>
        <time>2018-08-15T11:46:29Z</time>
      </trkpt>
      <trkpt lat="38.381598" lon="-8.788394">
        <ele>60.762</ele>
        <time>2018-08-15T11:51:30Z</time>
      </trkpt>
      <trkpt lat="38.381588" lon="-8.787885">
        <ele>61.283</ele>
        <time>2018-08-15T11:51:51Z</time>
      </trkpt>
      <trkpt lat="38.381426" lon="-8.787588">
        <ele>67.111</ele>
        <time>2018-08-15T11:52:22Z</time>
      </trkpt>
      <trkpt lat="38.381524" lon="-8.786752">
        <ele>67.108</ele>
        <time>2018-08-15T11:52:56Z</time>
      </trkpt>
      <trkpt lat="38.380974" lon="-8.786445">
        <ele>73.338</ele>
        <time>2018-08-15T11:53:56Z</time>
      </trkpt>
      <trkpt lat="38.380491" lon="-8.785925">
        <ele>71.153</ele>
        <time>2018-08-15T11:54:12Z</time>
      </trkpt>
      <trkpt lat="38.380035" lon="-8.785805">
        <ele>68.312</ele>
        <time>2018-08-15T11:55:03Z</time>
      </trkpt>
      <trkpt lat="38.380005" lon="-8.785448">
        <ele>69.086</ele>
        <time>2018-08-15T11:55:16Z</time>
      </trkpt>
      <trkpt lat="38.380248" lon="-8.784618">
        <ele>68.472</ele>
        <time>2018-08-15T11:55:31Z</time>
      </trkpt>
      <trkpt lat="38.381506" lon="-8.783033">
        <ele>70.162</ele>
        <time>2018-08-15T11:56:17Z</time>
      </trkpt>
      <trkpt lat="38.382188" lon="-8.782640">
        <ele>71.117</ele>
        <time>2018-08-15T11:56:35Z</time>
      </trkpt>
      <trkpt lat="38.382968" lon="-8.782606">
        <ele>72.714</ele>
        <time>2018-08-15T11:56:51Z</time>
      </trkpt>
      <trkpt lat="38.385495" lon="-8.783060">
        <ele>78.114</ele>
        <time>2018-08-15T11:57:50Z</time>
      </trkpt>
      <trkpt lat="38.386636" lon="-8.782828">
        <ele>81.154</ele>
        <time>2018-08-15T11:58:19Z</time>
      </trkpt>
      <trkpt lat="38.389901" lon="-8.780458">
        <ele>69.209</ele>
        <time>2018-08-15T11:59:20Z</time>
      </trkpt>
      <trkpt lat="38.392217" lon="-8.779405">
        <ele>64.008</ele>
        <time>2018-08-15T11:59:58Z</time>
      </trkpt>
      <trkpt lat="38.393793" lon="-8.778180">
        <ele>69.093</ele>
        <time>2018-08-15T12:00:32Z</time>
      </trkpt>
      <trkpt lat="38.396226" lon="-8.777288">
        <ele>67.498</ele>
        <time>2018-08-15T12:01:35Z</time>
      </trkpt>
      <trkpt lat="38.395894" lon="-8.775187">
        <ele>66.017</ele>
        <time>2018-08-15T12:02:16Z</time>
      </trkpt>
      <trkpt lat="38.395958" lon="-8.774633">
        <ele>67.791</ele>
        <time>2018-08-15T12:02:24Z</time>
      </trkpt>
      <trkpt lat="38.396368" lon="-8.774033">
        <ele>66.477</ele>
        <time>2018-08-15T12:02:36Z</time>
      </trkpt>
      <trkpt lat="38.396588" lon="-8.773177">
        <ele>68.057</ele>
        <time>2018-08-15T12:02:50Z</time>
      </trkpt>
      <trkpt lat="38.397561" lon="-8.771942">
        <ele>65.952</ele>
        <time>2018-08-15T12:03:17Z</time>
      </trkpt>
      <trkpt lat="38.397655" lon="-8.769950">
        <ele>67.499</ele>
        <time>2018-08-15T12:03:51Z</time>
      </trkpt>
      <trkpt lat="38.397894" lon="-8.769114">
        <ele>64.337</ele>
        <time>2018-08-15T12:04:03Z</time>
      </trkpt>
      <trkpt lat="38.398455" lon="-8.767964">
        <ele>64.849</ele>
        <time>2018-08-15T12:04:24Z</time>
      </trkpt>
      <trkpt lat="38.399315" lon="-8.767003">
        <ele>67.913</ele>
        <time>2018-08-15T12:04:50Z</time>
      </trkpt>
      <trkpt lat="38.399939" lon="-8.765651">
        <ele>65.108</ele>
        <time>2018-08-15T12:05:43Z</time>
      </trkpt>
      <trkpt lat="38.400617" lon="-8.761806">
        <ele>64.215</ele>
        <time>2018-08-15T12:07:33Z</time>
      </trkpt>
      <trkpt lat="38.401580" lon="-8.760190">
        <ele>64.910</ele>
        <time>2018-08-15T12:08:02Z</time>
      </trkpt>
      <trkpt lat="38.402611" lon="-8.754956">
        <ele>63.949</ele>
        <time>2018-08-15T12:09:25Z</time>
      </trkpt>
      <trkpt lat="38.402977" lon="-8.754694">
        <ele>63.973</ele>
        <time>2018-08-15T12:09:34Z</time>
      </trkpt>
      <trkpt lat="38.405282" lon="-8.754401">
        <ele>65.369</ele>
        <time>2018-08-15T12:10:18Z</time>
      </trkpt>
      <trkpt lat="38.405508" lon="-8.754139">
        <ele>64.369</ele>
        <time>2018-08-15T12:10:24Z</time>
      </trkpt>
      <trkpt lat="38.406034" lon="-8.752654">
        <ele>65.534</ele>
        <time>2018-08-15T12:10:51Z</time>
      </trkpt>
      <trkpt lat="38.406422" lon="-8.752291">
        <ele>65.771</ele>
        <time>2018-08-15T12:11:01Z</time>
      </trkpt>
      <trkpt lat="38.409713" lon="-8.751923">
        <ele>67.982</ele>
        <time>2018-08-15T12:12:51Z</time>
      </trkpt>
      <trkpt lat="38.409885" lon="-8.752595">
        <ele>64.443</ele>
        <time>2018-08-15T12:13:07Z</time>
      </trkpt>
      <trkpt lat="38.410278" lon="-8.753036">
        <ele>64.217</ele>
        <time>2018-08-15T12:13:19Z</time>
      </trkpt>
      <trkpt lat="38.412083" lon="-8.752958">
        <ele>63.208</ele>
        <time>2018-08-15T12:14:04Z</time>
      </trkpt>
      <trkpt lat="38.412447" lon="-8.753176">
        <ele>62.480</ele>
        <time>2018-08-15T12:14:13Z</time>
      </trkpt>
      <trkpt lat="38.412925" lon="-8.753931">
        <ele>62.065</ele>
        <time>2018-08-15T12:14:29Z</time>
      </trkpt>
      <trkpt lat="38.413397" lon="-8.754255">
        <ele>61.614</ele>
        <time>2018-08-15T12:14:40Z</time>
      </trkpt>
      <trkpt lat="38.413444" lon="-8.754498">
        <ele>61.288</ele>
        <time>2018-08-15T12:14:46Z</time>
      </trkpt>
      <trkpt lat="38.412857" lon="-8.756504">
        <ele>60.334</ele>
        <time>2018-08-15T12:15:29Z</time>
      </trkpt>
      <trkpt lat="38.412932" lon="-8.756912">
        <ele>60.774</ele>
        <time>2018-08-15T12:16:21Z</time>
      </trkpt>
      <trkpt lat="38.413340" lon="-8.757376">
        <ele>61.719</ele>
        <time>2018-08-15T12:20:09Z</time>
      </trkpt>
      <trkpt lat="38.413644" lon="-8.757496">
        <ele>63.136</ele>
        <time>2018-08-15T12:26:52Z</time>
      </trkpt>
      <trkpt lat="38.412929" lon="-8.756954">
        <ele>62.098</ele>
        <time>2018-08-15T12:41:26Z</time>
      </trkpt>
      <trkpt lat="38.412863" lon="-8.757054">
        <ele>62.015</ele>
        <time>2018-08-15T12:41:40Z</time>
      </trkpt>
      <trkpt lat="38.412729" lon="-8.756819">
        <ele>63.026</ele>
        <time>2018-08-15T12:46:34Z</time>
      </trkpt>
      <trkpt lat="38.412072" lon="-8.758564">
        <ele>60.508</ele>
        <time>2018-08-15T12:47:19Z</time>
      </trkpt>
      <trkpt lat="38.411178" lon="-8.758788">
        <ele>60.961</ele>
        <time>2018-08-15T12:47:43Z</time>
      </trkpt>
      <trkpt lat="38.410454" lon="-8.760318">
        <ele>62.786</ele>
        <time>2018-08-15T12:48:27Z</time>
      </trkpt>
      <trkpt lat="38.410147" lon="-8.760549">
        <ele>61.995</ele>
        <time>2018-08-15T12:48:41Z</time>
      </trkpt>
      <trkpt lat="38.409206" lon="-8.760724">
        <ele>60.839</ele>
        <time>2018-08-15T12:49:12Z</time>
      </trkpt>
      <trkpt lat="38.408874" lon="-8.759716">
        <ele>60.835</ele>
        <time>2018-08-15T12:49:35Z</time>
      </trkpt>
      <trkpt lat="38.408189" lon="-8.759374">
        <ele>62.075</ele>
        <time>2018-08-15T12:49:57Z</time>
      </trkpt>
      <trkpt lat="38.407055" lon="-8.761562">
        <ele>60.710</ele>
        <time>2018-08-15T12:51:06Z</time>
      </trkpt>
      <trkpt lat="38.406549" lon="-8.763431">
        <ele>61.267</ele>
        <time>2018-08-15T12:51:43Z</time>
      </trkpt>
      <trkpt lat="38.406312" lon="-8.765566">
        <ele>63.633</ele>
        <time>2018-08-15T12:52:28Z</time>
      </trkpt>
      <trkpt lat="38.405749" lon="-8.765854">
        <ele>61.723</ele>
        <time>2018-08-15T12:52:47Z</time>
      </trkpt>
      <trkpt lat="38.405518" lon="-8.766923">
        <ele>61.515</ele>
        <time>2018-08-15T12:53:09Z</time>
      </trkpt>
      <trkpt lat="38.405923" lon="-8.767929">
        <ele>62.908</ele>
        <time>2018-08-15T12:53:33Z</time>
      </trkpt>
      <trkpt lat="38.405912" lon="-8.768555">
        <ele>62.785</ele>
        <time>2018-08-15T12:53:44Z</time>
      </trkpt>
      <trkpt lat="38.404549" lon="-8.773843">
        <ele>60.860</ele>
        <time>2018-08-15T12:55:23Z</time>
      </trkpt>
      <trkpt lat="38.401705" lon="-8.779207">
        <ele>62.219</ele>
        <time>2018-08-15T12:57:34Z</time>
      </trkpt>
      <trkpt lat="38.399111" lon="-8.787437">
        <ele>61.983</ele>
        <time>2018-08-15T13:03:56Z</time>
      </trkpt>
      <trkpt lat="38.398851" lon="-8.787876">
        <ele>62.319</ele>
        <time>2018-08-15T13:04:09Z</time>
      </trkpt>
      <trkpt lat="38.399177" lon="-8.786950">
        <ele>62.079</ele>
        <time>2018-08-15T13:05:30Z</time>
      </trkpt>
      <trkpt lat="38.398546" lon="-8.786796">
        <ele>62.574</ele>
        <time>2018-08-15T13:05:53Z</time>
      </trkpt>
      <trkpt lat="38.397823" lon="-8.787740">
        <ele>64.031</ele>
        <time>2018-08-15T13:07:19Z</time>
      </trkpt>
      <trkpt lat="38.391043" lon="-8.789521">
        <ele>63.025</ele>
        <time>2018-08-15T13:10:15Z</time>
      </trkpt>
      <trkpt lat="38.389419" lon="-8.789779">
        <ele>63.026</ele>
        <time>2018-08-15T13:10:57Z</time>
      </trkpt>
      <trkpt lat="38.386476" lon="-8.789398">
        <ele>62.708</ele>
        <time>2018-08-15T13:12:07Z</time>
      </trkpt>
      <trkpt lat="38.381915" lon="-8.788456">
        <ele>62.208</ele>
        <time>2018-08-15T13:14:00Z</time>
      </trkpt>
      <trkpt lat="38.381781" lon="-8.788370">
        <ele>63.094</ele>
        <time>2018-08-15T13:14:10Z</time>
      </trkpt>
      <trkpt lat="38.381809" lon="-8.788008">
        <ele>63.829</ele>
        <time>2018-08-15T13:14:23Z</time>
      </trkpt>
      <trkpt lat="38.381636" lon="-8.787881">
        <ele>65.278</ele>
        <time>2018-08-15T13:14:47Z</time>
      </trkpt>
      <trkpt lat="38.381584" lon="-8.787581">
        <ele>65.162</ele>
        <time>2018-08-15T13:17:09Z</time>
      </trkpt>
      <trkpt lat="38.381533" lon="-8.789673">
        <ele>60.918</ele>
        <time>2018-08-15T13:36:57Z</time>
      </trkpt>
      <trkpt lat="38.381699" lon="-8.791570">
        <ele>60.638</ele>
        <time>2018-08-15T13:38:00Z</time>
      </trkpt>
      <trkpt lat="38.381299" lon="-8.791674">
        <ele>58.233</ele>
        <time>2018-08-15T13:38:25Z</time>
      </trkpt>
      <trkpt lat="38.381276" lon="-8.793184">
        <ele>57.730</ele>
        <time>2018-08-15T13:39:33Z</time>
      </trkpt>
      <trkpt lat="38.381237" lon="-8.792970">
        <ele>57.413</ele>
        <time>2018-08-15T13:39:49Z</time>
      </trkpt>
      <trkpt lat="38.371372" lon="-8.791470">
        <ele>56.343</ele>
        <time>2018-08-15T13:43:56Z</time>
      </trkpt>
      <trkpt lat="38.366834" lon="-8.790115">
        <ele>55.007</ele>
        <time>2018-08-15T13:45:46Z</time>
      </trkpt>
      <trkpt lat="38.366574" lon="-8.790177">
        <ele>55.308</ele>
        <time>2018-08-15T13:46:01Z</time>
      </trkpt>
      <trkpt lat="38.364455" lon="-8.789470">
        <ele>55.143</ele>
        <time>2018-08-15T13:47:21Z</time>
      </trkpt>
      <trkpt lat="38.362333" lon="-8.788436">
        <ele>56.788</ele>
        <time>2018-08-15T13:48:24Z</time>
      </trkpt>
      <trkpt lat="38.358716" lon="-8.787021">
        <ele>57.377</ele>
        <time>2018-08-15T13:50:48Z</time>
      </trkpt>
      <trkpt lat="38.357062" lon="-8.786544">
        <ele>58.051</ele>
        <time>2018-08-15T13:51:29Z</time>
      </trkpt>
      <trkpt lat="38.353963" lon="-8.785939">
        <ele>57.527</ele>
        <time>2018-08-15T13:52:44Z</time>
      </trkpt>
      <trkpt lat="38.351779" lon="-8.785232">
        <ele>56.777</ele>
        <time>2018-08-15T13:53:43Z</time>
      </trkpt>
      <trkpt lat="38.351882" lon="-8.784043">
        <ele>57.692</ele>
        <time>2018-08-15T13:54:35Z</time>
      </trkpt>
      <trkpt lat="38.323022" lon="-8.776287">
        <ele>56.929</ele>
        <time>2018-08-15T14:12:06Z</time>
      </trkpt>
      <trkpt lat="38.321140" lon="-8.775593">
        <ele>57.493</ele>
        <time>2018-08-15T14:12:56Z</time>
      </trkpt>
      <trkpt lat="38.320301" lon="-8.775006">
        <ele>57.565</ele>
        <time>2018-08-15T14:13:18Z</time>
      </trkpt>
      <trkpt lat="38.315043" lon="-8.770221">
        <ele>58.121</ele>
        <time>2018-08-15T14:16:32Z</time>
      </trkpt>
      <trkpt lat="38.313995" lon="-8.769040">
        <ele>57.208</ele>
        <time>2018-08-15T14:17:05Z</time>
      </trkpt>
      <trkpt lat="38.312945" lon="-8.767112">
        <ele>57.211</ele>
        <time>2018-08-15T14:17:48Z</time>
      </trkpt>
      <trkpt lat="38.312549" lon="-8.766116">
        <ele>58.166</ele>
        <time>2018-08-15T14:18:07Z</time>
      </trkpt>
      <trkpt lat="38.311855" lon="-8.763389">
        <ele>57.065</ele>
        <time>2018-08-15T14:18:55Z</time>
      </trkpt>
      <trkpt lat="38.311075" lon="-8.759280">
        <ele>56.149</ele>
        <time>2018-08-15T14:20:06Z</time>
      </trkpt>
      <trkpt lat="38.311055" lon="-8.757607">
        <ele>57.155</ele>
        <time>2018-08-15T14:20:35Z</time>
      </trkpt>
      <trkpt lat="38.311466" lon="-8.752473">
        <ele>58.435</ele>
        <time>2018-08-15T14:22:05Z</time>
      </trkpt>
      <trkpt lat="38.311801" lon="-8.752006">
        <ele>58.860</ele>
        <time>2018-08-15T14:22:19Z</time>
      </trkpt>
      <trkpt lat="38.311673" lon="-8.751282">
        <ele>56.957</ele>
        <time>2018-08-15T14:22:39Z</time>
      </trkpt>
      <trkpt lat="38.311443" lon="-8.751020">
        <ele>56.337</ele>
        <time>2018-08-15T14:22:46Z</time>
      </trkpt>
      <trkpt lat="38.311123" lon="-8.749991">
        <ele>58.749</ele>
        <time>2018-08-15T14:23:10Z</time>
      </trkpt>
      <trkpt lat="38.307786" lon="-8.743244">
        <ele>69.213</ele>
        <time>2018-08-15T14:26:20Z</time>
      </trkpt>
      <trkpt lat="38.307436" lon="-8.742936">
        <ele>68.208</ele>
        <time>2018-08-15T14:26:29Z</time>
      </trkpt>
      <trkpt lat="38.307476" lon="-8.742423">
        <ele>67.095</ele>
        <time>2018-08-15T14:26:37Z</time>
      </trkpt>
      <trkpt lat="38.306773" lon="-8.740618">
        <ele>68.930</ele>
        <time>2018-08-15T14:27:27Z</time>
      </trkpt>
      <trkpt lat="38.306845" lon="-8.739656">
        <ele>67.619</ele>
        <time>2018-08-15T14:28:00Z</time>
      </trkpt>
      <trkpt lat="38.303813" lon="-8.735995">
        <ele>77.593</ele>
        <time>2018-08-15T14:29:40Z</time>
      </trkpt>
      <trkpt lat="38.302579" lon="-8.734949">
        <ele>73.639</ele>
        <time>2018-08-15T14:30:09Z</time>
      </trkpt>
      <trkpt lat="38.302071" lon="-8.734342">
        <ele>73.679</ele>
        <time>2018-08-15T14:30:21Z</time>
      </trkpt>
      <trkpt lat="38.301423" lon="-8.733241">
        <ele>72.044</ele>
        <time>2018-08-15T14:30:39Z</time>
      </trkpt>
      <trkpt lat="38.299509" lon="-8.727312">
        <ele>61.371</ele>
        <time>2018-08-15T14:32:09Z</time>
      </trkpt>
      <trkpt lat="38.298986" lon="-8.726459">
        <ele>64.792</ele>
        <time>2018-08-15T14:32:25Z</time>
      </trkpt>
      <trkpt lat="38.298191" lon="-8.725602">
        <ele>66.673</ele>
        <time>2018-08-15T14:32:47Z</time>
      </trkpt>
      <trkpt lat="38.297046" lon="-8.724809">
        <ele>66.520</ele>
        <time>2018-08-15T14:33:14Z</time>
      </trkpt>
      <trkpt lat="38.296127" lon="-8.726400">
        <ele>66.808</ele>
        <time>2018-08-15T14:33:48Z</time>
      </trkpt>
      <trkpt lat="38.295324" lon="-8.726785">
        <ele>65.971</ele>
        <time>2018-08-15T14:34:09Z</time>
      </trkpt>
      <trkpt lat="38.285469" lon="-8.726321">
        <ele>91.316</ele>
        <time>2018-08-15T14:39:34Z</time>
      </trkpt>
      <trkpt lat="38.282056" lon="-8.725908">
        <ele>92.625</ele>
        <time>2018-08-15T14:41:00Z</time>
      </trkpt>
      <trkpt lat="38.279311" lon="-8.725858">
        <ele>100.149</ele>
        <time>2018-08-15T14:42:33Z</time>
      </trkpt>
      <trkpt lat="38.278183" lon="-8.725951">
        <ele>104.395</ele>
        <time>2018-08-15T14:43:09Z</time>
      </trkpt>
      <trkpt lat="38.272270" lon="-8.727326">
        <ele>109.495</ele>
        <time>2018-08-15T14:45:29Z</time>
      </trkpt>
      <trkpt lat="38.269010" lon="-8.727263">
        <ele>113.060</ele>
        <time>2018-08-15T14:46:51Z</time>
      </trkpt>
      <trkpt lat="38.268475" lon="-8.727361">
        <ele>112.677</ele>
        <time>2018-08-15T14:47:07Z</time>
      </trkpt>
      <trkpt lat="38.263345" lon="-8.730308">
        <ele>112.146</ele>
        <time>2018-08-15T14:49:40Z</time>
      </trkpt>
      <trkpt lat="38.255969" lon="-8.737305">
        <ele>114.288</ele>
        <time>2018-08-15T14:53:44Z</time>
      </trkpt>
      <trkpt lat="38.255092" lon="-8.737572">
        <ele>116.716</ele>
        <time>2018-08-15T14:55:26Z</time>
      </trkpt>
      <trkpt lat="38.241962" lon="-8.737431">
        <ele>120.808</ele>
        <time>2018-08-15T15:00:23Z</time>
      </trkpt>
      <trkpt lat="38.237550" lon="-8.736979">
        <ele>115.576</ele>
        <time>2018-08-15T15:01:53Z</time>
      </trkpt>
      <trkpt lat="38.226384" lon="-8.734466">
        <ele>111.921</ele>
        <time>2018-08-15T15:05:44Z</time>
      </trkpt>
      <trkpt lat="38.212628" lon="-8.733475">
        <ele>116.940</ele>
        <time>2018-08-15T15:10:32Z</time>
      </trkpt>
      <trkpt lat="38.188315" lon="-8.730480">
        <ele>125.744</ele>
        <time>2018-08-15T15:19:56Z</time>
      </trkpt>
      <trkpt lat="38.187561" lon="-8.730256">
        <ele>125.780</ele>
        <time>2018-08-15T15:20:12Z</time>
      </trkpt>
      <trkpt lat="38.184502" lon="-8.728770">
        <ele>121.420</ele>
        <time>2018-08-15T15:21:15Z</time>
      </trkpt>
      <trkpt lat="38.183440" lon="-8.728540">
        <ele>113.975</ele>
        <time>2018-08-15T15:21:30Z</time>
      </trkpt>
      <trkpt lat="38.182143" lon="-8.728788">
        <ele>112.122</ele>
        <time>2018-08-15T15:21:46Z</time>
      </trkpt>
      <trkpt lat="38.179583" lon="-8.729781">
        <ele>113.926</ele>
        <time>2018-08-15T15:22:33Z</time>
      </trkpt>
      <trkpt lat="38.178254" lon="-8.730468">
        <ele>114.447</ele>
        <time>2018-08-15T15:23:09Z</time>
      </trkpt>
      <trkpt lat="38.177422" lon="-8.730649">
        <ele>113.311</ele>
        <time>2018-08-15T15:23:27Z</time>
      </trkpt>
      <trkpt lat="38.170539" lon="-8.730328">
        <ele>117.508</ele>
        <time>2018-08-15T15:25:53Z</time>
      </trkpt>
      <trkpt lat="38.168098" lon="-8.730624">
        <ele>122.234</ele>
        <time>2018-08-15T15:26:59Z</time>
      </trkpt>
      <trkpt lat="38.163469" lon="-8.730017">
        <ele>124.839</ele>
        <time>2018-08-15T15:28:53Z</time>
      </trkpt>
      <trkpt lat="38.160581" lon="-8.730876">
        <ele>121.078</ele>
        <time>2018-08-15T15:29:48Z</time>
      </trkpt>
      <trkpt lat="38.155682" lon="-8.730983">
        <ele>110.842</ele>
        <time>2018-08-15T15:31:08Z</time>
      </trkpt>
      <trkpt lat="38.152866" lon="-8.731874">
        <ele>106.398</ele>
        <time>2018-08-15T15:32:01Z</time>
      </trkpt>
      <trkpt lat="38.150454" lon="-8.732075">
        <ele>102.218</ele>
        <time>2018-08-15T15:32:42Z</time>
      </trkpt>
      <trkpt lat="38.147431" lon="-8.729249">
        <ele>91.713</ele>
        <time>2018-08-15T15:33:42Z</time>
      </trkpt>
      <trkpt lat="38.147207" lon="-8.729298">
        <ele>88.070</ele>
        <time>2018-08-15T15:34:14Z</time>
      </trkpt>
      <trkpt lat="38.147094" lon="-8.729147">
        <ele>86.873</ele>
        <time>2018-08-15T15:34:41Z</time>
      </trkpt>
      <trkpt lat="38.147093" lon="-8.729015">
        <ele>87.885</ele>
        <time>2018-08-15T15:35:24Z</time>
      </trkpt>
      <trkpt lat="38.147284" lon="-8.729089">
        <ele>93.513</ele>
        <time>2018-08-15T15:35:52Z</time>
      </trkpt>
      <trkpt lat="38.148639" lon="-8.726748">
        <ele>98.308</ele>
        <time>2018-08-15T15:37:45Z</time>
      </trkpt>
      <trkpt lat="38.147747" lon="-8.728372">
        <ele>93.349</ele>
        <time>2018-08-15T15:38:24Z</time>
      </trkpt>
      <trkpt lat="38.147617" lon="-8.728926">
        <ele>91.724</ele>
        <time>2018-08-15T15:40:27Z</time>
      </trkpt>
      <trkpt lat="38.147149" lon="-8.729265">
        <ele>94.023</ele>
        <time>2018-08-15T16:07:17Z</time>
      </trkpt>
      <trkpt lat="38.147734" lon="-8.731031">
        <ele>86.887</ele>
        <time>2018-08-15T16:10:14Z</time>
      </trkpt>
      <trkpt lat="38.147739" lon="-8.732021">
        <ele>80.693</ele>
        <time>2018-08-15T16:10:25Z</time>
      </trkpt>
      <trkpt lat="38.147289" lon="-8.733009">
        <ele>78.183</ele>
        <time>2018-08-15T16:10:44Z</time>
      </trkpt>
      <trkpt lat="38.147109" lon="-8.733102">
        <ele>78.548</ele>
        <time>2018-08-15T16:10:50Z</time>
      </trkpt>
      <trkpt lat="38.145604" lon="-8.732958">
        <ele>79.765</ele>
        <time>2018-08-15T16:12:01Z</time>
      </trkpt>
      <trkpt lat="38.144898" lon="-8.733252">
        <ele>88.115</ele>
        <time>2018-08-15T16:12:28Z</time>
      </trkpt>
      <trkpt lat="38.141321" lon="-8.737317">
        <ele>77.365</ele>
        <time>2018-08-15T16:14:28Z</time>
      </trkpt>
      <trkpt lat="38.140779" lon="-8.738298">
        <ele>74.611</ele>
        <time>2018-08-15T16:14:47Z</time>
      </trkpt>
      <trkpt lat="38.140011" lon="-8.741580">
        <ele>78.808</ele>
        <time>2018-08-15T16:15:47Z</time>
      </trkpt>
      <trkpt lat="38.139384" lon="-8.742766">
        <ele>79.023</ele>
        <time>2018-08-15T16:17:16Z</time>
      </trkpt>
      <trkpt lat="38.138508" lon="-8.748744">
        <ele>71.198</ele>
        <time>2018-08-15T16:19:25Z</time>
      </trkpt>
      <trkpt lat="38.137017" lon="-8.752877">
        <ele>80.997</ele>
        <time>2018-08-15T16:21:08Z</time>
      </trkpt>
      <trkpt lat="38.136929" lon="-8.756828">
        <ele>77.931</ele>
        <time>2018-08-15T16:22:13Z</time>
      </trkpt>
      <trkpt lat="38.136601" lon="-8.759566">
        <ele>74.547</ele>
        <time>2018-08-15T16:23:00Z</time>
      </trkpt>
      <trkpt lat="38.134961" lon="-8.762564">
        <ele>67.857</ele>
        <time>2018-08-15T16:23:51Z</time>
      </trkpt>
      <trkpt lat="38.134657" lon="-8.763409">
        <ele>70.892</ele>
        <time>2018-08-15T16:24:09Z</time>
      </trkpt>
      <trkpt lat="38.131799" lon="-8.775500">
        <ele>67.369</ele>
        <time>2018-08-15T16:27:37Z</time>
      </trkpt>
      <trkpt lat="38.131339" lon="-8.780323">
        <ele>72.083</ele>
        <time>2018-08-15T16:29:21Z</time>
      </trkpt>
      <trkpt lat="38.131127" lon="-8.781249">
        <ele>74.725</ele>
        <time>2018-08-15T16:29:45Z</time>
      </trkpt>
      <trkpt lat="38.130413" lon="-8.781308">
        <ele>77.217</ele>
        <time>2018-08-15T16:38:28Z</time>
      </trkpt>
      <trkpt lat="38.130572" lon="-8.780005">
        <ele>79.508</ele>
        <time>2018-08-15T16:39:34Z</time>
      </trkpt>
      <trkpt lat="38.129889" lon="-8.779675">
        <ele>79.820</ele>
        <time>2018-08-15T16:40:48Z</time>
      </trkpt>
      <trkpt lat="38.129627" lon="-8.779735">
        <ele>79.165</ele>
        <time>2018-08-15T16:41:05Z</time>
      </trkpt>
      <trkpt lat="38.129850" lon="-8.779670">
        <ele>78.974</ele>
        <time>2018-08-15T16:41:24Z</time>
      </trkpt>
      <trkpt lat="38.130406" lon="-8.779896">
        <ele>78.058</ele>
        <time>2018-08-15T16:41:49Z</time>
      </trkpt>
      <trkpt lat="38.130492" lon="-8.780123">
        <ele>78.474</ele>
        <time>2018-08-15T16:42:12Z</time>
      </trkpt>
      <trkpt lat="38.130456" lon="-8.780150">
        <ele>80.136</ele>
        <time>2018-08-16T08:03:46Z</time>
      </trkpt>
      <trkpt lat="38.130375" lon="-8.781220">
        <ele>81.217</ele>
        <time>2018-08-16T08:48:01Z</time>
      </trkpt>
      <trkpt lat="38.131202" lon="-8.781274">
        <ele>83.518</ele>
        <time>2018-08-16T08:49:41Z</time>
      </trkpt>
      <trkpt lat="38.131093" lon="-8.781118">
        <ele>82.908</ele>
        <time>2018-08-16T08:50:15Z</time>
      </trkpt>
      <trkpt lat="38.131794" lon="-8.775049">
        <ele>68.075</ele>
        <time>2018-08-16T08:51:54Z</time>
      </trkpt>
      <trkpt lat="38.134617" lon="-8.763139">
        <ele>72.490</ele>
        <time>2018-08-16T08:55:29Z</time>
      </trkpt>
      <trkpt lat="38.136498" lon="-8.759531">
        <ele>77.889</ele>
        <time>2018-08-16T08:56:49Z</time>
      </trkpt>
      <trkpt lat="38.136842" lon="-8.756601">
        <ele>79.726</ele>
        <time>2018-08-16T08:58:01Z</time>
      </trkpt>
      <trkpt lat="38.136909" lon="-8.752847">
        <ele>86.561</ele>
        <time>2018-08-16T08:59:12Z</time>
      </trkpt>
      <trkpt lat="38.138372" lon="-8.748843">
        <ele>85.543</ele>
        <time>2018-08-16T09:00:27Z</time>
      </trkpt>
      <trkpt lat="38.139150" lon="-8.744306">
        <ele>69.096</ele>
        <time>2018-08-16T09:01:26Z</time>
      </trkpt>
      <trkpt lat="38.139239" lon="-8.742752">
        <ele>84.890</ele>
        <time>2018-08-16T09:02:27Z</time>
      </trkpt>
      <trkpt lat="38.139747" lon="-8.742268">
        <ele>86.663</ele>
        <time>2018-08-16T09:03:11Z</time>
      </trkpt>
      <trkpt lat="38.139177" lon="-8.742847">
        <ele>83.544</ele>
        <time>2018-08-16T09:29:53Z</time>
      </trkpt>
      <trkpt lat="38.133783" lon="-8.745648">
        <ele>84.718</ele>
        <time>2018-08-16T09:31:48Z</time>
      </trkpt>
      <trkpt lat="38.132055" lon="-8.745508">
        <ele>80.508</ele>
        <time>2018-08-16T09:32:25Z</time>
      </trkpt>
      <trkpt lat="38.131538" lon="-8.745341">
        <ele>80.728</ele>
        <time>2018-08-16T09:32:36Z</time>
      </trkpt>
      <trkpt lat="38.128888" lon="-8.743829">
        <ele>86.623</ele>
        <time>2018-08-16T09:33:46Z</time>
      </trkpt>
      <trkpt lat="38.126947" lon="-8.742053">
        <ele>95.092</ele>
        <time>2018-08-16T09:35:00Z</time>
      </trkpt>
      <trkpt lat="38.126281" lon="-8.741768">
        <ele>96.759</ele>
        <time>2018-08-16T09:35:22Z</time>
      </trkpt>
      <trkpt lat="38.125511" lon="-8.741684">
        <ele>99.894</ele>
        <time>2018-08-16T09:35:48Z</time>
      </trkpt>
      <trkpt lat="38.123868" lon="-8.742118">
        <ele>110.216</ele>
        <time>2018-08-16T09:36:51Z</time>
      </trkpt>
      <trkpt lat="38.109424" lon="-8.746910">
        <ele>104.989</ele>
        <time>2018-08-16T09:42:27Z</time>
      </trkpt>
      <trkpt lat="38.108893" lon="-8.746876">
        <ele>103.533</ele>
        <time>2018-08-16T09:42:34Z</time>
      </trkpt>
      <trkpt lat="38.106385" lon="-8.745855">
        <ele>104.847</ele>
        <time>2018-08-16T09:43:16Z</time>
      </trkpt>
      <trkpt lat="38.105897" lon="-8.745779">
        <ele>102.129</ele>
        <time>2018-08-16T09:43:23Z</time>
      </trkpt>
      <trkpt lat="38.102304" lon="-8.747281">
        <ele>89.721</ele>
        <time>2018-08-16T09:44:12Z</time>
      </trkpt>
      <trkpt lat="38.099353" lon="-8.745757">
        <ele>83.108</ele>
        <time>2018-08-16T09:45:07Z</time>
      </trkpt>
      <trkpt lat="38.099053" lon="-8.745764">
        <ele>81.446</ele>
        <time>2018-08-16T09:45:14Z</time>
      </trkpt>
      <trkpt lat="38.098473" lon="-8.746422">
        <ele>88.821</ele>
        <time>2018-08-16T09:45:35Z</time>
      </trkpt>
      <trkpt lat="38.098043" lon="-8.746586">
        <ele>88.680</ele>
        <time>2018-08-16T09:45:46Z</time>
      </trkpt>
      <trkpt lat="38.094919" lon="-8.746701">
        <ele>98.687</ele>
        <time>2018-08-16T09:47:23Z</time>
      </trkpt>
      <trkpt lat="38.088994" lon="-8.741665">
        <ele>103.172</ele>
        <time>2018-08-16T09:50:07Z</time>
      </trkpt>
      <trkpt lat="38.086210" lon="-8.740463">
        <ele>98.954</ele>
        <time>2018-08-16T09:51:06Z</time>
      </trkpt>
      <trkpt lat="38.084125" lon="-8.740540">
        <ele>94.617</ele>
        <time>2018-08-16T09:51:36Z</time>
      </trkpt>
      <trkpt lat="38.081719" lon="-8.738895">
        <ele>90.711</ele>
        <time>2018-08-16T09:52:28Z</time>
      </trkpt>
      <trkpt lat="38.081297" lon="-8.738762">
        <ele>91.568</ele>
        <time>2018-08-16T09:52:37Z</time>
      </trkpt>
      <trkpt lat="38.079306" lon="-8.739384">
        <ele>91.342</ele>
        <time>2018-08-16T09:53:18Z</time>
      </trkpt>
      <trkpt lat="38.078728" lon="-8.741729">
        <ele>95.726</ele>
        <time>2018-08-16T09:54:03Z</time>
      </trkpt>
      <trkpt lat="38.078490" lon="-8.742079">
        <ele>97.908</ele>
        <time>2018-08-16T09:54:13Z</time>
      </trkpt>
      <trkpt lat="38.071285" lon="-8.747139">
        <ele>113.658</ele>
        <time>2018-08-16T09:57:58Z</time>
      </trkpt>
      <trkpt lat="38.070315" lon="-8.747643">
        <ele>111.493</ele>
        <time>2018-08-16T09:58:25Z</time>
      </trkpt>
      <trkpt lat="38.070385" lon="-8.747355">
        <ele>111.552</ele>
        <time>2018-08-16T09:59:57Z</time>
      </trkpt>
      <trkpt lat="38.068455" lon="-8.741204">
        <ele>136.019</ele>
        <time>2018-08-16T10:03:14Z</time>
      </trkpt>
      <trkpt lat="38.067942" lon="-8.736006">
        <ele>138.264</ele>
        <time>2018-08-16T10:06:30Z</time>
      </trkpt>
      <trkpt lat="38.068239" lon="-8.733076">
        <ele>137.056</ele>
        <time>2018-08-16T10:07:17Z</time>
      </trkpt>
      <trkpt lat="38.068881" lon="-8.729524">
        <ele>142.289</ele>
        <time>2018-08-16T10:08:27Z</time>
      </trkpt>
      <trkpt lat="38.070518" lon="-8.722767">
        <ele>145.633</ele>
        <time>2018-08-16T10:10:32Z</time>
      </trkpt>
      <trkpt lat="38.070489" lon="-8.718967">
        <ele>141.692</ele>
        <time>2018-08-16T10:11:35Z</time>
      </trkpt>
      <trkpt lat="38.069879" lon="-8.716462">
        <ele>144.373</ele>
        <time>2018-08-16T10:13:28Z</time>
      </trkpt>
      <trkpt lat="38.069892" lon="-8.714471">
        <ele>147.120</ele>
        <time>2018-08-16T10:14:12Z</time>
      </trkpt>
      <trkpt lat="38.068607" lon="-8.712831">
        <ele>153.908</ele>
        <time>2018-08-16T10:15:16Z</time>
      </trkpt>
      <trkpt lat="38.065872" lon="-8.710602">
        <ele>161.371</ele>
        <time>2018-08-16T10:16:49Z</time>
      </trkpt>
      <trkpt lat="38.064041" lon="-8.709816">
        <ele>157.826</ele>
        <time>2018-08-16T10:17:29Z</time>
      </trkpt>
      <trkpt lat="38.063571" lon="-8.708473">
        <ele>162.025</ele>
        <time>2018-08-16T10:18:11Z</time>
      </trkpt>
      <trkpt lat="38.063257" lon="-8.708047">
        <ele>162.492</ele>
        <time>2018-08-16T10:18:27Z</time>
      </trkpt>
      <trkpt lat="38.060874" lon="-8.706985">
        <ele>168.837</ele>
        <time>2018-08-16T10:19:37Z</time>
      </trkpt>
      <trkpt lat="38.059342" lon="-8.707422">
        <ele>167.329</ele>
        <time>2018-08-16T10:20:55Z</time>
      </trkpt>
      <trkpt lat="38.057377" lon="-8.706592">
        <ele>164.822</ele>
        <time>2018-08-16T10:21:38Z</time>
      </trkpt>
      <trkpt lat="38.056344" lon="-8.706671">
        <ele>154.076</ele>
        <time>2018-08-16T10:22:22Z</time>
      </trkpt>
      <trkpt lat="38.056119" lon="-8.706852">
        <ele>158.732</ele>
        <time>2018-08-16T10:23:33Z</time>
      </trkpt>
      <trkpt lat="38.054559" lon="-8.706900">
        <ele>145.992</ele>
        <time>2018-08-16T10:23:51Z</time>
      </trkpt>
      <trkpt lat="38.051679" lon="-8.704857">
        <ele>138.611</ele>
        <time>2018-08-16T10:24:48Z</time>
      </trkpt>
      <trkpt lat="38.050742" lon="-8.704715">
        <ele>147.408</ele>
        <time>2018-08-16T10:25:40Z</time>
      </trkpt>
      <trkpt lat="38.049930" lon="-8.704939">
        <ele>154.745</ele>
        <time>2018-08-16T10:26:28Z</time>
      </trkpt>
      <trkpt lat="38.048818" lon="-8.706345">
        <ele>151.750</ele>
        <time>2018-08-16T10:28:11Z</time>
      </trkpt>
      <trkpt lat="38.047596" lon="-8.706559">
        <ele>148.539</ele>
        <time>2018-08-16T10:28:32Z</time>
      </trkpt>
      <trkpt lat="38.047015" lon="-8.707893">
        <ele>153.716</ele>
        <time>2018-08-16T10:29:24Z</time>
      </trkpt>
      <trkpt lat="38.045722" lon="-8.708864">
        <ele>162.361</ele>
        <time>2018-08-16T10:30:35Z</time>
      </trkpt>
      <trkpt lat="38.044573" lon="-8.709111">
        <ele>168.883</ele>
        <time>2018-08-16T10:31:24Z</time>
      </trkpt>
      <trkpt lat="38.043831" lon="-8.708535">
        <ele>176.666</ele>
        <time>2018-08-16T10:32:19Z</time>
      </trkpt>
      <trkpt lat="38.043292" lon="-8.706954">
        <ele>187.910</ele>
        <time>2018-08-16T10:33:41Z</time>
      </trkpt>
      <trkpt lat="38.042989" lon="-8.706494">
        <ele>189.383</ele>
        <time>2018-08-16T10:34:01Z</time>
      </trkpt>
      <trkpt lat="38.042606" lon="-8.706201">
        <ele>190.625</ele>
        <time>2018-08-16T10:34:17Z</time>
      </trkpt>
      <trkpt lat="38.041548" lon="-8.705866">
        <ele>198.517</ele>
        <time>2018-08-16T10:35:07Z</time>
      </trkpt>
      <trkpt lat="38.040642" lon="-8.704906">
        <ele>207.808</ele>
        <time>2018-08-16T10:36:19Z</time>
      </trkpt>
      <trkpt lat="38.039318" lon="-8.703870">
        <ele>215.790</ele>
        <time>2018-08-16T10:37:49Z</time>
      </trkpt>
      <trkpt lat="38.038890" lon="-8.702495">
        <ele>223.685</ele>
        <time>2018-08-16T10:38:50Z</time>
      </trkpt>
      <trkpt lat="38.037648" lon="-8.701364">
        <ele>232.784</ele>
        <time>2018-08-16T10:40:02Z</time>
      </trkpt>
      <trkpt lat="38.036283" lon="-8.699592">
        <ele>231.821</ele>
        <time>2018-08-16T10:41:12Z</time>
      </trkpt>
      <trkpt lat="38.035056" lon="-8.698886">
        <ele>237.086</ele>
        <time>2018-08-16T10:41:58Z</time>
      </trkpt>
      <trkpt lat="38.032916" lon="-8.697128">
        <ele>241.918</ele>
        <time>2018-08-16T10:43:18Z</time>
      </trkpt>
      <trkpt lat="38.031209" lon="-8.697237">
        <ele>250.681</ele>
        <time>2018-08-16T10:44:24Z</time>
      </trkpt>
      <trkpt lat="38.029536" lon="-8.697089">
        <ele>254.815</ele>
        <time>2018-08-16T10:45:20Z</time>
      </trkpt>
      <trkpt lat="38.028407" lon="-8.696064">
        <ele>255.125</ele>
        <time>2018-08-16T10:46:03Z</time>
      </trkpt>
      <trkpt lat="38.026932" lon="-8.695284">
        <ele>266.926</ele>
        <time>2018-08-16T10:47:20Z</time>
      </trkpt>
      <trkpt lat="38.025954" lon="-8.694582">
        <ele>276.908</ele>
        <time>2018-08-16T10:48:32Z</time>
      </trkpt>
      <trkpt lat="38.024055" lon="-8.693916">
        <ele>293.808</ele>
        <time>2018-08-16T10:50:32Z</time>
      </trkpt>
      <trkpt lat="38.021084" lon="-8.695441">
        <ele>274.144</ele>
        <time>2018-08-16T10:51:15Z</time>
      </trkpt>
      <trkpt lat="38.019770" lon="-8.695316">
        <ele>272.649</ele>
        <time>2018-08-16T10:51:38Z</time>
      </trkpt>
      <trkpt lat="38.019201" lon="-8.695407">
        <ele>269.448</ele>
        <time>2018-08-16T10:51:47Z</time>
      </trkpt>
      <trkpt lat="38.017819" lon="-8.696747">
        <ele>253.565</ele>
        <time>2018-08-16T10:53:47Z</time>
      </trkpt>
      <trkpt lat="38.017358" lon="-8.696909">
        <ele>251.610</ele>
        <time>2018-08-16T10:54:05Z</time>
      </trkpt>
      <trkpt lat="38.016991" lon="-8.696815">
        <ele>251.552</ele>
        <time>2018-08-16T10:54:53Z</time>
      </trkpt>
      <trkpt lat="38.016602" lon="-8.696386">
        <ele>261.055</ele>
        <time>2018-08-16T10:55:21Z</time>
      </trkpt>
      <trkpt lat="38.015464" lon="-8.695716">
        <ele>277.319</ele>
        <time>2018-08-16T10:56:47Z</time>
      </trkpt>
      <trkpt lat="38.015024" lon="-8.697298">
        <ele>289.562</ele>
        <time>2018-08-16T11:02:29Z</time>
      </trkpt>
      <trkpt lat="38.015331" lon="-8.697620">
        <ele>289.983</ele>
        <time>2018-08-16T11:02:59Z</time>
      </trkpt>
      <trkpt lat="38.015326" lon="-8.697059">
        <ele>285.711</ele>
        <time>2018-08-16T11:04:51Z</time>
      </trkpt>
      <trkpt lat="38.015377" lon="-8.697160">
        <ele>286.308</ele>
        <time>2018-08-16T11:05:15Z</time>
      </trkpt>
      <trkpt lat="38.015432" lon="-8.697075">
        <ele>287.728</ele>
        <time>2018-08-16T11:05:31Z</time>
      </trkpt>
      <trkpt lat="38.015255" lon="-8.697481">
        <ele>290.143</ele>
        <time>2018-08-16T11:06:15Z</time>
      </trkpt>
      <trkpt lat="38.014320" lon="-8.697021">
        <ele>294.382</ele>
        <time>2018-08-16T11:07:30Z</time>
      </trkpt>
      <trkpt lat="38.014014" lon="-8.697650">
        <ele>310.649</ele>
        <time>2018-08-16T11:12:13Z</time>
      </trkpt>
      <trkpt lat="38.015059" lon="-8.697257">
        <ele>309.594</ele>
        <time>2018-08-16T11:12:40Z</time>
      </trkpt>
      <trkpt lat="38.013884" lon="-8.697826">
        <ele>308.036</ele>
        <time>2018-08-16T11:16:15Z</time>
      </trkpt>
      <trkpt lat="38.013985" lon="-8.697713">
        <ele>307.199</ele>
        <time>2018-08-16T11:18:46Z</time>
      </trkpt>
      <trkpt lat="38.013955" lon="-8.698136">
        <ele>311.293</ele>
        <time>2018-08-16T11:19:17Z</time>
      </trkpt>
      <trkpt lat="38.014015" lon="-8.697665">
        <ele>316.374</ele>
        <time>2018-08-16T11:20:16Z</time>
      </trkpt>
      <trkpt lat="38.014326" lon="-8.698006">
        <ele>314.556</ele>
        <time>2018-08-16T11:20:52Z</time>
      </trkpt>
      <trkpt lat="38.014434" lon="-8.697939">
        <ele>317.521</ele>
        <time>2018-08-16T11:21:15Z</time>
      </trkpt>
      <trkpt lat="38.013828" lon="-8.697518">
        <ele>316.208</ele>
        <time>2018-08-16T11:23:57Z</time>
      </trkpt>
      <trkpt lat="38.014122" lon="-8.697639">
        <ele>311.969</ele>
        <time>2018-08-16T11:31:15Z</time>
      </trkpt>
      <trkpt lat="38.014133" lon="-8.697282">
        <ele>310.194</ele>
        <time>2018-08-16T11:31:28Z</time>
      </trkpt>
      <trkpt lat="38.014334" lon="-8.696930">
        <ele>304.073</ele>
        <time>2018-08-16T11:31:36Z</time>
      </trkpt>
      <trkpt lat="38.014964" lon="-8.697259">
        <ele>298.320</ele>
        <time>2018-08-16T11:32:12Z</time>
      </trkpt>
      <trkpt lat="38.015198" lon="-8.696517">
        <ele>288.415</ele>
        <time>2018-08-16T11:32:30Z</time>
      </trkpt>
      <trkpt lat="38.015374" lon="-8.695724">
        <ele>275.477</ele>
        <time>2018-08-16T11:32:52Z</time>
      </trkpt>
      <trkpt lat="38.015182" lon="-8.695521">
        <ele>277.060</ele>
        <time>2018-08-16T11:33:13Z</time>
      </trkpt>
      <trkpt lat="38.015565" lon="-8.694583">
        <ele>275.114</ele>
        <time>2018-08-16T11:34:22Z</time>
      </trkpt>
      <trkpt lat="38.015554" lon="-8.692870">
        <ele>262.534</ele>
        <time>2018-08-16T11:35:02Z</time>
      </trkpt>
      <trkpt lat="38.016630" lon="-8.692686">
        <ele>266.855</ele>
        <time>2018-08-16T11:35:50Z</time>
      </trkpt>
      <trkpt lat="38.016537" lon="-8.692791">
        <ele>262.810</ele>
        <time>2018-08-16T11:36:02Z</time>
      </trkpt>
      <trkpt lat="38.013776" lon="-8.693048">
        <ele>257.108</ele>
        <time>2018-08-16T11:36:55Z</time>
      </trkpt>
      <trkpt lat="38.013543" lon="-8.692968">
        <ele>257.685</ele>
        <time>2018-08-16T11:37:02Z</time>
      </trkpt>
      <trkpt lat="38.013501" lon="-8.692786">
        <ele>259.410</ele>
        <time>2018-08-16T11:37:13Z</time>
      </trkpt>
      <trkpt lat="38.013837" lon="-8.692928">
        <ele>257.659</ele>
        <time>2018-08-16T12:04:50Z</time>
      </trkpt>
      <trkpt lat="38.012564" lon="-8.693166">
        <ele>261.866</ele>
        <time>2018-08-16T12:05:25Z</time>
      </trkpt>
      <trkpt lat="38.009735" lon="-8.693345">
        <ele>262.791</ele>
        <time>2018-08-16T12:07:18Z</time>
      </trkpt>
      <trkpt lat="38.006647" lon="-8.692713">
        <ele>267.833</ele>
        <time>2018-08-16T12:08:46Z</time>
      </trkpt>
      <trkpt lat="38.005706" lon="-8.693257">
        <ele>268.136</ele>
        <time>2018-08-16T12:10:17Z</time>
      </trkpt>
      <trkpt lat="38.004798" lon="-8.693310">
        <ele>276.010</ele>
        <time>2018-08-16T12:11:13Z</time>
      </trkpt>
      <trkpt lat="38.003713" lon="-8.693730">
        <ele>279.225</ele>
        <time>2018-08-16T12:11:54Z</time>
      </trkpt>
      <trkpt lat="38.002024" lon="-8.693888">
        <ele>289.226</ele>
        <time>2018-08-16T12:13:04Z</time>
      </trkpt>
      <trkpt lat="38.001726" lon="-8.694092">
        <ele>290.908</ele>
        <time>2018-08-16T12:13:20Z</time>
      </trkpt>
      <trkpt lat="38.001297" lon="-8.694872">
        <ele>297.508</ele>
        <time>2018-08-16T12:14:52Z</time>
      </trkpt>
      <trkpt lat="38.000980" lon="-8.694985">
        <ele>299.074</ele>
        <time>2018-08-16T12:15:06Z</time>
      </trkpt>
      <trkpt lat="37.999804" lon="-8.694515">
        <ele>300.119</ele>
        <time>2018-08-16T12:15:35Z</time>
      </trkpt>
      <trkpt lat="37.998121" lon="-8.694924">
        <ele>306.838</ele>
        <time>2018-08-16T12:16:31Z</time>
      </trkpt>
      <trkpt lat="37.997380" lon="-8.694948">
        <ele>311.655</ele>
        <time>2018-08-16T12:16:59Z</time>
      </trkpt>
      <trkpt lat="37.996270" lon="-8.694662">
        <ele>303.550</ele>
        <time>2018-08-16T12:17:15Z</time>
      </trkpt>
      <trkpt lat="37.995288" lon="-8.693978">
        <ele>300.742</ele>
        <time>2018-08-16T12:17:28Z</time>
      </trkpt>
      <trkpt lat="37.993748" lon="-8.693568">
        <ele>298.045</ele>
        <time>2018-08-16T12:17:51Z</time>
      </trkpt>
      <trkpt lat="37.991159" lon="-8.694445">
        <ele>312.779</ele>
        <time>2018-08-16T12:19:35Z</time>
      </trkpt>
      <trkpt lat="37.990455" lon="-8.694433">
        <ele>314.391</ele>
        <time>2018-08-16T12:19:59Z</time>
      </trkpt>
      <trkpt lat="37.989716" lon="-8.694139">
        <ele>316.481</ele>
        <time>2018-08-16T12:20:21Z</time>
      </trkpt>
      <trkpt lat="37.989146" lon="-8.693464">
        <ele>318.119</ele>
        <time>2018-08-16T12:20:41Z</time>
      </trkpt>
      <trkpt lat="37.988690" lon="-8.693312">
        <ele>320.708</ele>
        <time>2018-08-16T12:21:00Z</time>
      </trkpt>
      <trkpt lat="37.988299" lon="-8.693662">
        <ele>324.431</ele>
        <time>2018-08-16T12:21:20Z</time>
      </trkpt>
      <trkpt lat="37.987740" lon="-8.695233">
        <ele>332.866</ele>
        <time>2018-08-16T12:22:23Z</time>
      </trkpt>
      <trkpt lat="37.987839" lon="-8.695229">
        <ele>334.055</ele>
        <time>2018-08-16T12:22:40Z</time>
      </trkpt>
      <trkpt lat="37.986416" lon="-8.696154">
        <ele>328.862</ele>
        <time>2018-08-16T12:23:44Z</time>
      </trkpt>
      <trkpt lat="37.985573" lon="-8.696360">
        <ele>326.867</ele>
        <time>2018-08-16T12:23:56Z</time>
      </trkpt>
      <trkpt lat="37.984513" lon="-8.696271">
        <ele>322.139</ele>
        <time>2018-08-16T12:24:13Z</time>
      </trkpt>
      <trkpt lat="37.981518" lon="-8.695144">
        <ele>330.422</ele>
        <time>2018-08-16T12:25:14Z</time>
      </trkpt>
      <trkpt lat="37.979304" lon="-8.694840">
        <ele>330.366</ele>
        <time>2018-08-16T12:26:03Z</time>
      </trkpt>
      <trkpt lat="37.978434" lon="-8.695007">
        <ele>330.394</ele>
        <time>2018-08-16T12:26:21Z</time>
      </trkpt>
      <trkpt lat="37.977715" lon="-8.695569">
        <ele>329.957</ele>
        <time>2018-08-16T12:26:39Z</time>
      </trkpt>
      <trkpt lat="37.977152" lon="-8.697134">
        <ele>329.022</ele>
        <time>2018-08-16T12:27:06Z</time>
      </trkpt>
      <trkpt lat="37.976472" lon="-8.697590">
        <ele>324.508</ele>
        <time>2018-08-16T12:27:16Z</time>
      </trkpt>
      <trkpt lat="37.976441" lon="-8.700939">
        <ele>313.141</ele>
        <time>2018-08-16T12:27:48Z</time>
      </trkpt>
      <trkpt lat="37.975927" lon="-8.701638">
        <ele>311.086</ele>
        <time>2018-08-16T12:27:57Z</time>
      </trkpt>
      <trkpt lat="37.975433" lon="-8.703237">
        <ele>305.275</ele>
        <time>2018-08-16T12:28:11Z</time>
      </trkpt>
      <trkpt lat="37.975143" lon="-8.703664">
        <ele>304.592</ele>
        <time>2018-08-16T12:28:16Z</time>
      </trkpt>
      <trkpt lat="37.973631" lon="-8.704727">
        <ele>304.747</ele>
        <time>2018-08-16T12:28:40Z</time>
      </trkpt>
      <trkpt lat="37.971689" lon="-8.705449">
        <ele>306.269</ele>
        <time>2018-08-16T12:29:20Z</time>
      </trkpt>
      <trkpt lat="37.971327" lon="-8.705472">
        <ele>306.082</ele>
        <time>2018-08-16T12:29:28Z</time>
      </trkpt>
      <trkpt lat="37.969923" lon="-8.705074">
        <ele>308.946</ele>
        <time>2018-08-16T12:30:03Z</time>
      </trkpt>
      <trkpt lat="37.967477" lon="-8.705072">
        <ele>316.295</ele>
        <time>2018-08-16T12:33:18Z</time>
      </trkpt>
      <trkpt lat="37.965723" lon="-8.705331">
        <ele>313.149</ele>
        <time>2018-08-16T12:33:53Z</time>
      </trkpt>
      <trkpt lat="37.964897" lon="-8.706154">
        <ele>315.423</ele>
        <time>2018-08-16T12:34:14Z</time>
      </trkpt>
      <trkpt lat="37.963640" lon="-8.706083">
        <ele>310.308</ele>
        <time>2018-08-16T12:34:34Z</time>
      </trkpt>
      <trkpt lat="37.963432" lon="-8.706458">
        <ele>312.331</ele>
        <time>2018-08-16T12:34:41Z</time>
      </trkpt>
      <trkpt lat="37.963387" lon="-8.707568">
        <ele>309.046</ele>
        <time>2018-08-16T12:34:56Z</time>
      </trkpt>
      <trkpt lat="37.962596" lon="-8.708083">
        <ele>310.355</ele>
        <time>2018-08-16T12:35:10Z</time>
      </trkpt>
      <trkpt lat="37.962246" lon="-8.708675">
        <ele>308.622</ele>
        <time>2018-08-16T12:35:18Z</time>
      </trkpt>
      <trkpt lat="37.961612" lon="-8.708714">
        <ele>304.947</ele>
        <time>2018-08-16T12:35:26Z</time>
      </trkpt>
      <trkpt lat="37.961359" lon="-8.709718">
        <ele>302.549</ele>
        <time>2018-08-16T12:35:36Z</time>
      </trkpt>
      <trkpt lat="37.961170" lon="-8.709907">
        <ele>301.982</ele>
        <time>2018-08-16T12:35:39Z</time>
      </trkpt>
      <trkpt lat="37.960353" lon="-8.709606">
        <ele>300.696</ele>
        <time>2018-08-16T12:35:51Z</time>
      </trkpt>
      <trkpt lat="37.959744" lon="-8.709867">
        <ele>296.481</ele>
        <time>2018-08-16T12:35:59Z</time>
      </trkpt>
      <trkpt lat="37.959255" lon="-8.709771">
        <ele>292.661</ele>
        <time>2018-08-16T12:36:05Z</time>
      </trkpt>
      <trkpt lat="37.958800" lon="-8.710097">
        <ele>291.017</ele>
        <time>2018-08-16T12:36:11Z</time>
      </trkpt>
      <trkpt lat="37.958526" lon="-8.710079">
        <ele>290.208</ele>
        <time>2018-08-16T12:36:14Z</time>
      </trkpt>
      <trkpt lat="37.958133" lon="-8.709405">
        <ele>287.540</ele>
        <time>2018-08-16T12:36:22Z</time>
      </trkpt>
      <trkpt lat="37.957715" lon="-8.709115">
        <ele>288.755</ele>
        <time>2018-08-16T12:36:29Z</time>
      </trkpt>
      <trkpt lat="37.957242" lon="-8.708496">
        <ele>296.164</ele>
        <time>2018-08-16T12:36:39Z</time>
      </trkpt>
      <trkpt lat="37.956205" lon="-8.707728">
        <ele>287.541</ele>
        <time>2018-08-16T12:36:57Z</time>
      </trkpt>
      <trkpt lat="37.955511" lon="-8.707563">
        <ele>286.356</ele>
        <time>2018-08-16T12:37:06Z</time>
      </trkpt>
      <trkpt lat="37.954795" lon="-8.706553">
        <ele>282.458</ele>
        <time>2018-08-16T12:37:20Z</time>
      </trkpt>
      <trkpt lat="37.953840" lon="-8.706036">
        <ele>278.841</ele>
        <time>2018-08-16T12:37:32Z</time>
      </trkpt>
      <trkpt lat="37.953381" lon="-8.705417">
        <ele>275.965</ele>
        <time>2018-08-16T12:37:39Z</time>
      </trkpt>
      <trkpt lat="37.952499" lon="-8.705418">
        <ele>271.968</ele>
        <time>2018-08-16T12:37:48Z</time>
      </trkpt>
      <trkpt lat="37.951899" lon="-8.704708">
        <ele>270.942</ele>
        <time>2018-08-16T12:37:59Z</time>
      </trkpt>
      <trkpt lat="37.950500" lon="-8.704621">
        <ele>271.226</ele>
        <time>2018-08-16T12:38:20Z</time>
      </trkpt>
      <trkpt lat="37.951007" lon="-8.704715">
        <ele>271.308</ele>
        <time>2018-08-16T12:38:55Z</time>
      </trkpt>
      <trkpt lat="37.951178" lon="-8.704897">
        <ele>270.728</ele>
        <time>2018-08-16T12:38:59Z</time>
      </trkpt>
      <trkpt lat="37.951495" lon="-8.706250">
        <ele>264.413</ele>
        <time>2018-08-16T12:39:19Z</time>
      </trkpt>
      <trkpt lat="37.951320" lon="-8.707319">
        <ele>262.962</ele>
        <time>2018-08-16T12:39:33Z</time>
      </trkpt>
      <trkpt lat="37.950637" lon="-8.708121">
        <ele>265.559</ele>
        <time>2018-08-16T12:39:59Z</time>
      </trkpt>
      <trkpt lat="37.950751" lon="-8.709510">
        <ele>253.724</ele>
        <time>2018-08-16T12:40:16Z</time>
      </trkpt>
      <trkpt lat="37.950330" lon="-8.710702">
        <ele>256.586</ele>
        <time>2018-08-16T12:40:42Z</time>
      </trkpt>
      <trkpt lat="37.949804" lon="-8.711569">
        <ele>252.649</ele>
        <time>2018-08-16T12:41:38Z</time>
      </trkpt>
      <trkpt lat="37.949580" lon="-8.712612">
        <ele>245.323</ele>
        <time>2018-08-16T12:41:59Z</time>
      </trkpt>
      <trkpt lat="37.949488" lon="-8.714645">
        <ele>241.269</ele>
        <time>2018-08-16T12:42:19Z</time>
      </trkpt>
      <trkpt lat="37.948971" lon="-8.715213">
        <ele>242.404</ele>
        <time>2018-08-16T12:42:30Z</time>
      </trkpt>
      <trkpt lat="37.948472" lon="-8.715501">
        <ele>241.124</ele>
        <time>2018-08-16T12:42:42Z</time>
      </trkpt>
      <trkpt lat="37.948271" lon="-8.715934">
        <ele>240.608</ele>
        <time>2018-08-16T12:42:50Z</time>
      </trkpt>
      <trkpt lat="37.948354" lon="-8.716232">
        <ele>240.788</ele>
        <time>2018-08-16T12:42:56Z</time>
      </trkpt>
      <trkpt lat="37.948596" lon="-8.716455">
        <ele>242.993</ele>
        <time>2018-08-16T12:43:06Z</time>
      </trkpt>
      <trkpt lat="37.948299" lon="-8.716147">
        <ele>241.612</ele>
        <time>2018-08-16T12:43:21Z</time>
      </trkpt>
      <trkpt lat="37.948727" lon="-8.716572">
        <ele>241.019</ele>
        <time>2018-08-16T12:44:39Z</time>
      </trkpt>
      <trkpt lat="37.948944" lon="-8.717269">
        <ele>240.184</ele>
        <time>2018-08-16T12:44:54Z</time>
      </trkpt>
      <trkpt lat="37.948038" lon="-8.718160">
        <ele>231.256</ele>
        <time>2018-08-16T12:45:18Z</time>
      </trkpt>
      <trkpt lat="37.948187" lon="-8.718636">
        <ele>225.359</ele>
        <time>2018-08-16T12:45:26Z</time>
      </trkpt>
      <trkpt lat="37.948734" lon="-8.718623">
        <ele>224.663</ele>
        <time>2018-08-16T12:45:35Z</time>
      </trkpt>
      <trkpt lat="37.948842" lon="-8.718992">
        <ele>227.797</ele>
        <time>2018-08-16T12:45:42Z</time>
      </trkpt>
      <trkpt lat="37.948587" lon="-8.719650">
        <ele>225.023</ele>
        <time>2018-08-16T12:45:52Z</time>
      </trkpt>
      <trkpt lat="37.948686" lon="-8.720590">
        <ele>215.525</ele>
        <time>2018-08-16T12:46:05Z</time>
      </trkpt>
      <trkpt lat="37.948379" lon="-8.721631">
        <ele>201.808</ele>
        <time>2018-08-16T12:46:16Z</time>
      </trkpt>
      <trkpt lat="37.948267" lon="-8.723260">
        <ele>194.531</ele>
        <time>2018-08-16T12:46:34Z</time>
      </trkpt>
      <trkpt lat="37.947503" lon="-8.724873">
        <ele>192.246</ele>
        <time>2018-08-16T12:46:56Z</time>
      </trkpt>
      <trkpt lat="37.945697" lon="-8.727816">
        <ele>183.735</ele>
        <time>2018-08-16T12:47:31Z</time>
      </trkpt>
      <trkpt lat="37.945191" lon="-8.729135">
        <ele>182.592</ele>
        <time>2018-08-16T12:47:51Z</time>
      </trkpt>
      <trkpt lat="37.945353" lon="-8.728296">
        <ele>181.747</ele>
        <time>2018-08-16T12:48:34Z</time>
      </trkpt>
      <trkpt lat="37.944745" lon="-8.728862">
        <ele>182.889</ele>
        <time>2018-08-16T12:49:06Z</time>
      </trkpt>
      <trkpt lat="37.943719" lon="-8.729437">
        <ele>178.752</ele>
        <time>2018-08-16T12:49:26Z</time>
      </trkpt>
      <trkpt lat="37.942454" lon="-8.730969">
        <ele>174.546</ele>
        <time>2018-08-16T12:50:52Z</time>
      </trkpt>
      <trkpt lat="37.942609" lon="-8.732495">
        <ele>167.868</ele>
        <time>2018-08-16T12:51:52Z</time>
      </trkpt>
      <trkpt lat="37.942486" lon="-8.733614">
        <ele>169.142</ele>
        <time>2018-08-16T12:52:45Z</time>
      </trkpt>
      <trkpt lat="37.941907" lon="-8.734651">
        <ele>162.926</ele>
        <time>2018-08-16T12:53:00Z</time>
      </trkpt>
      <trkpt lat="37.940720" lon="-8.736015">
        <ele>157.408</ele>
        <time>2018-08-16T12:53:24Z</time>
      </trkpt>
      <trkpt lat="37.939712" lon="-8.738080">
        <ele>155.458</ele>
        <time>2018-08-16T12:53:53Z</time>
      </trkpt>
      <trkpt lat="37.939559" lon="-8.739595">
        <ele>153.273</ele>
        <time>2018-08-16T12:54:11Z</time>
      </trkpt>
      <trkpt lat="37.939986" lon="-8.743547">
        <ele>149.222</ele>
        <time>2018-08-16T12:54:56Z</time>
      </trkpt>
      <trkpt lat="37.938883" lon="-8.748122">
        <ele>142.849</ele>
        <time>2018-08-16T12:55:49Z</time>
      </trkpt>
      <trkpt lat="37.938348" lon="-8.751340">
        <ele>138.334</ele>
        <time>2018-08-16T12:56:27Z</time>
      </trkpt>
      <trkpt lat="37.936332" lon="-8.756108">
        <ele>127.676</ele>
        <time>2018-08-16T12:57:30Z</time>
      </trkpt>
      <trkpt lat="37.934557" lon="-8.758307">
        <ele>112.429</ele>
        <time>2018-08-16T12:57:59Z</time>
      </trkpt>
      <trkpt lat="37.934315" lon="-8.758879">
        <ele>108.123</ele>
        <time>2018-08-16T12:58:04Z</time>
      </trkpt>
      <trkpt lat="37.934333" lon="-8.760208">
        <ele>106.373</ele>
        <time>2018-08-16T12:58:16Z</time>
      </trkpt>
      <trkpt lat="37.935890" lon="-8.763402">
        <ele>125.885</ele>
        <time>2018-08-16T12:59:43Z</time>
      </trkpt>
      <trkpt lat="37.938012" lon="-8.769932">
        <ele>121.713</ele>
        <time>2018-08-16T13:01:39Z</time>
      </trkpt>
      <trkpt lat="37.939720" lon="-8.773434">
        <ele>119.208</ele>
        <time>2018-08-16T13:02:35Z</time>
      </trkpt>
      <trkpt lat="37.941990" lon="-8.780226">
        <ele>115.149</ele>
        <time>2018-08-16T13:04:41Z</time>
      </trkpt>
      <trkpt lat="37.941784" lon="-8.780297">
        <ele>114.734</ele>
        <time>2018-08-16T13:04:53Z</time>
      </trkpt>
      <trkpt lat="37.940191" lon="-8.783783">
        <ele>113.833</ele>
        <time>2018-08-16T13:05:55Z</time>
      </trkpt>
      <trkpt lat="37.938439" lon="-8.793672">
        <ele>106.840</ele>
        <time>2018-08-16T13:10:02Z</time>
      </trkpt>
      <trkpt lat="37.935955" lon="-8.797550">
        <ele>95.325</ele>
        <time>2018-08-16T13:11:31Z</time>
      </trkpt>
      <trkpt lat="37.935509" lon="-8.798466">
        <ele>93.317</ele>
        <time>2018-08-16T13:11:44Z</time>
      </trkpt>
      <trkpt lat="37.933494" lon="-8.809853">
        <ele>87.860</ele>
        <time>2018-08-16T13:15:01Z</time>
      </trkpt>
      <trkpt lat="37.933164" lon="-8.810987">
        <ele>85.524</ele>
        <time>2018-08-16T13:15:48Z</time>
      </trkpt>
      <trkpt lat="37.932570" lon="-8.810690">
        <ele>84.848</ele>
        <time>2018-08-16T13:16:24Z</time>
      </trkpt>
      <trkpt lat="37.932225" lon="-8.810276">
        <ele>85.761</ele>
        <time>2018-08-16T13:16:38Z</time>
      </trkpt>
      <trkpt lat="37.931596" lon="-8.809885">
        <ele>84.417</ele>
        <time>2018-08-16T13:16:54Z</time>
      </trkpt>
      <trkpt lat="37.930336" lon="-8.807621">
        <ele>83.108</ele>
        <time>2018-08-16T13:17:37Z</time>
      </trkpt>
      <trkpt lat="37.929650" lon="-8.807970">
        <ele>82.676</ele>
        <time>2018-08-16T13:18:27Z</time>
      </trkpt>
      <trkpt lat="37.927974" lon="-8.806778">
        <ele>78.821</ele>
        <time>2018-08-16T13:19:04Z</time>
      </trkpt>
      <trkpt lat="37.926454" lon="-8.806920">
        <ele>74.920</ele>
        <time>2018-08-16T13:20:24Z</time>
      </trkpt>
      <trkpt lat="37.922822" lon="-8.804534">
        <ele>75.577</ele>
        <time>2018-08-16T13:21:44Z</time>
      </trkpt>
      <trkpt lat="37.920807" lon="-8.804409">
        <ele>77.212</ele>
        <time>2018-08-16T13:22:22Z</time>
      </trkpt>
      <trkpt lat="37.916790" lon="-8.803019">
        <ele>74.564</ele>
        <time>2018-08-16T13:23:46Z</time>
      </trkpt>
      <trkpt lat="37.914536" lon="-8.801931">
        <ele>73.527</ele>
        <time>2018-08-16T13:27:52Z</time>
      </trkpt>
      <trkpt lat="37.912135" lon="-8.801816">
        <ele>75.881</ele>
        <time>2018-08-16T13:28:38Z</time>
      </trkpt>
      <trkpt lat="37.911336" lon="-8.801220">
        <ele>76.534</ele>
        <time>2018-08-16T13:29:39Z</time>
      </trkpt>
      <trkpt lat="37.910286" lon="-8.799827">
        <ele>78.255</ele>
        <time>2018-08-16T13:30:10Z</time>
      </trkpt>
      <trkpt lat="37.906554" lon="-8.797853">
        <ele>75.010</ele>
        <time>2018-08-16T13:31:56Z</time>
      </trkpt>
      <trkpt lat="37.904780" lon="-8.795884">
        <ele>82.808</ele>
        <time>2018-08-16T13:32:41Z</time>
      </trkpt>
      <trkpt lat="37.902469" lon="-8.794014">
        <ele>89.085</ele>
        <time>2018-08-16T13:33:40Z</time>
      </trkpt>
      <trkpt lat="37.901646" lon="-8.793636">
        <ele>87.470</ele>
        <time>2018-08-16T13:33:57Z</time>
      </trkpt>
      <trkpt lat="37.900233" lon="-8.793626">
        <ele>86.629</ele>
        <time>2018-08-16T13:34:21Z</time>
      </trkpt>
      <trkpt lat="37.899154" lon="-8.793840">
        <ele>87.556</ele>
        <time>2018-08-16T13:34:40Z</time>
      </trkpt>
      <trkpt lat="37.896718" lon="-8.793735">
        <ele>85.311</ele>
        <time>2018-08-16T13:35:19Z</time>
      </trkpt>
      <trkpt lat="37.889433" lon="-8.792227">
        <ele>87.453</ele>
        <time>2018-08-16T13:37:17Z</time>
      </trkpt>
      <trkpt lat="37.886666" lon="-8.791421">
        <ele>88.936</ele>
        <time>2018-08-16T13:38:08Z</time>
      </trkpt>
      <trkpt lat="37.882742" lon="-8.791323">
        <ele>87.190</ele>
        <time>2018-08-16T13:39:13Z</time>
      </trkpt>
      <trkpt lat="37.881933" lon="-8.791038">
        <ele>87.924</ele>
        <time>2018-08-16T13:39:28Z</time>
      </trkpt>
      <trkpt lat="37.879995" lon="-8.789501">
        <ele>90.404</ele>
        <time>2018-08-16T13:40:09Z</time>
      </trkpt>
      <trkpt lat="37.879383" lon="-8.789291">
        <ele>89.814</ele>
        <time>2018-08-16T13:40:20Z</time>
      </trkpt>
      <trkpt lat="37.878773" lon="-8.789467">
        <ele>90.108</ele>
        <time>2018-08-16T13:40:31Z</time>
      </trkpt>
      <trkpt lat="37.876307" lon="-8.790811">
        <ele>90.894</ele>
        <time>2018-08-16T13:41:19Z</time>
      </trkpt>
      <trkpt lat="37.872535" lon="-8.791070">
        <ele>93.579</ele>
        <time>2018-08-16T13:42:22Z</time>
      </trkpt>
      <trkpt lat="37.869056" lon="-8.792070">
        <ele>7.538</ele>
        <time>2018-08-16T13:49:32Z</time>
      </trkpt>
      <trkpt lat="37.869299" lon="-8.791963">
        <ele>7.785</ele>
        <time>2018-08-16T13:50:00Z</time>
      </trkpt>
      <trkpt lat="37.869556" lon="-8.792101">
        <ele>8.650</ele>
        <time>2018-08-16T13:50:08Z</time>
      </trkpt>
      <trkpt lat="37.869293" lon="-8.793060">
        <ele>5.772</ele>
        <time>2018-08-16T13:53:25Z</time>
      </trkpt>
      <trkpt lat="37.869539" lon="-8.792226">
        <ele>8.495</ele>
        <time>2018-08-16T13:54:25Z</time>
      </trkpt>
      <trkpt lat="37.869463" lon="-8.792001">
        <ele>11.059</ele>
        <time>2018-08-16T13:54:48Z</time>
      </trkpt>
      <trkpt lat="37.868436" lon="-8.792208">
        <ele>10.836</ele>
        <time>2018-08-16T13:55:12Z</time>
      </trkpt>
      <trkpt lat="37.865464" lon="-8.792275">
        <ele>9.017</ele>
        <time>2018-08-16T13:56:08Z</time>
      </trkpt>
      <trkpt lat="37.861110" lon="-8.793604">
        <ele>8.718</ele>
        <time>2018-08-16T13:57:52Z</time>
      </trkpt>
      <trkpt lat="37.860358" lon="-8.793541">
        <ele>8.808</ele>
        <time>2018-08-16T13:58:44Z</time>
      </trkpt>
      <trkpt lat="37.859442" lon="-8.793238">
        <ele>5.025</ele>
        <time>2018-08-16T13:59:09Z</time>
      </trkpt>
      <trkpt lat="37.859016" lon="-8.793543">
        <ele>5.070</ele>
        <time>2018-08-16T13:59:25Z</time>
      </trkpt>
      <trkpt lat="37.859024" lon="-8.794052">
        <ele>5.499</ele>
        <time>2018-08-16T14:03:21Z</time>
      </trkpt>
      <trkpt lat="37.859062" lon="-8.793565">
        <ele>5.056</ele>
        <time>2018-08-16T14:05:00Z</time>
      </trkpt>
      <trkpt lat="37.858360" lon="-8.793478">
        <ele>8.721</ele>
        <time>2018-08-16T14:06:03Z</time>
      </trkpt>
      <trkpt lat="37.857929" lon="-8.792443">
        <ele>4.653</ele>
        <time>2018-08-16T14:06:41Z</time>
      </trkpt>
      <trkpt lat="37.856650" lon="-8.792624">
        <ele>8.036</ele>
        <time>2018-08-16T14:07:10Z</time>
      </trkpt>
      <trkpt lat="37.856183" lon="-8.793072">
        <ele>9.930</ele>
        <time>2018-08-16T14:08:50Z</time>
      </trkpt>
      <trkpt lat="37.856404" lon="-8.792734">
        <ele>8.169</ele>
        <time>2018-08-16T14:09:10Z</time>
      </trkpt>
      <trkpt lat="37.856932" lon="-8.792496">
        <ele>8.204</ele>
        <time>2018-08-16T14:09:23Z</time>
      </trkpt>
      <trkpt lat="37.857082" lon="-8.792275">
        <ele>7.424</ele>
        <time>2018-08-16T14:09:32Z</time>
      </trkpt>
      <trkpt lat="37.856959" lon="-8.789992">
        <ele>14.108</ele>
        <time>2018-08-16T14:10:36Z</time>
      </trkpt>
      <trkpt lat="37.856455" lon="-8.787997">
        <ele>20.238</ele>
        <time>2018-08-16T14:11:33Z</time>
      </trkpt>
      <trkpt lat="37.856216" lon="-8.787575">
        <ele>22.343</ele>
        <time>2018-08-16T14:12:06Z</time>
      </trkpt>
      <trkpt lat="37.856463" lon="-8.787316">
        <ele>20.952</ele>
        <time>2018-08-16T14:12:25Z</time>
      </trkpt>
      <trkpt lat="37.856438" lon="-8.786977">
        <ele>21.879</ele>
        <time>2018-08-16T14:12:41Z</time>
      </trkpt>
      <trkpt lat="37.856545" lon="-8.786995">
        <ele>25.184</ele>
        <time>2018-08-16T14:22:42Z</time>
      </trkpt>
      <trkpt lat="37.856470" lon="-8.786870">
        <ele>25.436</ele>
        <time>2018-08-16T14:22:55Z</time>
      </trkpt>
      <trkpt lat="37.856678" lon="-8.786578">
        <ele>26.089</ele>
        <time>2018-08-16T14:23:11Z</time>
      </trkpt>
      <trkpt lat="37.856681" lon="-8.785357">
        <ele>31.953</ele>
        <time>2018-08-16T14:24:04Z</time>
      </trkpt>
      <trkpt lat="37.857154" lon="-8.785181">
        <ele>28.983</ele>
        <time>2018-08-16T14:24:32Z</time>
      </trkpt>
      <trkpt lat="37.857255" lon="-8.784582">
        <ele>30.725</ele>
        <time>2018-08-16T14:25:33Z</time>
      </trkpt>
      <trkpt lat="37.857660" lon="-8.784543">
        <ele>30.017</ele>
        <time>2018-08-16T14:26:05Z</time>
      </trkpt>
      <trkpt lat="37.857192" lon="-8.784517">
        <ele>31.008</ele>
        <time>2018-08-16T14:26:54Z</time>
      </trkpt>
      <trkpt lat="37.857142" lon="-8.784159">
        <ele>30.990</ele>
        <time>2018-08-16T14:27:09Z</time>
      </trkpt>
      <trkpt lat="37.857387" lon="-8.784073">
        <ele>30.295</ele>
        <time>2018-08-16T14:27:34Z</time>
      </trkpt>
      <trkpt lat="37.857392" lon="-8.784279">
        <ele>30.824</ele>
        <time>2018-08-16T14:28:12Z</time>
      </trkpt>
      <trkpt lat="37.857159" lon="-8.786293">
        <ele>103.493</ele>
        <time>2018-08-17T08:54:30Z</time>
      </trkpt>
      <trkpt lat="37.856722" lon="-8.785465">
        <ele>103.465</ele>
        <time>2018-08-17T08:55:17Z</time>
      </trkpt>
      <trkpt lat="37.856736" lon="-8.786438">
        <ele>101.421</ele>
        <time>2018-08-17T08:55:32Z</time>
      </trkpt>
      <trkpt lat="37.856466" lon="-8.786862">
        <ele>102.308</ele>
        <time>2018-08-17T08:55:52Z</time>
      </trkpt>
      <trkpt lat="37.856489" lon="-8.787233">
        <ele>103.111</ele>
        <time>2018-08-17T08:56:08Z</time>
      </trkpt>
      <trkpt lat="37.854546" lon="-8.789161">
        <ele>100.526</ele>
        <time>2018-08-17T08:59:30Z</time>
      </trkpt>
      <trkpt lat="37.853233" lon="-8.788270">
        <ele>103.945</ele>
        <time>2018-08-17T09:00:35Z</time>
      </trkpt>
      <trkpt lat="37.852039" lon="-8.790746">
        <ele>89.886</ele>
        <time>2018-08-17T09:28:34Z</time>
      </trkpt>
      <trkpt lat="37.851901" lon="-8.790616">
        <ele>91.092</ele>
        <time>2018-08-17T09:30:16Z</time>
      </trkpt>
      <trkpt lat="37.852019" lon="-8.790481">
        <ele>88.734</ele>
        <time>2018-08-17T09:36:17Z</time>
      </trkpt>
      <trkpt lat="37.851925" lon="-8.790519">
        <ele>90.537</ele>
        <time>2018-08-17T09:36:25Z</time>
      </trkpt>
      <trkpt lat="37.851934" lon="-8.791089">
        <ele>86.868</ele>
        <time>2018-08-17T09:40:03Z</time>
      </trkpt>
      <trkpt lat="37.850916" lon="-8.793338">
        <ele>81.558</ele>
        <time>2018-08-17T09:43:23Z</time>
      </trkpt>
      <trkpt lat="37.850035" lon="-8.792583">
        <ele>74.452</ele>
        <time>2018-08-17T09:44:23Z</time>
      </trkpt>
      <trkpt lat="37.850179" lon="-8.792684">
        <ele>75.417</ele>
        <time>2018-08-17T09:45:45Z</time>
      </trkpt>
      <trkpt lat="37.850494" lon="-8.791923">
        <ele>80.608</ele>
        <time>2018-08-17T09:47:25Z</time>
      </trkpt>
      <trkpt lat="37.851005" lon="-8.791732">
        <ele>86.847</ele>
        <time>2018-08-17T09:47:49Z</time>
      </trkpt>
      <trkpt lat="37.851470" lon="-8.791984">
        <ele>84.172</ele>
        <time>2018-08-17T09:48:13Z</time>
      </trkpt>
      <trkpt lat="37.853196" lon="-8.788272">
        <ele>95.531</ele>
        <time>2018-08-17T09:51:27Z</time>
      </trkpt>
      <trkpt lat="37.853504" lon="-8.787249">
        <ele>97.812</ele>
        <time>2018-08-17T09:52:17Z</time>
      </trkpt>
      <trkpt lat="37.855413" lon="-8.771007">
        <ele>117.548</ele>
        <time>2018-08-17T09:57:14Z</time>
      </trkpt>
      <trkpt lat="37.857365" lon="-8.764833">
        <ele>126.490</ele>
        <time>2018-08-17T09:59:08Z</time>
      </trkpt>
      <trkpt lat="37.857154" lon="-8.764269">
        <ele>127.883</ele>
        <time>2018-08-17T09:59:19Z</time>
      </trkpt>
      <trkpt lat="37.855737" lon="-8.763591">
        <ele>127.784</ele>
        <time>2018-08-17T09:59:45Z</time>
      </trkpt>
      <trkpt lat="37.848687" lon="-8.767206">
        <ele>120.636</ele>
        <time>2018-08-17T10:01:53Z</time>
      </trkpt>
      <trkpt lat="37.847668" lon="-8.768041">
        <ele>120.817</ele>
        <time>2018-08-17T10:02:15Z</time>
      </trkpt>
      <trkpt lat="37.844948" lon="-8.773600">
        <ele>117.218</ele>
        <time>2018-08-17T10:03:44Z</time>
      </trkpt>
      <trkpt lat="37.839604" lon="-8.785151">
        <ele>93.708</ele>
        <time>2018-08-17T10:08:04Z</time>
      </trkpt>
      <trkpt lat="37.838508" lon="-8.787209">
        <ele>85.215</ele>
        <time>2018-08-17T10:09:30Z</time>
      </trkpt>
      <trkpt lat="37.837675" lon="-8.787557">
        <ele>82.480</ele>
        <time>2018-08-17T10:10:16Z</time>
      </trkpt>
      <trkpt lat="37.832518" lon="-8.786904">
        <ele>77.849</ele>
        <time>2018-08-17T10:11:49Z</time>
      </trkpt>
      <trkpt lat="37.831149" lon="-8.787229">
        <ele>70.760</ele>
        <time>2018-08-17T10:12:07Z</time>
      </trkpt>
      <trkpt lat="37.829912" lon="-8.788399">
        <ele>79.626</ele>
        <time>2018-08-17T10:12:48Z</time>
      </trkpt>
      <trkpt lat="37.828560" lon="-8.790054">
        <ele>84.188</ele>
        <time>2018-08-17T10:13:34Z</time>
      </trkpt>
      <trkpt lat="37.829094" lon="-8.790827">
        <ele>79.861</ele>
        <time>2018-08-17T10:15:08Z</time>
      </trkpt>
      <trkpt lat="37.829117" lon="-8.791245">
        <ele>76.982</ele>
        <time>2018-08-17T10:15:44Z</time>
      </trkpt>
      <trkpt lat="37.828989" lon="-8.791348">
        <ele>77.849</ele>
        <time>2018-08-17T10:17:11Z</time>
      </trkpt>
      <trkpt lat="37.828975" lon="-8.790676">
        <ele>80.202</ele>
        <time>2018-08-17T10:17:43Z</time>
      </trkpt>
      <trkpt lat="37.828467" lon="-8.790381">
        <ele>84.322</ele>
        <time>2018-08-17T10:18:13Z</time>
      </trkpt>
      <trkpt lat="37.828184" lon="-8.790858">
        <ele>87.608</ele>
        <time>2018-08-17T10:20:11Z</time>
      </trkpt>
      <trkpt lat="37.827545" lon="-8.790833">
        <ele>83.816</ele>
        <time>2018-08-17T10:23:10Z</time>
      </trkpt>
      <trkpt lat="37.827479" lon="-8.791015">
        <ele>81.411</ele>
        <time>2018-08-17T10:23:16Z</time>
      </trkpt>
      <trkpt lat="37.827262" lon="-8.790878">
        <ele>82.150</ele>
        <time>2018-08-17T10:26:24Z</time>
      </trkpt>
      <trkpt lat="37.825424" lon="-8.791098">
        <ele>76.941</ele>
        <time>2018-08-17T10:27:00Z</time>
      </trkpt>
      <trkpt lat="37.824354" lon="-8.791717">
        <ele>76.967</ele>
        <time>2018-08-17T10:27:28Z</time>
      </trkpt>
      <trkpt lat="37.822697" lon="-8.791884">
        <ele>74.069</ele>
        <time>2018-08-17T10:28:10Z</time>
      </trkpt>
      <trkpt lat="37.822434" lon="-8.789746">
        <ele>76.892</ele>
        <time>2018-08-17T10:29:24Z</time>
      </trkpt>
      <trkpt lat="37.822272" lon="-8.789531">
        <ele>76.153</ele>
        <time>2018-08-17T10:29:30Z</time>
      </trkpt>
      <trkpt lat="37.821654" lon="-8.789306">
        <ele>77.514</ele>
        <time>2018-08-17T10:29:46Z</time>
      </trkpt>
      <trkpt lat="37.820836" lon="-8.789770">
        <ele>78.254</ele>
        <time>2018-08-17T10:30:06Z</time>
      </trkpt>
      <trkpt lat="37.820143" lon="-8.789785">
        <ele>72.009</ele>
        <time>2018-08-17T10:30:38Z</time>
      </trkpt>
      <trkpt lat="37.819687" lon="-8.789977">
        <ele>68.308</ele>
        <time>2018-08-17T10:30:56Z</time>
      </trkpt>
      <trkpt lat="37.819502" lon="-8.789832">
        <ele>72.133</ele>
        <time>2018-08-17T10:31:08Z</time>
      </trkpt>
      <trkpt lat="37.819985" lon="-8.787644">
        <ele>80.018</ele>
        <time>2018-08-17T10:32:37Z</time>
      </trkpt>
      <trkpt lat="37.819225" lon="-8.785500">
        <ele>87.497</ele>
        <time>2018-08-17T10:33:39Z</time>
      </trkpt>
      <trkpt lat="37.818178" lon="-8.783433">
        <ele>89.738</ele>
        <time>2018-08-17T10:34:33Z</time>
      </trkpt>
      <trkpt lat="37.815595" lon="-8.774990">
        <ele>111.034</ele>
        <time>2018-08-17T10:38:40Z</time>
      </trkpt>
      <trkpt lat="37.814412" lon="-8.774018">
        <ele>111.746</ele>
        <time>2018-08-17T10:39:20Z</time>
      </trkpt>
      <trkpt lat="37.811975" lon="-8.772480">
        <ele>119.369</ele>
        <time>2018-08-17T10:40:28Z</time>
      </trkpt>
      <trkpt lat="37.811307" lon="-8.772302">
        <ele>118.990</ele>
        <time>2018-08-17T10:40:43Z</time>
      </trkpt>
      <trkpt lat="37.810118" lon="-8.772313">
        <ele>116.062</ele>
        <time>2018-08-17T10:41:07Z</time>
      </trkpt>
      <trkpt lat="37.809796" lon="-8.772201">
        <ele>117.383</ele>
        <time>2018-08-17T10:41:14Z</time>
      </trkpt>
      <trkpt lat="37.809049" lon="-8.771309">
        <ele>117.811</ele>
        <time>2018-08-17T10:41:39Z</time>
      </trkpt>
      <trkpt lat="37.807210" lon="-8.768488">
        <ele>124.008</ele>
        <time>2018-08-17T10:43:05Z</time>
      </trkpt>
      <trkpt lat="37.806948" lon="-8.768374">
        <ele>125.668</ele>
        <time>2018-08-17T10:43:12Z</time>
      </trkpt>
      <trkpt lat="37.802250" lon="-8.771490">
        <ele>122.043</ele>
        <time>2018-08-17T10:45:11Z</time>
      </trkpt>
      <trkpt lat="37.800501" lon="-8.773287">
        <ele>123.442</ele>
        <time>2018-08-17T10:45:49Z</time>
      </trkpt>
      <trkpt lat="37.800272" lon="-8.773812">
        <ele>120.093</ele>
        <time>2018-08-17T10:45:57Z</time>
      </trkpt>
      <trkpt lat="37.799298" lon="-8.778188">
        <ele>108.459</ele>
        <time>2018-08-17T10:47:38Z</time>
      </trkpt>
      <trkpt lat="37.798833" lon="-8.778778">
        <ele>106.881</ele>
        <time>2018-08-17T10:47:48Z</time>
      </trkpt>
      <trkpt lat="37.786159" lon="-8.782965">
        <ele>119.484</ele>
        <time>2018-08-17T10:52:28Z</time>
      </trkpt>
      <trkpt lat="37.781376" lon="-8.783114">
        <ele>122.195</ele>
        <time>2018-08-17T10:53:50Z</time>
      </trkpt>
      <trkpt lat="37.776286" lon="-8.783856">
        <ele>120.435</ele>
        <time>2018-08-17T10:55:23Z</time>
      </trkpt>
      <trkpt lat="37.775349" lon="-8.783800">
        <ele>120.386</ele>
        <time>2018-08-17T10:55:38Z</time>
      </trkpt>
      <trkpt lat="37.770461" lon="-8.780965">
        <ele>132.614</ele>
        <time>2018-08-17T10:57:20Z</time>
      </trkpt>
      <trkpt lat="37.769638" lon="-8.780860">
        <ele>131.808</ele>
        <time>2018-08-17T10:57:38Z</time>
      </trkpt>
      <trkpt lat="37.767317" lon="-8.781025">
        <ele>129.215</ele>
        <time>2018-08-17T10:58:26Z</time>
      </trkpt>
      <trkpt lat="37.766469" lon="-8.780805">
        <ele>128.220</ele>
        <time>2018-08-17T10:58:43Z</time>
      </trkpt>
      <trkpt lat="37.765908" lon="-8.780234">
        <ele>128.859</ele>
        <time>2018-08-17T10:58:56Z</time>
      </trkpt>
      <trkpt lat="37.764662" lon="-8.777898">
        <ele>131.420</ele>
        <time>2018-08-17T10:59:41Z</time>
      </trkpt>
      <trkpt lat="37.763901" lon="-8.776891">
        <ele>130.786</ele>
        <time>2018-08-17T11:00:10Z</time>
      </trkpt>
      <trkpt lat="37.764203" lon="-8.777212">
        <ele>132.978</ele>
        <time>2018-08-17T11:01:51Z</time>
      </trkpt>
      <trkpt lat="37.764287" lon="-8.777524">
        <ele>130.311</ele>
        <time>2018-08-17T11:02:00Z</time>
      </trkpt>
      <trkpt lat="37.763765" lon="-8.777589">
        <ele>130.312</ele>
        <time>2018-08-17T11:02:09Z</time>
      </trkpt>
      <trkpt lat="37.757541" lon="-8.781274">
        <ele>113.297</ele>
        <time>2018-08-17T11:04:08Z</time>
      </trkpt>
      <trkpt lat="37.752887" lon="-8.783439">
        <ele>109.623</ele>
        <time>2018-08-17T11:05:35Z</time>
      </trkpt>
      <trkpt lat="37.752409" lon="-8.783489">
        <ele>109.525</ele>
        <time>2018-08-17T11:05:44Z</time>
      </trkpt>
      <trkpt lat="37.750883" lon="-8.783236">
        <ele>110.708</ele>
        <time>2018-08-17T11:06:14Z</time>
      </trkpt>
      <trkpt lat="37.749839" lon="-8.783295">
        <ele>107.711</ele>
        <time>2018-08-17T11:06:33Z</time>
      </trkpt>
      <trkpt lat="37.745196" lon="-8.785426">
        <ele>103.716</ele>
        <time>2018-08-17T11:08:06Z</time>
      </trkpt>
      <trkpt lat="37.743111" lon="-8.786019">
        <ele>103.625</ele>
        <time>2018-08-17T11:08:44Z</time>
      </trkpt>
      <trkpt lat="37.742193" lon="-8.786538">
        <ele>100.726</ele>
        <time>2018-08-17T11:09:02Z</time>
      </trkpt>
      <trkpt lat="37.740317" lon="-8.788351">
        <ele>95.532</ele>
        <time>2018-08-17T11:12:05Z</time>
      </trkpt>
      <trkpt lat="37.739992" lon="-8.788413">
        <ele>92.994</ele>
        <time>2018-08-17T11:12:12Z</time>
      </trkpt>
      <trkpt lat="37.737005" lon="-8.786104">
        <ele>92.777</ele>
        <time>2018-08-17T11:13:20Z</time>
      </trkpt>
      <trkpt lat="37.735080" lon="-8.785133">
        <ele>90.128</ele>
        <time>2018-08-17T11:13:59Z</time>
      </trkpt>
      <trkpt lat="37.733689" lon="-8.784010">
        <ele>89.873</ele>
        <time>2018-08-17T11:14:31Z</time>
      </trkpt>
      <trkpt lat="37.732285" lon="-8.783214">
        <ele>94.285</ele>
        <time>2018-08-17T11:15:09Z</time>
      </trkpt>
      <trkpt lat="37.730467" lon="-8.782935">
        <ele>91.913</ele>
        <time>2018-08-17T11:15:56Z</time>
      </trkpt>
      <trkpt lat="37.728754" lon="-8.781937">
        <ele>84.408</ele>
        <time>2018-08-17T11:18:40Z</time>
      </trkpt>
      <trkpt lat="37.728698" lon="-8.781387">
        <ele>85.069</ele>
        <time>2018-08-17T11:18:53Z</time>
      </trkpt>
      <trkpt lat="37.729366" lon="-8.778831">
        <ele>94.014</ele>
        <time>2018-08-17T11:19:45Z</time>
      </trkpt>
      <trkpt lat="37.729636" lon="-8.778371">
        <ele>95.743</ele>
        <time>2018-08-17T11:19:58Z</time>
      </trkpt>
      <trkpt lat="37.728815" lon="-8.777311">
        <ele>95.144</ele>
        <time>2018-08-17T11:20:26Z</time>
      </trkpt>
      <trkpt lat="37.727810" lon="-8.778202">
        <ele>92.280</ele>
        <time>2018-08-17T11:21:06Z</time>
      </trkpt>
      <trkpt lat="37.725382" lon="-8.780873">
        <ele>88.312</ele>
        <time>2018-08-17T11:22:34Z</time>
      </trkpt>
      <trkpt lat="37.724919" lon="-8.781234">
        <ele>89.165</ele>
        <time>2018-08-17T11:22:46Z</time>
      </trkpt>
      <trkpt lat="37.724596" lon="-8.780939">
        <ele>84.756</ele>
        <time>2018-08-17T11:23:13Z</time>
      </trkpt>
      <trkpt lat="37.724860" lon="-8.781367">
        <ele>86.763</ele>
        <time>2018-08-17T11:23:44Z</time>
      </trkpt>
      <trkpt lat="37.723696" lon="-8.782064">
        <ele>84.344</ele>
        <time>2018-08-17T11:24:22Z</time>
      </trkpt>
      <trkpt lat="37.723406" lon="-8.781996">
        <ele>79.718</ele>
        <time>2018-08-17T11:24:38Z</time>
      </trkpt>
      <trkpt lat="37.723107" lon="-8.782674">
        <ele>74.708</ele>
        <time>2018-08-17T11:24:58Z</time>
      </trkpt>
      <trkpt lat="37.722714" lon="-8.782608">
        <ele>70.378</ele>
        <time>2018-08-17T11:31:09Z</time>
      </trkpt>
      <trkpt lat="37.723088" lon="-8.782662">
        <ele>72.373</ele>
        <time>2018-08-17T11:33:31Z</time>
      </trkpt>
      <trkpt lat="37.723351" lon="-8.782095">
        <ele>71.242</ele>
        <time>2018-08-17T11:33:55Z</time>
      </trkpt>
      <trkpt lat="37.724418" lon="-8.781594">
        <ele>74.123</ele>
        <time>2018-08-17T11:34:44Z</time>
      </trkpt>
      <trkpt lat="37.725500" lon="-8.780751">
        <ele>85.969</ele>
        <time>2018-08-17T11:35:31Z</time>
      </trkpt>
      <trkpt lat="37.733003" lon="-8.772567">
        <ele>95.971</ele>
        <time>2018-08-17T11:50:02Z</time>
      </trkpt>
      <trkpt lat="37.733223" lon="-8.772083">
        <ele>95.824</ele>
        <time>2018-08-17T11:50:14Z</time>
      </trkpt>
      <trkpt lat="37.733043" lon="-8.771835">
        <ele>93.685</ele>
        <time>2018-08-17T11:50:20Z</time>
      </trkpt>
      <trkpt lat="37.731095" lon="-8.772036">
        <ele>88.244</ele>
        <time>2018-08-17T11:50:51Z</time>
      </trkpt>
      <trkpt lat="37.729859" lon="-8.771718">
        <ele>83.805</ele>
        <time>2018-08-17T11:51:07Z</time>
      </trkpt>
      <trkpt lat="37.725250" lon="-8.769185">
        <ele>76.015</ele>
        <time>2018-08-17T11:55:14Z</time>
      </trkpt>
      <trkpt lat="37.722090" lon="-8.767635">
        <ele>84.308</ele>
        <time>2018-08-17T11:57:09Z</time>
      </trkpt>
      <trkpt lat="37.719597" lon="-8.766892">
        <ele>96.916</ele>
        <time>2018-08-17T11:58:35Z</time>
      </trkpt>
      <trkpt lat="37.718007" lon="-8.766656">
        <ele>103.331</ele>
        <time>2018-08-17T11:59:27Z</time>
      </trkpt>
      <trkpt lat="37.716374" lon="-8.766618">
        <ele>107.370</ele>
        <time>2018-08-17T12:01:02Z</time>
      </trkpt>
      <trkpt lat="37.715450" lon="-8.765931">
        <ele>107.971</ele>
        <time>2018-08-17T12:01:55Z</time>
      </trkpt>
      <trkpt lat="37.713886" lon="-8.763871">
        <ele>116.447</ele>
        <time>2018-08-17T12:03:00Z</time>
      </trkpt>
      <trkpt lat="37.712194" lon="-8.762702">
        <ele>118.879</ele>
        <time>2018-08-17T12:03:50Z</time>
      </trkpt>
      <trkpt lat="37.710320" lon="-8.760906">
        <ele>119.782</ele>
        <time>2018-08-17T12:04:55Z</time>
      </trkpt>
      <trkpt lat="37.707191" lon="-8.758706">
        <ele>121.543</ele>
        <time>2018-08-17T12:06:18Z</time>
      </trkpt>
      <trkpt lat="37.704673" lon="-8.757576">
        <ele>116.642</ele>
        <time>2018-08-17T12:07:40Z</time>
      </trkpt>
      <trkpt lat="37.702893" lon="-8.757249">
        <ele>113.622</ele>
        <time>2018-08-17T12:08:18Z</time>
      </trkpt>
      <trkpt lat="37.700658" lon="-8.755993">
        <ele>117.014</ele>
        <time>2018-08-17T12:09:15Z</time>
      </trkpt>
      <trkpt lat="37.699095" lon="-8.755545">
        <ele>114.408</ele>
        <time>2018-08-17T12:09:49Z</time>
      </trkpt>
      <trkpt lat="37.698665" lon="-8.756604">
        <ele>117.026</ele>
        <time>2018-08-17T12:10:17Z</time>
      </trkpt>
      <trkpt lat="37.695239" lon="-8.757856">
        <ele>118.521</ele>
        <time>2018-08-17T12:11:36Z</time>
      </trkpt>
      <trkpt lat="37.694946" lon="-8.758331">
        <ele>119.210</ele>
        <time>2018-08-17T12:11:51Z</time>
      </trkpt>
      <trkpt lat="37.689269" lon="-8.761592">
        <ele>118.861</ele>
        <time>2018-08-17T12:15:30Z</time>
      </trkpt>
      <trkpt lat="37.688286" lon="-8.761669">
        <ele>111.467</ele>
        <time>2018-08-17T12:15:49Z</time>
      </trkpt>
      <trkpt lat="37.685410" lon="-8.761288">
        <ele>110.539</ele>
        <time>2018-08-17T12:17:24Z</time>
      </trkpt>
      <trkpt lat="37.683837" lon="-8.761905">
        <ele>111.132</ele>
        <time>2018-08-17T12:18:22Z</time>
      </trkpt>
      <trkpt lat="37.683682" lon="-8.762092">
        <ele>110.543</ele>
        <time>2018-08-17T12:18:27Z</time>
      </trkpt>
      <trkpt lat="37.682796" lon="-8.762344">
        <ele>109.331</ele>
        <time>2018-08-17T12:18:47Z</time>
      </trkpt>
      <trkpt lat="37.674965" lon="-8.766394">
        <ele>107.561</ele>
        <time>2018-08-17T12:22:59Z</time>
      </trkpt>
      <trkpt lat="37.673611" lon="-8.766916">
        <ele>103.207</ele>
        <time>2018-08-17T12:23:29Z</time>
      </trkpt>
      <trkpt lat="37.669275" lon="-8.769768">
        <ele>100.908</ele>
        <time>2018-08-17T12:25:07Z</time>
      </trkpt>
      <trkpt lat="37.660924" lon="-8.774141">
        <ele>101.855</ele>
        <time>2018-08-17T12:28:22Z</time>
      </trkpt>
      <trkpt lat="37.658271" lon="-8.775367">
        <ele>97.290</ele>
        <time>2018-08-17T12:29:26Z</time>
      </trkpt>
      <trkpt lat="37.657744" lon="-8.775867">
        <ele>97.779</ele>
        <time>2018-08-17T12:30:05Z</time>
      </trkpt>
      <trkpt lat="37.657681" lon="-8.775636">
        <ele>100.190</ele>
        <time>2018-08-17T12:31:43Z</time>
      </trkpt>
      <trkpt lat="37.657713" lon="-8.775904">
        <ele>102.186</ele>
        <time>2018-08-17T12:33:33Z</time>
      </trkpt>
      <trkpt lat="37.657665" lon="-8.775720">
        <ele>99.538</ele>
        <time>2018-08-17T12:34:49Z</time>
      </trkpt>
      <trkpt lat="37.657512" lon="-8.775759">
        <ele>100.341</ele>
        <time>2018-08-17T12:34:55Z</time>
      </trkpt>
      <trkpt lat="37.656344" lon="-8.777019">
        <ele>92.942</ele>
        <time>2018-08-17T12:36:12Z</time>
      </trkpt>
      <trkpt lat="37.656332" lon="-8.779843">
        <ele>89.931</ele>
        <time>2018-08-17T12:37:18Z</time>
      </trkpt>
      <trkpt lat="37.655607" lon="-8.785147">
        <ele>82.861</ele>
        <time>2018-08-17T12:38:35Z</time>
      </trkpt>
      <trkpt lat="37.655428" lon="-8.788363">
        <ele>70.907</ele>
        <time>2018-08-17T12:39:13Z</time>
      </trkpt>
      <trkpt lat="37.655149" lon="-8.789015">
        <ele>73.408</ele>
        <time>2018-08-17T12:39:21Z</time>
      </trkpt>
      <trkpt lat="37.654284" lon="-8.789907">
        <ele>74.055</ele>
        <time>2018-08-17T12:39:40Z</time>
      </trkpt>
      <trkpt lat="37.653074" lon="-8.792502">
        <ele>83.830</ele>
        <time>2018-08-17T12:40:46Z</time>
      </trkpt>
      <trkpt lat="37.653040" lon="-8.792945">
        <ele>86.339</ele>
        <time>2018-08-17T12:41:07Z</time>
      </trkpt>
      <trkpt lat="37.652858" lon="-8.792965">
        <ele>87.640</ele>
        <time>2018-08-17T12:41:16Z</time>
      </trkpt>
      <trkpt lat="37.652643" lon="-8.793284">
        <ele>88.126</ele>
        <time>2018-08-17T12:43:00Z</time>
      </trkpt>
      <trkpt lat="37.652771" lon="-8.792786">
        <ele>85.218</ele>
        <time>2018-08-17T13:05:52Z</time>
      </trkpt>
      <trkpt lat="37.650930" lon="-8.792055">
        <ele>87.761</ele>
        <time>2018-08-17T13:06:41Z</time>
      </trkpt>
      <trkpt lat="37.646757" lon="-8.788849">
        <ele>96.852</ele>
        <time>2018-08-17T13:08:28Z</time>
      </trkpt>
      <trkpt lat="37.641456" lon="-8.786097">
        <ele>97.715</ele>
        <time>2018-08-17T13:10:20Z</time>
      </trkpt>
      <trkpt lat="37.638159" lon="-8.784140">
        <ele>102.265</ele>
        <time>2018-08-17T13:11:31Z</time>
      </trkpt>
      <trkpt lat="37.632540" lon="-8.784050">
        <ele>106.611</ele>
        <time>2018-08-17T13:13:22Z</time>
      </trkpt>
      <trkpt lat="37.629202" lon="-8.783460">
        <ele>111.408</ele>
        <time>2018-08-17T13:14:26Z</time>
      </trkpt>
      <trkpt lat="37.619732" lon="-8.782528">
        <ele>116.673</ele>
        <time>2018-08-17T13:17:29Z</time>
      </trkpt>
      <trkpt lat="37.615560" lon="-8.788631">
        <ele>113.388</ele>
        <time>2018-08-17T13:19:36Z</time>
      </trkpt>
      <trkpt lat="37.613226" lon="-8.791454">
        <ele>119.057</ele>
        <time>2018-08-17T13:20:38Z</time>
      </trkpt>
      <trkpt lat="37.608936" lon="-8.796225">
        <ele>120.578</ele>
        <time>2018-08-17T13:22:27Z</time>
      </trkpt>
      <trkpt lat="37.599664" lon="-8.805403">
        <ele>109.844</ele>
        <time>2018-08-17T13:25:39Z</time>
      </trkpt>
      <trkpt lat="37.599327" lon="-8.805599">
        <ele>109.416</ele>
        <time>2018-08-17T13:25:46Z</time>
      </trkpt>
      <trkpt lat="37.598725" lon="-8.805655">
        <ele>107.889</ele>
        <time>2018-08-17T13:26:27Z</time>
      </trkpt>
      <trkpt lat="37.597843" lon="-8.808452">
        <ele>99.310</ele>
        <time>2018-08-17T13:27:13Z</time>
      </trkpt>
      <trkpt lat="37.597835" lon="-8.808901">
        <ele>100.533</ele>
        <time>2018-08-17T13:27:19Z</time>
      </trkpt>
      <trkpt lat="37.598453" lon="-8.811348">
        <ele>103.823</ele>
        <time>2018-08-17T13:28:01Z</time>
      </trkpt>
      <trkpt lat="37.598567" lon="-8.813245">
        <ele>103.615</ele>
        <time>2018-08-17T13:28:33Z</time>
      </trkpt>
      <trkpt lat="37.598625" lon="-8.815220">
        <ele>99.408</ele>
        <time>2018-08-17T13:29:06Z</time>
      </trkpt>
      <trkpt lat="37.598536" lon="-8.815574">
        <ele>99.795</ele>
        <time>2018-08-17T13:29:23Z</time>
      </trkpt>
      <trkpt lat="37.598157" lon="-8.815692">
        <ele>104.360</ele>
        <time>2018-08-17T13:32:18Z</time>
      </trkpt>
      <trkpt lat="37.598064" lon="-8.815988">
        <ele>103.089</ele>
        <time>2018-08-17T13:32:26Z</time>
      </trkpt>
      <trkpt lat="37.598507" lon="-8.817395">
        <ele>103.750</ele>
        <time>2018-08-17T13:33:00Z</time>
      </trkpt>
      <trkpt lat="37.598588" lon="-8.818359">
        <ele>98.336</ele>
        <time>2018-08-17T13:33:35Z</time>
      </trkpt>
      <trkpt lat="37.598810" lon="-8.818535">
        <ele>98.638</ele>
        <time>2018-08-17T13:36:53Z</time>
      </trkpt>
      <trkpt lat="37.598730" lon="-8.818607">
        <ele>98.721</ele>
        <time>2018-08-17T13:38:06Z</time>
      </trkpt>
      <trkpt lat="37.598912" lon="-8.817590">
        <ele>99.182</ele>
        <time>2018-08-17T13:40:08Z</time>
      </trkpt>
      <trkpt lat="37.599427" lon="-8.817043">
        <ele>100.224</ele>
        <time>2018-08-17T13:40:27Z</time>
      </trkpt>
      <trkpt lat="37.599671" lon="-8.817031">
        <ele>100.204</ele>
        <time>2018-08-17T13:40:36Z</time>
      </trkpt>
      <trkpt lat="37.599851" lon="-8.817310">
        <ele>101.814</ele>
        <time>2018-08-17T13:42:07Z</time>
      </trkpt>
      <trkpt lat="37.600226" lon="-8.817436">
        <ele>100.008</ele>
        <time>2018-08-17T13:42:23Z</time>
      </trkpt>
      <trkpt lat="37.600988" lon="-8.817387">
        <ele>98.354</ele>
        <time>2018-08-17T13:44:19Z</time>
      </trkpt>
      <trkpt lat="37.601139" lon="-8.818055">
        <ele>101.569</ele>
        <time>2018-08-17T13:44:49Z</time>
      </trkpt>
      <trkpt lat="37.600979" lon="-8.817467">
        <ele>97.268</ele>
        <time>2018-08-17T13:47:49Z</time>
      </trkpt>
      <trkpt lat="37.600698" lon="-8.817150">
        <ele>97.519</ele>
        <time>2018-08-17T13:48:03Z</time>
      </trkpt>
      <trkpt lat="37.599212" lon="-8.816881">
        <ele>102.555</ele>
        <time>2018-08-17T13:48:56Z</time>
      </trkpt>
      <trkpt lat="37.598362" lon="-8.816919">
        <ele>106.067</ele>
        <time>2018-08-17T13:50:55Z</time>
      </trkpt>
      <trkpt lat="37.597991" lon="-8.815866">
        <ele>103.850</ele>
        <time>2018-08-17T13:51:21Z</time>
      </trkpt>
      <trkpt lat="37.597321" lon="-8.816378">
        <ele>103.081</ele>
        <time>2018-08-17T13:51:43Z</time>
      </trkpt>
      <trkpt lat="37.596705" lon="-8.816508">
        <ele>104.495</ele>
        <time>2018-08-17T13:52:03Z</time>
      </trkpt>
      <trkpt lat="37.596286" lon="-8.816221">
        <ele>102.449</ele>
        <time>2018-08-17T13:53:22Z</time>
      </trkpt>
      <trkpt lat="37.595195" lon="-8.816368">
        <ele>101.423</ele>
        <time>2018-08-17T13:53:48Z</time>
      </trkpt>
      <trkpt lat="37.593897" lon="-8.815937">
        <ele>100.008</ele>
        <time>2018-08-17T13:54:20Z</time>
      </trkpt>
      <trkpt lat="37.592657" lon="-8.815727">
        <ele>102.681</ele>
        <time>2018-08-17T13:54:56Z</time>
      </trkpt>
      <trkpt lat="37.592229" lon="-8.815987">
        <ele>101.326</ele>
        <time>2018-08-17T13:55:26Z</time>
      </trkpt>
      <trkpt lat="37.592392" lon="-8.815641">
        <ele>101.235</ele>
        <time>2018-08-17T13:55:51Z</time>
      </trkpt>
      <trkpt lat="37.591342" lon="-8.814989">
        <ele>101.796</ele>
        <time>2018-08-17T13:56:20Z</time>
      </trkpt>
      <trkpt lat="37.589853" lon="-8.813009">
        <ele>100.752</ele>
        <time>2018-08-17T13:57:49Z</time>
      </trkpt>
      <trkpt lat="37.588992" lon="-8.812583">
        <ele>100.894</ele>
        <time>2018-08-17T13:58:12Z</time>
      </trkpt>
      <trkpt lat="37.588113" lon="-8.812542">
        <ele>101.537</ele>
        <time>2018-08-17T13:58:32Z</time>
      </trkpt>
      <trkpt lat="37.586748" lon="-8.811064">
        <ele>104.868</ele>
        <time>2018-08-17T14:00:36Z</time>
      </trkpt>
      <trkpt lat="37.585925" lon="-8.810933">
        <ele>103.498</ele>
        <time>2018-08-17T14:01:22Z</time>
      </trkpt>
      <trkpt lat="37.584795" lon="-8.810359">
        <ele>102.215</ele>
        <time>2018-08-17T14:01:49Z</time>
      </trkpt>
      <trkpt lat="37.584461" lon="-8.810351">
        <ele>102.726</ele>
        <time>2018-08-17T14:01:57Z</time>
      </trkpt>
      <trkpt lat="37.584003" lon="-8.810652">
        <ele>100.208</ele>
        <time>2018-08-17T14:02:08Z</time>
      </trkpt>
      <trkpt lat="37.583609" lon="-8.811292">
        <ele>102.471</ele>
        <time>2018-08-17T14:02:30Z</time>
      </trkpt>
      <trkpt lat="37.583567" lon="-8.812234">
        <ele>99.626</ele>
        <time>2018-08-17T14:03:22Z</time>
      </trkpt>
      <trkpt lat="37.583437" lon="-8.812157">
        <ele>99.355</ele>
        <time>2018-08-17T14:04:40Z</time>
      </trkpt>
      <trkpt lat="37.582984" lon="-8.812420">
        <ele>96.466</ele>
        <time>2018-08-17T14:04:57Z</time>
      </trkpt>
      <trkpt lat="37.582567" lon="-8.812051">
        <ele>97.332</ele>
        <time>2018-08-17T14:05:17Z</time>
      </trkpt>
      <trkpt lat="37.582416" lon="-8.811262">
        <ele>96.984</ele>
        <time>2018-08-17T14:06:07Z</time>
      </trkpt>
      <trkpt lat="37.581937" lon="-8.811141">
        <ele>98.827</ele>
        <time>2018-08-17T14:06:18Z</time>
      </trkpt>
      <trkpt lat="37.581637" lon="-8.811353">
        <ele>98.758</ele>
        <time>2018-08-17T14:06:28Z</time>
      </trkpt>
      <trkpt lat="37.581169" lon="-8.811318">
        <ele>96.333</ele>
        <time>2018-08-17T14:06:39Z</time>
      </trkpt>
      <trkpt lat="37.581301" lon="-8.810679">
        <ele>97.123</ele>
        <time>2018-08-17T14:06:58Z</time>
      </trkpt>
      <trkpt lat="37.581230" lon="-8.810164">
        <ele>98.315</ele>
        <time>2018-08-17T14:07:12Z</time>
      </trkpt>
      <trkpt lat="37.580534" lon="-8.809474">
        <ele>98.908</ele>
        <time>2018-08-17T14:07:35Z</time>
      </trkpt>
      <trkpt lat="37.580131" lon="-8.808188">
        <ele>100.215</ele>
        <time>2018-08-17T14:08:15Z</time>
      </trkpt>
      <trkpt lat="37.579406" lon="-8.807680">
        <ele>97.730</ele>
        <time>2018-08-17T14:09:51Z</time>
      </trkpt>
      <trkpt lat="37.579571" lon="-8.807635">
        <ele>99.019</ele>
        <time>2018-08-17T14:10:59Z</time>
      </trkpt>
      <trkpt lat="37.579926" lon="-8.807963">
        <ele>100.060</ele>
        <time>2018-08-17T14:11:21Z</time>
      </trkpt>
      <trkpt lat="37.580117" lon="-8.807912">
        <ele>100.746</ele>
        <time>2018-08-17T14:11:29Z</time>
      </trkpt>
      <trkpt lat="37.580315" lon="-8.805565">
        <ele>103.688</ele>
        <time>2018-08-17T14:12:31Z</time>
      </trkpt>
      <trkpt lat="37.577348" lon="-8.803966">
        <ele>108.131</ele>
        <time>2018-08-17T14:13:51Z</time>
      </trkpt>
      <trkpt lat="37.574526" lon="-8.801799">
        <ele>104.212</ele>
        <time>2018-08-17T14:15:03Z</time>
      </trkpt>
      <trkpt lat="37.573680" lon="-8.801540">
        <ele>104.567</ele>
        <time>2018-08-17T14:15:21Z</time>
      </trkpt>
      <trkpt lat="37.572834" lon="-8.801532">
        <ele>104.581</ele>
        <time>2018-08-17T14:15:38Z</time>
      </trkpt>
      <trkpt lat="37.571814" lon="-8.800848">
        <ele>100.719</ele>
        <time>2018-08-17T14:16:03Z</time>
      </trkpt>
      <trkpt lat="37.571362" lon="-8.800847">
        <ele>101.908</ele>
        <time>2018-08-17T14:16:23Z</time>
      </trkpt>
      <trkpt lat="37.570585" lon="-8.799875">
        <ele>103.048</ele>
        <time>2018-08-17T14:17:00Z</time>
      </trkpt>
      <trkpt lat="37.569073" lon="-8.799145">
        <ele>107.373</ele>
        <time>2018-08-17T14:17:50Z</time>
      </trkpt>
      <trkpt lat="37.568050" lon="-8.797990">
        <ele>108.032</ele>
        <time>2018-08-17T14:18:26Z</time>
      </trkpt>
      <trkpt lat="37.567631" lon="-8.797032">
        <ele>106.023</ele>
        <time>2018-08-17T14:18:50Z</time>
      </trkpt>
      <trkpt lat="37.567094" lon="-8.796426">
        <ele>108.879</ele>
        <time>2018-08-17T14:19:27Z</time>
      </trkpt>
      <trkpt lat="37.567321" lon="-8.796387">
        <ele>111.191</ele>
        <time>2018-08-17T14:19:43Z</time>
      </trkpt>
      <trkpt lat="37.567834" lon="-8.795167">
        <ele>113.434</ele>
        <time>2018-08-17T14:20:13Z</time>
      </trkpt>
      <trkpt lat="37.567755" lon="-8.792541">
        <ele>118.175</ele>
        <time>2018-08-17T14:21:32Z</time>
      </trkpt>
      <trkpt lat="37.568563" lon="-8.790241">
        <ele>121.927</ele>
        <time>2018-08-17T14:22:32Z</time>
      </trkpt>
      <trkpt lat="37.569556" lon="-8.789094">
        <ele>122.368</ele>
        <time>2018-08-17T14:23:01Z</time>
      </trkpt>
      <trkpt lat="37.570718" lon="-8.787305">
        <ele>122.514</ele>
        <time>2018-08-17T14:23:47Z</time>
      </trkpt>
      <trkpt lat="37.571976" lon="-8.788505">
        <ele>118.708</ele>
        <time>2018-08-17T14:24:27Z</time>
      </trkpt>
      <trkpt lat="37.572913" lon="-8.788101">
        <ele>118.614</ele>
        <time>2018-08-17T14:24:53Z</time>
      </trkpt>
      <trkpt lat="37.572964" lon="-8.782335">
        <ele>120.719</ele>
        <time>2018-08-17T14:26:36Z</time>
      </trkpt>
      <trkpt lat="37.573277" lon="-8.778718">
        <ele>120.128</ele>
        <time>2018-08-17T14:27:40Z</time>
      </trkpt>
      <trkpt lat="37.563243" lon="-8.777130">
        <ele>122.699</ele>
        <time>2018-08-17T14:31:24Z</time>
      </trkpt>
      <trkpt lat="37.557505" lon="-8.779499">
        <ele>107.915</ele>
        <time>2018-08-17T14:32:56Z</time>
      </trkpt>
      <trkpt lat="37.557066" lon="-8.779992">
        <ele>103.857</ele>
        <time>2018-08-17T14:33:04Z</time>
      </trkpt>
      <trkpt lat="37.552243" lon="-8.788408">
        <ele>99.340</ele>
        <time>2018-08-17T14:35:10Z</time>
      </trkpt>
      <trkpt lat="37.549486" lon="-8.791502">
        <ele>94.251</ele>
        <time>2018-08-17T14:36:20Z</time>
      </trkpt>
      <trkpt lat="37.549836" lon="-8.791969">
        <ele>90.198</ele>
        <time>2018-08-17T14:36:43Z</time>
      </trkpt>
      <trkpt lat="37.550217" lon="-8.792058">
        <ele>90.815</ele>
        <time>2018-08-17T14:37:52Z</time>
      </trkpt>
      <trkpt lat="37.550390" lon="-8.792588">
        <ele>87.026</ele>
        <time>2018-08-17T14:40:30Z</time>
      </trkpt>
      <trkpt lat="37.550658" lon="-8.792849">
        <ele>84.308</ele>
        <time>2018-08-17T14:42:15Z</time>
      </trkpt>
      <trkpt lat="37.550191" lon="-8.792195">
        <ele>88.721</ele>
        <time>2018-08-17T14:43:40Z</time>
      </trkpt>
      <trkpt lat="37.549607" lon="-8.792012">
        <ele>90.326</ele>
        <time>2018-08-17T14:44:11Z</time>
      </trkpt>
      <trkpt lat="37.549703" lon="-8.791921">
        <ele>92.435</ele>
        <time>2018-08-17T14:45:25Z</time>
      </trkpt>
      <trkpt lat="37.549612" lon="-8.791733">
        <ele>93.356</ele>
        <time>2018-08-17T14:45:33Z</time>
      </trkpt>
      <trkpt lat="37.548138" lon="-8.790043">
        <ele>95.672</ele>
        <time>2018-08-17T14:46:21Z</time>
      </trkpt>
      <trkpt lat="37.535889" lon="-8.784742">
        <ele>102.094</ele>
        <time>2018-08-17T14:50:26Z</time>
      </trkpt>
      <trkpt lat="37.532918" lon="-8.784403">
        <ele>104.487</ele>
        <time>2018-08-17T14:51:24Z</time>
      </trkpt>
      <trkpt lat="37.527575" lon="-8.784292">
        <ele>97.518</ele>
        <time>2018-08-17T14:53:48Z</time>
      </trkpt>
      <trkpt lat="37.524583" lon="-8.783843">
        <ele>96.374</ele>
        <time>2018-08-17T14:54:58Z</time>
      </trkpt>
      <trkpt lat="37.524485" lon="-8.783626">
        <ele>95.556</ele>
        <time>2018-08-17T14:55:03Z</time>
      </trkpt>
      <trkpt lat="37.525416" lon="-8.777971">
        <ele>99.921</ele>
        <time>2018-08-17T14:56:45Z</time>
      </trkpt>
      <trkpt lat="37.525360" lon="-8.777646">
        <ele>99.908</ele>
        <time>2018-08-17T14:56:53Z</time>
      </trkpt>
      <trkpt lat="37.525414" lon="-8.777852">
        <ele>99.619</ele>
        <time>2018-08-17T14:57:03Z</time>
      </trkpt>
      <trkpt lat="37.525817" lon="-8.775534">
        <ele>104.584</ele>
        <time>2018-08-17T14:57:54Z</time>
      </trkpt>
      <trkpt lat="37.525069" lon="-8.775808">
        <ele>97.473</ele>
        <time>2018-08-17T15:06:15Z</time>
      </trkpt>
      <trkpt lat="37.525030" lon="-8.776245">
        <ele>97.924</ele>
        <time>2018-08-17T15:06:41Z</time>
      </trkpt>
      <trkpt lat="37.524900" lon="-8.775889">
        <ele>100.380</ele>
        <time>2018-08-17T15:07:08Z</time>
      </trkpt>
      <trkpt lat="37.524390" lon="-8.776114">
        <ele>98.012</ele>
        <time>2018-08-17T15:07:47Z</time>
      </trkpt>
      <trkpt lat="37.524493" lon="-8.776602">
        <ele>97.385</ele>
        <time>2018-08-17T15:08:40Z</time>
      </trkpt>
      <trkpt lat="37.524908" lon="-8.776468">
        <ele>99.436</ele>
        <time>2018-08-17T15:09:39Z</time>
      </trkpt>
      <trkpt lat="37.524004" lon="-8.776618">
        <ele>95.818</ele>
        <time>2018-08-17T15:11:22Z</time>
      </trkpt>
      <trkpt lat="37.524267" lon="-8.776432">
        <ele>95.798</ele>
        <time>2018-08-17T15:21:06Z</time>
      </trkpt>
      <trkpt lat="37.524208" lon="-8.776529">
        <ele>118.165</ele>
        <time>2018-08-18T08:30:52Z</time>
      </trkpt>
      <trkpt lat="37.525662" lon="-8.775511">
        <ele>118.168</ele>
        <time>2018-08-18T09:01:11Z</time>
      </trkpt>
      <trkpt lat="37.525755" lon="-8.775565">
        <ele>118.114</ele>
        <time>2018-08-18T09:01:32Z</time>
      </trkpt>
      <trkpt lat="37.524404" lon="-8.784116">
        <ele>102.908</ele>
        <time>2018-08-18T09:04:00Z</time>
      </trkpt>
      <trkpt lat="37.524487" lon="-8.783869">
        <ele>99.488</ele>
        <time>2018-08-18T09:04:09Z</time>
      </trkpt>
      <trkpt lat="37.524667" lon="-8.783818">
        <ele>99.463</ele>
        <time>2018-08-18T09:04:16Z</time>
      </trkpt>
      <trkpt lat="37.525795" lon="-8.783981">
        <ele>100.083</ele>
        <time>2018-08-18T09:04:54Z</time>
      </trkpt>
      <trkpt lat="37.525981" lon="-8.784168">
        <ele>100.156</ele>
        <time>2018-08-18T09:05:09Z</time>
      </trkpt>
      <trkpt lat="37.525926" lon="-8.784262">
        <ele>88.742</ele>
        <time>2018-08-18T09:45:23Z</time>
      </trkpt>
      <trkpt lat="37.525824" lon="-8.784020">
        <ele>101.890</ele>
        <time>2018-08-18T09:46:10Z</time>
      </trkpt>
      <trkpt lat="37.525466" lon="-8.784072">
        <ele>100.669</ele>
        <time>2018-08-18T09:46:23Z</time>
      </trkpt>
      <trkpt lat="37.525221" lon="-8.786640">
        <ele>95.232</ele>
        <time>2018-08-18T09:47:04Z</time>
      </trkpt>
      <trkpt lat="37.524802" lon="-8.786625">
        <ele>95.021</ele>
        <time>2018-08-18T09:47:21Z</time>
      </trkpt>
      <trkpt lat="37.524515" lon="-8.787082">
        <ele>94.041</ele>
        <time>2018-08-18T09:47:32Z</time>
      </trkpt>
      <trkpt lat="37.524498" lon="-8.786797">
        <ele>94.905</ele>
        <time>2018-08-18T09:48:52Z</time>
      </trkpt>
      <trkpt lat="37.524158" lon="-8.786356">
        <ele>93.408</ele>
        <time>2018-08-18T09:49:09Z</time>
      </trkpt>
      <trkpt lat="37.523389" lon="-8.786435">
        <ele>91.474</ele>
        <time>2018-08-18T09:49:24Z</time>
      </trkpt>
      <trkpt lat="37.522791" lon="-8.786028">
        <ele>74.439</ele>
        <time>2018-08-18T09:49:49Z</time>
      </trkpt>
      <trkpt lat="37.522668" lon="-8.785618">
        <ele>66.749</ele>
        <time>2018-08-18T09:49:57Z</time>
      </trkpt>
      <trkpt lat="37.521801" lon="-8.786310">
        <ele>67.752</ele>
        <time>2018-08-18T09:50:25Z</time>
      </trkpt>
      <trkpt lat="37.520955" lon="-8.785945">
        <ele>81.478</ele>
        <time>2018-08-18T09:52:03Z</time>
      </trkpt>
      <trkpt lat="37.520701" lon="-8.785502">
        <ele>91.996</ele>
        <time>2018-08-18T09:52:54Z</time>
      </trkpt>
      <trkpt lat="37.520334" lon="-8.785211">
        <ele>97.945</ele>
        <time>2018-08-18T09:53:43Z</time>
      </trkpt>
      <trkpt lat="37.520208" lon="-8.785401">
        <ele>100.928</ele>
        <time>2018-08-18T09:54:04Z</time>
      </trkpt>
      <trkpt lat="37.520252" lon="-8.785963">
        <ele>99.481</ele>
        <time>2018-08-18T09:54:24Z</time>
      </trkpt>
      <trkpt lat="37.520673" lon="-8.787374">
        <ele>98.061</ele>
        <time>2018-08-18T09:55:01Z</time>
      </trkpt>
      <trkpt lat="37.520328" lon="-8.786556">
        <ele>97.317</ele>
        <time>2018-08-18T09:56:48Z</time>
      </trkpt>
      <trkpt lat="37.520210" lon="-8.785107">
        <ele>101.908</ele>
        <time>2018-08-18T09:57:25Z</time>
      </trkpt>
      <trkpt lat="37.519346" lon="-8.784695">
        <ele>107.210</ele>
        <time>2018-08-18T09:58:06Z</time>
      </trkpt>
      <trkpt lat="37.517334" lon="-8.782897">
        <ele>109.095</ele>
        <time>2018-08-18T09:59:30Z</time>
      </trkpt>
      <trkpt lat="37.515105" lon="-8.783047">
        <ele>113.935</ele>
        <time>2018-08-18T10:02:08Z</time>
      </trkpt>
      <trkpt lat="37.513392" lon="-8.783742">
        <ele>117.568</ele>
        <time>2018-08-18T10:02:54Z</time>
      </trkpt>
      <trkpt lat="37.511438" lon="-8.784004">
        <ele>117.344</ele>
        <time>2018-08-18T10:03:44Z</time>
      </trkpt>
      <trkpt lat="37.508750" lon="-8.784790">
        <ele>122.142</ele>
        <time>2018-08-18T10:04:57Z</time>
      </trkpt>
      <trkpt lat="37.508370" lon="-8.784656">
        <ele>121.541</ele>
        <time>2018-08-18T10:05:07Z</time>
      </trkpt>
      <trkpt lat="37.507290" lon="-8.783247">
        <ele>123.114</ele>
        <time>2018-08-18T10:05:44Z</time>
      </trkpt>
      <trkpt lat="37.505250" lon="-8.782591">
        <ele>119.359</ele>
        <time>2018-08-18T10:06:28Z</time>
      </trkpt>
      <trkpt lat="37.501548" lon="-8.784076">
        <ele>120.503</ele>
        <time>2018-08-18T10:07:51Z</time>
      </trkpt>
      <trkpt lat="37.501555" lon="-8.784502">
        <ele>119.523</ele>
        <time>2018-08-18T10:07:58Z</time>
      </trkpt>
      <trkpt lat="37.502305" lon="-8.786793">
        <ele>113.208</ele>
        <time>2018-08-18T10:08:58Z</time>
      </trkpt>
      <trkpt lat="37.502330" lon="-8.788142">
        <ele>109.257</ele>
        <time>2018-08-18T10:09:23Z</time>
      </trkpt>
      <trkpt lat="37.501028" lon="-8.789148">
        <ele>88.382</ele>
        <time>2018-08-18T10:10:05Z</time>
      </trkpt>
      <trkpt lat="37.500379" lon="-8.790162">
        <ele>74.752</ele>
        <time>2018-08-18T10:10:22Z</time>
      </trkpt>
      <trkpt lat="37.499889" lon="-8.789756">
        <ele>70.235</ele>
        <time>2018-08-18T10:10:35Z</time>
      </trkpt>
      <trkpt lat="37.499457" lon="-8.790217">
        <ele>69.211</ele>
        <time>2018-08-18T10:10:52Z</time>
      </trkpt>
      <trkpt lat="37.498818" lon="-8.790312">
        <ele>77.449</ele>
        <time>2018-08-18T10:11:44Z</time>
      </trkpt>
      <trkpt lat="37.498417" lon="-8.790811">
        <ele>10.788</ele>
        <time>2018-08-18T10:14:33Z</time>
      </trkpt>
      <trkpt lat="37.498148" lon="-8.790922">
        <ele>16.541</ele>
        <time>2018-08-18T10:15:06Z</time>
      </trkpt>
      <trkpt lat="37.496040" lon="-8.789173">
        <ele>33.654</ele>
        <time>2018-08-18T10:24:41Z</time>
      </trkpt>
      <trkpt lat="37.495454" lon="-8.788160">
        <ele>36.656</ele>
        <time>2018-08-18T10:25:13Z</time>
      </trkpt>
      <trkpt lat="37.494289" lon="-8.784873">
        <ele>42.511</ele>
        <time>2018-08-18T10:26:43Z</time>
      </trkpt>
      <trkpt lat="37.490922" lon="-8.781121">
        <ele>53.608</ele>
        <time>2018-08-18T10:28:37Z</time>
      </trkpt>
      <trkpt lat="37.490635" lon="-8.780217">
        <ele>52.767</ele>
        <time>2018-08-18T10:28:58Z</time>
      </trkpt>
      <trkpt lat="37.490455" lon="-8.778512">
        <ele>52.322</ele>
        <time>2018-08-18T10:29:25Z</time>
      </trkpt>
      <trkpt lat="37.489248" lon="-8.776336">
        <ele>51.652</ele>
        <time>2018-08-18T10:30:07Z</time>
      </trkpt>
      <trkpt lat="37.483418" lon="-8.769736">
        <ele>65.685</ele>
        <time>2018-08-18T10:33:14Z</time>
      </trkpt>
      <trkpt lat="37.481687" lon="-8.768100">
        <ele>73.631</ele>
        <time>2018-08-18T10:34:10Z</time>
      </trkpt>
      <trkpt lat="37.481178" lon="-8.767885">
        <ele>76.279</ele>
        <time>2018-08-18T10:34:29Z</time>
      </trkpt>
      <trkpt lat="37.480166" lon="-8.773930">
        <ele>66.468</ele>
        <time>2018-08-18T10:36:32Z</time>
      </trkpt>
      <trkpt lat="37.479475" lon="-8.775716">
        <ele>61.131</ele>
        <time>2018-08-18T10:36:59Z</time>
      </trkpt>
      <trkpt lat="37.478293" lon="-8.784372">
        <ele>51.728</ele>
        <time>2018-08-18T10:38:53Z</time>
      </trkpt>
      <trkpt lat="37.478007" lon="-8.785403">
        <ele>51.589</ele>
        <time>2018-08-18T10:39:10Z</time>
      </trkpt>
      <trkpt lat="37.477254" lon="-8.786306">
        <ele>47.817</ele>
        <time>2018-08-18T10:39:30Z</time>
      </trkpt>
      <trkpt lat="37.472268" lon="-8.788701">
        <ele>52.908</ele>
        <time>2018-08-18T10:41:40Z</time>
      </trkpt>
      <trkpt lat="37.465815" lon="-8.789256">
        <ele>49.574</ele>
        <time>2018-08-18T10:43:32Z</time>
      </trkpt>
      <trkpt lat="37.465464" lon="-8.789393">
        <ele>48.759</ele>
        <time>2018-08-18T10:43:38Z</time>
      </trkpt>
      <trkpt lat="37.465215" lon="-8.789886">
        <ele>47.919</ele>
        <time>2018-08-18T10:43:45Z</time>
      </trkpt>
      <trkpt lat="37.464704" lon="-8.796143">
        <ele>34.412</ele>
        <time>2018-08-18T10:45:19Z</time>
      </trkpt>
      <trkpt lat="37.464607" lon="-8.796167">
        <ele>36.188</ele>
        <time>2018-08-18T10:45:29Z</time>
      </trkpt>
      <trkpt lat="37.464084" lon="-8.795500">
        <ele>34.516</ele>
        <time>2018-08-18T10:46:02Z</time>
      </trkpt>
      <trkpt lat="37.464673" lon="-8.796167">
        <ele>38.365</ele>
        <time>2018-08-18T10:48:31Z</time>
      </trkpt>
      <trkpt lat="37.465237" lon="-8.789556">
        <ele>51.518</ele>
        <time>2018-08-18T10:52:14Z</time>
      </trkpt>
      <trkpt lat="37.465124" lon="-8.789351">
        <ele>52.313</ele>
        <time>2018-08-18T10:52:22Z</time>
      </trkpt>
      <trkpt lat="37.464793" lon="-8.789263">
        <ele>50.243</ele>
        <time>2018-08-18T10:52:33Z</time>
      </trkpt>
      <trkpt lat="37.468656" lon="-8.789002">
        <ele>53.407</ele>
        <time>2018-08-18T10:56:57Z</time>
      </trkpt>
      <trkpt lat="37.469513" lon="-8.788909">
        <ele>51.908</ele>
        <time>2018-08-18T10:57:17Z</time>
      </trkpt>
      <trkpt lat="37.469620" lon="-8.788783">
        <ele>51.483</ele>
        <time>2018-08-18T10:57:21Z</time>
      </trkpt>
      <trkpt lat="37.467825" lon="-8.785231">
        <ele>51.748</ele>
        <time>2018-08-18T10:58:32Z</time>
      </trkpt>
      <trkpt lat="37.464958" lon="-8.782910">
        <ele>53.598</ele>
        <time>2018-08-18T11:00:01Z</time>
      </trkpt>
      <trkpt lat="37.464162" lon="-8.780822">
        <ele>58.781</ele>
        <time>2018-08-18T11:00:44Z</time>
      </trkpt>
      <trkpt lat="37.462904" lon="-8.778320">
        <ele>62.697</ele>
        <time>2018-08-18T11:01:39Z</time>
      </trkpt>
      <trkpt lat="37.458894" lon="-8.778032">
        <ele>60.365</ele>
        <time>2018-08-18T11:05:00Z</time>
      </trkpt>
      <trkpt lat="37.456690" lon="-8.776073">
        <ele>63.754</ele>
        <time>2018-08-18T11:06:42Z</time>
      </trkpt>
      <trkpt lat="37.455056" lon="-8.775619">
        <ele>58.817</ele>
        <time>2018-08-18T11:07:16Z</time>
      </trkpt>
      <trkpt lat="37.453522" lon="-8.773893">
        <ele>59.885</ele>
        <time>2018-08-18T11:07:57Z</time>
      </trkpt>
      <trkpt lat="37.453341" lon="-8.773840">
        <ele>62.089</ele>
        <time>2018-08-18T11:08:01Z</time>
      </trkpt>
      <trkpt lat="37.450749" lon="-8.777481">
        <ele>61.117</ele>
        <time>2018-08-18T11:09:26Z</time>
      </trkpt>
      <trkpt lat="37.447784" lon="-8.782083">
        <ele>51.208</ele>
        <time>2018-08-18T11:11:05Z</time>
      </trkpt>
      <trkpt lat="37.447302" lon="-8.782515">
        <ele>52.070</ele>
        <time>2018-08-18T11:11:16Z</time>
      </trkpt>
      <trkpt lat="37.445661" lon="-8.784834">
        <ele>51.775</ele>
        <time>2018-08-18T11:12:02Z</time>
      </trkpt>
      <trkpt lat="37.445232" lon="-8.784948">
        <ele>51.645</ele>
        <time>2018-08-18T11:12:11Z</time>
      </trkpt>
      <trkpt lat="37.444285" lon="-8.783711">
        <ele>54.758</ele>
        <time>2018-08-18T11:12:47Z</time>
      </trkpt>
      <trkpt lat="37.444776" lon="-8.782860">
        <ele>57.954</ele>
        <time>2018-08-18T11:13:49Z</time>
      </trkpt>
      <trkpt lat="37.444882" lon="-8.782198">
        <ele>58.712</ele>
        <time>2018-08-18T11:14:02Z</time>
      </trkpt>
      <trkpt lat="37.444821" lon="-8.781271">
        <ele>55.291</ele>
        <time>2018-08-18T11:14:27Z</time>
      </trkpt>
      <trkpt lat="37.444620" lon="-8.780807">
        <ele>54.614</ele>
        <time>2018-08-18T11:14:48Z</time>
      </trkpt>
      <trkpt lat="37.441473" lon="-8.778500">
        <ele>57.471</ele>
        <time>2018-08-18T11:19:03Z</time>
      </trkpt>
      <trkpt lat="37.440956" lon="-8.778293">
        <ele>56.241</ele>
        <time>2018-08-18T11:19:19Z</time>
      </trkpt>
      <trkpt lat="37.439722" lon="-8.778170">
        <ele>50.115</ele>
        <time>2018-08-18T11:19:45Z</time>
      </trkpt>
      <trkpt lat="37.439103" lon="-8.777453">
        <ele>42.908</ele>
        <time>2018-08-18T11:20:53Z</time>
      </trkpt>
      <trkpt lat="37.438302" lon="-8.777270">
        <ele>37.149</ele>
        <time>2018-08-18T11:21:08Z</time>
      </trkpt>
      <trkpt lat="37.437410" lon="-8.777312">
        <ele>23.994</ele>
        <time>2018-08-18T11:21:28Z</time>
      </trkpt>
      <trkpt lat="37.437110" lon="-8.777013">
        <ele>16.624</ele>
        <time>2018-08-18T11:22:01Z</time>
      </trkpt>
      <trkpt lat="37.436980" lon="-8.775544">
        <ele>3.577</ele>
        <time>2018-08-18T11:22:59Z</time>
      </trkpt>
      <trkpt lat="37.437382" lon="-8.775062">
        <ele>4.713</ele>
        <time>2018-08-18T11:23:12Z</time>
      </trkpt>
      <trkpt lat="37.437401" lon="-8.774333">
        <ele>0.221</ele>
        <time>2018-08-18T11:23:21Z</time>
      </trkpt>
      <trkpt lat="37.437843" lon="-8.774047">
        <ele>-0.570</ele>
        <time>2018-08-18T11:23:28Z</time>
      </trkpt>
      <trkpt lat="37.437939" lon="-8.773830">
        <ele>-0.173</ele>
        <time>2018-08-18T11:23:31Z</time>
      </trkpt>
      <trkpt lat="37.437663" lon="-8.772709">
        <ele>-6.494</ele>
        <time>2018-08-18T11:23:42Z</time>
      </trkpt>
      <trkpt lat="37.437116" lon="-8.772188">
        <ele>-11.857</ele>
        <time>2018-08-18T11:23:54Z</time>
      </trkpt>
      <trkpt lat="37.437161" lon="-8.771285">
        <ele>-13.722</ele>
        <time>2018-08-18T11:24:49Z</time>
      </trkpt>
      <trkpt lat="37.436734" lon="-8.770097">
        <ele>-13.308</ele>
        <time>2018-08-18T11:25:08Z</time>
      </trkpt>
      <trkpt lat="37.436661" lon="-8.768058">
        <ele>-9.061</ele>
        <time>2018-08-18T11:25:36Z</time>
      </trkpt>
      <trkpt lat="37.436329" lon="-8.767299">
        <ele>-12.476</ele>
        <time>2018-08-18T11:25:50Z</time>
      </trkpt>
      <trkpt lat="37.436077" lon="-8.765462">
        <ele>-11.066</ele>
        <time>2018-08-18T11:26:25Z</time>
      </trkpt>
      <trkpt lat="37.435790" lon="-8.764905">
        <ele>-12.259</ele>
        <time>2018-08-18T11:26:38Z</time>
      </trkpt>
      <trkpt lat="37.435294" lon="-8.764690">
        <ele>-14.145</ele>
        <time>2018-08-18T11:26:53Z</time>
      </trkpt>
      <trkpt lat="37.433613" lon="-8.766484">
        <ele>-8.923</ele>
        <time>2018-08-18T11:27:41Z</time>
      </trkpt>
      <trkpt lat="37.434129" lon="-8.767774">
        <ele>-9.892</ele>
        <time>2018-08-18T11:28:37Z</time>
      </trkpt>
      <trkpt lat="37.434166" lon="-8.769133">
        <ele>-7.885</ele>
        <time>2018-08-18T11:29:02Z</time>
      </trkpt>
      <trkpt lat="37.434376" lon="-8.769629">
        <ele>-9.336</ele>
        <time>2018-08-18T11:29:10Z</time>
      </trkpt>
      <trkpt lat="37.434235" lon="-8.771732">
        <ele>-9.917</ele>
        <time>2018-08-18T11:29:47Z</time>
      </trkpt>
      <trkpt lat="37.433351" lon="-8.772790">
        <ele>-13.118</ele>
        <time>2018-08-18T11:30:14Z</time>
      </trkpt>
      <trkpt lat="37.432653" lon="-8.774134">
        <ele>-14.608</ele>
        <time>2018-08-18T11:30:45Z</time>
      </trkpt>
      <trkpt lat="37.431713" lon="-8.774585">
        <ele>-15.065</ele>
        <time>2018-08-18T11:31:09Z</time>
      </trkpt>
      <trkpt lat="37.431451" lon="-8.774874">
        <ele>-15.090</ele>
        <time>2018-08-18T11:31:16Z</time>
      </trkpt>
      <trkpt lat="37.430909" lon="-8.776273">
        <ele>-14.770</ele>
        <time>2018-08-18T11:31:40Z</time>
      </trkpt>
      <trkpt lat="37.430828" lon="-8.776867">
        <ele>-17.083</ele>
        <time>2018-08-18T11:31:49Z</time>
      </trkpt>
      <trkpt lat="37.431257" lon="-8.778695">
        <ele>-11.349</ele>
        <time>2018-08-18T11:32:19Z</time>
      </trkpt>
      <trkpt lat="37.431813" lon="-8.779674">
        <ele>-10.747</ele>
        <time>2018-08-18T11:32:39Z</time>
      </trkpt>
      <trkpt lat="37.432576" lon="-8.781837">
        <ele>-7.766</ele>
        <time>2018-08-18T11:33:19Z</time>
      </trkpt>
      <trkpt lat="37.432568" lon="-8.782891">
        <ele>-7.569</ele>
        <time>2018-08-18T11:33:37Z</time>
      </trkpt>
      <trkpt lat="37.432897" lon="-8.783973">
        <ele>-8.094</ele>
        <time>2018-08-18T11:33:56Z</time>
      </trkpt>
      <trkpt lat="37.433506" lon="-8.784872">
        <ele>-9.357</ele>
        <time>2018-08-18T11:34:13Z</time>
      </trkpt>
      <trkpt lat="37.434768" lon="-8.785438">
        <ele>-11.022</ele>
        <time>2018-08-18T11:34:39Z</time>
      </trkpt>
      <trkpt lat="37.434643" lon="-8.785834">
        <ele>-10.708</ele>
        <time>2018-08-18T11:34:46Z</time>
      </trkpt>
      <trkpt lat="37.433610" lon="-8.786539">
        <ele>-16.891</ele>
        <time>2018-08-18T11:35:09Z</time>
      </trkpt>
      <trkpt lat="37.433521" lon="-8.786917">
        <ele>-16.046</ele>
        <time>2018-08-18T11:35:15Z</time>
      </trkpt>
      <trkpt lat="37.433927" lon="-8.788933">
        <ele>-9.556</ele>
        <time>2018-08-18T11:35:51Z</time>
      </trkpt>
      <trkpt lat="37.434675" lon="-8.789537">
        <ele>-6.249</ele>
        <time>2018-08-18T11:36:26Z</time>
      </trkpt>
      <trkpt lat="37.435059" lon="-8.790177">
        <ele>-3.285</ele>
        <time>2018-08-18T11:36:54Z</time>
      </trkpt>
      <trkpt lat="37.435137" lon="-8.790676">
        <ele>-0.573</ele>
        <time>2018-08-18T11:37:16Z</time>
      </trkpt>
      <trkpt lat="37.434977" lon="-8.791665">
        <ele>0.992</ele>
        <time>2018-08-18T11:39:38Z</time>
      </trkpt>
      <trkpt lat="37.435121" lon="-8.792334">
        <ele>4.565</ele>
        <time>2018-08-18T11:40:00Z</time>
      </trkpt>
      <trkpt lat="37.435014" lon="-8.793043">
        <ele>5.216</ele>
        <time>2018-08-18T11:40:24Z</time>
      </trkpt>
      <trkpt lat="37.435677" lon="-8.793520">
        <ele>8.276</ele>
        <time>2018-08-18T11:40:54Z</time>
      </trkpt>
      <trkpt lat="37.436459" lon="-8.794503">
        <ele>9.613</ele>
        <time>2018-08-18T11:41:36Z</time>
      </trkpt>
      <trkpt lat="37.437321" lon="-8.794954">
        <ele>17.508</ele>
        <time>2018-08-18T11:42:15Z</time>
      </trkpt>
      <trkpt lat="37.438679" lon="-8.796416">
        <ele>30.883</ele>
        <time>2018-08-18T11:43:34Z</time>
      </trkpt>
      <trkpt lat="37.439473" lon="-8.796825">
        <ele>29.898</ele>
        <time>2018-08-18T11:43:53Z</time>
      </trkpt>
      <trkpt lat="37.439916" lon="-8.797389">
        <ele>21.438</ele>
        <time>2018-08-18T11:44:12Z</time>
      </trkpt>
      <trkpt lat="37.440490" lon="-8.797626">
        <ele>13.261</ele>
        <time>2018-08-18T11:44:27Z</time>
      </trkpt>
      <trkpt lat="37.440677" lon="-8.797996">
        <ele>11.637</ele>
        <time>2018-08-18T11:44:36Z</time>
      </trkpt>
      <trkpt lat="37.440659" lon="-8.798389">
        <ele>10.815</ele>
        <time>2018-08-18T11:44:50Z</time>
      </trkpt>
      <trkpt lat="37.440768" lon="-8.798206">
        <ele>9.984</ele>
        <time>2018-08-18T11:51:29Z</time>
      </trkpt>
      <trkpt lat="37.440419" lon="-8.798924">
        <ele>84.067</ele>
        <time>2018-08-18T12:02:15Z</time>
      </trkpt>
      <trkpt lat="37.440118" lon="-8.799180">
        <ele>87.072</ele>
        <time>2018-08-18T12:02:29Z</time>
      </trkpt>
      <trkpt lat="37.439047" lon="-8.798978">
        <ele>92.513</ele>
        <time>2018-08-18T12:03:36Z</time>
      </trkpt>
      <trkpt lat="37.438973" lon="-8.799514">
        <ele>100.914</ele>
        <time>2018-08-18T12:04:03Z</time>
      </trkpt>
      <trkpt lat="37.439074" lon="-8.799799">
        <ele>101.008</ele>
        <time>2018-08-18T12:04:22Z</time>
      </trkpt>
      <trkpt lat="37.438450" lon="-8.799490">
        <ele>105.849</ele>
        <time>2018-08-18T12:06:01Z</time>
      </trkpt>
      <trkpt lat="37.437927" lon="-8.798807">
        <ele>107.914</ele>
        <time>2018-08-18T12:06:39Z</time>
      </trkpt>
      <trkpt lat="37.437415" lon="-8.799114">
        <ele>108.884</ele>
        <time>2018-08-18T12:07:00Z</time>
      </trkpt>
      <trkpt lat="37.436994" lon="-8.800831">
        <ele>103.597</ele>
        <time>2018-08-18T12:07:37Z</time>
      </trkpt>
      <trkpt lat="37.437056" lon="-8.801978">
        <ele>107.613</ele>
        <time>2018-08-18T12:09:19Z</time>
      </trkpt>
      <trkpt lat="37.437168" lon="-8.802035">
        <ele>108.121</ele>
        <time>2018-08-18T12:09:47Z</time>
      </trkpt>
      <trkpt lat="37.437052" lon="-8.801899">
        <ele>105.510</ele>
        <time>2018-08-18T12:10:45Z</time>
      </trkpt>
      <trkpt lat="37.436985" lon="-8.800868">
        <ele>105.283</ele>
        <time>2018-08-18T12:11:20Z</time>
      </trkpt>
      <trkpt lat="37.437273" lon="-8.799411">
        <ele>105.224</ele>
        <time>2018-08-18T12:11:46Z</time>
      </trkpt>
      <trkpt lat="37.437439" lon="-8.799054">
        <ele>106.204</ele>
        <time>2018-08-18T12:11:54Z</time>
      </trkpt>
      <trkpt lat="37.437914" lon="-8.798682">
        <ele>107.614</ele>
        <time>2018-08-18T12:12:09Z</time>
      </trkpt>
      <trkpt lat="37.438182" lon="-8.797757">
        <ele>108.708</ele>
        <time>2018-08-18T12:12:30Z</time>
      </trkpt>
      <trkpt lat="37.437922" lon="-8.796110">
        <ele>110.244</ele>
        <time>2018-08-18T12:13:03Z</time>
      </trkpt>
      <trkpt lat="37.437665" lon="-8.795942">
        <ele>109.669</ele>
        <time>2018-08-18T12:13:08Z</time>
      </trkpt>
      <trkpt lat="37.436787" lon="-8.796101">
        <ele>110.669</ele>
        <time>2018-08-18T12:13:28Z</time>
      </trkpt>
      <trkpt lat="37.435940" lon="-8.795670">
        <ele>109.112</ele>
        <time>2018-08-18T12:13:49Z</time>
      </trkpt>
      <trkpt lat="37.435384" lon="-8.794187">
        <ele>104.728</ele>
        <time>2018-08-18T12:14:13Z</time>
      </trkpt>
      <trkpt lat="37.435052" lon="-8.793857">
        <ele>105.286</ele>
        <time>2018-08-18T12:14:21Z</time>
      </trkpt>
      <trkpt lat="37.433495" lon="-8.793604">
        <ele>110.625</ele>
        <time>2018-08-18T12:15:03Z</time>
      </trkpt>
      <trkpt lat="37.431316" lon="-8.792700">
        <ele>123.828</ele>
        <time>2018-08-18T12:16:31Z</time>
      </trkpt>
      <trkpt lat="37.429222" lon="-8.790771">
        <ele>124.119</ele>
        <time>2018-08-18T12:17:30Z</time>
      </trkpt>
      <trkpt lat="37.428411" lon="-8.790216">
        <ele>121.909</ele>
        <time>2018-08-18T12:17:51Z</time>
      </trkpt>
      <trkpt lat="37.427398" lon="-8.789039">
        <ele>127.919</ele>
        <time>2018-08-18T12:18:32Z</time>
      </trkpt>
      <trkpt lat="37.426242" lon="-8.786906">
        <ele>133.708</ele>
        <time>2018-08-18T12:19:30Z</time>
      </trkpt>
      <trkpt lat="37.425972" lon="-8.786019">
        <ele>135.913</ele>
        <time>2018-08-18T12:20:13Z</time>
      </trkpt>
      <trkpt lat="37.426240" lon="-8.787007">
        <ele>133.488</ele>
        <time>2018-08-18T12:20:35Z</time>
      </trkpt>
      <trkpt lat="37.426145" lon="-8.787147">
        <ele>133.818</ele>
        <time>2018-08-18T12:20:39Z</time>
      </trkpt>
      <trkpt lat="37.420522" lon="-8.789919">
        <ele>132.831</ele>
        <time>2018-08-18T12:22:38Z</time>
      </trkpt>
      <trkpt lat="37.420275" lon="-8.788995">
        <ele>133.077</ele>
        <time>2018-08-18T12:23:55Z</time>
      </trkpt>
      <trkpt lat="37.420017" lon="-8.785982">
        <ele>137.365</ele>
        <time>2018-08-18T12:31:31Z</time>
      </trkpt>
      <trkpt lat="37.419745" lon="-8.784710">
        <ele>136.424</ele>
        <time>2018-08-18T12:31:54Z</time>
      </trkpt>
      <trkpt lat="37.419818" lon="-8.783054">
        <ele>138.767</ele>
        <time>2018-08-18T12:32:27Z</time>
      </trkpt>
      <trkpt lat="37.419680" lon="-8.782772">
        <ele>139.992</ele>
        <time>2018-08-18T12:32:38Z</time>
      </trkpt>
      <trkpt lat="37.418687" lon="-8.782997">
        <ele>141.773</ele>
        <time>2018-08-18T12:33:50Z</time>
      </trkpt>
      <trkpt lat="37.416703" lon="-8.784343">
        <ele>140.320</ele>
        <time>2018-08-18T12:35:34Z</time>
      </trkpt>
      <trkpt lat="37.413846" lon="-8.785401">
        <ele>140.508</ele>
        <time>2018-08-18T12:36:36Z</time>
      </trkpt>
      <trkpt lat="37.409964" lon="-8.785510">
        <ele>135.731</ele>
        <time>2018-08-18T12:37:47Z</time>
      </trkpt>
      <trkpt lat="37.408676" lon="-8.785101">
        <ele>134.686</ele>
        <time>2018-08-18T12:38:37Z</time>
      </trkpt>
      <trkpt lat="37.407270" lon="-8.785209">
        <ele>136.046</ele>
        <time>2018-08-18T12:39:03Z</time>
      </trkpt>
      <trkpt lat="37.406860" lon="-8.785065">
        <ele>139.999</ele>
        <time>2018-08-18T12:39:20Z</time>
      </trkpt>
      <trkpt lat="37.399825" lon="-8.781132">
        <ele>155.075</ele>
        <time>2018-08-18T12:42:38Z</time>
      </trkpt>
      <trkpt lat="37.398966" lon="-8.780782">
        <ele>152.063</ele>
        <time>2018-08-18T12:42:58Z</time>
      </trkpt>
      <trkpt lat="37.398656" lon="-8.780910">
        <ele>150.212</ele>
        <time>2018-08-18T12:43:04Z</time>
      </trkpt>
      <trkpt lat="37.397703" lon="-8.781886">
        <ele>156.735</ele>
        <time>2018-08-18T12:43:37Z</time>
      </trkpt>
      <trkpt lat="37.389329" lon="-8.788653">
        <ele>156.941</ele>
        <time>2018-08-18T12:47:13Z</time>
      </trkpt>
      <trkpt lat="37.376662" lon="-8.798702">
        <ele>148.181</ele>
        <time>2018-08-18T12:51:27Z</time>
      </trkpt>
      <trkpt lat="37.375963" lon="-8.799112">
        <ele>146.709</ele>
        <time>2018-08-18T12:51:43Z</time>
      </trkpt>
      <trkpt lat="37.371999" lon="-8.799813">
        <ele>144.808</ele>
        <time>2018-08-18T12:53:03Z</time>
      </trkpt>
      <trkpt lat="37.371690" lon="-8.800052">
        <ele>145.746</ele>
        <time>2018-08-18T12:53:20Z</time>
      </trkpt>
      <trkpt lat="37.371465" lon="-8.799940">
        <ele>148.641</ele>
        <time>2018-08-18T12:59:35Z</time>
      </trkpt>
      <trkpt lat="37.370907" lon="-8.799998">
        <ele>148.981</ele>
        <time>2018-08-18T12:59:49Z</time>
      </trkpt>
      <trkpt lat="37.365676" lon="-8.800831">
        <ele>154.824</ele>
        <time>2018-08-18T13:01:44Z</time>
      </trkpt>
      <trkpt lat="37.365748" lon="-8.800974">
        <ele>154.790</ele>
        <time>2018-08-18T13:01:49Z</time>
      </trkpt>
      <trkpt lat="37.365931" lon="-8.800896">
        <ele>153.268</ele>
        <time>2018-08-18T13:17:18Z</time>
      </trkpt>
      <trkpt lat="37.365811" lon="-8.801043">
        <ele>152.567</ele>
        <time>2018-08-18T13:18:38Z</time>
      </trkpt>
      <trkpt lat="37.365509" lon="-8.800834">
        <ele>155.770</ele>
        <time>2018-08-18T13:18:53Z</time>
      </trkpt>
      <trkpt lat="37.364602" lon="-8.800794">
        <ele>156.965</ele>
        <time>2018-08-18T13:19:15Z</time>
      </trkpt>
      <trkpt lat="37.350895" lon="-8.800602">
        <ele>162.568</ele>
        <time>2018-08-18T13:23:24Z</time>
      </trkpt>
      <trkpt lat="37.343162" lon="-8.801850">
        <ele>172.114</ele>
        <time>2018-08-18T13:25:54Z</time>
      </trkpt>
      <trkpt lat="37.341683" lon="-8.801186">
        <ele>174.808</ele>
        <time>2018-08-18T13:26:25Z</time>
      </trkpt>
      <trkpt lat="37.341075" lon="-8.800568">
        <ele>175.268</ele>
        <time>2018-08-18T13:26:43Z</time>
      </trkpt>
      <trkpt lat="37.340809" lon="-8.803250">
        <ele>172.663</ele>
        <time>2018-08-18T13:27:32Z</time>
      </trkpt>
      <trkpt lat="37.339192" lon="-8.807080">
        <ele>163.823</ele>
        <time>2018-08-18T13:28:32Z</time>
      </trkpt>
      <trkpt lat="37.339361" lon="-8.808086">
        <ele>168.786</ele>
        <time>2018-08-18T13:28:47Z</time>
      </trkpt>
      <trkpt lat="37.339397" lon="-8.810901">
        <ele>163.932</ele>
        <time>2018-08-18T13:29:30Z</time>
      </trkpt>
      <trkpt lat="37.339221" lon="-8.811865">
        <ele>162.920</ele>
        <time>2018-08-18T13:30:11Z</time>
      </trkpt>
      <trkpt lat="37.339347" lon="-8.812804">
        <ele>160.429</ele>
        <time>2018-08-18T13:30:30Z</time>
      </trkpt>
      <trkpt lat="37.339622" lon="-8.812927">
        <ele>160.842</ele>
        <time>2018-08-18T13:30:45Z</time>
      </trkpt>
      <trkpt lat="37.339615" lon="-8.813047">
        <ele>161.166</ele>
        <time>2018-08-18T13:31:08Z</time>
      </trkpt>
      <trkpt lat="37.340157" lon="-8.813185">
        <ele>159.229</ele>
        <time>2018-08-18T13:37:32Z</time>
      </trkpt>
      <trkpt lat="37.340452" lon="-8.812160">
        <ele>162.521</ele>
        <time>2018-08-18T13:38:15Z</time>
      </trkpt>
      <trkpt lat="37.340391" lon="-8.812575">
        <ele>157.608</ele>
        <time>2018-08-18T13:38:41Z</time>
      </trkpt>
      <trkpt lat="37.340615" lon="-8.812619">
        <ele>158.218</ele>
        <time>2018-08-18T13:39:05Z</time>
      </trkpt>
      <trkpt lat="37.340728" lon="-8.812267">
        <ele>162.963</ele>
        <time>2018-08-18T13:39:58Z</time>
      </trkpt>
      <trkpt lat="37.340871" lon="-8.812245">
        <ele>164.293</ele>
        <time>2018-08-18T13:40:34Z</time>
      </trkpt>
      <trkpt lat="37.340640" lon="-8.812169">
        <ele>164.616</ele>
        <time>2018-08-18T13:41:30Z</time>
      </trkpt>
      <trkpt lat="37.340875" lon="-8.812247">
        <ele>162.362</ele>
        <time>2018-08-18T13:42:01Z</time>
      </trkpt>
      <trkpt lat="37.340998" lon="-8.812484">
        <ele>157.920</ele>
        <time>2018-08-18T14:02:59Z</time>
      </trkpt>
      <trkpt lat="37.341112" lon="-8.812235">
        <ele>156.219</ele>
        <time>2018-08-18T14:03:04Z</time>
      </trkpt>
      <trkpt lat="37.341025" lon="-8.812373">
        <ele>156.992</ele>
        <time>2018-08-18T14:03:11Z</time>
      </trkpt>
      <trkpt lat="37.340217" lon="-8.812754">
        <ele>166.715</ele>
        <time>2018-08-19T09:05:25Z</time>
      </trkpt>
      <trkpt lat="37.340120" lon="-8.813197">
        <ele>166.765</ele>
        <time>2018-08-19T09:06:25Z</time>
      </trkpt>
      <trkpt lat="37.339642" lon="-8.813070">
        <ele>165.711</ele>
        <time>2018-08-19T09:06:44Z</time>
      </trkpt>
      <trkpt lat="37.339352" lon="-8.812726">
        <ele>168.308</ele>
        <time>2018-08-19T09:11:54Z</time>
      </trkpt>
      <trkpt lat="37.339244" lon="-8.811943">
        <ele>172.523</ele>
        <time>2018-08-19T09:12:16Z</time>
      </trkpt>
      <trkpt lat="37.339381" lon="-8.810865">
        <ele>171.178</ele>
        <time>2018-08-19T09:12:42Z</time>
      </trkpt>
      <trkpt lat="37.339364" lon="-8.807955">
        <ele>169.778</ele>
        <time>2018-08-19T09:13:44Z</time>
      </trkpt>
      <trkpt lat="37.339218" lon="-8.806927">
        <ele>175.816</ele>
        <time>2018-08-19T09:14:04Z</time>
      </trkpt>
      <trkpt lat="37.340701" lon="-8.803466">
        <ele>178.055</ele>
        <time>2018-08-19T09:15:29Z</time>
      </trkpt>
      <trkpt lat="37.340904" lon="-8.802630">
        <ele>178.478</ele>
        <time>2018-08-19T09:15:47Z</time>
      </trkpt>
      <trkpt lat="37.341055" lon="-8.800303">
        <ele>178.837</ele>
        <time>2018-08-19T09:16:35Z</time>
      </trkpt>
      <trkpt lat="37.340803" lon="-8.799517">
        <ele>178.670</ele>
        <time>2018-08-19T09:16:49Z</time>
      </trkpt>
      <trkpt lat="37.340957" lon="-8.797075">
        <ele>166.269</ele>
        <time>2018-08-19T09:17:16Z</time>
      </trkpt>
      <trkpt lat="37.340795" lon="-8.796575">
        <ele>162.804</ele>
        <time>2018-08-19T09:17:21Z</time>
      </trkpt>
      <trkpt lat="37.340278" lon="-8.796314">
        <ele>159.224</ele>
        <time>2018-08-19T09:17:27Z</time>
      </trkpt>
      <trkpt lat="37.338370" lon="-8.796501">
        <ele>149.008</ele>
        <time>2018-08-19T09:17:45Z</time>
      </trkpt>
      <trkpt lat="37.337405" lon="-8.796390">
        <ele>142.428</ele>
        <time>2018-08-19T09:17:54Z</time>
      </trkpt>
      <trkpt lat="37.333845" lon="-8.794183">
        <ele>132.313</ele>
        <time>2018-08-19T09:18:42Z</time>
      </trkpt>
      <trkpt lat="37.332650" lon="-8.793258">
        <ele>127.533</ele>
        <time>2018-08-19T09:19:00Z</time>
      </trkpt>
      <trkpt lat="37.332138" lon="-8.793094">
        <ele>125.791</ele>
        <time>2018-08-19T09:19:07Z</time>
      </trkpt>
      <trkpt lat="37.331747" lon="-8.793055">
        <ele>123.870</ele>
        <time>2018-08-19T09:19:12Z</time>
      </trkpt>
      <trkpt lat="37.330779" lon="-8.793276">
        <ele>119.863</ele>
        <time>2018-08-19T09:19:23Z</time>
      </trkpt>
      <trkpt lat="37.329674" lon="-8.793921">
        <ele>112.472</ele>
        <time>2018-08-19T09:19:35Z</time>
      </trkpt>
      <trkpt lat="37.328843" lon="-8.794036">
        <ele>109.295</ele>
        <time>2018-08-19T09:19:43Z</time>
      </trkpt>
      <trkpt lat="37.328225" lon="-8.793946">
        <ele>105.244</ele>
        <time>2018-08-19T09:19:49Z</time>
      </trkpt>
      <trkpt lat="37.326572" lon="-8.793138">
        <ele>93.705</ele>
        <time>2018-08-19T09:20:06Z</time>
      </trkpt>
      <trkpt lat="37.325775" lon="-8.793052">
        <ele>88.215</ele>
        <time>2018-08-19T09:20:14Z</time>
      </trkpt>
      <trkpt lat="37.325530" lon="-8.793243">
        <ele>86.808</ele>
        <time>2018-08-19T09:20:17Z</time>
      </trkpt>
      <trkpt lat="37.325151" lon="-8.793940">
        <ele>84.626</ele>
        <time>2018-08-19T09:20:24Z</time>
      </trkpt>
      <trkpt lat="37.324913" lon="-8.794997">
        <ele>81.311</ele>
        <time>2018-08-19T09:20:35Z</time>
      </trkpt>
      <trkpt lat="37.321380" lon="-8.797561">
        <ele>73.581</ele>
        <time>2018-08-19T09:22:01Z</time>
      </trkpt>
      <trkpt lat="37.320904" lon="-8.798274">
        <ele>73.929</ele>
        <time>2018-08-19T09:22:17Z</time>
      </trkpt>
      <trkpt lat="37.320496" lon="-8.798482">
        <ele>75.198</ele>
        <time>2018-08-19T09:22:24Z</time>
      </trkpt>
      <trkpt lat="37.318083" lon="-8.798692">
        <ele>72.861</ele>
        <time>2018-08-19T09:23:10Z</time>
      </trkpt>
      <trkpt lat="37.317052" lon="-8.799131">
        <ele>73.620</ele>
        <time>2018-08-19T09:23:32Z</time>
      </trkpt>
      <trkpt lat="37.316654" lon="-8.800042">
        <ele>74.023</ele>
        <time>2018-08-19T09:23:54Z</time>
      </trkpt>
      <trkpt lat="37.316703" lon="-8.803554">
        <ele>75.811</ele>
        <time>2018-08-19T09:25:08Z</time>
      </trkpt>
      <trkpt lat="37.316613" lon="-8.803412">
        <ele>81.721</ele>
        <time>2018-08-19T09:26:29Z</time>
      </trkpt>
      <trkpt lat="37.316716" lon="-8.802989">
        <ele>80.003</ele>
        <time>2018-08-19T09:26:44Z</time>
      </trkpt>
      <trkpt lat="37.316905" lon="-8.802752">
        <ele>76.608</ele>
        <time>2018-08-19T09:26:55Z</time>
      </trkpt>
      <trkpt lat="37.317001" lon="-8.802834">
        <ele>76.943</ele>
        <time>2018-08-19T09:40:08Z</time>
      </trkpt>
      <trkpt lat="37.316851" lon="-8.802859">
        <ele>74.098</ele>
        <time>2018-08-19T09:56:37Z</time>
      </trkpt>
      <trkpt lat="37.316453" lon="-8.803703">
        <ele>73.488</ele>
        <time>2018-08-19T09:57:02Z</time>
      </trkpt>
      <trkpt lat="37.312953" lon="-8.803768">
        <ele>80.136</ele>
        <time>2018-08-19T09:58:10Z</time>
      </trkpt>
      <trkpt lat="37.310271" lon="-8.802233">
        <ele>77.345</ele>
        <time>2018-08-19T09:59:29Z</time>
      </trkpt>
      <trkpt lat="37.309159" lon="-8.802035">
        <ele>71.988</ele>
        <time>2018-08-19T09:59:52Z</time>
      </trkpt>
      <trkpt lat="37.307127" lon="-8.801982">
        <ele>74.867</ele>
        <time>2018-08-19T10:00:34Z</time>
      </trkpt>
      <trkpt lat="37.307039" lon="-8.802750">
        <ele>80.280</ele>
        <time>2018-08-19T10:00:58Z</time>
      </trkpt>
      <trkpt lat="37.307157" lon="-8.803436">
        <ele>86.015</ele>
        <time>2018-08-19T10:01:31Z</time>
      </trkpt>
      <trkpt lat="37.307458" lon="-8.804013">
        <ele>93.465</ele>
        <time>2018-08-19T10:02:11Z</time>
      </trkpt>
      <trkpt lat="37.308239" lon="-8.804388">
        <ele>105.811</ele>
        <time>2018-08-19T10:03:15Z</time>
      </trkpt>
      <trkpt lat="37.308666" lon="-8.805822">
        <ele>115.708</ele>
        <time>2018-08-19T10:04:38Z</time>
      </trkpt>
      <trkpt lat="37.308853" lon="-8.805932">
        <ele>116.853</ele>
        <time>2018-08-19T10:04:50Z</time>
      </trkpt>
      <trkpt lat="37.309831" lon="-8.805922">
        <ele>125.938</ele>
        <time>2018-08-19T10:05:52Z</time>
      </trkpt>
      <trkpt lat="37.310158" lon="-8.806257">
        <ele>128.188</ele>
        <time>2018-08-19T10:06:19Z</time>
      </trkpt>
      <trkpt lat="37.310176" lon="-8.806704">
        <ele>132.876</ele>
        <time>2018-08-19T10:06:42Z</time>
      </trkpt>
      <trkpt lat="37.308927" lon="-8.809819">
        <ele>160.935</ele>
        <time>2018-08-19T10:09:45Z</time>
      </trkpt>
      <trkpt lat="37.309021" lon="-8.810187">
        <ele>165.878</ele>
        <time>2018-08-19T10:10:06Z</time>
      </trkpt>
      <trkpt lat="37.309429" lon="-8.810396">
        <ele>166.077</ele>
        <time>2018-08-19T10:10:35Z</time>
      </trkpt>
      <trkpt lat="37.309617" lon="-8.810673">
        <ele>171.260</ele>
        <time>2018-08-19T10:10:53Z</time>
      </trkpt>
      <trkpt lat="37.309348" lon="-8.812330">
        <ele>181.924</ele>
        <time>2018-08-19T10:12:18Z</time>
      </trkpt>
      <trkpt lat="37.307284" lon="-8.812006">
        <ele>186.204</ele>
        <time>2018-08-19T10:13:33Z</time>
      </trkpt>
      <trkpt lat="37.306107" lon="-8.812221">
        <ele>190.314</ele>
        <time>2018-08-19T10:14:13Z</time>
      </trkpt>
      <trkpt lat="37.303398" lon="-8.812315">
        <ele>197.008</ele>
        <time>2018-08-19T10:16:06Z</time>
      </trkpt>
      <trkpt lat="37.300215" lon="-8.812029">
        <ele>194.924</ele>
        <time>2018-08-19T10:17:12Z</time>
      </trkpt>
      <trkpt lat="37.298750" lon="-8.812800">
        <ele>201.479</ele>
        <time>2018-08-19T10:18:05Z</time>
      </trkpt>
      <trkpt lat="37.297560" lon="-8.812611">
        <ele>199.569</ele>
        <time>2018-08-19T10:18:28Z</time>
      </trkpt>
      <trkpt lat="37.296496" lon="-8.812814">
        <ele>198.367</ele>
        <time>2018-08-19T10:18:44Z</time>
      </trkpt>
      <trkpt lat="37.295882" lon="-8.813121">
        <ele>199.126</ele>
        <time>2018-08-19T10:18:59Z</time>
      </trkpt>
      <trkpt lat="37.294750" lon="-8.814063">
        <ele>198.949</ele>
        <time>2018-08-19T10:19:57Z</time>
      </trkpt>
      <trkpt lat="37.295199" lon="-8.813645">
        <ele>195.748</ele>
        <time>2018-08-19T10:20:13Z</time>
      </trkpt>
      <trkpt lat="37.295533" lon="-8.813376">
        <ele>195.581</ele>
        <time>2018-08-19T10:20:28Z</time>
      </trkpt>
      <trkpt lat="37.294003" lon="-8.814891">
        <ele>202.061</ele>
        <time>2018-08-19T10:21:48Z</time>
      </trkpt>
      <trkpt lat="37.292945" lon="-8.815317">
        <ele>202.921</ele>
        <time>2018-08-19T10:22:21Z</time>
      </trkpt>
      <trkpt lat="37.291904" lon="-8.816398">
        <ele>206.213</ele>
        <time>2018-08-19T10:23:09Z</time>
      </trkpt>
      <trkpt lat="37.290827" lon="-8.817131">
        <ele>206.708</ele>
        <time>2018-08-19T10:23:32Z</time>
      </trkpt>
      <trkpt lat="37.289306" lon="-8.818447">
        <ele>208.718</ele>
        <time>2018-08-19T10:24:08Z</time>
      </trkpt>
      <trkpt lat="37.287989" lon="-8.819138">
        <ele>203.523</ele>
        <time>2018-08-19T10:24:31Z</time>
      </trkpt>
      <trkpt lat="37.287073" lon="-8.820440">
        <ele>204.263</ele>
        <time>2018-08-19T10:25:49Z</time>
      </trkpt>
      <trkpt lat="37.286247" lon="-8.821322">
        <ele>205.811</ele>
        <time>2018-08-19T10:26:24Z</time>
      </trkpt>
      <trkpt lat="37.283449" lon="-8.823077">
        <ele>213.880</ele>
        <time>2018-08-19T10:27:39Z</time>
      </trkpt>
      <trkpt lat="37.281769" lon="-8.823632">
        <ele>216.023</ele>
        <time>2018-08-19T10:28:32Z</time>
      </trkpt>
      <trkpt lat="37.281137" lon="-8.823698">
        <ele>215.812</ele>
        <time>2018-08-19T10:28:44Z</time>
      </trkpt>
      <trkpt lat="37.279139" lon="-8.823405">
        <ele>211.725</ele>
        <time>2018-08-19T10:29:29Z</time>
      </trkpt>
      <trkpt lat="37.278093" lon="-8.823580">
        <ele>200.767</ele>
        <time>2018-08-19T10:30:22Z</time>
      </trkpt>
      <trkpt lat="37.276931" lon="-8.823547">
        <ele>208.981</ele>
        <time>2018-08-19T10:30:45Z</time>
      </trkpt>
      <trkpt lat="37.276616" lon="-8.823307">
        <ele>208.419</ele>
        <time>2018-08-19T10:30:52Z</time>
      </trkpt>
      <trkpt lat="37.275973" lon="-8.823267">
        <ele>202.908</ele>
        <time>2018-08-19T10:32:01Z</time>
      </trkpt>
      <trkpt lat="37.275520" lon="-8.822732">
        <ele>204.328</ele>
        <time>2018-08-19T10:32:52Z</time>
      </trkpt>
      <trkpt lat="37.273140" lon="-8.821248">
        <ele>205.523</ele>
        <time>2018-08-19T10:34:21Z</time>
      </trkpt>
      <trkpt lat="37.272074" lon="-8.821181">
        <ele>204.383</ele>
        <time>2018-08-19T10:34:49Z</time>
      </trkpt>
      <trkpt lat="37.271482" lon="-8.821668">
        <ele>198.511</ele>
        <time>2018-08-19T10:35:10Z</time>
      </trkpt>
      <trkpt lat="37.271009" lon="-8.821763">
        <ele>197.280</ele>
        <time>2018-08-19T10:35:21Z</time>
      </trkpt>
      <trkpt lat="37.269868" lon="-8.821346">
        <ele>210.773</ele>
        <time>2018-08-19T10:36:09Z</time>
      </trkpt>
      <trkpt lat="37.269448" lon="-8.821421">
        <ele>209.782</ele>
        <time>2018-08-19T10:36:25Z</time>
      </trkpt>
      <trkpt lat="37.269126" lon="-8.821604">
        <ele>209.115</ele>
        <time>2018-08-19T10:36:41Z</time>
      </trkpt>
      <trkpt lat="37.268893" lon="-8.822081">
        <ele>212.252</ele>
        <time>2018-08-19T10:37:01Z</time>
      </trkpt>
      <trkpt lat="37.268392" lon="-8.822519">
        <ele>212.853</ele>
        <time>2018-08-19T10:37:16Z</time>
      </trkpt>
      <trkpt lat="37.267896" lon="-8.822572">
        <ele>210.908</ele>
        <time>2018-08-19T10:37:26Z</time>
      </trkpt>
      <trkpt lat="37.265248" lon="-8.824389">
        <ele>207.208</ele>
        <time>2018-08-19T10:38:52Z</time>
      </trkpt>
      <trkpt lat="37.265093" lon="-8.824745">
        <ele>206.217</ele>
        <time>2018-08-19T10:38:58Z</time>
      </trkpt>
      <trkpt lat="37.265245" lon="-8.825165">
        <ele>205.782</ele>
        <time>2018-08-19T10:39:07Z</time>
      </trkpt>
      <trkpt lat="37.263933" lon="-8.825152">
        <ele>212.882</ele>
        <time>2018-08-19T10:40:14Z</time>
      </trkpt>
      <trkpt lat="37.261943" lon="-8.826402">
        <ele>217.120</ele>
        <time>2018-08-19T10:41:47Z</time>
      </trkpt>
      <trkpt lat="37.260706" lon="-8.826970">
        <ele>218.749</ele>
        <time>2018-08-19T10:42:20Z</time>
      </trkpt>
      <trkpt lat="37.259405" lon="-8.829566">
        <ele>219.852</ele>
        <time>2018-08-19T10:43:25Z</time>
      </trkpt>
      <trkpt lat="37.259055" lon="-8.831605">
        <ele>217.091</ele>
        <time>2018-08-19T10:43:57Z</time>
      </trkpt>
      <trkpt lat="37.258338" lon="-8.832445">
        <ele>215.164</ele>
        <time>2018-08-19T10:44:15Z</time>
      </trkpt>
      <trkpt lat="37.256471" lon="-8.833268">
        <ele>220.438</ele>
        <time>2018-08-19T10:45:00Z</time>
      </trkpt>
      <trkpt lat="37.255785" lon="-8.833859">
        <ele>220.870</ele>
        <time>2018-08-19T10:45:18Z</time>
      </trkpt>
      <trkpt lat="37.254285" lon="-8.834570">
        <ele>216.617</ele>
        <time>2018-08-19T10:45:42Z</time>
      </trkpt>
      <trkpt lat="37.253904" lon="-8.834951">
        <ele>212.708</ele>
        <time>2018-08-19T10:46:23Z</time>
      </trkpt>
      <trkpt lat="37.252507" lon="-8.835572">
        <ele>209.045</ele>
        <time>2018-08-19T10:46:49Z</time>
      </trkpt>
      <trkpt lat="37.249407" lon="-8.835517">
        <ele>202.510</ele>
        <time>2018-08-19T10:47:45Z</time>
      </trkpt>
      <trkpt lat="37.247676" lon="-8.835329">
        <ele>201.790</ele>
        <time>2018-08-19T10:48:11Z</time>
      </trkpt>
      <trkpt lat="37.246721" lon="-8.835006">
        <ele>199.528</ele>
        <time>2018-08-19T10:48:55Z</time>
      </trkpt>
      <trkpt lat="37.246818" lon="-8.835109">
        <ele>200.247</ele>
        <time>2018-08-19T10:49:48Z</time>
      </trkpt>
      <trkpt lat="37.245885" lon="-8.836233">
        <ele>197.690</ele>
        <time>2018-08-19T10:50:14Z</time>
      </trkpt>
      <trkpt lat="37.245497" lon="-8.838378">
        <ele>202.449</ele>
        <time>2018-08-19T10:51:49Z</time>
      </trkpt>
      <trkpt lat="37.244048" lon="-8.839886">
        <ele>203.382</ele>
        <time>2018-08-19T10:52:42Z</time>
      </trkpt>
      <trkpt lat="37.242258" lon="-8.840276">
        <ele>201.912</ele>
        <time>2018-08-19T10:54:17Z</time>
      </trkpt>
      <trkpt lat="37.241274" lon="-8.840916">
        <ele>204.832</ele>
        <time>2018-08-19T10:54:45Z</time>
      </trkpt>
      <trkpt lat="37.240302" lon="-8.842487">
        <ele>206.405</ele>
        <time>2018-08-19T10:55:20Z</time>
      </trkpt>
      <trkpt lat="37.240094" lon="-8.843936">
        <ele>209.008</ele>
        <time>2018-08-19T10:55:57Z</time>
      </trkpt>
      <trkpt lat="37.239609" lon="-8.844722">
        <ele>210.863</ele>
        <time>2018-08-19T10:56:17Z</time>
      </trkpt>
      <trkpt lat="37.239297" lon="-8.844825">
        <ele>210.538</ele>
        <time>2018-08-19T10:56:25Z</time>
      </trkpt>
      <trkpt lat="37.238775" lon="-8.844740">
        <ele>209.198</ele>
        <time>2018-08-19T10:56:38Z</time>
      </trkpt>
      <trkpt lat="37.238204" lon="-8.845379">
        <ele>207.716</ele>
        <time>2018-08-19T10:57:01Z</time>
      </trkpt>
      <trkpt lat="37.236740" lon="-8.845090">
        <ele>210.565</ele>
        <time>2018-08-19T10:58:00Z</time>
      </trkpt>
      <trkpt lat="37.236461" lon="-8.845176">
        <ele>208.628</ele>
        <time>2018-08-19T10:58:07Z</time>
      </trkpt>
      <trkpt lat="37.236050" lon="-8.845877">
        <ele>207.367</ele>
        <time>2018-08-19T10:58:22Z</time>
      </trkpt>
      <trkpt lat="37.234877" lon="-8.846363">
        <ele>203.250</ele>
        <time>2018-08-19T10:58:49Z</time>
      </trkpt>
      <trkpt lat="37.234529" lon="-8.846781">
        <ele>209.361</ele>
        <time>2018-08-19T10:59:17Z</time>
      </trkpt>
      <trkpt lat="37.234150" lon="-8.847736">
        <ele>206.621</ele>
        <time>2018-08-19T11:00:27Z</time>
      </trkpt>
      <trkpt lat="37.233439" lon="-8.848135">
        <ele>205.313</ele>
        <time>2018-08-19T11:00:46Z</time>
      </trkpt>
      <trkpt lat="37.232979" lon="-8.848084">
        <ele>197.608</ele>
        <time>2018-08-19T11:01:39Z</time>
      </trkpt>
      <trkpt lat="37.232045" lon="-8.847581">
        <ele>202.538</ele>
        <time>2018-08-19T11:02:01Z</time>
      </trkpt>
      <trkpt lat="37.231244" lon="-8.847602">
        <ele>201.643</ele>
        <time>2018-08-19T11:02:24Z</time>
      </trkpt>
      <trkpt lat="37.230316" lon="-8.848118">
        <ele>201.673</ele>
        <time>2018-08-19T11:02:52Z</time>
      </trkpt>
      <trkpt lat="37.229272" lon="-8.848295">
        <ele>193.251</ele>
        <time>2018-08-19T11:05:06Z</time>
      </trkpt>
      <trkpt lat="37.228840" lon="-8.848753">
        <ele>188.950</ele>
        <time>2018-08-19T11:05:17Z</time>
      </trkpt>
      <trkpt lat="37.228612" lon="-8.849253">
        <ele>183.553</ele>
        <time>2018-08-19T11:05:32Z</time>
      </trkpt>
      <trkpt lat="37.228327" lon="-8.848808">
        <ele>178.772</ele>
        <time>2018-08-19T11:05:42Z</time>
      </trkpt>
      <trkpt lat="37.228068" lon="-8.848749">
        <ele>175.375</ele>
        <time>2018-08-19T11:06:19Z</time>
      </trkpt>
      <trkpt lat="37.228109" lon="-8.849195">
        <ele>173.718</ele>
        <time>2018-08-19T11:09:06Z</time>
      </trkpt>
      <trkpt lat="37.227848" lon="-8.849721">
        <ele>169.698</ele>
        <time>2018-08-19T11:09:16Z</time>
      </trkpt>
      <trkpt lat="37.227155" lon="-8.850326">
        <ele>164.117</ele>
        <time>2018-08-19T11:09:28Z</time>
      </trkpt>
      <trkpt lat="37.226251" lon="-8.850479">
        <ele>157.208</ele>
        <time>2018-08-19T11:09:42Z</time>
      </trkpt>
      <trkpt lat="37.225730" lon="-8.850897">
        <ele>154.553</ele>
        <time>2018-08-19T11:09:52Z</time>
      </trkpt>
      <trkpt lat="37.224899" lon="-8.852800">
        <ele>147.698</ele>
        <time>2018-08-19T11:10:17Z</time>
      </trkpt>
      <trkpt lat="37.224530" lon="-8.853199">
        <ele>148.078</ele>
        <time>2018-08-19T11:10:25Z</time>
      </trkpt>
      <trkpt lat="37.224091" lon="-8.853383">
        <ele>146.426</ele>
        <time>2018-08-19T11:10:33Z</time>
      </trkpt>
      <trkpt lat="37.223276" lon="-8.854260">
        <ele>140.635</ele>
        <time>2018-08-19T11:10:58Z</time>
      </trkpt>
      <trkpt lat="37.222851" lon="-8.854305">
        <ele>141.448</ele>
        <time>2018-08-19T11:11:10Z</time>
      </trkpt>
      <trkpt lat="37.222698" lon="-8.855611">
        <ele>146.737</ele>
        <time>2018-08-19T11:12:06Z</time>
      </trkpt>
      <trkpt lat="37.222413" lon="-8.856642">
        <ele>147.690</ele>
        <time>2018-08-19T11:12:23Z</time>
      </trkpt>
      <trkpt lat="37.221776" lon="-8.857602">
        <ele>144.919</ele>
        <time>2018-08-19T11:12:42Z</time>
      </trkpt>
      <trkpt lat="37.221302" lon="-8.857614">
        <ele>146.309</ele>
        <time>2018-08-19T11:12:54Z</time>
      </trkpt>
      <trkpt lat="37.220290" lon="-8.857328">
        <ele>143.419</ele>
        <time>2018-08-19T11:13:19Z</time>
      </trkpt>
      <trkpt lat="37.219244" lon="-8.857720">
        <ele>134.708</ele>
        <time>2018-08-19T11:13:41Z</time>
      </trkpt>
      <trkpt lat="37.218168" lon="-8.858239">
        <ele>131.983</ele>
        <time>2018-08-19T11:14:04Z</time>
      </trkpt>
      <trkpt lat="37.217596" lon="-8.858925">
        <ele>130.178</ele>
        <time>2018-08-19T11:14:19Z</time>
      </trkpt>
      <trkpt lat="37.215491" lon="-8.860494">
        <ele>110.868</ele>
        <time>2018-08-19T11:16:20Z</time>
      </trkpt>
      <trkpt lat="37.214738" lon="-8.860646">
        <ele>98.416</ele>
        <time>2018-08-19T11:16:36Z</time>
      </trkpt>
      <trkpt lat="37.214340" lon="-8.861255">
        <ele>88.095</ele>
        <time>2018-08-19T11:16:49Z</time>
      </trkpt>
      <trkpt lat="37.213618" lon="-8.861164">
        <ele>85.028</ele>
        <time>2018-08-19T11:17:06Z</time>
      </trkpt>
      <trkpt lat="37.213282" lon="-8.862030">
        <ele>81.247</ele>
        <time>2018-08-19T11:18:06Z</time>
      </trkpt>
      <trkpt lat="37.212430" lon="-8.862355">
        <ele>86.150</ele>
        <time>2018-08-19T11:18:23Z</time>
      </trkpt>
      <trkpt lat="37.210820" lon="-8.864473">
        <ele>84.658</ele>
        <time>2018-08-19T11:19:16Z</time>
      </trkpt>
      <trkpt lat="37.209669" lon="-8.865127">
        <ele>83.252</ele>
        <time>2018-08-19T11:19:40Z</time>
      </trkpt>
      <trkpt lat="37.208809" lon="-8.866070">
        <ele>82.517</ele>
        <time>2018-08-19T11:20:03Z</time>
      </trkpt>
      <trkpt lat="37.208519" lon="-8.866717">
        <ele>80.708</ele>
        <time>2018-08-19T11:20:13Z</time>
      </trkpt>
      <trkpt lat="37.208731" lon="-8.868000">
        <ele>79.847</ele>
        <time>2018-08-19T11:20:32Z</time>
      </trkpt>
      <trkpt lat="37.208464" lon="-8.868468">
        <ele>79.162</ele>
        <time>2018-08-19T11:20:41Z</time>
      </trkpt>
      <trkpt lat="37.208319" lon="-8.869169">
        <ele>82.642</ele>
        <time>2018-08-19T11:20:53Z</time>
      </trkpt>
      <trkpt lat="37.207631" lon="-8.870619">
        <ele>80.560</ele>
        <time>2018-08-19T11:21:22Z</time>
      </trkpt>
      <trkpt lat="37.206373" lon="-8.872023">
        <ele>78.869</ele>
        <time>2018-08-19T11:21:53Z</time>
      </trkpt>
      <trkpt lat="37.206339" lon="-8.873077">
        <ele>76.572</ele>
        <time>2018-08-19T11:22:09Z</time>
      </trkpt>
      <trkpt lat="37.205862" lon="-8.874038">
        <ele>82.011</ele>
        <time>2018-08-19T11:22:33Z</time>
      </trkpt>
      <trkpt lat="37.205565" lon="-8.875054">
        <ele>90.874</ele>
        <time>2018-08-19T11:23:17Z</time>
      </trkpt>
      <trkpt lat="37.204805" lon="-8.875587">
        <ele>84.141</ele>
        <time>2018-08-19T11:23:59Z</time>
      </trkpt>
      <trkpt lat="37.204698" lon="-8.877948">
        <ele>76.181</ele>
        <time>2018-08-19T11:24:53Z</time>
      </trkpt>
      <trkpt lat="37.204330" lon="-8.878192">
        <ele>75.409</ele>
        <time>2018-08-19T11:25:23Z</time>
      </trkpt>
      <trkpt lat="37.204341" lon="-8.879739">
        <ele>79.108</ele>
        <time>2018-08-19T11:26:32Z</time>
      </trkpt>
      <trkpt lat="37.204187" lon="-8.880313">
        <ele>80.976</ele>
        <time>2018-08-19T11:26:43Z</time>
      </trkpt>
      <trkpt lat="37.204016" lon="-8.880775">
        <ele>78.621</ele>
        <time>2018-08-19T11:26:52Z</time>
      </trkpt>
      <trkpt lat="37.202775" lon="-8.882333">
        <ele>73.841</ele>
        <time>2018-08-19T11:27:31Z</time>
      </trkpt>
      <trkpt lat="37.201757" lon="-8.884265">
        <ele>74.489</ele>
        <time>2018-08-19T11:28:08Z</time>
      </trkpt>
      <trkpt lat="37.201585" lon="-8.884893">
        <ele>75.398</ele>
        <time>2018-08-19T11:29:55Z</time>
      </trkpt>
      <trkpt lat="37.201586" lon="-8.886090">
        <ele>75.011</ele>
        <time>2018-08-19T11:30:19Z</time>
      </trkpt>
      <trkpt lat="37.201260" lon="-8.886807">
        <ele>75.060</ele>
        <time>2018-08-19T11:30:33Z</time>
      </trkpt>
      <trkpt lat="37.196903" lon="-8.889095">
        <ele>77.663</ele>
        <time>2018-08-19T11:31:53Z</time>
      </trkpt>
      <trkpt lat="37.189772" lon="-8.890414">
        <ele>74.472</ele>
        <time>2018-08-19T11:33:59Z</time>
      </trkpt>
      <trkpt lat="37.188813" lon="-8.890728">
        <ele>75.013</ele>
        <time>2018-08-19T11:34:16Z</time>
      </trkpt>
      <trkpt lat="37.185250" lon="-8.895218">
        <ele>82.314</ele>
        <time>2018-08-19T11:39:26Z</time>
      </trkpt>
      <trkpt lat="37.184853" lon="-8.895633">
        <ele>87.808</ele>
        <time>2018-08-19T11:39:47Z</time>
      </trkpt>
      <trkpt lat="37.184394" lon="-8.895840">
        <ele>89.919</ele>
        <time>2018-08-19T11:40:09Z</time>
      </trkpt>
      <trkpt lat="37.184545" lon="-8.896603">
        <ele>89.424</ele>
        <time>2018-08-19T11:41:22Z</time>
      </trkpt>
      <trkpt lat="37.184957" lon="-8.897590">
        <ele>88.064</ele>
        <time>2018-08-19T11:41:37Z</time>
      </trkpt>
      <trkpt lat="37.185928" lon="-8.899087">
        <ele>79.992</ele>
        <time>2018-08-19T11:42:01Z</time>
      </trkpt>
      <trkpt lat="37.185884" lon="-8.899270">
        <ele>79.551</ele>
        <time>2018-08-19T11:42:04Z</time>
      </trkpt>
      <trkpt lat="37.184792" lon="-8.899822">
        <ele>79.844</ele>
        <time>2018-08-19T11:42:41Z</time>
      </trkpt>
      <trkpt lat="37.184641" lon="-8.900146">
        <ele>79.843</ele>
        <time>2018-08-19T11:42:48Z</time>
      </trkpt>
      <trkpt lat="37.184791" lon="-8.904343">
        <ele>86.656</ele>
        <time>2018-08-19T11:44:26Z</time>
      </trkpt>
      <trkpt lat="37.184507" lon="-8.905540">
        <ele>95.083</ele>
        <time>2018-08-19T11:45:15Z</time>
      </trkpt>
      <trkpt lat="37.185013" lon="-8.906842">
        <ele>99.125</ele>
        <time>2018-08-19T11:46:03Z</time>
      </trkpt>
      <trkpt lat="37.185182" lon="-8.908150">
        <ele>97.917</ele>
        <time>2018-08-19T11:46:30Z</time>
      </trkpt>
      <trkpt lat="37.185158" lon="-8.909247">
        <ele>95.508</ele>
        <time>2018-08-19T11:46:47Z</time>
      </trkpt>
      <trkpt lat="37.185575" lon="-8.909709">
        <ele>95.350</ele>
        <time>2018-08-19T11:47:00Z</time>
      </trkpt>
      <trkpt lat="37.185958" lon="-8.909548">
        <ele>97.715</ele>
        <time>2018-08-19T11:47:12Z</time>
      </trkpt>
      <trkpt lat="37.186310" lon="-8.910410">
        <ele>95.925</ele>
        <time>2018-08-19T11:47:34Z</time>
      </trkpt>
      <trkpt lat="37.185977" lon="-8.909587">
        <ele>97.023</ele>
        <time>2018-08-19T11:51:32Z</time>
      </trkpt>
      <trkpt lat="37.185726" lon="-8.909663">
        <ele>97.622</ele>
        <time>2018-08-19T11:51:40Z</time>
      </trkpt>
      <trkpt lat="37.185370" lon="-8.909906">
        <ele>99.475</ele>
        <time>2018-08-19T11:51:54Z</time>
      </trkpt>
      <trkpt lat="37.184786" lon="-8.911137">
        <ele>99.044</ele>
        <time>2018-08-19T11:52:26Z</time>
      </trkpt>
      <trkpt lat="37.183390" lon="-8.910768">
        <ele>102.357</ele>
        <time>2018-08-19T11:53:13Z</time>
      </trkpt>
      <trkpt lat="37.183238" lon="-8.911329">
        <ele>101.633</ele>
        <time>2018-08-19T11:54:21Z</time>
      </trkpt>
      <trkpt lat="37.183256" lon="-8.910677">
        <ele>102.323</ele>
        <time>2018-08-19T11:54:49Z</time>
      </trkpt>
      <trkpt lat="37.182050" lon="-8.909550">
        <ele>105.115</ele>
        <time>2018-08-19T11:55:29Z</time>
      </trkpt>
      <trkpt lat="37.181390" lon="-8.908574">
        <ele>97.808</ele>
        <time>2018-08-19T11:55:49Z</time>
      </trkpt>
      <trkpt lat="37.181203" lon="-8.908848">
        <ele>96.385</ele>
        <time>2018-08-19T11:56:00Z</time>
      </trkpt>
      <trkpt lat="37.181302" lon="-8.909144">
        <ele>96.290</ele>
        <time>2018-08-19T11:56:11Z</time>
      </trkpt>
      <trkpt lat="37.181087" lon="-8.909442">
        <ele>93.320</ele>
        <time>2018-08-19T11:57:28Z</time>
      </trkpt>
      <trkpt lat="37.181297" lon="-8.909152">
        <ele>92.268</ele>
        <time>2018-08-19T12:00:16Z</time>
      </trkpt>
      <trkpt lat="37.181198" lon="-8.908854">
        <ele>94.567</ele>
        <time>2018-08-19T12:00:28Z</time>
      </trkpt>
      <trkpt lat="37.181296" lon="-8.908512">
        <ele>97.940</ele>
        <time>2018-08-19T12:00:42Z</time>
      </trkpt>
      <trkpt lat="37.180865" lon="-8.908003">
        <ele>99.839</ele>
        <time>2018-08-19T12:01:06Z</time>
      </trkpt>
      <trkpt lat="37.180359" lon="-8.907910">
        <ele>98.722</ele>
        <time>2018-08-19T12:01:18Z</time>
      </trkpt>
      <trkpt lat="37.179966" lon="-8.908309">
        <ele>97.143</ele>
        <time>2018-08-19T12:01:31Z</time>
      </trkpt>
      <trkpt lat="37.179580" lon="-8.908468">
        <ele>95.864</ele>
        <time>2018-08-19T12:01:42Z</time>
      </trkpt>
      <trkpt lat="37.176747" lon="-8.909174">
        <ele>105.110</ele>
        <time>2018-08-19T12:03:18Z</time>
      </trkpt>
      <trkpt lat="37.176064" lon="-8.908785">
        <ele>106.708</ele>
        <time>2018-08-19T12:03:52Z</time>
      </trkpt>
      <trkpt lat="37.175632" lon="-8.907726">
        <ele>100.196</ele>
        <time>2018-08-19T12:04:11Z</time>
      </trkpt>
      <trkpt lat="37.174692" lon="-8.906402">
        <ele>102.961</ele>
        <time>2018-08-19T12:04:56Z</time>
      </trkpt>
      <trkpt lat="37.173475" lon="-8.906523">
        <ele>101.991</ele>
        <time>2018-08-19T12:05:31Z</time>
      </trkpt>
      <trkpt lat="37.173383" lon="-8.907288">
        <ele>100.139</ele>
        <time>2018-08-19T12:05:47Z</time>
      </trkpt>
      <trkpt lat="37.173116" lon="-8.907623">
        <ele>101.578</ele>
        <time>2018-08-19T12:07:08Z</time>
      </trkpt>
      <trkpt lat="37.173372" lon="-8.907295">
        <ele>101.891</ele>
        <time>2018-08-19T12:09:30Z</time>
      </trkpt>
      <trkpt lat="37.173363" lon="-8.906587">
        <ele>103.010</ele>
        <time>2018-08-19T12:09:52Z</time>
      </trkpt>
      <trkpt lat="37.172496" lon="-8.904863">
        <ele>112.063</ele>
        <time>2018-08-19T12:11:04Z</time>
      </trkpt>
      <trkpt lat="37.172042" lon="-8.904575">
        <ele>111.953</ele>
        <time>2018-08-19T12:11:22Z</time>
      </trkpt>
      <trkpt lat="37.171814" lon="-8.903321">
        <ele>110.304</ele>
        <time>2018-08-19T12:11:46Z</time>
      </trkpt>
      <trkpt lat="37.169294" lon="-8.901507">
        <ele>92.814</ele>
        <time>2018-08-19T12:12:43Z</time>
      </trkpt>
      <trkpt lat="37.168806" lon="-8.901396">
        <ele>90.308</ele>
        <time>2018-08-19T12:12:52Z</time>
      </trkpt>
      <trkpt lat="37.168533" lon="-8.901557">
        <ele>85.547</ele>
        <time>2018-08-19T12:32:38Z</time>
      </trkpt>
      <trkpt lat="37.168715" lon="-8.901174">
        <ele>85.632</ele>
        <time>2018-08-19T12:33:08Z</time>
      </trkpt>
      <trkpt lat="37.169644" lon="-8.900225">
        <ele>89.812</ele>
        <time>2018-08-19T12:33:49Z</time>
      </trkpt>
      <trkpt lat="37.170261" lon="-8.899939">
        <ele>89.390</ele>
        <time>2018-08-19T12:35:13Z</time>
      </trkpt>
      <trkpt lat="37.173110" lon="-8.899500">
        <ele>104.829</ele>
        <time>2018-08-19T12:37:14Z</time>
      </trkpt>
      <trkpt lat="37.174529" lon="-8.899630">
        <ele>107.912</ele>
        <time>2018-08-19T12:37:54Z</time>
      </trkpt>
      <trkpt lat="37.175144" lon="-8.899316">
        <ele>113.061</ele>
        <time>2018-08-19T12:38:16Z</time>
      </trkpt>
      <trkpt lat="37.175978" lon="-8.898061">
        <ele>108.034</ele>
        <time>2018-08-19T12:38:38Z</time>
      </trkpt>
      <trkpt lat="37.176971" lon="-8.897179">
        <ele>99.086</ele>
        <time>2018-08-19T12:38:54Z</time>
      </trkpt>
      <trkpt lat="37.177234" lon="-8.896694">
        <ele>93.960</ele>
        <time>2018-08-19T12:39:00Z</time>
      </trkpt>
      <trkpt lat="37.177529" lon="-8.895378">
        <ele>84.726</ele>
        <time>2018-08-19T12:39:13Z</time>
      </trkpt>
      <trkpt lat="37.177827" lon="-8.894969">
        <ele>84.208</ele>
        <time>2018-08-19T12:39:20Z</time>
      </trkpt>
      <trkpt lat="37.178435" lon="-8.894568">
        <ele>81.130</ele>
        <time>2018-08-19T12:39:31Z</time>
      </trkpt>
      <trkpt lat="37.178879" lon="-8.893663">
        <ele>81.225</ele>
        <time>2018-08-19T12:39:43Z</time>
      </trkpt>
      <trkpt lat="37.179373" lon="-8.893895">
        <ele>79.075</ele>
        <time>2018-08-19T12:39:52Z</time>
      </trkpt>
      <trkpt lat="37.180144" lon="-8.893917">
        <ele>78.483</ele>
        <time>2018-08-19T12:40:04Z</time>
      </trkpt>
      <trkpt lat="37.181195" lon="-8.894326">
        <ele>77.932</ele>
        <time>2018-08-19T12:40:22Z</time>
      </trkpt>
      <trkpt lat="37.181658" lon="-8.894139">
        <ele>79.365</ele>
        <time>2018-08-19T12:40:35Z</time>
      </trkpt>
      <trkpt lat="37.181683" lon="-8.893840">
        <ele>79.154</ele>
        <time>2018-08-19T12:40:46Z</time>
      </trkpt>
      <trkpt lat="37.180103" lon="-8.890551">
        <ele>96.277</ele>
        <time>2018-08-19T12:42:56Z</time>
      </trkpt>
      <trkpt lat="37.178491" lon="-8.888430">
        <ele>112.211</ele>
        <time>2018-08-19T12:44:47Z</time>
      </trkpt>
      <trkpt lat="37.172910" lon="-8.884179">
        <ele>109.621</ele>
        <time>2018-08-19T12:46:59Z</time>
      </trkpt>
      <trkpt lat="37.172418" lon="-8.883497">
        <ele>108.803</ele>
        <time>2018-08-19T12:47:16Z</time>
      </trkpt>
      <trkpt lat="37.171133" lon="-8.880722">
        <ele>120.408</ele>
        <time>2018-08-19T12:48:44Z</time>
      </trkpt>
      <trkpt lat="37.169850" lon="-8.880084">
        <ele>125.383</ele>
        <time>2018-08-19T12:49:30Z</time>
      </trkpt>
      <trkpt lat="37.169155" lon="-8.879575">
        <ele>125.458</ele>
        <time>2018-08-19T12:49:54Z</time>
      </trkpt>
      <trkpt lat="37.166375" lon="-8.876164">
        <ele>138.648</ele>
        <time>2018-08-19T12:53:41Z</time>
      </trkpt>
      <trkpt lat="37.165840" lon="-8.875831">
        <ele>138.966</ele>
        <time>2018-08-19T12:53:57Z</time>
      </trkpt>
      <trkpt lat="37.164626" lon="-8.875508">
        <ele>145.235</ele>
        <time>2018-08-19T12:54:35Z</time>
      </trkpt>
      <trkpt lat="37.163428" lon="-8.873846">
        <ele>146.878</ele>
        <time>2018-08-19T12:55:21Z</time>
      </trkpt>
      <trkpt lat="37.161658" lon="-8.873079">
        <ele>153.597</ele>
        <time>2018-08-19T12:56:19Z</time>
      </trkpt>
      <trkpt lat="37.159964" lon="-8.870313">
        <ele>166.330</ele>
        <time>2018-08-19T12:57:55Z</time>
      </trkpt>
      <trkpt lat="37.158560" lon="-8.869341">
        <ele>170.216</ele>
        <time>2018-08-19T12:58:55Z</time>
      </trkpt>
      <trkpt lat="37.157918" lon="-8.869162">
        <ele>174.476</ele>
        <time>2018-08-19T12:59:19Z</time>
      </trkpt>
      <trkpt lat="37.156455" lon="-8.869509">
        <ele>175.813</ele>
        <time>2018-08-19T12:59:59Z</time>
      </trkpt>
      <trkpt lat="37.153665" lon="-8.868901">
        <ele>179.708</ele>
        <time>2018-08-19T13:01:12Z</time>
      </trkpt>
      <trkpt lat="37.153171" lon="-8.869308">
        <ele>178.073</ele>
        <time>2018-08-19T13:01:26Z</time>
      </trkpt>
      <trkpt lat="37.152718" lon="-8.870519">
        <ele>180.918</ele>
        <time>2018-08-19T13:01:49Z</time>
      </trkpt>
      <trkpt lat="37.151666" lon="-8.871583">
        <ele>186.538</ele>
        <time>2018-08-19T13:02:19Z</time>
      </trkpt>
      <trkpt lat="37.151326" lon="-8.871686">
        <ele>186.796</ele>
        <time>2018-08-19T13:02:27Z</time>
      </trkpt>
      <trkpt lat="37.148454" lon="-8.871491">
        <ele>190.755</ele>
        <time>2018-08-19T13:03:49Z</time>
      </trkpt>
      <trkpt lat="37.147679" lon="-8.871725">
        <ele>191.498</ele>
        <time>2018-08-19T13:04:07Z</time>
      </trkpt>
      <trkpt lat="37.145431" lon="-8.873757">
        <ele>194.257</ele>
        <time>2018-08-19T13:04:59Z</time>
      </trkpt>
      <trkpt lat="37.142052" lon="-8.875117">
        <ele>188.780</ele>
        <time>2018-08-19T13:05:58Z</time>
      </trkpt>
      <trkpt lat="37.127235" lon="-8.884388">
        <ele>200.091</ele>
        <time>2018-08-19T13:12:00Z</time>
      </trkpt>
      <trkpt lat="37.124438" lon="-8.886948">
        <ele>193.481</ele>
        <time>2018-08-19T13:12:58Z</time>
      </trkpt>
      <trkpt lat="37.121492" lon="-8.890281">
        <ele>198.419</ele>
        <time>2018-08-19T13:15:43Z</time>
      </trkpt>
      <trkpt lat="37.103230" lon="-8.907788">
        <ele>186.808</ele>
        <time>2018-08-19T13:22:39Z</time>
      </trkpt>
      <trkpt lat="37.101426" lon="-8.909330">
        <ele>187.831</ele>
        <time>2018-08-19T13:23:16Z</time>
      </trkpt>
      <trkpt lat="37.096961" lon="-8.911189">
        <ele>188.636</ele>
        <time>2018-08-19T13:24:58Z</time>
      </trkpt>
      <trkpt lat="37.093666" lon="-8.912204">
        <ele>188.176</ele>
        <time>2018-08-19T13:26:04Z</time>
      </trkpt>
      <trkpt lat="37.092814" lon="-8.912349">
        <ele>188.124</ele>
        <time>2018-08-19T13:26:25Z</time>
      </trkpt>
      <trkpt lat="37.091956" lon="-8.912277">
        <ele>187.723</ele>
        <time>2018-08-19T13:26:47Z</time>
      </trkpt>
      <trkpt lat="37.086386" lon="-8.910989">
        <ele>160.336</ele>
        <time>2018-08-19T13:29:38Z</time>
      </trkpt>
      <trkpt lat="37.086905" lon="-8.911111">
        <ele>160.995</ele>
        <time>2018-08-19T13:29:55Z</time>
      </trkpt>
      <trkpt lat="37.087058" lon="-8.911274">
        <ele>161.448</ele>
        <time>2018-08-19T13:30:03Z</time>
      </trkpt>
      <trkpt lat="37.084642" lon="-8.911085">
        <ele>146.536</ele>
        <time>2018-08-19T13:30:35Z</time>
      </trkpt>
      <trkpt lat="37.084259" lon="-8.910948">
        <ele>147.917</ele>
        <time>2018-08-19T13:30:48Z</time>
      </trkpt>
      <trkpt lat="37.083875" lon="-8.912058">
        <ele>141.518</ele>
        <time>2018-08-19T13:31:06Z</time>
      </trkpt>
      <trkpt lat="37.083557" lon="-8.912440">
        <ele>139.708</ele>
        <time>2018-08-19T13:31:15Z</time>
      </trkpt>
      <trkpt lat="37.083217" lon="-8.912053">
        <ele>134.555</ele>
        <time>2018-08-19T13:49:49Z</time>
      </trkpt>
      <trkpt lat="37.081917" lon="-8.911846">
        <ele>142.670</ele>
        <time>2018-08-19T13:51:17Z</time>
      </trkpt>
      <trkpt lat="37.081265" lon="-8.911231">
        <ele>143.420</ele>
        <time>2018-08-19T13:52:20Z</time>
      </trkpt>
      <trkpt lat="37.081194" lon="-8.911476">
        <ele>141.978</ele>
        <time>2018-08-19T13:53:05Z</time>
      </trkpt>
      <trkpt lat="37.080876" lon="-8.911540">
        <ele>139.687</ele>
        <time>2018-08-19T13:53:14Z</time>
      </trkpt>
      <trkpt lat="37.079981" lon="-8.911433">
        <ele>140.270</ele>
        <time>2018-08-19T13:53:44Z</time>
      </trkpt>
      <trkpt lat="37.078809" lon="-8.913032">
        <ele>139.019</ele>
        <time>2018-08-19T13:54:18Z</time>
      </trkpt>
      <trkpt lat="37.077892" lon="-8.913960">
        <ele>139.012</ele>
        <time>2018-08-19T13:54:41Z</time>
      </trkpt>
      <trkpt lat="37.071497" lon="-8.918180">
        <ele>155.771</ele>
        <time>2018-08-19T13:58:02Z</time>
      </trkpt>
      <trkpt lat="37.069210" lon="-8.920207">
        <ele>151.041</ele>
        <time>2018-08-19T13:58:56Z</time>
      </trkpt>
      <trkpt lat="37.069546" lon="-8.919766">
        <ele>149.815</ele>
        <time>2018-08-19T14:00:55Z</time>
      </trkpt>
      <trkpt lat="37.071520" lon="-8.918074">
        <ele>158.008</ele>
        <time>2018-08-19T14:02:02Z</time>
      </trkpt>
      <trkpt lat="37.078009" lon="-8.913743">
        <ele>138.439</ele>
        <time>2018-08-19T14:06:29Z</time>
      </trkpt>
      <trkpt lat="37.078831" lon="-8.912846">
        <ele>138.434</ele>
        <time>2018-08-19T14:06:46Z</time>
      </trkpt>
      <trkpt lat="37.080127" lon="-8.910988">
        <ele>139.414</ele>
        <time>2018-08-19T14:07:26Z</time>
      </trkpt>
      <trkpt lat="37.080587" lon="-8.910592">
        <ele>140.032</ele>
        <time>2018-08-19T14:07:41Z</time>
      </trkpt>
      <trkpt lat="37.080765" lon="-8.911051">
        <ele>138.891</ele>
        <time>2018-08-19T14:07:49Z</time>
      </trkpt>
      <trkpt lat="37.081194" lon="-8.911386">
        <ele>137.894</ele>
        <time>2018-08-19T14:07:59Z</time>
      </trkpt>
      <trkpt lat="37.081175" lon="-8.911617">
        <ele>137.093</ele>
        <time>2018-08-19T14:08:03Z</time>
      </trkpt>
      <trkpt lat="37.080366" lon="-8.912099">
        <ele>133.276</ele>
        <time>2018-08-19T14:08:18Z</time>
      </trkpt>
      <trkpt lat="37.076004" lon="-8.915796">
        <ele>148.255</ele>
        <time>2018-08-19T14:10:42Z</time>
      </trkpt>
      <trkpt lat="37.074631" lon="-8.917320">
        <ele>155.307</ele>
        <time>2018-08-19T14:11:55Z</time>
      </trkpt>
      <trkpt lat="37.072367" lon="-8.918132">
        <ele>153.917</ele>
        <time>2018-08-19T14:12:54Z</time>
      </trkpt>
      <trkpt lat="37.069875" lon="-8.919853">
        <ele>144.108</ele>
        <time>2018-08-19T14:13:42Z</time>
      </trkpt>
      <trkpt lat="37.067974" lon="-8.922417">
        <ele>144.757</ele>
        <time>2018-08-19T14:14:30Z</time>
      </trkpt>
      <trkpt lat="37.067277" lon="-8.923577">
        <ele>139.142</ele>
        <time>2018-08-19T14:16:01Z</time>
      </trkpt>
      <trkpt lat="37.066482" lon="-8.927092">
        <ele>135.872</ele>
        <time>2018-08-19T14:16:48Z</time>
      </trkpt>
      <trkpt lat="37.065831" lon="-8.927837">
        <ele>135.470</ele>
        <time>2018-08-19T14:17:04Z</time>
      </trkpt>
      <trkpt lat="37.065330" lon="-8.927917">
        <ele>135.999</ele>
        <time>2018-08-19T14:17:14Z</time>
      </trkpt>
      <trkpt lat="37.065052" lon="-8.928167">
        <ele>133.942</ele>
        <time>2018-08-19T14:17:20Z</time>
      </trkpt>
      <trkpt lat="37.061815" lon="-8.932782">
        <ele>137.151</ele>
        <time>2018-08-19T14:19:23Z</time>
      </trkpt>
      <trkpt lat="37.060805" lon="-8.933789">
        <ele>136.134</ele>
        <time>2018-08-19T14:19:46Z</time>
      </trkpt>
      <trkpt lat="37.058410" lon="-8.938554">
        <ele>145.234</ele>
        <time>2018-08-19T14:21:42Z</time>
      </trkpt>
      <trkpt lat="37.057791" lon="-8.940690">
        <ele>139.655</ele>
        <time>2018-08-19T14:22:49Z</time>
      </trkpt>
      <trkpt lat="37.055832" lon="-8.943893">
        <ele>138.310</ele>
        <time>2018-08-19T14:23:44Z</time>
      </trkpt>
      <trkpt lat="37.054529" lon="-8.947611">
        <ele>139.008</ele>
        <time>2018-08-19T14:24:47Z</time>
      </trkpt>
      <trkpt lat="37.051023" lon="-8.954193">
        <ele>130.865</ele>
        <time>2018-08-19T14:26:37Z</time>
      </trkpt>
      <trkpt lat="37.051123" lon="-8.954513">
        <ele>130.930</ele>
        <time>2018-08-19T14:26:47Z</time>
      </trkpt>
      <trkpt lat="37.053365" lon="-8.956529">
        <ele>141.060</ele>
        <time>2018-08-19T14:28:47Z</time>
      </trkpt>
      <trkpt lat="37.054039" lon="-8.956851">
        <ele>141.528</ele>
        <time>2018-08-19T14:29:09Z</time>
      </trkpt>
      <trkpt lat="37.054120" lon="-8.957010">
        <ele>141.917</ele>
        <time>2018-08-19T14:29:15Z</time>
      </trkpt>
      <trkpt lat="37.052001" lon="-8.960346">
        <ele>145.720</ele>
        <time>2018-08-19T14:31:14Z</time>
      </trkpt>
      <trkpt lat="37.049480" lon="-8.966060">
        <ele>134.469</ele>
        <time>2018-08-19T14:32:45Z</time>
      </trkpt>
      <trkpt lat="37.048734" lon="-8.966877">
        <ele>137.022</ele>
        <time>2018-08-19T14:33:13Z</time>
      </trkpt>
      <trkpt lat="37.048933" lon="-8.967156">
        <ele>138.178</ele>
        <time>2018-08-19T14:33:30Z</time>
      </trkpt>
      <trkpt lat="37.048450" lon="-8.966920">
        <ele>138.233</ele>
        <time>2018-08-19T14:34:51Z</time>
      </trkpt>
      <trkpt lat="37.030744" lon="-8.968398">
        <ele>116.026</ele>
        <time>2018-08-19T14:40:51Z</time>
      </trkpt>
      <trkpt lat="37.030102" lon="-8.968649">
        <ele>115.808</ele>
        <time>2018-08-19T14:41:07Z</time>
      </trkpt>
      <trkpt lat="37.029722" lon="-8.969061">
        <ele>113.929</ele>
        <time>2018-08-19T14:41:17Z</time>
      </trkpt>
      <trkpt lat="37.028765" lon="-8.971356">
        <ele>114.824</ele>
        <time>2018-08-19T14:41:52Z</time>
      </trkpt>
      <trkpt lat="37.028401" lon="-8.971532">
        <ele>114.374</ele>
        <time>2018-08-19T14:41:59Z</time>
      </trkpt>
      <trkpt lat="37.027561" lon="-8.971521">
        <ele>113.222</ele>
        <time>2018-08-19T14:42:16Z</time>
      </trkpt>
      <trkpt lat="37.027300" lon="-8.975674">
        <ele>119.651</ele>
        <time>2018-08-19T14:43:21Z</time>
      </trkpt>
      <trkpt lat="37.028306" lon="-8.981627">
        <ele>126.624</ele>
        <time>2018-08-19T14:45:05Z</time>
      </trkpt>
      <trkpt lat="37.028294" lon="-8.983314">
        <ele>126.623</ele>
        <time>2018-08-19T14:45:27Z</time>
      </trkpt>
      <trkpt lat="37.027225" lon="-8.986422">
        <ele>125.246</ele>
        <time>2018-08-19T14:46:14Z</time>
      </trkpt>
      <trkpt lat="37.023426" lon="-8.995386">
        <ele>125.752</ele>
        <time>2018-08-19T14:49:21Z</time>
      </trkpt>
      <trkpt lat="37.023670" lon="-8.995754">
        <ele>127.653</ele>
        <time>2018-08-19T14:55:33Z</time>
      </trkpt>
      <trkpt lat="37.023435" lon="-8.995510">
        <ele>127.708</ele>
        <time>2018-08-19T14:56:29Z</time>
      </trkpt>
      <trkpt lat="37.023532" lon="-8.995195">
        <ele>127.708</ele>
        <time>2018-08-19T14:56:37Z</time>
      </trkpt>
      <trkpt lat="37.026442" lon="-8.988225">
        <ele>119.447</ele>
        <time>2018-08-19T14:58:42Z</time>
      </trkpt>
      <trkpt lat="37.027401" lon="-8.985455">
        <ele>118.042</ele>
        <time>2018-08-19T14:59:38Z</time>
      </trkpt>
      <trkpt lat="37.027482" lon="-8.985563">
        <ele>119.982</ele>
        <time>2018-08-19T15:00:29Z</time>
      </trkpt>
      <trkpt lat="37.027623" lon="-8.985398">
        <ele>118.910</ele>
        <time>2018-08-19T15:00:34Z</time>
      </trkpt>
      <trkpt lat="37.028211" lon="-8.983876">
        <ele>116.339</ele>
        <time>2018-08-19T15:01:00Z</time>
      </trkpt>
      <trkpt lat="37.028176" lon="-8.980992">
        <ele>120.482</ele>
        <time>2018-08-19T15:01:54Z</time>
      </trkpt>
      <trkpt lat="37.027246" lon="-8.975652">
        <ele>117.471</ele>
        <time>2018-08-19T15:03:26Z</time>
      </trkpt>
      <trkpt lat="37.027696" lon="-8.969240">
        <ele>110.824</ele>
        <time>2018-08-19T15:04:56Z</time>
      </trkpt>
      <trkpt lat="37.027601" lon="-8.963630">
        <ele>108.233</ele>
        <time>2018-08-19T15:06:34Z</time>
      </trkpt>
      <trkpt lat="37.027258" lon="-8.962977">
        <ele>107.623</ele>
        <time>2018-08-19T15:06:48Z</time>
      </trkpt>
      <trkpt lat="37.018474" lon="-8.956131">
        <ele>87.715</ele>
        <time>2018-08-19T15:09:59Z</time>
      </trkpt>
      <trkpt lat="37.017929" lon="-8.955484">
        <ele>86.508</ele>
        <time>2018-08-19T15:10:14Z</time>
      </trkpt>
      <trkpt lat="37.018701" lon="-8.953365">
        <ele>85.475</ele>
        <time>2018-08-19T15:10:50Z</time>
      </trkpt>
      <trkpt lat="37.019242" lon="-8.953050">
        <ele>87.460</ele>
        <time>2018-08-19T15:11:02Z</time>
      </trkpt>
      <trkpt lat="37.019700" lon="-8.951184">
        <ele>84.550</ele>
        <time>2018-08-19T15:11:35Z</time>
      </trkpt>
      <trkpt lat="37.021916" lon="-8.946667">
        <ele>88.368</ele>
        <time>2018-08-19T15:13:16Z</time>
      </trkpt>
      <trkpt lat="37.022904" lon="-8.945541">
        <ele>91.827</ele>
        <time>2018-08-19T15:20:11Z</time>
      </trkpt>
      <trkpt lat="37.023525" lon="-8.945441">
        <ele>92.520</ele>
        <time>2018-08-19T15:21:43Z</time>
      </trkpt>
      <trkpt lat="37.023792" lon="-8.945145">
        <ele>92.589</ele>
        <time>2018-08-19T15:22:24Z</time>
      </trkpt>
      <trkpt lat="37.023410" lon="-8.945489">
        <ele>90.822</ele>
        <time>2018-08-19T15:22:51Z</time>
      </trkpt>
      <trkpt lat="37.023396" lon="-8.945118">
        <ele>91.058</ele>
        <time>2018-08-19T15:24:13Z</time>
      </trkpt>
      <trkpt lat="37.023391" lon="-8.945387">
        <ele>89.752</ele>
        <time>2018-08-19T15:27:09Z</time>
      </trkpt>
      <trkpt lat="37.023899" lon="-8.945797">
        <ele>99.817</ele>
        <time>2018-08-19T15:27:50Z</time>
      </trkpt>
      <trkpt lat="37.023981" lon="-8.946016">
        <ele>82.583</ele>
        <time>2018-08-20T08:58:22Z</time>
      </trkpt>
      <trkpt lat="37.023765" lon="-8.946028">
        <ele>82.525</ele>
        <time>2018-08-20T08:59:15Z</time>
      </trkpt>
      <trkpt lat="37.023334" lon="-8.945560">
        <ele>82.517</ele>
        <time>2018-08-20T09:00:16Z</time>
      </trkpt>
      <trkpt lat="37.022944" lon="-8.945510">
        <ele>83.908</ele>
        <time>2018-08-20T09:01:07Z</time>
      </trkpt>
      <trkpt lat="37.022588" lon="-8.945693">
        <ele>81.040</ele>
        <time>2018-08-20T09:03:18Z</time>
      </trkpt>
      <trkpt lat="37.022150" lon="-8.946340">
        <ele>77.365</ele>
        <time>2018-08-20T09:03:33Z</time>
      </trkpt>
      <trkpt lat="37.019659" lon="-8.951313">
        <ele>75.655</ele>
        <time>2018-08-20T09:04:55Z</time>
      </trkpt>
      <trkpt lat="37.019250" lon="-8.953079">
        <ele>73.477</ele>
        <time>2018-08-20T09:05:24Z</time>
      </trkpt>
      <trkpt lat="37.018655" lon="-8.953409">
        <ele>74.711</ele>
        <time>2018-08-20T09:05:37Z</time>
      </trkpt>
      <trkpt lat="37.017902" lon="-8.955410">
        <ele>78.289</ele>
        <time>2018-08-20T09:06:18Z</time>
      </trkpt>
      <trkpt lat="37.017663" lon="-8.955485">
        <ele>78.916</ele>
        <time>2018-08-20T09:06:28Z</time>
      </trkpt>
      <trkpt lat="37.009614" lon="-8.948635">
        <ele>88.062</ele>
        <time>2018-08-20T09:10:10Z</time>
      </trkpt>
      <trkpt lat="37.008992" lon="-8.948810">
        <ele>85.652</ele>
        <time>2018-08-20T09:10:42Z</time>
      </trkpt>
      <trkpt lat="37.009536" lon="-8.948593">
        <ele>85.253</ele>
        <time>2018-08-20T09:12:02Z</time>
      </trkpt>
      <trkpt lat="37.008208" lon="-8.946370">
        <ele>88.908</ele>
        <time>2018-08-20T09:13:00Z</time>
      </trkpt>
      <trkpt lat="37.007579" lon="-8.944960">
        <ele>90.708</ele>
        <time>2018-08-20T09:13:41Z</time>
      </trkpt>
      <trkpt lat="37.007637" lon="-8.944687">
        <ele>90.457</ele>
        <time>2018-08-20T09:13:46Z</time>
      </trkpt>
      <trkpt lat="37.007861" lon="-8.944816">
        <ele>90.692</ele>
        <time>2018-08-20T09:13:55Z</time>
      </trkpt>
      <trkpt lat="37.007842" lon="-8.945008">
        <ele>90.122</ele>
        <time>2018-08-20T09:13:59Z</time>
      </trkpt>
      <trkpt lat="37.007652" lon="-8.945048">
        <ele>88.564</ele>
        <time>2018-08-20T09:14:04Z</time>
      </trkpt>
      <trkpt lat="37.007305" lon="-8.942065">
        <ele>88.218</ele>
        <time>2018-08-20T09:14:59Z</time>
      </trkpt>
      <trkpt lat="37.007112" lon="-8.942080">
        <ele>90.616</ele>
        <time>2018-08-20T09:52:36Z</time>
      </trkpt>
      <trkpt lat="37.007473" lon="-8.941844">
        <ele>90.273</ele>
        <time>2018-08-20T09:53:05Z</time>
      </trkpt>
      <trkpt lat="37.008429" lon="-8.943058">
        <ele>93.179</ele>
        <time>2018-08-20T09:53:43Z</time>
      </trkpt>
      <trkpt lat="37.009301" lon="-8.943300">
        <ele>90.067</ele>
        <time>2018-08-20T09:54:03Z</time>
      </trkpt>
      <trkpt lat="37.009985" lon="-8.943779">
        <ele>89.081</ele>
        <time>2018-08-20T09:54:28Z</time>
      </trkpt>
      <trkpt lat="37.022478" lon="-8.937789">
        <ele>77.919</ele>
        <time>2018-08-20T09:58:44Z</time>
      </trkpt>
      <trkpt lat="37.024781" lon="-8.937738">
        <ele>88.008</ele>
        <time>2018-08-20T09:59:54Z</time>
      </trkpt>
      <trkpt lat="37.025650" lon="-8.937587">
        <ele>89.058</ele>
        <time>2018-08-20T10:00:18Z</time>
      </trkpt>
      <trkpt lat="37.027013" lon="-8.937160">
        <ele>90.413</ele>
        <time>2018-08-20T10:00:57Z</time>
      </trkpt>
      <trkpt lat="37.027247" lon="-8.936825">
        <ele>91.683</ele>
        <time>2018-08-20T10:01:09Z</time>
      </trkpt>
      <trkpt lat="37.028131" lon="-8.936704">
        <ele>92.645</ele>
        <time>2018-08-20T10:01:30Z</time>
      </trkpt>
      <trkpt lat="37.031028" lon="-8.935713">
        <ele>97.269</ele>
        <time>2018-08-20T10:02:51Z</time>
      </trkpt>
      <trkpt lat="37.048486" lon="-8.928514">
        <ele>109.927</ele>
        <time>2018-08-20T10:10:05Z</time>
      </trkpt>
      <trkpt lat="37.052725" lon="-8.924465">
        <ele>114.344</ele>
        <time>2018-08-20T10:12:10Z</time>
      </trkpt>
      <trkpt lat="37.053140" lon="-8.924667">
        <ele>114.210</ele>
        <time>2018-08-20T10:12:31Z</time>
      </trkpt>
      <trkpt lat="37.053828" lon="-8.924205">
        <ele>119.024</ele>
        <time>2018-08-20T10:12:58Z</time>
      </trkpt>
      <trkpt lat="37.056897" lon="-8.924473">
        <ele>124.004</ele>
        <time>2018-08-20T10:14:19Z</time>
      </trkpt>
      <trkpt lat="37.060767" lon="-8.923147">
        <ele>120.614</ele>
        <time>2018-08-20T10:15:33Z</time>
      </trkpt>
      <trkpt lat="37.066352" lon="-8.922890">
        <ele>131.308</ele>
        <time>2018-08-20T10:17:49Z</time>
      </trkpt>
      <trkpt lat="37.069818" lon="-8.919864">
        <ele>138.794</ele>
        <time>2018-08-20T10:19:59Z</time>
      </trkpt>
      <trkpt lat="37.069812" lon="-8.919600">
        <ele>138.749</ele>
        <time>2018-08-20T10:20:07Z</time>
      </trkpt>
      <trkpt lat="37.069275" lon="-8.918894">
        <ele>139.349</ele>
        <time>2018-08-20T10:20:27Z</time>
      </trkpt>
      <trkpt lat="37.068045" lon="-8.918849">
        <ele>133.361</ele>
        <time>2018-08-20T10:21:14Z</time>
      </trkpt>
      <trkpt lat="37.069280" lon="-8.918899">
        <ele>139.725</ele>
        <time>2018-08-20T10:22:45Z</time>
      </trkpt>
      <trkpt lat="37.069943" lon="-8.919711">
        <ele>140.823</ele>
        <time>2018-08-20T10:23:14Z</time>
      </trkpt>
      <trkpt lat="37.072357" lon="-8.918122">
        <ele>148.320</ele>
        <time>2018-08-20T10:24:42Z</time>
      </trkpt>
      <trkpt lat="37.074466" lon="-8.917407">
        <ele>151.186</ele>
        <time>2018-08-20T10:25:44Z</time>
      </trkpt>
      <trkpt lat="37.075741" lon="-8.916009">
        <ele>144.541</ele>
        <time>2018-08-20T10:26:08Z</time>
      </trkpt>
      <trkpt lat="37.080434" lon="-8.912042">
        <ele>126.081</ele>
        <time>2018-08-20T10:28:08Z</time>
      </trkpt>
      <trkpt lat="37.081227" lon="-8.911169">
        <ele>131.609</ele>
        <time>2018-08-20T10:28:43Z</time>
      </trkpt>
      <trkpt lat="37.081938" lon="-8.909467">
        <ele>140.308</ele>
        <time>2018-08-20T10:30:14Z</time>
      </trkpt>
      <trkpt lat="37.082000" lon="-8.908921">
        <ele>143.626</ele>
        <time>2018-08-20T10:31:23Z</time>
      </trkpt>
      <trkpt lat="37.082585" lon="-8.909226">
        <ele>143.831</ele>
        <time>2018-08-20T10:32:32Z</time>
      </trkpt>
      <trkpt lat="37.082143" lon="-8.909036">
        <ele>146.781</ele>
        <time>2018-08-20T10:33:08Z</time>
      </trkpt>
      <trkpt lat="37.082069" lon="-8.908841">
        <ele>147.833</ele>
        <time>2018-08-20T10:33:12Z</time>
      </trkpt>
      <trkpt lat="37.082548" lon="-8.907627">
        <ele>139.737</ele>
        <time>2018-08-20T10:33:32Z</time>
      </trkpt>
      <trkpt lat="37.082989" lon="-8.907532">
        <ele>139.685</ele>
        <time>2018-08-20T10:33:41Z</time>
      </trkpt>
      <trkpt lat="37.084202" lon="-8.907936">
        <ele>138.492</ele>
        <time>2018-08-20T10:34:05Z</time>
      </trkpt>
      <trkpt lat="37.084692" lon="-8.908471">
        <ele>138.118</ele>
        <time>2018-08-20T10:34:18Z</time>
      </trkpt>
      <trkpt lat="37.085143" lon="-8.909501">
        <ele>141.479</ele>
        <time>2018-08-20T10:34:42Z</time>
      </trkpt>
      <trkpt lat="37.085378" lon="-8.909529">
        <ele>142.005</ele>
        <time>2018-08-20T10:35:13Z</time>
      </trkpt>
      <trkpt lat="37.085632" lon="-8.907761">
        <ele>143.825</ele>
        <time>2018-08-20T10:38:15Z</time>
      </trkpt>
      <trkpt lat="37.086176" lon="-8.906200">
        <ele>137.408</ele>
        <time>2018-08-20T10:38:45Z</time>
      </trkpt>
      <trkpt lat="37.088378" lon="-8.902380">
        <ele>134.779</ele>
        <time>2018-08-20T10:40:11Z</time>
      </trkpt>
      <trkpt lat="37.088272" lon="-8.901085">
        <ele>137.494</ele>
        <time>2018-08-20T10:40:48Z</time>
      </trkpt>
      <trkpt lat="37.087966" lon="-8.900532">
        <ele>140.184</ele>
        <time>2018-08-20T10:41:13Z</time>
      </trkpt>
      <trkpt lat="37.087663" lon="-8.899282">
        <ele>135.296</ele>
        <time>2018-08-20T10:41:51Z</time>
      </trkpt>
      <trkpt lat="37.087809" lon="-8.898236">
        <ele>131.550</ele>
        <time>2018-08-20T10:42:05Z</time>
      </trkpt>
      <trkpt lat="37.087452" lon="-8.897660">
        <ele>130.288</ele>
        <time>2018-08-20T10:42:21Z</time>
      </trkpt>
      <trkpt lat="37.087197" lon="-8.896838">
        <ele>131.455</ele>
        <time>2018-08-20T10:42:38Z</time>
      </trkpt>
      <trkpt lat="37.086784" lon="-8.896237">
        <ele>129.441</ele>
        <time>2018-08-20T10:42:51Z</time>
      </trkpt>
      <trkpt lat="37.086209" lon="-8.895800">
        <ele>127.562</ele>
        <time>2018-08-20T10:43:02Z</time>
      </trkpt>
      <trkpt lat="37.086147" lon="-8.895350">
        <ele>127.283</ele>
        <time>2018-08-20T10:43:10Z</time>
      </trkpt>
      <trkpt lat="37.086369" lon="-8.894361">
        <ele>125.511</ele>
        <time>2018-08-20T10:43:34Z</time>
      </trkpt>
      <trkpt lat="37.085928" lon="-8.893841">
        <ele>122.108</ele>
        <time>2018-08-20T10:43:44Z</time>
      </trkpt>
      <trkpt lat="37.085329" lon="-8.892667">
        <ele>128.038</ele>
        <time>2018-08-20T10:44:29Z</time>
      </trkpt>
      <trkpt lat="37.084576" lon="-8.891895">
        <ele>123.673</ele>
        <time>2018-08-20T10:44:50Z</time>
      </trkpt>
      <trkpt lat="37.084176" lon="-8.890798">
        <ele>116.783</ele>
        <time>2018-08-20T10:45:09Z</time>
      </trkpt>
      <trkpt lat="37.084016" lon="-8.889706">
        <ele>121.825</ele>
        <time>2018-08-20T10:46:07Z</time>
      </trkpt>
      <trkpt lat="37.083233" lon="-8.889710">
        <ele>120.399</ele>
        <time>2018-08-20T10:46:24Z</time>
      </trkpt>
      <trkpt lat="37.082728" lon="-8.889946">
        <ele>115.747</ele>
        <time>2018-08-20T10:46:49Z</time>
      </trkpt>
      <trkpt lat="37.080814" lon="-8.889444">
        <ele>119.064</ele>
        <time>2018-08-20T10:52:48Z</time>
      </trkpt>
      <trkpt lat="37.080335" lon="-8.889014">
        <ele>123.210</ele>
        <time>2018-08-20T10:53:21Z</time>
      </trkpt>
      <trkpt lat="37.079373" lon="-8.887620">
        <ele>123.823</ele>
        <time>2018-08-20T10:54:17Z</time>
      </trkpt>
      <trkpt lat="37.079436" lon="-8.887017">
        <ele>126.483</ele>
        <time>2018-08-20T10:54:46Z</time>
      </trkpt>
      <trkpt lat="37.079668" lon="-8.886521">
        <ele>130.011</ele>
        <time>2018-08-20T10:55:14Z</time>
      </trkpt>
      <trkpt lat="37.081221" lon="-8.885038">
        <ele>142.508</ele>
        <time>2018-08-20T10:56:47Z</time>
      </trkpt>
      <trkpt lat="37.081352" lon="-8.883749">
        <ele>142.654</ele>
        <time>2018-08-20T10:57:24Z</time>
      </trkpt>
      <trkpt lat="37.080814" lon="-8.882503">
        <ele>149.259</ele>
        <time>2018-08-20T10:58:07Z</time>
      </trkpt>
      <trkpt lat="37.079957" lon="-8.881760">
        <ele>157.559</ele>
        <time>2018-08-20T10:59:27Z</time>
      </trkpt>
      <trkpt lat="37.079777" lon="-8.880260">
        <ele>163.191</ele>
        <time>2018-08-20T11:00:41Z</time>
      </trkpt>
      <trkpt lat="37.079605" lon="-8.879817">
        <ele>166.525</ele>
        <time>2018-08-20T11:00:57Z</time>
      </trkpt>
      <trkpt lat="37.078897" lon="-8.879348">
        <ele>165.623</ele>
        <time>2018-08-20T11:01:21Z</time>
      </trkpt>
      <trkpt lat="37.078325" lon="-8.878589">
        <ele>158.750</ele>
        <time>2018-08-20T11:01:34Z</time>
      </trkpt>
      <trkpt lat="37.077994" lon="-8.878048">
        <ele>155.026</ele>
        <time>2018-08-20T11:01:42Z</time>
      </trkpt>
      <trkpt lat="37.078159" lon="-8.877685">
        <ele>150.195</ele>
        <time>2018-08-20T11:01:53Z</time>
      </trkpt>
      <trkpt lat="37.077598" lon="-8.877088">
        <ele>145.449</ele>
        <time>2018-08-20T11:02:03Z</time>
      </trkpt>
      <trkpt lat="37.076727" lon="-8.875764">
        <ele>128.723</ele>
        <time>2018-08-20T11:02:18Z</time>
      </trkpt>
      <trkpt lat="37.075356" lon="-8.875526">
        <ele>119.408</ele>
        <time>2018-08-20T11:02:35Z</time>
      </trkpt>
      <trkpt lat="37.075035" lon="-8.875187">
        <ele>119.141</ele>
        <time>2018-08-20T11:02:42Z</time>
      </trkpt>
      <trkpt lat="37.074438" lon="-8.875038">
        <ele>119.446</ele>
        <time>2018-08-20T11:02:53Z</time>
      </trkpt>
      <trkpt lat="37.073528" lon="-8.875098">
        <ele>119.656</ele>
        <time>2018-08-20T11:06:27Z</time>
      </trkpt>
      <trkpt lat="37.073724" lon="-8.874801">
        <ele>116.548</ele>
        <time>2018-08-20T11:07:24Z</time>
      </trkpt>
      <trkpt lat="37.073751" lon="-8.874169">
        <ele>110.242</ele>
        <time>2018-08-20T11:08:36Z</time>
      </trkpt>
      <trkpt lat="37.072849" lon="-8.873323">
        <ele>106.170</ele>
        <time>2018-08-20T11:09:14Z</time>
      </trkpt>
      <trkpt lat="37.072447" lon="-8.872564">
        <ele>109.917</ele>
        <time>2018-08-20T11:09:45Z</time>
      </trkpt>
      <trkpt lat="37.071720" lon="-8.872551">
        <ele>110.373</ele>
        <time>2018-08-20T11:10:09Z</time>
      </trkpt>
      <trkpt lat="37.070979" lon="-8.872739">
        <ele>108.286</ele>
        <time>2018-08-20T11:10:26Z</time>
      </trkpt>
      <trkpt lat="37.070318" lon="-8.872375">
        <ele>104.060</ele>
        <time>2018-08-20T11:10:38Z</time>
      </trkpt>
      <trkpt lat="37.068513" lon="-8.872132">
        <ele>94.226</ele>
        <time>2018-08-20T11:11:38Z</time>
      </trkpt>
      <trkpt lat="37.067971" lon="-8.871856">
        <ele>97.908</ele>
        <time>2018-08-20T11:11:59Z</time>
      </trkpt>
      <trkpt lat="37.068001" lon="-8.871636">
        <ele>101.580</ele>
        <time>2018-08-20T11:12:33Z</time>
      </trkpt>
      <trkpt lat="37.067609" lon="-8.870999">
        <ele>98.985</ele>
        <time>2018-08-20T11:12:59Z</time>
      </trkpt>
      <trkpt lat="37.067286" lon="-8.869670">
        <ele>102.985</ele>
        <time>2018-08-20T11:13:37Z</time>
      </trkpt>
      <trkpt lat="37.066405" lon="-8.868532">
        <ele>111.657</ele>
        <time>2018-08-20T11:14:47Z</time>
      </trkpt>
      <trkpt lat="37.066569" lon="-8.867556">
        <ele>119.771</ele>
        <time>2018-08-20T11:15:40Z</time>
      </trkpt>
      <trkpt lat="37.065903" lon="-8.865365">
        <ele>125.859</ele>
        <time>2018-08-20T11:17:16Z</time>
      </trkpt>
      <trkpt lat="37.066326" lon="-8.864438">
        <ele>126.216</ele>
        <time>2018-08-20T11:17:38Z</time>
      </trkpt>
      <trkpt lat="37.066865" lon="-8.862068">
        <ele>109.892</ele>
        <time>2018-08-20T11:18:05Z</time>
      </trkpt>
      <trkpt lat="37.067595" lon="-8.861157">
        <ele>101.536</ele>
        <time>2018-08-20T11:18:16Z</time>
      </trkpt>
      <trkpt lat="37.067679" lon="-8.860766">
        <ele>99.117</ele>
        <time>2018-08-20T11:18:20Z</time>
      </trkpt>
      <trkpt lat="37.067360" lon="-8.859929">
        <ele>92.818</ele>
        <time>2018-08-20T11:18:29Z</time>
      </trkpt>
      <trkpt lat="37.067453" lon="-8.858267">
        <ele>78.808</ele>
        <time>2018-08-20T11:18:43Z</time>
      </trkpt>
      <trkpt lat="37.067344" lon="-8.857816">
        <ele>76.615</ele>
        <time>2018-08-20T11:18:49Z</time>
      </trkpt>
      <trkpt lat="37.067073" lon="-8.857471">
        <ele>76.760</ele>
        <time>2018-08-20T11:18:56Z</time>
      </trkpt>
      <trkpt lat="37.067990" lon="-8.856061">
        <ele>83.930</ele>
        <time>2018-08-20T11:20:04Z</time>
      </trkpt>
      <trkpt lat="37.068026" lon="-8.854635">
        <ele>94.642</ele>
        <time>2018-08-20T11:21:24Z</time>
      </trkpt>
      <trkpt lat="37.068232" lon="-8.853790">
        <ele>100.126</ele>
        <time>2018-08-20T11:22:13Z</time>
      </trkpt>
      <trkpt lat="37.069126" lon="-8.852927">
        <ele>102.124</ele>
        <time>2018-08-20T11:22:55Z</time>
      </trkpt>
      <trkpt lat="37.069545" lon="-8.852230">
        <ele>99.741</ele>
        <time>2018-08-20T11:23:08Z</time>
      </trkpt>
      <trkpt lat="37.071711" lon="-8.850144">
        <ele>88.947</ele>
        <time>2018-08-20T11:23:50Z</time>
      </trkpt>
      <trkpt lat="37.071985" lon="-8.849084">
        <ele>85.082</ele>
        <time>2018-08-20T11:24:01Z</time>
      </trkpt>
      <trkpt lat="37.073124" lon="-8.846871">
        <ele>83.943</ele>
        <time>2018-08-20T11:24:37Z</time>
      </trkpt>
      <trkpt lat="37.073631" lon="-8.846676">
        <ele>83.917</ele>
        <time>2018-08-20T11:24:51Z</time>
      </trkpt>
      <trkpt lat="37.073224" lon="-8.844316">
        <ele>92.008</ele>
        <time>2018-08-20T11:26:07Z</time>
      </trkpt>
      <trkpt lat="37.073223" lon="-8.843596">
        <ele>99.090</ele>
        <time>2018-08-20T11:26:45Z</time>
      </trkpt>
      <trkpt lat="37.073297" lon="-8.842913">
        <ele>98.185</ele>
        <time>2018-08-20T11:27:11Z</time>
      </trkpt>
      <trkpt lat="37.073490" lon="-8.842575">
        <ele>99.075</ele>
        <time>2018-08-20T11:28:51Z</time>
      </trkpt>
      <trkpt lat="37.073374" lon="-8.842629">
        <ele>101.767</ele>
        <time>2018-08-20T11:29:29Z</time>
      </trkpt>
      <trkpt lat="37.073653" lon="-8.842752">
        <ele>104.811</ele>
        <time>2018-08-20T11:30:02Z</time>
      </trkpt>
      <trkpt lat="37.073368" lon="-8.842762">
        <ele>108.799</ele>
        <time>2018-08-20T11:35:14Z</time>
      </trkpt>
      <trkpt lat="37.072982" lon="-8.842538">
        <ele>100.486</ele>
        <time>2018-08-20T11:36:36Z</time>
      </trkpt>
      <trkpt lat="37.072143" lon="-8.841409">
        <ele>97.552</ele>
        <time>2018-08-20T11:37:15Z</time>
      </trkpt>
      <trkpt lat="37.072932" lon="-8.842463">
        <ele>99.177</ele>
        <time>2018-08-20T11:38:14Z</time>
      </trkpt>
      <trkpt lat="37.073312" lon="-8.842593">
        <ele>100.161</ele>
        <time>2018-08-20T11:38:30Z</time>
      </trkpt>
      <trkpt lat="37.073351" lon="-8.841965">
        <ele>105.227</ele>
        <time>2018-08-20T11:38:52Z</time>
      </trkpt>
      <trkpt lat="37.072123" lon="-8.840772">
        <ele>104.308</ele>
        <time>2018-08-20T11:39:33Z</time>
      </trkpt>
      <trkpt lat="37.070452" lon="-8.838417">
        <ele>120.429</ele>
        <time>2018-08-20T11:56:24Z</time>
      </trkpt>
      <trkpt lat="37.070319" lon="-8.837961">
        <ele>124.634</ele>
        <time>2018-08-20T11:56:57Z</time>
      </trkpt>
      <trkpt lat="37.070401" lon="-8.834207">
        <ele>123.654</ele>
        <time>2018-08-20T11:58:34Z</time>
      </trkpt>
      <trkpt lat="37.070283" lon="-8.833605">
        <ele>123.456</ele>
        <time>2018-08-20T11:58:45Z</time>
      </trkpt>
      <trkpt lat="37.066980" lon="-8.830144">
        <ele>125.470</ele>
        <time>2018-08-20T12:00:26Z</time>
      </trkpt>
      <trkpt lat="37.066260" lon="-8.829702">
        <ele>118.968</ele>
        <time>2018-08-20T12:01:25Z</time>
      </trkpt>
      <trkpt lat="37.066013" lon="-8.829395">
        <ele>113.795</ele>
        <time>2018-08-20T12:01:32Z</time>
      </trkpt>
      <trkpt lat="37.065930" lon="-8.828798">
        <ele>104.221</ele>
        <time>2018-08-20T12:02:30Z</time>
      </trkpt>
      <trkpt lat="37.066088" lon="-8.826340">
        <ele>69.956</ele>
        <time>2018-08-20T12:04:00Z</time>
      </trkpt>
      <trkpt lat="37.066456" lon="-8.825693">
        <ele>64.659</ele>
        <time>2018-08-20T12:04:25Z</time>
      </trkpt>
      <trkpt lat="37.066631" lon="-8.825647">
        <ele>65.214</ele>
        <time>2018-08-20T12:05:29Z</time>
      </trkpt>
      <trkpt lat="37.066140" lon="-8.825475">
        <ele>63.208</ele>
        <time>2018-08-20T12:05:54Z</time>
      </trkpt>
      <trkpt lat="37.065573" lon="-8.824719">
        <ele>64.837</ele>
        <time>2018-08-20T12:06:16Z</time>
      </trkpt>
      <trkpt lat="37.065679" lon="-8.824437">
        <ele>65.692</ele>
        <time>2018-08-20T12:06:25Z</time>
      </trkpt>
      <trkpt lat="37.066198" lon="-8.824536">
        <ele>69.582</ele>
        <time>2018-08-20T12:07:47Z</time>
      </trkpt>
      <trkpt lat="37.066602" lon="-8.823523">
        <ele>79.254</ele>
        <time>2018-08-20T12:08:46Z</time>
      </trkpt>
      <trkpt lat="37.067044" lon="-8.823072">
        <ele>86.628</ele>
        <time>2018-08-20T12:09:31Z</time>
      </trkpt>
      <trkpt lat="37.067643" lon="-8.822965">
        <ele>95.846</ele>
        <time>2018-08-20T12:10:20Z</time>
      </trkpt>
      <trkpt lat="37.068312" lon="-8.823235">
        <ele>97.023</ele>
        <time>2018-08-20T12:11:01Z</time>
      </trkpt>
      <trkpt lat="37.068703" lon="-8.822979">
        <ele>95.679</ele>
        <time>2018-08-20T12:11:12Z</time>
      </trkpt>
      <trkpt lat="37.068663" lon="-8.821782">
        <ele>98.194</ele>
        <time>2018-08-20T12:11:46Z</time>
      </trkpt>
      <trkpt lat="37.069717" lon="-8.820267">
        <ele>102.557</ele>
        <time>2018-08-20T12:12:46Z</time>
      </trkpt>
      <trkpt lat="37.070043" lon="-8.819473">
        <ele>104.122</ele>
        <time>2018-08-20T12:13:12Z</time>
      </trkpt>
      <trkpt lat="37.069994" lon="-8.816763">
        <ele>116.208</ele>
        <time>2018-08-20T12:16:00Z</time>
      </trkpt>
      <trkpt lat="37.070829" lon="-8.814150">
        <ele>80.281</ele>
        <time>2018-08-20T12:16:58Z</time>
      </trkpt>
      <trkpt lat="37.071788" lon="-8.813025">
        <ele>61.826</ele>
        <time>2018-08-20T12:17:14Z</time>
      </trkpt>
      <trkpt lat="37.072801" lon="-8.813232">
        <ele>58.066</ele>
        <time>2018-08-20T12:17:42Z</time>
      </trkpt>
      <trkpt lat="37.072914" lon="-8.813091">
        <ele>57.028</ele>
        <time>2018-08-20T12:17:45Z</time>
      </trkpt>
      <trkpt lat="37.073434" lon="-8.807455">
        <ele>57.052</ele>
        <time>2018-08-20T12:19:31Z</time>
      </trkpt>
      <trkpt lat="37.073332" lon="-8.806864">
        <ele>57.140</ele>
        <time>2018-08-20T12:19:42Z</time>
      </trkpt>
      <trkpt lat="37.072641" lon="-8.805886">
        <ele>57.197</ele>
        <time>2018-08-20T12:20:06Z</time>
      </trkpt>
      <trkpt lat="37.072617" lon="-8.805644">
        <ele>57.143</ele>
        <time>2018-08-20T12:20:11Z</time>
      </trkpt>
      <trkpt lat="37.073130" lon="-8.805007">
        <ele>54.665</ele>
        <time>2018-08-20T12:20:28Z</time>
      </trkpt>
      <trkpt lat="37.074142" lon="-8.804194">
        <ele>57.968</ele>
        <time>2018-08-20T12:21:03Z</time>
      </trkpt>
      <trkpt lat="37.074476" lon="-8.803609">
        <ele>54.314</ele>
        <time>2018-08-20T12:22:10Z</time>
      </trkpt>
      <trkpt lat="37.074550" lon="-8.803126">
        <ele>57.208</ele>
        <time>2018-08-20T12:22:19Z</time>
      </trkpt>
      <trkpt lat="37.074171" lon="-8.800544">
        <ele>56.048</ele>
        <time>2018-08-20T12:23:05Z</time>
      </trkpt>
      <trkpt lat="37.074219" lon="-8.799378">
        <ele>58.513</ele>
        <time>2018-08-20T12:23:27Z</time>
      </trkpt>
      <trkpt lat="37.075054" lon="-8.797738">
        <ele>58.173</ele>
        <time>2018-08-20T12:24:05Z</time>
      </trkpt>
      <trkpt lat="37.075673" lon="-8.797108">
        <ele>62.485</ele>
        <time>2018-08-20T12:24:33Z</time>
      </trkpt>
      <trkpt lat="37.075775" lon="-8.796591">
        <ele>68.899</ele>
        <time>2018-08-20T12:25:45Z</time>
      </trkpt>
      <trkpt lat="37.075739" lon="-8.795066">
        <ele>91.487</ele>
        <time>2018-08-20T12:28:46Z</time>
      </trkpt>
      <trkpt lat="37.075528" lon="-8.794079">
        <ele>92.664</ele>
        <time>2018-08-20T12:29:46Z</time>
      </trkpt>
      <trkpt lat="37.075108" lon="-8.793441">
        <ele>86.380</ele>
        <time>2018-08-20T12:29:58Z</time>
      </trkpt>
      <trkpt lat="37.074294" lon="-8.792824">
        <ele>82.725</ele>
        <time>2018-08-20T12:30:16Z</time>
      </trkpt>
      <trkpt lat="37.072988" lon="-8.792272">
        <ele>80.526</ele>
        <time>2018-08-20T12:30:40Z</time>
      </trkpt>
      <trkpt lat="37.071878" lon="-8.791478">
        <ele>78.808</ele>
        <time>2018-08-20T12:31:04Z</time>
      </trkpt>
      <trkpt lat="37.071719" lon="-8.791191">
        <ele>77.608</ele>
        <time>2018-08-20T12:31:14Z</time>
      </trkpt>
      <trkpt lat="37.071715" lon="-8.790556">
        <ele>82.034</ele>
        <time>2018-08-20T12:31:30Z</time>
      </trkpt>
      <trkpt lat="37.071411" lon="-8.789250">
        <ele>86.849</ele>
        <time>2018-08-20T12:32:02Z</time>
      </trkpt>
      <trkpt lat="37.070332" lon="-8.786968">
        <ele>96.019</ele>
        <time>2018-08-20T12:33:20Z</time>
      </trkpt>
      <trkpt lat="37.070414" lon="-8.786269">
        <ele>99.241</ele>
        <time>2018-08-20T12:33:47Z</time>
      </trkpt>
      <trkpt lat="37.072301" lon="-8.780817">
        <ele>99.775</ele>
        <time>2018-08-20T12:36:28Z</time>
      </trkpt>
      <trkpt lat="37.072506" lon="-8.777997">
        <ele>94.773</ele>
        <time>2018-08-20T12:37:06Z</time>
      </trkpt>
      <trkpt lat="37.073094" lon="-8.776686">
        <ele>88.880</ele>
        <time>2018-08-20T12:37:26Z</time>
      </trkpt>
      <trkpt lat="37.073447" lon="-8.775068">
        <ele>85.046</ele>
        <time>2018-08-20T12:39:43Z</time>
      </trkpt>
      <trkpt lat="37.073966" lon="-8.773870">
        <ele>86.721</ele>
        <time>2018-08-20T12:40:48Z</time>
      </trkpt>
      <trkpt lat="37.074133" lon="-8.773894">
        <ele>87.841</ele>
        <time>2018-08-20T12:40:55Z</time>
      </trkpt>
      <trkpt lat="37.074072" lon="-8.773993">
        <ele>86.105</ele>
        <time>2018-08-20T12:41:03Z</time>
      </trkpt>
      <trkpt lat="37.074151" lon="-8.773883">
        <ele>87.408</ele>
        <time>2018-08-20T12:49:04Z</time>
      </trkpt>
      <trkpt lat="37.074460" lon="-8.774276">
        <ele>86.154</ele>
        <time>2018-08-20T12:50:00Z</time>
      </trkpt>
      <trkpt lat="37.074081" lon="-8.773706">
        <ele>83.769</ele>
        <time>2018-08-20T12:50:29Z</time>
      </trkpt>
      <trkpt lat="37.074626" lon="-8.771965">
        <ele>91.599</ele>
        <time>2018-08-20T12:51:21Z</time>
      </trkpt>
      <trkpt lat="37.075972" lon="-8.769512">
        <ele>86.131</ele>
        <time>2018-08-20T12:52:04Z</time>
      </trkpt>
      <trkpt lat="37.076551" lon="-8.767325">
        <ele>81.375</ele>
        <time>2018-08-20T12:52:36Z</time>
      </trkpt>
      <trkpt lat="37.077440" lon="-8.765311">
        <ele>83.163</ele>
        <time>2018-08-20T12:53:15Z</time>
      </trkpt>
      <trkpt lat="37.078362" lon="-8.762351">
        <ele>87.460</ele>
        <time>2018-08-20T12:54:24Z</time>
      </trkpt>
      <trkpt lat="37.079784" lon="-8.759801">
        <ele>89.976</ele>
        <time>2018-08-20T12:55:28Z</time>
      </trkpt>
      <trkpt lat="37.081756" lon="-8.758201">
        <ele>94.298</ele>
        <time>2018-08-20T12:56:32Z</time>
      </trkpt>
      <trkpt lat="37.083500" lon="-8.754329">
        <ele>107.415</ele>
        <time>2018-08-20T12:59:24Z</time>
      </trkpt>
      <trkpt lat="37.083138" lon="-8.755418">
        <ele>105.826</ele>
        <time>2018-08-20T12:59:55Z</time>
      </trkpt>
      <trkpt lat="37.083819" lon="-8.755990">
        <ele>105.608</ele>
        <time>2018-08-20T13:00:44Z</time>
      </trkpt>
      <trkpt lat="37.083001" lon="-8.755160">
        <ele>104.381</ele>
        <time>2018-08-20T13:01:58Z</time>
      </trkpt>
      <trkpt lat="37.077969" lon="-8.751910">
        <ele>113.476</ele>
        <time>2018-08-20T13:05:48Z</time>
      </trkpt>
      <trkpt lat="37.078780" lon="-8.750024">
        <ele>110.946</ele>
        <time>2018-08-20T13:06:54Z</time>
      </trkpt>
      <trkpt lat="37.078826" lon="-8.748798">
        <ele>104.098</ele>
        <time>2018-08-20T13:07:10Z</time>
      </trkpt>
      <trkpt lat="37.078201" lon="-8.748332">
        <ele>94.012</ele>
        <time>2018-08-20T13:07:49Z</time>
      </trkpt>
      <trkpt lat="37.078303" lon="-8.747817">
        <ele>89.390</ele>
        <time>2018-08-20T13:07:57Z</time>
      </trkpt>
      <trkpt lat="37.078735" lon="-8.747083">
        <ele>88.927</ele>
        <time>2018-08-20T13:08:20Z</time>
      </trkpt>
      <trkpt lat="37.078618" lon="-8.745884">
        <ele>79.933</ele>
        <time>2018-08-20T13:10:18Z</time>
      </trkpt>
      <trkpt lat="37.080699" lon="-8.742962">
        <ele>76.424</ele>
        <time>2018-08-20T13:11:29Z</time>
      </trkpt>
      <trkpt lat="37.081695" lon="-8.740536">
        <ele>74.304</ele>
        <time>2018-08-20T13:12:12Z</time>
      </trkpt>
      <trkpt lat="37.082213" lon="-8.740711">
        <ele>78.214</ele>
        <time>2018-08-20T13:12:34Z</time>
      </trkpt>
      <trkpt lat="37.082381" lon="-8.740519">
        <ele>78.908</ele>
        <time>2018-08-20T13:12:44Z</time>
      </trkpt>
      <trkpt lat="37.082886" lon="-8.739468">
        <ele>78.054</ele>
        <time>2018-08-20T13:13:06Z</time>
      </trkpt>
      <trkpt lat="37.082833" lon="-8.738990">
        <ele>78.769</ele>
        <time>2018-08-20T13:13:16Z</time>
      </trkpt>
      <trkpt lat="37.083203" lon="-8.737943">
        <ele>78.939</ele>
        <time>2018-08-20T13:13:37Z</time>
      </trkpt>
      <trkpt lat="37.084270" lon="-8.736175">
        <ele>81.171</ele>
        <time>2018-08-20T13:15:00Z</time>
      </trkpt>
      <trkpt lat="37.084106" lon="-8.736600">
        <ele>80.155</ele>
        <time>2018-08-20T13:15:18Z</time>
      </trkpt>
      <trkpt lat="37.084226" lon="-8.736796">
        <ele>82.013</ele>
        <time>2018-08-20T13:15:31Z</time>
      </trkpt>
      <trkpt lat="37.083796" lon="-8.736218">
        <ele>75.570</ele>
        <time>2018-08-20T13:16:00Z</time>
      </trkpt>
      <trkpt lat="37.084272" lon="-8.735502">
        <ele>73.616</ele>
        <time>2018-08-20T13:16:19Z</time>
      </trkpt>
      <trkpt lat="37.084621" lon="-8.735244">
        <ele>76.093</ele>
        <time>2018-08-20T13:17:18Z</time>
      </trkpt>
      <trkpt lat="37.084950" lon="-8.733982">
        <ele>77.165</ele>
        <time>2018-08-20T13:18:53Z</time>
      </trkpt>
      <trkpt lat="37.085248" lon="-8.733647">
        <ele>73.921</ele>
        <time>2018-08-20T13:19:01Z</time>
      </trkpt>
      <trkpt lat="37.085691" lon="-8.733487">
        <ele>74.408</ele>
        <time>2018-08-20T13:19:13Z</time>
      </trkpt>
      <trkpt lat="37.086487" lon="-8.733808">
        <ele>80.871</ele>
        <time>2018-08-20T13:19:59Z</time>
      </trkpt>
      <trkpt lat="37.085941" lon="-8.730732">
        <ele>75.786</ele>
        <time>2018-08-20T13:22:52Z</time>
      </trkpt>
      <trkpt lat="37.086023" lon="-8.730474">
        <ele>73.876</ele>
        <time>2018-08-20T13:23:01Z</time>
      </trkpt>
      <trkpt lat="37.087338" lon="-8.729766">
        <ele>74.118</ele>
        <time>2018-08-20T13:23:50Z</time>
      </trkpt>
      <trkpt lat="37.091215" lon="-8.726997">
        <ele>83.842</ele>
        <time>2018-08-20T13:26:28Z</time>
      </trkpt>
      <trkpt lat="37.090806" lon="-8.726359">
        <ele>74.710</ele>
        <time>2018-08-20T13:27:04Z</time>
      </trkpt>
      <trkpt lat="37.089894" lon="-8.725509">
        <ele>64.987</ele>
        <time>2018-08-20T13:27:23Z</time>
      </trkpt>
      <trkpt lat="37.090829" lon="-8.724850">
        <ele>63.823</ele>
        <time>2018-08-20T13:27:50Z</time>
      </trkpt>
      <trkpt lat="37.091136" lon="-8.724383">
        <ele>65.051</ele>
        <time>2018-08-20T13:28:30Z</time>
      </trkpt>
      <trkpt lat="37.090930" lon="-8.724721">
        <ele>62.301</ele>
        <time>2018-08-20T13:28:44Z</time>
      </trkpt>
      <trkpt lat="37.090779" lon="-8.724703">
        <ele>63.511</ele>
        <time>2018-08-20T13:28:47Z</time>
      </trkpt>
      <trkpt lat="37.090003" lon="-8.723682">
        <ele>62.008</ele>
        <time>2018-08-20T13:29:14Z</time>
      </trkpt>
      <trkpt lat="37.091368" lon="-8.723072">
        <ele>66.787</ele>
        <time>2018-08-20T13:29:53Z</time>
      </trkpt>
      <trkpt lat="37.091648" lon="-8.722272">
        <ele>68.032</ele>
        <time>2018-08-20T13:30:42Z</time>
      </trkpt>
      <trkpt lat="37.092127" lon="-8.721716">
        <ele>66.752</ele>
        <time>2018-08-20T13:31:28Z</time>
      </trkpt>
      <trkpt lat="37.092653" lon="-8.721365">
        <ele>65.814</ele>
        <time>2018-08-20T13:31:46Z</time>
      </trkpt>
      <trkpt lat="37.093208" lon="-8.721366">
        <ele>67.278</ele>
        <time>2018-08-20T13:32:00Z</time>
      </trkpt>
      <trkpt lat="37.093704" lon="-8.721757">
        <ele>66.566</ele>
        <time>2018-08-20T13:32:14Z</time>
      </trkpt>
      <trkpt lat="37.093970" lon="-8.721695">
        <ele>70.493</ele>
        <time>2018-08-20T13:33:19Z</time>
      </trkpt>
      <trkpt lat="37.095174" lon="-8.721944">
        <ele>72.669</ele>
        <time>2018-08-20T13:34:02Z</time>
      </trkpt>
      <trkpt lat="37.095845" lon="-8.720783">
        <ele>73.161</ele>
        <time>2018-08-20T13:34:35Z</time>
      </trkpt>
      <trkpt lat="37.098122" lon="-8.718812">
        <ele>82.221</ele>
        <time>2018-08-20T13:36:46Z</time>
      </trkpt>
      <trkpt lat="37.099974" lon="-8.716816">
        <ele>90.713</ele>
        <time>2018-08-20T13:38:53Z</time>
      </trkpt>
      <trkpt lat="37.100420" lon="-8.716204">
        <ele>89.508</ele>
        <time>2018-08-20T13:39:17Z</time>
      </trkpt>
      <trkpt lat="37.100609" lon="-8.715539">
        <ele>93.598</ele>
        <time>2018-08-20T13:39:42Z</time>
      </trkpt>
      <trkpt lat="37.100557" lon="-8.714560">
        <ele>96.773</ele>
        <time>2018-08-20T13:40:39Z</time>
      </trkpt>
      <trkpt lat="37.100846" lon="-8.712846">
        <ele>102.913</ele>
        <time>2018-08-20T13:41:27Z</time>
      </trkpt>
      <trkpt lat="37.100725" lon="-8.710807">
        <ele>109.945</ele>
        <time>2018-08-20T13:42:54Z</time>
      </trkpt>
      <trkpt lat="37.098657" lon="-8.705668">
        <ele>116.399</ele>
        <time>2018-08-20T13:47:36Z</time>
      </trkpt>
      <trkpt lat="37.098640" lon="-8.703310">
        <ele>105.777</ele>
        <time>2018-08-20T13:48:44Z</time>
      </trkpt>
      <trkpt lat="37.097816" lon="-8.699449">
        <ele>101.254</ele>
        <time>2018-08-20T13:49:45Z</time>
      </trkpt>
      <trkpt lat="37.097949" lon="-8.697767">
        <ele>97.440</ele>
        <time>2018-08-20T13:50:10Z</time>
      </trkpt>
      <trkpt lat="37.098515" lon="-8.696094">
        <ele>92.416</ele>
        <time>2018-08-20T13:50:34Z</time>
      </trkpt>
      <trkpt lat="37.098693" lon="-8.694100">
        <ele>87.976</ele>
        <time>2018-08-20T13:51:03Z</time>
      </trkpt>
      <trkpt lat="37.099298" lon="-8.691604">
        <ele>83.513</ele>
        <time>2018-08-20T13:51:39Z</time>
      </trkpt>
      <trkpt lat="37.099380" lon="-8.688997">
        <ele>86.308</ele>
        <time>2018-08-20T13:52:26Z</time>
      </trkpt>
      <trkpt lat="37.099064" lon="-8.688303">
        <ele>91.453</ele>
        <time>2018-08-20T13:52:50Z</time>
      </trkpt>
      <trkpt lat="37.098884" lon="-8.687319">
        <ele>96.818</ele>
        <time>2018-08-20T13:53:22Z</time>
      </trkpt>
      <trkpt lat="37.099056" lon="-8.686079">
        <ele>98.818</ele>
        <time>2018-08-20T13:54:00Z</time>
      </trkpt>
      <trkpt lat="37.099038" lon="-8.684207">
        <ele>99.370</ele>
        <time>2018-08-20T13:55:35Z</time>
      </trkpt>
      <trkpt lat="37.098583" lon="-8.682050">
        <ele>91.884</ele>
        <time>2018-08-20T13:56:08Z</time>
      </trkpt>
      <trkpt lat="37.098262" lon="-8.681775">
        <ele>91.412</ele>
        <time>2018-08-20T13:56:18Z</time>
      </trkpt>
      <trkpt lat="37.097570" lon="-8.681595">
        <ele>98.139</ele>
        <time>2018-08-20T13:56:43Z</time>
      </trkpt>
      <trkpt lat="37.097614" lon="-8.681225">
        <ele>101.285</ele>
        <time>2018-08-20T13:57:34Z</time>
      </trkpt>
      <trkpt lat="37.097668" lon="-8.681575">
        <ele>104.075</ele>
        <time>2018-08-20T13:57:41Z</time>
      </trkpt>
      <trkpt lat="37.097546" lon="-8.681628">
        <ele>104.128</ele>
        <time>2018-08-20T13:57:44Z</time>
      </trkpt>
      <trkpt lat="37.096192" lon="-8.680683">
        <ele>109.220</ele>
        <time>2018-08-20T13:59:04Z</time>
      </trkpt>
      <trkpt lat="37.095867" lon="-8.681329">
        <ele>109.508</ele>
        <time>2018-08-20T13:59:57Z</time>
      </trkpt>
      <trkpt lat="37.095658" lon="-8.681475">
        <ele>110.129</ele>
        <time>2018-08-20T14:00:03Z</time>
      </trkpt>
      <trkpt lat="37.094694" lon="-8.681260">
        <ele>108.354</ele>
        <time>2018-08-20T14:00:35Z</time>
      </trkpt>
      <trkpt lat="37.092455" lon="-8.679334">
        <ele>106.134</ele>
        <time>2018-08-20T14:02:14Z</time>
      </trkpt>
      <trkpt lat="37.092473" lon="-8.678950">
        <ele>106.116</ele>
        <time>2018-08-20T14:02:22Z</time>
      </trkpt>
      <trkpt lat="37.092657" lon="-8.679017">
        <ele>104.560</ele>
        <time>2018-08-20T14:04:12Z</time>
      </trkpt>
      <trkpt lat="37.092551" lon="-8.678679">
        <ele>105.348</ele>
        <time>2018-08-20T14:04:28Z</time>
      </trkpt>
      <trkpt lat="37.093648" lon="-8.674919">
        <ele>102.665</ele>
        <time>2018-08-20T14:05:40Z</time>
      </trkpt>
      <trkpt lat="37.093754" lon="-8.673759">
        <ele>99.871</ele>
        <time>2018-08-20T14:06:44Z</time>
      </trkpt>
      <trkpt lat="37.094684" lon="-8.672064">
        <ele>89.554</ele>
        <time>2018-08-20T14:08:02Z</time>
      </trkpt>
      <trkpt lat="37.094528" lon="-8.671656">
        <ele>87.756</ele>
        <time>2018-08-20T14:08:19Z</time>
      </trkpt>
      <trkpt lat="37.094592" lon="-8.671822">
        <ele>87.011</ele>
        <time>2018-08-20T14:08:46Z</time>
      </trkpt>
      <trkpt lat="37.094113" lon="-8.671198">
        <ele>88.508</ele>
        <time>2018-08-20T14:14:49Z</time>
      </trkpt>
      <trkpt lat="37.093622" lon="-8.671649">
        <ele>91.567</ele>
        <time>2018-08-20T14:15:22Z</time>
      </trkpt>
      <trkpt lat="37.093211" lon="-8.671620">
        <ele>95.592</ele>
        <time>2018-08-20T14:16:20Z</time>
      </trkpt>
      <trkpt lat="37.093519" lon="-8.671678">
        <ele>95.752</ele>
        <time>2018-08-20T14:16:51Z</time>
      </trkpt>
      <trkpt lat="37.093601" lon="-8.671923">
        <ele>95.034</ele>
        <time>2018-08-20T14:17:09Z</time>
      </trkpt>
      <trkpt lat="37.092996" lon="-8.671916">
        <ele>92.068</ele>
        <time>2018-08-20T14:17:43Z</time>
      </trkpt>
      <trkpt lat="37.092992" lon="-8.671593">
        <ele>91.356</ele>
        <time>2018-08-20T14:17:56Z</time>
      </trkpt>
      <trkpt lat="37.093531" lon="-8.671637">
        <ele>99.123</ele>
        <time>2018-08-20T14:23:32Z</time>
      </trkpt>
      <trkpt lat="37.093963" lon="-8.671236">
        <ele>96.119</ele>
        <time>2018-08-20T14:23:46Z</time>
      </trkpt>
      <trkpt lat="37.094178" lon="-8.671211">
        <ele>94.415</ele>
        <time>2018-08-20T14:23:52Z</time>
      </trkpt>
      <trkpt lat="37.094603" lon="-8.671839">
        <ele>88.665</ele>
        <time>2018-08-20T14:24:40Z</time>
      </trkpt>
      <trkpt lat="37.094117" lon="-8.671212">
        <ele>89.111</ele>
        <time>2018-08-20T14:27:10Z</time>
      </trkpt>
      <trkpt lat="37.093641" lon="-8.671642">
        <ele>92.308</ele>
        <time>2018-08-20T14:27:37Z</time>
      </trkpt>
      <trkpt lat="37.093188" lon="-8.671561">
        <ele>94.613</ele>
        <time>2018-08-20T14:28:36Z</time>
      </trkpt>
      <trkpt lat="37.093225" lon="-8.671578">
        <ele>101.413</ele>
        <time>2018-08-21T09:06:00Z</time>
      </trkpt>
      <trkpt lat="37.093547" lon="-8.671667">
        <ele>101.443</ele>
        <time>2018-08-21T09:09:58Z</time>
      </trkpt>
      <trkpt lat="37.094143" lon="-8.671168">
        <ele>103.407</ele>
        <time>2018-08-21T09:10:25Z</time>
      </trkpt>
      <trkpt lat="37.094729" lon="-8.671922">
        <ele>98.708</ele>
        <time>2018-08-21T09:12:07Z</time>
      </trkpt>
      <trkpt lat="37.095047" lon="-8.672038">
        <ele>101.423</ele>
        <time>2018-08-21T09:13:48Z</time>
      </trkpt>
      <trkpt lat="37.095439" lon="-8.671630">
        <ele>100.418</ele>
        <time>2018-08-21T09:14:46Z</time>
      </trkpt>
      <trkpt lat="37.095527" lon="-8.670150">
        <ele>96.529</ele>
        <time>2018-08-21T09:15:12Z</time>
      </trkpt>
      <trkpt lat="37.095811" lon="-8.669437">
        <ele>93.234</ele>
        <time>2018-08-21T09:15:22Z</time>
      </trkpt>
      <trkpt lat="37.096203" lon="-8.668951">
        <ele>89.281</ele>
        <time>2018-08-21T09:15:30Z</time>
      </trkpt>
      <trkpt lat="37.096992" lon="-8.668610">
        <ele>82.082</ele>
        <time>2018-08-21T09:15:41Z</time>
      </trkpt>
      <trkpt lat="37.098622" lon="-8.668694">
        <ele>72.078</ele>
        <time>2018-08-21T09:16:02Z</time>
      </trkpt>
      <trkpt lat="37.099971" lon="-8.669154">
        <ele>66.590</ele>
        <time>2018-08-21T09:16:20Z</time>
      </trkpt>
      <trkpt lat="37.102379" lon="-8.671420">
        <ele>70.144</ele>
        <time>2018-08-21T09:17:19Z</time>
      </trkpt>
      <trkpt lat="37.106231" lon="-8.674135">
        <ele>71.305</ele>
        <time>2018-08-21T09:19:39Z</time>
      </trkpt>
      <trkpt lat="37.106100" lon="-8.674268">
        <ele>68.015</ele>
        <time>2018-08-21T09:49:05Z</time>
      </trkpt>
      <trkpt lat="37.106283" lon="-8.674166">
        <ele>67.508</ele>
        <time>2018-08-21T09:49:32Z</time>
      </trkpt>
      <trkpt lat="37.109656" lon="-8.676497">
        <ele>67.626</ele>
        <time>2018-08-21T09:51:05Z</time>
      </trkpt>
      <trkpt lat="37.110385" lon="-8.677201">
        <ele>66.981</ele>
        <time>2018-08-21T09:51:27Z</time>
      </trkpt>
      <trkpt lat="37.110735" lon="-8.677198">
        <ele>65.452</ele>
        <time>2018-08-21T09:51:36Z</time>
      </trkpt>
      <trkpt lat="37.113315" lon="-8.675686">
        <ele>62.587</ele>
        <time>2018-08-21T09:53:25Z</time>
      </trkpt>
      <trkpt lat="37.113456" lon="-8.675336">
        <ele>61.444</ele>
        <time>2018-08-21T09:53:30Z</time>
      </trkpt>
      <trkpt lat="37.113352" lon="-8.674926">
        <ele>61.235</ele>
        <time>2018-08-21T09:53:37Z</time>
      </trkpt>
      <trkpt lat="37.111618" lon="-8.672197">
        <ele>65.651</ele>
        <time>2018-08-21T09:54:34Z</time>
      </trkpt>
      <trkpt lat="37.111398" lon="-8.672048">
        <ele>64.863</ele>
        <time>2018-08-21T09:54:40Z</time>
      </trkpt>
      <trkpt lat="37.110676" lon="-8.669856">
        <ele>67.321</ele>
        <time>2018-08-21T09:55:43Z</time>
      </trkpt>
      <trkpt lat="37.110473" lon="-8.667230">
        <ele>64.941</ele>
        <time>2018-08-21T09:56:23Z</time>
      </trkpt>
      <trkpt lat="37.110915" lon="-8.666652">
        <ele>60.605</ele>
        <time>2018-08-21T09:56:59Z</time>
      </trkpt>
      <trkpt lat="37.111448" lon="-8.662419">
        <ele>68.808</ele>
        <time>2018-08-21T09:58:07Z</time>
      </trkpt>
      <trkpt lat="37.111776" lon="-8.661407">
        <ele>69.244</ele>
        <time>2018-08-21T09:58:29Z</time>
      </trkpt>
      <trkpt lat="37.116280" lon="-8.653585">
        <ele>65.649</ele>
        <time>2018-08-21T10:00:56Z</time>
      </trkpt>
      <trkpt lat="37.118860" lon="-8.648068">
        <ele>68.810</ele>
        <time>2018-08-21T10:02:33Z</time>
      </trkpt>
      <trkpt lat="37.118962" lon="-8.647105">
        <ele>64.495</ele>
        <time>2018-08-21T10:02:51Z</time>
      </trkpt>
      <trkpt lat="37.119229" lon="-8.646839">
        <ele>65.242</ele>
        <time>2018-08-21T10:03:00Z</time>
      </trkpt>
      <trkpt lat="37.120044" lon="-8.644580">
        <ele>63.163</ele>
        <time>2018-08-21T10:03:38Z</time>
      </trkpt>
      <trkpt lat="37.120181" lon="-8.643768">
        <ele>61.979</ele>
        <time>2018-08-21T10:03:53Z</time>
      </trkpt>
      <trkpt lat="37.120009" lon="-8.643593">
        <ele>64.641</ele>
        <time>2018-08-21T10:05:10Z</time>
      </trkpt>
      <trkpt lat="37.119997" lon="-8.643214">
        <ele>63.955</ele>
        <time>2018-08-21T10:05:47Z</time>
      </trkpt>
      <trkpt lat="37.120895" lon="-8.640547">
        <ele>65.207</ele>
        <time>2018-08-21T10:07:33Z</time>
      </trkpt>
      <trkpt lat="37.122652" lon="-8.636683">
        <ele>57.117</ele>
        <time>2018-08-21T10:08:47Z</time>
      </trkpt>
      <trkpt lat="37.124135" lon="-8.634064">
        <ele>62.008</ele>
        <time>2018-08-21T10:10:18Z</time>
      </trkpt>
      <trkpt lat="37.124248" lon="-8.633688">
        <ele>61.037</ele>
        <time>2018-08-21T10:10:30Z</time>
      </trkpt>
      <trkpt lat="37.124027" lon="-8.633555">
        <ele>59.332</ele>
        <time>2018-08-21T10:10:43Z</time>
      </trkpt>
      <trkpt lat="37.124320" lon="-8.633687">
        <ele>60.553</ele>
        <time>2018-08-21T10:12:51Z</time>
      </trkpt>
      <trkpt lat="37.124166" lon="-8.633352">
        <ele>60.148</ele>
        <time>2018-08-21T10:13:03Z</time>
      </trkpt>
      <trkpt lat="37.124302" lon="-8.632781">
        <ele>56.075</ele>
        <time>2018-08-21T10:13:18Z</time>
      </trkpt>
      <trkpt lat="37.125404" lon="-8.631225">
        <ele>56.946</ele>
        <time>2018-08-21T10:14:07Z</time>
      </trkpt>
      <trkpt lat="37.126489" lon="-8.630261">
        <ele>62.792</ele>
        <time>2018-08-21T10:16:58Z</time>
      </trkpt>
      <trkpt lat="37.129146" lon="-8.629047">
        <ele>59.584</ele>
        <time>2018-08-21T10:18:05Z</time>
      </trkpt>
      <trkpt lat="37.130581" lon="-8.627734">
        <ele>59.431</ele>
        <time>2018-08-21T10:18:44Z</time>
      </trkpt>
      <trkpt lat="37.132126" lon="-8.625865">
        <ele>62.061</ele>
        <time>2018-08-21T10:19:28Z</time>
      </trkpt>
      <trkpt lat="37.133526" lon="-8.624674">
        <ele>64.207</ele>
        <time>2018-08-21T10:20:05Z</time>
      </trkpt>
      <trkpt lat="37.133539" lon="-8.624490">
        <ele>64.508</ele>
        <time>2018-08-21T10:21:26Z</time>
      </trkpt>
      <trkpt lat="37.133842" lon="-8.624669">
        <ele>62.735</ele>
        <time>2018-08-21T10:21:34Z</time>
      </trkpt>
      <trkpt lat="37.134483" lon="-8.625659">
        <ele>64.650</ele>
        <time>2018-08-21T10:22:00Z</time>
      </trkpt>
      <trkpt lat="37.135818" lon="-8.625370">
        <ele>64.161</ele>
        <time>2018-08-21T10:22:29Z</time>
      </trkpt>
      <trkpt lat="37.136788" lon="-8.625927">
        <ele>63.386</ele>
        <time>2018-08-21T10:22:52Z</time>
      </trkpt>
      <trkpt lat="37.137088" lon="-8.626422">
        <ele>63.383</ele>
        <time>2018-08-21T10:23:09Z</time>
      </trkpt>
      <trkpt lat="37.138413" lon="-8.625960">
        <ele>60.274</ele>
        <time>2018-08-21T10:23:37Z</time>
      </trkpt>
      <trkpt lat="37.139093" lon="-8.626335">
        <ele>59.170</ele>
        <time>2018-08-21T10:23:54Z</time>
      </trkpt>
      <trkpt lat="37.139496" lon="-8.626730">
        <ele>58.162</ele>
        <time>2018-08-21T10:24:05Z</time>
      </trkpt>
      <trkpt lat="37.139878" lon="-8.628108">
        <ele>55.557</ele>
        <time>2018-08-21T10:24:28Z</time>
      </trkpt>
      <trkpt lat="37.140192" lon="-8.628529">
        <ele>58.700</ele>
        <time>2018-08-21T10:24:37Z</time>
      </trkpt>
      <trkpt lat="37.140492" lon="-8.628872">
        <ele>58.620</ele>
        <time>2018-08-21T10:24:46Z</time>
      </trkpt>
      <trkpt lat="37.141912" lon="-8.629418">
        <ele>61.308</ele>
        <time>2018-08-21T10:25:18Z</time>
      </trkpt>
      <trkpt lat="37.142662" lon="-8.629896">
        <ele>63.057</ele>
        <time>2018-08-21T10:25:37Z</time>
      </trkpt>
      <trkpt lat="37.143376" lon="-8.631128">
        <ele>70.932</ele>
        <time>2018-08-21T10:26:24Z</time>
      </trkpt>
      <trkpt lat="37.145566" lon="-8.633739">
        <ele>75.063</ele>
        <time>2018-08-21T10:27:51Z</time>
      </trkpt>
      <trkpt lat="37.146695" lon="-8.636485">
        <ele>80.898</ele>
        <time>2018-08-21T10:28:51Z</time>
      </trkpt>
      <trkpt lat="37.146601" lon="-8.637289">
        <ele>81.045</ele>
        <time>2018-08-21T10:29:08Z</time>
      </trkpt>
      <trkpt lat="37.146237" lon="-8.637732">
        <ele>78.046</ele>
        <time>2018-08-21T10:29:20Z</time>
      </trkpt>
      <trkpt lat="37.146100" lon="-8.638613">
        <ele>73.322</ele>
        <time>2018-08-21T10:29:32Z</time>
      </trkpt>
      <trkpt lat="37.147213" lon="-8.640253">
        <ele>62.864</ele>
        <time>2018-08-21T10:29:53Z</time>
      </trkpt>
      <trkpt lat="37.148142" lon="-8.642972">
        <ele>62.833</ele>
        <time>2018-08-21T10:30:27Z</time>
      </trkpt>
      <trkpt lat="37.148872" lon="-8.644634">
        <ele>60.923</ele>
        <time>2018-08-21T10:30:55Z</time>
      </trkpt>
      <trkpt lat="37.149253" lon="-8.648480">
        <ele>64.815</ele>
        <time>2018-08-21T10:32:01Z</time>
      </trkpt>
      <trkpt lat="37.149962" lon="-8.649271">
        <ele>62.508</ele>
        <time>2018-08-21T10:32:20Z</time>
      </trkpt>
      <trkpt lat="37.150378" lon="-8.649972">
        <ele>67.325</ele>
        <time>2018-08-21T10:32:41Z</time>
      </trkpt>
      <trkpt lat="37.151039" lon="-8.650504">
        <ele>67.290</ele>
        <time>2018-08-21T10:33:00Z</time>
      </trkpt>
      <trkpt lat="37.151196" lon="-8.650446">
        <ele>66.411</ele>
        <time>2018-08-21T10:33:04Z</time>
      </trkpt>
      <trkpt lat="37.156792" lon="-8.641834">
        <ele>68.296</ele>
        <time>2018-08-21T10:35:43Z</time>
      </trkpt>
      <trkpt lat="37.157727" lon="-8.639271">
        <ele>69.493</ele>
        <time>2018-08-21T10:36:23Z</time>
      </trkpt>
      <trkpt lat="37.158680" lon="-8.634873">
        <ele>66.664</ele>
        <time>2018-08-21T10:37:23Z</time>
      </trkpt>
      <trkpt lat="37.158589" lon="-8.633019">
        <ele>66.190</ele>
        <time>2018-08-21T10:37:49Z</time>
      </trkpt>
      <trkpt lat="37.158275" lon="-8.632504">
        <ele>64.432</ele>
        <time>2018-08-21T10:37:58Z</time>
      </trkpt>
      <trkpt lat="37.158291" lon="-8.631874">
        <ele>63.951</ele>
        <time>2018-08-21T10:38:09Z</time>
      </trkpt>
      <trkpt lat="37.157799" lon="-8.630743">
        <ele>59.901</ele>
        <time>2018-08-21T10:38:28Z</time>
      </trkpt>
      <trkpt lat="37.157016" lon="-8.629630">
        <ele>60.011</ele>
        <time>2018-08-21T10:38:48Z</time>
      </trkpt>
      <trkpt lat="37.155073" lon="-8.628009">
        <ele>65.508</ele>
        <time>2018-08-21T10:39:30Z</time>
      </trkpt>
      <trkpt lat="37.154440" lon="-8.627295">
        <ele>68.917</ele>
        <time>2018-08-21T10:39:46Z</time>
      </trkpt>
      <trkpt lat="37.153867" lon="-8.626274">
        <ele>71.662</ele>
        <time>2018-08-21T10:40:03Z</time>
      </trkpt>
      <trkpt lat="37.153073" lon="-8.623793">
        <ele>67.413</ele>
        <time>2018-08-21T10:40:38Z</time>
      </trkpt>
      <trkpt lat="37.152534" lon="-8.621523">
        <ele>71.378</ele>
        <time>2018-08-21T10:41:08Z</time>
      </trkpt>
      <trkpt lat="37.152369" lon="-8.619131">
        <ele>67.685</ele>
        <time>2018-08-21T10:41:46Z</time>
      </trkpt>
      <trkpt lat="37.152837" lon="-8.616445">
        <ele>71.236</ele>
        <time>2018-08-21T10:42:36Z</time>
      </trkpt>
      <trkpt lat="37.153831" lon="-8.613998">
        <ele>75.272</ele>
        <time>2018-08-21T10:43:22Z</time>
      </trkpt>
      <trkpt lat="37.153762" lon="-8.613714">
        <ele>75.734</ele>
        <time>2018-08-21T10:43:27Z</time>
      </trkpt>
      <trkpt lat="37.153024" lon="-8.613321">
        <ele>71.461</ele>
        <time>2018-08-21T10:43:40Z</time>
      </trkpt>
      <trkpt lat="37.152784" lon="-8.612903">
        <ele>69.321</ele>
        <time>2018-08-21T10:43:51Z</time>
      </trkpt>
      <trkpt lat="37.153128" lon="-8.612337">
        <ele>67.513</ele>
        <time>2018-08-21T10:44:03Z</time>
      </trkpt>
      <trkpt lat="37.153811" lon="-8.610351">
        <ele>67.208</ele>
        <time>2018-08-21T10:44:40Z</time>
      </trkpt>
      <trkpt lat="37.153559" lon="-8.609895">
        <ele>72.398</ele>
        <time>2018-08-21T10:44:50Z</time>
      </trkpt>
      <trkpt lat="37.152773" lon="-8.609492">
        <ele>74.643</ele>
        <time>2018-08-21T10:45:14Z</time>
      </trkpt>
      <trkpt lat="37.151468" lon="-8.608059">
        <ele>75.334</ele>
        <time>2018-08-21T10:45:51Z</time>
      </trkpt>
      <trkpt lat="37.150552" lon="-8.606333">
        <ele>65.269</ele>
        <time>2018-08-21T10:46:20Z</time>
      </trkpt>
      <trkpt lat="37.150881" lon="-8.604926">
        <ele>61.236</ele>
        <time>2018-08-21T10:46:39Z</time>
      </trkpt>
      <trkpt lat="37.150736" lon="-8.604495">
        <ele>60.537</ele>
        <time>2018-08-21T10:46:46Z</time>
      </trkpt>
      <trkpt lat="37.150944" lon="-8.604796">
        <ele>61.643</ele>
        <time>2018-08-21T10:47:48Z</time>
      </trkpt>
      <trkpt lat="37.151101" lon="-8.604556">
        <ele>61.515</ele>
        <time>2018-08-21T10:48:52Z</time>
      </trkpt>
      <trkpt lat="37.151227" lon="-8.604587">
        <ele>60.892</ele>
        <time>2018-08-21T10:49:13Z</time>
      </trkpt>
      <trkpt lat="37.151533" lon="-8.604055">
        <ele>63.073</ele>
        <time>2018-08-21T10:49:48Z</time>
      </trkpt>
      <trkpt lat="37.151934" lon="-8.604178">
        <ele>63.220</ele>
        <time>2018-08-21T10:49:58Z</time>
      </trkpt>
      <trkpt lat="37.152939" lon="-8.604937">
        <ele>59.708</ele>
        <time>2018-08-21T10:54:36Z</time>
      </trkpt>
      <trkpt lat="37.153099" lon="-8.604828">
        <ele>60.031</ele>
        <time>2018-08-21T10:54:58Z</time>
      </trkpt>
      <trkpt lat="37.153974" lon="-8.605151">
        <ele>60.866</ele>
        <time>2018-08-21T10:57:06Z</time>
      </trkpt>
      <trkpt lat="37.154529" lon="-8.605109">
        <ele>61.637</ele>
        <time>2018-08-21T10:57:20Z</time>
      </trkpt>
      <trkpt lat="37.155069" lon="-8.604780">
        <ele>62.212</ele>
        <time>2018-08-21T10:57:42Z</time>
      </trkpt>
      <trkpt lat="37.155926" lon="-8.603734">
        <ele>61.939</ele>
        <time>2018-08-21T10:58:24Z</time>
      </trkpt>
      <trkpt lat="37.156687" lon="-8.603657">
        <ele>63.850</ele>
        <time>2018-08-21T10:59:09Z</time>
      </trkpt>
      <trkpt lat="37.157070" lon="-8.602980">
        <ele>63.066</ele>
        <time>2018-08-21T11:00:56Z</time>
      </trkpt>
      <trkpt lat="37.155947" lon="-8.603041">
        <ele>64.768</ele>
        <time>2018-08-21T11:01:47Z</time>
      </trkpt>
      <trkpt lat="37.155517" lon="-8.603273">
        <ele>64.199</ele>
        <time>2018-08-21T11:01:59Z</time>
      </trkpt>
      <trkpt lat="37.154706" lon="-8.604137">
        <ele>64.807</ele>
        <time>2018-08-21T11:02:32Z</time>
      </trkpt>
      <trkpt lat="37.154423" lon="-8.604227">
        <ele>64.127</ele>
        <time>2018-08-21T11:02:39Z</time>
      </trkpt>
      <trkpt lat="37.153874" lon="-8.604134">
        <ele>65.408</ele>
        <time>2018-08-21T11:02:53Z</time>
      </trkpt>
      <trkpt lat="37.153487" lon="-8.603842">
        <ele>65.331</ele>
        <time>2018-08-21T11:03:04Z</time>
      </trkpt>
      <trkpt lat="37.153333" lon="-8.603075">
        <ele>65.756</ele>
        <time>2018-08-21T11:03:19Z</time>
      </trkpt>
      <trkpt lat="37.153057" lon="-8.602623">
        <ele>65.887</ele>
        <time>2018-08-21T11:03:32Z</time>
      </trkpt>
      <trkpt lat="37.152721" lon="-8.602417">
        <ele>65.192</ele>
        <time>2018-08-21T11:03:45Z</time>
      </trkpt>
      <trkpt lat="37.151738" lon="-8.602282">
        <ele>65.519</ele>
        <time>2018-08-21T11:04:09Z</time>
      </trkpt>
      <trkpt lat="37.150722" lon="-8.601859">
        <ele>65.350</ele>
        <time>2018-08-21T11:04:36Z</time>
      </trkpt>
      <trkpt lat="37.148474" lon="-8.599441">
        <ele>65.616</ele>
        <time>2018-08-21T11:05:49Z</time>
      </trkpt>
      <trkpt lat="37.146961" lon="-8.599560">
        <ele>65.168</ele>
        <time>2018-08-21T11:06:28Z</time>
      </trkpt>
      <trkpt lat="37.145456" lon="-8.599309">
        <ele>66.248</ele>
        <time>2018-08-21T11:07:08Z</time>
      </trkpt>
      <trkpt lat="37.143475" lon="-8.598718">
        <ele>65.261</ele>
        <time>2018-08-21T11:08:06Z</time>
      </trkpt>
      <trkpt lat="37.142366" lon="-8.598128">
        <ele>65.817</ele>
        <time>2018-08-21T11:08:45Z</time>
      </trkpt>
      <trkpt lat="37.141888" lon="-8.597530">
        <ele>67.108</ele>
        <time>2018-08-21T11:09:05Z</time>
      </trkpt>
      <trkpt lat="37.142909" lon="-8.596415">
        <ele>66.496</ele>
        <time>2018-08-21T11:09:44Z</time>
      </trkpt>
      <trkpt lat="37.141856" lon="-8.594075">
        <ele>67.361</ele>
        <time>2018-08-21T11:12:19Z</time>
      </trkpt>
      <trkpt lat="37.142664" lon="-8.592157">
        <ele>65.242</ele>
        <time>2018-08-21T11:13:11Z</time>
      </trkpt>
      <trkpt lat="37.142171" lon="-8.591622">
        <ele>64.797</ele>
        <time>2018-08-21T11:13:26Z</time>
      </trkpt>
      <trkpt lat="37.140751" lon="-8.591040">
        <ele>62.434</ele>
        <time>2018-08-21T11:14:00Z</time>
      </trkpt>
      <trkpt lat="37.140323" lon="-8.590479">
        <ele>61.835</ele>
        <time>2018-08-21T11:14:14Z</time>
      </trkpt>
      <trkpt lat="37.139864" lon="-8.589300">
        <ele>64.681</ele>
        <time>2018-08-21T11:15:00Z</time>
      </trkpt>
      <trkpt lat="37.137668" lon="-8.589467">
        <ele>84.583</ele>
        <time>2018-08-21T11:16:45Z</time>
      </trkpt>
      <trkpt lat="37.136177" lon="-8.590224">
        <ele>95.076</ele>
        <time>2018-08-21T11:18:09Z</time>
      </trkpt>
      <trkpt lat="37.135246" lon="-8.590501">
        <ele>94.190</ele>
        <time>2018-08-21T11:18:37Z</time>
      </trkpt>
      <trkpt lat="37.133830" lon="-8.592219">
        <ele>86.119</ele>
        <time>2018-08-21T11:19:19Z</time>
      </trkpt>
      <trkpt lat="37.132637" lon="-8.592477">
        <ele>80.508</ele>
        <time>2018-08-21T11:19:46Z</time>
      </trkpt>
      <trkpt lat="37.132341" lon="-8.591979">
        <ele>83.929</ele>
        <time>2018-08-21T11:20:05Z</time>
      </trkpt>
      <trkpt lat="37.132465" lon="-8.592367">
        <ele>83.184</ele>
        <time>2018-08-21T11:20:58Z</time>
      </trkpt>
      <trkpt lat="37.131685" lon="-8.592480">
        <ele>85.195</ele>
        <time>2018-08-21T11:21:33Z</time>
      </trkpt>
      <trkpt lat="37.130496" lon="-8.593535">
        <ele>86.670</ele>
        <time>2018-08-21T11:22:47Z</time>
      </trkpt>
      <trkpt lat="37.128034" lon="-8.594733">
        <ele>74.697</ele>
        <time>2018-08-21T11:30:24Z</time>
      </trkpt>
      <trkpt lat="37.128077" lon="-8.594843">
        <ele>69.168</ele>
        <time>2018-08-21T11:42:03Z</time>
      </trkpt>
      <trkpt lat="37.128001" lon="-8.594778">
        <ele>67.684</ele>
        <time>2018-08-21T11:43:21Z</time>
      </trkpt>
      <trkpt lat="37.128193" lon="-8.594700">
        <ele>72.526</ele>
        <time>2018-08-21T11:44:27Z</time>
      </trkpt>
      <trkpt lat="37.127906" lon="-8.595182">
        <ele>69.671</ele>
        <time>2018-08-21T11:44:42Z</time>
      </trkpt>
      <trkpt lat="37.126111" lon="-8.594964">
        <ele>70.941</ele>
        <time>2018-08-21T11:45:26Z</time>
      </trkpt>
      <trkpt lat="37.125428" lon="-8.595115">
        <ele>68.015</ele>
        <time>2018-08-21T11:45:41Z</time>
      </trkpt>
      <trkpt lat="37.125330" lon="-8.594833">
        <ele>68.908</ele>
        <time>2018-08-21T11:45:47Z</time>
      </trkpt>
      <trkpt lat="37.125550" lon="-8.593538">
        <ele>68.999</ele>
        <time>2018-08-21T11:46:09Z</time>
      </trkpt>
      <trkpt lat="37.126067" lon="-8.592609">
        <ele>66.434</ele>
        <time>2018-08-21T11:46:26Z</time>
      </trkpt>
      <trkpt lat="37.126037" lon="-8.591041">
        <ele>67.085</ele>
        <time>2018-08-21T11:46:50Z</time>
      </trkpt>
      <trkpt lat="37.125837" lon="-8.589645">
        <ele>68.990</ele>
        <time>2018-08-21T11:47:20Z</time>
      </trkpt>
      <trkpt lat="37.123249" lon="-8.586883">
        <ele>70.037</ele>
        <time>2018-08-21T11:48:26Z</time>
      </trkpt>
      <trkpt lat="37.122925" lon="-8.586264">
        <ele>70.968</ele>
        <time>2018-08-21T11:48:37Z</time>
      </trkpt>
      <trkpt lat="37.122951" lon="-8.584563">
        <ele>68.514</ele>
        <time>2018-08-21T11:49:03Z</time>
      </trkpt>
      <trkpt lat="37.122618" lon="-8.583598">
        <ele>72.126</ele>
        <time>2018-08-21T11:49:22Z</time>
      </trkpt>
      <trkpt lat="37.122648" lon="-8.583306">
        <ele>72.346</ele>
        <time>2018-08-21T11:49:28Z</time>
      </trkpt>
      <trkpt lat="37.124924" lon="-8.581976">
        <ele>73.888</ele>
        <time>2018-08-21T11:50:16Z</time>
      </trkpt>
      <trkpt lat="37.125011" lon="-8.580604">
        <ele>73.516</ele>
        <time>2018-08-21T11:50:39Z</time>
      </trkpt>
      <trkpt lat="37.125269" lon="-8.580002">
        <ele>75.908</ele>
        <time>2018-08-21T11:50:53Z</time>
      </trkpt>
      <trkpt lat="37.125251" lon="-8.579581">
        <ele>77.736</ele>
        <time>2018-08-21T11:51:21Z</time>
      </trkpt>
      <trkpt lat="37.125084" lon="-8.579071">
        <ele>78.871</ele>
        <time>2018-08-21T11:51:32Z</time>
      </trkpt>
      <trkpt lat="37.124452" lon="-8.578215">
        <ele>77.982</ele>
        <time>2018-08-21T11:51:52Z</time>
      </trkpt>
      <trkpt lat="37.123817" lon="-8.577807">
        <ele>76.897</ele>
        <time>2018-08-21T11:52:07Z</time>
      </trkpt>
      <trkpt lat="37.122368" lon="-8.576339">
        <ele>93.494</ele>
        <time>2018-08-21T11:53:14Z</time>
      </trkpt>
      <trkpt lat="37.121524" lon="-8.574547">
        <ele>96.985</ele>
        <time>2018-08-21T11:54:07Z</time>
      </trkpt>
      <trkpt lat="37.121529" lon="-8.574143">
        <ele>95.871</ele>
        <time>2018-08-21T11:54:15Z</time>
      </trkpt>
      <trkpt lat="37.121070" lon="-8.572842">
        <ele>94.773</ele>
        <time>2018-08-21T11:54:47Z</time>
      </trkpt>
      <trkpt lat="37.120964" lon="-8.571891">
        <ele>99.751</ele>
        <time>2018-08-21T11:55:07Z</time>
      </trkpt>
      <trkpt lat="37.121678" lon="-8.569532">
        <ele>98.001</ele>
        <time>2018-08-21T11:55:44Z</time>
      </trkpt>
      <trkpt lat="37.122161" lon="-8.566813">
        <ele>95.811</ele>
        <time>2018-08-21T11:56:25Z</time>
      </trkpt>
      <trkpt lat="37.122874" lon="-8.564221">
        <ele>88.108</ele>
        <time>2018-08-21T11:56:57Z</time>
      </trkpt>
      <trkpt lat="37.122880" lon="-8.563632">
        <ele>92.567</ele>
        <time>2018-08-21T11:57:11Z</time>
      </trkpt>
      <trkpt lat="37.123273" lon="-8.563538">
        <ele>93.392</ele>
        <time>2018-08-21T11:57:23Z</time>
      </trkpt>
      <trkpt lat="37.123613" lon="-8.563074">
        <ele>94.343</ele>
        <time>2018-08-21T11:57:47Z</time>
      </trkpt>
      <trkpt lat="37.124511" lon="-8.559782">
        <ele>88.578</ele>
        <time>2018-08-21T11:58:38Z</time>
      </trkpt>
      <trkpt lat="37.124293" lon="-8.559229">
        <ele>87.675</ele>
        <time>2018-08-21T11:58:48Z</time>
      </trkpt>
      <trkpt lat="37.123309" lon="-8.558163">
        <ele>85.046</ele>
        <time>2018-08-21T11:59:04Z</time>
      </trkpt>
      <trkpt lat="37.123388" lon="-8.557477">
        <ele>79.662</ele>
        <time>2018-08-21T11:59:13Z</time>
      </trkpt>
      <trkpt lat="37.123275" lon="-8.556961">
        <ele>75.024</ele>
        <time>2018-08-21T11:59:23Z</time>
      </trkpt>
      <trkpt lat="37.121323" lon="-8.556557">
        <ele>64.857</ele>
        <time>2018-08-21T12:00:01Z</time>
      </trkpt>
      <trkpt lat="37.120674" lon="-8.556890">
        <ele>64.100</ele>
        <time>2018-08-21T12:00:18Z</time>
      </trkpt>
      <trkpt lat="37.120261" lon="-8.557297">
        <ele>66.620</ele>
        <time>2018-08-21T12:00:29Z</time>
      </trkpt>
      <trkpt lat="37.119861" lon="-8.557339">
        <ele>70.108</ele>
        <time>2018-08-21T12:00:45Z</time>
      </trkpt>
      <trkpt lat="37.119649" lon="-8.556983">
        <ele>73.587</ele>
        <time>2018-08-21T12:01:02Z</time>
      </trkpt>
      <trkpt lat="37.119311" lon="-8.551611">
        <ele>84.262</ele>
        <time>2018-08-21T12:03:18Z</time>
      </trkpt>
      <trkpt lat="37.118378" lon="-8.548118">
        <ele>85.383</ele>
        <time>2018-08-21T12:04:42Z</time>
      </trkpt>
      <trkpt lat="37.118028" lon="-8.545815">
        <ele>89.178</ele>
        <time>2018-08-21T12:05:28Z</time>
      </trkpt>
      <trkpt lat="37.117821" lon="-8.545555">
        <ele>88.665</ele>
        <time>2018-08-21T12:05:45Z</time>
      </trkpt>
      <trkpt lat="37.118102" lon="-8.545216">
        <ele>83.256</ele>
        <time>2018-08-21T12:06:45Z</time>
      </trkpt>
      <trkpt lat="37.118110" lon="-8.543029">
        <ele>81.662</ele>
        <time>2018-08-21T12:07:30Z</time>
      </trkpt>
      <trkpt lat="37.119109" lon="-8.540006">
        <ele>82.594</ele>
        <time>2018-08-21T12:09:15Z</time>
      </trkpt>
      <trkpt lat="37.119041" lon="-8.536615">
        <ele>84.658</ele>
        <time>2018-08-21T12:10:26Z</time>
      </trkpt>
      <trkpt lat="37.118942" lon="-8.536186">
        <ele>85.552</ele>
        <time>2018-08-21T12:10:38Z</time>
      </trkpt>
      <trkpt lat="37.118803" lon="-8.536147">
        <ele>85.717</ele>
        <time>2018-08-21T12:10:42Z</time>
      </trkpt>
      <trkpt lat="37.118962" lon="-8.535991">
        <ele>89.108</ele>
        <time>2018-08-21T12:11:10Z</time>
      </trkpt>
      <trkpt lat="37.119016" lon="-8.536098">
        <ele>88.327</ele>
        <time>2018-08-21T12:11:17Z</time>
      </trkpt>
      <trkpt lat="37.118884" lon="-8.536279">
        <ele>87.552</ele>
        <time>2018-08-21T12:11:27Z</time>
      </trkpt>
      <trkpt lat="37.118459" lon="-8.536297">
        <ele>81.983</ele>
        <time>2018-08-21T12:11:48Z</time>
      </trkpt>
      <trkpt lat="37.118602" lon="-8.536451">
        <ele>79.048</ele>
        <time>2018-08-21T12:12:27Z</time>
      </trkpt>
      <trkpt lat="37.118354" lon="-8.536869">
        <ele>74.155</ele>
        <time>2018-08-21T12:12:49Z</time>
      </trkpt>
      <trkpt lat="37.117729" lon="-8.537140">
        <ele>68.876</ele>
        <time>2018-08-21T12:13:44Z</time>
      </trkpt>
      <trkpt lat="37.117668" lon="-8.535663">
        <ele>71.522</ele>
        <time>2018-08-21T12:14:14Z</time>
      </trkpt>
      <trkpt lat="37.117132" lon="-8.534367">
        <ele>69.034</ele>
        <time>2018-08-21T12:14:40Z</time>
      </trkpt>
      <trkpt lat="37.116925" lon="-8.533096">
        <ele>68.645</ele>
        <time>2018-08-21T12:15:39Z</time>
      </trkpt>
      <trkpt lat="37.116077" lon="-8.530161">
        <ele>66.747</ele>
        <time>2018-08-21T12:16:25Z</time>
      </trkpt>
      <trkpt lat="37.116042" lon="-8.529337">
        <ele>68.911</ele>
        <time>2018-08-21T12:16:41Z</time>
      </trkpt>
      <trkpt lat="37.116437" lon="-8.529232">
        <ele>69.908</ele>
        <time>2018-08-21T12:16:57Z</time>
      </trkpt>
      <trkpt lat="37.116564" lon="-8.528989">
        <ele>70.546</ele>
        <time>2018-08-21T12:17:28Z</time>
      </trkpt>
      <trkpt lat="37.117172" lon="-8.528988">
        <ele>74.891</ele>
        <time>2018-08-21T12:17:52Z</time>
      </trkpt>
      <trkpt lat="37.117939" lon="-8.529335">
        <ele>72.752</ele>
        <time>2018-08-21T12:18:12Z</time>
      </trkpt>
      <trkpt lat="37.118202" lon="-8.529657">
        <ele>72.657</ele>
        <time>2018-08-21T12:18:59Z</time>
      </trkpt>
      <trkpt lat="37.122176" lon="-8.528670">
        <ele>68.034</ele>
        <time>2018-08-21T12:21:51Z</time>
      </trkpt>
      <trkpt lat="37.122389" lon="-8.529977">
        <ele>62.225</ele>
        <time>2018-08-21T12:22:16Z</time>
      </trkpt>
      <trkpt lat="37.122750" lon="-8.530574">
        <ele>61.851</ele>
        <time>2018-08-21T12:22:28Z</time>
      </trkpt>
      <trkpt lat="37.123292" lon="-8.530603">
        <ele>63.073</ele>
        <time>2018-08-21T12:22:40Z</time>
      </trkpt>
      <trkpt lat="37.124165" lon="-8.530220">
        <ele>66.864</ele>
        <time>2018-08-21T12:22:59Z</time>
      </trkpt>
      <trkpt lat="37.124844" lon="-8.530228">
        <ele>69.106</ele>
        <time>2018-08-21T12:23:12Z</time>
      </trkpt>
      <trkpt lat="37.125525" lon="-8.530474">
        <ele>68.716</ele>
        <time>2018-08-21T12:23:24Z</time>
      </trkpt>
      <trkpt lat="37.127626" lon="-8.531948">
        <ele>63.108</ele>
        <time>2018-08-21T12:24:14Z</time>
      </trkpt>
      <trkpt lat="37.129529" lon="-8.531873">
        <ele>68.548</ele>
        <time>2018-08-21T12:24:55Z</time>
      </trkpt>
      <trkpt lat="37.129604" lon="-8.532034">
        <ele>68.743</ele>
        <time>2018-08-21T12:24:59Z</time>
      </trkpt>
      <trkpt lat="37.129355" lon="-8.532289">
        <ele>69.894</ele>
        <time>2018-08-21T12:25:08Z</time>
      </trkpt>
      <trkpt lat="37.129283" lon="-8.533079">
        <ele>71.649</ele>
        <time>2018-08-21T12:25:28Z</time>
      </trkpt>
      <trkpt lat="37.129465" lon="-8.533544">
        <ele>69.376</ele>
        <time>2018-08-21T12:25:38Z</time>
      </trkpt>
      <trkpt lat="37.130078" lon="-8.534146">
        <ele>67.657</ele>
        <time>2018-08-21T12:25:58Z</time>
      </trkpt>
      <trkpt lat="37.130400" lon="-8.533854">
        <ele>72.883</ele>
        <time>2018-08-21T12:26:28Z</time>
      </trkpt>
      <trkpt lat="37.131349" lon="-8.534543">
        <ele>70.525</ele>
        <time>2018-08-21T12:26:56Z</time>
      </trkpt>
      <trkpt lat="37.132870" lon="-8.535044">
        <ele>68.915</ele>
        <time>2018-08-21T12:27:35Z</time>
      </trkpt>
      <trkpt lat="37.132776" lon="-8.534884">
        <ele>68.465</ele>
        <time>2018-08-21T12:27:43Z</time>
      </trkpt>
      <trkpt lat="37.132984" lon="-8.535047">
        <ele>68.011</ele>
        <time>2018-08-21T12:29:01Z</time>
      </trkpt>
      <trkpt lat="37.134020" lon="-8.535193">
        <ele>69.508</ele>
        <time>2018-08-21T12:29:22Z</time>
      </trkpt>
      <trkpt lat="37.135148" lon="-8.535096">
        <ele>68.163</ele>
        <time>2018-08-21T12:29:43Z</time>
      </trkpt>
      <trkpt lat="37.136325" lon="-8.534790">
        <ele>67.588</ele>
        <time>2018-08-21T12:30:03Z</time>
      </trkpt>
      <trkpt lat="37.137654" lon="-8.533939">
        <ele>66.679</ele>
        <time>2018-08-21T12:30:29Z</time>
      </trkpt>
      <trkpt lat="37.138862" lon="-8.532845">
        <ele>68.624</ele>
        <time>2018-08-21T12:30:58Z</time>
      </trkpt>
      <trkpt lat="37.138547" lon="-8.533199">
        <ele>69.231</ele>
        <time>2018-08-21T12:31:18Z</time>
      </trkpt>
      <trkpt lat="37.138628" lon="-8.533527">
        <ele>69.042</ele>
        <time>2018-08-21T12:31:29Z</time>
      </trkpt>
      <trkpt lat="37.138758" lon="-8.533554">
        <ele>69.888</ele>
        <time>2018-08-21T12:31:35Z</time>
      </trkpt>
      <trkpt lat="37.140044" lon="-8.532318">
        <ele>67.780</ele>
        <time>2018-08-21T12:32:14Z</time>
      </trkpt>
      <trkpt lat="37.140028" lon="-8.532063">
        <ele>69.485</ele>
        <time>2018-08-21T12:32:19Z</time>
      </trkpt>
      <trkpt lat="37.135984" lon="-8.523288">
        <ele>67.389</ele>
        <time>2018-08-21T12:34:51Z</time>
      </trkpt>
      <trkpt lat="37.135651" lon="-8.522868">
        <ele>67.617</ele>
        <time>2018-08-21T12:35:30Z</time>
      </trkpt>
      <trkpt lat="37.136549" lon="-8.521173">
        <ele>64.408</ele>
        <time>2018-08-21T12:36:01Z</time>
      </trkpt>
      <trkpt lat="37.136837" lon="-8.520440">
        <ele>64.420</ele>
        <time>2018-08-21T12:36:14Z</time>
      </trkpt>
      <trkpt lat="37.136790" lon="-8.520237">
        <ele>64.995</ele>
        <time>2018-08-21T12:36:44Z</time>
      </trkpt>
      <trkpt lat="37.136346" lon="-8.520375">
        <ele>69.716</ele>
        <time>2018-08-21T12:37:01Z</time>
      </trkpt>
      <trkpt lat="37.135323" lon="-8.521032">
        <ele>73.731</ele>
        <time>2018-08-21T12:37:29Z</time>
      </trkpt>
      <trkpt lat="37.134865" lon="-8.520914">
        <ele>71.748</ele>
        <time>2018-08-21T12:37:41Z</time>
      </trkpt>
      <trkpt lat="37.134721" lon="-8.520471">
        <ele>68.959</ele>
        <time>2018-08-21T12:37:55Z</time>
      </trkpt>
      <trkpt lat="37.134894" lon="-8.521355">
        <ele>71.765</ele>
        <time>2018-08-21T12:38:21Z</time>
      </trkpt>
      <trkpt lat="37.134799" lon="-8.521582">
        <ele>70.497</ele>
        <time>2018-08-21T12:38:25Z</time>
      </trkpt>
      <trkpt lat="37.134515" lon="-8.521658">
        <ele>69.051</ele>
        <time>2018-08-21T12:38:31Z</time>
      </trkpt>
      <trkpt lat="37.132181" lon="-8.521265">
        <ele>69.201</ele>
        <time>2018-08-21T12:39:19Z</time>
      </trkpt>
      <trkpt lat="37.131385" lon="-8.520721">
        <ele>66.911</ele>
        <time>2018-08-21T12:39:38Z</time>
      </trkpt>
      <trkpt lat="37.129593" lon="-8.521982">
        <ele>68.908</ele>
        <time>2018-08-21T12:40:20Z</time>
      </trkpt>
      <trkpt lat="37.127542" lon="-8.521426">
        <ele>72.617</ele>
        <time>2018-08-21T12:41:09Z</time>
      </trkpt>
      <trkpt lat="37.126703" lon="-8.521899">
        <ele>72.692</ele>
        <time>2018-08-21T12:41:29Z</time>
      </trkpt>
      <trkpt lat="37.126031" lon="-8.521817">
        <ele>74.683</ele>
        <time>2018-08-21T12:41:45Z</time>
      </trkpt>
      <trkpt lat="37.125625" lon="-8.521518">
        <ele>74.198</ele>
        <time>2018-08-21T12:42:57Z</time>
      </trkpt>
      <trkpt lat="37.125258" lon="-8.520650">
        <ele>69.765</ele>
        <time>2018-08-21T12:43:15Z</time>
      </trkpt>
      <trkpt lat="37.125402" lon="-8.518834">
        <ele>64.436</ele>
        <time>2018-08-21T12:43:46Z</time>
      </trkpt>
      <trkpt lat="37.125057" lon="-8.517304">
        <ele>66.562</ele>
        <time>2018-08-21T12:44:18Z</time>
      </trkpt>
      <trkpt lat="37.125032" lon="-8.514032">
        <ele>65.834</ele>
        <time>2018-08-21T12:45:38Z</time>
      </trkpt>
      <trkpt lat="37.125720" lon="-8.511202">
        <ele>66.227</ele>
        <time>2018-08-21T12:47:01Z</time>
      </trkpt>
      <trkpt lat="37.126456" lon="-8.508972">
        <ele>68.068</ele>
        <time>2018-08-21T12:48:02Z</time>
      </trkpt>
      <trkpt lat="37.126504" lon="-8.508044">
        <ele>68.014</ele>
        <time>2018-08-21T12:48:22Z</time>
      </trkpt>
      <trkpt lat="37.127224" lon="-8.504721">
        <ele>65.408</ele>
        <time>2018-08-21T12:49:28Z</time>
      </trkpt>
      <trkpt lat="37.127774" lon="-8.503438">
        <ele>72.454</ele>
        <time>2018-08-21T12:49:56Z</time>
      </trkpt>
      <trkpt lat="37.128770" lon="-8.500247">
        <ele>73.129</ele>
        <time>2018-08-21T12:50:57Z</time>
      </trkpt>
      <trkpt lat="37.129139" lon="-8.498045">
        <ele>71.870</ele>
        <time>2018-08-21T12:51:39Z</time>
      </trkpt>
      <trkpt lat="37.130396" lon="-8.495000">
        <ele>78.365</ele>
        <time>2018-08-21T12:52:41Z</time>
      </trkpt>
      <trkpt lat="37.130404" lon="-8.492859">
        <ele>81.672</ele>
        <time>2018-08-21T12:53:33Z</time>
      </trkpt>
      <trkpt lat="37.131035" lon="-8.487902">
        <ele>84.053</ele>
        <time>2018-08-21T12:56:01Z</time>
      </trkpt>
      <trkpt lat="37.131528" lon="-8.486349">
        <ele>84.799</ele>
        <time>2018-08-21T12:56:41Z</time>
      </trkpt>
      <trkpt lat="37.132172" lon="-8.485302">
        <ele>86.391</ele>
        <time>2018-08-21T12:57:05Z</time>
      </trkpt>
      <trkpt lat="37.132544" lon="-8.484234">
        <ele>86.877</ele>
        <time>2018-08-21T12:57:24Z</time>
      </trkpt>
      <trkpt lat="37.133242" lon="-8.483327">
        <ele>88.661</ele>
        <time>2018-08-21T12:57:46Z</time>
      </trkpt>
      <trkpt lat="37.133371" lon="-8.481101">
        <ele>95.727</ele>
        <time>2018-08-21T12:59:10Z</time>
      </trkpt>
      <trkpt lat="37.133562" lon="-8.480847">
        <ele>96.108</ele>
        <time>2018-08-21T12:59:26Z</time>
      </trkpt>
      <trkpt lat="37.134453" lon="-8.477889">
        <ele>93.199</ele>
        <time>2018-08-21T13:00:32Z</time>
      </trkpt>
      <trkpt lat="37.134583" lon="-8.475524">
        <ele>95.044</ele>
        <time>2018-08-21T13:01:12Z</time>
      </trkpt>
      <trkpt lat="37.135204" lon="-8.472842">
        <ele>96.655</ele>
        <time>2018-08-21T13:02:08Z</time>
      </trkpt>
      <trkpt lat="37.135686" lon="-8.471522">
        <ele>103.680</ele>
        <time>2018-08-21T13:02:47Z</time>
      </trkpt>
      <trkpt lat="37.136614" lon="-8.470277">
        <ele>106.257</ele>
        <time>2018-08-21T13:03:59Z</time>
      </trkpt>
      <trkpt lat="37.136339" lon="-8.469163">
        <ele>106.728</ele>
        <time>2018-08-21T13:04:22Z</time>
      </trkpt>
      <trkpt lat="37.136197" lon="-8.463375">
        <ele>103.694</ele>
        <time>2018-08-21T13:06:03Z</time>
      </trkpt>
      <trkpt lat="37.135888" lon="-8.461868">
        <ele>105.226</ele>
        <time>2018-08-21T13:07:05Z</time>
      </trkpt>
      <trkpt lat="37.136447" lon="-8.463041">
        <ele>106.381</ele>
        <time>2018-08-21T13:08:05Z</time>
      </trkpt>
      <trkpt lat="37.136459" lon="-8.462637">
        <ele>107.161</ele>
        <time>2018-08-21T13:08:21Z</time>
      </trkpt>
      <trkpt lat="37.136177" lon="-8.461965">
        <ele>114.617</ele>
        <time>2018-08-21T13:09:17Z</time>
      </trkpt>
      <trkpt lat="37.136807" lon="-8.461476">
        <ele>110.708</ele>
        <time>2018-08-21T13:10:04Z</time>
      </trkpt>
      <trkpt lat="37.136470" lon="-8.461577">
        <ele>110.320</ele>
        <time>2018-08-21T13:10:43Z</time>
      </trkpt>
      <trkpt lat="37.135565" lon="-8.460123">
        <ele>114.155</ele>
        <time>2018-08-21T13:11:39Z</time>
      </trkpt>
      <trkpt lat="37.135509" lon="-8.459383">
        <ele>113.086</ele>
        <time>2018-08-21T13:12:27Z</time>
      </trkpt>
      <trkpt lat="37.135855" lon="-8.459053">
        <ele>114.131</ele>
        <time>2018-08-21T13:13:07Z</time>
      </trkpt>
      <trkpt lat="37.135722" lon="-8.459097">
        <ele>118.098</ele>
        <time>2018-08-21T13:13:23Z</time>
      </trkpt>
      <trkpt lat="37.135583" lon="-8.458930">
        <ele>118.549</ele>
        <time>2018-08-21T13:14:02Z</time>
      </trkpt>
      <trkpt lat="37.135844" lon="-8.459046">
        <ele>117.235</ele>
        <time>2018-08-21T13:14:13Z</time>
      </trkpt>
      <trkpt lat="37.135901" lon="-8.458947">
        <ele>116.927</ele>
        <time>2018-08-21T13:14:17Z</time>
      </trkpt>
      <trkpt lat="37.135399" lon="-8.455636">
        <ele>120.949</ele>
        <time>2018-08-21T13:15:49Z</time>
      </trkpt>
      <trkpt lat="37.135895" lon="-8.454816">
        <ele>123.902</ele>
        <time>2018-08-21T13:17:32Z</time>
      </trkpt>
      <trkpt lat="37.136026" lon="-8.454016">
        <ele>120.622</ele>
        <time>2018-08-21T13:18:14Z</time>
      </trkpt>
      <trkpt lat="37.136603" lon="-8.453965">
        <ele>121.308</ele>
        <time>2018-08-21T13:18:38Z</time>
      </trkpt>
      <trkpt lat="37.137653" lon="-8.452390">
        <ele>116.326</ele>
        <time>2018-08-21T13:19:51Z</time>
      </trkpt>
      <trkpt lat="37.138377" lon="-8.452133">
        <ele>121.261</ele>
        <time>2018-08-21T13:20:08Z</time>
      </trkpt>
      <trkpt lat="37.138231" lon="-8.451916">
        <ele>119.452</ele>
        <time>2018-08-21T13:20:14Z</time>
      </trkpt>
      <trkpt lat="37.137148" lon="-8.451244">
        <ele>121.427</ele>
        <time>2018-08-21T13:20:44Z</time>
      </trkpt>
      <trkpt lat="37.136947" lon="-8.451176">
        <ele>122.464</ele>
        <time>2018-08-21T13:20:51Z</time>
      </trkpt>
      <trkpt lat="37.136862" lon="-8.451306">
        <ele>120.745</ele>
        <time>2018-08-21T13:22:10Z</time>
      </trkpt>
      <trkpt lat="37.136635" lon="-8.450494">
        <ele>115.541</ele>
        <time>2018-08-21T13:22:56Z</time>
      </trkpt>
      <trkpt lat="37.136253" lon="-8.450122">
        <ele>111.633</ele>
        <time>2018-08-21T13:23:32Z</time>
      </trkpt>
      <trkpt lat="37.133993" lon="-8.449566">
        <ele>101.671</ele>
        <time>2018-08-21T13:24:33Z</time>
      </trkpt>
      <trkpt lat="37.133240" lon="-8.449230">
        <ele>103.841</ele>
        <time>2018-08-21T13:24:49Z</time>
      </trkpt>
      <trkpt lat="37.132566" lon="-8.448659">
        <ele>106.015</ele>
        <time>2018-08-21T13:25:09Z</time>
      </trkpt>
      <trkpt lat="37.132295" lon="-8.448630">
        <ele>103.608</ele>
        <time>2018-08-21T13:25:23Z</time>
      </trkpt>
      <trkpt lat="37.132455" lon="-8.448923">
        <ele>104.139</ele>
        <time>2018-08-21T13:25:43Z</time>
      </trkpt>
      <trkpt lat="37.132345" lon="-8.448804">
        <ele>102.184</ele>
        <time>2018-08-21T13:28:31Z</time>
      </trkpt>
      <trkpt lat="37.132608" lon="-8.448899">
        <ele>105.245</ele>
        <time>2018-08-21T13:47:46Z</time>
      </trkpt>
      <trkpt lat="37.131954" lon="-8.447953">
        <ele>102.720</ele>
        <time>2018-08-21T13:48:14Z</time>
      </trkpt>
      <trkpt lat="37.131630" lon="-8.447796">
        <ele>102.527</ele>
        <time>2018-08-21T13:48:25Z</time>
      </trkpt>
      <trkpt lat="37.131491" lon="-8.446940">
        <ele>100.858</ele>
        <time>2018-08-21T13:48:46Z</time>
      </trkpt>
      <trkpt lat="37.131272" lon="-8.447343">
        <ele>101.444</ele>
        <time>2018-08-21T13:49:20Z</time>
      </trkpt>
      <trkpt lat="37.131048" lon="-8.447425">
        <ele>103.646</ele>
        <time>2018-08-21T13:49:31Z</time>
      </trkpt>
      <trkpt lat="37.128918" lon="-8.445626">
        <ele>102.482</ele>
        <time>2018-08-21T13:50:40Z</time>
      </trkpt>
      <trkpt lat="37.127726" lon="-8.443938">
        <ele>104.343</ele>
        <time>2018-08-21T13:51:27Z</time>
      </trkpt>
      <trkpt lat="37.125640" lon="-8.439147">
        <ele>105.117</ele>
        <time>2018-08-21T13:53:49Z</time>
      </trkpt>
      <trkpt lat="37.123904" lon="-8.436518">
        <ele>105.708</ele>
        <time>2018-08-21T13:55:07Z</time>
      </trkpt>
      <trkpt lat="37.124091" lon="-8.435954">
        <ele>107.830</ele>
        <time>2018-08-21T13:55:40Z</time>
      </trkpt>
      <trkpt lat="37.123975" lon="-8.435650">
        <ele>108.015</ele>
        <time>2018-08-21T13:55:49Z</time>
      </trkpt>
      <trkpt lat="37.122490" lon="-8.433449">
        <ele>107.636</ele>
        <time>2018-08-21T13:56:52Z</time>
      </trkpt>
      <trkpt lat="37.122200" lon="-8.432581">
        <ele>109.141</ele>
        <time>2018-08-21T13:57:13Z</time>
      </trkpt>
      <trkpt lat="37.120792" lon="-8.430886">
        <ele>117.798</ele>
        <time>2018-08-21T13:58:23Z</time>
      </trkpt>
      <trkpt lat="37.120824" lon="-8.429530">
        <ele>110.079</ele>
        <time>2018-08-21T13:58:56Z</time>
      </trkpt>
      <trkpt lat="37.121269" lon="-8.428877">
        <ele>114.035</ele>
        <time>2018-08-21T14:00:02Z</time>
      </trkpt>
      <trkpt lat="37.121057" lon="-8.426925">
        <ele>136.297</ele>
        <time>2018-08-21T14:02:37Z</time>
      </trkpt>
      <trkpt lat="37.121210" lon="-8.426163">
        <ele>138.833</ele>
        <time>2018-08-21T14:04:10Z</time>
      </trkpt>
      <trkpt lat="37.121965" lon="-8.424228">
        <ele>137.523</ele>
        <time>2018-08-21T14:05:05Z</time>
      </trkpt>
      <trkpt lat="37.121907" lon="-8.423539">
        <ele>140.215</ele>
        <time>2018-08-21T14:05:23Z</time>
      </trkpt>
      <trkpt lat="37.123313" lon="-8.420377">
        <ele>147.608</ele>
        <time>2018-08-21T14:07:07Z</time>
      </trkpt>
      <trkpt lat="37.123645" lon="-8.419019">
        <ele>148.995</ele>
        <time>2018-08-21T14:07:51Z</time>
      </trkpt>
      <trkpt lat="37.123376" lon="-8.418521">
        <ele>145.410</ele>
        <time>2018-08-21T14:08:12Z</time>
      </trkpt>
      <trkpt lat="37.123044" lon="-8.418319">
        <ele>144.291</ele>
        <time>2018-08-21T14:08:20Z</time>
      </trkpt>
      <trkpt lat="37.122889" lon="-8.416574">
        <ele>139.136</ele>
        <time>2018-08-21T14:08:41Z</time>
      </trkpt>
      <trkpt lat="37.121601" lon="-8.414625">
        <ele>127.733</ele>
        <time>2018-08-21T14:09:08Z</time>
      </trkpt>
      <trkpt lat="37.120732" lon="-8.412320">
        <ele>123.844</ele>
        <time>2018-08-21T14:09:45Z</time>
      </trkpt>
      <trkpt lat="37.120791" lon="-8.409916">
        <ele>120.630</ele>
        <time>2018-08-21T14:10:22Z</time>
      </trkpt>
      <trkpt lat="37.119351" lon="-8.407140">
        <ele>133.962</ele>
        <time>2018-08-21T14:12:32Z</time>
      </trkpt>
      <trkpt lat="37.118627" lon="-8.406501">
        <ele>144.312</ele>
        <time>2018-08-21T14:14:11Z</time>
      </trkpt>
      <trkpt lat="37.118404" lon="-8.405598">
        <ele>150.132</ele>
        <time>2018-08-21T14:15:16Z</time>
      </trkpt>
      <trkpt lat="37.116671" lon="-8.403597">
        <ele>152.005</ele>
        <time>2018-08-21T14:16:55Z</time>
      </trkpt>
      <trkpt lat="37.115235" lon="-8.402380">
        <ele>150.708</ele>
        <time>2018-08-21T14:18:11Z</time>
      </trkpt>
      <trkpt lat="37.113304" lon="-8.400425">
        <ele>144.593</ele>
        <time>2018-08-21T14:18:57Z</time>
      </trkpt>
      <trkpt lat="37.112401" lon="-8.399220">
        <ele>137.848</ele>
        <time>2018-08-21T14:19:14Z</time>
      </trkpt>
      <trkpt lat="37.111691" lon="-8.398608">
        <ele>141.289</ele>
        <time>2018-08-21T14:19:37Z</time>
      </trkpt>
      <trkpt lat="37.111592" lon="-8.398232">
        <ele>141.264</ele>
        <time>2018-08-21T14:19:50Z</time>
      </trkpt>
      <trkpt lat="37.110596" lon="-8.397607">
        <ele>140.161</ele>
        <time>2018-08-21T14:20:38Z</time>
      </trkpt>
      <trkpt lat="37.110672" lon="-8.397184">
        <ele>138.962</ele>
        <time>2018-08-21T14:21:02Z</time>
      </trkpt>
      <trkpt lat="37.110700" lon="-8.397520">
        <ele>138.728</ele>
        <time>2018-08-21T14:21:14Z</time>
      </trkpt>
      <trkpt lat="37.110501" lon="-8.397586">
        <ele>139.250</ele>
        <time>2018-08-21T14:21:19Z</time>
      </trkpt>
      <trkpt lat="37.109983" lon="-8.397381">
        <ele>138.179</ele>
        <time>2018-08-21T14:21:31Z</time>
      </trkpt>
      <trkpt lat="37.109555" lon="-8.397443">
        <ele>136.705</ele>
        <time>2018-08-21T14:21:42Z</time>
      </trkpt>
      <trkpt lat="37.109207" lon="-8.397215">
        <ele>135.525</ele>
        <time>2018-08-21T14:22:09Z</time>
      </trkpt>
      <trkpt lat="37.107000" lon="-8.397218">
        <ele>129.808</ele>
        <time>2018-08-21T14:22:56Z</time>
      </trkpt>
      <trkpt lat="37.105572" lon="-8.396713">
        <ele>128.799</ele>
        <time>2018-08-21T14:23:27Z</time>
      </trkpt>
      <trkpt lat="37.103859" lon="-8.396507">
        <ele>121.524</ele>
        <time>2018-08-21T14:24:01Z</time>
      </trkpt>
      <trkpt lat="37.102592" lon="-8.394595">
        <ele>109.715</ele>
        <time>2018-08-21T14:24:31Z</time>
      </trkpt>
      <trkpt lat="37.102456" lon="-8.393877">
        <ele>108.320</ele>
        <time>2018-08-21T14:24:41Z</time>
      </trkpt>
      <trkpt lat="37.101829" lon="-8.392829">
        <ele>119.397</ele>
        <time>2018-08-21T14:25:30Z</time>
      </trkpt>
      <trkpt lat="37.100489" lon="-8.391608">
        <ele>111.158</ele>
        <time>2018-08-21T14:26:06Z</time>
      </trkpt>
      <trkpt lat="37.101151" lon="-8.389627">
        <ele>112.024</ele>
        <time>2018-08-21T14:26:54Z</time>
      </trkpt>
      <trkpt lat="37.101124" lon="-8.388940">
        <ele>109.056</ele>
        <time>2018-08-21T14:27:15Z</time>
      </trkpt>
      <trkpt lat="37.103509" lon="-8.386966">
        <ele>125.725</ele>
        <time>2018-08-21T14:28:53Z</time>
      </trkpt>
      <trkpt lat="37.104100" lon="-8.384137">
        <ele>124.626</ele>
        <time>2018-08-21T14:29:47Z</time>
      </trkpt>
      <trkpt lat="37.105843" lon="-8.382862">
        <ele>121.008</ele>
        <time>2018-08-21T14:30:26Z</time>
      </trkpt>
      <trkpt lat="37.105992" lon="-8.382589">
        <ele>120.808</ele>
        <time>2018-08-21T14:30:32Z</time>
      </trkpt>
      <trkpt lat="37.105623" lon="-8.379247">
        <ele>109.914</ele>
        <time>2018-08-21T14:31:14Z</time>
      </trkpt>
      <trkpt lat="37.104824" lon="-8.376156">
        <ele>103.219</ele>
        <time>2018-08-21T14:31:50Z</time>
      </trkpt>
      <trkpt lat="37.104096" lon="-8.374525">
        <ele>95.020</ele>
        <time>2018-08-21T14:32:07Z</time>
      </trkpt>
      <trkpt lat="37.103467" lon="-8.370906">
        <ele>71.175</ele>
        <time>2018-08-21T14:32:36Z</time>
      </trkpt>
      <trkpt lat="37.103664" lon="-8.369945">
        <ele>69.292</ele>
        <time>2018-08-21T14:32:49Z</time>
      </trkpt>
      <trkpt lat="37.103908" lon="-8.369501">
        <ele>77.383</ele>
        <time>2018-08-21T14:36:34Z</time>
      </trkpt>
      <trkpt lat="37.103924" lon="-8.368942">
        <ele>78.419</ele>
        <time>2018-08-21T14:36:51Z</time>
      </trkpt>
      <trkpt lat="37.104342" lon="-8.368408">
        <ele>83.161</ele>
        <time>2018-08-21T14:37:14Z</time>
      </trkpt>
      <trkpt lat="37.104809" lon="-8.367198">
        <ele>88.336</ele>
        <time>2018-08-21T14:37:49Z</time>
      </trkpt>
      <trkpt lat="37.104805" lon="-8.366598">
        <ele>87.917</ele>
        <time>2018-08-21T14:38:00Z</time>
      </trkpt>
      <trkpt lat="37.104330" lon="-8.364501">
        <ele>79.118</ele>
        <time>2018-08-21T14:38:36Z</time>
      </trkpt>
      <trkpt lat="37.104175" lon="-8.362646">
        <ele>72.708</ele>
        <time>2018-08-21T14:39:04Z</time>
      </trkpt>
      <trkpt lat="37.104816" lon="-8.358207">
        <ele>77.565</ele>
        <time>2018-08-21T14:40:29Z</time>
      </trkpt>
      <trkpt lat="37.105682" lon="-8.356612">
        <ele>78.650</ele>
        <time>2018-08-21T14:41:07Z</time>
      </trkpt>
      <trkpt lat="37.108860" lon="-8.353728">
        <ele>73.651</ele>
        <time>2018-08-21T14:53:31Z</time>
      </trkpt>
      <trkpt lat="37.109082" lon="-8.352986">
        <ele>69.846</ele>
        <time>2018-08-21T15:10:44Z</time>
      </trkpt>
      <trkpt lat="37.108342" lon="-8.352285">
        <ele>68.213</ele>
        <time>2018-08-21T15:11:53Z</time>
      </trkpt>
      <trkpt lat="37.108439" lon="-8.351860">
        <ele>65.524</ele>
        <time>2018-08-21T15:12:08Z</time>
      </trkpt>
      <trkpt lat="37.108678" lon="-8.351730">
        <ele>66.090</ele>
        <time>2018-08-21T15:12:21Z</time>
      </trkpt>
      <trkpt lat="37.109218" lon="-8.352182">
        <ele>65.612</ele>
        <time>2018-08-21T15:12:57Z</time>
      </trkpt>
      <trkpt lat="37.109519" lon="-8.351498">
        <ele>68.082</ele>
        <time>2018-08-21T15:13:40Z</time>
      </trkpt>
      <trkpt lat="37.109803" lon="-8.351408">
        <ele>69.143</ele>
        <time>2018-08-21T15:13:59Z</time>
      </trkpt>
      <trkpt lat="37.110005" lon="-8.351621">
        <ele>70.217</ele>
        <time>2018-08-21T15:14:13Z</time>
      </trkpt>
      <trkpt lat="37.109781" lon="-8.351557">
        <ele>72.708</ele>
        <time>2018-08-21T15:26:36Z</time>
      </trkpt>
      <trkpt lat="37.109216" lon="-8.353510">
        <ele>74.182</ele>
        <time>2018-08-22T09:52:21Z</time>
      </trkpt>
      <trkpt lat="37.108792" lon="-8.353570">
        <ele>74.143</ele>
        <time>2018-08-22T09:53:33Z</time>
      </trkpt>
      <trkpt lat="37.108316" lon="-8.353235">
        <ele>74.117</ele>
        <time>2018-08-22T09:53:43Z</time>
      </trkpt>
      <trkpt lat="37.107254" lon="-8.353081">
        <ele>77.808</ele>
        <time>2018-08-22T09:53:58Z</time>
      </trkpt>
      <trkpt lat="37.106374" lon="-8.353281">
        <ele>75.820</ele>
        <time>2018-08-22T09:54:13Z</time>
      </trkpt>
      <trkpt lat="37.107450" lon="-8.351059">
        <ele>70.515</ele>
        <time>2018-08-22T09:54:58Z</time>
      </trkpt>
      <trkpt lat="37.108208" lon="-8.350347">
        <ele>72.976</ele>
        <time>2018-08-22T09:55:14Z</time>
      </trkpt>
      <trkpt lat="37.108538" lon="-8.349768">
        <ele>69.865</ele>
        <time>2018-08-22T09:55:23Z</time>
      </trkpt>
      <trkpt lat="37.110266" lon="-8.349165">
        <ele>64.925</ele>
        <time>2018-08-22T09:55:55Z</time>
      </trkpt>
      <trkpt lat="37.113819" lon="-8.347319">
        <ele>67.830</ele>
        <time>2018-08-22T09:57:10Z</time>
      </trkpt>
      <trkpt lat="37.114973" lon="-8.346971">
        <ele>66.086</ele>
        <time>2018-08-22T09:57:34Z</time>
      </trkpt>
      <trkpt lat="37.115646" lon="-8.346306">
        <ele>68.396</ele>
        <time>2018-08-22T09:57:51Z</time>
      </trkpt>
      <trkpt lat="37.116221" lon="-8.346033">
        <ele>67.052</ele>
        <time>2018-08-22T09:58:11Z</time>
      </trkpt>
      <trkpt lat="37.115502" lon="-8.342321">
        <ele>74.353</ele>
        <time>2018-08-22T09:59:23Z</time>
      </trkpt>
      <trkpt lat="37.115168" lon="-8.341508">
        <ele>70.608</ele>
        <time>2018-08-22T09:59:36Z</time>
      </trkpt>
      <trkpt lat="37.115189" lon="-8.341079">
        <ele>70.008</ele>
        <time>2018-08-22T09:59:43Z</time>
      </trkpt>
      <trkpt lat="37.114718" lon="-8.340582">
        <ele>72.547</ele>
        <time>2018-08-22T09:59:57Z</time>
      </trkpt>
      <trkpt lat="37.113945" lon="-8.340873">
        <ele>69.152</ele>
        <time>2018-08-22T10:00:11Z</time>
      </trkpt>
      <trkpt lat="37.112910" lon="-8.340617">
        <ele>67.933</ele>
        <time>2018-08-22T10:00:28Z</time>
      </trkpt>
      <trkpt lat="37.111843" lon="-8.340584">
        <ele>68.352</ele>
        <time>2018-08-22T10:00:45Z</time>
      </trkpt>
      <trkpt lat="37.110574" lon="-8.340993">
        <ele>67.492</ele>
        <time>2018-08-22T10:01:07Z</time>
      </trkpt>
      <trkpt lat="37.107874" lon="-8.339787">
        <ele>69.287</ele>
        <time>2018-08-22T10:01:57Z</time>
      </trkpt>
      <trkpt lat="37.105205" lon="-8.339041">
        <ele>77.093</ele>
        <time>2018-08-22T10:02:52Z</time>
      </trkpt>
      <trkpt lat="37.102693" lon="-8.337802">
        <ele>74.233</ele>
        <time>2018-08-22T10:03:36Z</time>
      </trkpt>
      <trkpt lat="37.101488" lon="-8.337376">
        <ele>75.134</ele>
        <time>2018-08-22T10:03:55Z</time>
      </trkpt>
      <trkpt lat="37.100127" lon="-8.337189">
        <ele>71.055</ele>
        <time>2018-08-22T10:04:36Z</time>
      </trkpt>
      <trkpt lat="37.097377" lon="-8.336522">
        <ele>68.910</ele>
        <time>2018-08-22T10:05:16Z</time>
      </trkpt>
      <trkpt lat="37.095831" lon="-8.336450">
        <ele>69.508</ele>
        <time>2018-08-22T10:05:48Z</time>
      </trkpt>
      <trkpt lat="37.095716" lon="-8.336336">
        <ele>71.515</ele>
        <time>2018-08-22T10:06:13Z</time>
      </trkpt>
      <trkpt lat="37.095543" lon="-8.336542">
        <ele>71.230</ele>
        <time>2018-08-22T10:06:29Z</time>
      </trkpt>
      <trkpt lat="37.094603" lon="-8.334627">
        <ele>68.071</ele>
        <time>2018-08-22T10:07:00Z</time>
      </trkpt>
      <trkpt lat="37.093676" lon="-8.333309">
        <ele>68.280</ele>
        <time>2018-08-22T10:07:25Z</time>
      </trkpt>
      <trkpt lat="37.092325" lon="-8.330614">
        <ele>63.970</ele>
        <time>2018-08-22T10:08:52Z</time>
      </trkpt>
      <trkpt lat="37.091810" lon="-8.330234">
        <ele>65.125</ele>
        <time>2018-08-22T10:09:02Z</time>
      </trkpt>
      <trkpt lat="37.091515" lon="-8.329571">
        <ele>66.191</ele>
        <time>2018-08-22T10:09:13Z</time>
      </trkpt>
      <trkpt lat="37.091149" lon="-8.329266">
        <ele>66.451</ele>
        <time>2018-08-22T10:09:23Z</time>
      </trkpt>
      <trkpt lat="37.090848" lon="-8.329196">
        <ele>66.349</ele>
        <time>2018-08-22T10:09:30Z</time>
      </trkpt>
      <trkpt lat="37.090410" lon="-8.329357">
        <ele>65.702</ele>
        <time>2018-08-22T10:09:43Z</time>
      </trkpt>
      <trkpt lat="37.089648" lon="-8.328048">
        <ele>67.922</ele>
        <time>2018-08-22T10:10:54Z</time>
      </trkpt>
      <trkpt lat="37.090771" lon="-8.326163">
        <ele>64.708</ele>
        <time>2018-08-22T10:11:32Z</time>
      </trkpt>
      <trkpt lat="37.090948" lon="-8.325396">
        <ele>66.986</ele>
        <time>2018-08-22T10:11:44Z</time>
      </trkpt>
      <trkpt lat="37.090899" lon="-8.324527">
        <ele>68.121</ele>
        <time>2018-08-22T10:11:57Z</time>
      </trkpt>
      <trkpt lat="37.090281" lon="-8.323201">
        <ele>69.882</ele>
        <time>2018-08-22T10:12:20Z</time>
      </trkpt>
      <trkpt lat="37.088765" lon="-8.321995">
        <ele>71.181</ele>
        <time>2018-08-22T10:12:56Z</time>
      </trkpt>
      <trkpt lat="37.087968" lon="-8.320923">
        <ele>75.331</ele>
        <time>2018-08-22T10:13:29Z</time>
      </trkpt>
      <trkpt lat="37.087550" lon="-8.319429">
        <ele>86.466</ele>
        <time>2018-08-22T10:14:21Z</time>
      </trkpt>
      <trkpt lat="37.087683" lon="-8.316990">
        <ele>87.472</ele>
        <time>2018-08-22T10:15:15Z</time>
      </trkpt>
      <trkpt lat="37.087815" lon="-8.316860">
        <ele>85.872</ele>
        <time>2018-08-22T10:15:18Z</time>
      </trkpt>
      <trkpt lat="37.088841" lon="-8.316977">
        <ele>78.957</ele>
        <time>2018-08-22T10:15:32Z</time>
      </trkpt>
      <trkpt lat="37.089949" lon="-8.317417">
        <ele>75.200</ele>
        <time>2018-08-22T10:15:46Z</time>
      </trkpt>
      <trkpt lat="37.092406" lon="-8.317358">
        <ele>70.620</ele>
        <time>2018-08-22T10:16:21Z</time>
      </trkpt>
      <trkpt lat="37.092982" lon="-8.317464">
        <ele>71.108</ele>
        <time>2018-08-22T10:16:33Z</time>
      </trkpt>
      <trkpt lat="37.094154" lon="-8.317932">
        <ele>67.137</ele>
        <time>2018-08-22T10:16:55Z</time>
      </trkpt>
      <trkpt lat="37.094784" lon="-8.318773">
        <ele>67.572</ele>
        <time>2018-08-22T10:17:34Z</time>
      </trkpt>
      <trkpt lat="37.094314" lon="-8.318108">
        <ele>69.553</ele>
        <time>2018-08-22T10:17:56Z</time>
      </trkpt>
      <trkpt lat="37.094332" lon="-8.317404">
        <ele>69.392</ele>
        <time>2018-08-22T10:18:09Z</time>
      </trkpt>
      <trkpt lat="37.094773" lon="-8.315503">
        <ele>67.872</ele>
        <time>2018-08-22T10:18:47Z</time>
      </trkpt>
      <trkpt lat="37.094576" lon="-8.315188">
        <ele>71.177</ele>
        <time>2018-08-22T10:19:01Z</time>
      </trkpt>
      <trkpt lat="37.092953" lon="-8.314029">
        <ele>65.383</ele>
        <time>2018-08-22T10:19:36Z</time>
      </trkpt>
      <trkpt lat="37.092456" lon="-8.313290">
        <ele>68.513</ele>
        <time>2018-08-22T10:19:51Z</time>
      </trkpt>
      <trkpt lat="37.091812" lon="-8.312773">
        <ele>70.418</ele>
        <time>2018-08-22T10:20:04Z</time>
      </trkpt>
      <trkpt lat="37.090963" lon="-8.311311">
        <ele>73.398</ele>
        <time>2018-08-22T10:20:26Z</time>
      </trkpt>
      <trkpt lat="37.090500" lon="-8.309857">
        <ele>73.417</ele>
        <time>2018-08-22T10:21:06Z</time>
      </trkpt>
      <trkpt lat="37.089459" lon="-8.308306">
        <ele>75.608</ele>
        <time>2018-08-22T10:21:36Z</time>
      </trkpt>
      <trkpt lat="37.089427" lon="-8.306813">
        <ele>75.513</ele>
        <time>2018-08-22T10:21:57Z</time>
      </trkpt>
      <trkpt lat="37.088723" lon="-8.305921">
        <ele>77.218</ele>
        <time>2018-08-22T10:22:16Z</time>
      </trkpt>
      <trkpt lat="37.088591" lon="-8.305527">
        <ele>78.119</ele>
        <time>2018-08-22T10:22:23Z</time>
      </trkpt>
      <trkpt lat="37.088404" lon="-8.302693">
        <ele>80.628</ele>
        <time>2018-08-22T10:23:14Z</time>
      </trkpt>
      <trkpt lat="37.087584" lon="-8.299938">
        <ele>82.078</ele>
        <time>2018-08-22T10:24:01Z</time>
      </trkpt>
      <trkpt lat="37.087445" lon="-8.298618">
        <ele>84.073</ele>
        <time>2018-08-22T10:24:23Z</time>
      </trkpt>
      <trkpt lat="37.086987" lon="-8.297121">
        <ele>81.929</ele>
        <time>2018-08-22T10:24:48Z</time>
      </trkpt>
      <trkpt lat="37.086402" lon="-8.295981">
        <ele>81.129</ele>
        <time>2018-08-22T10:25:08Z</time>
      </trkpt>
      <trkpt lat="37.086511" lon="-8.294924">
        <ele>85.523</ele>
        <time>2018-08-22T10:25:32Z</time>
      </trkpt>
      <trkpt lat="37.085983" lon="-8.291488">
        <ele>89.983</ele>
        <time>2018-08-22T10:26:34Z</time>
      </trkpt>
      <trkpt lat="37.085730" lon="-8.291555">
        <ele>90.211</ele>
        <time>2018-08-22T10:26:50Z</time>
      </trkpt>
      <trkpt lat="37.084484" lon="-8.291245">
        <ele>96.108</ele>
        <time>2018-08-22T10:27:31Z</time>
      </trkpt>
      <trkpt lat="37.083093" lon="-8.288310">
        <ele>108.754</ele>
        <time>2018-08-22T10:29:04Z</time>
      </trkpt>
      <trkpt lat="37.082270" lon="-8.287636">
        <ele>112.979</ele>
        <time>2018-08-22T10:29:34Z</time>
      </trkpt>
      <trkpt lat="37.081742" lon="-8.287590">
        <ele>113.340</ele>
        <time>2018-08-22T10:29:48Z</time>
      </trkpt>
      <trkpt lat="37.080552" lon="-8.288688">
        <ele>110.859</ele>
        <time>2018-08-22T10:30:18Z</time>
      </trkpt>
      <trkpt lat="37.080290" lon="-8.288678">
        <ele>112.939</ele>
        <time>2018-08-22T10:30:29Z</time>
      </trkpt>
      <trkpt lat="37.080541" lon="-8.286449">
        <ele>106.814</ele>
        <time>2018-08-22T10:30:59Z</time>
      </trkpt>
      <trkpt lat="37.080579" lon="-8.286809">
        <ele>106.120</ele>
        <time>2018-08-22T10:31:36Z</time>
      </trkpt>
      <trkpt lat="37.080518" lon="-8.285533">
        <ele>109.410</ele>
        <time>2018-08-22T10:32:01Z</time>
      </trkpt>
      <trkpt lat="37.080871" lon="-8.284228">
        <ele>113.917</ele>
        <time>2018-08-22T10:32:28Z</time>
      </trkpt>
      <trkpt lat="37.080520" lon="-8.282151">
        <ele>108.187</ele>
        <time>2018-08-22T10:32:50Z</time>
      </trkpt>
      <trkpt lat="37.080902" lon="-8.280250">
        <ele>110.915</ele>
        <time>2018-08-22T10:33:25Z</time>
      </trkpt>
      <trkpt lat="37.080894" lon="-8.279458">
        <ele>119.008</ele>
        <time>2018-08-22T10:34:14Z</time>
      </trkpt>
      <trkpt lat="37.080785" lon="-8.279343">
        <ele>114.783</ele>
        <time>2018-08-22T10:35:22Z</time>
      </trkpt>
      <trkpt lat="37.081308" lon="-8.278394">
        <ele>111.968</ele>
        <time>2018-08-22T10:35:47Z</time>
      </trkpt>
      <trkpt lat="37.082706" lon="-8.277731">
        <ele>108.159</ele>
        <time>2018-08-22T10:36:06Z</time>
      </trkpt>
      <trkpt lat="37.083472" lon="-8.276530">
        <ele>86.958</ele>
        <time>2018-08-22T10:36:18Z</time>
      </trkpt>
      <trkpt lat="37.085049" lon="-8.275940">
        <ele>78.838</ele>
        <time>2018-08-22T10:37:02Z</time>
      </trkpt>
      <trkpt lat="37.085001" lon="-8.273658">
        <ele>81.283</ele>
        <time>2018-08-22T10:37:33Z</time>
      </trkpt>
      <trkpt lat="37.085178" lon="-8.272198">
        <ele>77.539</ele>
        <time>2018-08-22T10:37:53Z</time>
      </trkpt>
      <trkpt lat="37.085220" lon="-8.269167">
        <ele>75.619</ele>
        <time>2018-08-22T10:39:23Z</time>
      </trkpt>
      <trkpt lat="37.085649" lon="-8.269111">
        <ele>76.265</ele>
        <time>2018-08-22T10:39:59Z</time>
      </trkpt>
      <trkpt lat="37.085785" lon="-8.269362">
        <ele>76.768</ele>
        <time>2018-08-22T10:40:10Z</time>
      </trkpt>
      <trkpt lat="37.085478" lon="-8.268851">
        <ele>78.514</ele>
        <time>2018-08-22T10:41:00Z</time>
      </trkpt>
      <trkpt lat="37.085370" lon="-8.267492">
        <ele>77.608</ele>
        <time>2018-08-22T10:41:25Z</time>
      </trkpt>
      <trkpt lat="37.085258" lon="-8.267457">
        <ele>75.458</ele>
        <time>2018-08-22T10:41:26Z</time>
      </trkpt>
      <trkpt lat="37.085363" lon="-8.265855">
        <ele>80.063</ele>
        <time>2018-08-22T10:41:53Z</time>
      </trkpt>
      <trkpt lat="37.085169" lon="-8.263855">
        <ele>76.964</ele>
        <time>2018-08-22T10:42:31Z</time>
      </trkpt>
      <trkpt lat="37.084305" lon="-8.262501">
        <ele>81.613</ele>
        <time>2018-08-22T10:43:03Z</time>
      </trkpt>
      <trkpt lat="37.084096" lon="-8.262310">
        <ele>81.163</ele>
        <time>2018-08-22T10:43:12Z</time>
      </trkpt>
      <trkpt lat="37.083223" lon="-8.262138">
        <ele>85.168</ele>
        <time>2018-08-22T10:44:53Z</time>
      </trkpt>
      <trkpt lat="37.083100" lon="-8.261714">
        <ele>84.554</ele>
        <time>2018-08-22T10:45:07Z</time>
      </trkpt>
      <trkpt lat="37.083602" lon="-8.258972">
        <ele>101.534</ele>
        <time>2018-08-22T10:47:00Z</time>
      </trkpt>
      <trkpt lat="37.084112" lon="-8.258297">
        <ele>99.745</ele>
        <time>2018-08-22T10:53:02Z</time>
      </trkpt>
      <trkpt lat="37.084951" lon="-8.257888">
        <ele>101.447</ele>
        <time>2018-08-22T10:53:34Z</time>
      </trkpt>
      <trkpt lat="37.085770" lon="-8.256701">
        <ele>100.511</ele>
        <time>2018-08-22T10:54:14Z</time>
      </trkpt>
      <trkpt lat="37.086030" lon="-8.256523">
        <ele>108.008</ele>
        <time>2018-08-22T10:55:04Z</time>
      </trkpt>
      <trkpt lat="37.085635" lon="-8.257094">
        <ele>106.986</ele>
        <time>2018-08-22T10:55:29Z</time>
      </trkpt>
      <trkpt lat="37.085657" lon="-8.257256">
        <ele>107.711</ele>
        <time>2018-08-22T10:55:36Z</time>
      </trkpt>
      <trkpt lat="37.087938" lon="-8.257028">
        <ele>122.572</ele>
        <time>2018-08-22T10:57:36Z</time>
      </trkpt>
      <trkpt lat="37.089675" lon="-8.257193">
        <ele>122.571</ele>
        <time>2018-08-22T10:58:30Z</time>
      </trkpt>
      <trkpt lat="37.089820" lon="-8.256492">
        <ele>121.541</ele>
        <time>2018-08-22T10:58:44Z</time>
      </trkpt>
      <trkpt lat="37.090431" lon="-8.255931">
        <ele>116.456</ele>
        <time>2018-08-22T10:58:57Z</time>
      </trkpt>
      <trkpt lat="37.090702" lon="-8.255777">
        <ele>115.972</ele>
        <time>2018-08-22T10:59:02Z</time>
      </trkpt>
      <trkpt lat="37.091963" lon="-8.255584">
        <ele>106.222</ele>
        <time>2018-08-22T10:59:19Z</time>
      </trkpt>
      <trkpt lat="37.092690" lon="-8.255210">
        <ele>101.965</ele>
        <time>2018-08-22T10:59:30Z</time>
      </trkpt>
      <trkpt lat="37.093488" lon="-8.253884">
        <ele>96.568</ele>
        <time>2018-08-22T10:59:51Z</time>
      </trkpt>
      <trkpt lat="37.093454" lon="-8.253608">
        <ele>98.214</ele>
        <time>2018-08-22T11:00:07Z</time>
      </trkpt>
      <trkpt lat="37.093606" lon="-8.253506">
        <ele>97.008</ele>
        <time>2018-08-22T11:00:16Z</time>
      </trkpt>
      <trkpt lat="37.093138" lon="-8.253825">
        <ele>93.128</ele>
        <time>2018-08-22T11:00:49Z</time>
      </trkpt>
      <trkpt lat="37.092530" lon="-8.254773">
        <ele>81.933</ele>
        <time>2018-08-22T11:01:03Z</time>
      </trkpt>
      <trkpt lat="37.091952" lon="-8.254874">
        <ele>83.224</ele>
        <time>2018-08-22T11:01:11Z</time>
      </trkpt>
      <trkpt lat="37.091368" lon="-8.254691">
        <ele>87.563</ele>
        <time>2018-08-22T11:01:23Z</time>
      </trkpt>
      <trkpt lat="37.091104" lon="-8.254910">
        <ele>86.783</ele>
        <time>2018-08-22T11:01:31Z</time>
      </trkpt>
      <trkpt lat="37.090405" lon="-8.254500">
        <ele>85.038</ele>
        <time>2018-08-22T11:01:45Z</time>
      </trkpt>
      <trkpt lat="37.090074" lon="-8.253947">
        <ele>86.744</ele>
        <time>2018-08-22T11:02:01Z</time>
      </trkpt>
      <trkpt lat="37.088688" lon="-8.253322">
        <ele>79.134</ele>
        <time>2018-08-22T11:02:44Z</time>
      </trkpt>
      <trkpt lat="37.088342" lon="-8.252943">
        <ele>78.773</ele>
        <time>2018-08-22T11:03:36Z</time>
      </trkpt>
      <trkpt lat="37.089000" lon="-8.251841">
        <ele>74.185</ele>
        <time>2018-08-22T11:04:20Z</time>
      </trkpt>
      <trkpt lat="37.088914" lon="-8.251034">
        <ele>79.313</ele>
        <time>2018-08-22T11:04:43Z</time>
      </trkpt>
      <trkpt lat="37.089109" lon="-8.250900">
        <ele>77.908</ele>
        <time>2018-08-22T11:05:19Z</time>
      </trkpt>
      <trkpt lat="37.088955" lon="-8.250903">
        <ele>76.379</ele>
        <time>2018-08-22T11:05:32Z</time>
      </trkpt>
      <trkpt lat="37.088854" lon="-8.250387">
        <ele>78.314</ele>
        <time>2018-08-22T11:05:49Z</time>
      </trkpt>
      <trkpt lat="37.089082" lon="-8.250235">
        <ele>81.395</ele>
        <time>2018-08-22T11:06:31Z</time>
      </trkpt>
      <trkpt lat="37.089460" lon="-8.250404">
        <ele>99.174</ele>
        <time>2018-08-22T11:06:46Z</time>
      </trkpt>
      <trkpt lat="37.090312" lon="-8.249950">
        <ele>101.094</ele>
        <time>2018-08-22T11:07:21Z</time>
      </trkpt>
      <trkpt lat="37.090890" lon="-8.249029">
        <ele>100.669</ele>
        <time>2018-08-22T11:08:01Z</time>
      </trkpt>
      <trkpt lat="37.090703" lon="-8.247492">
        <ele>108.035</ele>
        <time>2018-08-22T11:08:55Z</time>
      </trkpt>
      <trkpt lat="37.090667" lon="-8.245448">
        <ele>108.385</ele>
        <time>2018-08-22T11:10:20Z</time>
      </trkpt>
      <trkpt lat="37.090549" lon="-8.244834">
        <ele>108.852</ele>
        <time>2018-08-22T11:10:38Z</time>
      </trkpt>
      <trkpt lat="37.090278" lon="-8.244614">
        <ele>112.153</ele>
        <time>2018-08-22T11:10:54Z</time>
      </trkpt>
      <trkpt lat="37.090537" lon="-8.244421">
        <ele>114.408</ele>
        <time>2018-08-22T11:11:12Z</time>
      </trkpt>
      <trkpt lat="37.091548" lon="-8.239430">
        <ele>113.508</ele>
        <time>2018-08-22T11:13:02Z</time>
      </trkpt>
      <trkpt lat="37.092123" lon="-8.237896">
        <ele>111.957</ele>
        <time>2018-08-22T11:13:28Z</time>
      </trkpt>
      <trkpt lat="37.092377" lon="-8.236608">
        <ele>109.722</ele>
        <time>2018-08-22T11:13:48Z</time>
      </trkpt>
      <trkpt lat="37.091941" lon="-8.235198">
        <ele>101.443</ele>
        <time>2018-08-22T11:14:11Z</time>
      </trkpt>
      <trkpt lat="37.091268" lon="-8.234042">
        <ele>103.742</ele>
        <time>2018-08-22T11:14:47Z</time>
      </trkpt>
      <trkpt lat="37.091915" lon="-8.233159">
        <ele>104.432</ele>
        <time>2018-08-22T11:15:47Z</time>
      </trkpt>
      <trkpt lat="37.092133" lon="-8.233008">
        <ele>101.427</ele>
        <time>2018-08-22T11:15:52Z</time>
      </trkpt>
      <trkpt lat="37.093068" lon="-8.232930">
        <ele>105.653</ele>
        <time>2018-08-22T11:16:15Z</time>
      </trkpt>
      <trkpt lat="37.093935" lon="-8.232169">
        <ele>105.063</ele>
        <time>2018-08-22T11:16:46Z</time>
      </trkpt>
      <trkpt lat="37.094273" lon="-8.228297">
        <ele>116.963</ele>
        <time>2018-08-22T11:18:03Z</time>
      </trkpt>
      <trkpt lat="37.094880" lon="-8.226891">
        <ele>119.844</ele>
        <time>2018-08-22T11:18:35Z</time>
      </trkpt>
      <trkpt lat="37.095559" lon="-8.224216">
        <ele>116.618</ele>
        <time>2018-08-22T11:19:22Z</time>
      </trkpt>
      <trkpt lat="37.096027" lon="-8.223403">
        <ele>111.908</ele>
        <time>2018-08-22T11:19:57Z</time>
      </trkpt>
      <trkpt lat="37.097692" lon="-8.219214">
        <ele>106.158</ele>
        <time>2018-08-22T11:21:01Z</time>
      </trkpt>
      <trkpt lat="37.098568" lon="-8.218035">
        <ele>112.323</ele>
        <time>2018-08-22T11:21:46Z</time>
      </trkpt>
      <trkpt lat="37.098702" lon="-8.217569">
        <ele>108.334</ele>
        <time>2018-08-22T11:22:13Z</time>
      </trkpt>
      <trkpt lat="37.099032" lon="-8.217475">
        <ele>114.093</ele>
        <time>2018-08-22T11:22:29Z</time>
      </trkpt>
      <trkpt lat="37.099700" lon="-8.216962">
        <ele>108.753</ele>
        <time>2018-08-22T11:22:47Z</time>
      </trkpt>
      <trkpt lat="37.101166" lon="-8.216576">
        <ele>119.268</ele>
        <time>2018-08-22T11:23:32Z</time>
      </trkpt>
      <trkpt lat="37.102166" lon="-8.215591">
        <ele>126.544</ele>
        <time>2018-08-22T11:24:16Z</time>
      </trkpt>
      <trkpt lat="37.102381" lon="-8.214089">
        <ele>126.394</ele>
        <time>2018-08-22T11:24:49Z</time>
      </trkpt>
      <trkpt lat="37.102317" lon="-8.213806">
        <ele>125.246</ele>
        <time>2018-08-22T11:25:14Z</time>
      </trkpt>
      <trkpt lat="37.101702" lon="-8.213675">
        <ele>121.088</ele>
        <time>2018-08-22T11:25:25Z</time>
      </trkpt>
      <trkpt lat="37.100774" lon="-8.212892">
        <ele>121.816</ele>
        <time>2018-08-22T11:25:46Z</time>
      </trkpt>
      <trkpt lat="37.100065" lon="-8.211663">
        <ele>116.308</ele>
        <time>2018-08-22T11:27:38Z</time>
      </trkpt>
      <trkpt lat="37.099300" lon="-8.211875">
        <ele>117.566</ele>
        <time>2018-08-22T11:27:51Z</time>
      </trkpt>
      <trkpt lat="37.098633" lon="-8.211797">
        <ele>121.041</ele>
        <time>2018-08-22T11:28:03Z</time>
      </trkpt>
      <trkpt lat="37.098933" lon="-8.211855">
        <ele>121.892</ele>
        <time>2018-08-22T11:28:30Z</time>
      </trkpt>
      <trkpt lat="37.099005" lon="-8.211745">
        <ele>119.991</ele>
        <time>2018-08-22T11:28:36Z</time>
      </trkpt>
      <trkpt lat="37.098873" lon="-8.211172">
        <ele>113.841</ele>
        <time>2018-08-22T11:28:45Z</time>
      </trkpt>
      <trkpt lat="37.098648" lon="-8.210878">
        <ele>111.916</ele>
        <time>2018-08-22T11:28:51Z</time>
      </trkpt>
      <trkpt lat="37.098644" lon="-8.210090">
        <ele>110.462</ele>
        <time>2018-08-22T11:29:02Z</time>
      </trkpt>
      <trkpt lat="37.098938" lon="-8.209036">
        <ele>104.682</ele>
        <time>2018-08-22T11:29:18Z</time>
      </trkpt>
      <trkpt lat="37.099499" lon="-8.208181">
        <ele>107.366</ele>
        <time>2018-08-22T11:29:36Z</time>
      </trkpt>
      <trkpt lat="37.099571" lon="-8.207611">
        <ele>108.729</ele>
        <time>2018-08-22T11:29:48Z</time>
      </trkpt>
      <trkpt lat="37.099130" lon="-8.207134">
        <ele>110.721</ele>
        <time>2018-08-22T11:30:02Z</time>
      </trkpt>
      <trkpt lat="37.097623" lon="-8.206965">
        <ele>104.408</ele>
        <time>2018-08-22T11:30:29Z</time>
      </trkpt>
      <trkpt lat="37.097899" lon="-8.207044">
        <ele>104.468</ele>
        <time>2018-08-22T11:31:02Z</time>
      </trkpt>
      <trkpt lat="37.097939" lon="-8.206922">
        <ele>103.813</ele>
        <time>2018-08-22T11:31:46Z</time>
      </trkpt>
      <trkpt lat="37.097753" lon="-8.205730">
        <ele>103.744</ele>
        <time>2018-08-22T11:32:09Z</time>
      </trkpt>
      <trkpt lat="37.097850" lon="-8.205307">
        <ele>107.393</ele>
        <time>2018-08-22T11:33:19Z</time>
      </trkpt>
      <trkpt lat="37.097985" lon="-8.205338">
        <ele>107.173</ele>
        <time>2018-08-22T11:33:31Z</time>
      </trkpt>
      <trkpt lat="37.098196" lon="-8.204856">
        <ele>107.358</ele>
        <time>2018-08-22T11:33:50Z</time>
      </trkpt>
      <trkpt lat="37.096642" lon="-8.204160">
        <ele>106.884</ele>
        <time>2018-08-22T11:34:20Z</time>
      </trkpt>
      <trkpt lat="37.096064" lon="-8.203747">
        <ele>104.294</ele>
        <time>2018-08-22T11:34:30Z</time>
      </trkpt>
      <trkpt lat="37.095150" lon="-8.202875">
        <ele>100.554</ele>
        <time>2018-08-22T11:34:46Z</time>
      </trkpt>
      <trkpt lat="37.094308" lon="-8.201065">
        <ele>95.556</ele>
        <time>2018-08-22T11:35:08Z</time>
      </trkpt>
      <trkpt lat="37.093948" lon="-8.200678">
        <ele>95.411</ele>
        <time>2018-08-22T11:35:22Z</time>
      </trkpt>
      <trkpt lat="37.093396" lon="-8.200391">
        <ele>97.808</ele>
        <time>2018-08-22T11:35:46Z</time>
      </trkpt>
      <trkpt lat="37.093801" lon="-8.197807">
        <ele>101.477</ele>
        <time>2018-08-22T11:36:38Z</time>
      </trkpt>
      <trkpt lat="37.093623" lon="-8.194963">
        <ele>100.392</ele>
        <time>2018-08-22T11:37:24Z</time>
      </trkpt>
      <trkpt lat="37.093756" lon="-8.193383">
        <ele>100.633</ele>
        <time>2018-08-22T11:37:55Z</time>
      </trkpt>
      <trkpt lat="37.093209" lon="-8.190284">
        <ele>103.332</ele>
        <time>2018-08-22T11:38:48Z</time>
      </trkpt>
      <trkpt lat="37.093799" lon="-8.189082">
        <ele>100.052</ele>
        <time>2018-08-22T11:40:07Z</time>
      </trkpt>
      <trkpt lat="37.093720" lon="-8.189135">
        <ele>100.237</ele>
        <time>2018-08-22T11:40:19Z</time>
      </trkpt>
      <trkpt lat="37.093755" lon="-8.188893">
        <ele>87.043</ele>
        <time>2018-08-22T11:56:40Z</time>
      </trkpt>
      <trkpt lat="37.094328" lon="-8.188062">
        <ele>87.723</ele>
        <time>2018-08-22T11:57:04Z</time>
      </trkpt>
      <trkpt lat="37.094203" lon="-8.187818">
        <ele>86.758</ele>
        <time>2018-08-22T11:57:12Z</time>
      </trkpt>
      <trkpt lat="37.093522" lon="-8.187726">
        <ele>86.052</ele>
        <time>2018-08-22T11:57:27Z</time>
      </trkpt>
      <trkpt lat="37.093403" lon="-8.186512">
        <ele>86.917</ele>
        <time>2018-08-22T11:58:04Z</time>
      </trkpt>
      <trkpt lat="37.093599" lon="-8.187729">
        <ele>83.108</ele>
        <time>2018-08-22T11:58:50Z</time>
      </trkpt>
      <trkpt lat="37.093454" lon="-8.187851">
        <ele>85.217</ele>
        <time>2018-08-22T11:59:28Z</time>
      </trkpt>
      <trkpt lat="37.093472" lon="-8.187738">
        <ele>87.782</ele>
        <time>2018-08-22T11:59:41Z</time>
      </trkpt>
      <trkpt lat="37.093841" lon="-8.187701">
        <ele>89.923</ele>
        <time>2018-08-22T11:59:53Z</time>
      </trkpt>
      <trkpt lat="37.093459" lon="-8.187678">
        <ele>88.362</ele>
        <time>2018-08-22T12:00:34Z</time>
      </trkpt>
      <trkpt lat="37.093596" lon="-8.187266">
        <ele>85.682</ele>
        <time>2018-08-22T12:00:48Z</time>
      </trkpt>
      <trkpt lat="37.094072" lon="-8.186948">
        <ele>84.417</ele>
        <time>2018-08-22T12:01:07Z</time>
      </trkpt>
      <trkpt lat="37.094624" lon="-8.185296">
        <ele>85.713</ele>
        <time>2018-08-22T12:01:47Z</time>
      </trkpt>
      <trkpt lat="37.095005" lon="-8.184870">
        <ele>91.613</ele>
        <time>2018-08-22T12:02:06Z</time>
      </trkpt>
      <trkpt lat="37.095120" lon="-8.182450">
        <ele>100.938</ele>
        <time>2018-08-22T12:03:09Z</time>
      </trkpt>
      <trkpt lat="37.095434" lon="-8.181697">
        <ele>97.970</ele>
        <time>2018-08-22T12:03:27Z</time>
      </trkpt>
      <trkpt lat="37.095655" lon="-8.181582">
        <ele>96.017</ele>
        <time>2018-08-22T12:03:32Z</time>
      </trkpt>
      <trkpt lat="37.097198" lon="-8.182242">
        <ele>98.808</ele>
        <time>2018-08-22T12:04:14Z</time>
      </trkpt>
      <trkpt lat="37.097639" lon="-8.181956">
        <ele>103.075</ele>
        <time>2018-08-22T12:04:38Z</time>
      </trkpt>
      <trkpt lat="37.097323" lon="-8.181286">
        <ele>102.380</ele>
        <time>2018-08-22T12:05:12Z</time>
      </trkpt>
      <trkpt lat="37.096419" lon="-8.176085">
        <ele>85.631</ele>
        <time>2018-08-22T12:06:12Z</time>
      </trkpt>
      <trkpt lat="37.097077" lon="-8.173489">
        <ele>87.760</ele>
        <time>2018-08-22T12:06:47Z</time>
      </trkpt>
      <trkpt lat="37.097259" lon="-8.172081">
        <ele>89.250</ele>
        <time>2018-08-22T12:07:08Z</time>
      </trkpt>
      <trkpt lat="37.097184" lon="-8.172637">
        <ele>90.765</ele>
        <time>2018-08-22T12:07:51Z</time>
      </trkpt>
      <trkpt lat="37.095047" lon="-8.172554">
        <ele>94.981</ele>
        <time>2018-08-22T12:08:32Z</time>
      </trkpt>
      <trkpt lat="37.094619" lon="-8.172323">
        <ele>92.921</ele>
        <time>2018-08-22T12:08:42Z</time>
      </trkpt>
      <trkpt lat="37.093667" lon="-8.171116">
        <ele>87.816</ele>
        <time>2018-08-22T12:09:41Z</time>
      </trkpt>
      <trkpt lat="37.092423" lon="-8.167294">
        <ele>86.176</ele>
        <time>2018-08-22T12:10:40Z</time>
      </trkpt>
      <trkpt lat="37.092359" lon="-8.165890">
        <ele>83.413</ele>
        <time>2018-08-22T12:11:03Z</time>
      </trkpt>
      <trkpt lat="37.092954" lon="-8.164986">
        <ele>79.708</ele>
        <time>2018-08-22T12:11:13Z</time>
      </trkpt>
      <trkpt lat="37.094112" lon="-8.161840">
        <ele>67.263</ele>
        <time>2018-08-22T12:12:15Z</time>
      </trkpt>
      <trkpt lat="37.093654" lon="-8.162722">
        <ele>65.828</ele>
        <time>2018-08-22T12:12:43Z</time>
      </trkpt>
      <trkpt lat="37.090583" lon="-8.160554">
        <ele>62.139</ele>
        <time>2018-08-22T12:13:47Z</time>
      </trkpt>
      <trkpt lat="37.089686" lon="-8.159600">
        <ele>61.328</ele>
        <time>2018-08-22T12:14:08Z</time>
      </trkpt>
      <trkpt lat="37.087997" lon="-8.157384">
        <ele>58.188</ele>
        <time>2018-08-22T12:14:55Z</time>
      </trkpt>
      <trkpt lat="37.088058" lon="-8.157242">
        <ele>59.543</ele>
        <time>2018-08-22T12:15:42Z</time>
      </trkpt>
      <trkpt lat="37.089543" lon="-8.159278">
        <ele>60.879</ele>
        <time>2018-08-22T12:16:35Z</time>
      </trkpt>
      <trkpt lat="37.089920" lon="-8.159225">
        <ele>64.399</ele>
        <time>2018-08-22T12:16:54Z</time>
      </trkpt>
      <trkpt lat="37.090320" lon="-8.158398">
        <ele>60.336</ele>
        <time>2018-08-22T12:21:06Z</time>
      </trkpt>
      <trkpt lat="37.089981" lon="-8.159204">
        <ele>56.317</ele>
        <time>2018-08-22T12:24:24Z</time>
      </trkpt>
      <trkpt lat="37.090114" lon="-8.159311">
        <ele>36.818</ele>
        <time>2018-08-22T12:25:40Z</time>
      </trkpt>
      <trkpt lat="37.089882" lon="-8.159180">
        <ele>59.808</ele>
        <time>2018-08-22T12:59:21Z</time>
      </trkpt>
      <trkpt lat="37.089560" lon="-8.159337">
        <ele>64.455</ele>
        <time>2018-08-22T12:59:38Z</time>
      </trkpt>
      <trkpt lat="37.088496" lon="-8.157938">
        <ele>62.480</ele>
        <time>2018-08-22T13:00:07Z</time>
      </trkpt>
      <trkpt lat="37.088040" lon="-8.156265">
        <ele>58.481</ele>
        <time>2018-08-22T13:00:50Z</time>
      </trkpt>
      <trkpt lat="37.088101" lon="-8.155977">
        <ele>50.860</ele>
        <time>2018-08-22T13:01:06Z</time>
      </trkpt>
      <trkpt lat="37.087393" lon="-8.154702">
        <ele>57.940</ele>
        <time>2018-08-22T13:01:31Z</time>
      </trkpt>
      <trkpt lat="37.087126" lon="-8.153915">
        <ele>54.965</ele>
        <time>2018-08-22T13:01:43Z</time>
      </trkpt>
      <trkpt lat="37.087185" lon="-8.152573">
        <ele>56.621</ele>
        <time>2018-08-22T13:02:02Z</time>
      </trkpt>
      <trkpt lat="37.086948" lon="-8.151268">
        <ele>58.291</ele>
        <time>2018-08-22T13:02:21Z</time>
      </trkpt>
      <trkpt lat="37.086010" lon="-8.149320">
        <ele>59.678</ele>
        <time>2018-08-22T13:02:56Z</time>
      </trkpt>
      <trkpt lat="37.085915" lon="-8.148461">
        <ele>57.033</ele>
        <time>2018-08-22T13:03:14Z</time>
      </trkpt>
      <trkpt lat="37.085535" lon="-8.147898">
        <ele>58.826</ele>
        <time>2018-08-22T13:03:26Z</time>
      </trkpt>
      <trkpt lat="37.085005" lon="-8.146066">
        <ele>55.408</ele>
        <time>2018-08-22T13:03:57Z</time>
      </trkpt>
      <trkpt lat="37.083940" lon="-8.144876">
        <ele>53.129</ele>
        <time>2018-08-22T13:04:23Z</time>
      </trkpt>
      <trkpt lat="37.083358" lon="-8.143280">
        <ele>54.184</ele>
        <time>2018-08-22T13:04:48Z</time>
      </trkpt>
      <trkpt lat="37.082077" lon="-8.141959">
        <ele>55.645</ele>
        <time>2018-08-22T13:05:21Z</time>
      </trkpt>
      <trkpt lat="37.080734" lon="-8.140026">
        <ele>58.284</ele>
        <time>2018-08-22T13:06:00Z</time>
      </trkpt>
      <trkpt lat="37.080150" lon="-8.139594">
        <ele>57.814</ele>
        <time>2018-08-22T13:06:13Z</time>
      </trkpt>
      <trkpt lat="37.079879" lon="-8.138621">
        <ele>57.959</ele>
        <time>2018-08-22T13:06:28Z</time>
      </trkpt>
      <trkpt lat="37.079983" lon="-8.137058">
        <ele>53.645</ele>
        <time>2018-08-22T13:06:51Z</time>
      </trkpt>
      <trkpt lat="37.079685" lon="-8.136284">
        <ele>55.335</ele>
        <time>2018-08-22T13:07:05Z</time>
      </trkpt>
      <trkpt lat="37.079035" lon="-8.135501">
        <ele>56.724</ele>
        <time>2018-08-22T13:07:24Z</time>
      </trkpt>
      <trkpt lat="37.077248" lon="-8.134434">
        <ele>54.904</ele>
        <time>2018-08-22T13:08:04Z</time>
      </trkpt>
      <trkpt lat="37.076912" lon="-8.133902">
        <ele>54.414</ele>
        <time>2018-08-22T13:08:20Z</time>
      </trkpt>
      <trkpt lat="37.076348" lon="-8.130520">
        <ele>49.708</ele>
        <time>2018-08-22T13:09:17Z</time>
      </trkpt>
      <trkpt lat="37.076398" lon="-8.129737">
        <ele>51.934</ele>
        <time>2018-08-22T13:09:49Z</time>
      </trkpt>
      <trkpt lat="37.076850" lon="-8.129275">
        <ele>53.419</ele>
        <time>2018-08-22T13:10:34Z</time>
      </trkpt>
      <trkpt lat="37.075823" lon="-8.126298">
        <ele>53.520</ele>
        <time>2018-08-22T13:11:35Z</time>
      </trkpt>
      <trkpt lat="37.075379" lon="-8.125608">
        <ele>54.129</ele>
        <time>2018-08-22T13:12:19Z</time>
      </trkpt>
      <trkpt lat="37.075603" lon="-8.125600">
        <ele>54.899</ele>
        <time>2018-08-22T13:12:28Z</time>
      </trkpt>
      <trkpt lat="37.077175" lon="-8.127878">
        <ele>49.114</ele>
        <time>2018-08-22T13:13:14Z</time>
      </trkpt>
      <trkpt lat="37.077622" lon="-8.128288">
        <ele>47.430</ele>
        <time>2018-08-22T13:13:28Z</time>
      </trkpt>
      <trkpt lat="37.077859" lon="-8.128278">
        <ele>49.830</ele>
        <time>2018-08-22T13:13:34Z</time>
      </trkpt>
      <trkpt lat="37.078923" lon="-8.127357">
        <ele>52.476</ele>
        <time>2018-08-22T13:14:01Z</time>
      </trkpt>
      <trkpt lat="37.079132" lon="-8.126786">
        <ele>54.790</ele>
        <time>2018-08-22T13:14:22Z</time>
      </trkpt>
      <trkpt lat="37.079058" lon="-8.127002">
        <ele>56.119</ele>
        <time>2018-08-22T13:14:46Z</time>
      </trkpt>
      <trkpt lat="37.079528" lon="-8.127163">
        <ele>54.808</ele>
        <time>2018-08-22T13:15:05Z</time>
      </trkpt>
      <trkpt lat="37.083421" lon="-8.127601">
        <ele>53.489</ele>
        <time>2018-08-22T13:16:40Z</time>
      </trkpt>
      <trkpt lat="37.083842" lon="-8.127506">
        <ele>54.074</ele>
        <time>2018-08-22T13:16:48Z</time>
      </trkpt>
      <trkpt lat="37.084973" lon="-8.126286">
        <ele>57.595</ele>
        <time>2018-08-22T13:17:13Z</time>
      </trkpt>
      <trkpt lat="37.085549" lon="-8.125164">
        <ele>58.024</ele>
        <time>2018-08-22T13:17:33Z</time>
      </trkpt>
      <trkpt lat="37.085662" lon="-8.124492">
        <ele>56.884</ele>
        <time>2018-08-22T13:18:05Z</time>
      </trkpt>
      <trkpt lat="37.086495" lon="-8.125559">
        <ele>56.369</ele>
        <time>2018-08-22T13:18:31Z</time>
      </trkpt>
      <trkpt lat="37.086814" lon="-8.125612">
        <ele>55.465</ele>
        <time>2018-08-22T13:18:40Z</time>
      </trkpt>
      <trkpt lat="37.089585" lon="-8.123861">
        <ele>65.695</ele>
        <time>2018-08-22T13:19:53Z</time>
      </trkpt>
      <trkpt lat="37.089694" lon="-8.123263">
        <ele>65.588</ele>
        <time>2018-08-22T13:20:34Z</time>
      </trkpt>
      <trkpt lat="37.088029" lon="-8.119656">
        <ele>66.024</ele>
        <time>2018-08-22T13:21:40Z</time>
      </trkpt>
      <trkpt lat="37.087236" lon="-8.119318">
        <ele>66.026</ele>
        <time>2018-08-22T13:21:56Z</time>
      </trkpt>
      <trkpt lat="37.085559" lon="-8.119740">
        <ele>63.608</ele>
        <time>2018-08-22T13:22:57Z</time>
      </trkpt>
      <trkpt lat="37.084741" lon="-8.119606">
        <ele>63.550</ele>
        <time>2018-08-22T13:23:14Z</time>
      </trkpt>
      <trkpt lat="37.084068" lon="-8.119199">
        <ele>62.965</ele>
        <time>2018-08-22T13:23:28Z</time>
      </trkpt>
      <trkpt lat="37.081733" lon="-8.117249">
        <ele>59.936</ele>
        <time>2018-08-22T13:24:27Z</time>
      </trkpt>
      <trkpt lat="37.080907" lon="-8.116221">
        <ele>61.295</ele>
        <time>2018-08-22T13:24:52Z</time>
      </trkpt>
      <trkpt lat="37.080586" lon="-8.116057">
        <ele>63.255</ele>
        <time>2018-08-22T13:25:04Z</time>
      </trkpt>
      <trkpt lat="37.081083" lon="-8.115738">
        <ele>62.710</ele>
        <time>2018-08-22T13:25:18Z</time>
      </trkpt>
      <trkpt lat="37.081402" lon="-8.115147">
        <ele>62.666</ele>
        <time>2018-08-22T13:25:31Z</time>
      </trkpt>
      <trkpt lat="37.081446" lon="-8.112490">
        <ele>66.916</ele>
        <time>2018-08-22T13:27:02Z</time>
      </trkpt>
      <trkpt lat="37.082406" lon="-8.111754">
        <ele>63.152</ele>
        <time>2018-08-22T13:27:30Z</time>
      </trkpt>
      <trkpt lat="37.081507" lon="-8.112601">
        <ele>66.753</ele>
        <time>2018-08-22T13:28:26Z</time>
      </trkpt>
      <trkpt lat="37.080655" lon="-8.111644">
        <ele>67.808</ele>
        <time>2018-08-22T13:29:10Z</time>
      </trkpt>
      <trkpt lat="37.079293" lon="-8.110832">
        <ele>65.608</ele>
        <time>2018-08-22T13:31:06Z</time>
      </trkpt>
      <trkpt lat="37.078889" lon="-8.109709">
        <ele>66.247</ele>
        <time>2018-08-22T13:31:26Z</time>
      </trkpt>
      <trkpt lat="37.078467" lon="-8.109294">
        <ele>66.352</ele>
        <time>2018-08-22T13:31:39Z</time>
      </trkpt>
      <trkpt lat="37.077606" lon="-8.108907">
        <ele>65.353</ele>
        <time>2018-08-22T13:31:56Z</time>
      </trkpt>
      <trkpt lat="37.076385" lon="-8.108087">
        <ele>67.092</ele>
        <time>2018-08-22T13:32:23Z</time>
      </trkpt>
      <trkpt lat="37.075905" lon="-8.107973">
        <ele>68.022</ele>
        <time>2018-08-22T13:32:33Z</time>
      </trkpt>
      <trkpt lat="37.074958" lon="-8.108297">
        <ele>65.167</ele>
        <time>2018-08-22T13:32:49Z</time>
      </trkpt>
      <trkpt lat="37.071758" lon="-8.107611">
        <ele>54.753</ele>
        <time>2018-08-22T13:33:51Z</time>
      </trkpt>
      <trkpt lat="37.071546" lon="-8.107708">
        <ele>55.853</ele>
        <time>2018-08-22T13:34:02Z</time>
      </trkpt>
      <trkpt lat="37.071771" lon="-8.107658">
        <ele>66.427</ele>
        <time>2018-08-22T13:37:47Z</time>
      </trkpt>
      <trkpt lat="37.067461" lon="-8.086379">
        <ele>82.729</ele>
        <time>2018-08-23T09:26:23Z</time>
      </trkpt>
      <trkpt lat="37.067452" lon="-8.086786">
        <ele>82.700</ele>
        <time>2018-08-23T09:27:25Z</time>
      </trkpt>
      <trkpt lat="37.067237" lon="-8.087264">
        <ele>83.120</ele>
        <time>2018-08-23T09:30:07Z</time>
      </trkpt>
      <trkpt lat="37.068244" lon="-8.086418">
        <ele>78.808</ele>
        <time>2018-08-23T09:31:43Z</time>
      </trkpt>
      <trkpt lat="37.070005" lon="-8.084583">
        <ele>73.174</ele>
        <time>2018-08-23T09:32:33Z</time>
      </trkpt>
      <trkpt lat="37.069754" lon="-8.084041">
        <ele>74.169</ele>
        <time>2018-08-23T09:32:49Z</time>
      </trkpt>
      <trkpt lat="37.069280" lon="-8.083855">
        <ele>73.350</ele>
        <time>2018-08-23T09:33:29Z</time>
      </trkpt>
      <trkpt lat="37.069249" lon="-8.083209">
        <ele>71.061</ele>
        <time>2018-08-23T09:33:45Z</time>
      </trkpt>
      <trkpt lat="37.069043" lon="-8.082864">
        <ele>68.413</ele>
        <time>2018-08-23T09:33:53Z</time>
      </trkpt>
      <trkpt lat="37.069068" lon="-8.082477">
        <ele>66.843</ele>
        <time>2018-08-23T09:34:05Z</time>
      </trkpt>
      <trkpt lat="37.068909" lon="-8.082133">
        <ele>70.868</ele>
        <time>2018-08-23T09:34:20Z</time>
      </trkpt>
      <trkpt lat="37.069167" lon="-8.080586">
        <ele>77.334</ele>
        <time>2018-08-23T09:35:12Z</time>
      </trkpt>
      <trkpt lat="37.068328" lon="-8.078767">
        <ele>85.759</ele>
        <time>2018-08-23T09:36:24Z</time>
      </trkpt>
      <trkpt lat="37.068588" lon="-8.079000">
        <ele>85.103</ele>
        <time>2018-08-23T09:36:42Z</time>
      </trkpt>
      <trkpt lat="37.068726" lon="-8.078968">
        <ele>86.123</ele>
        <time>2018-08-23T09:36:48Z</time>
      </trkpt>
      <trkpt lat="37.068672" lon="-8.075976">
        <ele>86.408</ele>
        <time>2018-08-23T09:37:38Z</time>
      </trkpt>
      <trkpt lat="37.066533" lon="-8.075163">
        <ele>76.037</ele>
        <time>2018-08-23T09:38:18Z</time>
      </trkpt>
      <trkpt lat="37.066156" lon="-8.073984">
        <ele>74.892</ele>
        <time>2018-08-23T09:38:45Z</time>
      </trkpt>
      <trkpt lat="37.065073" lon="-8.073339">
        <ele>78.243</ele>
        <time>2018-08-23T09:39:12Z</time>
      </trkpt>
      <trkpt lat="37.064962" lon="-8.072161">
        <ele>70.994</ele>
        <time>2018-08-23T09:39:28Z</time>
      </trkpt>
      <trkpt lat="37.064733" lon="-8.071628">
        <ele>69.836</ele>
        <time>2018-08-23T09:39:37Z</time>
      </trkpt>
      <trkpt lat="37.064412" lon="-8.071311">
        <ele>71.636</ele>
        <time>2018-08-23T09:39:44Z</time>
      </trkpt>
      <trkpt lat="37.064275" lon="-8.071261">
        <ele>74.771</ele>
        <time>2018-08-23T09:39:51Z</time>
      </trkpt>
      <trkpt lat="37.063033" lon="-8.072040">
        <ele>69.557</ele>
        <time>2018-08-23T09:40:23Z</time>
      </trkpt>
      <trkpt lat="37.061921" lon="-8.071812">
        <ele>71.383</ele>
        <time>2018-08-23T09:40:44Z</time>
      </trkpt>
      <trkpt lat="37.061664" lon="-8.071600">
        <ele>70.925</ele>
        <time>2018-08-23T09:40:50Z</time>
      </trkpt>
      <trkpt lat="37.061008" lon="-8.069590">
        <ele>68.217</ele>
        <time>2018-08-23T09:41:34Z</time>
      </trkpt>
      <trkpt lat="37.060795" lon="-8.069547">
        <ele>69.408</ele>
        <time>2018-08-23T09:41:39Z</time>
      </trkpt>
      <trkpt lat="37.060412" lon="-8.069931">
        <ele>69.210</ele>
        <time>2018-08-23T09:41:50Z</time>
      </trkpt>
      <trkpt lat="37.060114" lon="-8.069796">
        <ele>73.195</ele>
        <time>2018-08-23T09:42:20Z</time>
      </trkpt>
      <trkpt lat="37.060828" lon="-8.067240">
        <ele>95.846</ele>
        <time>2018-08-23T09:45:09Z</time>
      </trkpt>
      <trkpt lat="37.060637" lon="-8.063276">
        <ele>108.447</ele>
        <time>2018-08-23T09:47:45Z</time>
      </trkpt>
      <trkpt lat="37.060817" lon="-8.062161">
        <ele>108.549</ele>
        <time>2018-08-23T09:48:12Z</time>
      </trkpt>
      <trkpt lat="37.061278" lon="-8.060985">
        <ele>109.369</ele>
        <time>2018-08-23T09:48:36Z</time>
      </trkpt>
      <trkpt lat="37.061132" lon="-8.060090">
        <ele>109.284</ele>
        <time>2018-08-23T09:48:54Z</time>
      </trkpt>
      <trkpt lat="37.060614" lon="-8.059509">
        <ele>112.730</ele>
        <time>2018-08-23T09:49:11Z</time>
      </trkpt>
      <trkpt lat="37.059981" lon="-8.058413">
        <ele>110.414</ele>
        <time>2018-08-23T09:49:39Z</time>
      </trkpt>
      <trkpt lat="37.060521" lon="-8.057782">
        <ele>108.154</ele>
        <time>2018-08-23T09:50:01Z</time>
      </trkpt>
      <trkpt lat="37.060583" lon="-8.057279">
        <ele>107.309</ele>
        <time>2018-08-23T09:50:13Z</time>
      </trkpt>
      <trkpt lat="37.060355" lon="-8.057332">
        <ele>112.008</ele>
        <time>2018-08-23T10:24:09Z</time>
      </trkpt>
      <trkpt lat="37.060536" lon="-8.057250">
        <ele>104.093</ele>
        <time>2018-08-23T10:26:38Z</time>
      </trkpt>
      <trkpt lat="37.061227" lon="-8.054358">
        <ele>102.668</ele>
        <time>2018-08-23T10:27:39Z</time>
      </trkpt>
      <trkpt lat="37.061162" lon="-8.053230">
        <ele>102.469</ele>
        <time>2018-08-23T10:28:22Z</time>
      </trkpt>
      <trkpt lat="37.061365" lon="-8.051611">
        <ele>100.270</ele>
        <time>2018-08-23T10:28:54Z</time>
      </trkpt>
      <trkpt lat="37.061565" lon="-8.046055">
        <ele>102.612</ele>
        <time>2018-08-23T10:30:31Z</time>
      </trkpt>
      <trkpt lat="37.061768" lon="-8.045741">
        <ele>102.572</ele>
        <time>2018-08-23T10:30:39Z</time>
      </trkpt>
      <trkpt lat="37.062080" lon="-8.042944">
        <ele>106.487</ele>
        <time>2018-08-23T10:32:24Z</time>
      </trkpt>
      <trkpt lat="37.062162" lon="-8.038156">
        <ele>102.963</ele>
        <time>2018-08-23T10:33:29Z</time>
      </trkpt>
      <trkpt lat="37.062038" lon="-8.032063">
        <ele>99.682</ele>
        <time>2018-08-23T10:34:52Z</time>
      </trkpt>
      <trkpt lat="37.061606" lon="-8.029781">
        <ele>95.243</ele>
        <time>2018-08-23T10:35:23Z</time>
      </trkpt>
      <trkpt lat="37.061041" lon="-8.027883">
        <ele>97.817</ele>
        <time>2018-08-23T10:35:56Z</time>
      </trkpt>
      <trkpt lat="37.060685" lon="-8.027214">
        <ele>93.308</ele>
        <time>2018-08-23T10:36:43Z</time>
      </trkpt>
      <trkpt lat="37.060337" lon="-8.027009">
        <ele>97.540</ele>
        <time>2018-08-23T10:36:55Z</time>
      </trkpt>
      <trkpt lat="37.060563" lon="-8.026219">
        <ele>97.715</ele>
        <time>2018-08-23T10:37:27Z</time>
      </trkpt>
      <trkpt lat="37.059486" lon="-8.022289">
        <ele>94.096</ele>
        <time>2018-08-23T10:38:22Z</time>
      </trkpt>
      <trkpt lat="37.058615" lon="-8.017185">
        <ele>76.837</ele>
        <time>2018-08-23T10:39:15Z</time>
      </trkpt>
      <trkpt lat="37.058839" lon="-8.016654">
        <ele>75.169</ele>
        <time>2018-08-23T10:39:22Z</time>
      </trkpt>
      <trkpt lat="37.060289" lon="-8.016047">
        <ele>75.979</ele>
        <time>2018-08-23T10:40:00Z</time>
      </trkpt>
      <trkpt lat="37.066308" lon="-8.014650">
        <ele>91.244</ele>
        <time>2018-08-23T10:42:52Z</time>
      </trkpt>
      <trkpt lat="37.067748" lon="-8.011666">
        <ele>91.130</ele>
        <time>2018-08-23T10:43:50Z</time>
      </trkpt>
      <trkpt lat="37.067432" lon="-8.006168">
        <ele>73.724</ele>
        <time>2018-08-23T10:44:58Z</time>
      </trkpt>
      <trkpt lat="37.069708" lon="-8.005689">
        <ele>79.804</ele>
        <time>2018-08-23T10:46:01Z</time>
      </trkpt>
      <trkpt lat="37.069867" lon="-8.004553">
        <ele>78.714</ele>
        <time>2018-08-23T10:46:16Z</time>
      </trkpt>
      <trkpt lat="37.069589" lon="-8.003890">
        <ele>75.708</ele>
        <time>2018-08-23T10:46:27Z</time>
      </trkpt>
      <trkpt lat="37.069644" lon="-8.003600">
        <ele>74.894</ele>
        <time>2018-08-23T10:46:32Z</time>
      </trkpt>
      <trkpt lat="37.070037" lon="-8.003223">
        <ele>74.299</ele>
        <time>2018-08-23T10:46:52Z</time>
      </trkpt>
      <trkpt lat="37.070352" lon="-8.003149">
        <ele>75.360</ele>
        <time>2018-08-23T10:47:30Z</time>
      </trkpt>
      <trkpt lat="37.070112" lon="-8.003246">
        <ele>75.391</ele>
        <time>2018-08-23T10:47:40Z</time>
      </trkpt>
      <trkpt lat="37.069993" lon="-8.003156">
        <ele>75.363</ele>
        <time>2018-08-23T10:47:43Z</time>
      </trkpt>
      <trkpt lat="37.070154" lon="-8.002247">
        <ele>79.263</ele>
        <time>2018-08-23T10:48:11Z</time>
      </trkpt>
      <trkpt lat="37.069473" lon="-7.997619">
        <ele>81.128</ele>
        <time>2018-08-23T10:50:46Z</time>
      </trkpt>
      <trkpt lat="37.069641" lon="-7.996574">
        <ele>89.314</ele>
        <time>2018-08-23T10:51:37Z</time>
      </trkpt>
      <trkpt lat="37.069141" lon="-7.990526">
        <ele>103.211</ele>
        <time>2018-08-23T10:54:51Z</time>
      </trkpt>
      <trkpt lat="37.069284" lon="-7.988675">
        <ele>102.421</ele>
        <time>2018-08-23T10:55:27Z</time>
      </trkpt>
      <trkpt lat="37.067508" lon="-7.986647">
        <ele>100.303</ele>
        <time>2018-08-23T10:56:37Z</time>
      </trkpt>
      <trkpt lat="37.066087" lon="-7.984680">
        <ele>94.108</ele>
        <time>2018-08-23T10:57:16Z</time>
      </trkpt>
      <trkpt lat="37.062873" lon="-7.981821">
        <ele>98.783</ele>
        <time>2018-08-23T10:58:36Z</time>
      </trkpt>
      <trkpt lat="37.060685" lon="-7.979302">
        <ele>94.348</ele>
        <time>2018-08-23T10:59:43Z</time>
      </trkpt>
      <trkpt lat="37.059742" lon="-7.977749">
        <ele>101.069</ele>
        <time>2018-08-23T11:00:32Z</time>
      </trkpt>
      <trkpt lat="37.056564" lon="-7.974558">
        <ele>96.550</ele>
        <time>2018-08-23T11:01:56Z</time>
      </trkpt>
      <trkpt lat="37.055064" lon="-7.974440">
        <ele>85.322</ele>
        <time>2018-08-23T11:02:33Z</time>
      </trkpt>
      <trkpt lat="37.053539" lon="-7.974073">
        <ele>85.922</ele>
        <time>2018-08-23T11:03:03Z</time>
      </trkpt>
      <trkpt lat="37.050167" lon="-7.973599">
        <ele>80.947</ele>
        <time>2018-08-23T11:04:02Z</time>
      </trkpt>
      <trkpt lat="37.049027" lon="-7.971626">
        <ele>82.933</ele>
        <time>2018-08-23T11:04:43Z</time>
      </trkpt>
      <trkpt lat="37.047363" lon="-7.968042">
        <ele>80.276</ele>
        <time>2018-08-23T11:05:44Z</time>
      </trkpt>
      <trkpt lat="37.046869" lon="-7.967322">
        <ele>80.190</ele>
        <time>2018-08-23T11:06:04Z</time>
      </trkpt>
      <trkpt lat="37.047132" lon="-7.967763">
        <ele>83.919</ele>
        <time>2018-08-23T11:07:31Z</time>
      </trkpt>
      <trkpt lat="37.044889" lon="-7.969194">
        <ele>81.508</ele>
        <time>2018-08-23T11:08:50Z</time>
      </trkpt>
      <trkpt lat="37.043127" lon="-7.965673">
        <ele>79.679</ele>
        <time>2018-08-23T11:10:08Z</time>
      </trkpt>
      <trkpt lat="37.042277" lon="-7.965583">
        <ele>79.084</ele>
        <time>2018-08-23T11:10:27Z</time>
      </trkpt>
      <trkpt lat="37.040651" lon="-7.964616">
        <ele>83.135</ele>
        <time>2018-08-23T11:11:06Z</time>
      </trkpt>
      <trkpt lat="37.039498" lon="-7.964398">
        <ele>83.276</ele>
        <time>2018-08-23T11:11:29Z</time>
      </trkpt>
      <trkpt lat="37.038512" lon="-7.963427">
        <ele>85.368</ele>
        <time>2018-08-23T11:11:53Z</time>
      </trkpt>
      <trkpt lat="37.036348" lon="-7.962303">
        <ele>90.068</ele>
        <time>2018-08-23T11:12:37Z</time>
      </trkpt>
      <trkpt lat="37.035392" lon="-7.961088">
        <ele>89.413</ele>
        <time>2018-08-23T11:13:52Z</time>
      </trkpt>
      <trkpt lat="37.034984" lon="-7.960975">
        <ele>86.579</ele>
        <time>2018-08-23T11:14:04Z</time>
      </trkpt>
      <trkpt lat="37.034649" lon="-7.960535">
        <ele>83.827</ele>
        <time>2018-08-23T11:14:16Z</time>
      </trkpt>
      <trkpt lat="37.033892" lon="-7.960681">
        <ele>86.868</ele>
        <time>2018-08-23T11:14:36Z</time>
      </trkpt>
      <trkpt lat="37.032640" lon="-7.961212">
        <ele>92.414</ele>
        <time>2018-08-23T11:15:15Z</time>
      </trkpt>
      <trkpt lat="37.033299" lon="-7.960847">
        <ele>95.408</ele>
        <time>2018-08-23T11:15:52Z</time>
      </trkpt>
      <trkpt lat="37.033481" lon="-7.959822">
        <ele>93.134</ele>
        <time>2018-08-23T11:16:24Z</time>
      </trkpt>
      <trkpt lat="37.033442" lon="-7.957955">
        <ele>91.139</ele>
        <time>2018-08-23T11:16:51Z</time>
      </trkpt>
      <trkpt lat="37.033581" lon="-7.956820">
        <ele>86.670</ele>
        <time>2018-08-23T11:17:03Z</time>
      </trkpt>
      <trkpt lat="37.033088" lon="-7.955195">
        <ele>72.491</ele>
        <time>2018-08-23T11:17:21Z</time>
      </trkpt>
      <trkpt lat="37.033277" lon="-7.953644">
        <ele>59.193</ele>
        <time>2018-08-23T11:17:45Z</time>
      </trkpt>
      <trkpt lat="37.033088" lon="-7.952915">
        <ele>59.563</ele>
        <time>2018-08-23T11:17:55Z</time>
      </trkpt>
      <trkpt lat="37.033122" lon="-7.951943">
        <ele>61.468</ele>
        <time>2018-08-23T11:18:10Z</time>
      </trkpt>
      <trkpt lat="37.030174" lon="-7.949754">
        <ele>60.274</ele>
        <time>2018-08-23T11:19:12Z</time>
      </trkpt>
      <trkpt lat="37.029322" lon="-7.949880">
        <ele>64.167</ele>
        <time>2018-08-23T11:19:29Z</time>
      </trkpt>
      <trkpt lat="37.028790" lon="-7.949070">
        <ele>61.681</ele>
        <time>2018-08-23T11:19:44Z</time>
      </trkpt>
      <trkpt lat="37.028523" lon="-7.948834">
        <ele>61.619</ele>
        <time>2018-08-23T11:19:51Z</time>
      </trkpt>
      <trkpt lat="37.028579" lon="-7.949053">
        <ele>60.508</ele>
        <time>2018-08-23T11:20:30Z</time>
      </trkpt>
      <trkpt lat="37.028641" lon="-7.948963">
        <ele>60.118</ele>
        <time>2018-08-23T11:21:05Z</time>
      </trkpt>
      <trkpt lat="37.028357" lon="-7.948655">
        <ele>59.133</ele>
        <time>2018-08-23T11:21:14Z</time>
      </trkpt>
      <trkpt lat="37.027046" lon="-7.947692">
        <ele>59.024</ele>
        <time>2018-08-23T11:21:49Z</time>
      </trkpt>
      <trkpt lat="37.026823" lon="-7.947972">
        <ele>62.395</ele>
        <time>2018-08-23T11:22:00Z</time>
      </trkpt>
      <trkpt lat="37.025511" lon="-7.947947">
        <ele>58.267</ele>
        <time>2018-08-23T11:22:29Z</time>
      </trkpt>
      <trkpt lat="37.024839" lon="-7.948310">
        <ele>60.127</ele>
        <time>2018-08-23T11:22:44Z</time>
      </trkpt>
      <trkpt lat="37.024067" lon="-7.947844">
        <ele>60.522</ele>
        <time>2018-08-23T11:23:17Z</time>
      </trkpt>
      <trkpt lat="37.023829" lon="-7.947965">
        <ele>59.338</ele>
        <time>2018-08-23T11:24:41Z</time>
      </trkpt>
      <trkpt lat="37.022853" lon="-7.947488">
        <ele>54.023</ele>
        <time>2018-08-23T11:27:34Z</time>
      </trkpt>
      <trkpt lat="37.022273" lon="-7.947365">
        <ele>55.983</ele>
        <time>2018-08-23T11:29:59Z</time>
      </trkpt>
      <trkpt lat="37.022279" lon="-7.947166">
        <ele>55.511</ele>
        <time>2018-08-23T11:30:11Z</time>
      </trkpt>
      <trkpt lat="37.022882" lon="-7.946434">
        <ele>55.308</ele>
        <time>2018-08-23T11:30:37Z</time>
      </trkpt>
      <trkpt lat="37.023204" lon="-7.945391">
        <ele>57.114</ele>
        <time>2018-08-23T11:31:00Z</time>
      </trkpt>
      <trkpt lat="37.023742" lon="-7.944564">
        <ele>57.679</ele>
        <time>2018-08-23T11:31:50Z</time>
      </trkpt>
      <trkpt lat="37.020726" lon="-7.942029">
        <ele>58.640</ele>
        <time>2018-08-23T11:33:24Z</time>
      </trkpt>
      <trkpt lat="37.019503" lon="-7.941200">
        <ele>59.341</ele>
        <time>2018-08-23T11:33:56Z</time>
      </trkpt>
      <trkpt lat="37.017080" lon="-7.938826">
        <ele>59.273</ele>
        <time>2018-08-23T11:35:25Z</time>
      </trkpt>
      <trkpt lat="37.016031" lon="-7.938149">
        <ele>59.173</ele>
        <time>2018-08-23T11:35:59Z</time>
      </trkpt>
      <trkpt lat="37.016073" lon="-7.937934">
        <ele>57.338</ele>
        <time>2018-08-23T11:36:35Z</time>
      </trkpt>
      <trkpt lat="37.016265" lon="-7.937904">
        <ele>56.884</ele>
        <time>2018-08-23T11:36:51Z</time>
      </trkpt>
      <trkpt lat="37.017201" lon="-7.938421">
        <ele>59.769</ele>
        <time>2018-08-23T11:37:25Z</time>
      </trkpt>
      <trkpt lat="37.017610" lon="-7.938360">
        <ele>60.904</ele>
        <time>2018-08-23T11:37:57Z</time>
      </trkpt>
      <trkpt lat="37.017956" lon="-7.939099">
        <ele>61.024</ele>
        <time>2018-08-23T11:38:27Z</time>
      </trkpt>
      <trkpt lat="37.018606" lon="-7.939515">
        <ele>62.708</ele>
        <time>2018-08-23T11:39:00Z</time>
      </trkpt>
      <trkpt lat="37.018341" lon="-7.939654">
        <ele>60.068</ele>
        <time>2018-08-23T11:39:31Z</time>
      </trkpt>
    </trkseg>
  </trk>
</gpx>
